<?xml version="1.0" encoding="UTF-8" standalone="no" ?>
<gpx xmlns="http://www.topografix.com/GPX/1/1" xmlns:xsi="http://www.w3.org/2001/XMLSchema-instance" xsi:schemaLocation="http://www.topografix.com/GPX/1/1 http://www.topografix.com/GPX/1/1/gpx.xsd" version="1.1" creator="VisuGPX - https://www.visugpx.com">
  <metadata>
    <name>Tour du Beaufortain 6 jours</name>
    <desc><![CDATA[Détour par le "lac" des Saisies]]></desc>
  </metadata>
  <trk>
    <name><![CDATA[Beaufort Randonnée]]></name>
    <extensions>
      <line xmlns="http://www.topografix.com/GPX/gpx_style/0/2">
        <color>0000FF</color>
        <width>4</width>
      </line>
    </extensions>
    <trkseg>
      <trkpt lat="45.6551" lon="6.53149">
        <ele>1935</ele>
        <time>2022-07-28T07:04:12Z</time>
      </trkpt>
      <trkpt lat="45.65511" lon="6.53149">
        <ele>1935</ele>
        <time>2022-07-28T07:04:13Z</time>
      </trkpt>
      <trkpt lat="45.65511" lon="6.53148">
        <ele>1935</ele>
        <time>2022-07-28T07:04:14Z</time>
      </trkpt>
      <trkpt lat="45.65512" lon="6.53148">
        <ele>1935</ele>
        <time>2022-07-28T07:04:15Z</time>
      </trkpt>
      <trkpt lat="45.65512" lon="6.53148">
        <ele>1935</ele>
        <time>2022-07-28T07:04:16Z</time>
      </trkpt>
      <trkpt lat="45.65513" lon="6.53148">
        <ele>1935</ele>
        <time>2022-07-28T07:04:17Z</time>
      </trkpt>
      <trkpt lat="45.65514" lon="6.53148">
        <ele>1935</ele>
        <time>2022-07-28T07:04:18Z</time>
      </trkpt>
      <trkpt lat="45.65515" lon="6.53148">
        <ele>1935</ele>
        <time>2022-07-28T07:04:48Z</time>
      </trkpt>
      <trkpt lat="45.65516" lon="6.53148">
        <ele>1935</ele>
        <time>2022-07-28T07:04:49Z</time>
      </trkpt>
      <trkpt lat="45.65516" lon="6.53148">
        <ele>1935</ele>
        <time>2022-07-28T07:04:50Z</time>
      </trkpt>
      <trkpt lat="45.65515" lon="6.53148">
        <ele>1935</ele>
        <time>2022-07-28T07:05:11Z</time>
      </trkpt>
      <trkpt lat="45.65516" lon="6.53147">
        <ele>1935</ele>
        <time>2022-07-28T07:05:12Z</time>
      </trkpt>
      <trkpt lat="45.65516" lon="6.53147">
        <ele>1935</ele>
        <time>2022-07-28T07:05:13Z</time>
      </trkpt>
      <trkpt lat="45.65516" lon="6.53148">
        <ele>1935</ele>
        <time>2022-07-28T07:05:14Z</time>
      </trkpt>
      <trkpt lat="45.65516" lon="6.53148">
        <ele>1935</ele>
        <time>2022-07-28T07:05:15Z</time>
      </trkpt>
      <trkpt lat="45.65517" lon="6.53148">
        <ele>1935</ele>
        <time>2022-07-28T07:05:16Z</time>
      </trkpt>
      <trkpt lat="45.65517" lon="6.53149">
        <ele>1934</ele>
        <time>2022-07-28T07:05:17Z</time>
      </trkpt>
      <trkpt lat="45.65518" lon="6.53149">
        <ele>1934</ele>
        <time>2022-07-28T07:05:18Z</time>
      </trkpt>
      <trkpt lat="45.65518" lon="6.5315">
        <ele>1934</ele>
        <time>2022-07-28T07:05:19Z</time>
      </trkpt>
      <trkpt lat="45.65519" lon="6.5315">
        <ele>1934</ele>
        <time>2022-07-28T07:05:20Z</time>
      </trkpt>
      <trkpt lat="45.6552" lon="6.5315">
        <ele>1934</ele>
        <time>2022-07-28T07:05:21Z</time>
      </trkpt>
      <trkpt lat="45.65521" lon="6.53151">
        <ele>1934</ele>
        <time>2022-07-28T07:05:22Z</time>
      </trkpt>
      <trkpt lat="45.65522" lon="6.53151">
        <ele>1934</ele>
        <time>2022-07-28T07:05:23Z</time>
      </trkpt>
      <trkpt lat="45.65523" lon="6.53152">
        <ele>1934</ele>
        <time>2022-07-28T07:05:24Z</time>
      </trkpt>
      <trkpt lat="45.65524" lon="6.53152">
        <ele>1934</ele>
        <time>2022-07-28T07:05:25Z</time>
      </trkpt>
      <trkpt lat="45.65525" lon="6.53153">
        <ele>1934</ele>
        <time>2022-07-28T07:05:26Z</time>
      </trkpt>
      <trkpt lat="45.65526" lon="6.53153">
        <ele>1933</ele>
        <time>2022-07-28T07:05:27Z</time>
      </trkpt>
      <trkpt lat="45.65527" lon="6.53154">
        <ele>1933</ele>
        <time>2022-07-28T07:05:28Z</time>
      </trkpt>
      <trkpt lat="45.65528" lon="6.53155">
        <ele>1933</ele>
        <time>2022-07-28T07:05:29Z</time>
      </trkpt>
      <trkpt lat="45.65529" lon="6.53156">
        <ele>1933</ele>
        <time>2022-07-28T07:05:30Z</time>
      </trkpt>
      <trkpt lat="45.6553" lon="6.53156">
        <ele>1933</ele>
        <time>2022-07-28T07:05:31Z</time>
      </trkpt>
      <trkpt lat="45.65531" lon="6.53157">
        <ele>1932</ele>
        <time>2022-07-28T07:05:32Z</time>
      </trkpt>
      <trkpt lat="45.65532" lon="6.53157">
        <ele>1932</ele>
        <time>2022-07-28T07:05:33Z</time>
      </trkpt>
      <trkpt lat="45.65533" lon="6.53157">
        <ele>1932</ele>
        <time>2022-07-28T07:05:34Z</time>
      </trkpt>
      <trkpt lat="45.65534" lon="6.53157">
        <ele>1932</ele>
        <time>2022-07-28T07:05:35Z</time>
      </trkpt>
      <trkpt lat="45.65535" lon="6.53158">
        <ele>1932</ele>
        <time>2022-07-28T07:05:36Z</time>
      </trkpt>
      <trkpt lat="45.65536" lon="6.53158">
        <ele>1931</ele>
        <time>2022-07-28T07:05:37Z</time>
      </trkpt>
      <trkpt lat="45.65537" lon="6.53159">
        <ele>1931</ele>
        <time>2022-07-28T07:05:38Z</time>
      </trkpt>
      <trkpt lat="45.65537" lon="6.5316">
        <ele>1931</ele>
        <time>2022-07-28T07:05:39Z</time>
      </trkpt>
      <trkpt lat="45.65538" lon="6.53161">
        <ele>1931</ele>
        <time>2022-07-28T07:05:40Z</time>
      </trkpt>
      <trkpt lat="45.65538" lon="6.53162">
        <ele>1931</ele>
        <time>2022-07-28T07:05:41Z</time>
      </trkpt>
      <trkpt lat="45.65539" lon="6.53163">
        <ele>1931</ele>
        <time>2022-07-28T07:05:42Z</time>
      </trkpt>
      <trkpt lat="45.65539" lon="6.53165">
        <ele>1931</ele>
        <time>2022-07-28T07:05:43Z</time>
      </trkpt>
      <trkpt lat="45.6554" lon="6.53165">
        <ele>1931</ele>
        <time>2022-07-28T07:05:44Z</time>
      </trkpt>
      <trkpt lat="45.6554" lon="6.53166">
        <ele>1931</ele>
        <time>2022-07-28T07:05:45Z</time>
      </trkpt>
      <trkpt lat="45.65541" lon="6.53167">
        <ele>1931</ele>
        <time>2022-07-28T07:05:46Z</time>
      </trkpt>
      <trkpt lat="45.65542" lon="6.53168">
        <ele>1930</ele>
        <time>2022-07-28T07:05:47Z</time>
      </trkpt>
      <trkpt lat="45.65542" lon="6.53168">
        <ele>1930</ele>
        <time>2022-07-28T07:05:48Z</time>
      </trkpt>
      <trkpt lat="45.65543" lon="6.53169">
        <ele>1930</ele>
        <time>2022-07-28T07:05:49Z</time>
      </trkpt>
      <trkpt lat="45.65544" lon="6.53169">
        <ele>1930</ele>
        <time>2022-07-28T07:05:50Z</time>
      </trkpt>
      <trkpt lat="45.65544" lon="6.5317">
        <ele>1930</ele>
        <time>2022-07-28T07:05:51Z</time>
      </trkpt>
      <trkpt lat="45.65545" lon="6.5317">
        <ele>1929</ele>
        <time>2022-07-28T07:05:52Z</time>
      </trkpt>
      <trkpt lat="45.65545" lon="6.53171">
        <ele>1929</ele>
        <time>2022-07-28T07:05:53Z</time>
      </trkpt>
      <trkpt lat="45.65546" lon="6.53171">
        <ele>1929</ele>
        <time>2022-07-28T07:05:54Z</time>
      </trkpt>
      <trkpt lat="45.65546" lon="6.53172">
        <ele>1929</ele>
        <time>2022-07-28T07:05:55Z</time>
      </trkpt>
      <trkpt lat="45.65547" lon="6.53172">
        <ele>1929</ele>
        <time>2022-07-28T07:05:56Z</time>
      </trkpt>
      <trkpt lat="45.65548" lon="6.53173">
        <ele>1928</ele>
        <time>2022-07-28T07:05:57Z</time>
      </trkpt>
      <trkpt lat="45.65549" lon="6.53174">
        <ele>1928</ele>
        <time>2022-07-28T07:05:58Z</time>
      </trkpt>
      <trkpt lat="45.65549" lon="6.53175">
        <ele>1927</ele>
        <time>2022-07-28T07:05:59Z</time>
      </trkpt>
      <trkpt lat="45.6555" lon="6.53175">
        <ele>1927</ele>
        <time>2022-07-28T07:06:00Z</time>
      </trkpt>
      <trkpt lat="45.65551" lon="6.53176">
        <ele>1927</ele>
        <time>2022-07-28T07:06:01Z</time>
      </trkpt>
      <trkpt lat="45.65552" lon="6.53177">
        <ele>1926</ele>
        <time>2022-07-28T07:06:02Z</time>
      </trkpt>
      <trkpt lat="45.65552" lon="6.53178">
        <ele>1926</ele>
        <time>2022-07-28T07:06:03Z</time>
      </trkpt>
      <trkpt lat="45.65553" lon="6.53178">
        <ele>1926</ele>
        <time>2022-07-28T07:06:04Z</time>
      </trkpt>
      <trkpt lat="45.65554" lon="6.53179">
        <ele>1926</ele>
        <time>2022-07-28T07:06:05Z</time>
      </trkpt>
      <trkpt lat="45.65555" lon="6.53179">
        <ele>1926</ele>
        <time>2022-07-28T07:06:06Z</time>
      </trkpt>
      <trkpt lat="45.65556" lon="6.53179">
        <ele>1925</ele>
        <time>2022-07-28T07:06:07Z</time>
      </trkpt>
      <trkpt lat="45.65556" lon="6.5318">
        <ele>1925</ele>
        <time>2022-07-28T07:06:08Z</time>
      </trkpt>
      <trkpt lat="45.65557" lon="6.5318">
        <ele>1924</ele>
        <time>2022-07-28T07:06:09Z</time>
      </trkpt>
      <trkpt lat="45.65558" lon="6.53181">
        <ele>1924</ele>
        <time>2022-07-28T07:06:10Z</time>
      </trkpt>
      <trkpt lat="45.65559" lon="6.53182">
        <ele>1924</ele>
        <time>2022-07-28T07:06:11Z</time>
      </trkpt>
      <trkpt lat="45.65559" lon="6.53183">
        <ele>1923</ele>
        <time>2022-07-28T07:06:12Z</time>
      </trkpt>
      <trkpt lat="45.6556" lon="6.53183">
        <ele>1923</ele>
        <time>2022-07-28T07:06:13Z</time>
      </trkpt>
      <trkpt lat="45.65561" lon="6.53184">
        <ele>1923</ele>
        <time>2022-07-28T07:06:14Z</time>
      </trkpt>
      <trkpt lat="45.65561" lon="6.53185">
        <ele>1923</ele>
        <time>2022-07-28T07:06:15Z</time>
      </trkpt>
      <trkpt lat="45.65562" lon="6.53185">
        <ele>1923</ele>
        <time>2022-07-28T07:06:16Z</time>
      </trkpt>
      <trkpt lat="45.65563" lon="6.53186">
        <ele>1922</ele>
        <time>2022-07-28T07:06:17Z</time>
      </trkpt>
      <trkpt lat="45.65564" lon="6.53187">
        <ele>1922</ele>
        <time>2022-07-28T07:06:18Z</time>
      </trkpt>
      <trkpt lat="45.65565" lon="6.53187">
        <ele>1922</ele>
        <time>2022-07-28T07:06:19Z</time>
      </trkpt>
      <trkpt lat="45.65566" lon="6.53188">
        <ele>1922</ele>
        <time>2022-07-28T07:06:20Z</time>
      </trkpt>
      <trkpt lat="45.65566" lon="6.53188">
        <ele>1922</ele>
        <time>2022-07-28T07:06:21Z</time>
      </trkpt>
      <trkpt lat="45.65567" lon="6.53189">
        <ele>1921</ele>
        <time>2022-07-28T07:06:22Z</time>
      </trkpt>
      <trkpt lat="45.65568" lon="6.53189">
        <ele>1921</ele>
        <time>2022-07-28T07:06:23Z</time>
      </trkpt>
      <trkpt lat="45.65569" lon="6.5319">
        <ele>1921</ele>
        <time>2022-07-28T07:06:24Z</time>
      </trkpt>
      <trkpt lat="45.6557" lon="6.53191">
        <ele>1921</ele>
        <time>2022-07-28T07:06:25Z</time>
      </trkpt>
      <trkpt lat="45.65571" lon="6.53192">
        <ele>1921</ele>
        <time>2022-07-28T07:06:26Z</time>
      </trkpt>
      <trkpt lat="45.65571" lon="6.53192">
        <ele>1920</ele>
        <time>2022-07-28T07:06:27Z</time>
      </trkpt>
      <trkpt lat="45.65572" lon="6.53193">
        <ele>1920</ele>
        <time>2022-07-28T07:06:28Z</time>
      </trkpt>
      <trkpt lat="45.65573" lon="6.53194">
        <ele>1920</ele>
        <time>2022-07-28T07:06:29Z</time>
      </trkpt>
      <trkpt lat="45.65574" lon="6.53194">
        <ele>1920</ele>
        <time>2022-07-28T07:06:30Z</time>
      </trkpt>
      <trkpt lat="45.65575" lon="6.53195">
        <ele>1920</ele>
        <time>2022-07-28T07:06:31Z</time>
      </trkpt>
      <trkpt lat="45.65575" lon="6.53195">
        <ele>1919</ele>
        <time>2022-07-28T07:06:32Z</time>
      </trkpt>
      <trkpt lat="45.65576" lon="6.53196">
        <ele>1919</ele>
        <time>2022-07-28T07:06:33Z</time>
      </trkpt>
      <trkpt lat="45.65577" lon="6.53196">
        <ele>1919</ele>
        <time>2022-07-28T07:06:34Z</time>
      </trkpt>
      <trkpt lat="45.65577" lon="6.53197">
        <ele>1919</ele>
        <time>2022-07-28T07:06:35Z</time>
      </trkpt>
      <trkpt lat="45.65578" lon="6.53197">
        <ele>1919</ele>
        <time>2022-07-28T07:06:36Z</time>
      </trkpt>
      <trkpt lat="45.65579" lon="6.53198">
        <ele>1918</ele>
        <time>2022-07-28T07:06:37Z</time>
      </trkpt>
      <trkpt lat="45.65579" lon="6.53199">
        <ele>1918</ele>
        <time>2022-07-28T07:06:38Z</time>
      </trkpt>
      <trkpt lat="45.6558" lon="6.53199">
        <ele>1918</ele>
        <time>2022-07-28T07:06:39Z</time>
      </trkpt>
      <trkpt lat="45.65581" lon="6.532">
        <ele>1918</ele>
        <time>2022-07-28T07:06:40Z</time>
      </trkpt>
      <trkpt lat="45.65582" lon="6.53201">
        <ele>1918</ele>
        <time>2022-07-28T07:06:41Z</time>
      </trkpt>
      <trkpt lat="45.65582" lon="6.53201">
        <ele>1917</ele>
        <time>2022-07-28T07:06:42Z</time>
      </trkpt>
      <trkpt lat="45.65583" lon="6.53202">
        <ele>1917</ele>
        <time>2022-07-28T07:06:43Z</time>
      </trkpt>
      <trkpt lat="45.65584" lon="6.53203">
        <ele>1917</ele>
        <time>2022-07-28T07:06:44Z</time>
      </trkpt>
      <trkpt lat="45.65585" lon="6.53204">
        <ele>1917</ele>
        <time>2022-07-28T07:06:45Z</time>
      </trkpt>
      <trkpt lat="45.65585" lon="6.53204">
        <ele>1917</ele>
        <time>2022-07-28T07:06:46Z</time>
      </trkpt>
      <trkpt lat="45.65586" lon="6.53205">
        <ele>1916</ele>
        <time>2022-07-28T07:06:47Z</time>
      </trkpt>
      <trkpt lat="45.65587" lon="6.53206">
        <ele>1916</ele>
        <time>2022-07-28T07:06:48Z</time>
      </trkpt>
      <trkpt lat="45.65588" lon="6.53206">
        <ele>1916</ele>
        <time>2022-07-28T07:06:49Z</time>
      </trkpt>
      <trkpt lat="45.65589" lon="6.53207">
        <ele>1916</ele>
        <time>2022-07-28T07:06:50Z</time>
      </trkpt>
      <trkpt lat="45.6559" lon="6.53207">
        <ele>1916</ele>
        <time>2022-07-28T07:06:51Z</time>
      </trkpt>
      <trkpt lat="45.65591" lon="6.53208">
        <ele>1915</ele>
        <time>2022-07-28T07:06:52Z</time>
      </trkpt>
      <trkpt lat="45.65592" lon="6.53209">
        <ele>1915</ele>
        <time>2022-07-28T07:06:53Z</time>
      </trkpt>
      <trkpt lat="45.65592" lon="6.5321">
        <ele>1915</ele>
        <time>2022-07-28T07:06:54Z</time>
      </trkpt>
      <trkpt lat="45.65593" lon="6.53211">
        <ele>1915</ele>
        <time>2022-07-28T07:06:55Z</time>
      </trkpt>
      <trkpt lat="45.65594" lon="6.53212">
        <ele>1915</ele>
        <time>2022-07-28T07:06:56Z</time>
      </trkpt>
      <trkpt lat="45.65595" lon="6.53213">
        <ele>1914</ele>
        <time>2022-07-28T07:06:57Z</time>
      </trkpt>
      <trkpt lat="45.65595" lon="6.53214">
        <ele>1914</ele>
        <time>2022-07-28T07:06:58Z</time>
      </trkpt>
      <trkpt lat="45.65596" lon="6.53215">
        <ele>1914</ele>
        <time>2022-07-28T07:06:59Z</time>
      </trkpt>
      <trkpt lat="45.65597" lon="6.53216">
        <ele>1914</ele>
        <time>2022-07-28T07:07:00Z</time>
      </trkpt>
      <trkpt lat="45.65597" lon="6.53217">
        <ele>1914</ele>
        <time>2022-07-28T07:07:01Z</time>
      </trkpt>
      <trkpt lat="45.65598" lon="6.53218">
        <ele>1913</ele>
        <time>2022-07-28T07:07:02Z</time>
      </trkpt>
      <trkpt lat="45.65599" lon="6.53219">
        <ele>1913</ele>
        <time>2022-07-28T07:07:03Z</time>
      </trkpt>
      <trkpt lat="45.656" lon="6.5322">
        <ele>1913</ele>
        <time>2022-07-28T07:07:04Z</time>
      </trkpt>
      <trkpt lat="45.656" lon="6.53221">
        <ele>1913</ele>
        <time>2022-07-28T07:07:05Z</time>
      </trkpt>
      <trkpt lat="45.65601" lon="6.53222">
        <ele>1913</ele>
        <time>2022-07-28T07:07:06Z</time>
      </trkpt>
      <trkpt lat="45.65602" lon="6.53222">
        <ele>1913</ele>
        <time>2022-07-28T07:07:07Z</time>
      </trkpt>
      <trkpt lat="45.65603" lon="6.53223">
        <ele>1913</ele>
        <time>2022-07-28T07:07:08Z</time>
      </trkpt>
      <trkpt lat="45.65604" lon="6.53224">
        <ele>1913</ele>
        <time>2022-07-28T07:07:09Z</time>
      </trkpt>
      <trkpt lat="45.65605" lon="6.53225">
        <ele>1913</ele>
        <time>2022-07-28T07:07:10Z</time>
      </trkpt>
      <trkpt lat="45.65605" lon="6.53226">
        <ele>1913</ele>
        <time>2022-07-28T07:07:11Z</time>
      </trkpt>
      <trkpt lat="45.65606" lon="6.53227">
        <ele>1912</ele>
        <time>2022-07-28T07:07:12Z</time>
      </trkpt>
      <trkpt lat="45.65607" lon="6.53228">
        <ele>1912</ele>
        <time>2022-07-28T07:07:13Z</time>
      </trkpt>
      <trkpt lat="45.65608" lon="6.53229">
        <ele>1912</ele>
        <time>2022-07-28T07:07:14Z</time>
      </trkpt>
      <trkpt lat="45.65609" lon="6.5323">
        <ele>1912</ele>
        <time>2022-07-28T07:07:15Z</time>
      </trkpt>
      <trkpt lat="45.6561" lon="6.53231">
        <ele>1912</ele>
        <time>2022-07-28T07:07:16Z</time>
      </trkpt>
      <trkpt lat="45.65611" lon="6.53232">
        <ele>1912</ele>
        <time>2022-07-28T07:07:17Z</time>
      </trkpt>
      <trkpt lat="45.65612" lon="6.53233">
        <ele>1912</ele>
        <time>2022-07-28T07:07:18Z</time>
      </trkpt>
      <trkpt lat="45.65613" lon="6.53234">
        <ele>1912</ele>
        <time>2022-07-28T07:07:19Z</time>
      </trkpt>
      <trkpt lat="45.65614" lon="6.53234">
        <ele>1912</ele>
        <time>2022-07-28T07:07:20Z</time>
      </trkpt>
      <trkpt lat="45.65615" lon="6.53235">
        <ele>1912</ele>
        <time>2022-07-28T07:07:21Z</time>
      </trkpt>
      <trkpt lat="45.65615" lon="6.53236">
        <ele>1911</ele>
        <time>2022-07-28T07:07:22Z</time>
      </trkpt>
      <trkpt lat="45.65616" lon="6.53237">
        <ele>1911</ele>
        <time>2022-07-28T07:07:23Z</time>
      </trkpt>
      <trkpt lat="45.65617" lon="6.53237">
        <ele>1911</ele>
        <time>2022-07-28T07:07:24Z</time>
      </trkpt>
      <trkpt lat="45.65618" lon="6.53238">
        <ele>1911</ele>
        <time>2022-07-28T07:07:25Z</time>
      </trkpt>
      <trkpt lat="45.65619" lon="6.53239">
        <ele>1911</ele>
        <time>2022-07-28T07:07:26Z</time>
      </trkpt>
      <trkpt lat="45.6562" lon="6.5324">
        <ele>1911</ele>
        <time>2022-07-28T07:07:27Z</time>
      </trkpt>
      <trkpt lat="45.65621" lon="6.53241">
        <ele>1911</ele>
        <time>2022-07-28T07:07:28Z</time>
      </trkpt>
      <trkpt lat="45.65622" lon="6.53242">
        <ele>1911</ele>
        <time>2022-07-28T07:07:29Z</time>
      </trkpt>
      <trkpt lat="45.65623" lon="6.53243">
        <ele>1911</ele>
        <time>2022-07-28T07:07:30Z</time>
      </trkpt>
      <trkpt lat="45.65624" lon="6.53244">
        <ele>1911</ele>
        <time>2022-07-28T07:07:31Z</time>
      </trkpt>
      <trkpt lat="45.65626" lon="6.53245">
        <ele>1911</ele>
        <time>2022-07-28T07:07:32Z</time>
      </trkpt>
      <trkpt lat="45.65627" lon="6.53246">
        <ele>1911</ele>
        <time>2022-07-28T07:07:33Z</time>
      </trkpt>
      <trkpt lat="45.65628" lon="6.53247">
        <ele>1911</ele>
        <time>2022-07-28T07:07:34Z</time>
      </trkpt>
      <trkpt lat="45.65629" lon="6.53248">
        <ele>1911</ele>
        <time>2022-07-28T07:07:35Z</time>
      </trkpt>
      <trkpt lat="45.65629" lon="6.53249">
        <ele>1911</ele>
        <time>2022-07-28T07:07:36Z</time>
      </trkpt>
      <trkpt lat="45.6563" lon="6.5325">
        <ele>1911</ele>
        <time>2022-07-28T07:07:37Z</time>
      </trkpt>
      <trkpt lat="45.65631" lon="6.5325">
        <ele>1911</ele>
        <time>2022-07-28T07:07:38Z</time>
      </trkpt>
      <trkpt lat="45.65631" lon="6.53251">
        <ele>1911</ele>
        <time>2022-07-28T07:07:39Z</time>
      </trkpt>
      <trkpt lat="45.65632" lon="6.53251">
        <ele>1911</ele>
        <time>2022-07-28T07:07:40Z</time>
      </trkpt>
      <trkpt lat="45.65632" lon="6.53252">
        <ele>1911</ele>
        <time>2022-07-28T07:07:41Z</time>
      </trkpt>
      <trkpt lat="45.65632" lon="6.53252">
        <ele>1911</ele>
        <time>2022-07-28T07:07:42Z</time>
      </trkpt>
      <trkpt lat="45.65633" lon="6.53253">
        <ele>1911</ele>
        <time>2022-07-28T07:07:43Z</time>
      </trkpt>
      <trkpt lat="45.65634" lon="6.53254">
        <ele>1911</ele>
        <time>2022-07-28T07:07:44Z</time>
      </trkpt>
      <trkpt lat="45.65634" lon="6.53255">
        <ele>1911</ele>
        <time>2022-07-28T07:07:45Z</time>
      </trkpt>
      <trkpt lat="45.65635" lon="6.53256">
        <ele>1911</ele>
        <time>2022-07-28T07:07:46Z</time>
      </trkpt>
      <trkpt lat="45.65636" lon="6.53257">
        <ele>1911</ele>
        <time>2022-07-28T07:07:47Z</time>
      </trkpt>
      <trkpt lat="45.65637" lon="6.53258">
        <ele>1911</ele>
        <time>2022-07-28T07:07:48Z</time>
      </trkpt>
      <trkpt lat="45.65638" lon="6.53259">
        <ele>1911</ele>
        <time>2022-07-28T07:07:49Z</time>
      </trkpt>
      <trkpt lat="45.65639" lon="6.5326">
        <ele>1911</ele>
        <time>2022-07-28T07:07:50Z</time>
      </trkpt>
      <trkpt lat="45.6564" lon="6.53262">
        <ele>1911</ele>
        <time>2022-07-28T07:07:51Z</time>
      </trkpt>
      <trkpt lat="45.65641" lon="6.53263">
        <ele>1910</ele>
        <time>2022-07-28T07:07:52Z</time>
      </trkpt>
      <trkpt lat="45.65641" lon="6.53264">
        <ele>1910</ele>
        <time>2022-07-28T07:07:53Z</time>
      </trkpt>
      <trkpt lat="45.65642" lon="6.53265">
        <ele>1910</ele>
        <time>2022-07-28T07:07:54Z</time>
      </trkpt>
      <trkpt lat="45.65643" lon="6.53266">
        <ele>1910</ele>
        <time>2022-07-28T07:07:55Z</time>
      </trkpt>
      <trkpt lat="45.65644" lon="6.53268">
        <ele>1910</ele>
        <time>2022-07-28T07:07:56Z</time>
      </trkpt>
      <trkpt lat="45.65645" lon="6.53269">
        <ele>1910</ele>
        <time>2022-07-28T07:07:57Z</time>
      </trkpt>
      <trkpt lat="45.65645" lon="6.5327">
        <ele>1910</ele>
        <time>2022-07-28T07:07:58Z</time>
      </trkpt>
      <trkpt lat="45.65646" lon="6.53272">
        <ele>1910</ele>
        <time>2022-07-28T07:07:59Z</time>
      </trkpt>
      <trkpt lat="45.65647" lon="6.53273">
        <ele>1910</ele>
        <time>2022-07-28T07:08:00Z</time>
      </trkpt>
      <trkpt lat="45.65648" lon="6.53274">
        <ele>1910</ele>
        <time>2022-07-28T07:08:01Z</time>
      </trkpt>
      <trkpt lat="45.65649" lon="6.53276">
        <ele>1910</ele>
        <time>2022-07-28T07:08:02Z</time>
      </trkpt>
      <trkpt lat="45.6565" lon="6.53277">
        <ele>1910</ele>
        <time>2022-07-28T07:08:03Z</time>
      </trkpt>
      <trkpt lat="45.6565" lon="6.53278">
        <ele>1910</ele>
        <time>2022-07-28T07:08:04Z</time>
      </trkpt>
      <trkpt lat="45.65651" lon="6.5328">
        <ele>1910</ele>
        <time>2022-07-28T07:08:05Z</time>
      </trkpt>
      <trkpt lat="45.65652" lon="6.53281">
        <ele>1910</ele>
        <time>2022-07-28T07:08:06Z</time>
      </trkpt>
      <trkpt lat="45.65653" lon="6.53282">
        <ele>1910</ele>
        <time>2022-07-28T07:08:07Z</time>
      </trkpt>
      <trkpt lat="45.65654" lon="6.53283">
        <ele>1910</ele>
        <time>2022-07-28T07:08:08Z</time>
      </trkpt>
      <trkpt lat="45.65654" lon="6.53284">
        <ele>1910</ele>
        <time>2022-07-28T07:08:09Z</time>
      </trkpt>
      <trkpt lat="45.65655" lon="6.53285">
        <ele>1910</ele>
        <time>2022-07-28T07:08:10Z</time>
      </trkpt>
      <trkpt lat="45.65655" lon="6.53285">
        <ele>1910</ele>
        <time>2022-07-28T07:08:11Z</time>
      </trkpt>
      <trkpt lat="45.65656" lon="6.53286">
        <ele>1910</ele>
        <time>2022-07-28T07:08:12Z</time>
      </trkpt>
      <trkpt lat="45.65656" lon="6.53287">
        <ele>1910</ele>
        <time>2022-07-28T07:08:18Z</time>
      </trkpt>
      <trkpt lat="45.65657" lon="6.53287">
        <ele>1910</ele>
        <time>2022-07-28T07:08:19Z</time>
      </trkpt>
      <trkpt lat="45.65657" lon="6.53288">
        <ele>1910</ele>
        <time>2022-07-28T07:08:20Z</time>
      </trkpt>
      <trkpt lat="45.65658" lon="6.53288">
        <ele>1910</ele>
        <time>2022-07-28T07:08:21Z</time>
      </trkpt>
      <trkpt lat="45.65658" lon="6.53289">
        <ele>1910</ele>
        <time>2022-07-28T07:08:22Z</time>
      </trkpt>
      <trkpt lat="45.65659" lon="6.53291">
        <ele>1910</ele>
        <time>2022-07-28T07:08:23Z</time>
      </trkpt>
      <trkpt lat="45.6566" lon="6.53292">
        <ele>1910</ele>
        <time>2022-07-28T07:08:24Z</time>
      </trkpt>
      <trkpt lat="45.65661" lon="6.53293">
        <ele>1910</ele>
        <time>2022-07-28T07:08:25Z</time>
      </trkpt>
      <trkpt lat="45.65661" lon="6.53295">
        <ele>1910</ele>
        <time>2022-07-28T07:08:26Z</time>
      </trkpt>
      <trkpt lat="45.65662" lon="6.53296">
        <ele>1910</ele>
        <time>2022-07-28T07:08:27Z</time>
      </trkpt>
      <trkpt lat="45.65663" lon="6.53297">
        <ele>1910</ele>
        <time>2022-07-28T07:08:28Z</time>
      </trkpt>
      <trkpt lat="45.65664" lon="6.53298">
        <ele>1910</ele>
        <time>2022-07-28T07:08:29Z</time>
      </trkpt>
      <trkpt lat="45.65664" lon="6.53299">
        <ele>1910</ele>
        <time>2022-07-28T07:08:30Z</time>
      </trkpt>
      <trkpt lat="45.65665" lon="6.533">
        <ele>1910</ele>
        <time>2022-07-28T07:08:31Z</time>
      </trkpt>
      <trkpt lat="45.65666" lon="6.53301">
        <ele>1910</ele>
        <time>2022-07-28T07:08:32Z</time>
      </trkpt>
      <trkpt lat="45.65667" lon="6.53302">
        <ele>1910</ele>
        <time>2022-07-28T07:08:33Z</time>
      </trkpt>
      <trkpt lat="45.65667" lon="6.53303">
        <ele>1910</ele>
        <time>2022-07-28T07:08:34Z</time>
      </trkpt>
      <trkpt lat="45.65668" lon="6.53304">
        <ele>1910</ele>
        <time>2022-07-28T07:08:35Z</time>
      </trkpt>
      <trkpt lat="45.65669" lon="6.53305">
        <ele>1911</ele>
        <time>2022-07-28T07:08:36Z</time>
      </trkpt>
      <trkpt lat="45.6567" lon="6.53306">
        <ele>1911</ele>
        <time>2022-07-28T07:08:37Z</time>
      </trkpt>
      <trkpt lat="45.65671" lon="6.53307">
        <ele>1911</ele>
        <time>2022-07-28T07:08:38Z</time>
      </trkpt>
      <trkpt lat="45.65672" lon="6.53308">
        <ele>1911</ele>
        <time>2022-07-28T07:08:39Z</time>
      </trkpt>
      <trkpt lat="45.65673" lon="6.53309">
        <ele>1911</ele>
        <time>2022-07-28T07:08:40Z</time>
      </trkpt>
      <trkpt lat="45.65673" lon="6.5331">
        <ele>1911</ele>
        <time>2022-07-28T07:08:41Z</time>
      </trkpt>
      <trkpt lat="45.65674" lon="6.5331">
        <ele>1911</ele>
        <time>2022-07-28T07:08:42Z</time>
      </trkpt>
      <trkpt lat="45.65675" lon="6.53311">
        <ele>1911</ele>
        <time>2022-07-28T07:08:43Z</time>
      </trkpt>
      <trkpt lat="45.65676" lon="6.53312">
        <ele>1911</ele>
        <time>2022-07-28T07:08:44Z</time>
      </trkpt>
      <trkpt lat="45.65676" lon="6.53313">
        <ele>1911</ele>
        <time>2022-07-28T07:08:45Z</time>
      </trkpt>
      <trkpt lat="45.65677" lon="6.53313">
        <ele>1911</ele>
        <time>2022-07-28T07:08:46Z</time>
      </trkpt>
      <trkpt lat="45.65678" lon="6.53314">
        <ele>1911</ele>
        <time>2022-07-28T07:08:47Z</time>
      </trkpt>
      <trkpt lat="45.65679" lon="6.53315">
        <ele>1911</ele>
        <time>2022-07-28T07:08:48Z</time>
      </trkpt>
      <trkpt lat="45.65679" lon="6.53316">
        <ele>1911</ele>
        <time>2022-07-28T07:08:49Z</time>
      </trkpt>
      <trkpt lat="45.6568" lon="6.53317">
        <ele>1911</ele>
        <time>2022-07-28T07:08:50Z</time>
      </trkpt>
      <trkpt lat="45.65681" lon="6.53317">
        <ele>1912</ele>
        <time>2022-07-28T07:08:51Z</time>
      </trkpt>
      <trkpt lat="45.65682" lon="6.53318">
        <ele>1912</ele>
        <time>2022-07-28T07:08:52Z</time>
      </trkpt>
      <trkpt lat="45.65682" lon="6.53319">
        <ele>1912</ele>
        <time>2022-07-28T07:08:53Z</time>
      </trkpt>
      <trkpt lat="45.65683" lon="6.53319">
        <ele>1912</ele>
        <time>2022-07-28T07:08:54Z</time>
      </trkpt>
      <trkpt lat="45.65684" lon="6.5332">
        <ele>1912</ele>
        <time>2022-07-28T07:08:55Z</time>
      </trkpt>
      <trkpt lat="45.65685" lon="6.53321">
        <ele>1912</ele>
        <time>2022-07-28T07:08:56Z</time>
      </trkpt>
      <trkpt lat="45.65686" lon="6.53321">
        <ele>1912</ele>
        <time>2022-07-28T07:08:57Z</time>
      </trkpt>
      <trkpt lat="45.65687" lon="6.53322">
        <ele>1912</ele>
        <time>2022-07-28T07:08:58Z</time>
      </trkpt>
      <trkpt lat="45.65687" lon="6.53323">
        <ele>1912</ele>
        <time>2022-07-28T07:08:59Z</time>
      </trkpt>
      <trkpt lat="45.65688" lon="6.53323">
        <ele>1912</ele>
        <time>2022-07-28T07:09:00Z</time>
      </trkpt>
      <trkpt lat="45.65689" lon="6.53324">
        <ele>1913</ele>
        <time>2022-07-28T07:09:01Z</time>
      </trkpt>
      <trkpt lat="45.6569" lon="6.53325">
        <ele>1913</ele>
        <time>2022-07-28T07:09:02Z</time>
      </trkpt>
      <trkpt lat="45.65691" lon="6.53326">
        <ele>1913</ele>
        <time>2022-07-28T07:09:03Z</time>
      </trkpt>
      <trkpt lat="45.65692" lon="6.53326">
        <ele>1913</ele>
        <time>2022-07-28T07:09:04Z</time>
      </trkpt>
      <trkpt lat="45.65693" lon="6.53327">
        <ele>1913</ele>
        <time>2022-07-28T07:09:05Z</time>
      </trkpt>
      <trkpt lat="45.65694" lon="6.53328">
        <ele>1913</ele>
        <time>2022-07-28T07:09:06Z</time>
      </trkpt>
      <trkpt lat="45.65694" lon="6.53329">
        <ele>1913</ele>
        <time>2022-07-28T07:09:07Z</time>
      </trkpt>
      <trkpt lat="45.65695" lon="6.5333">
        <ele>1913</ele>
        <time>2022-07-28T07:09:08Z</time>
      </trkpt>
      <trkpt lat="45.65696" lon="6.5333">
        <ele>1913</ele>
        <time>2022-07-28T07:09:09Z</time>
      </trkpt>
      <trkpt lat="45.65697" lon="6.53331">
        <ele>1913</ele>
        <time>2022-07-28T07:09:10Z</time>
      </trkpt>
      <trkpt lat="45.65697" lon="6.53332">
        <ele>1913</ele>
        <time>2022-07-28T07:09:11Z</time>
      </trkpt>
      <trkpt lat="45.65698" lon="6.53332">
        <ele>1913</ele>
        <time>2022-07-28T07:09:12Z</time>
      </trkpt>
      <trkpt lat="45.65699" lon="6.53333">
        <ele>1913</ele>
        <time>2022-07-28T07:09:13Z</time>
      </trkpt>
      <trkpt lat="45.657" lon="6.53333">
        <ele>1913</ele>
        <time>2022-07-28T07:09:14Z</time>
      </trkpt>
      <trkpt lat="45.65701" lon="6.53334">
        <ele>1913</ele>
        <time>2022-07-28T07:09:15Z</time>
      </trkpt>
      <trkpt lat="45.65701" lon="6.53335">
        <ele>1914</ele>
        <time>2022-07-28T07:09:16Z</time>
      </trkpt>
      <trkpt lat="45.65702" lon="6.53336">
        <ele>1914</ele>
        <time>2022-07-28T07:09:17Z</time>
      </trkpt>
      <trkpt lat="45.65703" lon="6.53337">
        <ele>1914</ele>
        <time>2022-07-28T07:09:18Z</time>
      </trkpt>
      <trkpt lat="45.65704" lon="6.53338">
        <ele>1914</ele>
        <time>2022-07-28T07:09:19Z</time>
      </trkpt>
      <trkpt lat="45.65705" lon="6.5334">
        <ele>1914</ele>
        <time>2022-07-28T07:09:20Z</time>
      </trkpt>
      <trkpt lat="45.65705" lon="6.53341">
        <ele>1914</ele>
        <time>2022-07-28T07:11:20Z</time>
      </trkpt>
      <trkpt lat="45.65705" lon="6.53341">
        <ele>1914</ele>
        <time>2022-07-28T07:11:21Z</time>
      </trkpt>
      <trkpt lat="45.65705" lon="6.53341">
        <ele>1914</ele>
        <time>2022-07-28T07:11:22Z</time>
      </trkpt>
      <trkpt lat="45.65704" lon="6.53341">
        <ele>1914</ele>
        <time>2022-07-28T07:11:23Z</time>
      </trkpt>
      <trkpt lat="45.65704" lon="6.53341">
        <ele>1914</ele>
        <time>2022-07-28T07:11:24Z</time>
      </trkpt>
      <trkpt lat="45.65703" lon="6.5334">
        <ele>1914</ele>
        <time>2022-07-28T07:11:25Z</time>
      </trkpt>
      <trkpt lat="45.65703" lon="6.53339">
        <ele>1914</ele>
        <time>2022-07-28T07:11:26Z</time>
      </trkpt>
      <trkpt lat="45.65703" lon="6.5334">
        <ele>1914</ele>
        <time>2022-07-28T07:13:35Z</time>
      </trkpt>
      <trkpt lat="45.65703" lon="6.5334">
        <ele>1914</ele>
        <time>2022-07-28T07:13:36Z</time>
      </trkpt>
      <trkpt lat="45.65703" lon="6.5334">
        <ele>1913</ele>
        <time>2022-07-28T07:13:37Z</time>
      </trkpt>
      <trkpt lat="45.65703" lon="6.53341">
        <ele>1913</ele>
        <time>2022-07-28T07:13:38Z</time>
      </trkpt>
      <trkpt lat="45.65703" lon="6.53341">
        <ele>1913</ele>
        <time>2022-07-28T07:13:39Z</time>
      </trkpt>
      <trkpt lat="45.65702" lon="6.53342">
        <ele>1913</ele>
        <time>2022-07-28T07:13:40Z</time>
      </trkpt>
      <trkpt lat="45.65701" lon="6.53343">
        <ele>1913</ele>
        <time>2022-07-28T07:13:41Z</time>
      </trkpt>
      <trkpt lat="45.657" lon="6.53344">
        <ele>1913</ele>
        <time>2022-07-28T07:13:42Z</time>
      </trkpt>
      <trkpt lat="45.65699" lon="6.53345">
        <ele>1913</ele>
        <time>2022-07-28T07:13:43Z</time>
      </trkpt>
      <trkpt lat="45.65698" lon="6.53346">
        <ele>1913</ele>
        <time>2022-07-28T07:13:44Z</time>
      </trkpt>
      <trkpt lat="45.65697" lon="6.53346">
        <ele>1913</ele>
        <time>2022-07-28T07:13:45Z</time>
      </trkpt>
      <trkpt lat="45.65696" lon="6.53347">
        <ele>1913</ele>
        <time>2022-07-28T07:13:46Z</time>
      </trkpt>
      <trkpt lat="45.65695" lon="6.53348">
        <ele>1913</ele>
        <time>2022-07-28T07:13:47Z</time>
      </trkpt>
      <trkpt lat="45.65693" lon="6.53349">
        <ele>1913</ele>
        <time>2022-07-28T07:14:42Z</time>
      </trkpt>
      <trkpt lat="45.65693" lon="6.53349">
        <ele>1913</ele>
        <time>2022-07-28T07:14:43Z</time>
      </trkpt>
      <trkpt lat="45.65692" lon="6.53349">
        <ele>1913</ele>
        <time>2022-07-28T07:14:44Z</time>
      </trkpt>
      <trkpt lat="45.65692" lon="6.53349">
        <ele>1913</ele>
        <time>2022-07-28T07:14:45Z</time>
      </trkpt>
      <trkpt lat="45.65692" lon="6.53348">
        <ele>1913</ele>
        <time>2022-07-28T07:14:46Z</time>
      </trkpt>
      <trkpt lat="45.65692" lon="6.53348">
        <ele>1913</ele>
        <time>2022-07-28T07:14:47Z</time>
      </trkpt>
      <trkpt lat="45.65693" lon="6.53347">
        <ele>1913</ele>
        <time>2022-07-28T07:14:48Z</time>
      </trkpt>
      <trkpt lat="45.65693" lon="6.53346">
        <ele>1913</ele>
        <time>2022-07-28T07:14:49Z</time>
      </trkpt>
      <trkpt lat="45.65694" lon="6.53346">
        <ele>1913</ele>
        <time>2022-07-28T07:14:50Z</time>
      </trkpt>
      <trkpt lat="45.65694" lon="6.53345">
        <ele>1913</ele>
        <time>2022-07-28T07:14:51Z</time>
      </trkpt>
      <trkpt lat="45.65695" lon="6.53344">
        <ele>1913</ele>
        <time>2022-07-28T07:14:52Z</time>
      </trkpt>
      <trkpt lat="45.65696" lon="6.53343">
        <ele>1913</ele>
        <time>2022-07-28T07:14:53Z</time>
      </trkpt>
      <trkpt lat="45.65696" lon="6.53343">
        <ele>1913</ele>
        <time>2022-07-28T07:14:54Z</time>
      </trkpt>
      <trkpt lat="45.65697" lon="6.53342">
        <ele>1913</ele>
        <time>2022-07-28T07:14:55Z</time>
      </trkpt>
      <trkpt lat="45.65698" lon="6.53342">
        <ele>1913</ele>
        <time>2022-07-28T07:14:56Z</time>
      </trkpt>
      <trkpt lat="45.65699" lon="6.53341">
        <ele>1913</ele>
        <time>2022-07-28T07:14:57Z</time>
      </trkpt>
      <trkpt lat="45.65699" lon="6.53341">
        <ele>1913</ele>
        <time>2022-07-28T07:14:58Z</time>
      </trkpt>
      <trkpt lat="45.657" lon="6.5334">
        <ele>1913</ele>
        <time>2022-07-28T07:14:59Z</time>
      </trkpt>
      <trkpt lat="45.65701" lon="6.5334">
        <ele>1913</ele>
        <time>2022-07-28T07:15:00Z</time>
      </trkpt>
      <trkpt lat="45.65702" lon="6.53339">
        <ele>1913</ele>
        <time>2022-07-28T07:15:01Z</time>
      </trkpt>
      <trkpt lat="45.65702" lon="6.53338">
        <ele>1913</ele>
        <time>2022-07-28T07:15:02Z</time>
      </trkpt>
      <trkpt lat="45.65703" lon="6.53339">
        <ele>1913</ele>
        <time>2022-07-28T07:15:45Z</time>
      </trkpt>
      <trkpt lat="45.65703" lon="6.5334">
        <ele>1914</ele>
        <time>2022-07-28T07:15:46Z</time>
      </trkpt>
      <trkpt lat="45.65704" lon="6.5334">
        <ele>1914</ele>
        <time>2022-07-28T07:15:47Z</time>
      </trkpt>
      <trkpt lat="45.65704" lon="6.53341">
        <ele>1914</ele>
        <time>2022-07-28T07:15:48Z</time>
      </trkpt>
      <trkpt lat="45.65705" lon="6.53341">
        <ele>1914</ele>
        <time>2022-07-28T07:15:49Z</time>
      </trkpt>
      <trkpt lat="45.65705" lon="6.53341">
        <ele>1914</ele>
        <time>2022-07-28T07:16:04Z</time>
      </trkpt>
      <trkpt lat="45.65705" lon="6.53341">
        <ele>1914</ele>
        <time>2022-07-28T07:16:05Z</time>
      </trkpt>
      <trkpt lat="45.65705" lon="6.53341">
        <ele>1914</ele>
        <time>2022-07-28T07:16:06Z</time>
      </trkpt>
      <trkpt lat="45.65705" lon="6.53341">
        <ele>1914</ele>
        <time>2022-07-28T07:16:07Z</time>
      </trkpt>
      <trkpt lat="45.65704" lon="6.53341">
        <ele>1914</ele>
        <time>2022-07-28T07:16:08Z</time>
      </trkpt>
      <trkpt lat="45.65704" lon="6.53341">
        <ele>1914</ele>
        <time>2022-07-28T07:16:09Z</time>
      </trkpt>
      <trkpt lat="45.65703" lon="6.53341">
        <ele>1914</ele>
        <time>2022-07-28T07:16:10Z</time>
      </trkpt>
      <trkpt lat="45.65702" lon="6.5334">
        <ele>1913</ele>
        <time>2022-07-28T07:16:21Z</time>
      </trkpt>
      <trkpt lat="45.65702" lon="6.53339">
        <ele>1913</ele>
        <time>2022-07-28T07:16:22Z</time>
      </trkpt>
      <trkpt lat="45.65702" lon="6.53339">
        <ele>1913</ele>
        <time>2022-07-28T07:16:23Z</time>
      </trkpt>
      <trkpt lat="45.65702" lon="6.53338">
        <ele>1913</ele>
        <time>2022-07-28T07:16:24Z</time>
      </trkpt>
      <trkpt lat="45.65701" lon="6.53337">
        <ele>1913</ele>
        <time>2022-07-28T07:16:25Z</time>
      </trkpt>
      <trkpt lat="45.65701" lon="6.53337">
        <ele>1913</ele>
        <time>2022-07-28T07:16:51Z</time>
      </trkpt>
      <trkpt lat="45.65701" lon="6.53336">
        <ele>1913</ele>
        <time>2022-07-28T07:16:52Z</time>
      </trkpt>
      <trkpt lat="45.65701" lon="6.53336">
        <ele>1913</ele>
        <time>2022-07-28T07:16:53Z</time>
      </trkpt>
      <trkpt lat="45.65701" lon="6.53335">
        <ele>1913</ele>
        <time>2022-07-28T07:16:54Z</time>
      </trkpt>
      <trkpt lat="45.657" lon="6.53335">
        <ele>1913</ele>
        <time>2022-07-28T07:16:55Z</time>
      </trkpt>
      <trkpt lat="45.657" lon="6.53335">
        <ele>1913</ele>
        <time>2022-07-28T07:16:56Z</time>
      </trkpt>
      <trkpt lat="45.65699" lon="6.53335">
        <ele>1913</ele>
        <time>2022-07-28T07:16:57Z</time>
      </trkpt>
      <trkpt lat="45.65698" lon="6.53334">
        <ele>1913</ele>
        <time>2022-07-28T07:16:58Z</time>
      </trkpt>
      <trkpt lat="45.65698" lon="6.53334">
        <ele>1913</ele>
        <time>2022-07-28T07:16:59Z</time>
      </trkpt>
      <trkpt lat="45.65697" lon="6.53334">
        <ele>1913</ele>
        <time>2022-07-28T07:17:00Z</time>
      </trkpt>
      <trkpt lat="45.65696" lon="6.53334">
        <ele>1913</ele>
        <time>2022-07-28T07:17:01Z</time>
      </trkpt>
      <trkpt lat="45.65695" lon="6.53333">
        <ele>1913</ele>
        <time>2022-07-28T07:17:02Z</time>
      </trkpt>
      <trkpt lat="45.65694" lon="6.53333">
        <ele>1913</ele>
        <time>2022-07-28T07:17:03Z</time>
      </trkpt>
      <trkpt lat="45.65694" lon="6.53333">
        <ele>1913</ele>
        <time>2022-07-28T07:17:04Z</time>
      </trkpt>
      <trkpt lat="45.65693" lon="6.53333">
        <ele>1913</ele>
        <time>2022-07-28T07:17:05Z</time>
      </trkpt>
      <trkpt lat="45.65692" lon="6.53332">
        <ele>1913</ele>
        <time>2022-07-28T07:17:06Z</time>
      </trkpt>
      <trkpt lat="45.65692" lon="6.53332">
        <ele>1913</ele>
        <time>2022-07-28T07:17:07Z</time>
      </trkpt>
      <trkpt lat="45.6569" lon="6.53331">
        <ele>1914</ele>
        <time>2022-07-28T07:17:15Z</time>
      </trkpt>
      <trkpt lat="45.6569" lon="6.53331">
        <ele>1914</ele>
        <time>2022-07-28T07:17:16Z</time>
      </trkpt>
      <trkpt lat="45.65689" lon="6.53331">
        <ele>1913</ele>
        <time>2022-07-28T07:17:17Z</time>
      </trkpt>
      <trkpt lat="45.65688" lon="6.53331">
        <ele>1913</ele>
        <time>2022-07-28T07:17:18Z</time>
      </trkpt>
      <trkpt lat="45.65687" lon="6.53331">
        <ele>1913</ele>
        <time>2022-07-28T07:17:19Z</time>
      </trkpt>
      <trkpt lat="45.65686" lon="6.5333">
        <ele>1912</ele>
        <time>2022-07-28T07:17:49Z</time>
      </trkpt>
      <trkpt lat="45.65685" lon="6.5333">
        <ele>1912</ele>
        <time>2022-07-28T07:17:50Z</time>
      </trkpt>
      <trkpt lat="45.65684" lon="6.53329">
        <ele>1912</ele>
        <time>2022-07-28T07:17:51Z</time>
      </trkpt>
      <trkpt lat="45.65684" lon="6.53328">
        <ele>1912</ele>
        <time>2022-07-28T07:17:52Z</time>
      </trkpt>
      <trkpt lat="45.65684" lon="6.53327">
        <ele>1912</ele>
        <time>2022-07-28T07:17:53Z</time>
      </trkpt>
      <trkpt lat="45.65683" lon="6.53325">
        <ele>1912</ele>
        <time>2022-07-28T07:17:54Z</time>
      </trkpt>
      <trkpt lat="45.65683" lon="6.53324">
        <ele>1912</ele>
        <time>2022-07-28T07:17:55Z</time>
      </trkpt>
      <trkpt lat="45.65682" lon="6.53322">
        <ele>1912</ele>
        <time>2022-07-28T07:17:56Z</time>
      </trkpt>
      <trkpt lat="45.65682" lon="6.53321">
        <ele>1912</ele>
        <time>2022-07-28T07:17:57Z</time>
      </trkpt>
      <trkpt lat="45.65681" lon="6.53319">
        <ele>1912</ele>
        <time>2022-07-28T07:17:58Z</time>
      </trkpt>
      <trkpt lat="45.6568" lon="6.53318">
        <ele>1912</ele>
        <time>2022-07-28T07:17:59Z</time>
      </trkpt>
      <trkpt lat="45.6568" lon="6.53317">
        <ele>1912</ele>
        <time>2022-07-28T07:18:00Z</time>
      </trkpt>
      <trkpt lat="45.65679" lon="6.53316">
        <ele>1913</ele>
        <time>2022-07-28T07:18:01Z</time>
      </trkpt>
      <trkpt lat="45.65678" lon="6.53315">
        <ele>1913</ele>
        <time>2022-07-28T07:18:02Z</time>
      </trkpt>
      <trkpt lat="45.65677" lon="6.53314">
        <ele>1913</ele>
        <time>2022-07-28T07:18:03Z</time>
      </trkpt>
      <trkpt lat="45.65676" lon="6.53314">
        <ele>1913</ele>
        <time>2022-07-28T07:18:04Z</time>
      </trkpt>
      <trkpt lat="45.65675" lon="6.53313">
        <ele>1913</ele>
        <time>2022-07-28T07:18:05Z</time>
      </trkpt>
      <trkpt lat="45.65674" lon="6.53313">
        <ele>1913</ele>
        <time>2022-07-28T07:18:06Z</time>
      </trkpt>
      <trkpt lat="45.65673" lon="6.53313">
        <ele>1912</ele>
        <time>2022-07-28T07:18:07Z</time>
      </trkpt>
      <trkpt lat="45.65673" lon="6.53313">
        <ele>1912</ele>
        <time>2022-07-28T07:18:08Z</time>
      </trkpt>
      <trkpt lat="45.65672" lon="6.53313">
        <ele>1912</ele>
        <time>2022-07-28T07:18:09Z</time>
      </trkpt>
      <trkpt lat="45.65672" lon="6.53314">
        <ele>1911</ele>
        <time>2022-07-28T07:18:45Z</time>
      </trkpt>
      <trkpt lat="45.65672" lon="6.53315">
        <ele>1911</ele>
        <time>2022-07-28T07:18:46Z</time>
      </trkpt>
      <trkpt lat="45.65672" lon="6.53315">
        <ele>1911</ele>
        <time>2022-07-28T07:18:47Z</time>
      </trkpt>
      <trkpt lat="45.65671" lon="6.53315">
        <ele>1911</ele>
        <time>2022-07-28T07:19:06Z</time>
      </trkpt>
      <trkpt lat="45.65671" lon="6.53314">
        <ele>1911</ele>
        <time>2022-07-28T07:19:07Z</time>
      </trkpt>
      <trkpt lat="45.65671" lon="6.53314">
        <ele>1911</ele>
        <time>2022-07-28T07:19:08Z</time>
      </trkpt>
      <trkpt lat="45.6567" lon="6.53313">
        <ele>1911</ele>
        <time>2022-07-28T07:19:09Z</time>
      </trkpt>
      <trkpt lat="45.6567" lon="6.53312">
        <ele>1911</ele>
        <time>2022-07-28T07:19:10Z</time>
      </trkpt>
      <trkpt lat="45.65669" lon="6.53311">
        <ele>1911</ele>
        <time>2022-07-28T07:19:11Z</time>
      </trkpt>
      <trkpt lat="45.65669" lon="6.5331">
        <ele>1911</ele>
        <time>2022-07-28T07:19:12Z</time>
      </trkpt>
      <trkpt lat="45.65668" lon="6.53309">
        <ele>1911</ele>
        <time>2022-07-28T07:19:13Z</time>
      </trkpt>
      <trkpt lat="45.65668" lon="6.53308">
        <ele>1911</ele>
        <time>2022-07-28T07:19:14Z</time>
      </trkpt>
      <trkpt lat="45.65667" lon="6.53306">
        <ele>1911</ele>
        <time>2022-07-28T07:19:15Z</time>
      </trkpt>
      <trkpt lat="45.65666" lon="6.53305">
        <ele>1911</ele>
        <time>2022-07-28T07:19:16Z</time>
      </trkpt>
      <trkpt lat="45.65666" lon="6.53304">
        <ele>1911</ele>
        <time>2022-07-28T07:19:17Z</time>
      </trkpt>
      <trkpt lat="45.65665" lon="6.53302">
        <ele>1911</ele>
        <time>2022-07-28T07:19:18Z</time>
      </trkpt>
      <trkpt lat="45.65664" lon="6.53301">
        <ele>1911</ele>
        <time>2022-07-28T07:19:19Z</time>
      </trkpt>
      <trkpt lat="45.65664" lon="6.533">
        <ele>1911</ele>
        <time>2022-07-28T07:19:20Z</time>
      </trkpt>
      <trkpt lat="45.65663" lon="6.53299">
        <ele>1911</ele>
        <time>2022-07-28T07:19:21Z</time>
      </trkpt>
      <trkpt lat="45.65663" lon="6.53299">
        <ele>1910</ele>
        <time>2022-07-28T07:19:22Z</time>
      </trkpt>
      <trkpt lat="45.65662" lon="6.53297">
        <ele>1910</ele>
        <time>2022-07-28T07:19:23Z</time>
      </trkpt>
      <trkpt lat="45.65661" lon="6.53296">
        <ele>1910</ele>
        <time>2022-07-28T07:19:24Z</time>
      </trkpt>
      <trkpt lat="45.6566" lon="6.53295">
        <ele>1910</ele>
        <time>2022-07-28T07:19:25Z</time>
      </trkpt>
      <trkpt lat="45.6566" lon="6.53293">
        <ele>1910</ele>
        <time>2022-07-28T07:19:26Z</time>
      </trkpt>
      <trkpt lat="45.65659" lon="6.53292">
        <ele>1910</ele>
        <time>2022-07-28T07:19:27Z</time>
      </trkpt>
      <trkpt lat="45.65658" lon="6.53291">
        <ele>1910</ele>
        <time>2022-07-28T07:19:28Z</time>
      </trkpt>
      <trkpt lat="45.65657" lon="6.5329">
        <ele>1910</ele>
        <time>2022-07-28T07:19:29Z</time>
      </trkpt>
      <trkpt lat="45.65656" lon="6.53288">
        <ele>1910</ele>
        <time>2022-07-28T07:19:30Z</time>
      </trkpt>
      <trkpt lat="45.65656" lon="6.53287">
        <ele>1910</ele>
        <time>2022-07-28T07:19:31Z</time>
      </trkpt>
      <trkpt lat="45.65655" lon="6.53285">
        <ele>1910</ele>
        <time>2022-07-28T07:19:32Z</time>
      </trkpt>
      <trkpt lat="45.65655" lon="6.53284">
        <ele>1910</ele>
        <time>2022-07-28T07:19:33Z</time>
      </trkpt>
      <trkpt lat="45.65654" lon="6.53283">
        <ele>1910</ele>
        <time>2022-07-28T07:19:34Z</time>
      </trkpt>
      <trkpt lat="45.65654" lon="6.53281">
        <ele>1909</ele>
        <time>2022-07-28T07:19:43Z</time>
      </trkpt>
      <trkpt lat="45.65654" lon="6.5328">
        <ele>1909</ele>
        <time>2022-07-28T07:19:44Z</time>
      </trkpt>
      <trkpt lat="45.65654" lon="6.53279">
        <ele>1909</ele>
        <time>2022-07-28T07:19:45Z</time>
      </trkpt>
      <trkpt lat="45.6565" lon="6.53269">
        <ele>1898.3</ele>
      </trkpt>
      <trkpt lat="45.65648" lon="6.5326">
        <ele>1898.9</ele>
      </trkpt>
      <trkpt lat="45.6565" lon="6.53256">
        <ele>1899.1</ele>
      </trkpt>
      <trkpt lat="45.6565" lon="6.53255">
        <ele>1909</ele>
        <time>2022-07-28T07:22:54Z</time>
      </trkpt>
      <trkpt lat="45.65649" lon="6.53255">
        <ele>1909</ele>
        <time>2022-07-28T07:22:55Z</time>
      </trkpt>
      <trkpt lat="45.65649" lon="6.53253">
        <ele>1909</ele>
        <time>2022-07-28T07:23:20Z</time>
      </trkpt>
      <trkpt lat="45.65648" lon="6.53253">
        <ele>1909</ele>
        <time>2022-07-28T07:23:21Z</time>
      </trkpt>
      <trkpt lat="45.65648" lon="6.53252">
        <ele>1909</ele>
        <time>2022-07-28T07:23:22Z</time>
      </trkpt>
      <trkpt lat="45.65648" lon="6.53251">
        <ele>1909</ele>
        <time>2022-07-28T07:23:23Z</time>
      </trkpt>
      <trkpt lat="45.65647" lon="6.5325">
        <ele>1909</ele>
        <time>2022-07-28T07:23:24Z</time>
      </trkpt>
      <trkpt lat="45.65647" lon="6.53249">
        <ele>1909</ele>
        <time>2022-07-28T07:23:25Z</time>
      </trkpt>
      <trkpt lat="45.65647" lon="6.53247">
        <ele>1909</ele>
        <time>2022-07-28T07:23:26Z</time>
      </trkpt>
      <trkpt lat="45.65646" lon="6.53246">
        <ele>1909</ele>
        <time>2022-07-28T07:23:27Z</time>
      </trkpt>
      <trkpt lat="45.65646" lon="6.53245">
        <ele>1909</ele>
        <time>2022-07-28T07:23:28Z</time>
      </trkpt>
      <trkpt lat="45.65646" lon="6.53243">
        <ele>1909</ele>
        <time>2022-07-28T07:23:29Z</time>
      </trkpt>
      <trkpt lat="45.65646" lon="6.53242">
        <ele>1909</ele>
        <time>2022-07-28T07:23:30Z</time>
      </trkpt>
      <trkpt lat="45.65646" lon="6.53241">
        <ele>1910</ele>
        <time>2022-07-28T07:23:31Z</time>
      </trkpt>
      <trkpt lat="45.65646" lon="6.5324">
        <ele>1910</ele>
        <time>2022-07-28T07:23:32Z</time>
      </trkpt>
      <trkpt lat="45.65645" lon="6.53239">
        <ele>1910</ele>
        <time>2022-07-28T07:23:33Z</time>
      </trkpt>
      <trkpt lat="45.65645" lon="6.53237">
        <ele>1910</ele>
        <time>2022-07-28T07:23:34Z</time>
      </trkpt>
      <trkpt lat="45.65645" lon="6.53236">
        <ele>1910</ele>
        <time>2022-07-28T07:23:35Z</time>
      </trkpt>
      <trkpt lat="45.65645" lon="6.53235">
        <ele>1910</ele>
        <time>2022-07-28T07:23:36Z</time>
      </trkpt>
      <trkpt lat="45.65645" lon="6.53234">
        <ele>1910</ele>
        <time>2022-07-28T07:23:37Z</time>
      </trkpt>
      <trkpt lat="45.65645" lon="6.53233">
        <ele>1910</ele>
        <time>2022-07-28T07:23:38Z</time>
      </trkpt>
      <trkpt lat="45.65645" lon="6.53232">
        <ele>1910</ele>
        <time>2022-07-28T07:23:39Z</time>
      </trkpt>
      <trkpt lat="45.65645" lon="6.53231">
        <ele>1910</ele>
        <time>2022-07-28T07:23:40Z</time>
      </trkpt>
      <trkpt lat="45.65645" lon="6.53231">
        <ele>1911</ele>
        <time>2022-07-28T07:23:41Z</time>
      </trkpt>
      <trkpt lat="45.65645" lon="6.5323">
        <ele>1911</ele>
        <time>2022-07-28T07:23:42Z</time>
      </trkpt>
      <trkpt lat="45.65645" lon="6.53229">
        <ele>1911</ele>
        <time>2022-07-28T07:23:43Z</time>
      </trkpt>
      <trkpt lat="45.65644" lon="6.53228">
        <ele>1911</ele>
        <time>2022-07-28T07:23:44Z</time>
      </trkpt>
      <trkpt lat="45.65644" lon="6.53227">
        <ele>1911</ele>
        <time>2022-07-28T07:23:45Z</time>
      </trkpt>
      <trkpt lat="45.65644" lon="6.53226">
        <ele>1912</ele>
        <time>2022-07-28T07:23:46Z</time>
      </trkpt>
      <trkpt lat="45.65644" lon="6.53226">
        <ele>1912</ele>
        <time>2022-07-28T07:23:47Z</time>
      </trkpt>
      <trkpt lat="45.65644" lon="6.53225">
        <ele>1912</ele>
        <time>2022-07-28T07:23:48Z</time>
      </trkpt>
      <trkpt lat="45.65644" lon="6.53225">
        <ele>1912</ele>
        <time>2022-07-28T07:23:49Z</time>
      </trkpt>
      <trkpt lat="45.65644" lon="6.53225">
        <ele>1912</ele>
        <time>2022-07-28T07:23:50Z</time>
      </trkpt>
      <trkpt lat="45.65644" lon="6.53225">
        <ele>1912</ele>
        <time>2022-07-28T07:23:51Z</time>
      </trkpt>
      <trkpt lat="45.65644" lon="6.53224">
        <ele>1912</ele>
        <time>2022-07-28T07:23:52Z</time>
      </trkpt>
      <trkpt lat="45.65644" lon="6.53223">
        <ele>1912</ele>
        <time>2022-07-28T07:23:53Z</time>
      </trkpt>
      <trkpt lat="45.65644" lon="6.53222">
        <ele>1912</ele>
        <time>2022-07-28T07:23:54Z</time>
      </trkpt>
      <trkpt lat="45.65644" lon="6.53222">
        <ele>1912</ele>
        <time>2022-07-28T07:23:55Z</time>
      </trkpt>
      <trkpt lat="45.65644" lon="6.53221">
        <ele>1913</ele>
        <time>2022-07-28T07:23:56Z</time>
      </trkpt>
      <trkpt lat="45.65644" lon="6.5322">
        <ele>1913</ele>
        <time>2022-07-28T07:23:57Z</time>
      </trkpt>
      <trkpt lat="45.65644" lon="6.53219">
        <ele>1913</ele>
        <time>2022-07-28T07:23:58Z</time>
      </trkpt>
      <trkpt lat="45.65644" lon="6.53219">
        <ele>1913</ele>
        <time>2022-07-28T07:23:59Z</time>
      </trkpt>
      <trkpt lat="45.65644" lon="6.53218">
        <ele>1913</ele>
        <time>2022-07-28T07:24:00Z</time>
      </trkpt>
      <trkpt lat="45.65644" lon="6.53218">
        <ele>1913</ele>
        <time>2022-07-28T07:24:01Z</time>
      </trkpt>
      <trkpt lat="45.65644" lon="6.53217">
        <ele>1913</ele>
        <time>2022-07-28T07:24:02Z</time>
      </trkpt>
      <trkpt lat="45.65643" lon="6.53216">
        <ele>1913</ele>
        <time>2022-07-28T07:24:03Z</time>
      </trkpt>
      <trkpt lat="45.65643" lon="6.53215">
        <ele>1913</ele>
        <time>2022-07-28T07:24:04Z</time>
      </trkpt>
      <trkpt lat="45.65643" lon="6.53214">
        <ele>1913</ele>
        <time>2022-07-28T07:24:05Z</time>
      </trkpt>
      <trkpt lat="45.65643" lon="6.53213">
        <ele>1914</ele>
        <time>2022-07-28T07:24:06Z</time>
      </trkpt>
      <trkpt lat="45.65643" lon="6.53213">
        <ele>1914</ele>
        <time>2022-07-28T07:24:07Z</time>
      </trkpt>
      <trkpt lat="45.65643" lon="6.53212">
        <ele>1914</ele>
        <time>2022-07-28T07:24:08Z</time>
      </trkpt>
      <trkpt lat="45.65643" lon="6.53211">
        <ele>1914</ele>
        <time>2022-07-28T07:24:09Z</time>
      </trkpt>
      <trkpt lat="45.65643" lon="6.5321">
        <ele>1914</ele>
        <time>2022-07-28T07:24:10Z</time>
      </trkpt>
      <trkpt lat="45.65643" lon="6.53209">
        <ele>1915</ele>
        <time>2022-07-28T07:24:11Z</time>
      </trkpt>
      <trkpt lat="45.65643" lon="6.53208">
        <ele>1915</ele>
        <time>2022-07-28T07:24:12Z</time>
      </trkpt>
      <trkpt lat="45.65643" lon="6.53207">
        <ele>1915</ele>
        <time>2022-07-28T07:24:13Z</time>
      </trkpt>
      <trkpt lat="45.65642" lon="6.53206">
        <ele>1915</ele>
        <time>2022-07-28T07:24:14Z</time>
      </trkpt>
      <trkpt lat="45.65642" lon="6.53205">
        <ele>1915</ele>
        <time>2022-07-28T07:24:15Z</time>
      </trkpt>
      <trkpt lat="45.65642" lon="6.53204">
        <ele>1916</ele>
        <time>2022-07-28T07:24:16Z</time>
      </trkpt>
      <trkpt lat="45.65642" lon="6.53203">
        <ele>1916</ele>
        <time>2022-07-28T07:24:17Z</time>
      </trkpt>
      <trkpt lat="45.65642" lon="6.53203">
        <ele>1916</ele>
        <time>2022-07-28T07:24:18Z</time>
      </trkpt>
      <trkpt lat="45.65642" lon="6.53203">
        <ele>1916</ele>
        <time>2022-07-28T07:24:19Z</time>
      </trkpt>
      <trkpt lat="45.65642" lon="6.53203">
        <ele>1916</ele>
        <time>2022-07-28T07:24:20Z</time>
      </trkpt>
      <trkpt lat="45.65642" lon="6.53202">
        <ele>1916</ele>
        <time>2022-07-28T07:24:21Z</time>
      </trkpt>
      <trkpt lat="45.65642" lon="6.53202">
        <ele>1916</ele>
        <time>2022-07-28T07:24:22Z</time>
      </trkpt>
      <trkpt lat="45.65642" lon="6.53201">
        <ele>1916</ele>
        <time>2022-07-28T07:24:23Z</time>
      </trkpt>
      <trkpt lat="45.65642" lon="6.532">
        <ele>1916</ele>
        <time>2022-07-28T07:24:24Z</time>
      </trkpt>
      <trkpt lat="45.65642" lon="6.532">
        <ele>1916</ele>
        <time>2022-07-28T07:24:25Z</time>
      </trkpt>
      <trkpt lat="45.65642" lon="6.53199">
        <ele>1917</ele>
        <time>2022-07-28T07:24:26Z</time>
      </trkpt>
      <trkpt lat="45.65642" lon="6.53198">
        <ele>1917</ele>
        <time>2022-07-28T07:24:27Z</time>
      </trkpt>
      <trkpt lat="45.65642" lon="6.53197">
        <ele>1917</ele>
        <time>2022-07-28T07:24:28Z</time>
      </trkpt>
      <trkpt lat="45.65642" lon="6.53196">
        <ele>1917</ele>
        <time>2022-07-28T07:24:29Z</time>
      </trkpt>
      <trkpt lat="45.65642" lon="6.53195">
        <ele>1917</ele>
        <time>2022-07-28T07:24:30Z</time>
      </trkpt>
      <trkpt lat="45.65642" lon="6.53194">
        <ele>1918</ele>
        <time>2022-07-28T07:24:31Z</time>
      </trkpt>
      <trkpt lat="45.65642" lon="6.53193">
        <ele>1918</ele>
        <time>2022-07-28T07:24:32Z</time>
      </trkpt>
      <trkpt lat="45.65643" lon="6.53191">
        <ele>1918</ele>
        <time>2022-07-28T07:24:33Z</time>
      </trkpt>
      <trkpt lat="45.65642" lon="6.5319">
        <ele>1918</ele>
        <time>2022-07-28T07:24:34Z</time>
      </trkpt>
      <trkpt lat="45.65642" lon="6.53189">
        <ele>1918</ele>
        <time>2022-07-28T07:24:35Z</time>
      </trkpt>
      <trkpt lat="45.65642" lon="6.53188">
        <ele>1919</ele>
        <time>2022-07-28T07:24:36Z</time>
      </trkpt>
      <trkpt lat="45.65642" lon="6.53187">
        <ele>1919</ele>
        <time>2022-07-28T07:24:37Z</time>
      </trkpt>
      <trkpt lat="45.65641" lon="6.53186">
        <ele>1919</ele>
        <time>2022-07-28T07:24:38Z</time>
      </trkpt>
      <trkpt lat="45.65641" lon="6.53185">
        <ele>1919</ele>
        <time>2022-07-28T07:24:39Z</time>
      </trkpt>
      <trkpt lat="45.6564" lon="6.53184">
        <ele>1919</ele>
        <time>2022-07-28T07:24:40Z</time>
      </trkpt>
      <trkpt lat="45.6564" lon="6.53183">
        <ele>1920</ele>
        <time>2022-07-28T07:24:41Z</time>
      </trkpt>
      <trkpt lat="45.6564" lon="6.53182">
        <ele>1920</ele>
        <time>2022-07-28T07:24:42Z</time>
      </trkpt>
      <trkpt lat="45.6564" lon="6.53181">
        <ele>1920</ele>
        <time>2022-07-28T07:24:43Z</time>
      </trkpt>
      <trkpt lat="45.6564" lon="6.5318">
        <ele>1921</ele>
        <time>2022-07-28T07:24:44Z</time>
      </trkpt>
      <trkpt lat="45.6564" lon="6.53179">
        <ele>1921</ele>
        <time>2022-07-28T07:24:45Z</time>
      </trkpt>
      <trkpt lat="45.65641" lon="6.53179">
        <ele>1922</ele>
        <time>2022-07-28T07:24:46Z</time>
      </trkpt>
      <trkpt lat="45.65641" lon="6.53178">
        <ele>1922</ele>
        <time>2022-07-28T07:24:47Z</time>
      </trkpt>
      <trkpt lat="45.65642" lon="6.53178">
        <ele>1922</ele>
        <time>2022-07-28T07:24:48Z</time>
      </trkpt>
      <trkpt lat="45.65643" lon="6.53177">
        <ele>1922</ele>
        <time>2022-07-28T07:24:49Z</time>
      </trkpt>
      <trkpt lat="45.65644" lon="6.53177">
        <ele>1922</ele>
        <time>2022-07-28T07:24:50Z</time>
      </trkpt>
      <trkpt lat="45.65645" lon="6.53177">
        <ele>1923</ele>
        <time>2022-07-28T07:24:51Z</time>
      </trkpt>
      <trkpt lat="45.65646" lon="6.53176">
        <ele>1923</ele>
        <time>2022-07-28T07:24:52Z</time>
      </trkpt>
      <trkpt lat="45.65647" lon="6.53176">
        <ele>1923</ele>
        <time>2022-07-28T07:24:53Z</time>
      </trkpt>
      <trkpt lat="45.65648" lon="6.53175">
        <ele>1923</ele>
        <time>2022-07-28T07:24:54Z</time>
      </trkpt>
      <trkpt lat="45.65649" lon="6.53175">
        <ele>1923</ele>
        <time>2022-07-28T07:24:55Z</time>
      </trkpt>
      <trkpt lat="45.65649" lon="6.53174">
        <ele>1924</ele>
        <time>2022-07-28T07:24:56Z</time>
      </trkpt>
      <trkpt lat="45.6565" lon="6.53174">
        <ele>1924</ele>
        <time>2022-07-28T07:24:57Z</time>
      </trkpt>
      <trkpt lat="45.65651" lon="6.53173">
        <ele>1924</ele>
        <time>2022-07-28T07:24:58Z</time>
      </trkpt>
      <trkpt lat="45.65651" lon="6.53172">
        <ele>1924</ele>
        <time>2022-07-28T07:24:59Z</time>
      </trkpt>
      <trkpt lat="45.65651" lon="6.53171">
        <ele>1924</ele>
        <time>2022-07-28T07:25:00Z</time>
      </trkpt>
      <trkpt lat="45.65651" lon="6.53169">
        <ele>1924</ele>
        <time>2022-07-28T07:25:01Z</time>
      </trkpt>
      <trkpt lat="45.65651" lon="6.53168">
        <ele>1924</ele>
        <time>2022-07-28T07:25:02Z</time>
      </trkpt>
      <trkpt lat="45.65651" lon="6.53167">
        <ele>1924</ele>
        <time>2022-07-28T07:25:03Z</time>
      </trkpt>
      <trkpt lat="45.6565" lon="6.53166">
        <ele>1925</ele>
        <time>2022-07-28T07:25:04Z</time>
      </trkpt>
      <trkpt lat="45.6565" lon="6.53165">
        <ele>1925</ele>
        <time>2022-07-28T07:25:05Z</time>
      </trkpt>
      <trkpt lat="45.6565" lon="6.53163">
        <ele>1926</ele>
        <time>2022-07-28T07:25:06Z</time>
      </trkpt>
      <trkpt lat="45.65651" lon="6.53162">
        <ele>1926</ele>
        <time>2022-07-28T07:25:07Z</time>
      </trkpt>
      <trkpt lat="45.65651" lon="6.53161">
        <ele>1926</ele>
        <time>2022-07-28T07:25:08Z</time>
      </trkpt>
      <trkpt lat="45.65651" lon="6.5316">
        <ele>1926</ele>
        <time>2022-07-28T07:25:09Z</time>
      </trkpt>
      <trkpt lat="45.65652" lon="6.53158">
        <ele>1926</ele>
        <time>2022-07-28T07:25:10Z</time>
      </trkpt>
      <trkpt lat="45.65652" lon="6.53157">
        <ele>1927</ele>
        <time>2022-07-28T07:25:11Z</time>
      </trkpt>
      <trkpt lat="45.65653" lon="6.53155">
        <ele>1927</ele>
        <time>2022-07-28T07:25:17Z</time>
      </trkpt>
      <trkpt lat="45.65653" lon="6.53154">
        <ele>1927</ele>
        <time>2022-07-28T07:25:18Z</time>
      </trkpt>
      <trkpt lat="45.65654" lon="6.53153">
        <ele>1927</ele>
        <time>2022-07-28T07:25:19Z</time>
      </trkpt>
      <trkpt lat="45.65654" lon="6.53152">
        <ele>1927</ele>
        <time>2022-07-28T07:25:20Z</time>
      </trkpt>
      <trkpt lat="45.65654" lon="6.53151">
        <ele>1927</ele>
        <time>2022-07-28T07:25:21Z</time>
      </trkpt>
      <trkpt lat="45.65654" lon="6.5315">
        <ele>1927</ele>
        <time>2022-07-28T07:25:22Z</time>
      </trkpt>
      <trkpt lat="45.65655" lon="6.53149">
        <ele>1927</ele>
        <time>2022-07-28T07:25:23Z</time>
      </trkpt>
      <trkpt lat="45.65655" lon="6.53148">
        <ele>1927</ele>
        <time>2022-07-28T07:25:24Z</time>
      </trkpt>
      <trkpt lat="45.65655" lon="6.53146">
        <ele>1927</ele>
        <time>2022-07-28T07:25:25Z</time>
      </trkpt>
      <trkpt lat="45.65656" lon="6.53145">
        <ele>1928</ele>
        <time>2022-07-28T07:25:26Z</time>
      </trkpt>
      <trkpt lat="45.65656" lon="6.53144">
        <ele>1928</ele>
        <time>2022-07-28T07:25:27Z</time>
      </trkpt>
      <trkpt lat="45.65657" lon="6.53143">
        <ele>1928</ele>
        <time>2022-07-28T07:25:28Z</time>
      </trkpt>
      <trkpt lat="45.65657" lon="6.53142">
        <ele>1928</ele>
        <time>2022-07-28T07:25:29Z</time>
      </trkpt>
      <trkpt lat="45.65658" lon="6.53141">
        <ele>1928</ele>
        <time>2022-07-28T07:25:30Z</time>
      </trkpt>
      <trkpt lat="45.65658" lon="6.5314">
        <ele>1929</ele>
        <time>2022-07-28T07:25:31Z</time>
      </trkpt>
      <trkpt lat="45.65658" lon="6.53139">
        <ele>1928</ele>
        <time>2022-07-28T07:25:32Z</time>
      </trkpt>
      <trkpt lat="45.65659" lon="6.53138">
        <ele>1928</ele>
        <time>2022-07-28T07:25:33Z</time>
      </trkpt>
      <trkpt lat="45.65659" lon="6.53137">
        <ele>1928</ele>
        <time>2022-07-28T07:25:34Z</time>
      </trkpt>
      <trkpt lat="45.65659" lon="6.53136">
        <ele>1928</ele>
        <time>2022-07-28T07:25:35Z</time>
      </trkpt>
      <trkpt lat="45.65659" lon="6.53135">
        <ele>1928</ele>
        <time>2022-07-28T07:25:36Z</time>
      </trkpt>
      <trkpt lat="45.65658" lon="6.53133">
        <ele>1928</ele>
        <time>2022-07-28T07:25:37Z</time>
      </trkpt>
      <trkpt lat="45.65658" lon="6.53131">
        <ele>1928</ele>
        <time>2022-07-28T07:25:45Z</time>
      </trkpt>
      <trkpt lat="45.65658" lon="6.5313">
        <ele>1928</ele>
        <time>2022-07-28T07:25:46Z</time>
      </trkpt>
      <trkpt lat="45.65658" lon="6.53129">
        <ele>1928</ele>
        <time>2022-07-28T07:25:47Z</time>
      </trkpt>
      <trkpt lat="45.65658" lon="6.53128">
        <ele>1928</ele>
        <time>2022-07-28T07:25:48Z</time>
      </trkpt>
      <trkpt lat="45.65658" lon="6.53127">
        <ele>1928</ele>
        <time>2022-07-28T07:25:49Z</time>
      </trkpt>
      <trkpt lat="45.65658" lon="6.53126">
        <ele>1928</ele>
        <time>2022-07-28T07:25:50Z</time>
      </trkpt>
      <trkpt lat="45.65658" lon="6.53125">
        <ele>1928</ele>
        <time>2022-07-28T07:25:51Z</time>
      </trkpt>
      <trkpt lat="45.65658" lon="6.53123">
        <ele>1927</ele>
        <time>2022-07-28T07:26:01Z</time>
      </trkpt>
      <trkpt lat="45.65658" lon="6.53122">
        <ele>1926</ele>
        <time>2022-07-28T07:26:02Z</time>
      </trkpt>
      <trkpt lat="45.65658" lon="6.53121">
        <ele>1926</ele>
        <time>2022-07-28T07:26:03Z</time>
      </trkpt>
      <trkpt lat="45.65658" lon="6.53121">
        <ele>1926</ele>
        <time>2022-07-28T07:26:04Z</time>
      </trkpt>
      <trkpt lat="45.65658" lon="6.5312">
        <ele>1926</ele>
        <time>2022-07-28T07:26:05Z</time>
      </trkpt>
      <trkpt lat="45.65658" lon="6.53119">
        <ele>1926</ele>
        <time>2022-07-28T07:26:06Z</time>
      </trkpt>
      <trkpt lat="45.65658" lon="6.53118">
        <ele>1926</ele>
        <time>2022-07-28T07:26:07Z</time>
      </trkpt>
      <trkpt lat="45.65659" lon="6.53114">
        <ele>1923</ele>
        <time>2022-07-28T07:26:41Z</time>
      </trkpt>
      <trkpt lat="45.65659" lon="6.53113">
        <ele>1923</ele>
        <time>2022-07-28T07:26:42Z</time>
      </trkpt>
      <trkpt lat="45.65659" lon="6.53111">
        <ele>1923</ele>
        <time>2022-07-28T07:26:43Z</time>
      </trkpt>
      <trkpt lat="45.65659" lon="6.5311">
        <ele>1923</ele>
        <time>2022-07-28T07:26:44Z</time>
      </trkpt>
      <trkpt lat="45.65659" lon="6.53109">
        <ele>1923</ele>
        <time>2022-07-28T07:26:45Z</time>
      </trkpt>
      <trkpt lat="45.65659" lon="6.53108">
        <ele>1923</ele>
        <time>2022-07-28T07:26:46Z</time>
      </trkpt>
      <trkpt lat="45.65659" lon="6.53108">
        <ele>1922</ele>
        <time>2022-07-28T07:26:47Z</time>
      </trkpt>
      <trkpt lat="45.65659" lon="6.53108">
        <ele>1922</ele>
        <time>2022-07-28T07:26:48Z</time>
      </trkpt>
      <trkpt lat="45.65659" lon="6.53107">
        <ele>1922</ele>
        <time>2022-07-28T07:26:49Z</time>
      </trkpt>
      <trkpt lat="45.65659" lon="6.53106">
        <ele>1922</ele>
        <time>2022-07-28T07:26:50Z</time>
      </trkpt>
      <trkpt lat="45.65659" lon="6.53106">
        <ele>1922</ele>
        <time>2022-07-28T07:26:51Z</time>
      </trkpt>
      <trkpt lat="45.65659" lon="6.53105">
        <ele>1921</ele>
        <time>2022-07-28T07:26:52Z</time>
      </trkpt>
      <trkpt lat="45.65659" lon="6.53105">
        <ele>1921</ele>
        <time>2022-07-28T07:26:53Z</time>
      </trkpt>
      <trkpt lat="45.65659" lon="6.53104">
        <ele>1921</ele>
        <time>2022-07-28T07:26:54Z</time>
      </trkpt>
      <trkpt lat="45.65659" lon="6.53104">
        <ele>1921</ele>
        <time>2022-07-28T07:26:55Z</time>
      </trkpt>
      <trkpt lat="45.65659" lon="6.53103">
        <ele>1921</ele>
        <time>2022-07-28T07:26:56Z</time>
      </trkpt>
      <trkpt lat="45.65659" lon="6.53102">
        <ele>1920</ele>
        <time>2022-07-28T07:26:57Z</time>
      </trkpt>
      <trkpt lat="45.65659" lon="6.53101">
        <ele>1920</ele>
        <time>2022-07-28T07:26:58Z</time>
      </trkpt>
      <trkpt lat="45.65658" lon="6.531">
        <ele>1920</ele>
        <time>2022-07-28T07:26:59Z</time>
      </trkpt>
      <trkpt lat="45.65658" lon="6.53099">
        <ele>1918</ele>
        <time>2022-07-28T07:27:13Z</time>
      </trkpt>
      <trkpt lat="45.65658" lon="6.53099">
        <ele>1918</ele>
        <time>2022-07-28T07:27:14Z</time>
      </trkpt>
      <trkpt lat="45.65658" lon="6.53099">
        <ele>1918</ele>
        <time>2022-07-28T07:27:15Z</time>
      </trkpt>
      <trkpt lat="45.65658" lon="6.53098">
        <ele>1918</ele>
        <time>2022-07-28T07:27:16Z</time>
      </trkpt>
      <trkpt lat="45.65657" lon="6.53098">
        <ele>1918</ele>
        <time>2022-07-28T07:27:17Z</time>
      </trkpt>
      <trkpt lat="45.65657" lon="6.53097">
        <ele>1918</ele>
        <time>2022-07-28T07:27:18Z</time>
      </trkpt>
      <trkpt lat="45.65656" lon="6.53097">
        <ele>1918</ele>
        <time>2022-07-28T07:27:19Z</time>
      </trkpt>
      <trkpt lat="45.65655" lon="6.53096">
        <ele>1918</ele>
        <time>2022-07-28T07:27:20Z</time>
      </trkpt>
      <trkpt lat="45.65654" lon="6.53095">
        <ele>1918</ele>
        <time>2022-07-28T07:27:21Z</time>
      </trkpt>
      <trkpt lat="45.65653" lon="6.53094">
        <ele>1917</ele>
        <time>2022-07-28T07:27:22Z</time>
      </trkpt>
      <trkpt lat="45.65653" lon="6.53093">
        <ele>1917</ele>
        <time>2022-07-28T07:27:23Z</time>
      </trkpt>
      <trkpt lat="45.65652" lon="6.53092">
        <ele>1917</ele>
        <time>2022-07-28T07:27:24Z</time>
      </trkpt>
      <trkpt lat="45.65651" lon="6.53092">
        <ele>1917</ele>
        <time>2022-07-28T07:27:25Z</time>
      </trkpt>
      <trkpt lat="45.65651" lon="6.53091">
        <ele>1916</ele>
        <time>2022-07-28T07:27:34Z</time>
      </trkpt>
      <trkpt lat="45.6565" lon="6.5309">
        <ele>1916</ele>
        <time>2022-07-28T07:27:35Z</time>
      </trkpt>
      <trkpt lat="45.6565" lon="6.53089">
        <ele>1916</ele>
        <time>2022-07-28T07:27:36Z</time>
      </trkpt>
      <trkpt lat="45.6565" lon="6.53088">
        <ele>1916</ele>
        <time>2022-07-28T07:27:37Z</time>
      </trkpt>
      <trkpt lat="45.65649" lon="6.53087">
        <ele>1916</ele>
        <time>2022-07-28T07:27:38Z</time>
      </trkpt>
      <trkpt lat="45.65649" lon="6.53086">
        <ele>1916</ele>
        <time>2022-07-28T07:27:39Z</time>
      </trkpt>
      <trkpt lat="45.65648" lon="6.53085">
        <ele>1916</ele>
        <time>2022-07-28T07:27:40Z</time>
      </trkpt>
      <trkpt lat="45.65648" lon="6.53083">
        <ele>1916</ele>
        <time>2022-07-28T07:27:41Z</time>
      </trkpt>
      <trkpt lat="45.65648" lon="6.53082">
        <ele>1915</ele>
        <time>2022-07-28T07:27:42Z</time>
      </trkpt>
      <trkpt lat="45.65647" lon="6.5308">
        <ele>1915</ele>
        <time>2022-07-28T07:27:43Z</time>
      </trkpt>
      <trkpt lat="45.65646" lon="6.53079">
        <ele>1915</ele>
        <time>2022-07-28T07:27:44Z</time>
      </trkpt>
      <trkpt lat="45.65645" lon="6.53078">
        <ele>1915</ele>
        <time>2022-07-28T07:27:45Z</time>
      </trkpt>
      <trkpt lat="45.65645" lon="6.53077">
        <ele>1915</ele>
        <time>2022-07-28T07:27:46Z</time>
      </trkpt>
      <trkpt lat="45.65644" lon="6.53076">
        <ele>1914</ele>
        <time>2022-07-28T07:27:47Z</time>
      </trkpt>
      <trkpt lat="45.65643" lon="6.53075">
        <ele>1914</ele>
        <time>2022-07-28T07:27:48Z</time>
      </trkpt>
      <trkpt lat="45.65642" lon="6.53074">
        <ele>1914</ele>
        <time>2022-07-28T07:27:49Z</time>
      </trkpt>
      <trkpt lat="45.65641" lon="6.53073">
        <ele>1914</ele>
        <time>2022-07-28T07:27:50Z</time>
      </trkpt>
      <trkpt lat="45.6564" lon="6.53072">
        <ele>1914</ele>
        <time>2022-07-28T07:27:51Z</time>
      </trkpt>
      <trkpt lat="45.6564" lon="6.5307">
        <ele>1914</ele>
        <time>2022-07-28T07:27:52Z</time>
      </trkpt>
      <trkpt lat="45.6564" lon="6.53069">
        <ele>1914</ele>
        <time>2022-07-28T07:27:53Z</time>
      </trkpt>
      <trkpt lat="45.65639" lon="6.53068">
        <ele>1914</ele>
        <time>2022-07-28T07:27:54Z</time>
      </trkpt>
      <trkpt lat="45.65639" lon="6.53066">
        <ele>1914</ele>
        <time>2022-07-28T07:27:55Z</time>
      </trkpt>
      <trkpt lat="45.65639" lon="6.53065">
        <ele>1914</ele>
        <time>2022-07-28T07:27:56Z</time>
      </trkpt>
      <trkpt lat="45.65638" lon="6.53064">
        <ele>1914</ele>
        <time>2022-07-28T07:27:57Z</time>
      </trkpt>
      <trkpt lat="45.65638" lon="6.53062">
        <ele>1914</ele>
        <time>2022-07-28T07:27:58Z</time>
      </trkpt>
      <trkpt lat="45.65638" lon="6.53061">
        <ele>1914</ele>
        <time>2022-07-28T07:27:59Z</time>
      </trkpt>
      <trkpt lat="45.65637" lon="6.5306">
        <ele>1914</ele>
        <time>2022-07-28T07:28:00Z</time>
      </trkpt>
      <trkpt lat="45.65637" lon="6.53059">
        <ele>1914</ele>
        <time>2022-07-28T07:28:01Z</time>
      </trkpt>
      <trkpt lat="45.65636" lon="6.53057">
        <ele>1914</ele>
        <time>2022-07-28T07:28:02Z</time>
      </trkpt>
      <trkpt lat="45.65636" lon="6.53056">
        <ele>1914</ele>
        <time>2022-07-28T07:28:03Z</time>
      </trkpt>
      <trkpt lat="45.65635" lon="6.53055">
        <ele>1914</ele>
        <time>2022-07-28T07:28:04Z</time>
      </trkpt>
      <trkpt lat="45.65634" lon="6.53053">
        <ele>1914</ele>
        <time>2022-07-28T07:28:05Z</time>
      </trkpt>
      <trkpt lat="45.65634" lon="6.53052">
        <ele>1914</ele>
        <time>2022-07-28T07:28:06Z</time>
      </trkpt>
      <trkpt lat="45.65633" lon="6.5305">
        <ele>1914</ele>
        <time>2022-07-28T07:28:07Z</time>
      </trkpt>
      <trkpt lat="45.65632" lon="6.53049">
        <ele>1914</ele>
        <time>2022-07-28T07:28:08Z</time>
      </trkpt>
      <trkpt lat="45.65632" lon="6.53048">
        <ele>1914</ele>
        <time>2022-07-28T07:28:09Z</time>
      </trkpt>
      <trkpt lat="45.65631" lon="6.53046">
        <ele>1914</ele>
        <time>2022-07-28T07:28:10Z</time>
      </trkpt>
      <trkpt lat="45.65631" lon="6.53045">
        <ele>1914</ele>
        <time>2022-07-28T07:28:11Z</time>
      </trkpt>
      <trkpt lat="45.6563" lon="6.53044">
        <ele>1914</ele>
        <time>2022-07-28T07:28:12Z</time>
      </trkpt>
      <trkpt lat="45.6563" lon="6.53042">
        <ele>1914</ele>
        <time>2022-07-28T07:28:13Z</time>
      </trkpt>
      <trkpt lat="45.6563" lon="6.53041">
        <ele>1914</ele>
        <time>2022-07-28T07:28:14Z</time>
      </trkpt>
      <trkpt lat="45.65629" lon="6.5304">
        <ele>1914</ele>
        <time>2022-07-28T07:28:15Z</time>
      </trkpt>
      <trkpt lat="45.65629" lon="6.53038">
        <ele>1914</ele>
        <time>2022-07-28T07:28:16Z</time>
      </trkpt>
      <trkpt lat="45.65629" lon="6.53037">
        <ele>1914</ele>
        <time>2022-07-28T07:28:17Z</time>
      </trkpt>
      <trkpt lat="45.65628" lon="6.53036">
        <ele>1914</ele>
        <time>2022-07-28T07:28:18Z</time>
      </trkpt>
      <trkpt lat="45.65628" lon="6.53035">
        <ele>1914</ele>
        <time>2022-07-28T07:28:19Z</time>
      </trkpt>
      <trkpt lat="45.65628" lon="6.53034">
        <ele>1914</ele>
        <time>2022-07-28T07:28:20Z</time>
      </trkpt>
      <trkpt lat="45.65628" lon="6.53033">
        <ele>1914</ele>
        <time>2022-07-28T07:28:21Z</time>
      </trkpt>
      <trkpt lat="45.65628" lon="6.53032">
        <ele>1913</ele>
        <time>2022-07-28T07:28:22Z</time>
      </trkpt>
      <trkpt lat="45.65628" lon="6.53031">
        <ele>1913</ele>
        <time>2022-07-28T07:28:23Z</time>
      </trkpt>
      <trkpt lat="45.65628" lon="6.53029">
        <ele>1913</ele>
        <time>2022-07-28T07:28:24Z</time>
      </trkpt>
      <trkpt lat="45.65628" lon="6.53028">
        <ele>1913</ele>
        <time>2022-07-28T07:28:25Z</time>
      </trkpt>
      <trkpt lat="45.65628" lon="6.53027">
        <ele>1913</ele>
        <time>2022-07-28T07:28:26Z</time>
      </trkpt>
      <trkpt lat="45.65628" lon="6.53026">
        <ele>1912</ele>
        <time>2022-07-28T07:28:27Z</time>
      </trkpt>
      <trkpt lat="45.65628" lon="6.53025">
        <ele>1912</ele>
        <time>2022-07-28T07:28:28Z</time>
      </trkpt>
      <trkpt lat="45.65628" lon="6.53024">
        <ele>1912</ele>
        <time>2022-07-28T07:28:29Z</time>
      </trkpt>
      <trkpt lat="45.65629" lon="6.53024">
        <ele>1912</ele>
        <time>2022-07-28T07:28:30Z</time>
      </trkpt>
      <trkpt lat="45.65629" lon="6.53023">
        <ele>1912</ele>
        <time>2022-07-28T07:28:31Z</time>
      </trkpt>
      <trkpt lat="45.65629" lon="6.53022">
        <ele>1911</ele>
        <time>2022-07-28T07:28:32Z</time>
      </trkpt>
      <trkpt lat="45.6563" lon="6.53022">
        <ele>1911</ele>
        <time>2022-07-28T07:28:33Z</time>
      </trkpt>
      <trkpt lat="45.6563" lon="6.53021">
        <ele>1911</ele>
        <time>2022-07-28T07:28:34Z</time>
      </trkpt>
      <trkpt lat="45.65631" lon="6.5302">
        <ele>1911</ele>
        <time>2022-07-28T07:28:35Z</time>
      </trkpt>
      <trkpt lat="45.65631" lon="6.5302">
        <ele>1911</ele>
        <time>2022-07-28T07:28:36Z</time>
      </trkpt>
      <trkpt lat="45.65632" lon="6.5302">
        <ele>1910</ele>
        <time>2022-07-28T07:28:37Z</time>
      </trkpt>
      <trkpt lat="45.65632" lon="6.5302">
        <ele>1910</ele>
        <time>2022-07-28T07:28:38Z</time>
      </trkpt>
      <trkpt lat="45.65633" lon="6.53021">
        <ele>1910</ele>
        <time>2022-07-28T07:28:39Z</time>
      </trkpt>
      <trkpt lat="45.65633" lon="6.53021">
        <ele>1910</ele>
        <time>2022-07-28T07:28:40Z</time>
      </trkpt>
      <trkpt lat="45.65634" lon="6.53022">
        <ele>1910</ele>
        <time>2022-07-28T07:28:41Z</time>
      </trkpt>
      <trkpt lat="45.65634" lon="6.53023">
        <ele>1909</ele>
        <time>2022-07-28T07:28:42Z</time>
      </trkpt>
      <trkpt lat="45.65634" lon="6.53023">
        <ele>1909</ele>
        <time>2022-07-28T07:28:43Z</time>
      </trkpt>
      <trkpt lat="45.65635" lon="6.53024">
        <ele>1908</ele>
        <time>2022-07-28T07:28:44Z</time>
      </trkpt>
      <trkpt lat="45.65635" lon="6.53024">
        <ele>1908</ele>
        <time>2022-07-28T07:28:45Z</time>
      </trkpt>
      <trkpt lat="45.65635" lon="6.53024">
        <ele>1908</ele>
        <time>2022-07-28T07:28:46Z</time>
      </trkpt>
      <trkpt lat="45.65636" lon="6.53023">
        <ele>1907</ele>
        <time>2022-07-28T07:28:47Z</time>
      </trkpt>
      <trkpt lat="45.65636" lon="6.53023">
        <ele>1907</ele>
        <time>2022-07-28T07:28:48Z</time>
      </trkpt>
      <trkpt lat="45.65637" lon="6.53022">
        <ele>1907</ele>
        <time>2022-07-28T07:28:49Z</time>
      </trkpt>
      <trkpt lat="45.65637" lon="6.53021">
        <ele>1907</ele>
        <time>2022-07-28T07:28:50Z</time>
      </trkpt>
      <trkpt lat="45.65638" lon="6.53022">
        <ele>1907</ele>
        <time>2022-07-28T07:28:51Z</time>
      </trkpt>
      <trkpt lat="45.65638" lon="6.53022">
        <ele>1906</ele>
        <time>2022-07-28T07:28:52Z</time>
      </trkpt>
      <trkpt lat="45.65639" lon="6.53023">
        <ele>1906</ele>
        <time>2022-07-28T07:28:53Z</time>
      </trkpt>
      <trkpt lat="45.65639" lon="6.53023">
        <ele>1906</ele>
        <time>2022-07-28T07:28:54Z</time>
      </trkpt>
      <trkpt lat="45.6564" lon="6.53024">
        <ele>1906</ele>
        <time>2022-07-28T07:28:55Z</time>
      </trkpt>
      <trkpt lat="45.6564" lon="6.53025">
        <ele>1906</ele>
        <time>2022-07-28T07:28:56Z</time>
      </trkpt>
      <trkpt lat="45.6564" lon="6.53025">
        <ele>1905</ele>
        <time>2022-07-28T07:28:57Z</time>
      </trkpt>
      <trkpt lat="45.65641" lon="6.53026">
        <ele>1905</ele>
        <time>2022-07-28T07:28:58Z</time>
      </trkpt>
      <trkpt lat="45.65641" lon="6.53026">
        <ele>1905</ele>
        <time>2022-07-28T07:28:59Z</time>
      </trkpt>
      <trkpt lat="45.65641" lon="6.53025">
        <ele>1905</ele>
        <time>2022-07-28T07:29:00Z</time>
      </trkpt>
      <trkpt lat="45.65642" lon="6.53025">
        <ele>1905</ele>
        <time>2022-07-28T07:29:01Z</time>
      </trkpt>
      <trkpt lat="45.65642" lon="6.53024">
        <ele>1904</ele>
        <time>2022-07-28T07:29:02Z</time>
      </trkpt>
      <trkpt lat="45.65642" lon="6.53022">
        <ele>1904</ele>
        <time>2022-07-28T07:29:03Z</time>
      </trkpt>
      <trkpt lat="45.65642" lon="6.53021">
        <ele>1904</ele>
        <time>2022-07-28T07:29:04Z</time>
      </trkpt>
      <trkpt lat="45.65643" lon="6.5302">
        <ele>1904</ele>
        <time>2022-07-28T07:29:05Z</time>
      </trkpt>
      <trkpt lat="45.65643" lon="6.53018">
        <ele>1904</ele>
        <time>2022-07-28T07:29:06Z</time>
      </trkpt>
      <trkpt lat="45.65643" lon="6.53017">
        <ele>1904</ele>
        <time>2022-07-28T07:29:07Z</time>
      </trkpt>
      <trkpt lat="45.65643" lon="6.53016">
        <ele>1904</ele>
        <time>2022-07-28T07:29:08Z</time>
      </trkpt>
      <trkpt lat="45.65643" lon="6.53015">
        <ele>1904</ele>
        <time>2022-07-28T07:29:09Z</time>
      </trkpt>
      <trkpt lat="45.65643" lon="6.53013">
        <ele>1904</ele>
        <time>2022-07-28T07:29:10Z</time>
      </trkpt>
      <trkpt lat="45.65643" lon="6.53012">
        <ele>1904</ele>
        <time>2022-07-28T07:29:11Z</time>
      </trkpt>
      <trkpt lat="45.65644" lon="6.53011">
        <ele>1904</ele>
        <time>2022-07-28T07:29:12Z</time>
      </trkpt>
      <trkpt lat="45.65644" lon="6.5301">
        <ele>1904</ele>
        <time>2022-07-28T07:29:13Z</time>
      </trkpt>
      <trkpt lat="45.65644" lon="6.5301">
        <ele>1904</ele>
        <time>2022-07-28T07:29:14Z</time>
      </trkpt>
      <trkpt lat="45.65644" lon="6.53009">
        <ele>1904</ele>
        <time>2022-07-28T07:29:15Z</time>
      </trkpt>
      <trkpt lat="45.65644" lon="6.53008">
        <ele>1904</ele>
        <time>2022-07-28T07:29:16Z</time>
      </trkpt>
      <trkpt lat="45.65644" lon="6.53007">
        <ele>1903</ele>
        <time>2022-07-28T07:29:17Z</time>
      </trkpt>
      <trkpt lat="45.65644" lon="6.53006">
        <ele>1902</ele>
        <time>2022-07-28T07:29:18Z</time>
      </trkpt>
      <trkpt lat="45.65644" lon="6.53005">
        <ele>1902</ele>
        <time>2022-07-28T07:29:19Z</time>
      </trkpt>
      <trkpt lat="45.65644" lon="6.53004">
        <ele>1901</ele>
        <time>2022-07-28T07:29:20Z</time>
      </trkpt>
      <trkpt lat="45.65644" lon="6.53003">
        <ele>1901</ele>
        <time>2022-07-28T07:29:21Z</time>
      </trkpt>
      <trkpt lat="45.65644" lon="6.53002">
        <ele>1900</ele>
        <time>2022-07-28T07:29:22Z</time>
      </trkpt>
      <trkpt lat="45.65645" lon="6.53002">
        <ele>1900</ele>
        <time>2022-07-28T07:29:23Z</time>
      </trkpt>
      <trkpt lat="45.65645" lon="6.53002">
        <ele>1899</ele>
        <time>2022-07-28T07:29:24Z</time>
      </trkpt>
      <trkpt lat="45.65645" lon="6.53001">
        <ele>1899</ele>
        <time>2022-07-28T07:29:25Z</time>
      </trkpt>
      <trkpt lat="45.65646" lon="6.53002">
        <ele>1899</ele>
        <time>2022-07-28T07:29:26Z</time>
      </trkpt>
      <trkpt lat="45.65646" lon="6.53003">
        <ele>1898</ele>
        <time>2022-07-28T07:29:27Z</time>
      </trkpt>
      <trkpt lat="45.65647" lon="6.53004">
        <ele>1898</ele>
        <time>2022-07-28T07:29:28Z</time>
      </trkpt>
      <trkpt lat="45.65647" lon="6.53005">
        <ele>1897</ele>
        <time>2022-07-28T07:29:29Z</time>
      </trkpt>
      <trkpt lat="45.65648" lon="6.53006">
        <ele>1897</ele>
        <time>2022-07-28T07:29:30Z</time>
      </trkpt>
      <trkpt lat="45.65649" lon="6.53007">
        <ele>1897</ele>
        <time>2022-07-28T07:29:31Z</time>
      </trkpt>
      <trkpt lat="45.65649" lon="6.53008">
        <ele>1896</ele>
        <time>2022-07-28T07:29:32Z</time>
      </trkpt>
      <trkpt lat="45.6565" lon="6.53009">
        <ele>1896</ele>
        <time>2022-07-28T07:29:33Z</time>
      </trkpt>
      <trkpt lat="45.65651" lon="6.5301">
        <ele>1895</ele>
        <time>2022-07-28T07:29:34Z</time>
      </trkpt>
      <trkpt lat="45.65651" lon="6.53011">
        <ele>1895</ele>
        <time>2022-07-28T07:29:35Z</time>
      </trkpt>
      <trkpt lat="45.65652" lon="6.53012">
        <ele>1895</ele>
        <time>2022-07-28T07:29:36Z</time>
      </trkpt>
      <trkpt lat="45.65652" lon="6.53013">
        <ele>1894</ele>
        <time>2022-07-28T07:29:37Z</time>
      </trkpt>
      <trkpt lat="45.65653" lon="6.53014">
        <ele>1894</ele>
        <time>2022-07-28T07:29:38Z</time>
      </trkpt>
      <trkpt lat="45.65654" lon="6.53016">
        <ele>1894</ele>
        <time>2022-07-28T07:29:39Z</time>
      </trkpt>
      <trkpt lat="45.65654" lon="6.53017">
        <ele>1894</ele>
        <time>2022-07-28T07:29:40Z</time>
      </trkpt>
      <trkpt lat="45.65655" lon="6.53018">
        <ele>1894</ele>
        <time>2022-07-28T07:29:41Z</time>
      </trkpt>
      <trkpt lat="45.65655" lon="6.53019">
        <ele>1893</ele>
        <time>2022-07-28T07:29:42Z</time>
      </trkpt>
      <trkpt lat="45.65656" lon="6.5302">
        <ele>1893</ele>
        <time>2022-07-28T07:29:43Z</time>
      </trkpt>
      <trkpt lat="45.65657" lon="6.53022">
        <ele>1892</ele>
        <time>2022-07-28T07:29:51Z</time>
      </trkpt>
      <trkpt lat="45.65657" lon="6.53023">
        <ele>1892</ele>
        <time>2022-07-28T07:29:52Z</time>
      </trkpt>
      <trkpt lat="45.65657" lon="6.53023">
        <ele>1892</ele>
        <time>2022-07-28T07:29:53Z</time>
      </trkpt>
      <trkpt lat="45.65658" lon="6.53024">
        <ele>1892</ele>
        <time>2022-07-28T07:29:54Z</time>
      </trkpt>
      <trkpt lat="45.65658" lon="6.53024">
        <ele>1892</ele>
        <time>2022-07-28T07:29:55Z</time>
      </trkpt>
      <trkpt lat="45.65658" lon="6.53025">
        <ele>1892</ele>
        <time>2022-07-28T07:29:56Z</time>
      </trkpt>
      <trkpt lat="45.65659" lon="6.53026">
        <ele>1891</ele>
        <time>2022-07-28T07:29:57Z</time>
      </trkpt>
      <trkpt lat="45.65659" lon="6.53027">
        <ele>1891</ele>
        <time>2022-07-28T07:29:58Z</time>
      </trkpt>
      <trkpt lat="45.65659" lon="6.53028">
        <ele>1890</ele>
        <time>2022-07-28T07:29:59Z</time>
      </trkpt>
      <trkpt lat="45.6566" lon="6.53028">
        <ele>1890</ele>
        <time>2022-07-28T07:30:00Z</time>
      </trkpt>
      <trkpt lat="45.6566" lon="6.53029">
        <ele>1890</ele>
        <time>2022-07-28T07:30:01Z</time>
      </trkpt>
      <trkpt lat="45.6566" lon="6.53028">
        <ele>1890</ele>
        <time>2022-07-28T07:30:02Z</time>
      </trkpt>
      <trkpt lat="45.65661" lon="6.53028">
        <ele>1890</ele>
        <time>2022-07-28T07:30:03Z</time>
      </trkpt>
      <trkpt lat="45.65661" lon="6.53027">
        <ele>1888</ele>
        <time>2022-07-28T07:30:12Z</time>
      </trkpt>
      <trkpt lat="45.65661" lon="6.53026">
        <ele>1888</ele>
        <time>2022-07-28T07:30:13Z</time>
      </trkpt>
      <trkpt lat="45.65661" lon="6.53025">
        <ele>1888</ele>
        <time>2022-07-28T07:30:14Z</time>
      </trkpt>
      <trkpt lat="45.65661" lon="6.53024">
        <ele>1888</ele>
        <time>2022-07-28T07:30:15Z</time>
      </trkpt>
      <trkpt lat="45.65661" lon="6.53023">
        <ele>1888</ele>
        <time>2022-07-28T07:30:16Z</time>
      </trkpt>
      <trkpt lat="45.65661" lon="6.53022">
        <ele>1887</ele>
        <time>2022-07-28T07:30:17Z</time>
      </trkpt>
      <trkpt lat="45.65661" lon="6.53021">
        <ele>1887</ele>
        <time>2022-07-28T07:30:18Z</time>
      </trkpt>
      <trkpt lat="45.65661" lon="6.53019">
        <ele>1887</ele>
        <time>2022-07-28T07:30:19Z</time>
      </trkpt>
      <trkpt lat="45.65661" lon="6.53018">
        <ele>1887</ele>
        <time>2022-07-28T07:30:20Z</time>
      </trkpt>
      <trkpt lat="45.65661" lon="6.53017">
        <ele>1887</ele>
        <time>2022-07-28T07:30:21Z</time>
      </trkpt>
      <trkpt lat="45.65661" lon="6.53016">
        <ele>1886</ele>
        <time>2022-07-28T07:30:22Z</time>
      </trkpt>
      <trkpt lat="45.65661" lon="6.53015">
        <ele>1886</ele>
        <time>2022-07-28T07:30:23Z</time>
      </trkpt>
      <trkpt lat="45.65662" lon="6.53015">
        <ele>1886</ele>
        <time>2022-07-28T07:30:24Z</time>
      </trkpt>
      <trkpt lat="45.65663" lon="6.53015">
        <ele>1886</ele>
        <time>2022-07-28T07:30:25Z</time>
      </trkpt>
      <trkpt lat="45.65663" lon="6.53015">
        <ele>1886</ele>
        <time>2022-07-28T07:30:26Z</time>
      </trkpt>
      <trkpt lat="45.65664" lon="6.53016">
        <ele>1885</ele>
        <time>2022-07-28T07:30:27Z</time>
      </trkpt>
      <trkpt lat="45.65665" lon="6.53017">
        <ele>1885</ele>
        <time>2022-07-28T07:30:28Z</time>
      </trkpt>
      <trkpt lat="45.65666" lon="6.53018">
        <ele>1885</ele>
        <time>2022-07-28T07:30:29Z</time>
      </trkpt>
      <trkpt lat="45.65666" lon="6.53019">
        <ele>1885</ele>
        <time>2022-07-28T07:30:30Z</time>
      </trkpt>
      <trkpt lat="45.65667" lon="6.53019">
        <ele>1882</ele>
        <time>2022-07-28T07:31:31Z</time>
      </trkpt>
      <trkpt lat="45.65668" lon="6.53018">
        <ele>1882</ele>
        <time>2022-07-28T07:31:32Z</time>
      </trkpt>
      <trkpt lat="45.65668" lon="6.53017">
        <ele>1882</ele>
        <time>2022-07-28T07:31:33Z</time>
      </trkpt>
      <trkpt lat="45.65668" lon="6.53017">
        <ele>1882</ele>
        <time>2022-07-28T07:31:34Z</time>
      </trkpt>
      <trkpt lat="45.65668" lon="6.53016">
        <ele>1882</ele>
        <time>2022-07-28T07:31:35Z</time>
      </trkpt>
      <trkpt lat="45.65668" lon="6.53015">
        <ele>1882</ele>
        <time>2022-07-28T07:31:36Z</time>
      </trkpt>
      <trkpt lat="45.65668" lon="6.53014">
        <ele>1881</ele>
        <time>2022-07-28T07:31:37Z</time>
      </trkpt>
      <trkpt lat="45.65668" lon="6.53012">
        <ele>1881</ele>
        <time>2022-07-28T07:31:38Z</time>
      </trkpt>
      <trkpt lat="45.65668" lon="6.53011">
        <ele>1881</ele>
        <time>2022-07-28T07:31:39Z</time>
      </trkpt>
      <trkpt lat="45.65668" lon="6.5301">
        <ele>1881</ele>
        <time>2022-07-28T07:31:40Z</time>
      </trkpt>
      <trkpt lat="45.65668" lon="6.53008">
        <ele>1881</ele>
        <time>2022-07-28T07:31:41Z</time>
      </trkpt>
      <trkpt lat="45.65667" lon="6.53007">
        <ele>1880</ele>
        <time>2022-07-28T07:31:42Z</time>
      </trkpt>
      <trkpt lat="45.65667" lon="6.53006">
        <ele>1880</ele>
        <time>2022-07-28T07:31:43Z</time>
      </trkpt>
      <trkpt lat="45.65667" lon="6.53005">
        <ele>1880</ele>
        <time>2022-07-28T07:31:44Z</time>
      </trkpt>
      <trkpt lat="45.65667" lon="6.53004">
        <ele>1880</ele>
        <time>2022-07-28T07:31:45Z</time>
      </trkpt>
      <trkpt lat="45.65667" lon="6.53003">
        <ele>1880</ele>
        <time>2022-07-28T07:31:46Z</time>
      </trkpt>
      <trkpt lat="45.65667" lon="6.53002">
        <ele>1879</ele>
        <time>2022-07-28T07:31:47Z</time>
      </trkpt>
      <trkpt lat="45.65667" lon="6.53001">
        <ele>1879</ele>
        <time>2022-07-28T07:31:48Z</time>
      </trkpt>
      <trkpt lat="45.65667" lon="6.53">
        <ele>1879</ele>
        <time>2022-07-28T07:31:49Z</time>
      </trkpt>
      <trkpt lat="45.65667" lon="6.52999">
        <ele>1879</ele>
        <time>2022-07-28T07:31:50Z</time>
      </trkpt>
      <trkpt lat="45.65667" lon="6.52998">
        <ele>1879</ele>
        <time>2022-07-28T07:31:51Z</time>
      </trkpt>
      <trkpt lat="45.65667" lon="6.52997">
        <ele>1878</ele>
        <time>2022-07-28T07:31:52Z</time>
      </trkpt>
      <trkpt lat="45.65667" lon="6.52996">
        <ele>1878</ele>
        <time>2022-07-28T07:31:53Z</time>
      </trkpt>
      <trkpt lat="45.65666" lon="6.52995">
        <ele>1877</ele>
        <time>2022-07-28T07:31:54Z</time>
      </trkpt>
      <trkpt lat="45.65666" lon="6.52994">
        <ele>1877</ele>
        <time>2022-07-28T07:31:55Z</time>
      </trkpt>
      <trkpt lat="45.65666" lon="6.52993">
        <ele>1877</ele>
        <time>2022-07-28T07:31:56Z</time>
      </trkpt>
      <trkpt lat="45.65665" lon="6.52992">
        <ele>1876</ele>
        <time>2022-07-28T07:31:57Z</time>
      </trkpt>
      <trkpt lat="45.65664" lon="6.52991">
        <ele>1876</ele>
        <time>2022-07-28T07:31:58Z</time>
      </trkpt>
      <trkpt lat="45.65664" lon="6.5299">
        <ele>1876</ele>
        <time>2022-07-28T07:31:59Z</time>
      </trkpt>
      <trkpt lat="45.65663" lon="6.5299">
        <ele>1876</ele>
        <time>2022-07-28T07:32:00Z</time>
      </trkpt>
      <trkpt lat="45.65662" lon="6.52989">
        <ele>1876</ele>
        <time>2022-07-28T07:32:01Z</time>
      </trkpt>
      <trkpt lat="45.65662" lon="6.52988">
        <ele>1875</ele>
        <time>2022-07-28T07:32:02Z</time>
      </trkpt>
      <trkpt lat="45.65662" lon="6.52987">
        <ele>1875</ele>
        <time>2022-07-28T07:32:03Z</time>
      </trkpt>
      <trkpt lat="45.65662" lon="6.52985">
        <ele>1875</ele>
        <time>2022-07-28T07:32:04Z</time>
      </trkpt>
      <trkpt lat="45.65662" lon="6.52984">
        <ele>1875</ele>
        <time>2022-07-28T07:32:05Z</time>
      </trkpt>
      <trkpt lat="45.65663" lon="6.52983">
        <ele>1875</ele>
        <time>2022-07-28T07:32:06Z</time>
      </trkpt>
      <trkpt lat="45.65663" lon="6.52982">
        <ele>1874</ele>
        <time>2022-07-28T07:32:07Z</time>
      </trkpt>
      <trkpt lat="45.65663" lon="6.5298">
        <ele>1874</ele>
        <time>2022-07-28T07:32:08Z</time>
      </trkpt>
      <trkpt lat="45.65663" lon="6.52979">
        <ele>1873</ele>
        <time>2022-07-28T07:32:09Z</time>
      </trkpt>
      <trkpt lat="45.65663" lon="6.52978">
        <ele>1873</ele>
        <time>2022-07-28T07:32:10Z</time>
      </trkpt>
      <trkpt lat="45.65663" lon="6.52977">
        <ele>1873</ele>
        <time>2022-07-28T07:32:11Z</time>
      </trkpt>
      <trkpt lat="45.65663" lon="6.52976">
        <ele>1872</ele>
        <time>2022-07-28T07:32:12Z</time>
      </trkpt>
      <trkpt lat="45.65663" lon="6.52975">
        <ele>1872</ele>
        <time>2022-07-28T07:32:13Z</time>
      </trkpt>
      <trkpt lat="45.65663" lon="6.52974">
        <ele>1872</ele>
        <time>2022-07-28T07:32:14Z</time>
      </trkpt>
      <trkpt lat="45.65663" lon="6.52973">
        <ele>1872</ele>
        <time>2022-07-28T07:32:15Z</time>
      </trkpt>
      <trkpt lat="45.65663" lon="6.52972">
        <ele>1872</ele>
        <time>2022-07-28T07:32:16Z</time>
      </trkpt>
      <trkpt lat="45.65663" lon="6.52971">
        <ele>1871</ele>
        <time>2022-07-28T07:32:17Z</time>
      </trkpt>
      <trkpt lat="45.65663" lon="6.5297">
        <ele>1870</ele>
        <time>2022-07-28T07:32:18Z</time>
      </trkpt>
      <trkpt lat="45.65663" lon="6.52969">
        <ele>1870</ele>
        <time>2022-07-28T07:32:19Z</time>
      </trkpt>
      <trkpt lat="45.65663" lon="6.52968">
        <ele>1869</ele>
        <time>2022-07-28T07:32:20Z</time>
      </trkpt>
      <trkpt lat="45.65663" lon="6.52967">
        <ele>1869</ele>
        <time>2022-07-28T07:32:21Z</time>
      </trkpt>
      <trkpt lat="45.65664" lon="6.52966">
        <ele>1868</ele>
        <time>2022-07-28T07:32:22Z</time>
      </trkpt>
      <trkpt lat="45.65664" lon="6.52965">
        <ele>1868</ele>
        <time>2022-07-28T07:32:23Z</time>
      </trkpt>
      <trkpt lat="45.65663" lon="6.52964">
        <ele>1868</ele>
        <time>2022-07-28T07:32:24Z</time>
      </trkpt>
      <trkpt lat="45.65663" lon="6.52963">
        <ele>1868</ele>
        <time>2022-07-28T07:32:25Z</time>
      </trkpt>
      <trkpt lat="45.65663" lon="6.52962">
        <ele>1868</ele>
        <time>2022-07-28T07:32:26Z</time>
      </trkpt>
      <trkpt lat="45.65663" lon="6.52961">
        <ele>1867</ele>
        <time>2022-07-28T07:32:27Z</time>
      </trkpt>
      <trkpt lat="45.65663" lon="6.52961">
        <ele>1867</ele>
        <time>2022-07-28T07:32:28Z</time>
      </trkpt>
      <trkpt lat="45.65663" lon="6.5296">
        <ele>1867</ele>
        <time>2022-07-28T07:32:29Z</time>
      </trkpt>
      <trkpt lat="45.65663" lon="6.52959">
        <ele>1867</ele>
        <time>2022-07-28T07:32:30Z</time>
      </trkpt>
      <trkpt lat="45.65663" lon="6.52958">
        <ele>1867</ele>
        <time>2022-07-28T07:32:31Z</time>
      </trkpt>
      <trkpt lat="45.65663" lon="6.52957">
        <ele>1866</ele>
        <time>2022-07-28T07:32:32Z</time>
      </trkpt>
      <trkpt lat="45.65663" lon="6.52956">
        <ele>1866</ele>
        <time>2022-07-28T07:32:33Z</time>
      </trkpt>
      <trkpt lat="45.65663" lon="6.52955">
        <ele>1865</ele>
        <time>2022-07-28T07:32:34Z</time>
      </trkpt>
      <trkpt lat="45.65663" lon="6.52954">
        <ele>1865</ele>
        <time>2022-07-28T07:32:35Z</time>
      </trkpt>
      <trkpt lat="45.65664" lon="6.52953">
        <ele>1865</ele>
        <time>2022-07-28T07:32:36Z</time>
      </trkpt>
      <trkpt lat="45.65664" lon="6.52951">
        <ele>1864</ele>
        <time>2022-07-28T07:32:37Z</time>
      </trkpt>
      <trkpt lat="45.65664" lon="6.5295">
        <ele>1864</ele>
        <time>2022-07-28T07:32:38Z</time>
      </trkpt>
      <trkpt lat="45.65665" lon="6.52948">
        <ele>1864</ele>
        <time>2022-07-28T07:32:39Z</time>
      </trkpt>
      <trkpt lat="45.65666" lon="6.52947">
        <ele>1864</ele>
        <time>2022-07-28T07:32:40Z</time>
      </trkpt>
      <trkpt lat="45.65667" lon="6.52945">
        <ele>1864</ele>
        <time>2022-07-28T07:32:41Z</time>
      </trkpt>
      <trkpt lat="45.65668" lon="6.52944">
        <ele>1863</ele>
        <time>2022-07-28T07:32:42Z</time>
      </trkpt>
      <trkpt lat="45.65669" lon="6.52944">
        <ele>1863</ele>
        <time>2022-07-28T07:32:43Z</time>
      </trkpt>
      <trkpt lat="45.6567" lon="6.52943">
        <ele>1863</ele>
        <time>2022-07-28T07:32:44Z</time>
      </trkpt>
      <trkpt lat="45.65671" lon="6.52943">
        <ele>1863</ele>
        <time>2022-07-28T07:32:45Z</time>
      </trkpt>
      <trkpt lat="45.65672" lon="6.52943">
        <ele>1863</ele>
        <time>2022-07-28T07:32:46Z</time>
      </trkpt>
      <trkpt lat="45.65673" lon="6.52942">
        <ele>1863</ele>
        <time>2022-07-28T07:32:47Z</time>
      </trkpt>
      <trkpt lat="45.65674" lon="6.52942">
        <ele>1863</ele>
        <time>2022-07-28T07:32:48Z</time>
      </trkpt>
      <trkpt lat="45.65674" lon="6.52942">
        <ele>1863</ele>
        <time>2022-07-28T07:32:49Z</time>
      </trkpt>
      <trkpt lat="45.65675" lon="6.52942">
        <ele>1863</ele>
        <time>2022-07-28T07:32:50Z</time>
      </trkpt>
      <trkpt lat="45.65675" lon="6.52942">
        <ele>1863</ele>
        <time>2022-07-28T07:32:51Z</time>
      </trkpt>
      <trkpt lat="45.65675" lon="6.52942">
        <ele>1863</ele>
        <time>2022-07-28T07:32:52Z</time>
      </trkpt>
      <trkpt lat="45.65676" lon="6.52942">
        <ele>1863</ele>
        <time>2022-07-28T07:32:53Z</time>
      </trkpt>
      <trkpt lat="45.65677" lon="6.52942">
        <ele>1863</ele>
        <time>2022-07-28T07:32:54Z</time>
      </trkpt>
      <trkpt lat="45.65677" lon="6.52942">
        <ele>1863</ele>
        <time>2022-07-28T07:32:55Z</time>
      </trkpt>
      <trkpt lat="45.65678" lon="6.52942">
        <ele>1863</ele>
        <time>2022-07-28T07:32:56Z</time>
      </trkpt>
      <trkpt lat="45.65678" lon="6.52943">
        <ele>1863</ele>
        <time>2022-07-28T07:32:57Z</time>
      </trkpt>
      <trkpt lat="45.65679" lon="6.52943">
        <ele>1863</ele>
        <time>2022-07-28T07:32:58Z</time>
      </trkpt>
      <trkpt lat="45.6568" lon="6.52944">
        <ele>1863</ele>
        <time>2022-07-28T07:33:09Z</time>
      </trkpt>
      <trkpt lat="45.65681" lon="6.52944">
        <ele>1863</ele>
        <time>2022-07-28T07:33:10Z</time>
      </trkpt>
      <trkpt lat="45.65681" lon="6.52944">
        <ele>1863</ele>
        <time>2022-07-28T07:33:11Z</time>
      </trkpt>
      <trkpt lat="45.65681" lon="6.52943">
        <ele>1862</ele>
        <time>2022-07-28T07:33:12Z</time>
      </trkpt>
      <trkpt lat="45.65681" lon="6.52943">
        <ele>1862</ele>
        <time>2022-07-28T07:33:13Z</time>
      </trkpt>
      <trkpt lat="45.65682" lon="6.52942">
        <ele>1862</ele>
        <time>2022-07-28T07:33:14Z</time>
      </trkpt>
      <trkpt lat="45.65682" lon="6.52941">
        <ele>1862</ele>
        <time>2022-07-28T07:33:15Z</time>
      </trkpt>
      <trkpt lat="45.65682" lon="6.52939">
        <ele>1862</ele>
        <time>2022-07-28T07:33:16Z</time>
      </trkpt>
      <trkpt lat="45.65682" lon="6.52938">
        <ele>1861</ele>
        <time>2022-07-28T07:33:17Z</time>
      </trkpt>
      <trkpt lat="45.65682" lon="6.52937">
        <ele>1861</ele>
        <time>2022-07-28T07:33:18Z</time>
      </trkpt>
      <trkpt lat="45.65683" lon="6.52935">
        <ele>1860</ele>
        <time>2022-07-28T07:33:19Z</time>
      </trkpt>
      <trkpt lat="45.65683" lon="6.52934">
        <ele>1860</ele>
        <time>2022-07-28T07:33:20Z</time>
      </trkpt>
      <trkpt lat="45.65683" lon="6.52933">
        <ele>1860</ele>
        <time>2022-07-28T07:33:21Z</time>
      </trkpt>
      <trkpt lat="45.65683" lon="6.52931">
        <ele>1859</ele>
        <time>2022-07-28T07:33:22Z</time>
      </trkpt>
      <trkpt lat="45.65683" lon="6.5293">
        <ele>1859</ele>
        <time>2022-07-28T07:33:23Z</time>
      </trkpt>
      <trkpt lat="45.65683" lon="6.52929">
        <ele>1859</ele>
        <time>2022-07-28T07:33:24Z</time>
      </trkpt>
      <trkpt lat="45.65683" lon="6.52928">
        <ele>1859</ele>
        <time>2022-07-28T07:33:25Z</time>
      </trkpt>
      <trkpt lat="45.65683" lon="6.52927">
        <ele>1859</ele>
        <time>2022-07-28T07:33:26Z</time>
      </trkpt>
      <trkpt lat="45.65683" lon="6.52925">
        <ele>1859</ele>
        <time>2022-07-28T07:33:27Z</time>
      </trkpt>
      <trkpt lat="45.65683" lon="6.52924">
        <ele>1859</ele>
        <time>2022-07-28T07:33:28Z</time>
      </trkpt>
      <trkpt lat="45.65684" lon="6.52923">
        <ele>1859</ele>
        <time>2022-07-28T07:33:29Z</time>
      </trkpt>
      <trkpt lat="45.65684" lon="6.52922">
        <ele>1859</ele>
        <time>2022-07-28T07:33:30Z</time>
      </trkpt>
      <trkpt lat="45.65684" lon="6.52921">
        <ele>1859</ele>
        <time>2022-07-28T07:33:31Z</time>
      </trkpt>
      <trkpt lat="45.65684" lon="6.5292">
        <ele>1858</ele>
        <time>2022-07-28T07:33:32Z</time>
      </trkpt>
      <trkpt lat="45.65684" lon="6.52919">
        <ele>1857</ele>
        <time>2022-07-28T07:33:33Z</time>
      </trkpt>
      <trkpt lat="45.65684" lon="6.52917">
        <ele>1857</ele>
        <time>2022-07-28T07:33:34Z</time>
      </trkpt>
      <trkpt lat="45.65685" lon="6.52916">
        <ele>1856</ele>
        <time>2022-07-28T07:33:35Z</time>
      </trkpt>
      <trkpt lat="45.65685" lon="6.52915">
        <ele>1856</ele>
        <time>2022-07-28T07:33:36Z</time>
      </trkpt>
      <trkpt lat="45.65685" lon="6.52914">
        <ele>1855</ele>
        <time>2022-07-28T07:33:37Z</time>
      </trkpt>
      <trkpt lat="45.65685" lon="6.52913">
        <ele>1855</ele>
        <time>2022-07-28T07:33:38Z</time>
      </trkpt>
      <trkpt lat="45.65685" lon="6.52912">
        <ele>1854</ele>
        <time>2022-07-28T07:33:39Z</time>
      </trkpt>
      <trkpt lat="45.65685" lon="6.52911">
        <ele>1854</ele>
        <time>2022-07-28T07:33:40Z</time>
      </trkpt>
      <trkpt lat="45.65685" lon="6.52909">
        <ele>1854</ele>
        <time>2022-07-28T07:33:41Z</time>
      </trkpt>
      <trkpt lat="45.65685" lon="6.52908">
        <ele>1853</ele>
        <time>2022-07-28T07:33:42Z</time>
      </trkpt>
      <trkpt lat="45.65686" lon="6.52907">
        <ele>1853</ele>
        <time>2022-07-28T07:33:43Z</time>
      </trkpt>
      <trkpt lat="45.65686" lon="6.52906">
        <ele>1853</ele>
        <time>2022-07-28T07:33:44Z</time>
      </trkpt>
      <trkpt lat="45.65686" lon="6.52905">
        <ele>1853</ele>
        <time>2022-07-28T07:33:45Z</time>
      </trkpt>
      <trkpt lat="45.65686" lon="6.52903">
        <ele>1853</ele>
        <time>2022-07-28T07:33:46Z</time>
      </trkpt>
      <trkpt lat="45.65686" lon="6.52902">
        <ele>1852</ele>
        <time>2022-07-28T07:33:47Z</time>
      </trkpt>
      <trkpt lat="45.65687" lon="6.529">
        <ele>1852</ele>
        <time>2022-07-28T07:33:48Z</time>
      </trkpt>
      <trkpt lat="45.65687" lon="6.52899">
        <ele>1851</ele>
        <time>2022-07-28T07:33:49Z</time>
      </trkpt>
      <trkpt lat="45.65687" lon="6.52897">
        <ele>1851</ele>
        <time>2022-07-28T07:33:50Z</time>
      </trkpt>
      <trkpt lat="45.65687" lon="6.52896">
        <ele>1851</ele>
        <time>2022-07-28T07:33:51Z</time>
      </trkpt>
      <trkpt lat="45.65688" lon="6.52895">
        <ele>1850</ele>
        <time>2022-07-28T07:33:52Z</time>
      </trkpt>
      <trkpt lat="45.65689" lon="6.52893">
        <ele>1850</ele>
        <time>2022-07-28T07:33:53Z</time>
      </trkpt>
      <trkpt lat="45.65689" lon="6.52892">
        <ele>1850</ele>
        <time>2022-07-28T07:33:54Z</time>
      </trkpt>
      <trkpt lat="45.6569" lon="6.52891">
        <ele>1850</ele>
        <time>2022-07-28T07:33:55Z</time>
      </trkpt>
      <trkpt lat="45.6569" lon="6.5289">
        <ele>1850</ele>
        <time>2022-07-28T07:33:56Z</time>
      </trkpt>
      <trkpt lat="45.6569" lon="6.52889">
        <ele>1849</ele>
        <time>2022-07-28T07:33:57Z</time>
      </trkpt>
      <trkpt lat="45.6569" lon="6.52888">
        <ele>1849</ele>
        <time>2022-07-28T07:33:58Z</time>
      </trkpt>
      <trkpt lat="45.6569" lon="6.52886">
        <ele>1849</ele>
        <time>2022-07-28T07:33:59Z</time>
      </trkpt>
      <trkpt lat="45.6569" lon="6.52885">
        <ele>1849</ele>
        <time>2022-07-28T07:34:00Z</time>
      </trkpt>
      <trkpt lat="45.6569" lon="6.52884">
        <ele>1849</ele>
        <time>2022-07-28T07:34:01Z</time>
      </trkpt>
      <trkpt lat="45.65691" lon="6.52883">
        <ele>1848</ele>
        <time>2022-07-28T07:34:02Z</time>
      </trkpt>
      <trkpt lat="45.65691" lon="6.52881">
        <ele>1848</ele>
        <time>2022-07-28T07:34:03Z</time>
      </trkpt>
      <trkpt lat="45.65691" lon="6.5288">
        <ele>1848</ele>
        <time>2022-07-28T07:34:04Z</time>
      </trkpt>
      <trkpt lat="45.65692" lon="6.52879">
        <ele>1848</ele>
        <time>2022-07-28T07:34:05Z</time>
      </trkpt>
      <trkpt lat="45.65693" lon="6.52878">
        <ele>1848</ele>
        <time>2022-07-28T07:34:06Z</time>
      </trkpt>
      <trkpt lat="45.65693" lon="6.52877">
        <ele>1847</ele>
        <time>2022-07-28T07:34:07Z</time>
      </trkpt>
      <trkpt lat="45.65694" lon="6.52875">
        <ele>1847</ele>
        <time>2022-07-28T07:34:08Z</time>
      </trkpt>
      <trkpt lat="45.65694" lon="6.52874">
        <ele>1847</ele>
        <time>2022-07-28T07:34:09Z</time>
      </trkpt>
      <trkpt lat="45.65695" lon="6.52873">
        <ele>1847</ele>
        <time>2022-07-28T07:34:10Z</time>
      </trkpt>
      <trkpt lat="45.65695" lon="6.52872">
        <ele>1847</ele>
        <time>2022-07-28T07:34:11Z</time>
      </trkpt>
      <trkpt lat="45.65695" lon="6.5287">
        <ele>1847</ele>
        <time>2022-07-28T07:34:12Z</time>
      </trkpt>
      <trkpt lat="45.65696" lon="6.52868">
        <ele>1847</ele>
        <time>2022-07-28T07:34:13Z</time>
      </trkpt>
      <trkpt lat="45.65696" lon="6.52867">
        <ele>1847</ele>
        <time>2022-07-28T07:34:14Z</time>
      </trkpt>
      <trkpt lat="45.65696" lon="6.52865">
        <ele>1847</ele>
        <time>2022-07-28T07:34:15Z</time>
      </trkpt>
      <trkpt lat="45.65696" lon="6.52863">
        <ele>1847</ele>
        <time>2022-07-28T07:34:16Z</time>
      </trkpt>
      <trkpt lat="45.65696" lon="6.52861">
        <ele>1846</ele>
        <time>2022-07-28T07:34:17Z</time>
      </trkpt>
      <trkpt lat="45.65696" lon="6.5286">
        <ele>1846</ele>
        <time>2022-07-28T07:34:18Z</time>
      </trkpt>
      <trkpt lat="45.65696" lon="6.52858">
        <ele>1846</ele>
        <time>2022-07-28T07:34:19Z</time>
      </trkpt>
      <trkpt lat="45.65696" lon="6.52857">
        <ele>1846</ele>
        <time>2022-07-28T07:34:20Z</time>
      </trkpt>
      <trkpt lat="45.65696" lon="6.52856">
        <ele>1846</ele>
        <time>2022-07-28T07:34:21Z</time>
      </trkpt>
      <trkpt lat="45.65696" lon="6.52854">
        <ele>1846</ele>
        <time>2022-07-28T07:34:22Z</time>
      </trkpt>
      <trkpt lat="45.65696" lon="6.52853">
        <ele>1846</ele>
        <time>2022-07-28T07:34:23Z</time>
      </trkpt>
      <trkpt lat="45.65696" lon="6.52852">
        <ele>1846</ele>
        <time>2022-07-28T07:34:24Z</time>
      </trkpt>
      <trkpt lat="45.65696" lon="6.52851">
        <ele>1846</ele>
        <time>2022-07-28T07:34:25Z</time>
      </trkpt>
      <trkpt lat="45.65696" lon="6.52849">
        <ele>1846</ele>
        <time>2022-07-28T07:34:26Z</time>
      </trkpt>
      <trkpt lat="45.65696" lon="6.52848">
        <ele>1846</ele>
        <time>2022-07-28T07:34:27Z</time>
      </trkpt>
      <trkpt lat="45.65695" lon="6.52847">
        <ele>1846</ele>
        <time>2022-07-28T07:34:28Z</time>
      </trkpt>
      <trkpt lat="45.65695" lon="6.52846">
        <ele>1846</ele>
        <time>2022-07-28T07:34:29Z</time>
      </trkpt>
      <trkpt lat="45.65695" lon="6.52845">
        <ele>1846</ele>
        <time>2022-07-28T07:34:30Z</time>
      </trkpt>
      <trkpt lat="45.65694" lon="6.52844">
        <ele>1847</ele>
        <time>2022-07-28T07:34:31Z</time>
      </trkpt>
      <trkpt lat="45.65694" lon="6.52843">
        <ele>1847</ele>
        <time>2022-07-28T07:34:32Z</time>
      </trkpt>
      <trkpt lat="45.65693" lon="6.52842">
        <ele>1847</ele>
        <time>2022-07-28T07:34:33Z</time>
      </trkpt>
      <trkpt lat="45.65693" lon="6.52841">
        <ele>1847</ele>
        <time>2022-07-28T07:34:34Z</time>
      </trkpt>
      <trkpt lat="45.65692" lon="6.5284">
        <ele>1847</ele>
        <time>2022-07-28T07:34:35Z</time>
      </trkpt>
      <trkpt lat="45.65692" lon="6.52839">
        <ele>1847</ele>
        <time>2022-07-28T07:34:36Z</time>
      </trkpt>
      <trkpt lat="45.65691" lon="6.52838">
        <ele>1847</ele>
        <time>2022-07-28T07:34:37Z</time>
      </trkpt>
      <trkpt lat="45.65691" lon="6.52838">
        <ele>1847</ele>
        <time>2022-07-28T07:34:38Z</time>
      </trkpt>
      <trkpt lat="45.65691" lon="6.52837">
        <ele>1847</ele>
        <time>2022-07-28T07:34:39Z</time>
      </trkpt>
      <trkpt lat="45.6569" lon="6.52836">
        <ele>1847</ele>
        <time>2022-07-28T07:34:40Z</time>
      </trkpt>
      <trkpt lat="45.6569" lon="6.52835">
        <ele>1848</ele>
        <time>2022-07-28T07:34:41Z</time>
      </trkpt>
      <trkpt lat="45.65689" lon="6.52834">
        <ele>1848</ele>
        <time>2022-07-28T07:34:42Z</time>
      </trkpt>
      <trkpt lat="45.65689" lon="6.52833">
        <ele>1848</ele>
        <time>2022-07-28T07:34:43Z</time>
      </trkpt>
      <trkpt lat="45.65688" lon="6.52832">
        <ele>1848</ele>
        <time>2022-07-28T07:34:44Z</time>
      </trkpt>
      <trkpt lat="45.65688" lon="6.52831">
        <ele>1848</ele>
        <time>2022-07-28T07:34:45Z</time>
      </trkpt>
      <trkpt lat="45.65688" lon="6.5283">
        <ele>1849</ele>
        <time>2022-07-28T07:34:46Z</time>
      </trkpt>
      <trkpt lat="45.65687" lon="6.52829">
        <ele>1849</ele>
        <time>2022-07-28T07:34:47Z</time>
      </trkpt>
      <trkpt lat="45.65687" lon="6.52827">
        <ele>1851</ele>
        <time>2022-07-28T07:37:49Z</time>
      </trkpt>
      <trkpt lat="45.65687" lon="6.52825">
        <ele>1851</ele>
        <time>2022-07-28T07:37:50Z</time>
      </trkpt>
      <trkpt lat="45.65686" lon="6.52824">
        <ele>1851</ele>
        <time>2022-07-28T07:37:51Z</time>
      </trkpt>
      <trkpt lat="45.65686" lon="6.52823">
        <ele>1851</ele>
        <time>2022-07-28T07:37:52Z</time>
      </trkpt>
      <trkpt lat="45.65686" lon="6.52822">
        <ele>1851</ele>
        <time>2022-07-28T07:37:53Z</time>
      </trkpt>
      <trkpt lat="45.65686" lon="6.52821">
        <ele>1851</ele>
        <time>2022-07-28T07:37:54Z</time>
      </trkpt>
      <trkpt lat="45.65685" lon="6.5282">
        <ele>1851</ele>
        <time>2022-07-28T07:37:55Z</time>
      </trkpt>
      <trkpt lat="45.65685" lon="6.52819">
        <ele>1852</ele>
        <time>2022-07-28T07:37:56Z</time>
      </trkpt>
      <trkpt lat="45.65685" lon="6.52818">
        <ele>1852</ele>
        <time>2022-07-28T07:37:57Z</time>
      </trkpt>
      <trkpt lat="45.65685" lon="6.52818">
        <ele>1852</ele>
        <time>2022-07-28T07:37:58Z</time>
      </trkpt>
      <trkpt lat="45.65684" lon="6.52817">
        <ele>1852</ele>
        <time>2022-07-28T07:37:59Z</time>
      </trkpt>
      <trkpt lat="45.65684" lon="6.52816">
        <ele>1852</ele>
        <time>2022-07-28T07:38:00Z</time>
      </trkpt>
      <trkpt lat="45.65684" lon="6.52815">
        <ele>1852</ele>
        <time>2022-07-28T07:38:01Z</time>
      </trkpt>
      <trkpt lat="45.65683" lon="6.52814">
        <ele>1852</ele>
        <time>2022-07-28T07:38:02Z</time>
      </trkpt>
      <trkpt lat="45.65683" lon="6.52813">
        <ele>1852</ele>
        <time>2022-07-28T07:38:03Z</time>
      </trkpt>
      <trkpt lat="45.65683" lon="6.52812">
        <ele>1852</ele>
        <time>2022-07-28T07:38:04Z</time>
      </trkpt>
      <trkpt lat="45.65682" lon="6.52812">
        <ele>1852</ele>
        <time>2022-07-28T07:38:05Z</time>
      </trkpt>
      <trkpt lat="45.65682" lon="6.52811">
        <ele>1853</ele>
        <time>2022-07-28T07:38:06Z</time>
      </trkpt>
      <trkpt lat="45.65682" lon="6.5281">
        <ele>1853</ele>
        <time>2022-07-28T07:38:07Z</time>
      </trkpt>
      <trkpt lat="45.65681" lon="6.52809">
        <ele>1853</ele>
        <time>2022-07-28T07:38:08Z</time>
      </trkpt>
      <trkpt lat="45.65681" lon="6.52808">
        <ele>1853</ele>
        <time>2022-07-28T07:38:09Z</time>
      </trkpt>
      <trkpt lat="45.6568" lon="6.52807">
        <ele>1853</ele>
        <time>2022-07-28T07:38:10Z</time>
      </trkpt>
      <trkpt lat="45.6568" lon="6.52806">
        <ele>1854</ele>
        <time>2022-07-28T07:38:11Z</time>
      </trkpt>
      <trkpt lat="45.65679" lon="6.52805">
        <ele>1854</ele>
        <time>2022-07-28T07:38:12Z</time>
      </trkpt>
      <trkpt lat="45.65679" lon="6.52805">
        <ele>1854</ele>
        <time>2022-07-28T07:38:13Z</time>
      </trkpt>
      <trkpt lat="45.65678" lon="6.52804">
        <ele>1854</ele>
        <time>2022-07-28T07:38:14Z</time>
      </trkpt>
      <trkpt lat="45.65678" lon="6.52803">
        <ele>1854</ele>
        <time>2022-07-28T07:38:15Z</time>
      </trkpt>
      <trkpt lat="45.65678" lon="6.52802">
        <ele>1855</ele>
        <time>2022-07-28T07:38:16Z</time>
      </trkpt>
      <trkpt lat="45.65678" lon="6.52802">
        <ele>1855</ele>
        <time>2022-07-28T07:38:17Z</time>
      </trkpt>
      <trkpt lat="45.65677" lon="6.52801">
        <ele>1855</ele>
        <time>2022-07-28T07:38:18Z</time>
      </trkpt>
      <trkpt lat="45.65677" lon="6.528">
        <ele>1855</ele>
        <time>2022-07-28T07:38:19Z</time>
      </trkpt>
      <trkpt lat="45.65677" lon="6.52799">
        <ele>1855</ele>
        <time>2022-07-28T07:38:20Z</time>
      </trkpt>
      <trkpt lat="45.65677" lon="6.52798">
        <ele>1855</ele>
        <time>2022-07-28T07:38:21Z</time>
      </trkpt>
      <trkpt lat="45.65677" lon="6.52797">
        <ele>1855</ele>
        <time>2022-07-28T07:38:22Z</time>
      </trkpt>
      <trkpt lat="45.65677" lon="6.52797">
        <ele>1855</ele>
        <time>2022-07-28T07:38:23Z</time>
      </trkpt>
      <trkpt lat="45.65677" lon="6.52796">
        <ele>1855</ele>
        <time>2022-07-28T07:38:24Z</time>
      </trkpt>
      <trkpt lat="45.65677" lon="6.52794">
        <ele>1855</ele>
        <time>2022-07-28T07:38:25Z</time>
      </trkpt>
      <trkpt lat="45.65677" lon="6.52793">
        <ele>1856</ele>
        <time>2022-07-28T07:38:26Z</time>
      </trkpt>
      <trkpt lat="45.65677" lon="6.52792">
        <ele>1856</ele>
        <time>2022-07-28T07:38:27Z</time>
      </trkpt>
      <trkpt lat="45.65677" lon="6.52791">
        <ele>1856</ele>
        <time>2022-07-28T07:38:28Z</time>
      </trkpt>
      <trkpt lat="45.65676" lon="6.5279">
        <ele>1856</ele>
        <time>2022-07-28T07:38:29Z</time>
      </trkpt>
      <trkpt lat="45.65676" lon="6.52787">
        <ele>1857</ele>
        <time>2022-07-28T07:38:40Z</time>
      </trkpt>
      <trkpt lat="45.65676" lon="6.52786">
        <ele>1858</ele>
        <time>2022-07-28T07:38:41Z</time>
      </trkpt>
      <trkpt lat="45.65675" lon="6.52784">
        <ele>1858</ele>
        <time>2022-07-28T07:38:42Z</time>
      </trkpt>
      <trkpt lat="45.65675" lon="6.52783">
        <ele>1858</ele>
        <time>2022-07-28T07:38:43Z</time>
      </trkpt>
      <trkpt lat="45.65675" lon="6.52782">
        <ele>1858</ele>
        <time>2022-07-28T07:38:44Z</time>
      </trkpt>
      <trkpt lat="45.65675" lon="6.52781">
        <ele>1858</ele>
        <time>2022-07-28T07:38:45Z</time>
      </trkpt>
      <trkpt lat="45.65675" lon="6.5278">
        <ele>1858</ele>
        <time>2022-07-28T07:38:46Z</time>
      </trkpt>
      <trkpt lat="45.65675" lon="6.52779">
        <ele>1858</ele>
        <time>2022-07-28T07:38:47Z</time>
      </trkpt>
      <trkpt lat="45.65675" lon="6.52778">
        <ele>1858</ele>
        <time>2022-07-28T07:38:48Z</time>
      </trkpt>
      <trkpt lat="45.65675" lon="6.52776">
        <ele>1858</ele>
        <time>2022-07-28T07:38:49Z</time>
      </trkpt>
      <trkpt lat="45.65675" lon="6.52775">
        <ele>1858</ele>
        <time>2022-07-28T07:38:50Z</time>
      </trkpt>
      <trkpt lat="45.65674" lon="6.52774">
        <ele>1859</ele>
        <time>2022-07-28T07:38:51Z</time>
      </trkpt>
      <trkpt lat="45.65674" lon="6.52773">
        <ele>1859</ele>
        <time>2022-07-28T07:38:52Z</time>
      </trkpt>
      <trkpt lat="45.65674" lon="6.52772">
        <ele>1859</ele>
        <time>2022-07-28T07:38:53Z</time>
      </trkpt>
      <trkpt lat="45.65674" lon="6.52771">
        <ele>1859</ele>
        <time>2022-07-28T07:38:54Z</time>
      </trkpt>
      <trkpt lat="45.65672" lon="6.52766">
        <ele>1862</ele>
        <time>2022-07-28T07:39:13Z</time>
      </trkpt>
      <trkpt lat="45.65671" lon="6.52763">
        <ele>1862</ele>
        <time>2022-07-28T07:39:14Z</time>
      </trkpt>
      <trkpt lat="45.6567" lon="6.5276">
        <ele>1862</ele>
        <time>2022-07-28T07:39:15Z</time>
      </trkpt>
      <trkpt lat="45.6567" lon="6.52759">
        <ele>1862</ele>
        <time>2022-07-28T07:39:16Z</time>
      </trkpt>
      <trkpt lat="45.65669" lon="6.52757">
        <ele>1862</ele>
        <time>2022-07-28T07:39:17Z</time>
      </trkpt>
      <trkpt lat="45.65669" lon="6.52756">
        <ele>1862</ele>
        <time>2022-07-28T07:39:18Z</time>
      </trkpt>
      <trkpt lat="45.65668" lon="6.52755">
        <ele>1862</ele>
        <time>2022-07-28T07:39:19Z</time>
      </trkpt>
      <trkpt lat="45.65668" lon="6.52754">
        <ele>1862</ele>
        <time>2022-07-28T07:39:20Z</time>
      </trkpt>
      <trkpt lat="45.65668" lon="6.52753">
        <ele>1863</ele>
        <time>2022-07-28T07:39:21Z</time>
      </trkpt>
      <trkpt lat="45.65668" lon="6.52752">
        <ele>1863</ele>
        <time>2022-07-28T07:39:22Z</time>
      </trkpt>
      <trkpt lat="45.65667" lon="6.52752">
        <ele>1863</ele>
        <time>2022-07-28T07:39:23Z</time>
      </trkpt>
      <trkpt lat="45.65667" lon="6.52751">
        <ele>1863</ele>
        <time>2022-07-28T07:39:24Z</time>
      </trkpt>
      <trkpt lat="45.65667" lon="6.5275">
        <ele>1863</ele>
        <time>2022-07-28T07:39:25Z</time>
      </trkpt>
      <trkpt lat="45.65667" lon="6.52747">
        <ele>1865</ele>
        <time>2022-07-28T07:39:51Z</time>
      </trkpt>
      <trkpt lat="45.65667" lon="6.52745">
        <ele>1865</ele>
        <time>2022-07-28T07:39:52Z</time>
      </trkpt>
      <trkpt lat="45.65668" lon="6.52744">
        <ele>1865</ele>
        <time>2022-07-28T07:39:53Z</time>
      </trkpt>
      <trkpt lat="45.65668" lon="6.52743">
        <ele>1865</ele>
        <time>2022-07-28T07:39:54Z</time>
      </trkpt>
      <trkpt lat="45.65668" lon="6.52741">
        <ele>1865</ele>
        <time>2022-07-28T07:39:55Z</time>
      </trkpt>
      <trkpt lat="45.65667" lon="6.5274">
        <ele>1866</ele>
        <time>2022-07-28T07:39:56Z</time>
      </trkpt>
      <trkpt lat="45.65667" lon="6.52739">
        <ele>1866</ele>
        <time>2022-07-28T07:39:57Z</time>
      </trkpt>
      <trkpt lat="45.65667" lon="6.52738">
        <ele>1866</ele>
        <time>2022-07-28T07:39:58Z</time>
      </trkpt>
      <trkpt lat="45.65667" lon="6.52737">
        <ele>1866</ele>
        <time>2022-07-28T07:39:59Z</time>
      </trkpt>
      <trkpt lat="45.65667" lon="6.52736">
        <ele>1866</ele>
        <time>2022-07-28T07:40:00Z</time>
      </trkpt>
      <trkpt lat="45.65667" lon="6.52735">
        <ele>1866</ele>
        <time>2022-07-28T07:40:01Z</time>
      </trkpt>
      <trkpt lat="45.65667" lon="6.52734">
        <ele>1866</ele>
        <time>2022-07-28T07:40:02Z</time>
      </trkpt>
      <trkpt lat="45.65667" lon="6.52733">
        <ele>1866</ele>
        <time>2022-07-28T07:40:03Z</time>
      </trkpt>
      <trkpt lat="45.65667" lon="6.52732">
        <ele>1866</ele>
        <time>2022-07-28T07:40:04Z</time>
      </trkpt>
      <trkpt lat="45.65667" lon="6.52731">
        <ele>1866</ele>
        <time>2022-07-28T07:40:05Z</time>
      </trkpt>
      <trkpt lat="45.65666" lon="6.5273">
        <ele>1866</ele>
        <time>2022-07-28T07:40:06Z</time>
      </trkpt>
      <trkpt lat="45.65666" lon="6.5273">
        <ele>1866</ele>
        <time>2022-07-28T07:40:07Z</time>
      </trkpt>
      <trkpt lat="45.65666" lon="6.52729">
        <ele>1866</ele>
        <time>2022-07-28T07:40:08Z</time>
      </trkpt>
      <trkpt lat="45.65666" lon="6.52728">
        <ele>1866</ele>
        <time>2022-07-28T07:40:09Z</time>
      </trkpt>
      <trkpt lat="45.65666" lon="6.52728">
        <ele>1866</ele>
        <time>2022-07-28T07:40:10Z</time>
      </trkpt>
      <trkpt lat="45.65666" lon="6.52727">
        <ele>1867</ele>
        <time>2022-07-28T07:40:11Z</time>
      </trkpt>
      <trkpt lat="45.65665" lon="6.52726">
        <ele>1867</ele>
        <time>2022-07-28T07:40:12Z</time>
      </trkpt>
      <trkpt lat="45.65665" lon="6.52725">
        <ele>1867</ele>
        <time>2022-07-28T07:40:13Z</time>
      </trkpt>
      <trkpt lat="45.65665" lon="6.52724">
        <ele>1867</ele>
        <time>2022-07-28T07:40:14Z</time>
      </trkpt>
      <trkpt lat="45.65664" lon="6.52723">
        <ele>1867</ele>
        <time>2022-07-28T07:40:15Z</time>
      </trkpt>
      <trkpt lat="45.65664" lon="6.52722">
        <ele>1867</ele>
        <time>2022-07-28T07:40:16Z</time>
      </trkpt>
      <trkpt lat="45.65664" lon="6.52721">
        <ele>1867</ele>
        <time>2022-07-28T07:40:17Z</time>
      </trkpt>
      <trkpt lat="45.65663" lon="6.5272">
        <ele>1867</ele>
        <time>2022-07-28T07:40:18Z</time>
      </trkpt>
      <trkpt lat="45.65663" lon="6.52719">
        <ele>1867</ele>
        <time>2022-07-28T07:40:19Z</time>
      </trkpt>
      <trkpt lat="45.65662" lon="6.52718">
        <ele>1867</ele>
        <time>2022-07-28T07:40:20Z</time>
      </trkpt>
      <trkpt lat="45.65662" lon="6.52718">
        <ele>1868</ele>
        <time>2022-07-28T07:40:21Z</time>
      </trkpt>
      <trkpt lat="45.65661" lon="6.52717">
        <ele>1868</ele>
        <time>2022-07-28T07:40:22Z</time>
      </trkpt>
      <trkpt lat="45.65661" lon="6.52716">
        <ele>1868</ele>
        <time>2022-07-28T07:40:23Z</time>
      </trkpt>
      <trkpt lat="45.6566" lon="6.52716">
        <ele>1868</ele>
        <time>2022-07-28T07:40:24Z</time>
      </trkpt>
      <trkpt lat="45.6566" lon="6.52716">
        <ele>1868</ele>
        <time>2022-07-28T07:40:25Z</time>
      </trkpt>
      <trkpt lat="45.6566" lon="6.52715">
        <ele>1869</ele>
        <time>2022-07-28T07:40:26Z</time>
      </trkpt>
      <trkpt lat="45.6566" lon="6.52715">
        <ele>1869</ele>
        <time>2022-07-28T07:40:27Z</time>
      </trkpt>
      <trkpt lat="45.65659" lon="6.52714">
        <ele>1869</ele>
        <time>2022-07-28T07:40:28Z</time>
      </trkpt>
      <trkpt lat="45.65659" lon="6.52714">
        <ele>1870</ele>
        <time>2022-07-28T07:40:29Z</time>
      </trkpt>
      <trkpt lat="45.65658" lon="6.52714">
        <ele>1870</ele>
        <time>2022-07-28T07:40:30Z</time>
      </trkpt>
      <trkpt lat="45.65658" lon="6.52713">
        <ele>1871</ele>
        <time>2022-07-28T07:40:31Z</time>
      </trkpt>
      <trkpt lat="45.65658" lon="6.52713">
        <ele>1871</ele>
        <time>2022-07-28T07:40:32Z</time>
      </trkpt>
      <trkpt lat="45.65657" lon="6.52712">
        <ele>1871</ele>
        <time>2022-07-28T07:40:33Z</time>
      </trkpt>
      <trkpt lat="45.65657" lon="6.52712">
        <ele>1871</ele>
        <time>2022-07-28T07:40:34Z</time>
      </trkpt>
      <trkpt lat="45.65657" lon="6.52711">
        <ele>1871</ele>
        <time>2022-07-28T07:40:35Z</time>
      </trkpt>
      <trkpt lat="45.65656" lon="6.5271">
        <ele>1872</ele>
        <time>2022-07-28T07:40:36Z</time>
      </trkpt>
      <trkpt lat="45.65656" lon="6.5271">
        <ele>1872</ele>
        <time>2022-07-28T07:40:37Z</time>
      </trkpt>
      <trkpt lat="45.65656" lon="6.5271">
        <ele>1872</ele>
        <time>2022-07-28T07:40:38Z</time>
      </trkpt>
      <trkpt lat="45.65654" lon="6.52708">
        <ele>1873</ele>
        <time>2022-07-28T07:40:44Z</time>
      </trkpt>
      <trkpt lat="45.65653" lon="6.52707">
        <ele>1873</ele>
        <time>2022-07-28T07:40:45Z</time>
      </trkpt>
      <trkpt lat="45.65653" lon="6.52706">
        <ele>1873</ele>
        <time>2022-07-28T07:40:46Z</time>
      </trkpt>
      <trkpt lat="45.65652" lon="6.52705">
        <ele>1873</ele>
        <time>2022-07-28T07:40:47Z</time>
      </trkpt>
      <trkpt lat="45.65652" lon="6.52705">
        <ele>1873</ele>
        <time>2022-07-28T07:40:48Z</time>
      </trkpt>
      <trkpt lat="45.65652" lon="6.52704">
        <ele>1873</ele>
        <time>2022-07-28T07:40:49Z</time>
      </trkpt>
      <trkpt lat="45.65651" lon="6.52704">
        <ele>1873</ele>
        <time>2022-07-28T07:40:50Z</time>
      </trkpt>
      <trkpt lat="45.65651" lon="6.52703">
        <ele>1874</ele>
        <time>2022-07-28T07:40:51Z</time>
      </trkpt>
      <trkpt lat="45.6565" lon="6.52703">
        <ele>1874</ele>
        <time>2022-07-28T07:40:52Z</time>
      </trkpt>
      <trkpt lat="45.6565" lon="6.52702">
        <ele>1874</ele>
        <time>2022-07-28T07:40:53Z</time>
      </trkpt>
      <trkpt lat="45.65649" lon="6.52702">
        <ele>1874</ele>
        <time>2022-07-28T07:40:54Z</time>
      </trkpt>
      <trkpt lat="45.65649" lon="6.52702">
        <ele>1874</ele>
        <time>2022-07-28T07:40:55Z</time>
      </trkpt>
      <trkpt lat="45.65649" lon="6.52701">
        <ele>1875</ele>
        <time>2022-07-28T07:40:56Z</time>
      </trkpt>
      <trkpt lat="45.65648" lon="6.52701">
        <ele>1875</ele>
        <time>2022-07-28T07:40:57Z</time>
      </trkpt>
      <trkpt lat="45.65648" lon="6.527">
        <ele>1875</ele>
        <time>2022-07-28T07:40:58Z</time>
      </trkpt>
      <trkpt lat="45.65647" lon="6.52699">
        <ele>1875</ele>
        <time>2022-07-28T07:40:59Z</time>
      </trkpt>
      <trkpt lat="45.65647" lon="6.52699">
        <ele>1875</ele>
        <time>2022-07-28T07:41:00Z</time>
      </trkpt>
      <trkpt lat="45.65646" lon="6.52698">
        <ele>1875</ele>
        <time>2022-07-28T07:41:01Z</time>
      </trkpt>
      <trkpt lat="45.65646" lon="6.52698">
        <ele>1875</ele>
        <time>2022-07-28T07:41:02Z</time>
      </trkpt>
      <trkpt lat="45.65645" lon="6.52697">
        <ele>1875</ele>
        <time>2022-07-28T07:41:03Z</time>
      </trkpt>
      <trkpt lat="45.65645" lon="6.52696">
        <ele>1875</ele>
        <time>2022-07-28T07:41:04Z</time>
      </trkpt>
      <trkpt lat="45.65644" lon="6.52696">
        <ele>1875</ele>
        <time>2022-07-28T07:41:05Z</time>
      </trkpt>
      <trkpt lat="45.65644" lon="6.52695">
        <ele>1876</ele>
        <time>2022-07-28T07:41:06Z</time>
      </trkpt>
      <trkpt lat="45.65643" lon="6.52694">
        <ele>1876</ele>
        <time>2022-07-28T07:41:07Z</time>
      </trkpt>
      <trkpt lat="45.65643" lon="6.52693">
        <ele>1876</ele>
        <time>2022-07-28T07:41:08Z</time>
      </trkpt>
      <trkpt lat="45.65643" lon="6.52693">
        <ele>1876</ele>
        <time>2022-07-28T07:41:09Z</time>
      </trkpt>
      <trkpt lat="45.65642" lon="6.52692">
        <ele>1876</ele>
        <time>2022-07-28T07:41:10Z</time>
      </trkpt>
      <trkpt lat="45.65641" lon="6.5269">
        <ele>1877</ele>
        <time>2022-07-28T07:41:17Z</time>
      </trkpt>
      <trkpt lat="45.6564" lon="6.52689">
        <ele>1877</ele>
        <time>2022-07-28T07:41:18Z</time>
      </trkpt>
      <trkpt lat="45.6564" lon="6.52688">
        <ele>1877</ele>
        <time>2022-07-28T07:41:19Z</time>
      </trkpt>
      <trkpt lat="45.6564" lon="6.52688">
        <ele>1877</ele>
        <time>2022-07-28T07:41:20Z</time>
      </trkpt>
      <trkpt lat="45.65639" lon="6.52687">
        <ele>1877</ele>
        <time>2022-07-28T07:41:21Z</time>
      </trkpt>
      <trkpt lat="45.65638" lon="6.52684">
        <ele>1879</ele>
        <time>2022-07-28T07:41:59Z</time>
      </trkpt>
      <trkpt lat="45.65638" lon="6.52683">
        <ele>1879</ele>
        <time>2022-07-28T07:42:00Z</time>
      </trkpt>
      <trkpt lat="45.65637" lon="6.52682">
        <ele>1879</ele>
        <time>2022-07-28T07:42:01Z</time>
      </trkpt>
      <trkpt lat="45.65637" lon="6.52681">
        <ele>1879</ele>
        <time>2022-07-28T07:42:02Z</time>
      </trkpt>
      <trkpt lat="45.65637" lon="6.5268">
        <ele>1879</ele>
        <time>2022-07-28T07:42:03Z</time>
      </trkpt>
      <trkpt lat="45.65637" lon="6.52679">
        <ele>1879</ele>
        <time>2022-07-28T07:42:04Z</time>
      </trkpt>
      <trkpt lat="45.65637" lon="6.52678">
        <ele>1879</ele>
        <time>2022-07-28T07:42:05Z</time>
      </trkpt>
      <trkpt lat="45.65636" lon="6.52677">
        <ele>1880</ele>
        <time>2022-07-28T07:42:06Z</time>
      </trkpt>
      <trkpt lat="45.65636" lon="6.52676">
        <ele>1880</ele>
        <time>2022-07-28T07:42:07Z</time>
      </trkpt>
      <trkpt lat="45.65636" lon="6.52676">
        <ele>1880</ele>
        <time>2022-07-28T07:42:08Z</time>
      </trkpt>
      <trkpt lat="45.65636" lon="6.52675">
        <ele>1880</ele>
        <time>2022-07-28T07:42:09Z</time>
      </trkpt>
      <trkpt lat="45.65635" lon="6.52673">
        <ele>1880</ele>
        <time>2022-07-28T07:42:10Z</time>
      </trkpt>
      <trkpt lat="45.65635" lon="6.52672">
        <ele>1881</ele>
        <time>2022-07-28T07:42:11Z</time>
      </trkpt>
      <trkpt lat="45.65635" lon="6.52672">
        <ele>1881</ele>
        <time>2022-07-28T07:42:12Z</time>
      </trkpt>
      <trkpt lat="45.65635" lon="6.52671">
        <ele>1881</ele>
        <time>2022-07-28T07:42:13Z</time>
      </trkpt>
      <trkpt lat="45.65635" lon="6.52671">
        <ele>1881</ele>
        <time>2022-07-28T07:42:14Z</time>
      </trkpt>
      <trkpt lat="45.65635" lon="6.5267">
        <ele>1881</ele>
        <time>2022-07-28T07:42:15Z</time>
      </trkpt>
      <trkpt lat="45.65635" lon="6.52669">
        <ele>1881</ele>
        <time>2022-07-28T07:42:16Z</time>
      </trkpt>
      <trkpt lat="45.65635" lon="6.52668">
        <ele>1881</ele>
        <time>2022-07-28T07:42:17Z</time>
      </trkpt>
      <trkpt lat="45.65635" lon="6.52667">
        <ele>1881</ele>
        <time>2022-07-28T07:42:18Z</time>
      </trkpt>
      <trkpt lat="45.65634" lon="6.52666">
        <ele>1881</ele>
        <time>2022-07-28T07:42:19Z</time>
      </trkpt>
      <trkpt lat="45.65634" lon="6.52665">
        <ele>1881</ele>
        <time>2022-07-28T07:42:20Z</time>
      </trkpt>
      <trkpt lat="45.65634" lon="6.52665">
        <ele>1882</ele>
        <time>2022-07-28T07:42:21Z</time>
      </trkpt>
      <trkpt lat="45.65634" lon="6.52664">
        <ele>1882</ele>
        <time>2022-07-28T07:42:22Z</time>
      </trkpt>
      <trkpt lat="45.65634" lon="6.52664">
        <ele>1882</ele>
        <time>2022-07-28T07:42:23Z</time>
      </trkpt>
      <trkpt lat="45.65634" lon="6.52663">
        <ele>1882</ele>
        <time>2022-07-28T07:42:24Z</time>
      </trkpt>
      <trkpt lat="45.65634" lon="6.52663">
        <ele>1882</ele>
        <time>2022-07-28T07:42:25Z</time>
      </trkpt>
      <trkpt lat="45.65633" lon="6.52662">
        <ele>1883</ele>
        <time>2022-07-28T07:42:26Z</time>
      </trkpt>
      <trkpt lat="45.65633" lon="6.52661">
        <ele>1883</ele>
        <time>2022-07-28T07:42:27Z</time>
      </trkpt>
      <trkpt lat="45.65633" lon="6.5266">
        <ele>1883</ele>
        <time>2022-07-28T07:42:28Z</time>
      </trkpt>
      <trkpt lat="45.65633" lon="6.52659">
        <ele>1883</ele>
        <time>2022-07-28T07:42:29Z</time>
      </trkpt>
      <trkpt lat="45.65633" lon="6.52658">
        <ele>1883</ele>
        <time>2022-07-28T07:42:30Z</time>
      </trkpt>
      <trkpt lat="45.65632" lon="6.52657">
        <ele>1883</ele>
        <time>2022-07-28T07:42:31Z</time>
      </trkpt>
      <trkpt lat="45.65632" lon="6.52656">
        <ele>1883</ele>
        <time>2022-07-28T07:42:32Z</time>
      </trkpt>
      <trkpt lat="45.65632" lon="6.52655">
        <ele>1883</ele>
        <time>2022-07-28T07:42:33Z</time>
      </trkpt>
      <trkpt lat="45.65632" lon="6.52654">
        <ele>1883</ele>
        <time>2022-07-28T07:42:34Z</time>
      </trkpt>
      <trkpt lat="45.65631" lon="6.52653">
        <ele>1883</ele>
        <time>2022-07-28T07:42:35Z</time>
      </trkpt>
      <trkpt lat="45.65631" lon="6.52652">
        <ele>1883</ele>
        <time>2022-07-28T07:42:36Z</time>
      </trkpt>
      <trkpt lat="45.65631" lon="6.52651">
        <ele>1883</ele>
        <time>2022-07-28T07:42:37Z</time>
      </trkpt>
      <trkpt lat="45.6563" lon="6.5265">
        <ele>1883</ele>
        <time>2022-07-28T07:42:38Z</time>
      </trkpt>
      <trkpt lat="45.6563" lon="6.5265">
        <ele>1883</ele>
        <time>2022-07-28T07:42:39Z</time>
      </trkpt>
      <trkpt lat="45.6563" lon="6.52649">
        <ele>1883</ele>
        <time>2022-07-28T07:42:40Z</time>
      </trkpt>
      <trkpt lat="45.65629" lon="6.52648">
        <ele>1883</ele>
        <time>2022-07-28T07:42:41Z</time>
      </trkpt>
      <trkpt lat="45.65629" lon="6.52647">
        <ele>1883</ele>
        <time>2022-07-28T07:42:42Z</time>
      </trkpt>
      <trkpt lat="45.65629" lon="6.52646">
        <ele>1883</ele>
        <time>2022-07-28T07:42:43Z</time>
      </trkpt>
      <trkpt lat="45.65628" lon="6.52645">
        <ele>1883</ele>
        <time>2022-07-28T07:42:44Z</time>
      </trkpt>
      <trkpt lat="45.65628" lon="6.52644">
        <ele>1883</ele>
        <time>2022-07-28T07:42:45Z</time>
      </trkpt>
      <trkpt lat="45.65628" lon="6.52643">
        <ele>1884</ele>
        <time>2022-07-28T07:42:46Z</time>
      </trkpt>
      <trkpt lat="45.65627" lon="6.52642">
        <ele>1884</ele>
        <time>2022-07-28T07:42:47Z</time>
      </trkpt>
      <trkpt lat="45.65627" lon="6.52641">
        <ele>1884</ele>
        <time>2022-07-28T07:42:48Z</time>
      </trkpt>
      <trkpt lat="45.65627" lon="6.52641">
        <ele>1884</ele>
        <time>2022-07-28T07:42:49Z</time>
      </trkpt>
      <trkpt lat="45.65627" lon="6.5264">
        <ele>1884</ele>
        <time>2022-07-28T07:42:50Z</time>
      </trkpt>
      <trkpt lat="45.65626" lon="6.52639">
        <ele>1885</ele>
        <time>2022-07-28T07:42:51Z</time>
      </trkpt>
      <trkpt lat="45.65626" lon="6.52638">
        <ele>1885</ele>
        <time>2022-07-28T07:42:52Z</time>
      </trkpt>
      <trkpt lat="45.65626" lon="6.52637">
        <ele>1885</ele>
        <time>2022-07-28T07:42:53Z</time>
      </trkpt>
      <trkpt lat="45.65625" lon="6.52636">
        <ele>1885</ele>
        <time>2022-07-28T07:42:54Z</time>
      </trkpt>
      <trkpt lat="45.65625" lon="6.52635">
        <ele>1885</ele>
        <time>2022-07-28T07:42:55Z</time>
      </trkpt>
      <trkpt lat="45.65625" lon="6.52635">
        <ele>1885</ele>
        <time>2022-07-28T07:42:56Z</time>
      </trkpt>
      <trkpt lat="45.65625" lon="6.52634">
        <ele>1885</ele>
        <time>2022-07-28T07:42:57Z</time>
      </trkpt>
      <trkpt lat="45.65624" lon="6.52633">
        <ele>1885</ele>
        <time>2022-07-28T07:42:58Z</time>
      </trkpt>
      <trkpt lat="45.65624" lon="6.52632">
        <ele>1885</ele>
        <time>2022-07-28T07:42:59Z</time>
      </trkpt>
      <trkpt lat="45.65623" lon="6.52631">
        <ele>1885</ele>
        <time>2022-07-28T07:43:00Z</time>
      </trkpt>
      <trkpt lat="45.65623" lon="6.52631">
        <ele>1885</ele>
        <time>2022-07-28T07:43:01Z</time>
      </trkpt>
      <trkpt lat="45.65623" lon="6.5263">
        <ele>1885</ele>
        <time>2022-07-28T07:43:02Z</time>
      </trkpt>
      <trkpt lat="45.65622" lon="6.52629">
        <ele>1885</ele>
        <time>2022-07-28T07:43:03Z</time>
      </trkpt>
      <trkpt lat="45.65622" lon="6.52628">
        <ele>1885</ele>
        <time>2022-07-28T07:43:04Z</time>
      </trkpt>
      <trkpt lat="45.65622" lon="6.52627">
        <ele>1885</ele>
        <time>2022-07-28T07:43:05Z</time>
      </trkpt>
      <trkpt lat="45.65621" lon="6.52626">
        <ele>1885</ele>
        <time>2022-07-28T07:43:06Z</time>
      </trkpt>
      <trkpt lat="45.65621" lon="6.52625">
        <ele>1889</ele>
        <time>2022-07-28T07:43:24Z</time>
      </trkpt>
      <trkpt lat="45.65621" lon="6.52624">
        <ele>1889</ele>
        <time>2022-07-28T07:43:25Z</time>
      </trkpt>
      <trkpt lat="45.65621" lon="6.52623">
        <ele>1889</ele>
        <time>2022-07-28T07:43:26Z</time>
      </trkpt>
      <trkpt lat="45.65621" lon="6.52623">
        <ele>1889</ele>
        <time>2022-07-28T07:43:27Z</time>
      </trkpt>
      <trkpt lat="45.6562" lon="6.52622">
        <ele>1889</ele>
        <time>2022-07-28T07:43:28Z</time>
      </trkpt>
      <trkpt lat="45.6562" lon="6.52621">
        <ele>1889</ele>
        <time>2022-07-28T07:43:29Z</time>
      </trkpt>
      <trkpt lat="45.65619" lon="6.5262">
        <ele>1889</ele>
        <time>2022-07-28T07:43:30Z</time>
      </trkpt>
      <trkpt lat="45.65619" lon="6.52619">
        <ele>1889</ele>
        <time>2022-07-28T07:43:31Z</time>
      </trkpt>
      <trkpt lat="45.65618" lon="6.52618">
        <ele>1889</ele>
        <time>2022-07-28T07:43:32Z</time>
      </trkpt>
      <trkpt lat="45.65618" lon="6.52617">
        <ele>1889</ele>
        <time>2022-07-28T07:43:33Z</time>
      </trkpt>
      <trkpt lat="45.65618" lon="6.52616">
        <ele>1889</ele>
        <time>2022-07-28T07:43:34Z</time>
      </trkpt>
      <trkpt lat="45.65617" lon="6.52616">
        <ele>1889</ele>
        <time>2022-07-28T07:43:35Z</time>
      </trkpt>
      <trkpt lat="45.65617" lon="6.52615">
        <ele>1890</ele>
        <time>2022-07-28T07:43:36Z</time>
      </trkpt>
      <trkpt lat="45.65616" lon="6.52614">
        <ele>1890</ele>
        <time>2022-07-28T07:43:37Z</time>
      </trkpt>
      <trkpt lat="45.65616" lon="6.52613">
        <ele>1890</ele>
        <time>2022-07-28T07:43:38Z</time>
      </trkpt>
      <trkpt lat="45.65615" lon="6.52613">
        <ele>1891</ele>
        <time>2022-07-28T07:43:39Z</time>
      </trkpt>
      <trkpt lat="45.65615" lon="6.52613">
        <ele>1891</ele>
        <time>2022-07-28T07:43:40Z</time>
      </trkpt>
      <trkpt lat="45.65615" lon="6.52613">
        <ele>1892</ele>
        <time>2022-07-28T07:43:41Z</time>
      </trkpt>
      <trkpt lat="45.65615" lon="6.52612">
        <ele>1892</ele>
        <time>2022-07-28T07:43:42Z</time>
      </trkpt>
      <trkpt lat="45.65615" lon="6.52612">
        <ele>1892</ele>
        <time>2022-07-28T07:43:43Z</time>
      </trkpt>
      <trkpt lat="45.65615" lon="6.52611">
        <ele>1892</ele>
        <time>2022-07-28T07:43:44Z</time>
      </trkpt>
      <trkpt lat="45.65614" lon="6.5261">
        <ele>1892</ele>
        <time>2022-07-28T07:43:45Z</time>
      </trkpt>
      <trkpt lat="45.65614" lon="6.52609">
        <ele>1893</ele>
        <time>2022-07-28T07:43:46Z</time>
      </trkpt>
      <trkpt lat="45.65614" lon="6.52608">
        <ele>1893</ele>
        <time>2022-07-28T07:43:47Z</time>
      </trkpt>
      <trkpt lat="45.65613" lon="6.52607">
        <ele>1893</ele>
        <time>2022-07-28T07:43:48Z</time>
      </trkpt>
      <trkpt lat="45.65613" lon="6.52606">
        <ele>1894</ele>
        <time>2022-07-28T07:43:49Z</time>
      </trkpt>
      <trkpt lat="45.65613" lon="6.52606">
        <ele>1894</ele>
        <time>2022-07-28T07:43:50Z</time>
      </trkpt>
      <trkpt lat="45.65612" lon="6.52605">
        <ele>1895</ele>
        <time>2022-07-28T07:43:51Z</time>
      </trkpt>
      <trkpt lat="45.65612" lon="6.52604">
        <ele>1895</ele>
        <time>2022-07-28T07:43:52Z</time>
      </trkpt>
      <trkpt lat="45.65612" lon="6.52604">
        <ele>1895</ele>
        <time>2022-07-28T07:43:53Z</time>
      </trkpt>
      <trkpt lat="45.65611" lon="6.52603">
        <ele>1895</ele>
        <time>2022-07-28T07:43:54Z</time>
      </trkpt>
      <trkpt lat="45.65611" lon="6.52602">
        <ele>1895</ele>
        <time>2022-07-28T07:43:55Z</time>
      </trkpt>
      <trkpt lat="45.65611" lon="6.52601">
        <ele>1895</ele>
        <time>2022-07-28T07:43:56Z</time>
      </trkpt>
      <trkpt lat="45.6561" lon="6.52601">
        <ele>1895</ele>
        <time>2022-07-28T07:43:57Z</time>
      </trkpt>
      <trkpt lat="45.6561" lon="6.52599">
        <ele>1896</ele>
        <time>2022-07-28T07:44:08Z</time>
      </trkpt>
      <trkpt lat="45.6561" lon="6.52598">
        <ele>1896</ele>
        <time>2022-07-28T07:44:09Z</time>
      </trkpt>
      <trkpt lat="45.6561" lon="6.52598">
        <ele>1896</ele>
        <time>2022-07-28T07:44:10Z</time>
      </trkpt>
      <trkpt lat="45.6561" lon="6.52597">
        <ele>1896</ele>
        <time>2022-07-28T07:44:11Z</time>
      </trkpt>
      <trkpt lat="45.6561" lon="6.52596">
        <ele>1896</ele>
        <time>2022-07-28T07:44:12Z</time>
      </trkpt>
      <trkpt lat="45.6561" lon="6.52595">
        <ele>1896</ele>
        <time>2022-07-28T07:44:13Z</time>
      </trkpt>
      <trkpt lat="45.6561" lon="6.52594">
        <ele>1896</ele>
        <time>2022-07-28T07:44:14Z</time>
      </trkpt>
      <trkpt lat="45.6561" lon="6.52593">
        <ele>1896</ele>
        <time>2022-07-28T07:44:15Z</time>
      </trkpt>
      <trkpt lat="45.6561" lon="6.52592">
        <ele>1897</ele>
        <time>2022-07-28T07:44:16Z</time>
      </trkpt>
      <trkpt lat="45.6561" lon="6.52591">
        <ele>1897</ele>
        <time>2022-07-28T07:44:17Z</time>
      </trkpt>
      <trkpt lat="45.6561" lon="6.5259">
        <ele>1897</ele>
        <time>2022-07-28T07:44:18Z</time>
      </trkpt>
      <trkpt lat="45.6561" lon="6.52589">
        <ele>1897</ele>
        <time>2022-07-28T07:44:19Z</time>
      </trkpt>
      <trkpt lat="45.6561" lon="6.52588">
        <ele>1897</ele>
        <time>2022-07-28T07:44:20Z</time>
      </trkpt>
      <trkpt lat="45.65611" lon="6.52587">
        <ele>1897</ele>
        <time>2022-07-28T07:44:21Z</time>
      </trkpt>
      <trkpt lat="45.65611" lon="6.52586">
        <ele>1897</ele>
        <time>2022-07-28T07:44:22Z</time>
      </trkpt>
      <trkpt lat="45.65611" lon="6.52585">
        <ele>1897</ele>
        <time>2022-07-28T07:44:23Z</time>
      </trkpt>
      <trkpt lat="45.65611" lon="6.52584">
        <ele>1898</ele>
        <time>2022-07-28T07:44:24Z</time>
      </trkpt>
      <trkpt lat="45.65611" lon="6.52583">
        <ele>1898</ele>
        <time>2022-07-28T07:44:25Z</time>
      </trkpt>
      <trkpt lat="45.65612" lon="6.52582">
        <ele>1899</ele>
        <time>2022-07-28T07:44:26Z</time>
      </trkpt>
      <trkpt lat="45.65612" lon="6.52581">
        <ele>1900</ele>
        <time>2022-07-28T07:45:00Z</time>
      </trkpt>
      <trkpt lat="45.65612" lon="6.5258">
        <ele>1900</ele>
        <time>2022-07-28T07:45:01Z</time>
      </trkpt>
      <trkpt lat="45.65612" lon="6.5258">
        <ele>1900</ele>
        <time>2022-07-28T07:45:02Z</time>
      </trkpt>
      <trkpt lat="45.65613" lon="6.52579">
        <ele>1900</ele>
        <time>2022-07-28T07:45:03Z</time>
      </trkpt>
      <trkpt lat="45.65613" lon="6.52578">
        <ele>1900</ele>
        <time>2022-07-28T07:45:04Z</time>
      </trkpt>
      <trkpt lat="45.65613" lon="6.52577">
        <ele>1900</ele>
        <time>2022-07-28T07:45:05Z</time>
      </trkpt>
      <trkpt lat="45.65613" lon="6.52576">
        <ele>1900</ele>
        <time>2022-07-28T07:45:06Z</time>
      </trkpt>
      <trkpt lat="45.65613" lon="6.52575">
        <ele>1900</ele>
        <time>2022-07-28T07:45:07Z</time>
      </trkpt>
      <trkpt lat="45.65614" lon="6.52574">
        <ele>1900</ele>
        <time>2022-07-28T07:45:08Z</time>
      </trkpt>
      <trkpt lat="45.65614" lon="6.52572">
        <ele>1900</ele>
        <time>2022-07-28T07:45:09Z</time>
      </trkpt>
      <trkpt lat="45.65614" lon="6.52571">
        <ele>1900</ele>
        <time>2022-07-28T07:45:10Z</time>
      </trkpt>
      <trkpt lat="45.65614" lon="6.5257">
        <ele>1901</ele>
        <time>2022-07-28T07:45:11Z</time>
      </trkpt>
      <trkpt lat="45.65615" lon="6.52569">
        <ele>1901</ele>
        <time>2022-07-28T07:45:12Z</time>
      </trkpt>
      <trkpt lat="45.65615" lon="6.52568">
        <ele>1901</ele>
        <time>2022-07-28T07:45:13Z</time>
      </trkpt>
      <trkpt lat="45.65615" lon="6.52567">
        <ele>1901</ele>
        <time>2022-07-28T07:45:14Z</time>
      </trkpt>
      <trkpt lat="45.65615" lon="6.52566">
        <ele>1901</ele>
        <time>2022-07-28T07:45:15Z</time>
      </trkpt>
      <trkpt lat="45.65615" lon="6.52565">
        <ele>1901</ele>
        <time>2022-07-28T07:45:16Z</time>
      </trkpt>
      <trkpt lat="45.65615" lon="6.52564">
        <ele>1901</ele>
        <time>2022-07-28T07:45:17Z</time>
      </trkpt>
      <trkpt lat="45.65615" lon="6.52562">
        <ele>1901</ele>
        <time>2022-07-28T07:45:18Z</time>
      </trkpt>
      <trkpt lat="45.65615" lon="6.52561">
        <ele>1901</ele>
        <time>2022-07-28T07:45:19Z</time>
      </trkpt>
      <trkpt lat="45.65615" lon="6.5256">
        <ele>1901</ele>
        <time>2022-07-28T07:45:20Z</time>
      </trkpt>
      <trkpt lat="45.65615" lon="6.52559">
        <ele>1901</ele>
        <time>2022-07-28T07:45:21Z</time>
      </trkpt>
      <trkpt lat="45.65615" lon="6.52558">
        <ele>1900</ele>
        <time>2022-07-28T07:45:22Z</time>
      </trkpt>
      <trkpt lat="45.65615" lon="6.52557">
        <ele>1900</ele>
        <time>2022-07-28T07:45:23Z</time>
      </trkpt>
      <trkpt lat="45.65615" lon="6.52556">
        <ele>1900</ele>
        <time>2022-07-28T07:45:24Z</time>
      </trkpt>
      <trkpt lat="45.65615" lon="6.52555">
        <ele>1900</ele>
        <time>2022-07-28T07:45:25Z</time>
      </trkpt>
      <trkpt lat="45.65616" lon="6.52555">
        <ele>1900</ele>
        <time>2022-07-28T07:45:26Z</time>
      </trkpt>
      <trkpt lat="45.65616" lon="6.52554">
        <ele>1900</ele>
        <time>2022-07-28T07:45:27Z</time>
      </trkpt>
      <trkpt lat="45.65616" lon="6.52553">
        <ele>1900</ele>
        <time>2022-07-28T07:45:28Z</time>
      </trkpt>
      <trkpt lat="45.65616" lon="6.52552">
        <ele>1900</ele>
        <time>2022-07-28T07:45:29Z</time>
      </trkpt>
      <trkpt lat="45.65615" lon="6.52551">
        <ele>1900</ele>
        <time>2022-07-28T07:45:30Z</time>
      </trkpt>
      <trkpt lat="45.65615" lon="6.5255">
        <ele>1900</ele>
        <time>2022-07-28T07:45:31Z</time>
      </trkpt>
      <trkpt lat="45.65615" lon="6.52549">
        <ele>1900</ele>
        <time>2022-07-28T07:45:32Z</time>
      </trkpt>
      <trkpt lat="45.65615" lon="6.52548">
        <ele>1900</ele>
        <time>2022-07-28T07:45:33Z</time>
      </trkpt>
      <trkpt lat="45.65615" lon="6.52547">
        <ele>1900</ele>
        <time>2022-07-28T07:45:34Z</time>
      </trkpt>
      <trkpt lat="45.65615" lon="6.52546">
        <ele>1900</ele>
        <time>2022-07-28T07:45:35Z</time>
      </trkpt>
      <trkpt lat="45.65615" lon="6.52545">
        <ele>1901</ele>
        <time>2022-07-28T07:45:36Z</time>
      </trkpt>
      <trkpt lat="45.65614" lon="6.52544">
        <ele>1901</ele>
        <time>2022-07-28T07:45:37Z</time>
      </trkpt>
      <trkpt lat="45.65614" lon="6.52543">
        <ele>1901</ele>
        <time>2022-07-28T07:45:38Z</time>
      </trkpt>
      <trkpt lat="45.65614" lon="6.52543">
        <ele>1902</ele>
        <time>2022-07-28T07:45:39Z</time>
      </trkpt>
      <trkpt lat="45.65614" lon="6.52542">
        <ele>1902</ele>
        <time>2022-07-28T07:45:40Z</time>
      </trkpt>
      <trkpt lat="45.65613" lon="6.52541">
        <ele>1903</ele>
        <time>2022-07-28T07:45:41Z</time>
      </trkpt>
      <trkpt lat="45.65613" lon="6.5254">
        <ele>1903</ele>
        <time>2022-07-28T07:45:42Z</time>
      </trkpt>
      <trkpt lat="45.65613" lon="6.52539">
        <ele>1903</ele>
        <time>2022-07-28T07:45:43Z</time>
      </trkpt>
      <trkpt lat="45.65612" lon="6.52538">
        <ele>1903</ele>
        <time>2022-07-28T07:45:44Z</time>
      </trkpt>
      <trkpt lat="45.65612" lon="6.52537">
        <ele>1903</ele>
        <time>2022-07-28T07:45:45Z</time>
      </trkpt>
      <trkpt lat="45.65612" lon="6.52536">
        <ele>1904</ele>
        <time>2022-07-28T07:45:46Z</time>
      </trkpt>
      <trkpt lat="45.65611" lon="6.52535">
        <ele>1904</ele>
        <time>2022-07-28T07:45:47Z</time>
      </trkpt>
      <trkpt lat="45.65611" lon="6.52534">
        <ele>1904</ele>
        <time>2022-07-28T07:45:48Z</time>
      </trkpt>
      <trkpt lat="45.65611" lon="6.52534">
        <ele>1904</ele>
        <time>2022-07-28T07:45:49Z</time>
      </trkpt>
      <trkpt lat="45.6561" lon="6.52533">
        <ele>1904</ele>
        <time>2022-07-28T07:45:50Z</time>
      </trkpt>
      <trkpt lat="45.6561" lon="6.52532">
        <ele>1905</ele>
        <time>2022-07-28T07:45:51Z</time>
      </trkpt>
      <trkpt lat="45.6561" lon="6.52531">
        <ele>1905</ele>
        <time>2022-07-28T07:45:52Z</time>
      </trkpt>
      <trkpt lat="45.65609" lon="6.5253">
        <ele>1905</ele>
        <time>2022-07-28T07:45:53Z</time>
      </trkpt>
      <trkpt lat="45.65609" lon="6.5253">
        <ele>1905</ele>
        <time>2022-07-28T07:45:54Z</time>
      </trkpt>
      <trkpt lat="45.65609" lon="6.52529">
        <ele>1905</ele>
        <time>2022-07-28T07:45:55Z</time>
      </trkpt>
      <trkpt lat="45.65609" lon="6.52528">
        <ele>1905</ele>
        <time>2022-07-28T07:45:56Z</time>
      </trkpt>
      <trkpt lat="45.65608" lon="6.52527">
        <ele>1905</ele>
        <time>2022-07-28T07:45:57Z</time>
      </trkpt>
      <trkpt lat="45.65608" lon="6.52526">
        <ele>1905</ele>
        <time>2022-07-28T07:45:58Z</time>
      </trkpt>
      <trkpt lat="45.65608" lon="6.52525">
        <ele>1905</ele>
        <time>2022-07-28T07:45:59Z</time>
      </trkpt>
      <trkpt lat="45.65608" lon="6.52524">
        <ele>1905</ele>
        <time>2022-07-28T07:46:00Z</time>
      </trkpt>
      <trkpt lat="45.65608" lon="6.52523">
        <ele>1906</ele>
        <time>2022-07-28T07:46:01Z</time>
      </trkpt>
      <trkpt lat="45.65607" lon="6.52522">
        <ele>1906</ele>
        <time>2022-07-28T07:46:02Z</time>
      </trkpt>
      <trkpt lat="45.65607" lon="6.5252">
        <ele>1906</ele>
        <time>2022-07-28T07:46:03Z</time>
      </trkpt>
      <trkpt lat="45.65607" lon="6.52519">
        <ele>1906</ele>
        <time>2022-07-28T07:46:04Z</time>
      </trkpt>
      <trkpt lat="45.65606" lon="6.52518">
        <ele>1906</ele>
        <time>2022-07-28T07:46:05Z</time>
      </trkpt>
      <trkpt lat="45.65606" lon="6.52516">
        <ele>1906</ele>
        <time>2022-07-28T07:46:06Z</time>
      </trkpt>
      <trkpt lat="45.65606" lon="6.52515">
        <ele>1906</ele>
        <time>2022-07-28T07:46:07Z</time>
      </trkpt>
      <trkpt lat="45.65606" lon="6.52514">
        <ele>1906</ele>
        <time>2022-07-28T07:46:08Z</time>
      </trkpt>
      <trkpt lat="45.65606" lon="6.52512">
        <ele>1906</ele>
        <time>2022-07-28T07:46:09Z</time>
      </trkpt>
      <trkpt lat="45.65606" lon="6.52511">
        <ele>1906</ele>
        <time>2022-07-28T07:46:10Z</time>
      </trkpt>
      <trkpt lat="45.65606" lon="6.52509">
        <ele>1906</ele>
        <time>2022-07-28T07:46:11Z</time>
      </trkpt>
      <trkpt lat="45.65606" lon="6.52508">
        <ele>1906</ele>
        <time>2022-07-28T07:46:12Z</time>
      </trkpt>
      <trkpt lat="45.65606" lon="6.52507">
        <ele>1906</ele>
        <time>2022-07-28T07:46:13Z</time>
      </trkpt>
      <trkpt lat="45.65605" lon="6.52505">
        <ele>1906</ele>
        <time>2022-07-28T07:46:14Z</time>
      </trkpt>
      <trkpt lat="45.65605" lon="6.52504">
        <ele>1906</ele>
        <time>2022-07-28T07:46:15Z</time>
      </trkpt>
      <trkpt lat="45.65605" lon="6.52502">
        <ele>1906</ele>
        <time>2022-07-28T07:46:16Z</time>
      </trkpt>
      <trkpt lat="45.65605" lon="6.52501">
        <ele>1906</ele>
        <time>2022-07-28T07:46:17Z</time>
      </trkpt>
      <trkpt lat="45.65605" lon="6.52499">
        <ele>1906</ele>
        <time>2022-07-28T07:46:18Z</time>
      </trkpt>
      <trkpt lat="45.65604" lon="6.52498">
        <ele>1906</ele>
        <time>2022-07-28T07:46:19Z</time>
      </trkpt>
      <trkpt lat="45.65604" lon="6.52497">
        <ele>1906</ele>
        <time>2022-07-28T07:46:20Z</time>
      </trkpt>
      <trkpt lat="45.65604" lon="6.52496">
        <ele>1906</ele>
        <time>2022-07-28T07:46:21Z</time>
      </trkpt>
      <trkpt lat="45.65604" lon="6.52494">
        <ele>1906</ele>
        <time>2022-07-28T07:46:22Z</time>
      </trkpt>
      <trkpt lat="45.65604" lon="6.52493">
        <ele>1906</ele>
        <time>2022-07-28T07:46:23Z</time>
      </trkpt>
      <trkpt lat="45.65604" lon="6.52492">
        <ele>1906</ele>
        <time>2022-07-28T07:46:24Z</time>
      </trkpt>
      <trkpt lat="45.65604" lon="6.52491">
        <ele>1906</ele>
        <time>2022-07-28T07:46:25Z</time>
      </trkpt>
      <trkpt lat="45.65603" lon="6.5249">
        <ele>1906</ele>
        <time>2022-07-28T07:46:26Z</time>
      </trkpt>
      <trkpt lat="45.65603" lon="6.52489">
        <ele>1907</ele>
        <time>2022-07-28T07:46:27Z</time>
      </trkpt>
      <trkpt lat="45.65603" lon="6.52488">
        <ele>1908</ele>
        <time>2022-07-28T07:46:28Z</time>
      </trkpt>
      <trkpt lat="45.65603" lon="6.52487">
        <ele>1910</ele>
        <time>2022-07-28T07:46:29Z</time>
      </trkpt>
      <trkpt lat="45.65603" lon="6.52486">
        <ele>1911</ele>
        <time>2022-07-28T07:46:30Z</time>
      </trkpt>
      <trkpt lat="45.65603" lon="6.52485">
        <ele>1913</ele>
        <time>2022-07-28T07:46:31Z</time>
      </trkpt>
      <trkpt lat="45.65602" lon="6.52484">
        <ele>1913</ele>
        <time>2022-07-28T07:46:32Z</time>
      </trkpt>
      <trkpt lat="45.65602" lon="6.52483">
        <ele>1913</ele>
        <time>2022-07-28T07:46:33Z</time>
      </trkpt>
      <trkpt lat="45.65602" lon="6.52482">
        <ele>1913</ele>
        <time>2022-07-28T07:46:34Z</time>
      </trkpt>
      <trkpt lat="45.65602" lon="6.52481">
        <ele>1913</ele>
        <time>2022-07-28T07:46:35Z</time>
      </trkpt>
      <trkpt lat="45.65601" lon="6.5248">
        <ele>1913</ele>
        <time>2022-07-28T07:46:36Z</time>
      </trkpt>
      <trkpt lat="45.65601" lon="6.52479">
        <ele>1913</ele>
        <time>2022-07-28T07:46:37Z</time>
      </trkpt>
      <trkpt lat="45.65601" lon="6.52477">
        <ele>1913</ele>
        <time>2022-07-28T07:46:38Z</time>
      </trkpt>
      <trkpt lat="45.656" lon="6.52476">
        <ele>1913</ele>
        <time>2022-07-28T07:46:39Z</time>
      </trkpt>
      <trkpt lat="45.656" lon="6.52475">
        <ele>1913</ele>
        <time>2022-07-28T07:46:40Z</time>
      </trkpt>
      <trkpt lat="45.656" lon="6.52474">
        <ele>1913</ele>
        <time>2022-07-28T07:46:41Z</time>
      </trkpt>
      <trkpt lat="45.65599" lon="6.52472">
        <ele>1913</ele>
        <time>2022-07-28T07:46:42Z</time>
      </trkpt>
      <trkpt lat="45.65599" lon="6.52471">
        <ele>1913</ele>
        <time>2022-07-28T07:46:43Z</time>
      </trkpt>
      <trkpt lat="45.65599" lon="6.5247">
        <ele>1913</ele>
        <time>2022-07-28T07:46:44Z</time>
      </trkpt>
      <trkpt lat="45.65599" lon="6.52469">
        <ele>1913</ele>
        <time>2022-07-28T07:46:45Z</time>
      </trkpt>
      <trkpt lat="45.65599" lon="6.52467">
        <ele>1913</ele>
        <time>2022-07-28T07:46:46Z</time>
      </trkpt>
      <trkpt lat="45.65599" lon="6.52466">
        <ele>1912</ele>
        <time>2022-07-28T07:46:47Z</time>
      </trkpt>
      <trkpt lat="45.65599" lon="6.52464">
        <ele>1912</ele>
        <time>2022-07-28T07:46:48Z</time>
      </trkpt>
      <trkpt lat="45.65599" lon="6.52463">
        <ele>1912</ele>
        <time>2022-07-28T07:46:49Z</time>
      </trkpt>
      <trkpt lat="45.65599" lon="6.52462">
        <ele>1912</ele>
        <time>2022-07-28T07:46:50Z</time>
      </trkpt>
      <trkpt lat="45.65599" lon="6.5246">
        <ele>1912</ele>
        <time>2022-07-28T07:46:51Z</time>
      </trkpt>
      <trkpt lat="45.65599" lon="6.52459">
        <ele>1911</ele>
        <time>2022-07-28T07:46:52Z</time>
      </trkpt>
      <trkpt lat="45.65598" lon="6.52457">
        <ele>1911</ele>
        <time>2022-07-28T07:46:53Z</time>
      </trkpt>
      <trkpt lat="45.65598" lon="6.52456">
        <ele>1910</ele>
        <time>2022-07-28T07:46:54Z</time>
      </trkpt>
      <trkpt lat="45.65598" lon="6.52454">
        <ele>1910</ele>
        <time>2022-07-28T07:46:55Z</time>
      </trkpt>
      <trkpt lat="45.65598" lon="6.52453">
        <ele>1910</ele>
        <time>2022-07-28T07:46:56Z</time>
      </trkpt>
      <trkpt lat="45.65598" lon="6.52452">
        <ele>1910</ele>
        <time>2022-07-28T07:46:57Z</time>
      </trkpt>
      <trkpt lat="45.65597" lon="6.5245">
        <ele>1910</ele>
        <time>2022-07-28T07:46:58Z</time>
      </trkpt>
      <trkpt lat="45.65597" lon="6.52449">
        <ele>1910</ele>
        <time>2022-07-28T07:46:59Z</time>
      </trkpt>
      <trkpt lat="45.65597" lon="6.52447">
        <ele>1910</ele>
        <time>2022-07-28T07:47:00Z</time>
      </trkpt>
      <trkpt lat="45.65597" lon="6.52446">
        <ele>1910</ele>
        <time>2022-07-28T07:47:01Z</time>
      </trkpt>
      <trkpt lat="45.65597" lon="6.52444">
        <ele>1910</ele>
        <time>2022-07-28T07:47:02Z</time>
      </trkpt>
      <trkpt lat="45.65597" lon="6.52443">
        <ele>1910</ele>
        <time>2022-07-28T07:47:03Z</time>
      </trkpt>
      <trkpt lat="45.65598" lon="6.52441">
        <ele>1910</ele>
        <time>2022-07-28T07:47:04Z</time>
      </trkpt>
      <trkpt lat="45.65598" lon="6.5244">
        <ele>1910</ele>
        <time>2022-07-28T07:47:05Z</time>
      </trkpt>
      <trkpt lat="45.65598" lon="6.52438">
        <ele>1910</ele>
        <time>2022-07-28T07:47:06Z</time>
      </trkpt>
      <trkpt lat="45.65598" lon="6.52437">
        <ele>1909</ele>
        <time>2022-07-28T07:47:07Z</time>
      </trkpt>
      <trkpt lat="45.65599" lon="6.52436">
        <ele>1909</ele>
        <time>2022-07-28T07:47:08Z</time>
      </trkpt>
      <trkpt lat="45.65599" lon="6.52434">
        <ele>1909</ele>
        <time>2022-07-28T07:47:09Z</time>
      </trkpt>
      <trkpt lat="45.65599" lon="6.52433">
        <ele>1909</ele>
        <time>2022-07-28T07:47:10Z</time>
      </trkpt>
      <trkpt lat="45.65599" lon="6.52432">
        <ele>1909</ele>
        <time>2022-07-28T07:47:11Z</time>
      </trkpt>
      <trkpt lat="45.65599" lon="6.52431">
        <ele>1909</ele>
        <time>2022-07-28T07:47:12Z</time>
      </trkpt>
      <trkpt lat="45.65599" lon="6.5243">
        <ele>1909</ele>
        <time>2022-07-28T07:47:13Z</time>
      </trkpt>
      <trkpt lat="45.65599" lon="6.52429">
        <ele>1909</ele>
        <time>2022-07-28T07:47:14Z</time>
      </trkpt>
      <trkpt lat="45.65599" lon="6.52427">
        <ele>1909</ele>
        <time>2022-07-28T07:47:15Z</time>
      </trkpt>
      <trkpt lat="45.65599" lon="6.52426">
        <ele>1909</ele>
        <time>2022-07-28T07:47:16Z</time>
      </trkpt>
      <trkpt lat="45.656" lon="6.52425">
        <ele>1909</ele>
        <time>2022-07-28T07:47:17Z</time>
      </trkpt>
      <trkpt lat="45.656" lon="6.52423">
        <ele>1909</ele>
        <time>2022-07-28T07:47:18Z</time>
      </trkpt>
      <trkpt lat="45.656" lon="6.52422">
        <ele>1909</ele>
        <time>2022-07-28T07:47:19Z</time>
      </trkpt>
      <trkpt lat="45.656" lon="6.52421">
        <ele>1909</ele>
        <time>2022-07-28T07:47:20Z</time>
      </trkpt>
      <trkpt lat="45.656" lon="6.52419">
        <ele>1910</ele>
        <time>2022-07-28T07:47:21Z</time>
      </trkpt>
      <trkpt lat="45.656" lon="6.52418">
        <ele>1909</ele>
        <time>2022-07-28T07:47:22Z</time>
      </trkpt>
      <trkpt lat="45.65601" lon="6.52417">
        <ele>1909</ele>
        <time>2022-07-28T07:47:23Z</time>
      </trkpt>
      <trkpt lat="45.65601" lon="6.52416">
        <ele>1909</ele>
        <time>2022-07-28T07:47:24Z</time>
      </trkpt>
      <trkpt lat="45.65601" lon="6.52415">
        <ele>1909</ele>
        <time>2022-07-28T07:47:25Z</time>
      </trkpt>
      <trkpt lat="45.65602" lon="6.52414">
        <ele>1909</ele>
        <time>2022-07-28T07:47:26Z</time>
      </trkpt>
      <trkpt lat="45.65602" lon="6.52413">
        <ele>1909</ele>
        <time>2022-07-28T07:47:27Z</time>
      </trkpt>
      <trkpt lat="45.65602" lon="6.52412">
        <ele>1909</ele>
        <time>2022-07-28T07:47:28Z</time>
      </trkpt>
      <trkpt lat="45.65602" lon="6.52411">
        <ele>1909</ele>
        <time>2022-07-28T07:47:29Z</time>
      </trkpt>
      <trkpt lat="45.65602" lon="6.5241">
        <ele>1909</ele>
        <time>2022-07-28T07:47:30Z</time>
      </trkpt>
      <trkpt lat="45.65603" lon="6.52408">
        <ele>1910</ele>
        <time>2022-07-28T07:47:31Z</time>
      </trkpt>
      <trkpt lat="45.65603" lon="6.52407">
        <ele>1910</ele>
        <time>2022-07-28T07:47:32Z</time>
      </trkpt>
      <trkpt lat="45.65603" lon="6.52406">
        <ele>1910</ele>
        <time>2022-07-28T07:47:33Z</time>
      </trkpt>
      <trkpt lat="45.65603" lon="6.52404">
        <ele>1910</ele>
        <time>2022-07-28T07:47:34Z</time>
      </trkpt>
      <trkpt lat="45.65603" lon="6.52403">
        <ele>1910</ele>
        <time>2022-07-28T07:47:35Z</time>
      </trkpt>
      <trkpt lat="45.65604" lon="6.52401">
        <ele>1911</ele>
        <time>2022-07-28T07:47:36Z</time>
      </trkpt>
      <trkpt lat="45.65604" lon="6.524">
        <ele>1911</ele>
        <time>2022-07-28T07:47:37Z</time>
      </trkpt>
      <trkpt lat="45.65604" lon="6.52398">
        <ele>1911</ele>
        <time>2022-07-28T07:47:38Z</time>
      </trkpt>
      <trkpt lat="45.65604" lon="6.52396">
        <ele>1911</ele>
        <time>2022-07-28T07:47:39Z</time>
      </trkpt>
      <trkpt lat="45.65604" lon="6.52395">
        <ele>1911</ele>
        <time>2022-07-28T07:47:40Z</time>
      </trkpt>
      <trkpt lat="45.65604" lon="6.52393">
        <ele>1911</ele>
        <time>2022-07-28T07:47:41Z</time>
      </trkpt>
      <trkpt lat="45.65604" lon="6.52392">
        <ele>1911</ele>
        <time>2022-07-28T07:47:42Z</time>
      </trkpt>
      <trkpt lat="45.65604" lon="6.5239">
        <ele>1911</ele>
        <time>2022-07-28T07:47:43Z</time>
      </trkpt>
      <trkpt lat="45.65604" lon="6.52388">
        <ele>1911</ele>
        <time>2022-07-28T07:47:44Z</time>
      </trkpt>
      <trkpt lat="45.65604" lon="6.52387">
        <ele>1911</ele>
        <time>2022-07-28T07:47:45Z</time>
      </trkpt>
      <trkpt lat="45.65604" lon="6.52385">
        <ele>1911</ele>
        <time>2022-07-28T07:47:46Z</time>
      </trkpt>
      <trkpt lat="45.65604" lon="6.52384">
        <ele>1911</ele>
        <time>2022-07-28T07:47:47Z</time>
      </trkpt>
      <trkpt lat="45.65604" lon="6.52382">
        <ele>1911</ele>
        <time>2022-07-28T07:47:48Z</time>
      </trkpt>
      <trkpt lat="45.65604" lon="6.5238">
        <ele>1911</ele>
        <time>2022-07-28T07:47:49Z</time>
      </trkpt>
      <trkpt lat="45.65604" lon="6.52379">
        <ele>1911</ele>
        <time>2022-07-28T07:47:50Z</time>
      </trkpt>
      <trkpt lat="45.65604" lon="6.52377">
        <ele>1911</ele>
        <time>2022-07-28T07:47:51Z</time>
      </trkpt>
      <trkpt lat="45.65604" lon="6.52375">
        <ele>1911</ele>
        <time>2022-07-28T07:47:52Z</time>
      </trkpt>
      <trkpt lat="45.65604" lon="6.52374">
        <ele>1911</ele>
        <time>2022-07-28T07:47:53Z</time>
      </trkpt>
      <trkpt lat="45.65604" lon="6.52372">
        <ele>1911</ele>
        <time>2022-07-28T07:47:54Z</time>
      </trkpt>
      <trkpt lat="45.65604" lon="6.52371">
        <ele>1911</ele>
        <time>2022-07-28T07:47:55Z</time>
      </trkpt>
      <trkpt lat="45.65604" lon="6.52369">
        <ele>1911</ele>
        <time>2022-07-28T07:47:56Z</time>
      </trkpt>
      <trkpt lat="45.65604" lon="6.52368">
        <ele>1911</ele>
        <time>2022-07-28T07:47:57Z</time>
      </trkpt>
      <trkpt lat="45.65605" lon="6.52366">
        <ele>1911</ele>
        <time>2022-07-28T07:47:58Z</time>
      </trkpt>
      <trkpt lat="45.65605" lon="6.52365">
        <ele>1911</ele>
        <time>2022-07-28T07:47:59Z</time>
      </trkpt>
      <trkpt lat="45.65605" lon="6.52363">
        <ele>1911</ele>
        <time>2022-07-28T07:48:00Z</time>
      </trkpt>
      <trkpt lat="45.65605" lon="6.52361">
        <ele>1911</ele>
        <time>2022-07-28T07:48:01Z</time>
      </trkpt>
      <trkpt lat="45.65605" lon="6.5236">
        <ele>1910</ele>
        <time>2022-07-28T07:48:02Z</time>
      </trkpt>
      <trkpt lat="45.65606" lon="6.52358">
        <ele>1910</ele>
        <time>2022-07-28T07:48:03Z</time>
      </trkpt>
      <trkpt lat="45.65606" lon="6.52357">
        <ele>1910</ele>
        <time>2022-07-28T07:48:04Z</time>
      </trkpt>
      <trkpt lat="45.65607" lon="6.52356">
        <ele>1910</ele>
        <time>2022-07-28T07:48:05Z</time>
      </trkpt>
      <trkpt lat="45.65607" lon="6.52354">
        <ele>1910</ele>
        <time>2022-07-28T07:48:06Z</time>
      </trkpt>
      <trkpt lat="45.65608" lon="6.52353">
        <ele>1910</ele>
        <time>2022-07-28T07:48:07Z</time>
      </trkpt>
      <trkpt lat="45.65608" lon="6.52351">
        <ele>1910</ele>
        <time>2022-07-28T07:48:08Z</time>
      </trkpt>
      <trkpt lat="45.65609" lon="6.5235">
        <ele>1910</ele>
        <time>2022-07-28T07:48:09Z</time>
      </trkpt>
      <trkpt lat="45.6561" lon="6.52349">
        <ele>1910</ele>
        <time>2022-07-28T07:48:10Z</time>
      </trkpt>
      <trkpt lat="45.6561" lon="6.52347">
        <ele>1910</ele>
        <time>2022-07-28T07:48:11Z</time>
      </trkpt>
      <trkpt lat="45.65611" lon="6.52346">
        <ele>1910</ele>
        <time>2022-07-28T07:48:12Z</time>
      </trkpt>
      <trkpt lat="45.65611" lon="6.52344">
        <ele>1910</ele>
        <time>2022-07-28T07:48:13Z</time>
      </trkpt>
      <trkpt lat="45.65612" lon="6.52343">
        <ele>1910</ele>
        <time>2022-07-28T07:48:14Z</time>
      </trkpt>
      <trkpt lat="45.65612" lon="6.52341">
        <ele>1910</ele>
        <time>2022-07-28T07:48:15Z</time>
      </trkpt>
      <trkpt lat="45.65612" lon="6.52339">
        <ele>1910</ele>
        <time>2022-07-28T07:48:16Z</time>
      </trkpt>
      <trkpt lat="45.65612" lon="6.52338">
        <ele>1910</ele>
        <time>2022-07-28T07:48:17Z</time>
      </trkpt>
      <trkpt lat="45.65613" lon="6.52336">
        <ele>1910</ele>
        <time>2022-07-28T07:48:18Z</time>
      </trkpt>
      <trkpt lat="45.65613" lon="6.52335">
        <ele>1910</ele>
        <time>2022-07-28T07:48:19Z</time>
      </trkpt>
      <trkpt lat="45.65613" lon="6.52333">
        <ele>1910</ele>
        <time>2022-07-28T07:48:20Z</time>
      </trkpt>
      <trkpt lat="45.65613" lon="6.52332">
        <ele>1911</ele>
        <time>2022-07-28T07:48:21Z</time>
      </trkpt>
      <trkpt lat="45.65613" lon="6.5233">
        <ele>1911</ele>
        <time>2022-07-28T07:48:22Z</time>
      </trkpt>
      <trkpt lat="45.65613" lon="6.52329">
        <ele>1911</ele>
        <time>2022-07-28T07:48:23Z</time>
      </trkpt>
      <trkpt lat="45.65613" lon="6.52327">
        <ele>1911</ele>
        <time>2022-07-28T07:48:24Z</time>
      </trkpt>
      <trkpt lat="45.65613" lon="6.52326">
        <ele>1911</ele>
        <time>2022-07-28T07:48:25Z</time>
      </trkpt>
      <trkpt lat="45.65613" lon="6.52324">
        <ele>1911</ele>
        <time>2022-07-28T07:48:26Z</time>
      </trkpt>
      <trkpt lat="45.65613" lon="6.52323">
        <ele>1910</ele>
        <time>2022-07-28T07:48:27Z</time>
      </trkpt>
      <trkpt lat="45.65613" lon="6.52321">
        <ele>1910</ele>
        <time>2022-07-28T07:48:28Z</time>
      </trkpt>
      <trkpt lat="45.65613" lon="6.5232">
        <ele>1910</ele>
        <time>2022-07-28T07:48:29Z</time>
      </trkpt>
      <trkpt lat="45.65613" lon="6.52318">
        <ele>1910</ele>
        <time>2022-07-28T07:48:30Z</time>
      </trkpt>
      <trkpt lat="45.65613" lon="6.52317">
        <ele>1910</ele>
        <time>2022-07-28T07:48:31Z</time>
      </trkpt>
      <trkpt lat="45.65612" lon="6.52315">
        <ele>1910</ele>
        <time>2022-07-28T07:48:32Z</time>
      </trkpt>
      <trkpt lat="45.65612" lon="6.52314">
        <ele>1910</ele>
        <time>2022-07-28T07:48:33Z</time>
      </trkpt>
      <trkpt lat="45.65612" lon="6.52312">
        <ele>1910</ele>
        <time>2022-07-28T07:48:34Z</time>
      </trkpt>
      <trkpt lat="45.65613" lon="6.52311">
        <ele>1910</ele>
        <time>2022-07-28T07:48:35Z</time>
      </trkpt>
      <trkpt lat="45.65613" lon="6.52309">
        <ele>1910</ele>
        <time>2022-07-28T07:48:36Z</time>
      </trkpt>
      <trkpt lat="45.65613" lon="6.52308">
        <ele>1909</ele>
        <time>2022-07-28T07:48:37Z</time>
      </trkpt>
      <trkpt lat="45.65613" lon="6.52306">
        <ele>1909</ele>
        <time>2022-07-28T07:48:38Z</time>
      </trkpt>
      <trkpt lat="45.65613" lon="6.52305">
        <ele>1909</ele>
        <time>2022-07-28T07:48:39Z</time>
      </trkpt>
      <trkpt lat="45.65614" lon="6.52303">
        <ele>1909</ele>
        <time>2022-07-28T07:48:40Z</time>
      </trkpt>
      <trkpt lat="45.65614" lon="6.52302">
        <ele>1909</ele>
        <time>2022-07-28T07:48:41Z</time>
      </trkpt>
      <trkpt lat="45.65614" lon="6.52301">
        <ele>1908</ele>
        <time>2022-07-28T07:48:42Z</time>
      </trkpt>
      <trkpt lat="45.65614" lon="6.52299">
        <ele>1908</ele>
        <time>2022-07-28T07:48:43Z</time>
      </trkpt>
      <trkpt lat="45.65614" lon="6.52298">
        <ele>1908</ele>
        <time>2022-07-28T07:48:44Z</time>
      </trkpt>
      <trkpt lat="45.65615" lon="6.52297">
        <ele>1908</ele>
        <time>2022-07-28T07:48:45Z</time>
      </trkpt>
      <trkpt lat="45.65615" lon="6.52295">
        <ele>1908</ele>
        <time>2022-07-28T07:48:46Z</time>
      </trkpt>
      <trkpt lat="45.65616" lon="6.52294">
        <ele>1907</ele>
        <time>2022-07-28T07:48:47Z</time>
      </trkpt>
      <trkpt lat="45.65616" lon="6.52293">
        <ele>1907</ele>
        <time>2022-07-28T07:48:48Z</time>
      </trkpt>
      <trkpt lat="45.65616" lon="6.52291">
        <ele>1907</ele>
        <time>2022-07-28T07:48:49Z</time>
      </trkpt>
      <trkpt lat="45.65616" lon="6.5229">
        <ele>1907</ele>
        <time>2022-07-28T07:48:50Z</time>
      </trkpt>
      <trkpt lat="45.65617" lon="6.52288">
        <ele>1907</ele>
        <time>2022-07-28T07:48:51Z</time>
      </trkpt>
      <trkpt lat="45.65617" lon="6.52286">
        <ele>1907</ele>
        <time>2022-07-28T07:48:52Z</time>
      </trkpt>
      <trkpt lat="45.65616" lon="6.52285">
        <ele>1907</ele>
        <time>2022-07-28T07:48:53Z</time>
      </trkpt>
      <trkpt lat="45.65616" lon="6.52283">
        <ele>1907</ele>
        <time>2022-07-28T07:48:54Z</time>
      </trkpt>
      <trkpt lat="45.65616" lon="6.52281">
        <ele>1907</ele>
        <time>2022-07-28T07:48:55Z</time>
      </trkpt>
      <trkpt lat="45.65615" lon="6.5228">
        <ele>1907</ele>
        <time>2022-07-28T07:48:56Z</time>
      </trkpt>
      <trkpt lat="45.65615" lon="6.52278">
        <ele>1906</ele>
        <time>2022-07-28T07:48:57Z</time>
      </trkpt>
      <trkpt lat="45.65614" lon="6.52277">
        <ele>1906</ele>
        <time>2022-07-28T07:48:58Z</time>
      </trkpt>
      <trkpt lat="45.65613" lon="6.52276">
        <ele>1906</ele>
        <time>2022-07-28T07:48:59Z</time>
      </trkpt>
      <trkpt lat="45.65613" lon="6.52274">
        <ele>1906</ele>
        <time>2022-07-28T07:49:00Z</time>
      </trkpt>
      <trkpt lat="45.65612" lon="6.52273">
        <ele>1906</ele>
        <time>2022-07-28T07:49:01Z</time>
      </trkpt>
      <trkpt lat="45.65611" lon="6.52272">
        <ele>1906</ele>
        <time>2022-07-28T07:49:02Z</time>
      </trkpt>
      <trkpt lat="45.65611" lon="6.52271">
        <ele>1906</ele>
        <time>2022-07-28T07:49:03Z</time>
      </trkpt>
      <trkpt lat="45.6561" lon="6.5227">
        <ele>1906</ele>
        <time>2022-07-28T07:49:04Z</time>
      </trkpt>
      <trkpt lat="45.6561" lon="6.52269">
        <ele>1906</ele>
        <time>2022-07-28T07:49:05Z</time>
      </trkpt>
      <trkpt lat="45.65609" lon="6.52268">
        <ele>1906</ele>
        <time>2022-07-28T07:49:06Z</time>
      </trkpt>
      <trkpt lat="45.65608" lon="6.52267">
        <ele>1905</ele>
        <time>2022-07-28T07:49:07Z</time>
      </trkpt>
      <trkpt lat="45.65608" lon="6.52266">
        <ele>1905</ele>
        <time>2022-07-28T07:49:08Z</time>
      </trkpt>
      <trkpt lat="45.65607" lon="6.52265">
        <ele>1905</ele>
        <time>2022-07-28T07:49:09Z</time>
      </trkpt>
      <trkpt lat="45.65606" lon="6.52264">
        <ele>1905</ele>
        <time>2022-07-28T07:49:10Z</time>
      </trkpt>
      <trkpt lat="45.65606" lon="6.52263">
        <ele>1905</ele>
        <time>2022-07-28T07:49:11Z</time>
      </trkpt>
      <trkpt lat="45.65605" lon="6.52262">
        <ele>1905</ele>
        <time>2022-07-28T07:49:12Z</time>
      </trkpt>
      <trkpt lat="45.65603" lon="6.5226">
        <ele>1904</ele>
        <time>2022-07-28T07:49:23Z</time>
      </trkpt>
      <trkpt lat="45.65603" lon="6.5226">
        <ele>1904</ele>
        <time>2022-07-28T07:49:24Z</time>
      </trkpt>
      <trkpt lat="45.65602" lon="6.5226">
        <ele>1904</ele>
        <time>2022-07-28T07:49:25Z</time>
      </trkpt>
      <trkpt lat="45.65601" lon="6.52259">
        <ele>1904</ele>
        <time>2022-07-28T07:49:26Z</time>
      </trkpt>
      <trkpt lat="45.65601" lon="6.52259">
        <ele>1904</ele>
        <time>2022-07-28T07:49:27Z</time>
      </trkpt>
      <trkpt lat="45.65601" lon="6.52258">
        <ele>1903</ele>
        <time>2022-07-28T07:49:39Z</time>
      </trkpt>
      <trkpt lat="45.656" lon="6.52258">
        <ele>1903</ele>
        <time>2022-07-28T07:49:40Z</time>
      </trkpt>
      <trkpt lat="45.656" lon="6.52257">
        <ele>1903</ele>
        <time>2022-07-28T07:49:41Z</time>
      </trkpt>
      <trkpt lat="45.656" lon="6.52256">
        <ele>1903</ele>
        <time>2022-07-28T07:49:42Z</time>
      </trkpt>
      <trkpt lat="45.656" lon="6.52256">
        <ele>1903</ele>
        <time>2022-07-28T07:49:43Z</time>
      </trkpt>
      <trkpt lat="45.65599" lon="6.52255">
        <ele>1903</ele>
        <time>2022-07-28T07:49:44Z</time>
      </trkpt>
      <trkpt lat="45.65599" lon="6.52254">
        <ele>1903</ele>
        <time>2022-07-28T07:49:45Z</time>
      </trkpt>
      <trkpt lat="45.65598" lon="6.52254">
        <ele>1903</ele>
        <time>2022-07-28T07:49:46Z</time>
      </trkpt>
      <trkpt lat="45.65597" lon="6.52253">
        <ele>1903</ele>
        <time>2022-07-28T07:49:47Z</time>
      </trkpt>
      <trkpt lat="45.65597" lon="6.52253">
        <ele>1903</ele>
        <time>2022-07-28T07:49:48Z</time>
      </trkpt>
      <trkpt lat="45.65596" lon="6.52252">
        <ele>1903</ele>
        <time>2022-07-28T07:49:49Z</time>
      </trkpt>
      <trkpt lat="45.65595" lon="6.52252">
        <ele>1903</ele>
        <time>2022-07-28T07:49:50Z</time>
      </trkpt>
      <trkpt lat="45.65594" lon="6.52251">
        <ele>1903</ele>
        <time>2022-07-28T07:49:51Z</time>
      </trkpt>
      <trkpt lat="45.65593" lon="6.52251">
        <ele>1902</ele>
        <time>2022-07-28T07:49:52Z</time>
      </trkpt>
      <trkpt lat="45.65592" lon="6.5225">
        <ele>1902</ele>
        <time>2022-07-28T07:49:53Z</time>
      </trkpt>
      <trkpt lat="45.65592" lon="6.52249">
        <ele>1902</ele>
        <time>2022-07-28T07:49:54Z</time>
      </trkpt>
      <trkpt lat="45.65591" lon="6.52249">
        <ele>1902</ele>
        <time>2022-07-28T07:49:55Z</time>
      </trkpt>
      <trkpt lat="45.6559" lon="6.52248">
        <ele>1902</ele>
        <time>2022-07-28T07:49:56Z</time>
      </trkpt>
      <trkpt lat="45.65589" lon="6.52247">
        <ele>1902</ele>
        <time>2022-07-28T07:49:57Z</time>
      </trkpt>
      <trkpt lat="45.65588" lon="6.52246">
        <ele>1902</ele>
        <time>2022-07-28T07:49:58Z</time>
      </trkpt>
      <trkpt lat="45.65587" lon="6.52245">
        <ele>1902</ele>
        <time>2022-07-28T07:49:59Z</time>
      </trkpt>
      <trkpt lat="45.65586" lon="6.52244">
        <ele>1902</ele>
        <time>2022-07-28T07:50:00Z</time>
      </trkpt>
      <trkpt lat="45.65585" lon="6.52243">
        <ele>1902</ele>
        <time>2022-07-28T07:50:01Z</time>
      </trkpt>
      <trkpt lat="45.65585" lon="6.52242">
        <ele>1902</ele>
        <time>2022-07-28T07:50:02Z</time>
      </trkpt>
      <trkpt lat="45.65584" lon="6.5224">
        <ele>1902</ele>
        <time>2022-07-28T07:50:03Z</time>
      </trkpt>
      <trkpt lat="45.65583" lon="6.52239">
        <ele>1902</ele>
        <time>2022-07-28T07:50:04Z</time>
      </trkpt>
      <trkpt lat="45.65583" lon="6.52238">
        <ele>1902</ele>
        <time>2022-07-28T07:50:05Z</time>
      </trkpt>
      <trkpt lat="45.65582" lon="6.52237">
        <ele>1902</ele>
        <time>2022-07-28T07:50:06Z</time>
      </trkpt>
      <trkpt lat="45.65582" lon="6.52235">
        <ele>1901</ele>
        <time>2022-07-28T07:50:07Z</time>
      </trkpt>
      <trkpt lat="45.65581" lon="6.52234">
        <ele>1901</ele>
        <time>2022-07-28T07:50:08Z</time>
      </trkpt>
      <trkpt lat="45.6558" lon="6.52233">
        <ele>1901</ele>
        <time>2022-07-28T07:50:09Z</time>
      </trkpt>
      <trkpt lat="45.65579" lon="6.52232">
        <ele>1901</ele>
        <time>2022-07-28T07:50:10Z</time>
      </trkpt>
      <trkpt lat="45.65579" lon="6.52231">
        <ele>1901</ele>
        <time>2022-07-28T07:50:11Z</time>
      </trkpt>
      <trkpt lat="45.65578" lon="6.5223">
        <ele>1901</ele>
        <time>2022-07-28T07:50:12Z</time>
      </trkpt>
      <trkpt lat="45.65577" lon="6.52229">
        <ele>1901</ele>
        <time>2022-07-28T07:50:13Z</time>
      </trkpt>
      <trkpt lat="45.65577" lon="6.52228">
        <ele>1901</ele>
        <time>2022-07-28T07:50:14Z</time>
      </trkpt>
      <trkpt lat="45.65576" lon="6.52227">
        <ele>1901</ele>
        <time>2022-07-28T07:50:15Z</time>
      </trkpt>
      <trkpt lat="45.65576" lon="6.52226">
        <ele>1902</ele>
        <time>2022-07-28T07:50:16Z</time>
      </trkpt>
      <trkpt lat="45.65575" lon="6.52225">
        <ele>1902</ele>
        <time>2022-07-28T07:50:17Z</time>
      </trkpt>
      <trkpt lat="45.65575" lon="6.52224">
        <ele>1902</ele>
        <time>2022-07-28T07:50:18Z</time>
      </trkpt>
      <trkpt lat="45.65574" lon="6.52223">
        <ele>1902</ele>
        <time>2022-07-28T07:50:19Z</time>
      </trkpt>
      <trkpt lat="45.65574" lon="6.52221">
        <ele>1902</ele>
        <time>2022-07-28T07:50:20Z</time>
      </trkpt>
      <trkpt lat="45.65573" lon="6.5222">
        <ele>1902</ele>
        <time>2022-07-28T07:50:21Z</time>
      </trkpt>
      <trkpt lat="45.65573" lon="6.52219">
        <ele>1902</ele>
        <time>2022-07-28T07:50:22Z</time>
      </trkpt>
      <trkpt lat="45.65572" lon="6.52218">
        <ele>1902</ele>
        <time>2022-07-28T07:50:23Z</time>
      </trkpt>
      <trkpt lat="45.65571" lon="6.52217">
        <ele>1902</ele>
        <time>2022-07-28T07:50:24Z</time>
      </trkpt>
      <trkpt lat="45.6557" lon="6.52216">
        <ele>1902</ele>
        <time>2022-07-28T07:50:25Z</time>
      </trkpt>
      <trkpt lat="45.6557" lon="6.52215">
        <ele>1903</ele>
        <time>2022-07-28T07:50:26Z</time>
      </trkpt>
      <trkpt lat="45.65569" lon="6.52214">
        <ele>1903</ele>
        <time>2022-07-28T07:50:27Z</time>
      </trkpt>
      <trkpt lat="45.65569" lon="6.52213">
        <ele>1903</ele>
        <time>2022-07-28T07:50:28Z</time>
      </trkpt>
      <trkpt lat="45.65569" lon="6.52211">
        <ele>1903</ele>
        <time>2022-07-28T07:50:29Z</time>
      </trkpt>
      <trkpt lat="45.65568" lon="6.5221">
        <ele>1903</ele>
        <time>2022-07-28T07:50:30Z</time>
      </trkpt>
      <trkpt lat="45.65568" lon="6.52209">
        <ele>1904</ele>
        <time>2022-07-28T07:50:31Z</time>
      </trkpt>
      <trkpt lat="45.65568" lon="6.52209">
        <ele>1904</ele>
        <time>2022-07-28T07:50:32Z</time>
      </trkpt>
      <trkpt lat="45.65568" lon="6.52208">
        <ele>1904</ele>
        <time>2022-07-28T07:50:33Z</time>
      </trkpt>
      <trkpt lat="45.65567" lon="6.52207">
        <ele>1904</ele>
        <time>2022-07-28T07:50:34Z</time>
      </trkpt>
      <trkpt lat="45.65567" lon="6.52206">
        <ele>1904</ele>
        <time>2022-07-28T07:50:35Z</time>
      </trkpt>
      <trkpt lat="45.65567" lon="6.52205">
        <ele>1904</ele>
        <time>2022-07-28T07:50:36Z</time>
      </trkpt>
      <trkpt lat="45.65566" lon="6.52204">
        <ele>1904</ele>
        <time>2022-07-28T07:50:37Z</time>
      </trkpt>
      <trkpt lat="45.65566" lon="6.52203">
        <ele>1904</ele>
        <time>2022-07-28T07:50:38Z</time>
      </trkpt>
      <trkpt lat="45.65565" lon="6.52203">
        <ele>1904</ele>
        <time>2022-07-28T07:50:39Z</time>
      </trkpt>
      <trkpt lat="45.65565" lon="6.52202">
        <ele>1904</ele>
        <time>2022-07-28T07:50:40Z</time>
      </trkpt>
      <trkpt lat="45.65565" lon="6.52201">
        <ele>1904</ele>
        <time>2022-07-28T07:50:41Z</time>
      </trkpt>
      <trkpt lat="45.65564" lon="6.522">
        <ele>1904</ele>
        <time>2022-07-28T07:50:42Z</time>
      </trkpt>
      <trkpt lat="45.65564" lon="6.52199">
        <ele>1904</ele>
        <time>2022-07-28T07:50:43Z</time>
      </trkpt>
      <trkpt lat="45.65563" lon="6.52198">
        <ele>1904</ele>
        <time>2022-07-28T07:50:44Z</time>
      </trkpt>
      <trkpt lat="45.65563" lon="6.52197">
        <ele>1904</ele>
        <time>2022-07-28T07:50:45Z</time>
      </trkpt>
      <trkpt lat="45.65562" lon="6.52197">
        <ele>1905</ele>
        <time>2022-07-28T07:50:46Z</time>
      </trkpt>
      <trkpt lat="45.65562" lon="6.52196">
        <ele>1905</ele>
        <time>2022-07-28T07:50:47Z</time>
      </trkpt>
      <trkpt lat="45.65561" lon="6.52195">
        <ele>1905</ele>
        <time>2022-07-28T07:50:48Z</time>
      </trkpt>
      <trkpt lat="45.65561" lon="6.52195">
        <ele>1905</ele>
        <time>2022-07-28T07:50:49Z</time>
      </trkpt>
      <trkpt lat="45.6556" lon="6.52195">
        <ele>1905</ele>
        <time>2022-07-28T07:50:50Z</time>
      </trkpt>
      <trkpt lat="45.6556" lon="6.52194">
        <ele>1906</ele>
        <time>2022-07-28T07:50:51Z</time>
      </trkpt>
      <trkpt lat="45.6556" lon="6.52194">
        <ele>1906</ele>
        <time>2022-07-28T07:50:52Z</time>
      </trkpt>
      <trkpt lat="45.65559" lon="6.52194">
        <ele>1906</ele>
        <time>2022-07-28T07:50:53Z</time>
      </trkpt>
      <trkpt lat="45.65559" lon="6.52193">
        <ele>1906</ele>
        <time>2022-07-28T07:50:54Z</time>
      </trkpt>
      <trkpt lat="45.65559" lon="6.52193">
        <ele>1906</ele>
        <time>2022-07-28T07:50:55Z</time>
      </trkpt>
      <trkpt lat="45.65558" lon="6.52192">
        <ele>1906</ele>
        <time>2022-07-28T07:50:56Z</time>
      </trkpt>
      <trkpt lat="45.65558" lon="6.52191">
        <ele>1906</ele>
        <time>2022-07-28T07:50:57Z</time>
      </trkpt>
      <trkpt lat="45.65558" lon="6.5219">
        <ele>1906</ele>
        <time>2022-07-28T07:50:58Z</time>
      </trkpt>
      <trkpt lat="45.65557" lon="6.52189">
        <ele>1906</ele>
        <time>2022-07-28T07:50:59Z</time>
      </trkpt>
      <trkpt lat="45.65557" lon="6.52188">
        <ele>1906</ele>
        <time>2022-07-28T07:51:00Z</time>
      </trkpt>
      <trkpt lat="45.65556" lon="6.52187">
        <ele>1907</ele>
        <time>2022-07-28T07:51:01Z</time>
      </trkpt>
      <trkpt lat="45.65556" lon="6.52186">
        <ele>1907</ele>
        <time>2022-07-28T07:51:02Z</time>
      </trkpt>
      <trkpt lat="45.65556" lon="6.52185">
        <ele>1907</ele>
        <time>2022-07-28T07:51:03Z</time>
      </trkpt>
      <trkpt lat="45.65555" lon="6.52184">
        <ele>1907</ele>
        <time>2022-07-28T07:51:04Z</time>
      </trkpt>
      <trkpt lat="45.65555" lon="6.52183">
        <ele>1907</ele>
        <time>2022-07-28T07:51:05Z</time>
      </trkpt>
      <trkpt lat="45.65554" lon="6.52182">
        <ele>1907</ele>
        <time>2022-07-28T07:51:06Z</time>
      </trkpt>
      <trkpt lat="45.65554" lon="6.52181">
        <ele>1907</ele>
        <time>2022-07-28T07:51:07Z</time>
      </trkpt>
      <trkpt lat="45.65554" lon="6.5218">
        <ele>1907</ele>
        <time>2022-07-28T07:51:08Z</time>
      </trkpt>
      <trkpt lat="45.65554" lon="6.52179">
        <ele>1908</ele>
        <time>2022-07-28T07:51:09Z</time>
      </trkpt>
      <trkpt lat="45.65554" lon="6.52178">
        <ele>1908</ele>
        <time>2022-07-28T07:51:10Z</time>
      </trkpt>
      <trkpt lat="45.65553" lon="6.52176">
        <ele>1909</ele>
        <time>2022-07-28T07:51:11Z</time>
      </trkpt>
      <trkpt lat="45.65553" lon="6.52175">
        <ele>1909</ele>
        <time>2022-07-28T07:51:12Z</time>
      </trkpt>
      <trkpt lat="45.65553" lon="6.52174">
        <ele>1909</ele>
        <time>2022-07-28T07:51:13Z</time>
      </trkpt>
      <trkpt lat="45.65553" lon="6.52173">
        <ele>1909</ele>
        <time>2022-07-28T07:51:14Z</time>
      </trkpt>
      <trkpt lat="45.65553" lon="6.52173">
        <ele>1909</ele>
        <time>2022-07-28T07:51:15Z</time>
      </trkpt>
      <trkpt lat="45.65553" lon="6.52172">
        <ele>1909</ele>
        <time>2022-07-28T07:51:16Z</time>
      </trkpt>
      <trkpt lat="45.65552" lon="6.52172">
        <ele>1909</ele>
        <time>2022-07-28T07:51:17Z</time>
      </trkpt>
      <trkpt lat="45.65552" lon="6.52171">
        <ele>1909</ele>
        <time>2022-07-28T07:51:18Z</time>
      </trkpt>
      <trkpt lat="45.65552" lon="6.52171">
        <ele>1909</ele>
        <time>2022-07-28T07:51:19Z</time>
      </trkpt>
      <trkpt lat="45.65552" lon="6.52171">
        <ele>1909</ele>
        <time>2022-07-28T07:51:20Z</time>
      </trkpt>
      <trkpt lat="45.65552" lon="6.5217">
        <ele>1909</ele>
        <time>2022-07-28T07:51:21Z</time>
      </trkpt>
      <trkpt lat="45.65552" lon="6.52169">
        <ele>1908</ele>
        <time>2022-07-28T07:51:22Z</time>
      </trkpt>
      <trkpt lat="45.65551" lon="6.52168">
        <ele>1908</ele>
        <time>2022-07-28T07:51:23Z</time>
      </trkpt>
      <trkpt lat="45.65551" lon="6.52167">
        <ele>1908</ele>
        <time>2022-07-28T07:51:24Z</time>
      </trkpt>
      <trkpt lat="45.65551" lon="6.52166">
        <ele>1908</ele>
        <time>2022-07-28T07:51:25Z</time>
      </trkpt>
      <trkpt lat="45.65551" lon="6.52165">
        <ele>1908</ele>
        <time>2022-07-28T07:51:26Z</time>
      </trkpt>
      <trkpt lat="45.65551" lon="6.52164">
        <ele>1908</ele>
        <time>2022-07-28T07:51:27Z</time>
      </trkpt>
      <trkpt lat="45.6555" lon="6.52163">
        <ele>1908</ele>
        <time>2022-07-28T07:51:28Z</time>
      </trkpt>
      <trkpt lat="45.6555" lon="6.52162">
        <ele>1908</ele>
        <time>2022-07-28T07:51:29Z</time>
      </trkpt>
      <trkpt lat="45.6555" lon="6.52161">
        <ele>1908</ele>
        <time>2022-07-28T07:51:30Z</time>
      </trkpt>
      <trkpt lat="45.6555" lon="6.52159">
        <ele>1908</ele>
        <time>2022-07-28T07:51:31Z</time>
      </trkpt>
      <trkpt lat="45.6555" lon="6.52158">
        <ele>1909</ele>
        <time>2022-07-28T07:51:32Z</time>
      </trkpt>
      <trkpt lat="45.6555" lon="6.52157">
        <ele>1910</ele>
        <time>2022-07-28T07:51:33Z</time>
      </trkpt>
      <trkpt lat="45.6555" lon="6.52155">
        <ele>1911</ele>
        <time>2022-07-28T07:51:34Z</time>
      </trkpt>
      <trkpt lat="45.65549" lon="6.52154">
        <ele>1912</ele>
        <time>2022-07-28T07:51:35Z</time>
      </trkpt>
      <trkpt lat="45.65549" lon="6.52152">
        <ele>1914</ele>
        <time>2022-07-28T07:51:36Z</time>
      </trkpt>
      <trkpt lat="45.65549" lon="6.52151">
        <ele>1914</ele>
        <time>2022-07-28T07:51:37Z</time>
      </trkpt>
      <trkpt lat="45.65549" lon="6.5215">
        <ele>1914</ele>
        <time>2022-07-28T07:51:38Z</time>
      </trkpt>
      <trkpt lat="45.65548" lon="6.52149">
        <ele>1914</ele>
        <time>2022-07-28T07:51:39Z</time>
      </trkpt>
      <trkpt lat="45.65548" lon="6.52148">
        <ele>1914</ele>
        <time>2022-07-28T07:51:40Z</time>
      </trkpt>
      <trkpt lat="45.65548" lon="6.52147">
        <ele>1914</ele>
        <time>2022-07-28T07:51:41Z</time>
      </trkpt>
      <trkpt lat="45.65548" lon="6.52146">
        <ele>1914</ele>
        <time>2022-07-28T07:51:42Z</time>
      </trkpt>
      <trkpt lat="45.65548" lon="6.52145">
        <ele>1914</ele>
        <time>2022-07-28T07:51:43Z</time>
      </trkpt>
      <trkpt lat="45.65548" lon="6.52145">
        <ele>1914</ele>
        <time>2022-07-28T07:51:44Z</time>
      </trkpt>
      <trkpt lat="45.65547" lon="6.52144">
        <ele>1914</ele>
        <time>2022-07-28T07:51:45Z</time>
      </trkpt>
      <trkpt lat="45.65547" lon="6.52144">
        <ele>1914</ele>
        <time>2022-07-28T07:51:46Z</time>
      </trkpt>
      <trkpt lat="45.65547" lon="6.52143">
        <ele>1914</ele>
        <time>2022-07-28T07:51:47Z</time>
      </trkpt>
      <trkpt lat="45.65547" lon="6.52142">
        <ele>1914</ele>
        <time>2022-07-28T07:51:48Z</time>
      </trkpt>
      <trkpt lat="45.65547" lon="6.52141">
        <ele>1914</ele>
        <time>2022-07-28T07:51:49Z</time>
      </trkpt>
      <trkpt lat="45.65546" lon="6.52141">
        <ele>1914</ele>
        <time>2022-07-28T07:51:50Z</time>
      </trkpt>
      <trkpt lat="45.65546" lon="6.5214">
        <ele>1914</ele>
        <time>2022-07-28T07:51:51Z</time>
      </trkpt>
      <trkpt lat="45.65546" lon="6.52139">
        <ele>1914</ele>
        <time>2022-07-28T07:51:52Z</time>
      </trkpt>
      <trkpt lat="45.65546" lon="6.52139">
        <ele>1914</ele>
        <time>2022-07-28T07:51:53Z</time>
      </trkpt>
      <trkpt lat="45.65546" lon="6.52137">
        <ele>1914</ele>
        <time>2022-07-28T07:51:54Z</time>
      </trkpt>
      <trkpt lat="45.65546" lon="6.52136">
        <ele>1914</ele>
        <time>2022-07-28T07:51:55Z</time>
      </trkpt>
      <trkpt lat="45.65546" lon="6.52136">
        <ele>1914</ele>
        <time>2022-07-28T07:51:56Z</time>
      </trkpt>
      <trkpt lat="45.65546" lon="6.52135">
        <ele>1914</ele>
        <time>2022-07-28T07:51:57Z</time>
      </trkpt>
      <trkpt lat="45.65546" lon="6.52134">
        <ele>1914</ele>
        <time>2022-07-28T07:51:58Z</time>
      </trkpt>
      <trkpt lat="45.65546" lon="6.52132">
        <ele>1915</ele>
        <time>2022-07-28T07:52:07Z</time>
      </trkpt>
      <trkpt lat="45.65546" lon="6.52131">
        <ele>1915</ele>
        <time>2022-07-28T07:52:08Z</time>
      </trkpt>
      <trkpt lat="45.65546" lon="6.5213">
        <ele>1915</ele>
        <time>2022-07-28T07:52:09Z</time>
      </trkpt>
      <trkpt lat="45.65545" lon="6.52129">
        <ele>1915</ele>
        <time>2022-07-28T07:52:10Z</time>
      </trkpt>
      <trkpt lat="45.65545" lon="6.52128">
        <ele>1916</ele>
        <time>2022-07-28T07:52:11Z</time>
      </trkpt>
      <trkpt lat="45.65545" lon="6.52128">
        <ele>1916</ele>
        <time>2022-07-28T07:52:12Z</time>
      </trkpt>
      <trkpt lat="45.65544" lon="6.52127">
        <ele>1916</ele>
        <time>2022-07-28T07:52:13Z</time>
      </trkpt>
      <trkpt lat="45.65544" lon="6.52126">
        <ele>1916</ele>
        <time>2022-07-28T07:52:14Z</time>
      </trkpt>
      <trkpt lat="45.65544" lon="6.52126">
        <ele>1916</ele>
        <time>2022-07-28T07:52:15Z</time>
      </trkpt>
      <trkpt lat="45.65544" lon="6.52125">
        <ele>1917</ele>
        <time>2022-07-28T07:52:16Z</time>
      </trkpt>
      <trkpt lat="45.65543" lon="6.52124">
        <ele>1917</ele>
        <time>2022-07-28T07:52:17Z</time>
      </trkpt>
      <trkpt lat="45.65543" lon="6.52123">
        <ele>1917</ele>
        <time>2022-07-28T07:52:18Z</time>
      </trkpt>
      <trkpt lat="45.65543" lon="6.52122">
        <ele>1917</ele>
        <time>2022-07-28T07:52:19Z</time>
      </trkpt>
      <trkpt lat="45.65543" lon="6.52121">
        <ele>1917</ele>
        <time>2022-07-28T07:52:20Z</time>
      </trkpt>
      <trkpt lat="45.65543" lon="6.52121">
        <ele>1917</ele>
        <time>2022-07-28T07:52:21Z</time>
      </trkpt>
      <trkpt lat="45.65542" lon="6.52117">
        <ele>1920</ele>
        <time>2022-07-28T07:52:37Z</time>
      </trkpt>
      <trkpt lat="45.65542" lon="6.52115">
        <ele>1920</ele>
        <time>2022-07-28T07:52:38Z</time>
      </trkpt>
      <trkpt lat="45.65542" lon="6.52113">
        <ele>1920</ele>
        <time>2022-07-28T07:52:39Z</time>
      </trkpt>
      <trkpt lat="45.65541" lon="6.52112">
        <ele>1920</ele>
        <time>2022-07-28T07:52:40Z</time>
      </trkpt>
      <trkpt lat="45.65541" lon="6.5211">
        <ele>1920</ele>
        <time>2022-07-28T07:52:41Z</time>
      </trkpt>
      <trkpt lat="45.65541" lon="6.52109">
        <ele>1920</ele>
        <time>2022-07-28T07:52:42Z</time>
      </trkpt>
      <trkpt lat="45.6554" lon="6.52108">
        <ele>1921</ele>
        <time>2022-07-28T07:52:43Z</time>
      </trkpt>
      <trkpt lat="45.6554" lon="6.52107">
        <ele>1922</ele>
        <time>2022-07-28T07:52:44Z</time>
      </trkpt>
      <trkpt lat="45.6554" lon="6.52106">
        <ele>1923</ele>
        <time>2022-07-28T07:52:45Z</time>
      </trkpt>
      <trkpt lat="45.6554" lon="6.52105">
        <ele>1924</ele>
        <time>2022-07-28T07:52:46Z</time>
      </trkpt>
      <trkpt lat="45.6554" lon="6.52104">
        <ele>1924</ele>
        <time>2022-07-28T07:52:47Z</time>
      </trkpt>
      <trkpt lat="45.65539" lon="6.52103">
        <ele>1924</ele>
        <time>2022-07-28T07:52:48Z</time>
      </trkpt>
      <trkpt lat="45.65539" lon="6.52102">
        <ele>1924</ele>
        <time>2022-07-28T07:52:49Z</time>
      </trkpt>
      <trkpt lat="45.65539" lon="6.52101">
        <ele>1924</ele>
        <time>2022-07-28T07:52:50Z</time>
      </trkpt>
      <trkpt lat="45.65539" lon="6.52101">
        <ele>1924</ele>
        <time>2022-07-28T07:52:51Z</time>
      </trkpt>
      <trkpt lat="45.65539" lon="6.521">
        <ele>1924</ele>
        <time>2022-07-28T07:52:52Z</time>
      </trkpt>
      <trkpt lat="45.65538" lon="6.52099">
        <ele>1924</ele>
        <time>2022-07-28T07:52:53Z</time>
      </trkpt>
      <trkpt lat="45.65538" lon="6.52098">
        <ele>1924</ele>
        <time>2022-07-28T07:52:54Z</time>
      </trkpt>
      <trkpt lat="45.65538" lon="6.52097">
        <ele>1924</ele>
        <time>2022-07-28T07:52:55Z</time>
      </trkpt>
      <trkpt lat="45.65538" lon="6.52096">
        <ele>1924</ele>
        <time>2022-07-28T07:52:56Z</time>
      </trkpt>
      <trkpt lat="45.65538" lon="6.52095">
        <ele>1924</ele>
        <time>2022-07-28T07:52:57Z</time>
      </trkpt>
      <trkpt lat="45.65537" lon="6.52094">
        <ele>1924</ele>
        <time>2022-07-28T07:52:58Z</time>
      </trkpt>
      <trkpt lat="45.65537" lon="6.52093">
        <ele>1925</ele>
        <time>2022-07-28T07:52:59Z</time>
      </trkpt>
      <trkpt lat="45.65537" lon="6.52093">
        <ele>1925</ele>
        <time>2022-07-28T07:53:00Z</time>
      </trkpt>
      <trkpt lat="45.65536" lon="6.52092">
        <ele>1926</ele>
        <time>2022-07-28T07:53:01Z</time>
      </trkpt>
      <trkpt lat="45.65536" lon="6.52092">
        <ele>1926</ele>
        <time>2022-07-28T07:53:02Z</time>
      </trkpt>
      <trkpt lat="45.65536" lon="6.52091">
        <ele>1926</ele>
        <time>2022-07-28T07:53:03Z</time>
      </trkpt>
      <trkpt lat="45.65536" lon="6.52091">
        <ele>1926</ele>
        <time>2022-07-28T07:53:04Z</time>
      </trkpt>
      <trkpt lat="45.65536" lon="6.52091">
        <ele>1926</ele>
        <time>2022-07-28T07:53:05Z</time>
      </trkpt>
      <trkpt lat="45.65536" lon="6.52091">
        <ele>1926</ele>
        <time>2022-07-28T07:53:06Z</time>
      </trkpt>
      <trkpt lat="45.65535" lon="6.5209">
        <ele>1926</ele>
        <time>2022-07-28T07:53:07Z</time>
      </trkpt>
      <trkpt lat="45.65535" lon="6.52089">
        <ele>1926</ele>
        <time>2022-07-28T07:53:08Z</time>
      </trkpt>
      <trkpt lat="45.65535" lon="6.52088">
        <ele>1926</ele>
        <time>2022-07-28T07:53:09Z</time>
      </trkpt>
      <trkpt lat="45.65535" lon="6.52087">
        <ele>1926</ele>
        <time>2022-07-28T07:53:10Z</time>
      </trkpt>
      <trkpt lat="45.65535" lon="6.52086">
        <ele>1927</ele>
        <time>2022-07-28T07:53:11Z</time>
      </trkpt>
      <trkpt lat="45.65535" lon="6.52085">
        <ele>1927</ele>
        <time>2022-07-28T07:53:12Z</time>
      </trkpt>
      <trkpt lat="45.65534" lon="6.52083">
        <ele>1927</ele>
        <time>2022-07-28T07:53:13Z</time>
      </trkpt>
      <trkpt lat="45.65534" lon="6.52082">
        <ele>1927</ele>
        <time>2022-07-28T07:53:14Z</time>
      </trkpt>
      <trkpt lat="45.65534" lon="6.5208">
        <ele>1927</ele>
        <time>2022-07-28T07:53:15Z</time>
      </trkpt>
      <trkpt lat="45.65533" lon="6.52079">
        <ele>1928</ele>
        <time>2022-07-28T07:53:16Z</time>
      </trkpt>
      <trkpt lat="45.65533" lon="6.52078">
        <ele>1928</ele>
        <time>2022-07-28T07:53:17Z</time>
      </trkpt>
      <trkpt lat="45.65533" lon="6.52077">
        <ele>1928</ele>
        <time>2022-07-28T07:53:18Z</time>
      </trkpt>
      <trkpt lat="45.65532" lon="6.52077">
        <ele>1928</ele>
        <time>2022-07-28T07:53:19Z</time>
      </trkpt>
      <trkpt lat="45.65532" lon="6.52076">
        <ele>1928</ele>
        <time>2022-07-28T07:53:20Z</time>
      </trkpt>
      <trkpt lat="45.65532" lon="6.52075">
        <ele>1928</ele>
        <time>2022-07-28T07:53:21Z</time>
      </trkpt>
      <trkpt lat="45.65531" lon="6.52075">
        <ele>1928</ele>
        <time>2022-07-28T07:53:22Z</time>
      </trkpt>
      <trkpt lat="45.65531" lon="6.52074">
        <ele>1928</ele>
        <time>2022-07-28T07:53:23Z</time>
      </trkpt>
      <trkpt lat="45.6553" lon="6.52074">
        <ele>1928</ele>
        <time>2022-07-28T07:53:24Z</time>
      </trkpt>
      <trkpt lat="45.6553" lon="6.52073">
        <ele>1928</ele>
        <time>2022-07-28T07:53:25Z</time>
      </trkpt>
      <trkpt lat="45.65529" lon="6.52072">
        <ele>1929</ele>
        <time>2022-07-28T07:53:26Z</time>
      </trkpt>
      <trkpt lat="45.65528" lon="6.52071">
        <ele>1929</ele>
        <time>2022-07-28T07:53:27Z</time>
      </trkpt>
      <trkpt lat="45.65528" lon="6.5207">
        <ele>1929</ele>
        <time>2022-07-28T07:53:28Z</time>
      </trkpt>
      <trkpt lat="45.65527" lon="6.52069">
        <ele>1929</ele>
        <time>2022-07-28T07:53:29Z</time>
      </trkpt>
      <trkpt lat="45.65526" lon="6.52068">
        <ele>1929</ele>
        <time>2022-07-28T07:53:30Z</time>
      </trkpt>
      <trkpt lat="45.65525" lon="6.52067">
        <ele>1929</ele>
        <time>2022-07-28T07:53:31Z</time>
      </trkpt>
      <trkpt lat="45.65525" lon="6.52066">
        <ele>1929</ele>
        <time>2022-07-28T07:53:32Z</time>
      </trkpt>
      <trkpt lat="45.65524" lon="6.52065">
        <ele>1929</ele>
        <time>2022-07-28T07:53:33Z</time>
      </trkpt>
      <trkpt lat="45.65524" lon="6.52063">
        <ele>1929</ele>
        <time>2022-07-28T07:53:34Z</time>
      </trkpt>
      <trkpt lat="45.65523" lon="6.52062">
        <ele>1929</ele>
        <time>2022-07-28T07:53:35Z</time>
      </trkpt>
      <trkpt lat="45.65523" lon="6.52061">
        <ele>1929</ele>
        <time>2022-07-28T07:53:36Z</time>
      </trkpt>
      <trkpt lat="45.65523" lon="6.5206">
        <ele>1929</ele>
        <time>2022-07-28T07:53:37Z</time>
      </trkpt>
      <trkpt lat="45.65522" lon="6.52059">
        <ele>1929</ele>
        <time>2022-07-28T07:53:38Z</time>
      </trkpt>
      <trkpt lat="45.65522" lon="6.52057">
        <ele>1929</ele>
        <time>2022-07-28T07:53:39Z</time>
      </trkpt>
      <trkpt lat="45.65521" lon="6.52056">
        <ele>1929</ele>
        <time>2022-07-28T07:53:40Z</time>
      </trkpt>
      <trkpt lat="45.65521" lon="6.52055">
        <ele>1929</ele>
        <time>2022-07-28T07:53:41Z</time>
      </trkpt>
      <trkpt lat="45.6552" lon="6.52054">
        <ele>1929</ele>
        <time>2022-07-28T07:53:42Z</time>
      </trkpt>
      <trkpt lat="45.6552" lon="6.52053">
        <ele>1929</ele>
        <time>2022-07-28T07:53:43Z</time>
      </trkpt>
      <trkpt lat="45.65519" lon="6.52052">
        <ele>1929</ele>
        <time>2022-07-28T07:53:44Z</time>
      </trkpt>
      <trkpt lat="45.65518" lon="6.52052">
        <ele>1929</ele>
        <time>2022-07-28T07:53:45Z</time>
      </trkpt>
      <trkpt lat="45.65517" lon="6.52051">
        <ele>1930</ele>
        <time>2022-07-28T07:53:46Z</time>
      </trkpt>
      <trkpt lat="45.65517" lon="6.52051">
        <ele>1930</ele>
        <time>2022-07-28T07:53:47Z</time>
      </trkpt>
      <trkpt lat="45.65516" lon="6.5205">
        <ele>1930</ele>
        <time>2022-07-28T07:53:48Z</time>
      </trkpt>
      <trkpt lat="45.65515" lon="6.52049">
        <ele>1930</ele>
        <time>2022-07-28T07:53:49Z</time>
      </trkpt>
      <trkpt lat="45.65514" lon="6.52049">
        <ele>1930</ele>
        <time>2022-07-28T07:53:50Z</time>
      </trkpt>
      <trkpt lat="45.65514" lon="6.52048">
        <ele>1930</ele>
        <time>2022-07-28T07:53:51Z</time>
      </trkpt>
      <trkpt lat="45.65513" lon="6.52047">
        <ele>1930</ele>
        <time>2022-07-28T07:53:52Z</time>
      </trkpt>
      <trkpt lat="45.65512" lon="6.52046">
        <ele>1930</ele>
        <time>2022-07-28T07:53:53Z</time>
      </trkpt>
      <trkpt lat="45.65512" lon="6.52045">
        <ele>1930</ele>
        <time>2022-07-28T07:53:54Z</time>
      </trkpt>
      <trkpt lat="45.65511" lon="6.52043">
        <ele>1930</ele>
        <time>2022-07-28T07:53:55Z</time>
      </trkpt>
      <trkpt lat="45.65511" lon="6.52042">
        <ele>1930</ele>
        <time>2022-07-28T07:53:56Z</time>
      </trkpt>
      <trkpt lat="45.6551" lon="6.52041">
        <ele>1930</ele>
        <time>2022-07-28T07:53:57Z</time>
      </trkpt>
      <trkpt lat="45.6551" lon="6.5204">
        <ele>1930</ele>
        <time>2022-07-28T07:53:58Z</time>
      </trkpt>
      <trkpt lat="45.6551" lon="6.52038">
        <ele>1930</ele>
        <time>2022-07-28T07:53:59Z</time>
      </trkpt>
      <trkpt lat="45.6551" lon="6.52037">
        <ele>1930</ele>
        <time>2022-07-28T07:54:00Z</time>
      </trkpt>
      <trkpt lat="45.6551" lon="6.52037">
        <ele>1930</ele>
        <time>2022-07-28T07:54:01Z</time>
      </trkpt>
      <trkpt lat="45.6551" lon="6.52036">
        <ele>1930</ele>
        <time>2022-07-28T07:54:02Z</time>
      </trkpt>
      <trkpt lat="45.6551" lon="6.52035">
        <ele>1930</ele>
        <time>2022-07-28T07:54:03Z</time>
      </trkpt>
      <trkpt lat="45.6551" lon="6.52035">
        <ele>1930</ele>
        <time>2022-07-28T07:54:04Z</time>
      </trkpt>
      <trkpt lat="45.6551" lon="6.52034">
        <ele>1930</ele>
        <time>2022-07-28T07:54:05Z</time>
      </trkpt>
      <trkpt lat="45.6551" lon="6.52033">
        <ele>1931</ele>
        <time>2022-07-28T07:54:06Z</time>
      </trkpt>
      <trkpt lat="45.6551" lon="6.52031">
        <ele>1930</ele>
        <time>2022-07-28T07:54:07Z</time>
      </trkpt>
      <trkpt lat="45.65511" lon="6.5203">
        <ele>1930</ele>
        <time>2022-07-28T07:54:08Z</time>
      </trkpt>
      <trkpt lat="45.65511" lon="6.52029">
        <ele>1930</ele>
        <time>2022-07-28T07:54:09Z</time>
      </trkpt>
      <trkpt lat="45.65512" lon="6.52028">
        <ele>1930</ele>
        <time>2022-07-28T07:54:10Z</time>
      </trkpt>
      <trkpt lat="45.65512" lon="6.52027">
        <ele>1930</ele>
        <time>2022-07-28T07:54:11Z</time>
      </trkpt>
      <trkpt lat="45.65513" lon="6.52025">
        <ele>1930</ele>
        <time>2022-07-28T07:54:12Z</time>
      </trkpt>
      <trkpt lat="45.65513" lon="6.52024">
        <ele>1930</ele>
        <time>2022-07-28T07:54:13Z</time>
      </trkpt>
      <trkpt lat="45.65514" lon="6.52022">
        <ele>1930</ele>
        <time>2022-07-28T07:54:14Z</time>
      </trkpt>
      <trkpt lat="45.65514" lon="6.52021">
        <ele>1930</ele>
        <time>2022-07-28T07:54:15Z</time>
      </trkpt>
      <trkpt lat="45.65515" lon="6.52019">
        <ele>1930</ele>
        <time>2022-07-28T07:54:16Z</time>
      </trkpt>
      <trkpt lat="45.65515" lon="6.52018">
        <ele>1930</ele>
        <time>2022-07-28T07:54:17Z</time>
      </trkpt>
      <trkpt lat="45.65515" lon="6.52016">
        <ele>1930</ele>
        <time>2022-07-28T07:54:18Z</time>
      </trkpt>
      <trkpt lat="45.65515" lon="6.52014">
        <ele>1930</ele>
        <time>2022-07-28T07:54:19Z</time>
      </trkpt>
      <trkpt lat="45.65515" lon="6.52013">
        <ele>1930</ele>
        <time>2022-07-28T07:54:20Z</time>
      </trkpt>
      <trkpt lat="45.65515" lon="6.52011">
        <ele>1930</ele>
        <time>2022-07-28T07:54:21Z</time>
      </trkpt>
      <trkpt lat="45.65515" lon="6.5201">
        <ele>1929</ele>
        <time>2022-07-28T07:54:22Z</time>
      </trkpt>
      <trkpt lat="45.65515" lon="6.52008">
        <ele>1929</ele>
        <time>2022-07-28T07:54:23Z</time>
      </trkpt>
      <trkpt lat="45.65515" lon="6.52007">
        <ele>1928</ele>
        <time>2022-07-28T07:54:24Z</time>
      </trkpt>
      <trkpt lat="45.65515" lon="6.52005">
        <ele>1928</ele>
        <time>2022-07-28T07:54:25Z</time>
      </trkpt>
      <trkpt lat="45.65516" lon="6.52004">
        <ele>1928</ele>
        <time>2022-07-28T07:54:26Z</time>
      </trkpt>
      <trkpt lat="45.65516" lon="6.52002">
        <ele>1927</ele>
        <time>2022-07-28T07:54:27Z</time>
      </trkpt>
      <trkpt lat="45.65516" lon="6.52001">
        <ele>1927</ele>
        <time>2022-07-28T07:54:28Z</time>
      </trkpt>
      <trkpt lat="45.65516" lon="6.52">
        <ele>1927</ele>
        <time>2022-07-28T07:54:29Z</time>
      </trkpt>
      <trkpt lat="45.65516" lon="6.51999">
        <ele>1927</ele>
        <time>2022-07-28T07:54:30Z</time>
      </trkpt>
      <trkpt lat="45.65516" lon="6.51998">
        <ele>1927</ele>
        <time>2022-07-28T07:54:31Z</time>
      </trkpt>
      <trkpt lat="45.65516" lon="6.51997">
        <ele>1926</ele>
        <time>2022-07-28T07:54:32Z</time>
      </trkpt>
      <trkpt lat="45.65516" lon="6.51996">
        <ele>1926</ele>
        <time>2022-07-28T07:54:33Z</time>
      </trkpt>
      <trkpt lat="45.65516" lon="6.51995">
        <ele>1926</ele>
        <time>2022-07-28T07:54:34Z</time>
      </trkpt>
      <trkpt lat="45.65516" lon="6.51995">
        <ele>1926</ele>
        <time>2022-07-28T07:54:35Z</time>
      </trkpt>
      <trkpt lat="45.65516" lon="6.51994">
        <ele>1926</ele>
        <time>2022-07-28T07:54:36Z</time>
      </trkpt>
      <trkpt lat="45.65517" lon="6.51993">
        <ele>1926</ele>
        <time>2022-07-28T07:54:55Z</time>
      </trkpt>
      <trkpt lat="45.65517" lon="6.51993">
        <ele>1926</ele>
        <time>2022-07-28T07:54:56Z</time>
      </trkpt>
      <trkpt lat="45.65517" lon="6.51993">
        <ele>1925</ele>
        <time>2022-07-28T07:54:57Z</time>
      </trkpt>
      <trkpt lat="45.65517" lon="6.51992">
        <ele>1924</ele>
        <time>2022-07-28T07:54:58Z</time>
      </trkpt>
      <trkpt lat="45.65518" lon="6.51991">
        <ele>1924</ele>
        <time>2022-07-28T07:54:59Z</time>
      </trkpt>
      <trkpt lat="45.65518" lon="6.5199">
        <ele>1923</ele>
        <time>2022-07-28T07:55:00Z</time>
      </trkpt>
      <trkpt lat="45.65518" lon="6.51989">
        <ele>1923</ele>
        <time>2022-07-28T07:55:01Z</time>
      </trkpt>
      <trkpt lat="45.65518" lon="6.51987">
        <ele>1923</ele>
        <time>2022-07-28T07:55:02Z</time>
      </trkpt>
      <trkpt lat="45.65518" lon="6.51986">
        <ele>1923</ele>
        <time>2022-07-28T07:55:03Z</time>
      </trkpt>
      <trkpt lat="45.65518" lon="6.51984">
        <ele>1923</ele>
        <time>2022-07-28T07:55:04Z</time>
      </trkpt>
      <trkpt lat="45.65519" lon="6.51983">
        <ele>1923</ele>
        <time>2022-07-28T07:55:05Z</time>
      </trkpt>
      <trkpt lat="45.65519" lon="6.51981">
        <ele>1924</ele>
        <time>2022-07-28T07:55:06Z</time>
      </trkpt>
      <trkpt lat="45.65519" lon="6.51979">
        <ele>1924</ele>
        <time>2022-07-28T07:55:07Z</time>
      </trkpt>
      <trkpt lat="45.65519" lon="6.51978">
        <ele>1924</ele>
        <time>2022-07-28T07:55:08Z</time>
      </trkpt>
      <trkpt lat="45.65519" lon="6.51977">
        <ele>1924</ele>
        <time>2022-07-28T07:55:09Z</time>
      </trkpt>
      <trkpt lat="45.65519" lon="6.51975">
        <ele>1924</ele>
        <time>2022-07-28T07:55:10Z</time>
      </trkpt>
      <trkpt lat="45.65519" lon="6.51974">
        <ele>1924</ele>
        <time>2022-07-28T07:55:11Z</time>
      </trkpt>
      <trkpt lat="45.65518" lon="6.51973">
        <ele>1924</ele>
        <time>2022-07-28T07:55:12Z</time>
      </trkpt>
      <trkpt lat="45.65518" lon="6.51972">
        <ele>1924</ele>
        <time>2022-07-28T07:55:13Z</time>
      </trkpt>
      <trkpt lat="45.65518" lon="6.5197">
        <ele>1924</ele>
        <time>2022-07-28T07:55:14Z</time>
      </trkpt>
      <trkpt lat="45.65518" lon="6.51969">
        <ele>1924</ele>
        <time>2022-07-28T07:55:15Z</time>
      </trkpt>
      <trkpt lat="45.65517" lon="6.51968">
        <ele>1924</ele>
        <time>2022-07-28T07:55:16Z</time>
      </trkpt>
      <trkpt lat="45.65517" lon="6.51966">
        <ele>1924</ele>
        <time>2022-07-28T07:55:17Z</time>
      </trkpt>
      <trkpt lat="45.65517" lon="6.51965">
        <ele>1924</ele>
        <time>2022-07-28T07:55:18Z</time>
      </trkpt>
      <trkpt lat="45.65516" lon="6.51963">
        <ele>1924</ele>
        <time>2022-07-28T07:55:19Z</time>
      </trkpt>
      <trkpt lat="45.65516" lon="6.51962">
        <ele>1924</ele>
        <time>2022-07-28T07:55:20Z</time>
      </trkpt>
      <trkpt lat="45.65516" lon="6.51961">
        <ele>1924</ele>
        <time>2022-07-28T07:55:21Z</time>
      </trkpt>
      <trkpt lat="45.65516" lon="6.5196">
        <ele>1923</ele>
        <time>2022-07-28T07:55:22Z</time>
      </trkpt>
      <trkpt lat="45.65516" lon="6.51958">
        <ele>1923</ele>
        <time>2022-07-28T07:55:23Z</time>
      </trkpt>
      <trkpt lat="45.65516" lon="6.51957">
        <ele>1923</ele>
        <time>2022-07-28T07:55:24Z</time>
      </trkpt>
      <trkpt lat="45.65516" lon="6.51955">
        <ele>1923</ele>
        <time>2022-07-28T07:55:25Z</time>
      </trkpt>
      <trkpt lat="45.65517" lon="6.51954">
        <ele>1923</ele>
        <time>2022-07-28T07:55:26Z</time>
      </trkpt>
      <trkpt lat="45.65517" lon="6.51952">
        <ele>1922</ele>
        <time>2022-07-28T07:55:27Z</time>
      </trkpt>
      <trkpt lat="45.65517" lon="6.51951">
        <ele>1922</ele>
        <time>2022-07-28T07:55:28Z</time>
      </trkpt>
      <trkpt lat="45.65517" lon="6.51949">
        <ele>1922</ele>
        <time>2022-07-28T07:55:29Z</time>
      </trkpt>
      <trkpt lat="45.65517" lon="6.51947">
        <ele>1922</ele>
        <time>2022-07-28T07:55:30Z</time>
      </trkpt>
      <trkpt lat="45.65517" lon="6.51946">
        <ele>1922</ele>
        <time>2022-07-28T07:55:31Z</time>
      </trkpt>
      <trkpt lat="45.65518" lon="6.51944">
        <ele>1921</ele>
        <time>2022-07-28T07:55:32Z</time>
      </trkpt>
      <trkpt lat="45.65518" lon="6.51943">
        <ele>1921</ele>
        <time>2022-07-28T07:55:33Z</time>
      </trkpt>
      <trkpt lat="45.65518" lon="6.51941">
        <ele>1921</ele>
        <time>2022-07-28T07:55:34Z</time>
      </trkpt>
      <trkpt lat="45.65518" lon="6.51939">
        <ele>1921</ele>
        <time>2022-07-28T07:55:35Z</time>
      </trkpt>
      <trkpt lat="45.65518" lon="6.51938">
        <ele>1921</ele>
        <time>2022-07-28T07:55:36Z</time>
      </trkpt>
      <trkpt lat="45.65518" lon="6.51936">
        <ele>1921</ele>
        <time>2022-07-28T07:55:37Z</time>
      </trkpt>
      <trkpt lat="45.65518" lon="6.51935">
        <ele>1921</ele>
        <time>2022-07-28T07:55:38Z</time>
      </trkpt>
      <trkpt lat="45.65518" lon="6.51933">
        <ele>1921</ele>
        <time>2022-07-28T07:55:39Z</time>
      </trkpt>
      <trkpt lat="45.65519" lon="6.51932">
        <ele>1921</ele>
        <time>2022-07-28T07:55:40Z</time>
      </trkpt>
      <trkpt lat="45.65519" lon="6.5193">
        <ele>1921</ele>
        <time>2022-07-28T07:55:41Z</time>
      </trkpt>
      <trkpt lat="45.6552" lon="6.51928">
        <ele>1919</ele>
        <time>2022-07-28T07:57:07Z</time>
      </trkpt>
      <trkpt lat="45.65521" lon="6.51928">
        <ele>1919</ele>
        <time>2022-07-28T07:57:08Z</time>
      </trkpt>
      <trkpt lat="45.65521" lon="6.51927">
        <ele>1919</ele>
        <time>2022-07-28T07:57:09Z</time>
      </trkpt>
      <trkpt lat="45.65522" lon="6.51928">
        <ele>1919</ele>
        <time>2022-07-28T07:57:10Z</time>
      </trkpt>
      <trkpt lat="45.65522" lon="6.51928">
        <ele>1919</ele>
        <time>2022-07-28T07:57:11Z</time>
      </trkpt>
      <trkpt lat="45.65524" lon="6.51929">
        <ele>1919</ele>
        <time>2022-07-28T07:57:18Z</time>
      </trkpt>
      <trkpt lat="45.65524" lon="6.51929">
        <ele>1919</ele>
        <time>2022-07-28T07:57:19Z</time>
      </trkpt>
      <trkpt lat="45.65524" lon="6.51929">
        <ele>1919</ele>
        <time>2022-07-28T07:57:20Z</time>
      </trkpt>
      <trkpt lat="45.65524" lon="6.51929">
        <ele>1919</ele>
        <time>2022-07-28T07:57:21Z</time>
      </trkpt>
      <trkpt lat="45.65523" lon="6.51928">
        <ele>1919</ele>
        <time>2022-07-28T07:57:22Z</time>
      </trkpt>
      <trkpt lat="45.65523" lon="6.51928">
        <ele>1919</ele>
        <time>2022-07-28T07:57:39Z</time>
      </trkpt>
      <trkpt lat="45.65523" lon="6.51927">
        <ele>1919</ele>
        <time>2022-07-28T07:57:40Z</time>
      </trkpt>
      <trkpt lat="45.65523" lon="6.51927">
        <ele>1919</ele>
        <time>2022-07-28T07:57:41Z</time>
      </trkpt>
      <trkpt lat="45.65523" lon="6.51927">
        <ele>1919</ele>
        <time>2022-07-28T07:57:42Z</time>
      </trkpt>
      <trkpt lat="45.65523" lon="6.51927">
        <ele>1919</ele>
        <time>2022-07-28T07:57:43Z</time>
      </trkpt>
      <trkpt lat="45.65524" lon="6.51928">
        <ele>1919</ele>
        <time>2022-07-28T07:57:56Z</time>
      </trkpt>
      <trkpt lat="45.65524" lon="6.51928">
        <ele>1919</ele>
        <time>2022-07-28T07:57:57Z</time>
      </trkpt>
      <trkpt lat="45.65524" lon="6.51928">
        <ele>1919</ele>
        <time>2022-07-28T07:57:58Z</time>
      </trkpt>
      <trkpt lat="45.65523" lon="6.51928">
        <ele>1919</ele>
        <time>2022-07-28T07:57:59Z</time>
      </trkpt>
      <trkpt lat="45.65523" lon="6.51928">
        <ele>1919</ele>
        <time>2022-07-28T07:58:00Z</time>
      </trkpt>
      <trkpt lat="45.65522" lon="6.51927">
        <ele>1920</ele>
        <time>2022-07-28T07:59:39Z</time>
      </trkpt>
      <trkpt lat="45.65522" lon="6.51927">
        <ele>1920</ele>
        <time>2022-07-28T07:59:40Z</time>
      </trkpt>
      <trkpt lat="45.65521" lon="6.51926">
        <ele>1920</ele>
        <time>2022-07-28T07:59:41Z</time>
      </trkpt>
      <trkpt lat="45.65521" lon="6.51925">
        <ele>1920</ele>
        <time>2022-07-28T07:59:42Z</time>
      </trkpt>
      <trkpt lat="45.65521" lon="6.51924">
        <ele>1920</ele>
        <time>2022-07-28T07:59:43Z</time>
      </trkpt>
      <trkpt lat="45.65521" lon="6.51922">
        <ele>1920</ele>
        <time>2022-07-28T07:59:44Z</time>
      </trkpt>
      <trkpt lat="45.65521" lon="6.5192">
        <ele>1920</ele>
        <time>2022-07-28T07:59:45Z</time>
      </trkpt>
      <trkpt lat="45.65521" lon="6.51918">
        <ele>1920</ele>
        <time>2022-07-28T07:59:46Z</time>
      </trkpt>
      <trkpt lat="45.65521" lon="6.51916">
        <ele>1919</ele>
        <time>2022-07-28T07:59:47Z</time>
      </trkpt>
      <trkpt lat="45.65521" lon="6.51914">
        <ele>1919</ele>
        <time>2022-07-28T07:59:48Z</time>
      </trkpt>
      <trkpt lat="45.65521" lon="6.51912">
        <ele>1919</ele>
        <time>2022-07-28T07:59:49Z</time>
      </trkpt>
      <trkpt lat="45.65521" lon="6.51911">
        <ele>1919</ele>
        <time>2022-07-28T07:59:50Z</time>
      </trkpt>
      <trkpt lat="45.65521" lon="6.51909">
        <ele>1919</ele>
        <time>2022-07-28T07:59:51Z</time>
      </trkpt>
      <trkpt lat="45.65521" lon="6.51907">
        <ele>1918</ele>
        <time>2022-07-28T07:59:52Z</time>
      </trkpt>
      <trkpt lat="45.65522" lon="6.51905">
        <ele>1918</ele>
        <time>2022-07-28T07:59:53Z</time>
      </trkpt>
      <trkpt lat="45.65522" lon="6.51904">
        <ele>1918</ele>
        <time>2022-07-28T07:59:54Z</time>
      </trkpt>
      <trkpt lat="45.65522" lon="6.51902">
        <ele>1918</ele>
        <time>2022-07-28T07:59:55Z</time>
      </trkpt>
      <trkpt lat="45.65522" lon="6.519">
        <ele>1918</ele>
        <time>2022-07-28T07:59:56Z</time>
      </trkpt>
      <trkpt lat="45.65523" lon="6.51899">
        <ele>1917</ele>
        <time>2022-07-28T07:59:57Z</time>
      </trkpt>
      <trkpt lat="45.65523" lon="6.51897">
        <ele>1917</ele>
        <time>2022-07-28T07:59:58Z</time>
      </trkpt>
      <trkpt lat="45.65523" lon="6.51895">
        <ele>1916</ele>
        <time>2022-07-28T07:59:59Z</time>
      </trkpt>
      <trkpt lat="45.65523" lon="6.51894">
        <ele>1916</ele>
        <time>2022-07-28T08:00:00Z</time>
      </trkpt>
      <trkpt lat="45.65524" lon="6.51893">
        <ele>1916</ele>
        <time>2022-07-28T08:00:01Z</time>
      </trkpt>
      <trkpt lat="45.65524" lon="6.51891">
        <ele>1915</ele>
        <time>2022-07-28T08:00:02Z</time>
      </trkpt>
      <trkpt lat="45.65524" lon="6.5189">
        <ele>1915</ele>
        <time>2022-07-28T08:00:03Z</time>
      </trkpt>
      <trkpt lat="45.65524" lon="6.51889">
        <ele>1915</ele>
        <time>2022-07-28T08:00:04Z</time>
      </trkpt>
      <trkpt lat="45.65525" lon="6.51888">
        <ele>1915</ele>
        <time>2022-07-28T08:00:05Z</time>
      </trkpt>
      <trkpt lat="45.65525" lon="6.51887">
        <ele>1915</ele>
        <time>2022-07-28T08:00:06Z</time>
      </trkpt>
      <trkpt lat="45.65526" lon="6.51885">
        <ele>1914</ele>
        <time>2022-07-28T08:00:07Z</time>
      </trkpt>
      <trkpt lat="45.65526" lon="6.51884">
        <ele>1914</ele>
        <time>2022-07-28T08:00:08Z</time>
      </trkpt>
      <trkpt lat="45.65527" lon="6.51883">
        <ele>1914</ele>
        <time>2022-07-28T08:00:09Z</time>
      </trkpt>
      <trkpt lat="45.65527" lon="6.51881">
        <ele>1914</ele>
        <time>2022-07-28T08:00:10Z</time>
      </trkpt>
      <trkpt lat="45.65528" lon="6.5188">
        <ele>1914</ele>
        <time>2022-07-28T08:00:11Z</time>
      </trkpt>
      <trkpt lat="45.65529" lon="6.51878">
        <ele>1913</ele>
        <time>2022-07-28T08:00:12Z</time>
      </trkpt>
      <trkpt lat="45.65529" lon="6.51877">
        <ele>1913</ele>
        <time>2022-07-28T08:00:13Z</time>
      </trkpt>
      <trkpt lat="45.6553" lon="6.51876">
        <ele>1912</ele>
        <time>2022-07-28T08:00:14Z</time>
      </trkpt>
      <trkpt lat="45.65531" lon="6.51875">
        <ele>1912</ele>
        <time>2022-07-28T08:00:15Z</time>
      </trkpt>
      <trkpt lat="45.65531" lon="6.51873">
        <ele>1912</ele>
        <time>2022-07-28T08:00:16Z</time>
      </trkpt>
      <trkpt lat="45.65532" lon="6.51872">
        <ele>1911</ele>
        <time>2022-07-28T08:00:17Z</time>
      </trkpt>
      <trkpt lat="45.65533" lon="6.51871">
        <ele>1911</ele>
        <time>2022-07-28T08:00:18Z</time>
      </trkpt>
      <trkpt lat="45.65533" lon="6.5187">
        <ele>1911</ele>
        <time>2022-07-28T08:00:19Z</time>
      </trkpt>
      <trkpt lat="45.65534" lon="6.51869">
        <ele>1911</ele>
        <time>2022-07-28T08:00:20Z</time>
      </trkpt>
      <trkpt lat="45.65534" lon="6.51868">
        <ele>1911</ele>
        <time>2022-07-28T08:00:21Z</time>
      </trkpt>
      <trkpt lat="45.65535" lon="6.51867">
        <ele>1910</ele>
        <time>2022-07-28T08:00:22Z</time>
      </trkpt>
      <trkpt lat="45.65535" lon="6.51866">
        <ele>1910</ele>
        <time>2022-07-28T08:00:23Z</time>
      </trkpt>
      <trkpt lat="45.65536" lon="6.51865">
        <ele>1910</ele>
        <time>2022-07-28T08:00:24Z</time>
      </trkpt>
      <trkpt lat="45.65536" lon="6.51864">
        <ele>1910</ele>
        <time>2022-07-28T08:00:25Z</time>
      </trkpt>
      <trkpt lat="45.65537" lon="6.51863">
        <ele>1910</ele>
        <time>2022-07-28T08:00:26Z</time>
      </trkpt>
      <trkpt lat="45.65538" lon="6.51862">
        <ele>1909</ele>
        <time>2022-07-28T08:00:27Z</time>
      </trkpt>
      <trkpt lat="45.65539" lon="6.51861">
        <ele>1909</ele>
        <time>2022-07-28T08:00:28Z</time>
      </trkpt>
      <trkpt lat="45.6554" lon="6.5186">
        <ele>1909</ele>
        <time>2022-07-28T08:00:29Z</time>
      </trkpt>
      <trkpt lat="45.65541" lon="6.51857">
        <ele>1907</ele>
        <time>2022-07-28T08:01:30Z</time>
      </trkpt>
      <trkpt lat="45.65541" lon="6.51856">
        <ele>1907</ele>
        <time>2022-07-28T08:01:31Z</time>
      </trkpt>
      <trkpt lat="45.65541" lon="6.51855">
        <ele>1906</ele>
        <time>2022-07-28T08:01:32Z</time>
      </trkpt>
      <trkpt lat="45.65541" lon="6.51854">
        <ele>1906</ele>
        <time>2022-07-28T08:01:33Z</time>
      </trkpt>
      <trkpt lat="45.65541" lon="6.51853">
        <ele>1905</ele>
        <time>2022-07-28T08:01:34Z</time>
      </trkpt>
      <trkpt lat="45.65541" lon="6.51852">
        <ele>1905</ele>
        <time>2022-07-28T08:01:35Z</time>
      </trkpt>
      <trkpt lat="45.65541" lon="6.5185">
        <ele>1905</ele>
        <time>2022-07-28T08:01:36Z</time>
      </trkpt>
      <trkpt lat="45.65541" lon="6.51848">
        <ele>1905</ele>
        <time>2022-07-28T08:01:37Z</time>
      </trkpt>
      <trkpt lat="45.65542" lon="6.51847">
        <ele>1905</ele>
        <time>2022-07-28T08:01:38Z</time>
      </trkpt>
      <trkpt lat="45.65542" lon="6.51845">
        <ele>1905</ele>
        <time>2022-07-28T08:01:39Z</time>
      </trkpt>
      <trkpt lat="45.65542" lon="6.51843">
        <ele>1905</ele>
        <time>2022-07-28T08:01:40Z</time>
      </trkpt>
      <trkpt lat="45.65543" lon="6.51841">
        <ele>1905</ele>
        <time>2022-07-28T08:01:41Z</time>
      </trkpt>
      <trkpt lat="45.65543" lon="6.5184">
        <ele>1904</ele>
        <time>2022-07-28T08:01:42Z</time>
      </trkpt>
      <trkpt lat="45.65544" lon="6.51838">
        <ele>1903</ele>
        <time>2022-07-28T08:01:43Z</time>
      </trkpt>
      <trkpt lat="45.65544" lon="6.51837">
        <ele>1903</ele>
        <time>2022-07-28T08:01:44Z</time>
      </trkpt>
      <trkpt lat="45.65545" lon="6.51836">
        <ele>1902</ele>
        <time>2022-07-28T08:01:45Z</time>
      </trkpt>
      <trkpt lat="45.65545" lon="6.51834">
        <ele>1902</ele>
        <time>2022-07-28T08:01:46Z</time>
      </trkpt>
      <trkpt lat="45.65546" lon="6.51833">
        <ele>1902</ele>
        <time>2022-07-28T08:01:47Z</time>
      </trkpt>
      <trkpt lat="45.65547" lon="6.51831">
        <ele>1902</ele>
        <time>2022-07-28T08:01:48Z</time>
      </trkpt>
      <trkpt lat="45.65547" lon="6.5183">
        <ele>1902</ele>
        <time>2022-07-28T08:01:49Z</time>
      </trkpt>
      <trkpt lat="45.65548" lon="6.51828">
        <ele>1902</ele>
        <time>2022-07-28T08:01:50Z</time>
      </trkpt>
      <trkpt lat="45.65548" lon="6.51827">
        <ele>1902</ele>
        <time>2022-07-28T08:01:51Z</time>
      </trkpt>
      <trkpt lat="45.65549" lon="6.51825">
        <ele>1902</ele>
        <time>2022-07-28T08:01:52Z</time>
      </trkpt>
      <trkpt lat="45.65549" lon="6.51824">
        <ele>1902</ele>
        <time>2022-07-28T08:01:53Z</time>
      </trkpt>
      <trkpt lat="45.6555" lon="6.51822">
        <ele>1902</ele>
        <time>2022-07-28T08:01:54Z</time>
      </trkpt>
      <trkpt lat="45.6555" lon="6.51821">
        <ele>1902</ele>
        <time>2022-07-28T08:01:55Z</time>
      </trkpt>
      <trkpt lat="45.65551" lon="6.51819">
        <ele>1902</ele>
        <time>2022-07-28T08:01:56Z</time>
      </trkpt>
      <trkpt lat="45.65551" lon="6.51817">
        <ele>1902</ele>
        <time>2022-07-28T08:01:57Z</time>
      </trkpt>
      <trkpt lat="45.65551" lon="6.51816">
        <ele>1902</ele>
        <time>2022-07-28T08:01:58Z</time>
      </trkpt>
      <trkpt lat="45.65551" lon="6.51814">
        <ele>1902</ele>
        <time>2022-07-28T08:01:59Z</time>
      </trkpt>
      <trkpt lat="45.65552" lon="6.51812">
        <ele>1902</ele>
        <time>2022-07-28T08:02:00Z</time>
      </trkpt>
      <trkpt lat="45.65552" lon="6.51811">
        <ele>1903</ele>
        <time>2022-07-28T08:02:01Z</time>
      </trkpt>
      <trkpt lat="45.65552" lon="6.51809">
        <ele>1903</ele>
        <time>2022-07-28T08:02:02Z</time>
      </trkpt>
      <trkpt lat="45.65552" lon="6.51808">
        <ele>1903</ele>
        <time>2022-07-28T08:02:03Z</time>
      </trkpt>
      <trkpt lat="45.65552" lon="6.51807">
        <ele>1903</ele>
        <time>2022-07-28T08:02:04Z</time>
      </trkpt>
      <trkpt lat="45.65552" lon="6.51805">
        <ele>1903</ele>
        <time>2022-07-28T08:02:05Z</time>
      </trkpt>
      <trkpt lat="45.65552" lon="6.51804">
        <ele>1903</ele>
        <time>2022-07-28T08:02:06Z</time>
      </trkpt>
      <trkpt lat="45.65553" lon="6.51803">
        <ele>1903</ele>
        <time>2022-07-28T08:02:07Z</time>
      </trkpt>
      <trkpt lat="45.65553" lon="6.51801">
        <ele>1903</ele>
        <time>2022-07-28T08:02:08Z</time>
      </trkpt>
      <trkpt lat="45.65553" lon="6.51801">
        <ele>1903</ele>
        <time>2022-07-28T08:02:09Z</time>
      </trkpt>
      <trkpt lat="45.65554" lon="6.518">
        <ele>1903</ele>
        <time>2022-07-28T08:02:10Z</time>
      </trkpt>
      <trkpt lat="45.65554" lon="6.51799">
        <ele>1903</ele>
        <time>2022-07-28T08:02:11Z</time>
      </trkpt>
      <trkpt lat="45.65555" lon="6.51799">
        <ele>1903</ele>
        <time>2022-07-28T08:02:12Z</time>
      </trkpt>
      <trkpt lat="45.65556" lon="6.51799">
        <ele>1903</ele>
        <time>2022-07-28T08:02:13Z</time>
      </trkpt>
      <trkpt lat="45.65556" lon="6.51799">
        <ele>1903</ele>
        <time>2022-07-28T08:02:14Z</time>
      </trkpt>
      <trkpt lat="45.65558" lon="6.51798">
        <ele>1903</ele>
        <time>2022-07-28T08:02:51Z</time>
      </trkpt>
      <trkpt lat="45.65558" lon="6.51798">
        <ele>1903</ele>
        <time>2022-07-28T08:02:52Z</time>
      </trkpt>
      <trkpt lat="45.65559" lon="6.51797">
        <ele>1903</ele>
        <time>2022-07-28T08:02:53Z</time>
      </trkpt>
      <trkpt lat="45.65559" lon="6.51796">
        <ele>1903</ele>
        <time>2022-07-28T08:02:54Z</time>
      </trkpt>
      <trkpt lat="45.65559" lon="6.51795">
        <ele>1903</ele>
        <time>2022-07-28T08:02:55Z</time>
      </trkpt>
      <trkpt lat="45.65559" lon="6.51794">
        <ele>1903</ele>
        <time>2022-07-28T08:02:56Z</time>
      </trkpt>
      <trkpt lat="45.65559" lon="6.51792">
        <ele>1902</ele>
        <time>2022-07-28T08:02:57Z</time>
      </trkpt>
      <trkpt lat="45.6556" lon="6.51788">
        <ele>1902</ele>
        <time>2022-07-28T08:03:09Z</time>
      </trkpt>
      <trkpt lat="45.6556" lon="6.51787">
        <ele>1902</ele>
        <time>2022-07-28T08:03:10Z</time>
      </trkpt>
      <trkpt lat="45.6556" lon="6.51786">
        <ele>1902</ele>
        <time>2022-07-28T08:03:11Z</time>
      </trkpt>
      <trkpt lat="45.6556" lon="6.51785">
        <ele>1902</ele>
        <time>2022-07-28T08:03:12Z</time>
      </trkpt>
      <trkpt lat="45.6556" lon="6.51784">
        <ele>1902</ele>
        <time>2022-07-28T08:03:13Z</time>
      </trkpt>
      <trkpt lat="45.65559" lon="6.51783">
        <ele>1902</ele>
        <time>2022-07-28T08:03:14Z</time>
      </trkpt>
      <trkpt lat="45.65559" lon="6.51783">
        <ele>1902</ele>
        <time>2022-07-28T08:03:15Z</time>
      </trkpt>
      <trkpt lat="45.65558" lon="6.51783">
        <ele>1902</ele>
        <time>2022-07-28T08:03:16Z</time>
      </trkpt>
      <trkpt lat="45.65557" lon="6.51784">
        <ele>1901</ele>
        <time>2022-07-28T08:03:17Z</time>
      </trkpt>
      <trkpt lat="45.65556" lon="6.51784">
        <ele>1901</ele>
        <time>2022-07-28T08:03:18Z</time>
      </trkpt>
      <trkpt lat="45.65556" lon="6.51784">
        <ele>1901</ele>
        <time>2022-07-28T08:03:19Z</time>
      </trkpt>
      <trkpt lat="45.65555" lon="6.51784">
        <ele>1901</ele>
        <time>2022-07-28T08:03:20Z</time>
      </trkpt>
      <trkpt lat="45.65554" lon="6.51783">
        <ele>1901</ele>
        <time>2022-07-28T08:03:21Z</time>
      </trkpt>
      <trkpt lat="45.65553" lon="6.51781">
        <ele>1901</ele>
        <time>2022-07-28T08:03:22Z</time>
      </trkpt>
      <trkpt lat="45.65553" lon="6.5178">
        <ele>1901</ele>
        <time>2022-07-28T08:03:23Z</time>
      </trkpt>
      <trkpt lat="45.65553" lon="6.51777">
        <ele>1901</ele>
        <time>2022-07-28T08:03:24Z</time>
      </trkpt>
      <trkpt lat="45.65552" lon="6.51775">
        <ele>1901</ele>
        <time>2022-07-28T08:03:25Z</time>
      </trkpt>
      <trkpt lat="45.65552" lon="6.51773">
        <ele>1901</ele>
        <time>2022-07-28T08:03:26Z</time>
      </trkpt>
      <trkpt lat="45.65552" lon="6.51771">
        <ele>1901</ele>
        <time>2022-07-28T08:03:27Z</time>
      </trkpt>
      <trkpt lat="45.65552" lon="6.51769">
        <ele>1901</ele>
        <time>2022-07-28T08:03:42Z</time>
      </trkpt>
      <trkpt lat="45.65552" lon="6.51768">
        <ele>1901</ele>
        <time>2022-07-28T08:03:43Z</time>
      </trkpt>
      <trkpt lat="45.65552" lon="6.51767">
        <ele>1901</ele>
        <time>2022-07-28T08:03:44Z</time>
      </trkpt>
      <trkpt lat="45.65553" lon="6.51766">
        <ele>1901</ele>
        <time>2022-07-28T08:03:45Z</time>
      </trkpt>
      <trkpt lat="45.65553" lon="6.51765">
        <ele>1901</ele>
        <time>2022-07-28T08:03:46Z</time>
      </trkpt>
      <trkpt lat="45.65554" lon="6.51764">
        <ele>1901</ele>
        <time>2022-07-28T08:03:47Z</time>
      </trkpt>
      <trkpt lat="45.65554" lon="6.51762">
        <ele>1901</ele>
        <time>2022-07-28T08:03:48Z</time>
      </trkpt>
      <trkpt lat="45.65555" lon="6.51761">
        <ele>1901</ele>
        <time>2022-07-28T08:03:49Z</time>
      </trkpt>
      <trkpt lat="45.65556" lon="6.51759">
        <ele>1901</ele>
        <time>2022-07-28T08:03:50Z</time>
      </trkpt>
      <trkpt lat="45.65557" lon="6.51757">
        <ele>1901</ele>
        <time>2022-07-28T08:03:51Z</time>
      </trkpt>
      <trkpt lat="45.65558" lon="6.51756">
        <ele>1901</ele>
        <time>2022-07-28T08:03:52Z</time>
      </trkpt>
      <trkpt lat="45.65559" lon="6.51754">
        <ele>1901</ele>
        <time>2022-07-28T08:03:53Z</time>
      </trkpt>
      <trkpt lat="45.6556" lon="6.51752">
        <ele>1901</ele>
        <time>2022-07-28T08:03:54Z</time>
      </trkpt>
      <trkpt lat="45.65561" lon="6.51751">
        <ele>1901</ele>
        <time>2022-07-28T08:03:55Z</time>
      </trkpt>
      <trkpt lat="45.65562" lon="6.51749">
        <ele>1901</ele>
        <time>2022-07-28T08:03:56Z</time>
      </trkpt>
      <trkpt lat="45.65562" lon="6.51747">
        <ele>1901</ele>
        <time>2022-07-28T08:03:57Z</time>
      </trkpt>
      <trkpt lat="45.65563" lon="6.51745">
        <ele>1901</ele>
        <time>2022-07-28T08:03:58Z</time>
      </trkpt>
      <trkpt lat="45.65563" lon="6.51743">
        <ele>1901</ele>
        <time>2022-07-28T08:03:59Z</time>
      </trkpt>
      <trkpt lat="45.65563" lon="6.51742">
        <ele>1901</ele>
        <time>2022-07-28T08:04:00Z</time>
      </trkpt>
      <trkpt lat="45.65563" lon="6.51739">
        <ele>1901</ele>
        <time>2022-07-28T08:04:01Z</time>
      </trkpt>
      <trkpt lat="45.65563" lon="6.51737">
        <ele>1901</ele>
        <time>2022-07-28T08:04:02Z</time>
      </trkpt>
      <trkpt lat="45.65563" lon="6.51735">
        <ele>1901</ele>
        <time>2022-07-28T08:04:03Z</time>
      </trkpt>
      <trkpt lat="45.65563" lon="6.51733">
        <ele>1901</ele>
        <time>2022-07-28T08:04:04Z</time>
      </trkpt>
      <trkpt lat="45.65563" lon="6.51731">
        <ele>1901</ele>
        <time>2022-07-28T08:04:05Z</time>
      </trkpt>
      <trkpt lat="45.65563" lon="6.51729">
        <ele>1901</ele>
        <time>2022-07-28T08:04:06Z</time>
      </trkpt>
      <trkpt lat="45.65563" lon="6.51727">
        <ele>1900</ele>
        <time>2022-07-28T08:04:07Z</time>
      </trkpt>
      <trkpt lat="45.65563" lon="6.51725">
        <ele>1900</ele>
        <time>2022-07-28T08:04:08Z</time>
      </trkpt>
      <trkpt lat="45.65563" lon="6.51723">
        <ele>1900</ele>
        <time>2022-07-28T08:04:09Z</time>
      </trkpt>
      <trkpt lat="45.65564" lon="6.51721">
        <ele>1900</ele>
        <time>2022-07-28T08:04:10Z</time>
      </trkpt>
      <trkpt lat="45.65564" lon="6.51719">
        <ele>1900</ele>
        <time>2022-07-28T08:04:11Z</time>
      </trkpt>
      <trkpt lat="45.65564" lon="6.51717">
        <ele>1900</ele>
        <time>2022-07-28T08:04:12Z</time>
      </trkpt>
      <trkpt lat="45.65564" lon="6.51715">
        <ele>1900</ele>
        <time>2022-07-28T08:04:13Z</time>
      </trkpt>
      <trkpt lat="45.65564" lon="6.51713">
        <ele>1900</ele>
        <time>2022-07-28T08:04:14Z</time>
      </trkpt>
      <trkpt lat="45.65564" lon="6.51711">
        <ele>1900</ele>
        <time>2022-07-28T08:04:15Z</time>
      </trkpt>
      <trkpt lat="45.65564" lon="6.51709">
        <ele>1900</ele>
        <time>2022-07-28T08:04:16Z</time>
      </trkpt>
      <trkpt lat="45.65564" lon="6.51707">
        <ele>1900</ele>
        <time>2022-07-28T08:04:17Z</time>
      </trkpt>
      <trkpt lat="45.65564" lon="6.51705">
        <ele>1900</ele>
        <time>2022-07-28T08:04:18Z</time>
      </trkpt>
      <trkpt lat="45.65564" lon="6.51703">
        <ele>1900</ele>
        <time>2022-07-28T08:04:19Z</time>
      </trkpt>
      <trkpt lat="45.65563" lon="6.51701">
        <ele>1900</ele>
        <time>2022-07-28T08:04:20Z</time>
      </trkpt>
      <trkpt lat="45.65563" lon="6.517">
        <ele>1900</ele>
        <time>2022-07-28T08:04:21Z</time>
      </trkpt>
      <trkpt lat="45.65563" lon="6.51698">
        <ele>1900</ele>
        <time>2022-07-28T08:04:22Z</time>
      </trkpt>
      <trkpt lat="45.65563" lon="6.51696">
        <ele>1900</ele>
        <time>2022-07-28T08:04:23Z</time>
      </trkpt>
      <trkpt lat="45.65562" lon="6.51694">
        <ele>1900</ele>
        <time>2022-07-28T08:04:24Z</time>
      </trkpt>
      <trkpt lat="45.65562" lon="6.51692">
        <ele>1900</ele>
        <time>2022-07-28T08:04:25Z</time>
      </trkpt>
      <trkpt lat="45.65562" lon="6.5169">
        <ele>1900</ele>
        <time>2022-07-28T08:04:26Z</time>
      </trkpt>
      <trkpt lat="45.65561" lon="6.51688">
        <ele>1900</ele>
        <time>2022-07-28T08:04:27Z</time>
      </trkpt>
      <trkpt lat="45.65561" lon="6.51686">
        <ele>1900</ele>
        <time>2022-07-28T08:04:28Z</time>
      </trkpt>
      <trkpt lat="45.6556" lon="6.51684">
        <ele>1900</ele>
        <time>2022-07-28T08:04:29Z</time>
      </trkpt>
      <trkpt lat="45.6556" lon="6.51682">
        <ele>1900</ele>
        <time>2022-07-28T08:04:30Z</time>
      </trkpt>
      <trkpt lat="45.65559" lon="6.5168">
        <ele>1900</ele>
        <time>2022-07-28T08:04:31Z</time>
      </trkpt>
      <trkpt lat="45.65559" lon="6.51678">
        <ele>1899</ele>
        <time>2022-07-28T08:04:32Z</time>
      </trkpt>
      <trkpt lat="45.65558" lon="6.51676">
        <ele>1898</ele>
        <time>2022-07-28T08:04:33Z</time>
      </trkpt>
      <trkpt lat="45.65558" lon="6.51674">
        <ele>1898</ele>
        <time>2022-07-28T08:04:34Z</time>
      </trkpt>
      <trkpt lat="45.65557" lon="6.51673">
        <ele>1897</ele>
        <time>2022-07-28T08:04:35Z</time>
      </trkpt>
      <trkpt lat="45.65557" lon="6.51671">
        <ele>1897</ele>
        <time>2022-07-28T08:04:36Z</time>
      </trkpt>
      <trkpt lat="45.65557" lon="6.51669">
        <ele>1897</ele>
        <time>2022-07-28T08:04:37Z</time>
      </trkpt>
      <trkpt lat="45.65556" lon="6.51667">
        <ele>1897</ele>
        <time>2022-07-28T08:04:38Z</time>
      </trkpt>
      <trkpt lat="45.65556" lon="6.51665">
        <ele>1897</ele>
        <time>2022-07-28T08:04:39Z</time>
      </trkpt>
      <trkpt lat="45.65556" lon="6.51663">
        <ele>1897</ele>
        <time>2022-07-28T08:04:40Z</time>
      </trkpt>
      <trkpt lat="45.65556" lon="6.51661">
        <ele>1897</ele>
        <time>2022-07-28T08:04:41Z</time>
      </trkpt>
      <trkpt lat="45.65555" lon="6.51659">
        <ele>1897</ele>
        <time>2022-07-28T08:04:42Z</time>
      </trkpt>
      <trkpt lat="45.65555" lon="6.51657">
        <ele>1897</ele>
        <time>2022-07-28T08:04:43Z</time>
      </trkpt>
      <trkpt lat="45.65555" lon="6.51655">
        <ele>1897</ele>
        <time>2022-07-28T08:04:44Z</time>
      </trkpt>
      <trkpt lat="45.65555" lon="6.51653">
        <ele>1897</ele>
        <time>2022-07-28T08:04:45Z</time>
      </trkpt>
      <trkpt lat="45.65554" lon="6.51651">
        <ele>1897</ele>
        <time>2022-07-28T08:04:46Z</time>
      </trkpt>
      <trkpt lat="45.65554" lon="6.51649">
        <ele>1896</ele>
        <time>2022-07-28T08:04:47Z</time>
      </trkpt>
      <trkpt lat="45.65554" lon="6.51647">
        <ele>1896</ele>
        <time>2022-07-28T08:04:48Z</time>
      </trkpt>
      <trkpt lat="45.65554" lon="6.51645">
        <ele>1896</ele>
        <time>2022-07-28T08:04:49Z</time>
      </trkpt>
      <trkpt lat="45.65553" lon="6.51643">
        <ele>1896</ele>
        <time>2022-07-28T08:04:50Z</time>
      </trkpt>
      <trkpt lat="45.65553" lon="6.51641">
        <ele>1896</ele>
        <time>2022-07-28T08:04:51Z</time>
      </trkpt>
      <trkpt lat="45.65553" lon="6.51639">
        <ele>1895</ele>
        <time>2022-07-28T08:04:52Z</time>
      </trkpt>
      <trkpt lat="45.65553" lon="6.51637">
        <ele>1895</ele>
        <time>2022-07-28T08:04:53Z</time>
      </trkpt>
      <trkpt lat="45.65553" lon="6.51635">
        <ele>1895</ele>
        <time>2022-07-28T08:04:54Z</time>
      </trkpt>
      <trkpt lat="45.65552" lon="6.51633">
        <ele>1895</ele>
        <time>2022-07-28T08:04:55Z</time>
      </trkpt>
      <trkpt lat="45.65552" lon="6.51631">
        <ele>1895</ele>
        <time>2022-07-28T08:04:56Z</time>
      </trkpt>
      <trkpt lat="45.65552" lon="6.51629">
        <ele>1895</ele>
        <time>2022-07-28T08:04:57Z</time>
      </trkpt>
      <trkpt lat="45.65552" lon="6.51627">
        <ele>1895</ele>
        <time>2022-07-28T08:04:58Z</time>
      </trkpt>
      <trkpt lat="45.65551" lon="6.51625">
        <ele>1895</ele>
        <time>2022-07-28T08:04:59Z</time>
      </trkpt>
      <trkpt lat="45.65551" lon="6.51622">
        <ele>1895</ele>
        <time>2022-07-28T08:05:00Z</time>
      </trkpt>
      <trkpt lat="45.65551" lon="6.5162">
        <ele>1895</ele>
        <time>2022-07-28T08:05:01Z</time>
      </trkpt>
      <trkpt lat="45.6555" lon="6.51618">
        <ele>1895</ele>
        <time>2022-07-28T08:05:02Z</time>
      </trkpt>
      <trkpt lat="45.6555" lon="6.51616">
        <ele>1895</ele>
        <time>2022-07-28T08:05:03Z</time>
      </trkpt>
      <trkpt lat="45.6555" lon="6.51615">
        <ele>1895</ele>
        <time>2022-07-28T08:05:04Z</time>
      </trkpt>
      <trkpt lat="45.6555" lon="6.51612">
        <ele>1895</ele>
        <time>2022-07-28T08:05:05Z</time>
      </trkpt>
      <trkpt lat="45.65549" lon="6.5161">
        <ele>1895</ele>
        <time>2022-07-28T08:05:06Z</time>
      </trkpt>
      <trkpt lat="45.65549" lon="6.51608">
        <ele>1895</ele>
        <time>2022-07-28T08:05:07Z</time>
      </trkpt>
      <trkpt lat="45.65549" lon="6.51606">
        <ele>1895</ele>
        <time>2022-07-28T08:05:08Z</time>
      </trkpt>
      <trkpt lat="45.65549" lon="6.51604">
        <ele>1895</ele>
        <time>2022-07-28T08:05:09Z</time>
      </trkpt>
      <trkpt lat="45.65549" lon="6.51602">
        <ele>1895</ele>
        <time>2022-07-28T08:05:10Z</time>
      </trkpt>
      <trkpt lat="45.65548" lon="6.516">
        <ele>1895</ele>
        <time>2022-07-28T08:05:11Z</time>
      </trkpt>
      <trkpt lat="45.65548" lon="6.51598">
        <ele>1895</ele>
        <time>2022-07-28T08:05:12Z</time>
      </trkpt>
      <trkpt lat="45.65548" lon="6.51595">
        <ele>1895</ele>
        <time>2022-07-28T08:05:13Z</time>
      </trkpt>
      <trkpt lat="45.65548" lon="6.51593">
        <ele>1895</ele>
        <time>2022-07-28T08:05:14Z</time>
      </trkpt>
      <trkpt lat="45.65547" lon="6.51591">
        <ele>1895</ele>
        <time>2022-07-28T08:05:15Z</time>
      </trkpt>
      <trkpt lat="45.65547" lon="6.51589">
        <ele>1896</ele>
        <time>2022-07-28T08:05:16Z</time>
      </trkpt>
      <trkpt lat="45.65547" lon="6.51587">
        <ele>1896</ele>
        <time>2022-07-28T08:05:17Z</time>
      </trkpt>
      <trkpt lat="45.65547" lon="6.51584">
        <ele>1896</ele>
        <time>2022-07-28T08:05:18Z</time>
      </trkpt>
      <trkpt lat="45.65547" lon="6.51582">
        <ele>1896</ele>
        <time>2022-07-28T08:05:19Z</time>
      </trkpt>
      <trkpt lat="45.65547" lon="6.5158">
        <ele>1896</ele>
        <time>2022-07-28T08:05:20Z</time>
      </trkpt>
      <trkpt lat="45.65546" lon="6.51578">
        <ele>1896</ele>
        <time>2022-07-28T08:05:21Z</time>
      </trkpt>
      <trkpt lat="45.65546" lon="6.51576">
        <ele>1896</ele>
        <time>2022-07-28T08:05:22Z</time>
      </trkpt>
      <trkpt lat="45.65546" lon="6.51574">
        <ele>1896</ele>
        <time>2022-07-28T08:05:23Z</time>
      </trkpt>
      <trkpt lat="45.65545" lon="6.51572">
        <ele>1896</ele>
        <time>2022-07-28T08:05:24Z</time>
      </trkpt>
      <trkpt lat="45.65545" lon="6.5157">
        <ele>1896</ele>
        <time>2022-07-28T08:05:25Z</time>
      </trkpt>
      <trkpt lat="45.65544" lon="6.51568">
        <ele>1896</ele>
        <time>2022-07-28T08:05:26Z</time>
      </trkpt>
      <trkpt lat="45.65544" lon="6.51566">
        <ele>1896</ele>
        <time>2022-07-28T08:05:27Z</time>
      </trkpt>
      <trkpt lat="45.65543" lon="6.51563">
        <ele>1896</ele>
        <time>2022-07-28T08:05:28Z</time>
      </trkpt>
      <trkpt lat="45.65542" lon="6.51561">
        <ele>1896</ele>
        <time>2022-07-28T08:05:29Z</time>
      </trkpt>
      <trkpt lat="45.65542" lon="6.51559">
        <ele>1896</ele>
        <time>2022-07-28T08:05:30Z</time>
      </trkpt>
      <trkpt lat="45.65541" lon="6.51557">
        <ele>1896</ele>
        <time>2022-07-28T08:05:31Z</time>
      </trkpt>
      <trkpt lat="45.6554" lon="6.51555">
        <ele>1896</ele>
        <time>2022-07-28T08:05:32Z</time>
      </trkpt>
      <trkpt lat="45.6554" lon="6.51553">
        <ele>1896</ele>
        <time>2022-07-28T08:05:33Z</time>
      </trkpt>
      <trkpt lat="45.65539" lon="6.51551">
        <ele>1896</ele>
        <time>2022-07-28T08:05:34Z</time>
      </trkpt>
      <trkpt lat="45.65538" lon="6.5155">
        <ele>1896</ele>
        <time>2022-07-28T08:05:35Z</time>
      </trkpt>
      <trkpt lat="45.65538" lon="6.51548">
        <ele>1896</ele>
        <time>2022-07-28T08:05:36Z</time>
      </trkpt>
      <trkpt lat="45.65537" lon="6.51545">
        <ele>1893</ele>
        <time>2022-07-28T08:06:10Z</time>
      </trkpt>
      <trkpt lat="45.65536" lon="6.51544">
        <ele>1893</ele>
        <time>2022-07-28T08:06:11Z</time>
      </trkpt>
      <trkpt lat="45.65536" lon="6.51543">
        <ele>1893</ele>
        <time>2022-07-28T08:06:12Z</time>
      </trkpt>
      <trkpt lat="45.65536" lon="6.51542">
        <ele>1893</ele>
        <time>2022-07-28T08:06:13Z</time>
      </trkpt>
      <trkpt lat="45.65535" lon="6.51541">
        <ele>1893</ele>
        <time>2022-07-28T08:06:14Z</time>
      </trkpt>
      <trkpt lat="45.65535" lon="6.5154">
        <ele>1893</ele>
        <time>2022-07-28T08:06:15Z</time>
      </trkpt>
      <trkpt lat="45.65535" lon="6.51538">
        <ele>1893</ele>
        <time>2022-07-28T08:06:16Z</time>
      </trkpt>
      <trkpt lat="45.65534" lon="6.51537">
        <ele>1893</ele>
        <time>2022-07-28T08:06:17Z</time>
      </trkpt>
      <trkpt lat="45.65534" lon="6.51535">
        <ele>1893</ele>
        <time>2022-07-28T08:06:18Z</time>
      </trkpt>
      <trkpt lat="45.65534" lon="6.51533">
        <ele>1893</ele>
        <time>2022-07-28T08:06:19Z</time>
      </trkpt>
      <trkpt lat="45.65533" lon="6.51531">
        <ele>1893</ele>
        <time>2022-07-28T08:06:20Z</time>
      </trkpt>
      <trkpt lat="45.65533" lon="6.5153">
        <ele>1893</ele>
        <time>2022-07-28T08:06:21Z</time>
      </trkpt>
      <trkpt lat="45.65532" lon="6.51528">
        <ele>1892</ele>
        <time>2022-07-28T08:06:22Z</time>
      </trkpt>
      <trkpt lat="45.65532" lon="6.51527">
        <ele>1892</ele>
        <time>2022-07-28T08:06:23Z</time>
      </trkpt>
      <trkpt lat="45.65531" lon="6.51525">
        <ele>1892</ele>
        <time>2022-07-28T08:06:24Z</time>
      </trkpt>
      <trkpt lat="45.6553" lon="6.51524">
        <ele>1892</ele>
        <time>2022-07-28T08:06:25Z</time>
      </trkpt>
      <trkpt lat="45.6553" lon="6.51522">
        <ele>1892</ele>
        <time>2022-07-28T08:06:26Z</time>
      </trkpt>
      <trkpt lat="45.65529" lon="6.5152">
        <ele>1892</ele>
        <time>2022-07-28T08:06:27Z</time>
      </trkpt>
      <trkpt lat="45.65529" lon="6.51519">
        <ele>1892</ele>
        <time>2022-07-28T08:06:28Z</time>
      </trkpt>
      <trkpt lat="45.65528" lon="6.51517">
        <ele>1892</ele>
        <time>2022-07-28T08:06:29Z</time>
      </trkpt>
      <trkpt lat="45.65528" lon="6.51515">
        <ele>1892</ele>
        <time>2022-07-28T08:06:30Z</time>
      </trkpt>
      <trkpt lat="45.65527" lon="6.51514">
        <ele>1892</ele>
        <time>2022-07-28T08:06:31Z</time>
      </trkpt>
      <trkpt lat="45.65527" lon="6.51512">
        <ele>1891</ele>
        <time>2022-07-28T08:06:32Z</time>
      </trkpt>
      <trkpt lat="45.65527" lon="6.51511">
        <ele>1891</ele>
        <time>2022-07-28T08:06:33Z</time>
      </trkpt>
      <trkpt lat="45.65526" lon="6.51509">
        <ele>1891</ele>
        <time>2022-07-28T08:06:34Z</time>
      </trkpt>
      <trkpt lat="45.65526" lon="6.51507">
        <ele>1891</ele>
        <time>2022-07-28T08:06:35Z</time>
      </trkpt>
      <trkpt lat="45.65525" lon="6.51506">
        <ele>1891</ele>
        <time>2022-07-28T08:06:36Z</time>
      </trkpt>
      <trkpt lat="45.65525" lon="6.51504">
        <ele>1891</ele>
        <time>2022-07-28T08:06:37Z</time>
      </trkpt>
      <trkpt lat="45.65524" lon="6.51503">
        <ele>1891</ele>
        <time>2022-07-28T08:06:38Z</time>
      </trkpt>
      <trkpt lat="45.65524" lon="6.51501">
        <ele>1891</ele>
        <time>2022-07-28T08:06:39Z</time>
      </trkpt>
      <trkpt lat="45.65523" lon="6.51499">
        <ele>1891</ele>
        <time>2022-07-28T08:06:40Z</time>
      </trkpt>
      <trkpt lat="45.65523" lon="6.51498">
        <ele>1891</ele>
        <time>2022-07-28T08:06:41Z</time>
      </trkpt>
      <trkpt lat="45.65522" lon="6.51496">
        <ele>1891</ele>
        <time>2022-07-28T08:06:42Z</time>
      </trkpt>
      <trkpt lat="45.65522" lon="6.51495">
        <ele>1891</ele>
        <time>2022-07-28T08:06:43Z</time>
      </trkpt>
      <trkpt lat="45.65521" lon="6.51493">
        <ele>1891</ele>
        <time>2022-07-28T08:06:44Z</time>
      </trkpt>
      <trkpt lat="45.65521" lon="6.51491">
        <ele>1891</ele>
        <time>2022-07-28T08:06:45Z</time>
      </trkpt>
      <trkpt lat="45.6552" lon="6.5149">
        <ele>1891</ele>
        <time>2022-07-28T08:06:46Z</time>
      </trkpt>
      <trkpt lat="45.6552" lon="6.51488">
        <ele>1890</ele>
        <time>2022-07-28T08:06:47Z</time>
      </trkpt>
      <trkpt lat="45.6552" lon="6.51487">
        <ele>1890</ele>
        <time>2022-07-28T08:06:48Z</time>
      </trkpt>
      <trkpt lat="45.65519" lon="6.51485">
        <ele>1890</ele>
        <time>2022-07-28T08:06:49Z</time>
      </trkpt>
      <trkpt lat="45.65519" lon="6.51483">
        <ele>1890</ele>
        <time>2022-07-28T08:06:50Z</time>
      </trkpt>
      <trkpt lat="45.65519" lon="6.51481">
        <ele>1890</ele>
        <time>2022-07-28T08:06:51Z</time>
      </trkpt>
      <trkpt lat="45.65519" lon="6.5148">
        <ele>1890</ele>
        <time>2022-07-28T08:06:52Z</time>
      </trkpt>
      <trkpt lat="45.65519" lon="6.51478">
        <ele>1890</ele>
        <time>2022-07-28T08:06:53Z</time>
      </trkpt>
      <trkpt lat="45.65518" lon="6.51476">
        <ele>1890</ele>
        <time>2022-07-28T08:06:54Z</time>
      </trkpt>
      <trkpt lat="45.65518" lon="6.51474">
        <ele>1890</ele>
        <time>2022-07-28T08:06:55Z</time>
      </trkpt>
      <trkpt lat="45.65518" lon="6.51473">
        <ele>1890</ele>
        <time>2022-07-28T08:06:56Z</time>
      </trkpt>
      <trkpt lat="45.65517" lon="6.51471">
        <ele>1890</ele>
        <time>2022-07-28T08:06:57Z</time>
      </trkpt>
      <trkpt lat="45.65517" lon="6.5147">
        <ele>1890</ele>
        <time>2022-07-28T08:06:58Z</time>
      </trkpt>
      <trkpt lat="45.65517" lon="6.51468">
        <ele>1890</ele>
        <time>2022-07-28T08:06:59Z</time>
      </trkpt>
      <trkpt lat="45.65516" lon="6.51467">
        <ele>1890</ele>
        <time>2022-07-28T08:07:00Z</time>
      </trkpt>
      <trkpt lat="45.65516" lon="6.51465">
        <ele>1890</ele>
        <time>2022-07-28T08:07:01Z</time>
      </trkpt>
      <trkpt lat="45.65515" lon="6.51464">
        <ele>1889</ele>
        <time>2022-07-28T08:07:02Z</time>
      </trkpt>
      <trkpt lat="45.65515" lon="6.51462">
        <ele>1889</ele>
        <time>2022-07-28T08:07:03Z</time>
      </trkpt>
      <trkpt lat="45.65515" lon="6.5146">
        <ele>1889</ele>
        <time>2022-07-28T08:07:04Z</time>
      </trkpt>
      <trkpt lat="45.65515" lon="6.51459">
        <ele>1889</ele>
        <time>2022-07-28T08:07:05Z</time>
      </trkpt>
      <trkpt lat="45.65514" lon="6.51457">
        <ele>1889</ele>
        <time>2022-07-28T08:07:06Z</time>
      </trkpt>
      <trkpt lat="45.65514" lon="6.51456">
        <ele>1889</ele>
        <time>2022-07-28T08:07:07Z</time>
      </trkpt>
      <trkpt lat="45.65513" lon="6.51454">
        <ele>1889</ele>
        <time>2022-07-28T08:07:08Z</time>
      </trkpt>
      <trkpt lat="45.65513" lon="6.51453">
        <ele>1889</ele>
        <time>2022-07-28T08:07:09Z</time>
      </trkpt>
      <trkpt lat="45.65512" lon="6.51451">
        <ele>1889</ele>
        <time>2022-07-28T08:07:10Z</time>
      </trkpt>
      <trkpt lat="45.65512" lon="6.5145">
        <ele>1889</ele>
        <time>2022-07-28T08:07:11Z</time>
      </trkpt>
      <trkpt lat="45.65511" lon="6.51448">
        <ele>1889</ele>
        <time>2022-07-28T08:07:12Z</time>
      </trkpt>
      <trkpt lat="45.6551" lon="6.51447">
        <ele>1889</ele>
        <time>2022-07-28T08:07:13Z</time>
      </trkpt>
      <trkpt lat="45.65509" lon="6.51445">
        <ele>1889</ele>
        <time>2022-07-28T08:07:14Z</time>
      </trkpt>
      <trkpt lat="45.65509" lon="6.51444">
        <ele>1889</ele>
        <time>2022-07-28T08:07:15Z</time>
      </trkpt>
      <trkpt lat="45.65508" lon="6.51442">
        <ele>1889</ele>
        <time>2022-07-28T08:07:16Z</time>
      </trkpt>
      <trkpt lat="45.65508" lon="6.51441">
        <ele>1888</ele>
        <time>2022-07-28T08:07:17Z</time>
      </trkpt>
      <trkpt lat="45.65507" lon="6.51439">
        <ele>1888</ele>
        <time>2022-07-28T08:07:18Z</time>
      </trkpt>
      <trkpt lat="45.65507" lon="6.51438">
        <ele>1888</ele>
        <time>2022-07-28T08:07:19Z</time>
      </trkpt>
      <trkpt lat="45.65507" lon="6.51436">
        <ele>1888</ele>
        <time>2022-07-28T08:07:20Z</time>
      </trkpt>
      <trkpt lat="45.65506" lon="6.51435">
        <ele>1888</ele>
        <time>2022-07-28T08:07:21Z</time>
      </trkpt>
      <trkpt lat="45.65506" lon="6.51433">
        <ele>1888</ele>
        <time>2022-07-28T08:07:22Z</time>
      </trkpt>
      <trkpt lat="45.65506" lon="6.51431">
        <ele>1888</ele>
        <time>2022-07-28T08:07:23Z</time>
      </trkpt>
      <trkpt lat="45.65505" lon="6.5143">
        <ele>1888</ele>
        <time>2022-07-28T08:07:24Z</time>
      </trkpt>
      <trkpt lat="45.65505" lon="6.51428">
        <ele>1888</ele>
        <time>2022-07-28T08:07:25Z</time>
      </trkpt>
      <trkpt lat="45.65505" lon="6.51427">
        <ele>1888</ele>
        <time>2022-07-28T08:07:26Z</time>
      </trkpt>
      <trkpt lat="45.65504" lon="6.51425">
        <ele>1887</ele>
        <time>2022-07-28T08:07:27Z</time>
      </trkpt>
      <trkpt lat="45.65504" lon="6.51424">
        <ele>1887</ele>
        <time>2022-07-28T08:07:28Z</time>
      </trkpt>
      <trkpt lat="45.65504" lon="6.51422">
        <ele>1887</ele>
        <time>2022-07-28T08:07:29Z</time>
      </trkpt>
      <trkpt lat="45.65503" lon="6.51421">
        <ele>1887</ele>
        <time>2022-07-28T08:07:30Z</time>
      </trkpt>
      <trkpt lat="45.65503" lon="6.5142">
        <ele>1887</ele>
        <time>2022-07-28T08:07:31Z</time>
      </trkpt>
      <trkpt lat="45.65502" lon="6.51419">
        <ele>1887</ele>
        <time>2022-07-28T08:07:32Z</time>
      </trkpt>
      <trkpt lat="45.65501" lon="6.51418">
        <ele>1887</ele>
        <time>2022-07-28T08:07:33Z</time>
      </trkpt>
      <trkpt lat="45.65501" lon="6.51416">
        <ele>1887</ele>
        <time>2022-07-28T08:07:34Z</time>
      </trkpt>
      <trkpt lat="45.655" lon="6.51415">
        <ele>1887</ele>
        <time>2022-07-28T08:07:35Z</time>
      </trkpt>
      <trkpt lat="45.65499" lon="6.51414">
        <ele>1887</ele>
        <time>2022-07-28T08:07:36Z</time>
      </trkpt>
      <trkpt lat="45.65499" lon="6.51413">
        <ele>1886</ele>
        <time>2022-07-28T08:07:37Z</time>
      </trkpt>
      <trkpt lat="45.65499" lon="6.51411">
        <ele>1886</ele>
        <time>2022-07-28T08:07:38Z</time>
      </trkpt>
      <trkpt lat="45.65498" lon="6.5141">
        <ele>1886</ele>
        <time>2022-07-28T08:07:39Z</time>
      </trkpt>
      <trkpt lat="45.65498" lon="6.51408">
        <ele>1886</ele>
        <time>2022-07-28T08:07:40Z</time>
      </trkpt>
      <trkpt lat="45.65498" lon="6.51407">
        <ele>1886</ele>
        <time>2022-07-28T08:07:41Z</time>
      </trkpt>
      <trkpt lat="45.65498" lon="6.51406">
        <ele>1886</ele>
        <time>2022-07-28T08:07:42Z</time>
      </trkpt>
      <trkpt lat="45.65498" lon="6.51404">
        <ele>1886</ele>
        <time>2022-07-28T08:07:43Z</time>
      </trkpt>
      <trkpt lat="45.65497" lon="6.51403">
        <ele>1886</ele>
        <time>2022-07-28T08:07:44Z</time>
      </trkpt>
      <trkpt lat="45.65497" lon="6.51402">
        <ele>1886</ele>
        <time>2022-07-28T08:07:45Z</time>
      </trkpt>
      <trkpt lat="45.65497" lon="6.51401">
        <ele>1886</ele>
        <time>2022-07-28T08:07:46Z</time>
      </trkpt>
      <trkpt lat="45.65497" lon="6.51399">
        <ele>1886</ele>
        <time>2022-07-28T08:07:47Z</time>
      </trkpt>
      <trkpt lat="45.65496" lon="6.51398">
        <ele>1886</ele>
        <time>2022-07-28T08:07:48Z</time>
      </trkpt>
      <trkpt lat="45.65496" lon="6.51397">
        <ele>1886</ele>
        <time>2022-07-28T08:07:49Z</time>
      </trkpt>
      <trkpt lat="45.65496" lon="6.51396">
        <ele>1886</ele>
        <time>2022-07-28T08:07:50Z</time>
      </trkpt>
      <trkpt lat="45.65496" lon="6.51394">
        <ele>1886</ele>
        <time>2022-07-28T08:07:51Z</time>
      </trkpt>
      <trkpt lat="45.65495" lon="6.51393">
        <ele>1886</ele>
        <time>2022-07-28T08:07:52Z</time>
      </trkpt>
      <trkpt lat="45.65495" lon="6.51392">
        <ele>1886</ele>
        <time>2022-07-28T08:07:53Z</time>
      </trkpt>
      <trkpt lat="45.65495" lon="6.5139">
        <ele>1886</ele>
        <time>2022-07-28T08:07:54Z</time>
      </trkpt>
      <trkpt lat="45.65495" lon="6.51389">
        <ele>1886</ele>
        <time>2022-07-28T08:07:55Z</time>
      </trkpt>
      <trkpt lat="45.65495" lon="6.51387">
        <ele>1886</ele>
        <time>2022-07-28T08:07:56Z</time>
      </trkpt>
      <trkpt lat="45.65494" lon="6.51386">
        <ele>1886</ele>
        <time>2022-07-28T08:07:57Z</time>
      </trkpt>
      <trkpt lat="45.65494" lon="6.51384">
        <ele>1886</ele>
        <time>2022-07-28T08:07:58Z</time>
      </trkpt>
      <trkpt lat="45.65494" lon="6.51383">
        <ele>1886</ele>
        <time>2022-07-28T08:07:59Z</time>
      </trkpt>
      <trkpt lat="45.65493" lon="6.51381">
        <ele>1886</ele>
        <time>2022-07-28T08:08:00Z</time>
      </trkpt>
      <trkpt lat="45.65493" lon="6.5138">
        <ele>1886</ele>
        <time>2022-07-28T08:08:01Z</time>
      </trkpt>
      <trkpt lat="45.65493" lon="6.51379">
        <ele>1886</ele>
        <time>2022-07-28T08:08:02Z</time>
      </trkpt>
      <trkpt lat="45.65492" lon="6.51378">
        <ele>1886</ele>
        <time>2022-07-28T08:08:03Z</time>
      </trkpt>
      <trkpt lat="45.65492" lon="6.51376">
        <ele>1886</ele>
        <time>2022-07-28T08:08:04Z</time>
      </trkpt>
      <trkpt lat="45.65491" lon="6.51375">
        <ele>1886</ele>
        <time>2022-07-28T08:08:05Z</time>
      </trkpt>
      <trkpt lat="45.65491" lon="6.51374">
        <ele>1886</ele>
        <time>2022-07-28T08:08:06Z</time>
      </trkpt>
      <trkpt lat="45.65491" lon="6.51372">
        <ele>1886</ele>
        <time>2022-07-28T08:08:07Z</time>
      </trkpt>
      <trkpt lat="45.6549" lon="6.51371">
        <ele>1886</ele>
        <time>2022-07-28T08:08:08Z</time>
      </trkpt>
      <trkpt lat="45.6549" lon="6.51369">
        <ele>1886</ele>
        <time>2022-07-28T08:08:09Z</time>
      </trkpt>
      <trkpt lat="45.6549" lon="6.51368">
        <ele>1886</ele>
        <time>2022-07-28T08:08:10Z</time>
      </trkpt>
      <trkpt lat="45.65489" lon="6.51367">
        <ele>1887</ele>
        <time>2022-07-28T08:08:11Z</time>
      </trkpt>
      <trkpt lat="45.65489" lon="6.51365">
        <ele>1887</ele>
        <time>2022-07-28T08:08:12Z</time>
      </trkpt>
      <trkpt lat="45.65488" lon="6.51364">
        <ele>1887</ele>
        <time>2022-07-28T08:08:13Z</time>
      </trkpt>
      <trkpt lat="45.65488" lon="6.51363">
        <ele>1887</ele>
        <time>2022-07-28T08:08:14Z</time>
      </trkpt>
      <trkpt lat="45.65487" lon="6.51362">
        <ele>1887</ele>
        <time>2022-07-28T08:08:15Z</time>
      </trkpt>
      <trkpt lat="45.65487" lon="6.51361">
        <ele>1887</ele>
        <time>2022-07-28T08:08:16Z</time>
      </trkpt>
      <trkpt lat="45.65486" lon="6.51359">
        <ele>1887</ele>
        <time>2022-07-28T08:08:17Z</time>
      </trkpt>
      <trkpt lat="45.65485" lon="6.51358">
        <ele>1887</ele>
        <time>2022-07-28T08:08:18Z</time>
      </trkpt>
      <trkpt lat="45.65485" lon="6.51357">
        <ele>1887</ele>
        <time>2022-07-28T08:08:19Z</time>
      </trkpt>
      <trkpt lat="45.65484" lon="6.51356">
        <ele>1887</ele>
        <time>2022-07-28T08:08:20Z</time>
      </trkpt>
      <trkpt lat="45.65484" lon="6.51354">
        <ele>1887</ele>
        <time>2022-07-28T08:08:21Z</time>
      </trkpt>
      <trkpt lat="45.65483" lon="6.51353">
        <ele>1886</ele>
        <time>2022-07-28T08:08:22Z</time>
      </trkpt>
      <trkpt lat="45.65482" lon="6.51351">
        <ele>1886</ele>
        <time>2022-07-28T08:08:23Z</time>
      </trkpt>
      <trkpt lat="45.65482" lon="6.5135">
        <ele>1886</ele>
        <time>2022-07-28T08:08:24Z</time>
      </trkpt>
      <trkpt lat="45.65481" lon="6.51349">
        <ele>1886</ele>
        <time>2022-07-28T08:08:25Z</time>
      </trkpt>
      <trkpt lat="45.65481" lon="6.51347">
        <ele>1886</ele>
        <time>2022-07-28T08:08:26Z</time>
      </trkpt>
      <trkpt lat="45.6548" lon="6.51346">
        <ele>1886</ele>
        <time>2022-07-28T08:08:27Z</time>
      </trkpt>
      <trkpt lat="45.65479" lon="6.51344">
        <ele>1886</ele>
        <time>2022-07-28T08:08:28Z</time>
      </trkpt>
      <trkpt lat="45.65479" lon="6.51343">
        <ele>1886</ele>
        <time>2022-07-28T08:08:29Z</time>
      </trkpt>
      <trkpt lat="45.65478" lon="6.51342">
        <ele>1886</ele>
        <time>2022-07-28T08:08:30Z</time>
      </trkpt>
      <trkpt lat="45.65477" lon="6.51341">
        <ele>1886</ele>
        <time>2022-07-28T08:08:31Z</time>
      </trkpt>
      <trkpt lat="45.65476" lon="6.5134">
        <ele>1886</ele>
        <time>2022-07-28T08:08:32Z</time>
      </trkpt>
      <trkpt lat="45.65476" lon="6.51338">
        <ele>1886</ele>
        <time>2022-07-28T08:08:33Z</time>
      </trkpt>
      <trkpt lat="45.65475" lon="6.51337">
        <ele>1886</ele>
        <time>2022-07-28T08:08:34Z</time>
      </trkpt>
      <trkpt lat="45.65474" lon="6.51336">
        <ele>1886</ele>
        <time>2022-07-28T08:08:35Z</time>
      </trkpt>
      <trkpt lat="45.65474" lon="6.51335">
        <ele>1886</ele>
        <time>2022-07-28T08:08:36Z</time>
      </trkpt>
      <trkpt lat="45.65473" lon="6.51334">
        <ele>1886</ele>
        <time>2022-07-28T08:08:37Z</time>
      </trkpt>
      <trkpt lat="45.65472" lon="6.51332">
        <ele>1886</ele>
        <time>2022-07-28T08:08:38Z</time>
      </trkpt>
      <trkpt lat="45.65472" lon="6.51331">
        <ele>1886</ele>
        <time>2022-07-28T08:08:39Z</time>
      </trkpt>
      <trkpt lat="45.65471" lon="6.5133">
        <ele>1886</ele>
        <time>2022-07-28T08:08:40Z</time>
      </trkpt>
      <trkpt lat="45.65471" lon="6.51329">
        <ele>1886</ele>
        <time>2022-07-28T08:08:41Z</time>
      </trkpt>
      <trkpt lat="45.6547" lon="6.51328">
        <ele>1886</ele>
        <time>2022-07-28T08:08:42Z</time>
      </trkpt>
      <trkpt lat="45.6547" lon="6.51326">
        <ele>1886</ele>
        <time>2022-07-28T08:08:43Z</time>
      </trkpt>
      <trkpt lat="45.65469" lon="6.51325">
        <ele>1886</ele>
        <time>2022-07-28T08:08:44Z</time>
      </trkpt>
      <trkpt lat="45.65469" lon="6.51324">
        <ele>1886</ele>
        <time>2022-07-28T08:08:45Z</time>
      </trkpt>
      <trkpt lat="45.65469" lon="6.51322">
        <ele>1886</ele>
        <time>2022-07-28T08:08:46Z</time>
      </trkpt>
      <trkpt lat="45.65469" lon="6.51322">
        <ele>1886</ele>
        <time>2022-07-28T08:08:47Z</time>
      </trkpt>
      <trkpt lat="45.65468" lon="6.51322">
        <ele>1886</ele>
        <time>2022-07-28T08:08:48Z</time>
      </trkpt>
      <trkpt lat="45.65468" lon="6.51321">
        <ele>1886</ele>
        <time>2022-07-28T08:08:49Z</time>
      </trkpt>
      <trkpt lat="45.65468" lon="6.51321">
        <ele>1886</ele>
        <time>2022-07-28T08:08:50Z</time>
      </trkpt>
      <trkpt lat="45.65468" lon="6.51321">
        <ele>1886</ele>
        <time>2022-07-28T08:08:51Z</time>
      </trkpt>
      <trkpt lat="45.65468" lon="6.5132">
        <ele>1885</ele>
        <time>2022-07-28T08:08:52Z</time>
      </trkpt>
      <trkpt lat="45.65468" lon="6.51319">
        <ele>1885</ele>
        <time>2022-07-28T08:08:53Z</time>
      </trkpt>
      <trkpt lat="45.65468" lon="6.51318">
        <ele>1885</ele>
        <time>2022-07-28T08:08:54Z</time>
      </trkpt>
      <trkpt lat="45.65468" lon="6.51317">
        <ele>1885</ele>
        <time>2022-07-28T08:08:55Z</time>
      </trkpt>
      <trkpt lat="45.65467" lon="6.51315">
        <ele>1885</ele>
        <time>2022-07-28T08:08:56Z</time>
      </trkpt>
      <trkpt lat="45.65467" lon="6.51314">
        <ele>1885</ele>
        <time>2022-07-28T08:08:57Z</time>
      </trkpt>
      <trkpt lat="45.65467" lon="6.51313">
        <ele>1885</ele>
        <time>2022-07-28T08:08:58Z</time>
      </trkpt>
      <trkpt lat="45.65466" lon="6.51311">
        <ele>1885</ele>
        <time>2022-07-28T08:08:59Z</time>
      </trkpt>
      <trkpt lat="45.65466" lon="6.5131">
        <ele>1885</ele>
        <time>2022-07-28T08:09:00Z</time>
      </trkpt>
      <trkpt lat="45.65465" lon="6.51309">
        <ele>1885</ele>
        <time>2022-07-28T08:09:01Z</time>
      </trkpt>
      <trkpt lat="45.65465" lon="6.51308">
        <ele>1885</ele>
        <time>2022-07-28T08:09:02Z</time>
      </trkpt>
      <trkpt lat="45.65464" lon="6.51306">
        <ele>1885</ele>
        <time>2022-07-28T08:09:03Z</time>
      </trkpt>
      <trkpt lat="45.65464" lon="6.51305">
        <ele>1885</ele>
        <time>2022-07-28T08:09:04Z</time>
      </trkpt>
      <trkpt lat="45.65463" lon="6.51304">
        <ele>1885</ele>
        <time>2022-07-28T08:09:05Z</time>
      </trkpt>
      <trkpt lat="45.65463" lon="6.51303">
        <ele>1885</ele>
        <time>2022-07-28T08:09:06Z</time>
      </trkpt>
      <trkpt lat="45.65462" lon="6.51301">
        <ele>1885</ele>
        <time>2022-07-28T08:09:07Z</time>
      </trkpt>
      <trkpt lat="45.65462" lon="6.513">
        <ele>1885</ele>
        <time>2022-07-28T08:09:08Z</time>
      </trkpt>
      <trkpt lat="45.65462" lon="6.51299">
        <ele>1885</ele>
        <time>2022-07-28T08:09:09Z</time>
      </trkpt>
      <trkpt lat="45.65461" lon="6.51297">
        <ele>1885</ele>
        <time>2022-07-28T08:09:10Z</time>
      </trkpt>
      <trkpt lat="45.65461" lon="6.51296">
        <ele>1885</ele>
        <time>2022-07-28T08:09:11Z</time>
      </trkpt>
      <trkpt lat="45.6546" lon="6.51295">
        <ele>1885</ele>
        <time>2022-07-28T08:09:12Z</time>
      </trkpt>
      <trkpt lat="45.6546" lon="6.51293">
        <ele>1885</ele>
        <time>2022-07-28T08:09:13Z</time>
      </trkpt>
      <trkpt lat="45.65459" lon="6.51292">
        <ele>1885</ele>
        <time>2022-07-28T08:09:14Z</time>
      </trkpt>
      <trkpt lat="45.65459" lon="6.51291">
        <ele>1885</ele>
        <time>2022-07-28T08:09:15Z</time>
      </trkpt>
      <trkpt lat="45.65458" lon="6.5129">
        <ele>1885</ele>
        <time>2022-07-28T08:09:16Z</time>
      </trkpt>
      <trkpt lat="45.65458" lon="6.51288">
        <ele>1884</ele>
        <time>2022-07-28T08:09:17Z</time>
      </trkpt>
      <trkpt lat="45.65457" lon="6.51287">
        <ele>1884</ele>
        <time>2022-07-28T08:09:18Z</time>
      </trkpt>
      <trkpt lat="45.65456" lon="6.51286">
        <ele>1884</ele>
        <time>2022-07-28T08:09:19Z</time>
      </trkpt>
      <trkpt lat="45.65456" lon="6.51284">
        <ele>1884</ele>
        <time>2022-07-28T08:09:20Z</time>
      </trkpt>
      <trkpt lat="45.65456" lon="6.51283">
        <ele>1884</ele>
        <time>2022-07-28T08:09:21Z</time>
      </trkpt>
      <trkpt lat="45.65455" lon="6.51282">
        <ele>1884</ele>
        <time>2022-07-28T08:09:22Z</time>
      </trkpt>
      <trkpt lat="45.65455" lon="6.5128">
        <ele>1884</ele>
        <time>2022-07-28T08:09:23Z</time>
      </trkpt>
      <trkpt lat="45.65454" lon="6.51279">
        <ele>1884</ele>
        <time>2022-07-28T08:09:24Z</time>
      </trkpt>
      <trkpt lat="45.65453" lon="6.51278">
        <ele>1884</ele>
        <time>2022-07-28T08:09:25Z</time>
      </trkpt>
      <trkpt lat="45.65453" lon="6.51276">
        <ele>1884</ele>
        <time>2022-07-28T08:09:26Z</time>
      </trkpt>
      <trkpt lat="45.65452" lon="6.51275">
        <ele>1884</ele>
        <time>2022-07-28T08:09:27Z</time>
      </trkpt>
      <trkpt lat="45.65451" lon="6.51274">
        <ele>1884</ele>
        <time>2022-07-28T08:09:28Z</time>
      </trkpt>
      <trkpt lat="45.65451" lon="6.51273">
        <ele>1884</ele>
        <time>2022-07-28T08:09:29Z</time>
      </trkpt>
      <trkpt lat="45.6545" lon="6.51271">
        <ele>1884</ele>
        <time>2022-07-28T08:09:30Z</time>
      </trkpt>
      <trkpt lat="45.65449" lon="6.5127">
        <ele>1884</ele>
        <time>2022-07-28T08:09:31Z</time>
      </trkpt>
      <trkpt lat="45.65449" lon="6.51269">
        <ele>1883</ele>
        <time>2022-07-28T08:09:32Z</time>
      </trkpt>
      <trkpt lat="45.65448" lon="6.51268">
        <ele>1883</ele>
        <time>2022-07-28T08:09:33Z</time>
      </trkpt>
      <trkpt lat="45.65448" lon="6.51266">
        <ele>1883</ele>
        <time>2022-07-28T08:09:34Z</time>
      </trkpt>
      <trkpt lat="45.65447" lon="6.51265">
        <ele>1883</ele>
        <time>2022-07-28T08:09:35Z</time>
      </trkpt>
      <trkpt lat="45.65447" lon="6.51264">
        <ele>1883</ele>
        <time>2022-07-28T08:09:36Z</time>
      </trkpt>
      <trkpt lat="45.65446" lon="6.51263">
        <ele>1883</ele>
        <time>2022-07-28T08:09:37Z</time>
      </trkpt>
      <trkpt lat="45.65446" lon="6.51262">
        <ele>1883</ele>
        <time>2022-07-28T08:09:38Z</time>
      </trkpt>
      <trkpt lat="45.65446" lon="6.5126">
        <ele>1883</ele>
        <time>2022-07-28T08:09:39Z</time>
      </trkpt>
      <trkpt lat="45.65445" lon="6.51259">
        <ele>1883</ele>
        <time>2022-07-28T08:09:40Z</time>
      </trkpt>
      <trkpt lat="45.65445" lon="6.51259">
        <ele>1883</ele>
        <time>2022-07-28T08:09:41Z</time>
      </trkpt>
      <trkpt lat="45.65444" lon="6.51258">
        <ele>1882</ele>
        <time>2022-07-28T08:09:42Z</time>
      </trkpt>
      <trkpt lat="45.65444" lon="6.51257">
        <ele>1882</ele>
        <time>2022-07-28T08:09:43Z</time>
      </trkpt>
      <trkpt lat="45.65443" lon="6.51256">
        <ele>1882</ele>
        <time>2022-07-28T08:09:44Z</time>
      </trkpt>
      <trkpt lat="45.65443" lon="6.51256">
        <ele>1882</ele>
        <time>2022-07-28T08:09:45Z</time>
      </trkpt>
      <trkpt lat="45.65442" lon="6.51255">
        <ele>1882</ele>
        <time>2022-07-28T08:09:46Z</time>
      </trkpt>
      <trkpt lat="45.65441" lon="6.51254">
        <ele>1881</ele>
        <time>2022-07-28T08:09:47Z</time>
      </trkpt>
      <trkpt lat="45.65441" lon="6.51253">
        <ele>1881</ele>
        <time>2022-07-28T08:09:48Z</time>
      </trkpt>
      <trkpt lat="45.6544" lon="6.51252">
        <ele>1881</ele>
        <time>2022-07-28T08:09:49Z</time>
      </trkpt>
      <trkpt lat="45.65439" lon="6.51251">
        <ele>1881</ele>
        <time>2022-07-28T08:09:50Z</time>
      </trkpt>
      <trkpt lat="45.65439" lon="6.5125">
        <ele>1881</ele>
        <time>2022-07-28T08:09:51Z</time>
      </trkpt>
      <trkpt lat="45.65438" lon="6.51249">
        <ele>1881</ele>
        <time>2022-07-28T08:09:52Z</time>
      </trkpt>
      <trkpt lat="45.65438" lon="6.51248">
        <ele>1881</ele>
        <time>2022-07-28T08:09:53Z</time>
      </trkpt>
      <trkpt lat="45.65438" lon="6.51247">
        <ele>1881</ele>
        <time>2022-07-28T08:09:54Z</time>
      </trkpt>
      <trkpt lat="45.65437" lon="6.51246">
        <ele>1881</ele>
        <time>2022-07-28T08:09:55Z</time>
      </trkpt>
      <trkpt lat="45.65437" lon="6.51245">
        <ele>1881</ele>
        <time>2022-07-28T08:09:56Z</time>
      </trkpt>
      <trkpt lat="45.65436" lon="6.51244">
        <ele>1880</ele>
        <time>2022-07-28T08:09:57Z</time>
      </trkpt>
      <trkpt lat="45.65436" lon="6.51243">
        <ele>1880</ele>
        <time>2022-07-28T08:09:58Z</time>
      </trkpt>
      <trkpt lat="45.65436" lon="6.51242">
        <ele>1880</ele>
        <time>2022-07-28T08:09:59Z</time>
      </trkpt>
      <trkpt lat="45.65436" lon="6.51241">
        <ele>1880</ele>
        <time>2022-07-28T08:10:00Z</time>
      </trkpt>
      <trkpt lat="45.65435" lon="6.5124">
        <ele>1880</ele>
        <time>2022-07-28T08:10:01Z</time>
      </trkpt>
      <trkpt lat="45.65435" lon="6.51238">
        <ele>1880</ele>
        <time>2022-07-28T08:10:02Z</time>
      </trkpt>
      <trkpt lat="45.65435" lon="6.51237">
        <ele>1880</ele>
        <time>2022-07-28T08:10:03Z</time>
      </trkpt>
      <trkpt lat="45.65435" lon="6.51236">
        <ele>1880</ele>
        <time>2022-07-28T08:10:04Z</time>
      </trkpt>
      <trkpt lat="45.65435" lon="6.51234">
        <ele>1880</ele>
        <time>2022-07-28T08:10:05Z</time>
      </trkpt>
      <trkpt lat="45.65434" lon="6.51233">
        <ele>1880</ele>
        <time>2022-07-28T08:10:06Z</time>
      </trkpt>
      <trkpt lat="45.65434" lon="6.51232">
        <ele>1880</ele>
        <time>2022-07-28T08:10:07Z</time>
      </trkpt>
      <trkpt lat="45.65434" lon="6.5123">
        <ele>1880</ele>
        <time>2022-07-28T08:10:08Z</time>
      </trkpt>
      <trkpt lat="45.65434" lon="6.51229">
        <ele>1880</ele>
        <time>2022-07-28T08:10:09Z</time>
      </trkpt>
      <trkpt lat="45.65433" lon="6.51228">
        <ele>1880</ele>
        <time>2022-07-28T08:10:10Z</time>
      </trkpt>
      <trkpt lat="45.65433" lon="6.51226">
        <ele>1880</ele>
        <time>2022-07-28T08:10:11Z</time>
      </trkpt>
      <trkpt lat="45.65433" lon="6.51225">
        <ele>1879</ele>
        <time>2022-07-28T08:10:12Z</time>
      </trkpt>
      <trkpt lat="45.65432" lon="6.51223">
        <ele>1879</ele>
        <time>2022-07-28T08:10:13Z</time>
      </trkpt>
      <trkpt lat="45.65432" lon="6.51222">
        <ele>1879</ele>
        <time>2022-07-28T08:10:14Z</time>
      </trkpt>
      <trkpt lat="45.65431" lon="6.5122">
        <ele>1879</ele>
        <time>2022-07-28T08:10:15Z</time>
      </trkpt>
      <trkpt lat="45.65431" lon="6.51219">
        <ele>1879</ele>
        <time>2022-07-28T08:10:16Z</time>
      </trkpt>
      <trkpt lat="45.6543" lon="6.51218">
        <ele>1879</ele>
        <time>2022-07-28T08:10:17Z</time>
      </trkpt>
      <trkpt lat="45.6543" lon="6.51217">
        <ele>1879</ele>
        <time>2022-07-28T08:10:18Z</time>
      </trkpt>
      <trkpt lat="45.65429" lon="6.51216">
        <ele>1879</ele>
        <time>2022-07-28T08:10:19Z</time>
      </trkpt>
      <trkpt lat="45.65429" lon="6.51215">
        <ele>1879</ele>
        <time>2022-07-28T08:10:20Z</time>
      </trkpt>
      <trkpt lat="45.65428" lon="6.51215">
        <ele>1879</ele>
        <time>2022-07-28T08:10:21Z</time>
      </trkpt>
      <trkpt lat="45.65428" lon="6.51214">
        <ele>1878</ele>
        <time>2022-07-28T08:10:22Z</time>
      </trkpt>
      <trkpt lat="45.65427" lon="6.51214">
        <ele>1878</ele>
        <time>2022-07-28T08:10:23Z</time>
      </trkpt>
      <trkpt lat="45.65427" lon="6.51213">
        <ele>1878</ele>
        <time>2022-07-28T08:10:24Z</time>
      </trkpt>
      <trkpt lat="45.65426" lon="6.51212">
        <ele>1878</ele>
        <time>2022-07-28T08:10:25Z</time>
      </trkpt>
      <trkpt lat="45.65426" lon="6.51211">
        <ele>1878</ele>
        <time>2022-07-28T08:10:26Z</time>
      </trkpt>
      <trkpt lat="45.65425" lon="6.51211">
        <ele>1878</ele>
        <time>2022-07-28T08:10:27Z</time>
      </trkpt>
      <trkpt lat="45.65424" lon="6.51209">
        <ele>1878</ele>
        <time>2022-07-28T08:10:28Z</time>
      </trkpt>
      <trkpt lat="45.65423" lon="6.51208">
        <ele>1878</ele>
        <time>2022-07-28T08:10:29Z</time>
      </trkpt>
      <trkpt lat="45.65423" lon="6.51207">
        <ele>1878</ele>
        <time>2022-07-28T08:10:30Z</time>
      </trkpt>
      <trkpt lat="45.65422" lon="6.51206">
        <ele>1878</ele>
        <time>2022-07-28T08:10:31Z</time>
      </trkpt>
      <trkpt lat="45.65422" lon="6.51205">
        <ele>1878</ele>
        <time>2022-07-28T08:10:32Z</time>
      </trkpt>
      <trkpt lat="45.65421" lon="6.51203">
        <ele>1878</ele>
        <time>2022-07-28T08:10:33Z</time>
      </trkpt>
      <trkpt lat="45.65421" lon="6.51202">
        <ele>1878</ele>
        <time>2022-07-28T08:10:34Z</time>
      </trkpt>
      <trkpt lat="45.6542" lon="6.51201">
        <ele>1878</ele>
        <time>2022-07-28T08:10:35Z</time>
      </trkpt>
      <trkpt lat="45.65419" lon="6.512">
        <ele>1878</ele>
        <time>2022-07-28T08:10:36Z</time>
      </trkpt>
      <trkpt lat="45.65419" lon="6.51199">
        <ele>1877</ele>
        <time>2022-07-28T08:10:37Z</time>
      </trkpt>
      <trkpt lat="45.65418" lon="6.51197">
        <ele>1877</ele>
        <time>2022-07-28T08:10:38Z</time>
      </trkpt>
      <trkpt lat="45.65418" lon="6.51196">
        <ele>1877</ele>
        <time>2022-07-28T08:10:39Z</time>
      </trkpt>
      <trkpt lat="45.65417" lon="6.51195">
        <ele>1877</ele>
        <time>2022-07-28T08:10:40Z</time>
      </trkpt>
      <trkpt lat="45.65416" lon="6.51193">
        <ele>1877</ele>
        <time>2022-07-28T08:10:41Z</time>
      </trkpt>
      <trkpt lat="45.65416" lon="6.51192">
        <ele>1877</ele>
        <time>2022-07-28T08:10:42Z</time>
      </trkpt>
      <trkpt lat="45.65415" lon="6.5119">
        <ele>1877</ele>
        <time>2022-07-28T08:10:43Z</time>
      </trkpt>
      <trkpt lat="45.65415" lon="6.51189">
        <ele>1877</ele>
        <time>2022-07-28T08:10:44Z</time>
      </trkpt>
      <trkpt lat="45.65415" lon="6.51187">
        <ele>1877</ele>
        <time>2022-07-28T08:10:45Z</time>
      </trkpt>
      <trkpt lat="45.65414" lon="6.51186">
        <ele>1877</ele>
        <time>2022-07-28T08:10:46Z</time>
      </trkpt>
      <trkpt lat="45.65414" lon="6.51185">
        <ele>1876</ele>
        <time>2022-07-28T08:10:47Z</time>
      </trkpt>
      <trkpt lat="45.65413" lon="6.51184">
        <ele>1876</ele>
        <time>2022-07-28T08:10:48Z</time>
      </trkpt>
      <trkpt lat="45.65413" lon="6.51182">
        <ele>1876</ele>
        <time>2022-07-28T08:10:49Z</time>
      </trkpt>
      <trkpt lat="45.65412" lon="6.51181">
        <ele>1876</ele>
        <time>2022-07-28T08:10:50Z</time>
      </trkpt>
      <trkpt lat="45.65412" lon="6.5118">
        <ele>1876</ele>
        <time>2022-07-28T08:10:51Z</time>
      </trkpt>
      <trkpt lat="45.65411" lon="6.51178">
        <ele>1876</ele>
        <time>2022-07-28T08:10:52Z</time>
      </trkpt>
      <trkpt lat="45.65411" lon="6.51177">
        <ele>1876</ele>
        <time>2022-07-28T08:10:53Z</time>
      </trkpt>
      <trkpt lat="45.65411" lon="6.51176">
        <ele>1876</ele>
        <time>2022-07-28T08:10:54Z</time>
      </trkpt>
      <trkpt lat="45.6541" lon="6.51174">
        <ele>1876</ele>
        <time>2022-07-28T08:10:55Z</time>
      </trkpt>
      <trkpt lat="45.6541" lon="6.51173">
        <ele>1876</ele>
        <time>2022-07-28T08:10:56Z</time>
      </trkpt>
      <trkpt lat="45.65409" lon="6.51171">
        <ele>1876</ele>
        <time>2022-07-28T08:10:57Z</time>
      </trkpt>
      <trkpt lat="45.65409" lon="6.5117">
        <ele>1876</ele>
        <time>2022-07-28T08:10:58Z</time>
      </trkpt>
      <trkpt lat="45.65409" lon="6.51168">
        <ele>1876</ele>
        <time>2022-07-28T08:10:59Z</time>
      </trkpt>
      <trkpt lat="45.65408" lon="6.51167">
        <ele>1876</ele>
        <time>2022-07-28T08:11:00Z</time>
      </trkpt>
      <trkpt lat="45.65408" lon="6.51166">
        <ele>1876</ele>
        <time>2022-07-28T08:11:01Z</time>
      </trkpt>
      <trkpt lat="45.65407" lon="6.51164">
        <ele>1875</ele>
        <time>2022-07-28T08:11:02Z</time>
      </trkpt>
      <trkpt lat="45.65407" lon="6.51163">
        <ele>1875</ele>
        <time>2022-07-28T08:11:03Z</time>
      </trkpt>
      <trkpt lat="45.65406" lon="6.51162">
        <ele>1875</ele>
        <time>2022-07-28T08:11:04Z</time>
      </trkpt>
      <trkpt lat="45.65406" lon="6.5116">
        <ele>1875</ele>
        <time>2022-07-28T08:11:05Z</time>
      </trkpt>
      <trkpt lat="45.65406" lon="6.51159">
        <ele>1875</ele>
        <time>2022-07-28T08:11:06Z</time>
      </trkpt>
      <trkpt lat="45.65405" lon="6.51157">
        <ele>1874</ele>
        <time>2022-07-28T08:11:07Z</time>
      </trkpt>
      <trkpt lat="45.65405" lon="6.51156">
        <ele>1874</ele>
        <time>2022-07-28T08:11:08Z</time>
      </trkpt>
      <trkpt lat="45.65405" lon="6.51154">
        <ele>1874</ele>
        <time>2022-07-28T08:11:09Z</time>
      </trkpt>
      <trkpt lat="45.65405" lon="6.51153">
        <ele>1874</ele>
        <time>2022-07-28T08:11:10Z</time>
      </trkpt>
      <trkpt lat="45.65404" lon="6.51151">
        <ele>1874</ele>
        <time>2022-07-28T08:11:11Z</time>
      </trkpt>
      <trkpt lat="45.65404" lon="6.5115">
        <ele>1874</ele>
        <time>2022-07-28T08:11:12Z</time>
      </trkpt>
      <trkpt lat="45.65404" lon="6.51148">
        <ele>1874</ele>
        <time>2022-07-28T08:11:13Z</time>
      </trkpt>
      <trkpt lat="45.65403" lon="6.51147">
        <ele>1874</ele>
        <time>2022-07-28T08:11:14Z</time>
      </trkpt>
      <trkpt lat="45.65403" lon="6.51145">
        <ele>1874</ele>
        <time>2022-07-28T08:11:15Z</time>
      </trkpt>
      <trkpt lat="45.65403" lon="6.51144">
        <ele>1874</ele>
        <time>2022-07-28T08:11:16Z</time>
      </trkpt>
      <trkpt lat="45.65403" lon="6.51143">
        <ele>1873</ele>
        <time>2022-07-28T08:11:17Z</time>
      </trkpt>
      <trkpt lat="45.65402" lon="6.51141">
        <ele>1873</ele>
        <time>2022-07-28T08:11:18Z</time>
      </trkpt>
      <trkpt lat="45.65402" lon="6.5114">
        <ele>1873</ele>
        <time>2022-07-28T08:11:19Z</time>
      </trkpt>
      <trkpt lat="45.65402" lon="6.51138">
        <ele>1873</ele>
        <time>2022-07-28T08:11:20Z</time>
      </trkpt>
      <trkpt lat="45.65401" lon="6.51136">
        <ele>1873</ele>
        <time>2022-07-28T08:11:21Z</time>
      </trkpt>
      <trkpt lat="45.65401" lon="6.51135">
        <ele>1873</ele>
        <time>2022-07-28T08:11:22Z</time>
      </trkpt>
      <trkpt lat="45.65401" lon="6.51133">
        <ele>1873</ele>
        <time>2022-07-28T08:11:23Z</time>
      </trkpt>
      <trkpt lat="45.654" lon="6.51132">
        <ele>1873</ele>
        <time>2022-07-28T08:11:24Z</time>
      </trkpt>
      <trkpt lat="45.654" lon="6.5113">
        <ele>1873</ele>
        <time>2022-07-28T08:11:25Z</time>
      </trkpt>
      <trkpt lat="45.65399" lon="6.51129">
        <ele>1873</ele>
        <time>2022-07-28T08:11:26Z</time>
      </trkpt>
      <trkpt lat="45.65399" lon="6.51128">
        <ele>1873</ele>
        <time>2022-07-28T08:11:27Z</time>
      </trkpt>
      <trkpt lat="45.65399" lon="6.51127">
        <ele>1873</ele>
        <time>2022-07-28T08:11:28Z</time>
      </trkpt>
      <trkpt lat="45.65398" lon="6.51125">
        <ele>1873</ele>
        <time>2022-07-28T08:11:29Z</time>
      </trkpt>
      <trkpt lat="45.65398" lon="6.51124">
        <ele>1873</ele>
        <time>2022-07-28T08:11:30Z</time>
      </trkpt>
      <trkpt lat="45.65398" lon="6.51123">
        <ele>1873</ele>
        <time>2022-07-28T08:11:31Z</time>
      </trkpt>
      <trkpt lat="45.65397" lon="6.51121">
        <ele>1872</ele>
        <time>2022-07-28T08:11:32Z</time>
      </trkpt>
      <trkpt lat="45.65397" lon="6.5112">
        <ele>1872</ele>
        <time>2022-07-28T08:11:33Z</time>
      </trkpt>
      <trkpt lat="45.65397" lon="6.51118">
        <ele>1872</ele>
        <time>2022-07-28T08:11:34Z</time>
      </trkpt>
      <trkpt lat="45.65397" lon="6.51117">
        <ele>1872</ele>
        <time>2022-07-28T08:11:35Z</time>
      </trkpt>
      <trkpt lat="45.65396" lon="6.51115">
        <ele>1872</ele>
        <time>2022-07-28T08:11:36Z</time>
      </trkpt>
      <trkpt lat="45.65396" lon="6.51114">
        <ele>1872</ele>
        <time>2022-07-28T08:11:37Z</time>
      </trkpt>
      <trkpt lat="45.65396" lon="6.51113">
        <ele>1872</ele>
        <time>2022-07-28T08:11:38Z</time>
      </trkpt>
      <trkpt lat="45.65395" lon="6.51111">
        <ele>1872</ele>
        <time>2022-07-28T08:11:39Z</time>
      </trkpt>
      <trkpt lat="45.65395" lon="6.5111">
        <ele>1872</ele>
        <time>2022-07-28T08:11:40Z</time>
      </trkpt>
      <trkpt lat="45.65395" lon="6.51109">
        <ele>1872</ele>
        <time>2022-07-28T08:11:41Z</time>
      </trkpt>
      <trkpt lat="45.65394" lon="6.51107">
        <ele>1872</ele>
        <time>2022-07-28T08:11:42Z</time>
      </trkpt>
      <trkpt lat="45.65394" lon="6.51106">
        <ele>1872</ele>
        <time>2022-07-28T08:11:43Z</time>
      </trkpt>
      <trkpt lat="45.65394" lon="6.51104">
        <ele>1872</ele>
        <time>2022-07-28T08:11:44Z</time>
      </trkpt>
      <trkpt lat="45.65394" lon="6.51103">
        <ele>1872</ele>
        <time>2022-07-28T08:11:45Z</time>
      </trkpt>
      <trkpt lat="45.65394" lon="6.51102">
        <ele>1873</ele>
        <time>2022-07-28T08:11:46Z</time>
      </trkpt>
      <trkpt lat="45.65393" lon="6.511">
        <ele>1872</ele>
        <time>2022-07-28T08:11:47Z</time>
      </trkpt>
      <trkpt lat="45.65393" lon="6.51099">
        <ele>1872</ele>
        <time>2022-07-28T08:11:48Z</time>
      </trkpt>
      <trkpt lat="45.65393" lon="6.51097">
        <ele>1871</ele>
        <time>2022-07-28T08:11:49Z</time>
      </trkpt>
      <trkpt lat="45.65393" lon="6.51096">
        <ele>1871</ele>
        <time>2022-07-28T08:11:50Z</time>
      </trkpt>
      <trkpt lat="45.65392" lon="6.51094">
        <ele>1871</ele>
        <time>2022-07-28T08:11:51Z</time>
      </trkpt>
      <trkpt lat="45.65392" lon="6.51093">
        <ele>1871</ele>
        <time>2022-07-28T08:11:52Z</time>
      </trkpt>
      <trkpt lat="45.65392" lon="6.51091">
        <ele>1871</ele>
        <time>2022-07-28T08:11:53Z</time>
      </trkpt>
      <trkpt lat="45.65392" lon="6.5109">
        <ele>1871</ele>
        <time>2022-07-28T08:11:54Z</time>
      </trkpt>
      <trkpt lat="45.65391" lon="6.51089">
        <ele>1871</ele>
        <time>2022-07-28T08:11:55Z</time>
      </trkpt>
      <trkpt lat="45.65391" lon="6.51087">
        <ele>1871</ele>
        <time>2022-07-28T08:11:56Z</time>
      </trkpt>
      <trkpt lat="45.65391" lon="6.51086">
        <ele>1871</ele>
        <time>2022-07-28T08:11:57Z</time>
      </trkpt>
      <trkpt lat="45.65391" lon="6.51085">
        <ele>1871</ele>
        <time>2022-07-28T08:11:58Z</time>
      </trkpt>
      <trkpt lat="45.65391" lon="6.51084">
        <ele>1871</ele>
        <time>2022-07-28T08:11:59Z</time>
      </trkpt>
      <trkpt lat="45.6539" lon="6.51082">
        <ele>1871</ele>
        <time>2022-07-28T08:12:00Z</time>
      </trkpt>
      <trkpt lat="45.6539" lon="6.51081">
        <ele>1871</ele>
        <time>2022-07-28T08:12:01Z</time>
      </trkpt>
      <trkpt lat="45.6539" lon="6.5108">
        <ele>1871</ele>
        <time>2022-07-28T08:12:02Z</time>
      </trkpt>
      <trkpt lat="45.6539" lon="6.51078">
        <ele>1871</ele>
        <time>2022-07-28T08:12:03Z</time>
      </trkpt>
      <trkpt lat="45.65389" lon="6.51077">
        <ele>1871</ele>
        <time>2022-07-28T08:12:04Z</time>
      </trkpt>
      <trkpt lat="45.65389" lon="6.51076">
        <ele>1871</ele>
        <time>2022-07-28T08:12:05Z</time>
      </trkpt>
      <trkpt lat="45.65389" lon="6.51074">
        <ele>1871</ele>
        <time>2022-07-28T08:12:06Z</time>
      </trkpt>
      <trkpt lat="45.65389" lon="6.51073">
        <ele>1871</ele>
        <time>2022-07-28T08:12:07Z</time>
      </trkpt>
      <trkpt lat="45.65389" lon="6.51071">
        <ele>1871</ele>
        <time>2022-07-28T08:12:08Z</time>
      </trkpt>
      <trkpt lat="45.65389" lon="6.51069">
        <ele>1871</ele>
        <time>2022-07-28T08:12:09Z</time>
      </trkpt>
      <trkpt lat="45.65388" lon="6.51068">
        <ele>1871</ele>
        <time>2022-07-28T08:12:10Z</time>
      </trkpt>
      <trkpt lat="45.65388" lon="6.51067">
        <ele>1871</ele>
        <time>2022-07-28T08:12:11Z</time>
      </trkpt>
      <trkpt lat="45.65388" lon="6.51065">
        <ele>1871</ele>
        <time>2022-07-28T08:12:12Z</time>
      </trkpt>
      <trkpt lat="45.65387" lon="6.51064">
        <ele>1871</ele>
        <time>2022-07-28T08:12:13Z</time>
      </trkpt>
      <trkpt lat="45.65387" lon="6.51063">
        <ele>1871</ele>
        <time>2022-07-28T08:12:14Z</time>
      </trkpt>
      <trkpt lat="45.65387" lon="6.51062">
        <ele>1871</ele>
        <time>2022-07-28T08:12:15Z</time>
      </trkpt>
      <trkpt lat="45.65386" lon="6.5106">
        <ele>1871</ele>
        <time>2022-07-28T08:12:16Z</time>
      </trkpt>
      <trkpt lat="45.65386" lon="6.51059">
        <ele>1871</ele>
        <time>2022-07-28T08:12:17Z</time>
      </trkpt>
      <trkpt lat="45.65385" lon="6.51058">
        <ele>1871</ele>
        <time>2022-07-28T08:12:18Z</time>
      </trkpt>
      <trkpt lat="45.65385" lon="6.51057">
        <ele>1871</ele>
        <time>2022-07-28T08:12:19Z</time>
      </trkpt>
      <trkpt lat="45.65384" lon="6.51055">
        <ele>1871</ele>
        <time>2022-07-28T08:12:20Z</time>
      </trkpt>
      <trkpt lat="45.65384" lon="6.51054">
        <ele>1871</ele>
        <time>2022-07-28T08:12:21Z</time>
      </trkpt>
      <trkpt lat="45.65384" lon="6.51053">
        <ele>1870</ele>
        <time>2022-07-28T08:12:22Z</time>
      </trkpt>
      <trkpt lat="45.65383" lon="6.51051">
        <ele>1870</ele>
        <time>2022-07-28T08:12:23Z</time>
      </trkpt>
      <trkpt lat="45.65383" lon="6.5105">
        <ele>1869</ele>
        <time>2022-07-28T08:12:24Z</time>
      </trkpt>
      <trkpt lat="45.65383" lon="6.51049">
        <ele>1869</ele>
        <time>2022-07-28T08:12:25Z</time>
      </trkpt>
      <trkpt lat="45.65383" lon="6.51047">
        <ele>1869</ele>
        <time>2022-07-28T08:12:26Z</time>
      </trkpt>
      <trkpt lat="45.65382" lon="6.51046">
        <ele>1869</ele>
        <time>2022-07-28T08:12:27Z</time>
      </trkpt>
      <trkpt lat="45.65382" lon="6.51045">
        <ele>1869</ele>
        <time>2022-07-28T08:12:28Z</time>
      </trkpt>
      <trkpt lat="45.65382" lon="6.51044">
        <ele>1869</ele>
        <time>2022-07-28T08:12:29Z</time>
      </trkpt>
      <trkpt lat="45.65381" lon="6.51043">
        <ele>1869</ele>
        <time>2022-07-28T08:12:30Z</time>
      </trkpt>
      <trkpt lat="45.65381" lon="6.51042">
        <ele>1869</ele>
        <time>2022-07-28T08:12:31Z</time>
      </trkpt>
      <trkpt lat="45.65381" lon="6.5104">
        <ele>1869</ele>
        <time>2022-07-28T08:12:32Z</time>
      </trkpt>
      <trkpt lat="45.6538" lon="6.51039">
        <ele>1869</ele>
        <time>2022-07-28T08:12:33Z</time>
      </trkpt>
      <trkpt lat="45.6538" lon="6.51038">
        <ele>1869</ele>
        <time>2022-07-28T08:12:34Z</time>
      </trkpt>
      <trkpt lat="45.65379" lon="6.51037">
        <ele>1869</ele>
        <time>2022-07-28T08:12:35Z</time>
      </trkpt>
      <trkpt lat="45.65379" lon="6.51036">
        <ele>1869</ele>
        <time>2022-07-28T08:12:36Z</time>
      </trkpt>
      <trkpt lat="45.65378" lon="6.51034">
        <ele>1869</ele>
        <time>2022-07-28T08:12:37Z</time>
      </trkpt>
      <trkpt lat="45.65378" lon="6.51033">
        <ele>1869</ele>
        <time>2022-07-28T08:12:38Z</time>
      </trkpt>
      <trkpt lat="45.65378" lon="6.51031">
        <ele>1869</ele>
        <time>2022-07-28T08:12:39Z</time>
      </trkpt>
      <trkpt lat="45.65377" lon="6.5103">
        <ele>1869</ele>
        <time>2022-07-28T08:12:40Z</time>
      </trkpt>
      <trkpt lat="45.65377" lon="6.51028">
        <ele>1869</ele>
        <time>2022-07-28T08:12:41Z</time>
      </trkpt>
      <trkpt lat="45.65376" lon="6.51027">
        <ele>1869</ele>
        <time>2022-07-28T08:12:42Z</time>
      </trkpt>
      <trkpt lat="45.65376" lon="6.51025">
        <ele>1869</ele>
        <time>2022-07-28T08:12:43Z</time>
      </trkpt>
      <trkpt lat="45.65375" lon="6.51024">
        <ele>1869</ele>
        <time>2022-07-28T08:12:44Z</time>
      </trkpt>
      <trkpt lat="45.65375" lon="6.51022">
        <ele>1869</ele>
        <time>2022-07-28T08:12:45Z</time>
      </trkpt>
      <trkpt lat="45.65375" lon="6.51021">
        <ele>1869</ele>
        <time>2022-07-28T08:12:46Z</time>
      </trkpt>
      <trkpt lat="45.65374" lon="6.51019">
        <ele>1868</ele>
        <time>2022-07-28T08:12:47Z</time>
      </trkpt>
      <trkpt lat="45.65374" lon="6.51018">
        <ele>1868</ele>
        <time>2022-07-28T08:12:48Z</time>
      </trkpt>
      <trkpt lat="45.65374" lon="6.51016">
        <ele>1868</ele>
        <time>2022-07-28T08:12:49Z</time>
      </trkpt>
      <trkpt lat="45.65374" lon="6.51015">
        <ele>1868</ele>
        <time>2022-07-28T08:12:50Z</time>
      </trkpt>
      <trkpt lat="45.65374" lon="6.51014">
        <ele>1868</ele>
        <time>2022-07-28T08:12:51Z</time>
      </trkpt>
      <trkpt lat="45.65374" lon="6.51012">
        <ele>1868</ele>
        <time>2022-07-28T08:12:52Z</time>
      </trkpt>
      <trkpt lat="45.65374" lon="6.51011">
        <ele>1868</ele>
        <time>2022-07-28T08:12:53Z</time>
      </trkpt>
      <trkpt lat="45.65373" lon="6.51009">
        <ele>1868</ele>
        <time>2022-07-28T08:12:54Z</time>
      </trkpt>
      <trkpt lat="45.65373" lon="6.51008">
        <ele>1868</ele>
        <time>2022-07-28T08:12:55Z</time>
      </trkpt>
      <trkpt lat="45.65373" lon="6.51007">
        <ele>1868</ele>
        <time>2022-07-28T08:12:56Z</time>
      </trkpt>
      <trkpt lat="45.65372" lon="6.51006">
        <ele>1868</ele>
        <time>2022-07-28T08:12:57Z</time>
      </trkpt>
      <trkpt lat="45.65372" lon="6.51004">
        <ele>1868</ele>
        <time>2022-07-28T08:12:58Z</time>
      </trkpt>
      <trkpt lat="45.65372" lon="6.51003">
        <ele>1868</ele>
        <time>2022-07-28T08:12:59Z</time>
      </trkpt>
      <trkpt lat="45.65371" lon="6.51001">
        <ele>1868</ele>
        <time>2022-07-28T08:13:00Z</time>
      </trkpt>
      <trkpt lat="45.65371" lon="6.51">
        <ele>1868</ele>
        <time>2022-07-28T08:13:01Z</time>
      </trkpt>
      <trkpt lat="45.65371" lon="6.50999">
        <ele>1868</ele>
        <time>2022-07-28T08:13:02Z</time>
      </trkpt>
      <trkpt lat="45.6537" lon="6.50997">
        <ele>1868</ele>
        <time>2022-07-28T08:13:03Z</time>
      </trkpt>
      <trkpt lat="45.6537" lon="6.50996">
        <ele>1868</ele>
        <time>2022-07-28T08:13:04Z</time>
      </trkpt>
      <trkpt lat="45.6537" lon="6.50995">
        <ele>1868</ele>
        <time>2022-07-28T08:13:05Z</time>
      </trkpt>
      <trkpt lat="45.65369" lon="6.50993">
        <ele>1868</ele>
        <time>2022-07-28T08:13:06Z</time>
      </trkpt>
      <trkpt lat="45.65369" lon="6.50992">
        <ele>1868</ele>
        <time>2022-07-28T08:13:07Z</time>
      </trkpt>
      <trkpt lat="45.65369" lon="6.50991">
        <ele>1868</ele>
        <time>2022-07-28T08:13:08Z</time>
      </trkpt>
      <trkpt lat="45.65368" lon="6.50989">
        <ele>1868</ele>
        <time>2022-07-28T08:13:09Z</time>
      </trkpt>
      <trkpt lat="45.65367" lon="6.50988">
        <ele>1868</ele>
        <time>2022-07-28T08:13:10Z</time>
      </trkpt>
      <trkpt lat="45.65367" lon="6.50987">
        <ele>1868</ele>
        <time>2022-07-28T08:13:11Z</time>
      </trkpt>
      <trkpt lat="45.65366" lon="6.50986">
        <ele>1867</ele>
        <time>2022-07-28T08:13:12Z</time>
      </trkpt>
      <trkpt lat="45.65366" lon="6.50985">
        <ele>1867</ele>
        <time>2022-07-28T08:13:13Z</time>
      </trkpt>
      <trkpt lat="45.65365" lon="6.50984">
        <ele>1867</ele>
        <time>2022-07-28T08:13:14Z</time>
      </trkpt>
      <trkpt lat="45.65364" lon="6.50982">
        <ele>1867</ele>
        <time>2022-07-28T08:13:15Z</time>
      </trkpt>
      <trkpt lat="45.65364" lon="6.50981">
        <ele>1867</ele>
        <time>2022-07-28T08:13:16Z</time>
      </trkpt>
      <trkpt lat="45.65364" lon="6.5098">
        <ele>1867</ele>
        <time>2022-07-28T08:13:17Z</time>
      </trkpt>
      <trkpt lat="45.65363" lon="6.50979">
        <ele>1867</ele>
        <time>2022-07-28T08:13:18Z</time>
      </trkpt>
      <trkpt lat="45.65363" lon="6.50977">
        <ele>1867</ele>
        <time>2022-07-28T08:13:19Z</time>
      </trkpt>
      <trkpt lat="45.65363" lon="6.50976">
        <ele>1867</ele>
        <time>2022-07-28T08:13:20Z</time>
      </trkpt>
      <trkpt lat="45.65363" lon="6.50975">
        <ele>1867</ele>
        <time>2022-07-28T08:13:21Z</time>
      </trkpt>
      <trkpt lat="45.65362" lon="6.50974">
        <ele>1867</ele>
        <time>2022-07-28T08:13:22Z</time>
      </trkpt>
      <trkpt lat="45.65362" lon="6.50972">
        <ele>1867</ele>
        <time>2022-07-28T08:13:23Z</time>
      </trkpt>
      <trkpt lat="45.65361" lon="6.50971">
        <ele>1867</ele>
        <time>2022-07-28T08:13:24Z</time>
      </trkpt>
      <trkpt lat="45.65361" lon="6.5097">
        <ele>1867</ele>
        <time>2022-07-28T08:13:25Z</time>
      </trkpt>
      <trkpt lat="45.65361" lon="6.50969">
        <ele>1867</ele>
        <time>2022-07-28T08:13:26Z</time>
      </trkpt>
      <trkpt lat="45.6536" lon="6.50968">
        <ele>1866</ele>
        <time>2022-07-28T08:13:27Z</time>
      </trkpt>
      <trkpt lat="45.6536" lon="6.50966">
        <ele>1866</ele>
        <time>2022-07-28T08:13:28Z</time>
      </trkpt>
      <trkpt lat="45.65359" lon="6.50965">
        <ele>1866</ele>
        <time>2022-07-28T08:13:29Z</time>
      </trkpt>
      <trkpt lat="45.65359" lon="6.50964">
        <ele>1866</ele>
        <time>2022-07-28T08:13:30Z</time>
      </trkpt>
      <trkpt lat="45.65359" lon="6.50962">
        <ele>1866</ele>
        <time>2022-07-28T08:13:31Z</time>
      </trkpt>
      <trkpt lat="45.65359" lon="6.50961">
        <ele>1866</ele>
        <time>2022-07-28T08:13:32Z</time>
      </trkpt>
      <trkpt lat="45.65358" lon="6.5096">
        <ele>1866</ele>
        <time>2022-07-28T08:13:33Z</time>
      </trkpt>
      <trkpt lat="45.65358" lon="6.50959">
        <ele>1866</ele>
        <time>2022-07-28T08:13:34Z</time>
      </trkpt>
      <trkpt lat="45.65358" lon="6.50957">
        <ele>1866</ele>
        <time>2022-07-28T08:13:35Z</time>
      </trkpt>
      <trkpt lat="45.65357" lon="6.50956">
        <ele>1866</ele>
        <time>2022-07-28T08:13:36Z</time>
      </trkpt>
      <trkpt lat="45.65357" lon="6.50954">
        <ele>1865</ele>
        <time>2022-07-28T08:13:37Z</time>
      </trkpt>
      <trkpt lat="45.65357" lon="6.50953">
        <ele>1865</ele>
        <time>2022-07-28T08:13:38Z</time>
      </trkpt>
      <trkpt lat="45.65356" lon="6.50952">
        <ele>1865</ele>
        <time>2022-07-28T08:13:39Z</time>
      </trkpt>
      <trkpt lat="45.65356" lon="6.5095">
        <ele>1865</ele>
        <time>2022-07-28T08:13:40Z</time>
      </trkpt>
      <trkpt lat="45.65356" lon="6.50949">
        <ele>1865</ele>
        <time>2022-07-28T08:13:41Z</time>
      </trkpt>
      <trkpt lat="45.65356" lon="6.50948">
        <ele>1865</ele>
        <time>2022-07-28T08:13:42Z</time>
      </trkpt>
      <trkpt lat="45.65356" lon="6.50946">
        <ele>1865</ele>
        <time>2022-07-28T08:13:43Z</time>
      </trkpt>
      <trkpt lat="45.65355" lon="6.50945">
        <ele>1865</ele>
        <time>2022-07-28T08:13:44Z</time>
      </trkpt>
      <trkpt lat="45.65355" lon="6.50944">
        <ele>1865</ele>
        <time>2022-07-28T08:13:45Z</time>
      </trkpt>
      <trkpt lat="45.65355" lon="6.50942">
        <ele>1865</ele>
        <time>2022-07-28T08:13:46Z</time>
      </trkpt>
      <trkpt lat="45.65355" lon="6.50941">
        <ele>1865</ele>
        <time>2022-07-28T08:13:47Z</time>
      </trkpt>
      <trkpt lat="45.65355" lon="6.5094">
        <ele>1865</ele>
        <time>2022-07-28T08:13:48Z</time>
      </trkpt>
      <trkpt lat="45.65354" lon="6.50938">
        <ele>1866</ele>
        <time>2022-07-28T08:13:49Z</time>
      </trkpt>
      <trkpt lat="45.65354" lon="6.50937">
        <ele>1866</ele>
        <time>2022-07-28T08:13:50Z</time>
      </trkpt>
      <trkpt lat="45.65354" lon="6.50936">
        <ele>1867</ele>
        <time>2022-07-28T08:13:51Z</time>
      </trkpt>
      <trkpt lat="45.65353" lon="6.50934">
        <ele>1867</ele>
        <time>2022-07-28T08:13:52Z</time>
      </trkpt>
      <trkpt lat="45.65353" lon="6.50933">
        <ele>1867</ele>
        <time>2022-07-28T08:13:53Z</time>
      </trkpt>
      <trkpt lat="45.65352" lon="6.50932">
        <ele>1867</ele>
        <time>2022-07-28T08:13:54Z</time>
      </trkpt>
      <trkpt lat="45.65352" lon="6.5093">
        <ele>1867</ele>
        <time>2022-07-28T08:13:55Z</time>
      </trkpt>
      <trkpt lat="45.65352" lon="6.50928">
        <ele>1867</ele>
        <time>2022-07-28T08:13:56Z</time>
      </trkpt>
      <trkpt lat="45.65351" lon="6.50927">
        <ele>1866</ele>
        <time>2022-07-28T08:13:57Z</time>
      </trkpt>
      <trkpt lat="45.65351" lon="6.50925">
        <ele>1866</ele>
        <time>2022-07-28T08:13:58Z</time>
      </trkpt>
      <trkpt lat="45.65351" lon="6.50923">
        <ele>1865</ele>
        <time>2022-07-28T08:13:59Z</time>
      </trkpt>
      <trkpt lat="45.65351" lon="6.50922">
        <ele>1865</ele>
        <time>2022-07-28T08:14:00Z</time>
      </trkpt>
      <trkpt lat="45.65351" lon="6.5092">
        <ele>1865</ele>
        <time>2022-07-28T08:14:01Z</time>
      </trkpt>
      <trkpt lat="45.6535" lon="6.50918">
        <ele>1864</ele>
        <time>2022-07-28T08:14:02Z</time>
      </trkpt>
      <trkpt lat="45.6535" lon="6.50917">
        <ele>1864</ele>
        <time>2022-07-28T08:14:03Z</time>
      </trkpt>
      <trkpt lat="45.6535" lon="6.50915">
        <ele>1863</ele>
        <time>2022-07-28T08:14:04Z</time>
      </trkpt>
      <trkpt lat="45.6535" lon="6.50914">
        <ele>1863</ele>
        <time>2022-07-28T08:14:05Z</time>
      </trkpt>
      <trkpt lat="45.6535" lon="6.50912">
        <ele>1863</ele>
        <time>2022-07-28T08:14:06Z</time>
      </trkpt>
      <trkpt lat="45.6535" lon="6.5091">
        <ele>1863</ele>
        <time>2022-07-28T08:14:07Z</time>
      </trkpt>
      <trkpt lat="45.6535" lon="6.50909">
        <ele>1863</ele>
        <time>2022-07-28T08:14:08Z</time>
      </trkpt>
      <trkpt lat="45.6535" lon="6.50907">
        <ele>1863</ele>
        <time>2022-07-28T08:14:09Z</time>
      </trkpt>
      <trkpt lat="45.6535" lon="6.50906">
        <ele>1863</ele>
        <time>2022-07-28T08:14:10Z</time>
      </trkpt>
      <trkpt lat="45.6535" lon="6.50904">
        <ele>1863</ele>
        <time>2022-07-28T08:14:11Z</time>
      </trkpt>
      <trkpt lat="45.6535" lon="6.50903">
        <ele>1863</ele>
        <time>2022-07-28T08:14:12Z</time>
      </trkpt>
      <trkpt lat="45.6535" lon="6.50901">
        <ele>1863</ele>
        <time>2022-07-28T08:14:13Z</time>
      </trkpt>
      <trkpt lat="45.65351" lon="6.509">
        <ele>1863</ele>
        <time>2022-07-28T08:14:14Z</time>
      </trkpt>
      <trkpt lat="45.65351" lon="6.50898">
        <ele>1863</ele>
        <time>2022-07-28T08:14:15Z</time>
      </trkpt>
      <trkpt lat="45.65351" lon="6.50897">
        <ele>1863</ele>
        <time>2022-07-28T08:14:16Z</time>
      </trkpt>
      <trkpt lat="45.65351" lon="6.50895">
        <ele>1863</ele>
        <time>2022-07-28T08:14:17Z</time>
      </trkpt>
      <trkpt lat="45.65351" lon="6.50894">
        <ele>1863</ele>
        <time>2022-07-28T08:14:18Z</time>
      </trkpt>
      <trkpt lat="45.6535" lon="6.50892">
        <ele>1863</ele>
        <time>2022-07-28T08:14:19Z</time>
      </trkpt>
      <trkpt lat="45.6535" lon="6.5089">
        <ele>1863</ele>
        <time>2022-07-28T08:14:20Z</time>
      </trkpt>
      <trkpt lat="45.6535" lon="6.50889">
        <ele>1864</ele>
        <time>2022-07-28T08:14:21Z</time>
      </trkpt>
      <trkpt lat="45.6535" lon="6.50887">
        <ele>1863</ele>
        <time>2022-07-28T08:14:22Z</time>
      </trkpt>
      <trkpt lat="45.65349" lon="6.50886">
        <ele>1863</ele>
        <time>2022-07-28T08:14:23Z</time>
      </trkpt>
      <trkpt lat="45.65349" lon="6.50884">
        <ele>1862</ele>
        <time>2022-07-28T08:14:24Z</time>
      </trkpt>
      <trkpt lat="45.65348" lon="6.50883">
        <ele>1862</ele>
        <time>2022-07-28T08:14:25Z</time>
      </trkpt>
      <trkpt lat="45.65348" lon="6.50881">
        <ele>1862</ele>
        <time>2022-07-28T08:14:26Z</time>
      </trkpt>
      <trkpt lat="45.65348" lon="6.5088">
        <ele>1862</ele>
        <time>2022-07-28T08:14:27Z</time>
      </trkpt>
      <trkpt lat="45.65347" lon="6.50878">
        <ele>1862</ele>
        <time>2022-07-28T08:14:28Z</time>
      </trkpt>
      <trkpt lat="45.65347" lon="6.50877">
        <ele>1862</ele>
        <time>2022-07-28T08:14:29Z</time>
      </trkpt>
      <trkpt lat="45.65347" lon="6.50875">
        <ele>1862</ele>
        <time>2022-07-28T08:14:30Z</time>
      </trkpt>
      <trkpt lat="45.65347" lon="6.50874">
        <ele>1862</ele>
        <time>2022-07-28T08:14:31Z</time>
      </trkpt>
      <trkpt lat="45.65347" lon="6.50872">
        <ele>1861</ele>
        <time>2022-07-28T08:14:32Z</time>
      </trkpt>
      <trkpt lat="45.65347" lon="6.50871">
        <ele>1861</ele>
        <time>2022-07-28T08:14:33Z</time>
      </trkpt>
      <trkpt lat="45.65347" lon="6.50869">
        <ele>1861</ele>
        <time>2022-07-28T08:14:34Z</time>
      </trkpt>
      <trkpt lat="45.65347" lon="6.50868">
        <ele>1861</ele>
        <time>2022-07-28T08:14:35Z</time>
      </trkpt>
      <trkpt lat="45.65347" lon="6.50866">
        <ele>1861</ele>
        <time>2022-07-28T08:14:36Z</time>
      </trkpt>
      <trkpt lat="45.65346" lon="6.50865">
        <ele>1861</ele>
        <time>2022-07-28T08:14:37Z</time>
      </trkpt>
      <trkpt lat="45.65346" lon="6.50863">
        <ele>1861</ele>
        <time>2022-07-28T08:14:38Z</time>
      </trkpt>
      <trkpt lat="45.65346" lon="6.50862">
        <ele>1861</ele>
        <time>2022-07-28T08:14:39Z</time>
      </trkpt>
      <trkpt lat="45.65346" lon="6.5086">
        <ele>1861</ele>
        <time>2022-07-28T08:14:40Z</time>
      </trkpt>
      <trkpt lat="45.65346" lon="6.50859">
        <ele>1862</ele>
        <time>2022-07-28T08:14:41Z</time>
      </trkpt>
      <trkpt lat="45.65346" lon="6.50857">
        <ele>1862</ele>
        <time>2022-07-28T08:14:42Z</time>
      </trkpt>
      <trkpt lat="45.65345" lon="6.50856">
        <ele>1862</ele>
        <time>2022-07-28T08:14:43Z</time>
      </trkpt>
      <trkpt lat="45.65345" lon="6.50854">
        <ele>1862</ele>
        <time>2022-07-28T08:14:44Z</time>
      </trkpt>
      <trkpt lat="45.65345" lon="6.50853">
        <ele>1862</ele>
        <time>2022-07-28T08:14:45Z</time>
      </trkpt>
      <trkpt lat="45.65345" lon="6.50851">
        <ele>1862</ele>
        <time>2022-07-28T08:14:46Z</time>
      </trkpt>
      <trkpt lat="45.65345" lon="6.5085">
        <ele>1861</ele>
        <time>2022-07-28T08:14:47Z</time>
      </trkpt>
      <trkpt lat="45.65344" lon="6.50848">
        <ele>1861</ele>
        <time>2022-07-28T08:14:48Z</time>
      </trkpt>
      <trkpt lat="45.65344" lon="6.50847">
        <ele>1861</ele>
        <time>2022-07-28T08:14:49Z</time>
      </trkpt>
      <trkpt lat="45.65344" lon="6.50845">
        <ele>1861</ele>
        <time>2022-07-28T08:14:50Z</time>
      </trkpt>
      <trkpt lat="45.65344" lon="6.50844">
        <ele>1861</ele>
        <time>2022-07-28T08:14:51Z</time>
      </trkpt>
      <trkpt lat="45.65344" lon="6.50842">
        <ele>1861</ele>
        <time>2022-07-28T08:14:52Z</time>
      </trkpt>
      <trkpt lat="45.65344" lon="6.50841">
        <ele>1861</ele>
        <time>2022-07-28T08:14:53Z</time>
      </trkpt>
      <trkpt lat="45.65343" lon="6.50839">
        <ele>1861</ele>
        <time>2022-07-28T08:14:54Z</time>
      </trkpt>
      <trkpt lat="45.65343" lon="6.50837">
        <ele>1861</ele>
        <time>2022-07-28T08:14:55Z</time>
      </trkpt>
      <trkpt lat="45.65343" lon="6.50836">
        <ele>1861</ele>
        <time>2022-07-28T08:14:56Z</time>
      </trkpt>
      <trkpt lat="45.65343" lon="6.50834">
        <ele>1861</ele>
        <time>2022-07-28T08:14:57Z</time>
      </trkpt>
      <trkpt lat="45.65343" lon="6.50833">
        <ele>1861</ele>
        <time>2022-07-28T08:14:58Z</time>
      </trkpt>
      <trkpt lat="45.65342" lon="6.50832">
        <ele>1861</ele>
        <time>2022-07-28T08:14:59Z</time>
      </trkpt>
      <trkpt lat="45.65342" lon="6.5083">
        <ele>1861</ele>
        <time>2022-07-28T08:15:00Z</time>
      </trkpt>
      <trkpt lat="45.65342" lon="6.50829">
        <ele>1861</ele>
        <time>2022-07-28T08:15:01Z</time>
      </trkpt>
      <trkpt lat="45.65342" lon="6.50827">
        <ele>1861</ele>
        <time>2022-07-28T08:15:02Z</time>
      </trkpt>
      <trkpt lat="45.65342" lon="6.50826">
        <ele>1861</ele>
        <time>2022-07-28T08:15:03Z</time>
      </trkpt>
      <trkpt lat="45.65342" lon="6.50824">
        <ele>1861</ele>
        <time>2022-07-28T08:15:04Z</time>
      </trkpt>
      <trkpt lat="45.65342" lon="6.50822">
        <ele>1861</ele>
        <time>2022-07-28T08:15:05Z</time>
      </trkpt>
      <trkpt lat="45.65342" lon="6.50821">
        <ele>1861</ele>
        <time>2022-07-28T08:15:06Z</time>
      </trkpt>
      <trkpt lat="45.65342" lon="6.50819">
        <ele>1861</ele>
        <time>2022-07-28T08:15:07Z</time>
      </trkpt>
      <trkpt lat="45.65342" lon="6.50818">
        <ele>1861</ele>
        <time>2022-07-28T08:15:08Z</time>
      </trkpt>
      <trkpt lat="45.65342" lon="6.50816">
        <ele>1861</ele>
        <time>2022-07-28T08:15:09Z</time>
      </trkpt>
      <trkpt lat="45.65342" lon="6.50814">
        <ele>1861</ele>
        <time>2022-07-28T08:15:10Z</time>
      </trkpt>
      <trkpt lat="45.65342" lon="6.50813">
        <ele>1861</ele>
        <time>2022-07-28T08:15:11Z</time>
      </trkpt>
      <trkpt lat="45.65342" lon="6.50811">
        <ele>1861</ele>
        <time>2022-07-28T08:15:12Z</time>
      </trkpt>
      <trkpt lat="45.65342" lon="6.50809">
        <ele>1861</ele>
        <time>2022-07-28T08:15:13Z</time>
      </trkpt>
      <trkpt lat="45.65342" lon="6.50808">
        <ele>1861</ele>
        <time>2022-07-28T08:15:14Z</time>
      </trkpt>
      <trkpt lat="45.65342" lon="6.50806">
        <ele>1861</ele>
        <time>2022-07-28T08:15:15Z</time>
      </trkpt>
      <trkpt lat="45.65342" lon="6.50805">
        <ele>1861</ele>
        <time>2022-07-28T08:15:16Z</time>
      </trkpt>
      <trkpt lat="45.65342" lon="6.50803">
        <ele>1861</ele>
        <time>2022-07-28T08:15:17Z</time>
      </trkpt>
      <trkpt lat="45.65342" lon="6.50802">
        <ele>1861</ele>
        <time>2022-07-28T08:15:18Z</time>
      </trkpt>
      <trkpt lat="45.65342" lon="6.508">
        <ele>1861</ele>
        <time>2022-07-28T08:15:19Z</time>
      </trkpt>
      <trkpt lat="45.65342" lon="6.50799">
        <ele>1861</ele>
        <time>2022-07-28T08:15:20Z</time>
      </trkpt>
      <trkpt lat="45.65342" lon="6.50797">
        <ele>1861</ele>
        <time>2022-07-28T08:15:21Z</time>
      </trkpt>
      <trkpt lat="45.65342" lon="6.50796">
        <ele>1861</ele>
        <time>2022-07-28T08:15:22Z</time>
      </trkpt>
      <trkpt lat="45.65342" lon="6.50794">
        <ele>1861</ele>
        <time>2022-07-28T08:15:23Z</time>
      </trkpt>
      <trkpt lat="45.65341" lon="6.50793">
        <ele>1861</ele>
        <time>2022-07-28T08:15:24Z</time>
      </trkpt>
      <trkpt lat="45.65341" lon="6.50791">
        <ele>1861</ele>
        <time>2022-07-28T08:15:25Z</time>
      </trkpt>
      <trkpt lat="45.65341" lon="6.50789">
        <ele>1861</ele>
        <time>2022-07-28T08:15:26Z</time>
      </trkpt>
      <trkpt lat="45.65341" lon="6.50788">
        <ele>1861</ele>
        <time>2022-07-28T08:15:27Z</time>
      </trkpt>
      <trkpt lat="45.65341" lon="6.50786">
        <ele>1861</ele>
        <time>2022-07-28T08:15:28Z</time>
      </trkpt>
      <trkpt lat="45.65341" lon="6.50785">
        <ele>1861</ele>
        <time>2022-07-28T08:15:29Z</time>
      </trkpt>
      <trkpt lat="45.65341" lon="6.50782">
        <ele>1863</ele>
        <time>2022-07-28T08:16:01Z</time>
      </trkpt>
      <trkpt lat="45.65341" lon="6.50782">
        <ele>1862</ele>
        <time>2022-07-28T08:16:02Z</time>
      </trkpt>
      <trkpt lat="45.65341" lon="6.50781">
        <ele>1862</ele>
        <time>2022-07-28T08:16:03Z</time>
      </trkpt>
      <trkpt lat="45.65341" lon="6.5078">
        <ele>1862</ele>
        <time>2022-07-28T08:16:04Z</time>
      </trkpt>
      <trkpt lat="45.65341" lon="6.50779">
        <ele>1862</ele>
        <time>2022-07-28T08:16:05Z</time>
      </trkpt>
      <trkpt lat="45.6534" lon="6.50777">
        <ele>1862</ele>
        <time>2022-07-28T08:16:06Z</time>
      </trkpt>
      <trkpt lat="45.6534" lon="6.50776">
        <ele>1862</ele>
        <time>2022-07-28T08:16:07Z</time>
      </trkpt>
      <trkpt lat="45.6534" lon="6.50774">
        <ele>1862</ele>
        <time>2022-07-28T08:16:08Z</time>
      </trkpt>
      <trkpt lat="45.6534" lon="6.50773">
        <ele>1862</ele>
        <time>2022-07-28T08:16:09Z</time>
      </trkpt>
      <trkpt lat="45.65341" lon="6.50771">
        <ele>1862</ele>
        <time>2022-07-28T08:16:10Z</time>
      </trkpt>
      <trkpt lat="45.65341" lon="6.5077">
        <ele>1862</ele>
        <time>2022-07-28T08:16:11Z</time>
      </trkpt>
      <trkpt lat="45.65341" lon="6.50768">
        <ele>1861</ele>
        <time>2022-07-28T08:16:12Z</time>
      </trkpt>
      <trkpt lat="45.65341" lon="6.50767">
        <ele>1861</ele>
        <time>2022-07-28T08:16:13Z</time>
      </trkpt>
      <trkpt lat="45.65341" lon="6.50765">
        <ele>1861</ele>
        <time>2022-07-28T08:16:14Z</time>
      </trkpt>
      <trkpt lat="45.65341" lon="6.50764">
        <ele>1861</ele>
        <time>2022-07-28T08:16:15Z</time>
      </trkpt>
      <trkpt lat="45.65342" lon="6.50762">
        <ele>1861</ele>
        <time>2022-07-28T08:16:16Z</time>
      </trkpt>
      <trkpt lat="45.65342" lon="6.5076">
        <ele>1861</ele>
        <time>2022-07-28T08:16:17Z</time>
      </trkpt>
      <trkpt lat="45.65342" lon="6.50759">
        <ele>1861</ele>
        <time>2022-07-28T08:16:18Z</time>
      </trkpt>
      <trkpt lat="45.65342" lon="6.50757">
        <ele>1861</ele>
        <time>2022-07-28T08:16:19Z</time>
      </trkpt>
      <trkpt lat="45.65342" lon="6.50756">
        <ele>1861</ele>
        <time>2022-07-28T08:16:20Z</time>
      </trkpt>
      <trkpt lat="45.65343" lon="6.50754">
        <ele>1861</ele>
        <time>2022-07-28T08:16:21Z</time>
      </trkpt>
      <trkpt lat="45.65343" lon="6.50753">
        <ele>1861</ele>
        <time>2022-07-28T08:16:22Z</time>
      </trkpt>
      <trkpt lat="45.65343" lon="6.50752">
        <ele>1861</ele>
        <time>2022-07-28T08:16:23Z</time>
      </trkpt>
      <trkpt lat="45.65344" lon="6.50751">
        <ele>1861</ele>
        <time>2022-07-28T08:16:24Z</time>
      </trkpt>
      <trkpt lat="45.65344" lon="6.5075">
        <ele>1861</ele>
        <time>2022-07-28T08:16:25Z</time>
      </trkpt>
      <trkpt lat="45.65344" lon="6.50748">
        <ele>1861</ele>
        <time>2022-07-28T08:16:26Z</time>
      </trkpt>
      <trkpt lat="45.65345" lon="6.50747">
        <ele>1860</ele>
        <time>2022-07-28T08:16:27Z</time>
      </trkpt>
      <trkpt lat="45.65345" lon="6.50745">
        <ele>1855</ele>
        <time>2022-07-28T08:16:33Z</time>
      </trkpt>
      <trkpt lat="45.65346" lon="6.50744">
        <ele>1854</ele>
        <time>2022-07-28T08:16:34Z</time>
      </trkpt>
      <trkpt lat="45.65346" lon="6.50743">
        <ele>1854</ele>
        <time>2022-07-28T08:16:35Z</time>
      </trkpt>
      <trkpt lat="45.65346" lon="6.50742">
        <ele>1854</ele>
        <time>2022-07-28T08:16:36Z</time>
      </trkpt>
      <trkpt lat="45.65346" lon="6.50741">
        <ele>1854</ele>
        <time>2022-07-28T08:16:37Z</time>
      </trkpt>
      <trkpt lat="45.65347" lon="6.5074">
        <ele>1854</ele>
        <time>2022-07-28T08:16:38Z</time>
      </trkpt>
      <trkpt lat="45.65347" lon="6.50738">
        <ele>1854</ele>
        <time>2022-07-28T08:16:39Z</time>
      </trkpt>
      <trkpt lat="45.65347" lon="6.50737">
        <ele>1854</ele>
        <time>2022-07-28T08:16:40Z</time>
      </trkpt>
      <trkpt lat="45.65348" lon="6.50735">
        <ele>1854</ele>
        <time>2022-07-28T08:16:41Z</time>
      </trkpt>
      <trkpt lat="45.65349" lon="6.50734">
        <ele>1854</ele>
        <time>2022-07-28T08:16:42Z</time>
      </trkpt>
      <trkpt lat="45.65349" lon="6.50732">
        <ele>1855</ele>
        <time>2022-07-28T08:16:43Z</time>
      </trkpt>
      <trkpt lat="45.6535" lon="6.50731">
        <ele>1855</ele>
        <time>2022-07-28T08:16:44Z</time>
      </trkpt>
      <trkpt lat="45.65351" lon="6.50729">
        <ele>1856</ele>
        <time>2022-07-28T08:16:45Z</time>
      </trkpt>
      <trkpt lat="45.65352" lon="6.50728">
        <ele>1857</ele>
        <time>2022-07-28T08:16:46Z</time>
      </trkpt>
      <trkpt lat="45.65353" lon="6.50726">
        <ele>1857</ele>
        <time>2022-07-28T08:16:47Z</time>
      </trkpt>
      <trkpt lat="45.65354" lon="6.50725">
        <ele>1857</ele>
        <time>2022-07-28T08:16:48Z</time>
      </trkpt>
      <trkpt lat="45.65354" lon="6.50723">
        <ele>1858</ele>
        <time>2022-07-28T08:16:49Z</time>
      </trkpt>
      <trkpt lat="45.65355" lon="6.50722">
        <ele>1858</ele>
        <time>2022-07-28T08:16:50Z</time>
      </trkpt>
      <trkpt lat="45.65356" lon="6.5072">
        <ele>1859</ele>
        <time>2022-07-28T08:16:51Z</time>
      </trkpt>
      <trkpt lat="45.65357" lon="6.50718">
        <ele>1859</ele>
        <time>2022-07-28T08:16:52Z</time>
      </trkpt>
      <trkpt lat="45.65358" lon="6.50717">
        <ele>1859</ele>
        <time>2022-07-28T08:16:53Z</time>
      </trkpt>
      <trkpt lat="45.65358" lon="6.50715">
        <ele>1859</ele>
        <time>2022-07-28T08:16:54Z</time>
      </trkpt>
      <trkpt lat="45.65359" lon="6.50714">
        <ele>1859</ele>
        <time>2022-07-28T08:16:55Z</time>
      </trkpt>
      <trkpt lat="45.6536" lon="6.50712">
        <ele>1860</ele>
        <time>2022-07-28T08:16:56Z</time>
      </trkpt>
      <trkpt lat="45.65361" lon="6.5071">
        <ele>1860</ele>
        <time>2022-07-28T08:16:57Z</time>
      </trkpt>
      <trkpt lat="45.65362" lon="6.50709">
        <ele>1861</ele>
        <time>2022-07-28T08:17:35Z</time>
      </trkpt>
      <trkpt lat="45.65362" lon="6.50708">
        <ele>1862</ele>
        <time>2022-07-28T08:17:36Z</time>
      </trkpt>
      <trkpt lat="45.65362" lon="6.50707">
        <ele>1862</ele>
        <time>2022-07-28T08:17:37Z</time>
      </trkpt>
      <trkpt lat="45.65363" lon="6.50706">
        <ele>1862</ele>
        <time>2022-07-28T08:17:38Z</time>
      </trkpt>
      <trkpt lat="45.65363" lon="6.50705">
        <ele>1862</ele>
        <time>2022-07-28T08:17:39Z</time>
      </trkpt>
      <trkpt lat="45.65364" lon="6.50704">
        <ele>1862</ele>
        <time>2022-07-28T08:17:40Z</time>
      </trkpt>
      <trkpt lat="45.65364" lon="6.50703">
        <ele>1862</ele>
        <time>2022-07-28T08:17:41Z</time>
      </trkpt>
      <trkpt lat="45.65365" lon="6.50701">
        <ele>1861</ele>
        <time>2022-07-28T08:17:42Z</time>
      </trkpt>
      <trkpt lat="45.65366" lon="6.507">
        <ele>1861</ele>
        <time>2022-07-28T08:17:43Z</time>
      </trkpt>
      <trkpt lat="45.65367" lon="6.50699">
        <ele>1860</ele>
        <time>2022-07-28T08:17:44Z</time>
      </trkpt>
      <trkpt lat="45.65367" lon="6.50697">
        <ele>1860</ele>
        <time>2022-07-28T08:17:45Z</time>
      </trkpt>
      <trkpt lat="45.65368" lon="6.50696">
        <ele>1860</ele>
        <time>2022-07-28T08:17:46Z</time>
      </trkpt>
      <trkpt lat="45.65369" lon="6.50694">
        <ele>1860</ele>
        <time>2022-07-28T08:17:47Z</time>
      </trkpt>
      <trkpt lat="45.6537" lon="6.50693">
        <ele>1860</ele>
        <time>2022-07-28T08:17:48Z</time>
      </trkpt>
      <trkpt lat="45.6537" lon="6.50692">
        <ele>1860</ele>
        <time>2022-07-28T08:17:49Z</time>
      </trkpt>
      <trkpt lat="45.65371" lon="6.5069">
        <ele>1860</ele>
        <time>2022-07-28T08:17:50Z</time>
      </trkpt>
      <trkpt lat="45.65372" lon="6.50689">
        <ele>1860</ele>
        <time>2022-07-28T08:17:51Z</time>
      </trkpt>
      <trkpt lat="45.65373" lon="6.50687">
        <ele>1860</ele>
        <time>2022-07-28T08:17:52Z</time>
      </trkpt>
      <trkpt lat="45.65373" lon="6.50686">
        <ele>1860</ele>
        <time>2022-07-28T08:17:53Z</time>
      </trkpt>
      <trkpt lat="45.65374" lon="6.50684">
        <ele>1860</ele>
        <time>2022-07-28T08:17:54Z</time>
      </trkpt>
      <trkpt lat="45.65375" lon="6.50683">
        <ele>1860</ele>
        <time>2022-07-28T08:17:55Z</time>
      </trkpt>
      <trkpt lat="45.65376" lon="6.50682">
        <ele>1860</ele>
        <time>2022-07-28T08:17:56Z</time>
      </trkpt>
      <trkpt lat="45.65377" lon="6.50681">
        <ele>1859</ele>
        <time>2022-07-28T08:17:57Z</time>
      </trkpt>
      <trkpt lat="45.65378" lon="6.50679">
        <ele>1859</ele>
        <time>2022-07-28T08:17:58Z</time>
      </trkpt>
      <trkpt lat="45.65378" lon="6.50678">
        <ele>1859</ele>
        <time>2022-07-28T08:17:59Z</time>
      </trkpt>
      <trkpt lat="45.65379" lon="6.50677">
        <ele>1859</ele>
        <time>2022-07-28T08:18:00Z</time>
      </trkpt>
      <trkpt lat="45.6538" lon="6.50675">
        <ele>1859</ele>
        <time>2022-07-28T08:18:01Z</time>
      </trkpt>
      <trkpt lat="45.6538" lon="6.50674">
        <ele>1859</ele>
        <time>2022-07-28T08:18:02Z</time>
      </trkpt>
      <trkpt lat="45.65381" lon="6.50673">
        <ele>1859</ele>
        <time>2022-07-28T08:18:03Z</time>
      </trkpt>
      <trkpt lat="45.65381" lon="6.50671">
        <ele>1859</ele>
        <time>2022-07-28T08:18:04Z</time>
      </trkpt>
      <trkpt lat="45.65382" lon="6.50669">
        <ele>1859</ele>
        <time>2022-07-28T08:18:05Z</time>
      </trkpt>
      <trkpt lat="45.65382" lon="6.50668">
        <ele>1860</ele>
        <time>2022-07-28T08:18:06Z</time>
      </trkpt>
      <trkpt lat="45.65382" lon="6.50666">
        <ele>1859</ele>
        <time>2022-07-28T08:18:07Z</time>
      </trkpt>
      <trkpt lat="45.65383" lon="6.50664">
        <ele>1859</ele>
        <time>2022-07-28T08:18:08Z</time>
      </trkpt>
      <trkpt lat="45.65383" lon="6.50662">
        <ele>1859</ele>
        <time>2022-07-28T08:18:09Z</time>
      </trkpt>
      <trkpt lat="45.65383" lon="6.50661">
        <ele>1859</ele>
        <time>2022-07-28T08:18:10Z</time>
      </trkpt>
      <trkpt lat="45.65384" lon="6.50659">
        <ele>1859</ele>
        <time>2022-07-28T08:18:11Z</time>
      </trkpt>
      <trkpt lat="45.65384" lon="6.50658">
        <ele>1859</ele>
        <time>2022-07-28T08:18:12Z</time>
      </trkpt>
      <trkpt lat="45.65385" lon="6.50656">
        <ele>1859</ele>
        <time>2022-07-28T08:18:13Z</time>
      </trkpt>
      <trkpt lat="45.65385" lon="6.50655">
        <ele>1859</ele>
        <time>2022-07-28T08:18:14Z</time>
      </trkpt>
      <trkpt lat="45.65385" lon="6.50653">
        <ele>1859</ele>
        <time>2022-07-28T08:18:15Z</time>
      </trkpt>
      <trkpt lat="45.65386" lon="6.50652">
        <ele>1859</ele>
        <time>2022-07-28T08:18:16Z</time>
      </trkpt>
      <trkpt lat="45.65386" lon="6.5065">
        <ele>1858</ele>
        <time>2022-07-28T08:18:17Z</time>
      </trkpt>
      <trkpt lat="45.65386" lon="6.50649">
        <ele>1858</ele>
        <time>2022-07-28T08:18:18Z</time>
      </trkpt>
      <trkpt lat="45.65387" lon="6.50648">
        <ele>1858</ele>
        <time>2022-07-28T08:18:19Z</time>
      </trkpt>
      <trkpt lat="45.65387" lon="6.50646">
        <ele>1858</ele>
        <time>2022-07-28T08:18:20Z</time>
      </trkpt>
      <trkpt lat="45.65388" lon="6.50644">
        <ele>1858</ele>
        <time>2022-07-28T08:18:21Z</time>
      </trkpt>
      <trkpt lat="45.65388" lon="6.50643">
        <ele>1857</ele>
        <time>2022-07-28T08:18:22Z</time>
      </trkpt>
      <trkpt lat="45.65388" lon="6.50641">
        <ele>1857</ele>
        <time>2022-07-28T08:18:23Z</time>
      </trkpt>
      <trkpt lat="45.65389" lon="6.5064">
        <ele>1857</ele>
        <time>2022-07-28T08:18:24Z</time>
      </trkpt>
      <trkpt lat="45.65389" lon="6.50638">
        <ele>1857</ele>
        <time>2022-07-28T08:18:25Z</time>
      </trkpt>
      <trkpt lat="45.65389" lon="6.50637">
        <ele>1857</ele>
        <time>2022-07-28T08:18:26Z</time>
      </trkpt>
      <trkpt lat="45.6539" lon="6.50635">
        <ele>1857</ele>
        <time>2022-07-28T08:18:27Z</time>
      </trkpt>
      <trkpt lat="45.6539" lon="6.50634">
        <ele>1857</ele>
        <time>2022-07-28T08:18:28Z</time>
      </trkpt>
      <trkpt lat="45.6539" lon="6.50632">
        <ele>1857</ele>
        <time>2022-07-28T08:18:29Z</time>
      </trkpt>
      <trkpt lat="45.65391" lon="6.50631">
        <ele>1857</ele>
        <time>2022-07-28T08:18:30Z</time>
      </trkpt>
      <trkpt lat="45.65391" lon="6.5063">
        <ele>1858</ele>
        <time>2022-07-28T08:18:31Z</time>
      </trkpt>
      <trkpt lat="45.65392" lon="6.50628">
        <ele>1857</ele>
        <time>2022-07-28T08:18:32Z</time>
      </trkpt>
      <trkpt lat="45.65392" lon="6.50627">
        <ele>1857</ele>
        <time>2022-07-28T08:18:33Z</time>
      </trkpt>
      <trkpt lat="45.65392" lon="6.50626">
        <ele>1857</ele>
        <time>2022-07-28T08:18:34Z</time>
      </trkpt>
      <trkpt lat="45.65393" lon="6.50625">
        <ele>1857</ele>
        <time>2022-07-28T08:18:35Z</time>
      </trkpt>
      <trkpt lat="45.65393" lon="6.50624">
        <ele>1857</ele>
        <time>2022-07-28T08:18:36Z</time>
      </trkpt>
      <trkpt lat="45.65393" lon="6.50622">
        <ele>1857</ele>
        <time>2022-07-28T08:18:37Z</time>
      </trkpt>
      <trkpt lat="45.65394" lon="6.50621">
        <ele>1857</ele>
        <time>2022-07-28T08:18:38Z</time>
      </trkpt>
      <trkpt lat="45.65394" lon="6.50619">
        <ele>1857</ele>
        <time>2022-07-28T08:18:39Z</time>
      </trkpt>
      <trkpt lat="45.65394" lon="6.50618">
        <ele>1857</ele>
        <time>2022-07-28T08:18:40Z</time>
      </trkpt>
      <trkpt lat="45.65395" lon="6.50616">
        <ele>1858</ele>
        <time>2022-07-28T08:18:41Z</time>
      </trkpt>
      <trkpt lat="45.65395" lon="6.50615">
        <ele>1858</ele>
        <time>2022-07-28T08:18:42Z</time>
      </trkpt>
      <trkpt lat="45.65395" lon="6.50613">
        <ele>1858</ele>
        <time>2022-07-28T08:18:43Z</time>
      </trkpt>
      <trkpt lat="45.65396" lon="6.50612">
        <ele>1858</ele>
        <time>2022-07-28T08:18:44Z</time>
      </trkpt>
      <trkpt lat="45.65396" lon="6.50611">
        <ele>1858</ele>
        <time>2022-07-28T08:18:45Z</time>
      </trkpt>
      <trkpt lat="45.65397" lon="6.50609">
        <ele>1859</ele>
        <time>2022-07-28T08:18:46Z</time>
      </trkpt>
      <trkpt lat="45.65397" lon="6.50608">
        <ele>1859</ele>
        <time>2022-07-28T08:18:47Z</time>
      </trkpt>
      <trkpt lat="45.65398" lon="6.50607">
        <ele>1859</ele>
        <time>2022-07-28T08:18:48Z</time>
      </trkpt>
      <trkpt lat="45.65398" lon="6.50606">
        <ele>1859</ele>
        <time>2022-07-28T08:18:49Z</time>
      </trkpt>
      <trkpt lat="45.65398" lon="6.50605">
        <ele>1859</ele>
        <time>2022-07-28T08:18:50Z</time>
      </trkpt>
      <trkpt lat="45.65399" lon="6.50603">
        <ele>1859</ele>
        <time>2022-07-28T08:18:51Z</time>
      </trkpt>
      <trkpt lat="45.65399" lon="6.50602">
        <ele>1859</ele>
        <time>2022-07-28T08:18:52Z</time>
      </trkpt>
      <trkpt lat="45.654" lon="6.50601">
        <ele>1859</ele>
        <time>2022-07-28T08:18:53Z</time>
      </trkpt>
      <trkpt lat="45.654" lon="6.506">
        <ele>1859</ele>
        <time>2022-07-28T08:18:54Z</time>
      </trkpt>
      <trkpt lat="45.654" lon="6.50599">
        <ele>1859</ele>
        <time>2022-07-28T08:18:55Z</time>
      </trkpt>
      <trkpt lat="45.654" lon="6.50598">
        <ele>1859</ele>
        <time>2022-07-28T08:18:56Z</time>
      </trkpt>
      <trkpt lat="45.654" lon="6.50596">
        <ele>1859</ele>
        <time>2022-07-28T08:18:57Z</time>
      </trkpt>
      <trkpt lat="45.65401" lon="6.50595">
        <ele>1859</ele>
        <time>2022-07-28T08:18:58Z</time>
      </trkpt>
      <trkpt lat="45.65401" lon="6.50594">
        <ele>1859</ele>
        <time>2022-07-28T08:18:59Z</time>
      </trkpt>
      <trkpt lat="45.65401" lon="6.50593">
        <ele>1859</ele>
        <time>2022-07-28T08:19:00Z</time>
      </trkpt>
      <trkpt lat="45.65402" lon="6.50592">
        <ele>1859</ele>
        <time>2022-07-28T08:19:01Z</time>
      </trkpt>
      <trkpt lat="45.65402" lon="6.5059">
        <ele>1859</ele>
        <time>2022-07-28T08:19:02Z</time>
      </trkpt>
      <trkpt lat="45.65402" lon="6.50589">
        <ele>1859</ele>
        <time>2022-07-28T08:19:03Z</time>
      </trkpt>
      <trkpt lat="45.65402" lon="6.50587">
        <ele>1860</ele>
        <time>2022-07-28T08:19:04Z</time>
      </trkpt>
      <trkpt lat="45.65403" lon="6.50585">
        <ele>1860</ele>
        <time>2022-07-28T08:19:05Z</time>
      </trkpt>
      <trkpt lat="45.65403" lon="6.50584">
        <ele>1861</ele>
        <time>2022-07-28T08:19:06Z</time>
      </trkpt>
      <trkpt lat="45.65404" lon="6.50583">
        <ele>1861</ele>
        <time>2022-07-28T08:19:07Z</time>
      </trkpt>
      <trkpt lat="45.65404" lon="6.50582">
        <ele>1861</ele>
        <time>2022-07-28T08:19:08Z</time>
      </trkpt>
      <trkpt lat="45.65404" lon="6.50581">
        <ele>1861</ele>
        <time>2022-07-28T08:19:09Z</time>
      </trkpt>
      <trkpt lat="45.65405" lon="6.5058">
        <ele>1861</ele>
        <time>2022-07-28T08:19:10Z</time>
      </trkpt>
      <trkpt lat="45.65405" lon="6.50579">
        <ele>1861</ele>
        <time>2022-07-28T08:19:11Z</time>
      </trkpt>
      <trkpt lat="45.65405" lon="6.50578">
        <ele>1861</ele>
        <time>2022-07-28T08:19:12Z</time>
      </trkpt>
      <trkpt lat="45.65406" lon="6.50577">
        <ele>1861</ele>
        <time>2022-07-28T08:19:13Z</time>
      </trkpt>
      <trkpt lat="45.65406" lon="6.50576">
        <ele>1861</ele>
        <time>2022-07-28T08:19:14Z</time>
      </trkpt>
      <trkpt lat="45.65407" lon="6.50575">
        <ele>1861</ele>
        <time>2022-07-28T08:19:15Z</time>
      </trkpt>
      <trkpt lat="45.65407" lon="6.50574">
        <ele>1861</ele>
        <time>2022-07-28T08:19:16Z</time>
      </trkpt>
      <trkpt lat="45.65407" lon="6.50573">
        <ele>1861</ele>
        <time>2022-07-28T08:19:17Z</time>
      </trkpt>
      <trkpt lat="45.65407" lon="6.50572">
        <ele>1861</ele>
        <time>2022-07-28T08:19:18Z</time>
      </trkpt>
      <trkpt lat="45.65408" lon="6.50571">
        <ele>1861</ele>
        <time>2022-07-28T08:19:19Z</time>
      </trkpt>
      <trkpt lat="45.65408" lon="6.50569">
        <ele>1861</ele>
        <time>2022-07-28T08:19:20Z</time>
      </trkpt>
      <trkpt lat="45.65408" lon="6.50568">
        <ele>1861</ele>
        <time>2022-07-28T08:19:21Z</time>
      </trkpt>
      <trkpt lat="45.65408" lon="6.50566">
        <ele>1861</ele>
        <time>2022-07-28T08:19:22Z</time>
      </trkpt>
      <trkpt lat="45.65408" lon="6.50565">
        <ele>1861</ele>
        <time>2022-07-28T08:19:23Z</time>
      </trkpt>
      <trkpt lat="45.65408" lon="6.50564">
        <ele>1861</ele>
        <time>2022-07-28T08:19:24Z</time>
      </trkpt>
      <trkpt lat="45.65409" lon="6.50562">
        <ele>1861</ele>
        <time>2022-07-28T08:19:25Z</time>
      </trkpt>
      <trkpt lat="45.65409" lon="6.50561">
        <ele>1861</ele>
        <time>2022-07-28T08:19:26Z</time>
      </trkpt>
      <trkpt lat="45.65409" lon="6.5056">
        <ele>1861</ele>
        <time>2022-07-28T08:19:27Z</time>
      </trkpt>
      <trkpt lat="45.6541" lon="6.50558">
        <ele>1861</ele>
        <time>2022-07-28T08:19:28Z</time>
      </trkpt>
      <trkpt lat="45.6541" lon="6.50557">
        <ele>1861</ele>
        <time>2022-07-28T08:19:29Z</time>
      </trkpt>
      <trkpt lat="45.6541" lon="6.50555">
        <ele>1861</ele>
        <time>2022-07-28T08:19:30Z</time>
      </trkpt>
      <trkpt lat="45.65411" lon="6.50553">
        <ele>1861</ele>
        <time>2022-07-28T08:19:31Z</time>
      </trkpt>
      <trkpt lat="45.65411" lon="6.50552">
        <ele>1861</ele>
        <time>2022-07-28T08:19:32Z</time>
      </trkpt>
      <trkpt lat="45.65411" lon="6.5055">
        <ele>1861</ele>
        <time>2022-07-28T08:19:33Z</time>
      </trkpt>
      <trkpt lat="45.65411" lon="6.50548">
        <ele>1861</ele>
        <time>2022-07-28T08:19:34Z</time>
      </trkpt>
      <trkpt lat="45.65411" lon="6.50546">
        <ele>1861</ele>
        <time>2022-07-28T08:19:35Z</time>
      </trkpt>
      <trkpt lat="45.65411" lon="6.50545">
        <ele>1861</ele>
        <time>2022-07-28T08:19:36Z</time>
      </trkpt>
      <trkpt lat="45.65411" lon="6.50543">
        <ele>1861</ele>
        <time>2022-07-28T08:19:37Z</time>
      </trkpt>
      <trkpt lat="45.65411" lon="6.50541">
        <ele>1861</ele>
        <time>2022-07-28T08:19:38Z</time>
      </trkpt>
      <trkpt lat="45.65411" lon="6.50539">
        <ele>1861</ele>
        <time>2022-07-28T08:19:39Z</time>
      </trkpt>
      <trkpt lat="45.65412" lon="6.50538">
        <ele>1861</ele>
        <time>2022-07-28T08:19:40Z</time>
      </trkpt>
      <trkpt lat="45.65412" lon="6.50536">
        <ele>1861</ele>
        <time>2022-07-28T08:19:41Z</time>
      </trkpt>
      <trkpt lat="45.65412" lon="6.50534">
        <ele>1861</ele>
        <time>2022-07-28T08:19:42Z</time>
      </trkpt>
      <trkpt lat="45.65412" lon="6.50533">
        <ele>1861</ele>
        <time>2022-07-28T08:19:43Z</time>
      </trkpt>
      <trkpt lat="45.65412" lon="6.50531">
        <ele>1861</ele>
        <time>2022-07-28T08:19:44Z</time>
      </trkpt>
      <trkpt lat="45.65412" lon="6.5053">
        <ele>1861</ele>
        <time>2022-07-28T08:19:45Z</time>
      </trkpt>
      <trkpt lat="45.65412" lon="6.50528">
        <ele>1861</ele>
        <time>2022-07-28T08:19:46Z</time>
      </trkpt>
      <trkpt lat="45.65412" lon="6.50527">
        <ele>1861</ele>
        <time>2022-07-28T08:19:47Z</time>
      </trkpt>
      <trkpt lat="45.65412" lon="6.50525">
        <ele>1861</ele>
        <time>2022-07-28T08:19:48Z</time>
      </trkpt>
      <trkpt lat="45.65412" lon="6.50524">
        <ele>1861</ele>
        <time>2022-07-28T08:19:49Z</time>
      </trkpt>
      <trkpt lat="45.65411" lon="6.50522">
        <ele>1861</ele>
        <time>2022-07-28T08:19:50Z</time>
      </trkpt>
      <trkpt lat="45.65411" lon="6.50521">
        <ele>1861</ele>
        <time>2022-07-28T08:19:51Z</time>
      </trkpt>
      <trkpt lat="45.65411" lon="6.50519">
        <ele>1861</ele>
        <time>2022-07-28T08:19:52Z</time>
      </trkpt>
      <trkpt lat="45.65411" lon="6.50517">
        <ele>1861</ele>
        <time>2022-07-28T08:19:53Z</time>
      </trkpt>
      <trkpt lat="45.6541" lon="6.50516">
        <ele>1861</ele>
        <time>2022-07-28T08:19:54Z</time>
      </trkpt>
      <trkpt lat="45.6541" lon="6.50514">
        <ele>1861</ele>
        <time>2022-07-28T08:19:55Z</time>
      </trkpt>
      <trkpt lat="45.6541" lon="6.50513">
        <ele>1861</ele>
        <time>2022-07-28T08:19:56Z</time>
      </trkpt>
      <trkpt lat="45.6541" lon="6.50511">
        <ele>1861</ele>
        <time>2022-07-28T08:19:57Z</time>
      </trkpt>
      <trkpt lat="45.6541" lon="6.5051">
        <ele>1861</ele>
        <time>2022-07-28T08:19:58Z</time>
      </trkpt>
      <trkpt lat="45.6541" lon="6.50508">
        <ele>1861</ele>
        <time>2022-07-28T08:19:59Z</time>
      </trkpt>
      <trkpt lat="45.65409" lon="6.50506">
        <ele>1861</ele>
        <time>2022-07-28T08:20:00Z</time>
      </trkpt>
      <trkpt lat="45.65409" lon="6.50505">
        <ele>1861</ele>
        <time>2022-07-28T08:20:01Z</time>
      </trkpt>
      <trkpt lat="45.65409" lon="6.50503">
        <ele>1861</ele>
        <time>2022-07-28T08:20:02Z</time>
      </trkpt>
      <trkpt lat="45.65409" lon="6.50502">
        <ele>1861</ele>
        <time>2022-07-28T08:20:03Z</time>
      </trkpt>
      <trkpt lat="45.65409" lon="6.505">
        <ele>1861</ele>
        <time>2022-07-28T08:20:04Z</time>
      </trkpt>
      <trkpt lat="45.65409" lon="6.50499">
        <ele>1861</ele>
        <time>2022-07-28T08:20:05Z</time>
      </trkpt>
      <trkpt lat="45.65409" lon="6.50497">
        <ele>1862</ele>
        <time>2022-07-28T08:20:06Z</time>
      </trkpt>
      <trkpt lat="45.65409" lon="6.50496">
        <ele>1862</ele>
        <time>2022-07-28T08:20:07Z</time>
      </trkpt>
      <trkpt lat="45.65409" lon="6.50494">
        <ele>1862</ele>
        <time>2022-07-28T08:20:08Z</time>
      </trkpt>
      <trkpt lat="45.65409" lon="6.50493">
        <ele>1862</ele>
        <time>2022-07-28T08:20:09Z</time>
      </trkpt>
      <trkpt lat="45.65409" lon="6.50491">
        <ele>1862</ele>
        <time>2022-07-28T08:20:10Z</time>
      </trkpt>
      <trkpt lat="45.65409" lon="6.50489">
        <ele>1862</ele>
        <time>2022-07-28T08:20:11Z</time>
      </trkpt>
      <trkpt lat="45.65409" lon="6.50488">
        <ele>1862</ele>
        <time>2022-07-28T08:20:12Z</time>
      </trkpt>
      <trkpt lat="45.6541" lon="6.50486">
        <ele>1862</ele>
        <time>2022-07-28T08:20:13Z</time>
      </trkpt>
      <trkpt lat="45.6541" lon="6.50485">
        <ele>1862</ele>
        <time>2022-07-28T08:20:14Z</time>
      </trkpt>
      <trkpt lat="45.6541" lon="6.50484">
        <ele>1862</ele>
        <time>2022-07-28T08:20:15Z</time>
      </trkpt>
      <trkpt lat="45.6541" lon="6.50482">
        <ele>1862</ele>
        <time>2022-07-28T08:20:16Z</time>
      </trkpt>
      <trkpt lat="45.6541" lon="6.50481">
        <ele>1862</ele>
        <time>2022-07-28T08:20:17Z</time>
      </trkpt>
      <trkpt lat="45.6541" lon="6.50479">
        <ele>1862</ele>
        <time>2022-07-28T08:20:18Z</time>
      </trkpt>
      <trkpt lat="45.6541" lon="6.50478">
        <ele>1862</ele>
        <time>2022-07-28T08:20:19Z</time>
      </trkpt>
      <trkpt lat="45.6541" lon="6.50476">
        <ele>1862</ele>
        <time>2022-07-28T08:20:20Z</time>
      </trkpt>
      <trkpt lat="45.6541" lon="6.50475">
        <ele>1863</ele>
        <time>2022-07-28T08:20:21Z</time>
      </trkpt>
      <trkpt lat="45.6541" lon="6.50473">
        <ele>1863</ele>
        <time>2022-07-28T08:20:22Z</time>
      </trkpt>
      <trkpt lat="45.6541" lon="6.50472">
        <ele>1863</ele>
        <time>2022-07-28T08:20:23Z</time>
      </trkpt>
      <trkpt lat="45.6541" lon="6.5047">
        <ele>1863</ele>
        <time>2022-07-28T08:20:24Z</time>
      </trkpt>
      <trkpt lat="45.6541" lon="6.50469">
        <ele>1863</ele>
        <time>2022-07-28T08:20:25Z</time>
      </trkpt>
      <trkpt lat="45.6541" lon="6.50468">
        <ele>1863</ele>
        <time>2022-07-28T08:20:26Z</time>
      </trkpt>
      <trkpt lat="45.65411" lon="6.50466">
        <ele>1863</ele>
        <time>2022-07-28T08:20:27Z</time>
      </trkpt>
      <trkpt lat="45.65411" lon="6.50465">
        <ele>1863</ele>
        <time>2022-07-28T08:20:28Z</time>
      </trkpt>
      <trkpt lat="45.65411" lon="6.50463">
        <ele>1863</ele>
        <time>2022-07-28T08:20:29Z</time>
      </trkpt>
      <trkpt lat="45.65411" lon="6.50462">
        <ele>1863</ele>
        <time>2022-07-28T08:20:30Z</time>
      </trkpt>
      <trkpt lat="45.65411" lon="6.50461">
        <ele>1863</ele>
        <time>2022-07-28T08:20:31Z</time>
      </trkpt>
      <trkpt lat="45.65412" lon="6.50459">
        <ele>1863</ele>
        <time>2022-07-28T08:20:32Z</time>
      </trkpt>
      <trkpt lat="45.65412" lon="6.50458">
        <ele>1863</ele>
        <time>2022-07-28T08:20:33Z</time>
      </trkpt>
      <trkpt lat="45.65412" lon="6.50457">
        <ele>1863</ele>
        <time>2022-07-28T08:20:34Z</time>
      </trkpt>
      <trkpt lat="45.65412" lon="6.50456">
        <ele>1863</ele>
        <time>2022-07-28T08:20:35Z</time>
      </trkpt>
      <trkpt lat="45.65412" lon="6.50454">
        <ele>1863</ele>
        <time>2022-07-28T08:20:36Z</time>
      </trkpt>
      <trkpt lat="45.65413" lon="6.50453">
        <ele>1863</ele>
        <time>2022-07-28T08:20:37Z</time>
      </trkpt>
      <trkpt lat="45.65413" lon="6.50452">
        <ele>1863</ele>
        <time>2022-07-28T08:20:38Z</time>
      </trkpt>
      <trkpt lat="45.65413" lon="6.50451">
        <ele>1863</ele>
        <time>2022-07-28T08:20:39Z</time>
      </trkpt>
      <trkpt lat="45.65413" lon="6.5045">
        <ele>1863</ele>
        <time>2022-07-28T08:20:40Z</time>
      </trkpt>
      <trkpt lat="45.65414" lon="6.50449">
        <ele>1864</ele>
        <time>2022-07-28T08:20:41Z</time>
      </trkpt>
      <trkpt lat="45.65414" lon="6.50448">
        <ele>1864</ele>
        <time>2022-07-28T08:20:42Z</time>
      </trkpt>
      <trkpt lat="45.65415" lon="6.50447">
        <ele>1864</ele>
        <time>2022-07-28T08:20:43Z</time>
      </trkpt>
      <trkpt lat="45.65415" lon="6.50446">
        <ele>1864</ele>
        <time>2022-07-28T08:20:44Z</time>
      </trkpt>
      <trkpt lat="45.65416" lon="6.50445">
        <ele>1864</ele>
        <time>2022-07-28T08:20:45Z</time>
      </trkpt>
      <trkpt lat="45.65416" lon="6.50443">
        <ele>1864</ele>
        <time>2022-07-28T08:20:46Z</time>
      </trkpt>
      <trkpt lat="45.65417" lon="6.50442">
        <ele>1864</ele>
        <time>2022-07-28T08:20:47Z</time>
      </trkpt>
      <trkpt lat="45.65417" lon="6.50441">
        <ele>1864</ele>
        <time>2022-07-28T08:20:48Z</time>
      </trkpt>
      <trkpt lat="45.65417" lon="6.50439">
        <ele>1864</ele>
        <time>2022-07-28T08:20:49Z</time>
      </trkpt>
      <trkpt lat="45.65418" lon="6.50438">
        <ele>1864</ele>
        <time>2022-07-28T08:20:50Z</time>
      </trkpt>
      <trkpt lat="45.65418" lon="6.50437">
        <ele>1865</ele>
        <time>2022-07-28T08:20:51Z</time>
      </trkpt>
      <trkpt lat="45.65419" lon="6.50436">
        <ele>1865</ele>
        <time>2022-07-28T08:20:52Z</time>
      </trkpt>
      <trkpt lat="45.65419" lon="6.50435">
        <ele>1865</ele>
        <time>2022-07-28T08:20:53Z</time>
      </trkpt>
      <trkpt lat="45.6542" lon="6.50434">
        <ele>1865</ele>
        <time>2022-07-28T08:20:54Z</time>
      </trkpt>
      <trkpt lat="45.6542" lon="6.50433">
        <ele>1865</ele>
        <time>2022-07-28T08:20:55Z</time>
      </trkpt>
      <trkpt lat="45.6542" lon="6.50431">
        <ele>1865</ele>
        <time>2022-07-28T08:20:56Z</time>
      </trkpt>
      <trkpt lat="45.65421" lon="6.5043">
        <ele>1865</ele>
        <time>2022-07-28T08:20:57Z</time>
      </trkpt>
      <trkpt lat="45.65421" lon="6.50429">
        <ele>1865</ele>
        <time>2022-07-28T08:20:58Z</time>
      </trkpt>
      <trkpt lat="45.65421" lon="6.50428">
        <ele>1865</ele>
        <time>2022-07-28T08:20:59Z</time>
      </trkpt>
      <trkpt lat="45.65422" lon="6.50427">
        <ele>1865</ele>
        <time>2022-07-28T08:21:00Z</time>
      </trkpt>
      <trkpt lat="45.65422" lon="6.50425">
        <ele>1866</ele>
        <time>2022-07-28T08:21:01Z</time>
      </trkpt>
      <trkpt lat="45.65423" lon="6.50424">
        <ele>1866</ele>
        <time>2022-07-28T08:21:02Z</time>
      </trkpt>
      <trkpt lat="45.65423" lon="6.50423">
        <ele>1866</ele>
        <time>2022-07-28T08:21:03Z</time>
      </trkpt>
      <trkpt lat="45.65423" lon="6.50422">
        <ele>1866</ele>
        <time>2022-07-28T08:21:04Z</time>
      </trkpt>
      <trkpt lat="45.65424" lon="6.50421">
        <ele>1866</ele>
        <time>2022-07-28T08:21:05Z</time>
      </trkpt>
      <trkpt lat="45.65424" lon="6.5042">
        <ele>1867</ele>
        <time>2022-07-28T08:21:06Z</time>
      </trkpt>
      <trkpt lat="45.65424" lon="6.5042">
        <ele>1867</ele>
        <time>2022-07-28T08:21:07Z</time>
      </trkpt>
      <trkpt lat="45.65424" lon="6.50419">
        <ele>1867</ele>
        <time>2022-07-28T08:21:08Z</time>
      </trkpt>
      <trkpt lat="45.65424" lon="6.50419">
        <ele>1867</ele>
        <time>2022-07-28T08:21:09Z</time>
      </trkpt>
      <trkpt lat="45.65424" lon="6.50418">
        <ele>1867</ele>
        <time>2022-07-28T08:21:10Z</time>
      </trkpt>
      <trkpt lat="45.65424" lon="6.50417">
        <ele>1867</ele>
        <time>2022-07-28T08:21:11Z</time>
      </trkpt>
      <trkpt lat="45.65424" lon="6.50416">
        <ele>1867</ele>
        <time>2022-07-28T08:21:12Z</time>
      </trkpt>
      <trkpt lat="45.65425" lon="6.50415">
        <ele>1867</ele>
        <time>2022-07-28T08:21:13Z</time>
      </trkpt>
      <trkpt lat="45.65425" lon="6.50414">
        <ele>1867</ele>
        <time>2022-07-28T08:21:14Z</time>
      </trkpt>
      <trkpt lat="45.65426" lon="6.50413">
        <ele>1867</ele>
        <time>2022-07-28T08:21:15Z</time>
      </trkpt>
      <trkpt lat="45.65427" lon="6.50412">
        <ele>1867</ele>
        <time>2022-07-28T08:21:16Z</time>
      </trkpt>
      <trkpt lat="45.65427" lon="6.50411">
        <ele>1867</ele>
        <time>2022-07-28T08:21:17Z</time>
      </trkpt>
      <trkpt lat="45.65428" lon="6.5041">
        <ele>1867</ele>
        <time>2022-07-28T08:21:18Z</time>
      </trkpt>
      <trkpt lat="45.65428" lon="6.50408">
        <ele>1867</ele>
        <time>2022-07-28T08:21:19Z</time>
      </trkpt>
      <trkpt lat="45.65429" lon="6.50407">
        <ele>1867</ele>
        <time>2022-07-28T08:21:20Z</time>
      </trkpt>
      <trkpt lat="45.65429" lon="6.50406">
        <ele>1867</ele>
        <time>2022-07-28T08:21:21Z</time>
      </trkpt>
      <trkpt lat="45.6543" lon="6.50405">
        <ele>1867</ele>
        <time>2022-07-28T08:21:22Z</time>
      </trkpt>
      <trkpt lat="45.65431" lon="6.50404">
        <ele>1867</ele>
        <time>2022-07-28T08:21:23Z</time>
      </trkpt>
      <trkpt lat="45.65431" lon="6.50402">
        <ele>1867</ele>
        <time>2022-07-28T08:21:24Z</time>
      </trkpt>
      <trkpt lat="45.65432" lon="6.50401">
        <ele>1867</ele>
        <time>2022-07-28T08:21:25Z</time>
      </trkpt>
      <trkpt lat="45.65432" lon="6.504">
        <ele>1868</ele>
        <time>2022-07-28T08:21:26Z</time>
      </trkpt>
      <trkpt lat="45.65433" lon="6.50399">
        <ele>1868</ele>
        <time>2022-07-28T08:21:27Z</time>
      </trkpt>
      <trkpt lat="45.65433" lon="6.50397">
        <ele>1868</ele>
        <time>2022-07-28T08:21:28Z</time>
      </trkpt>
      <trkpt lat="45.65434" lon="6.50396">
        <ele>1868</ele>
        <time>2022-07-28T08:21:29Z</time>
      </trkpt>
      <trkpt lat="45.65434" lon="6.50395">
        <ele>1868</ele>
        <time>2022-07-28T08:21:30Z</time>
      </trkpt>
      <trkpt lat="45.65435" lon="6.50393">
        <ele>1868</ele>
        <time>2022-07-28T08:21:31Z</time>
      </trkpt>
      <trkpt lat="45.65435" lon="6.50392">
        <ele>1868</ele>
        <time>2022-07-28T08:21:32Z</time>
      </trkpt>
      <trkpt lat="45.65436" lon="6.5039">
        <ele>1868</ele>
        <time>2022-07-28T08:21:33Z</time>
      </trkpt>
      <trkpt lat="45.65436" lon="6.50389">
        <ele>1868</ele>
        <time>2022-07-28T08:21:34Z</time>
      </trkpt>
      <trkpt lat="45.65436" lon="6.50387">
        <ele>1868</ele>
        <time>2022-07-28T08:21:35Z</time>
      </trkpt>
      <trkpt lat="45.65437" lon="6.50385">
        <ele>1868</ele>
        <time>2022-07-28T08:21:36Z</time>
      </trkpt>
      <trkpt lat="45.65437" lon="6.50383">
        <ele>1868</ele>
        <time>2022-07-28T08:21:37Z</time>
      </trkpt>
      <trkpt lat="45.65437" lon="6.50382">
        <ele>1868</ele>
        <time>2022-07-28T08:21:38Z</time>
      </trkpt>
      <trkpt lat="45.65437" lon="6.5038">
        <ele>1868</ele>
        <time>2022-07-28T08:21:39Z</time>
      </trkpt>
      <trkpt lat="45.65438" lon="6.50378">
        <ele>1868</ele>
        <time>2022-07-28T08:21:40Z</time>
      </trkpt>
      <trkpt lat="45.65438" lon="6.50376">
        <ele>1869</ele>
        <time>2022-07-28T08:21:41Z</time>
      </trkpt>
      <trkpt lat="45.65438" lon="6.50374">
        <ele>1869</ele>
        <time>2022-07-28T08:21:42Z</time>
      </trkpt>
      <trkpt lat="45.65438" lon="6.50373">
        <ele>1869</ele>
        <time>2022-07-28T08:21:43Z</time>
      </trkpt>
      <trkpt lat="45.65437" lon="6.50371">
        <ele>1869</ele>
        <time>2022-07-28T08:21:44Z</time>
      </trkpt>
      <trkpt lat="45.65437" lon="6.50369">
        <ele>1869</ele>
        <time>2022-07-28T08:21:45Z</time>
      </trkpt>
      <trkpt lat="45.65437" lon="6.50368">
        <ele>1869</ele>
        <time>2022-07-28T08:21:46Z</time>
      </trkpt>
      <trkpt lat="45.65436" lon="6.50366">
        <ele>1869</ele>
        <time>2022-07-28T08:21:47Z</time>
      </trkpt>
      <trkpt lat="45.65436" lon="6.50365">
        <ele>1870</ele>
        <time>2022-07-28T08:21:48Z</time>
      </trkpt>
      <trkpt lat="45.65436" lon="6.50363">
        <ele>1870</ele>
        <time>2022-07-28T08:21:49Z</time>
      </trkpt>
      <trkpt lat="45.65435" lon="6.50361">
        <ele>1871</ele>
        <time>2022-07-28T08:21:50Z</time>
      </trkpt>
      <trkpt lat="45.65435" lon="6.5036">
        <ele>1872</ele>
        <time>2022-07-28T08:21:51Z</time>
      </trkpt>
      <trkpt lat="45.65434" lon="6.50358">
        <ele>1872</ele>
        <time>2022-07-28T08:21:52Z</time>
      </trkpt>
      <trkpt lat="45.65434" lon="6.50357">
        <ele>1872</ele>
        <time>2022-07-28T08:21:53Z</time>
      </trkpt>
      <trkpt lat="45.65433" lon="6.50355">
        <ele>1872</ele>
        <time>2022-07-28T08:21:54Z</time>
      </trkpt>
      <trkpt lat="45.65433" lon="6.50354">
        <ele>1872</ele>
        <time>2022-07-28T08:21:55Z</time>
      </trkpt>
      <trkpt lat="45.65433" lon="6.50352">
        <ele>1872</ele>
        <time>2022-07-28T08:21:56Z</time>
      </trkpt>
      <trkpt lat="45.65433" lon="6.50351">
        <ele>1872</ele>
        <time>2022-07-28T08:21:57Z</time>
      </trkpt>
      <trkpt lat="45.65433" lon="6.50349">
        <ele>1872</ele>
        <time>2022-07-28T08:21:58Z</time>
      </trkpt>
      <trkpt lat="45.65433" lon="6.50348">
        <ele>1872</ele>
        <time>2022-07-28T08:21:59Z</time>
      </trkpt>
      <trkpt lat="45.65433" lon="6.50347">
        <ele>1872</ele>
        <time>2022-07-28T08:22:00Z</time>
      </trkpt>
      <trkpt lat="45.65434" lon="6.50346">
        <ele>1869</ele>
        <time>2022-07-28T08:22:55Z</time>
      </trkpt>
      <trkpt lat="45.65434" lon="6.50346">
        <ele>1869</ele>
        <time>2022-07-28T08:22:56Z</time>
      </trkpt>
      <trkpt lat="45.65434" lon="6.50345">
        <ele>1869</ele>
        <time>2022-07-28T08:22:57Z</time>
      </trkpt>
      <trkpt lat="45.65434" lon="6.50346">
        <ele>1869</ele>
        <time>2022-07-28T08:22:58Z</time>
      </trkpt>
      <trkpt lat="45.65434" lon="6.50346">
        <ele>1869</ele>
        <time>2022-07-28T08:22:59Z</time>
      </trkpt>
      <trkpt lat="45.65434" lon="6.50346">
        <ele>1869</ele>
        <time>2022-07-28T08:23:00Z</time>
      </trkpt>
      <trkpt lat="45.65434" lon="6.50346">
        <ele>1869</ele>
        <time>2022-07-28T08:23:01Z</time>
      </trkpt>
      <trkpt lat="45.65434" lon="6.50346">
        <ele>1869</ele>
        <time>2022-07-28T08:23:02Z</time>
      </trkpt>
      <trkpt lat="45.65433" lon="6.50347">
        <ele>1869</ele>
        <time>2022-07-28T08:23:03Z</time>
      </trkpt>
      <trkpt lat="45.65433" lon="6.50347">
        <ele>1869</ele>
        <time>2022-07-28T08:23:04Z</time>
      </trkpt>
      <trkpt lat="45.65432" lon="6.50347">
        <ele>1869</ele>
        <time>2022-07-28T08:23:05Z</time>
      </trkpt>
      <trkpt lat="45.65432" lon="6.50347">
        <ele>1869</ele>
        <time>2022-07-28T08:23:06Z</time>
      </trkpt>
      <trkpt lat="45.65431" lon="6.50347">
        <ele>1869</ele>
        <time>2022-07-28T08:23:07Z</time>
      </trkpt>
      <trkpt lat="45.6543" lon="6.50346">
        <ele>1869</ele>
        <time>2022-07-28T08:23:08Z</time>
      </trkpt>
      <trkpt lat="45.65429" lon="6.50345">
        <ele>1869</ele>
        <time>2022-07-28T08:23:09Z</time>
      </trkpt>
      <trkpt lat="45.65428" lon="6.50344">
        <ele>1869</ele>
        <time>2022-07-28T08:23:10Z</time>
      </trkpt>
      <trkpt lat="45.65427" lon="6.50343">
        <ele>1869</ele>
        <time>2022-07-28T08:23:11Z</time>
      </trkpt>
      <trkpt lat="45.65427" lon="6.50342">
        <ele>1869</ele>
        <time>2022-07-28T08:23:12Z</time>
      </trkpt>
      <trkpt lat="45.65426" lon="6.5034">
        <ele>1869</ele>
        <time>2022-07-28T08:23:13Z</time>
      </trkpt>
      <trkpt lat="45.65425" lon="6.50339">
        <ele>1869</ele>
        <time>2022-07-28T08:23:14Z</time>
      </trkpt>
      <trkpt lat="45.65424" lon="6.50338">
        <ele>1869</ele>
        <time>2022-07-28T08:23:15Z</time>
      </trkpt>
      <trkpt lat="45.65423" lon="6.50336">
        <ele>1869</ele>
        <time>2022-07-28T08:23:16Z</time>
      </trkpt>
      <trkpt lat="45.65423" lon="6.50335">
        <ele>1869</ele>
        <time>2022-07-28T08:23:17Z</time>
      </trkpt>
      <trkpt lat="45.65422" lon="6.50333">
        <ele>1869</ele>
        <time>2022-07-28T08:23:18Z</time>
      </trkpt>
      <trkpt lat="45.65421" lon="6.50332">
        <ele>1869</ele>
        <time>2022-07-28T08:23:19Z</time>
      </trkpt>
      <trkpt lat="45.65421" lon="6.5033">
        <ele>1869</ele>
        <time>2022-07-28T08:23:20Z</time>
      </trkpt>
      <trkpt lat="45.65421" lon="6.50329">
        <ele>1869</ele>
        <time>2022-07-28T08:23:21Z</time>
      </trkpt>
      <trkpt lat="45.6542" lon="6.50327">
        <ele>1869</ele>
        <time>2022-07-28T08:23:22Z</time>
      </trkpt>
      <trkpt lat="45.6542" lon="6.50325">
        <ele>1869</ele>
        <time>2022-07-28T08:23:23Z</time>
      </trkpt>
      <trkpt lat="45.6542" lon="6.50323">
        <ele>1870</ele>
        <time>2022-07-28T08:23:24Z</time>
      </trkpt>
      <trkpt lat="45.6542" lon="6.50321">
        <ele>1870</ele>
        <time>2022-07-28T08:23:25Z</time>
      </trkpt>
      <trkpt lat="45.65421" lon="6.50319">
        <ele>1871</ele>
        <time>2022-07-28T08:23:26Z</time>
      </trkpt>
      <trkpt lat="45.65421" lon="6.50317">
        <ele>1871</ele>
        <time>2022-07-28T08:23:27Z</time>
      </trkpt>
      <trkpt lat="45.65421" lon="6.50315">
        <ele>1871</ele>
        <time>2022-07-28T08:23:28Z</time>
      </trkpt>
      <trkpt lat="45.6542" lon="6.50313">
        <ele>1871</ele>
        <time>2022-07-28T08:23:29Z</time>
      </trkpt>
      <trkpt lat="45.6542" lon="6.50311">
        <ele>1871</ele>
        <time>2022-07-28T08:23:30Z</time>
      </trkpt>
      <trkpt lat="45.6542" lon="6.5031">
        <ele>1871</ele>
        <time>2022-07-28T08:23:31Z</time>
      </trkpt>
      <trkpt lat="45.65419" lon="6.50308">
        <ele>1871</ele>
        <time>2022-07-28T08:23:32Z</time>
      </trkpt>
      <trkpt lat="45.65418" lon="6.50307">
        <ele>1871</ele>
        <time>2022-07-28T08:23:33Z</time>
      </trkpt>
      <trkpt lat="45.65417" lon="6.50306">
        <ele>1871</ele>
        <time>2022-07-28T08:23:34Z</time>
      </trkpt>
      <trkpt lat="45.65416" lon="6.50305">
        <ele>1871</ele>
        <time>2022-07-28T08:23:35Z</time>
      </trkpt>
      <trkpt lat="45.65415" lon="6.50304">
        <ele>1871</ele>
        <time>2022-07-28T08:23:36Z</time>
      </trkpt>
      <trkpt lat="45.65414" lon="6.50304">
        <ele>1871</ele>
        <time>2022-07-28T08:23:37Z</time>
      </trkpt>
      <trkpt lat="45.65412" lon="6.50304">
        <ele>1871</ele>
        <time>2022-07-28T08:23:38Z</time>
      </trkpt>
      <trkpt lat="45.65411" lon="6.50305">
        <ele>1871</ele>
        <time>2022-07-28T08:23:39Z</time>
      </trkpt>
      <trkpt lat="45.6541" lon="6.50305">
        <ele>1871</ele>
        <time>2022-07-28T08:23:40Z</time>
      </trkpt>
      <trkpt lat="45.65409" lon="6.50305">
        <ele>1872</ele>
        <time>2022-07-28T08:23:41Z</time>
      </trkpt>
      <trkpt lat="45.65407" lon="6.50305">
        <ele>1872</ele>
        <time>2022-07-28T08:23:42Z</time>
      </trkpt>
      <trkpt lat="45.65406" lon="6.50306">
        <ele>1872</ele>
        <time>2022-07-28T08:23:43Z</time>
      </trkpt>
      <trkpt lat="45.65405" lon="6.50306">
        <ele>1872</ele>
        <time>2022-07-28T08:23:44Z</time>
      </trkpt>
      <trkpt lat="45.65404" lon="6.50306">
        <ele>1872</ele>
        <time>2022-07-28T08:23:45Z</time>
      </trkpt>
      <trkpt lat="45.65403" lon="6.50307">
        <ele>1873</ele>
        <time>2022-07-28T08:23:46Z</time>
      </trkpt>
      <trkpt lat="45.65402" lon="6.50307">
        <ele>1873</ele>
        <time>2022-07-28T08:23:47Z</time>
      </trkpt>
      <trkpt lat="45.654" lon="6.50307">
        <ele>1873</ele>
        <time>2022-07-28T08:23:48Z</time>
      </trkpt>
      <trkpt lat="45.65399" lon="6.50307">
        <ele>1873</ele>
        <time>2022-07-28T08:23:49Z</time>
      </trkpt>
      <trkpt lat="45.65398" lon="6.50307">
        <ele>1873</ele>
        <time>2022-07-28T08:23:50Z</time>
      </trkpt>
      <trkpt lat="45.65397" lon="6.50307">
        <ele>1873</ele>
        <time>2022-07-28T08:23:51Z</time>
      </trkpt>
      <trkpt lat="45.65396" lon="6.50307">
        <ele>1873</ele>
        <time>2022-07-28T08:23:52Z</time>
      </trkpt>
      <trkpt lat="45.65395" lon="6.50307">
        <ele>1873</ele>
        <time>2022-07-28T08:23:53Z</time>
      </trkpt>
      <trkpt lat="45.65394" lon="6.50307">
        <ele>1873</ele>
        <time>2022-07-28T08:23:54Z</time>
      </trkpt>
      <trkpt lat="45.65393" lon="6.50307">
        <ele>1873</ele>
        <time>2022-07-28T08:23:55Z</time>
      </trkpt>
      <trkpt lat="45.65392" lon="6.50307">
        <ele>1874</ele>
        <time>2022-07-28T08:23:56Z</time>
      </trkpt>
      <trkpt lat="45.65391" lon="6.50307">
        <ele>1874</ele>
        <time>2022-07-28T08:23:57Z</time>
      </trkpt>
      <trkpt lat="45.6539" lon="6.50307">
        <ele>1874</ele>
        <time>2022-07-28T08:23:58Z</time>
      </trkpt>
      <trkpt lat="45.6539" lon="6.50307">
        <ele>1874</ele>
        <time>2022-07-28T08:23:59Z</time>
      </trkpt>
      <trkpt lat="45.65389" lon="6.50307">
        <ele>1874</ele>
        <time>2022-07-28T08:24:00Z</time>
      </trkpt>
      <trkpt lat="45.65388" lon="6.50306">
        <ele>1877</ele>
        <time>2022-07-28T08:24:44Z</time>
      </trkpt>
      <trkpt lat="45.65388" lon="6.50306">
        <ele>1877</ele>
        <time>2022-07-28T08:24:45Z</time>
      </trkpt>
      <trkpt lat="45.65387" lon="6.50305">
        <ele>1877</ele>
        <time>2022-07-28T08:24:46Z</time>
      </trkpt>
      <trkpt lat="45.65387" lon="6.50305">
        <ele>1877</ele>
        <time>2022-07-28T08:24:47Z</time>
      </trkpt>
      <trkpt lat="45.65387" lon="6.50305">
        <ele>1877</ele>
        <time>2022-07-28T08:24:48Z</time>
      </trkpt>
      <trkpt lat="45.65387" lon="6.50304">
        <ele>1877</ele>
        <time>2022-07-28T08:24:49Z</time>
      </trkpt>
      <trkpt lat="45.65386" lon="6.50304">
        <ele>1877</ele>
        <time>2022-07-28T08:24:50Z</time>
      </trkpt>
      <trkpt lat="45.65385" lon="6.50303">
        <ele>1878</ele>
        <time>2022-07-28T08:24:51Z</time>
      </trkpt>
      <trkpt lat="45.65385" lon="6.50302">
        <ele>1877</ele>
        <time>2022-07-28T08:24:52Z</time>
      </trkpt>
      <trkpt lat="45.65384" lon="6.50302">
        <ele>1877</ele>
        <time>2022-07-28T08:24:53Z</time>
      </trkpt>
      <trkpt lat="45.65384" lon="6.50301">
        <ele>1877</ele>
        <time>2022-07-28T08:24:54Z</time>
      </trkpt>
      <trkpt lat="45.65384" lon="6.50301">
        <ele>1877</ele>
        <time>2022-07-28T08:24:55Z</time>
      </trkpt>
      <trkpt lat="45.65381" lon="6.50297">
        <ele>1882</ele>
        <time>2022-07-28T08:25:36Z</time>
      </trkpt>
      <trkpt lat="45.65379" lon="6.50296">
        <ele>1882</ele>
        <time>2022-07-28T08:25:37Z</time>
      </trkpt>
      <trkpt lat="45.65377" lon="6.50294">
        <ele>1882</ele>
        <time>2022-07-28T08:25:38Z</time>
      </trkpt>
      <trkpt lat="45.65375" lon="6.5029">
        <ele>1882</ele>
        <time>2022-07-28T08:25:48Z</time>
      </trkpt>
      <trkpt lat="45.65374" lon="6.50288">
        <ele>1882</ele>
        <time>2022-07-28T08:25:49Z</time>
      </trkpt>
      <trkpt lat="45.65373" lon="6.50286">
        <ele>1882</ele>
        <time>2022-07-28T08:25:50Z</time>
      </trkpt>
      <trkpt lat="45.65369" lon="6.5028">
        <ele>1888</ele>
        <time>2022-07-28T08:26:25Z</time>
      </trkpt>
      <trkpt lat="45.65367" lon="6.50276">
        <ele>1889</ele>
        <time>2022-07-28T08:26:26Z</time>
      </trkpt>
      <trkpt lat="45.65366" lon="6.50273">
        <ele>1889</ele>
        <time>2022-07-28T08:26:27Z</time>
      </trkpt>
      <trkpt lat="45.65363" lon="6.50268">
        <ele>1891</ele>
        <time>2022-07-28T08:26:41Z</time>
      </trkpt>
      <trkpt lat="45.65361" lon="6.50267">
        <ele>1891</ele>
        <time>2022-07-28T08:26:42Z</time>
      </trkpt>
      <trkpt lat="45.6536" lon="6.50265">
        <ele>1891</ele>
        <time>2022-07-28T08:26:43Z</time>
      </trkpt>
      <trkpt lat="45.6536" lon="6.50264">
        <ele>1891</ele>
        <time>2022-07-28T08:26:44Z</time>
      </trkpt>
      <trkpt lat="45.65359" lon="6.50263">
        <ele>1891</ele>
        <time>2022-07-28T08:26:45Z</time>
      </trkpt>
      <trkpt lat="45.65359" lon="6.50262">
        <ele>1892</ele>
        <time>2022-07-28T08:26:46Z</time>
      </trkpt>
      <trkpt lat="45.65358" lon="6.50261">
        <ele>1892</ele>
        <time>2022-07-28T08:26:47Z</time>
      </trkpt>
      <trkpt lat="45.65358" lon="6.5026">
        <ele>1892</ele>
        <time>2022-07-28T08:26:48Z</time>
      </trkpt>
      <trkpt lat="45.65358" lon="6.50257">
        <ele>1894</ele>
        <time>2022-07-28T08:26:59Z</time>
      </trkpt>
      <trkpt lat="45.65358" lon="6.50255">
        <ele>1894</ele>
        <time>2022-07-28T08:27:00Z</time>
      </trkpt>
      <trkpt lat="45.65359" lon="6.50254">
        <ele>1894</ele>
        <time>2022-07-28T08:27:01Z</time>
      </trkpt>
      <trkpt lat="45.65359" lon="6.50253">
        <ele>1894</ele>
        <time>2022-07-28T08:27:02Z</time>
      </trkpt>
      <trkpt lat="45.65359" lon="6.50252">
        <ele>1894</ele>
        <time>2022-07-28T08:27:03Z</time>
      </trkpt>
      <trkpt lat="45.65362" lon="6.50251">
        <ele>1897</ele>
        <time>2022-07-28T08:27:19Z</time>
      </trkpt>
      <trkpt lat="45.65363" lon="6.5025">
        <ele>1897</ele>
        <time>2022-07-28T08:27:20Z</time>
      </trkpt>
      <trkpt lat="45.65364" lon="6.5025">
        <ele>1897</ele>
        <time>2022-07-28T08:27:21Z</time>
      </trkpt>
      <trkpt lat="45.65365" lon="6.5025">
        <ele>1897</ele>
        <time>2022-07-28T08:27:22Z</time>
      </trkpt>
      <trkpt lat="45.65366" lon="6.50249">
        <ele>1897</ele>
        <time>2022-07-28T08:27:23Z</time>
      </trkpt>
      <trkpt lat="45.65368" lon="6.50248">
        <ele>1901</ele>
        <time>2022-07-28T08:27:38Z</time>
      </trkpt>
      <trkpt lat="45.6537" lon="6.50248">
        <ele>1901</ele>
        <time>2022-07-28T08:27:39Z</time>
      </trkpt>
      <trkpt lat="45.65371" lon="6.50247">
        <ele>1901</ele>
        <time>2022-07-28T08:27:40Z</time>
      </trkpt>
      <trkpt lat="45.65373" lon="6.50246">
        <ele>1902</ele>
        <time>2022-07-28T08:28:00Z</time>
      </trkpt>
      <trkpt lat="45.65374" lon="6.50245">
        <ele>1902</ele>
        <time>2022-07-28T08:28:01Z</time>
      </trkpt>
      <trkpt lat="45.65374" lon="6.50244">
        <ele>1902</ele>
        <time>2022-07-28T08:28:02Z</time>
      </trkpt>
      <trkpt lat="45.65375" lon="6.50244">
        <ele>1902</ele>
        <time>2022-07-28T08:28:03Z</time>
      </trkpt>
      <trkpt lat="45.65375" lon="6.50244">
        <ele>1902</ele>
        <time>2022-07-28T08:28:04Z</time>
      </trkpt>
      <trkpt lat="45.65375" lon="6.50244">
        <ele>1902</ele>
        <time>2022-07-28T08:28:05Z</time>
      </trkpt>
      <trkpt lat="45.65376" lon="6.50243">
        <ele>1903</ele>
        <time>2022-07-28T08:28:06Z</time>
      </trkpt>
      <trkpt lat="45.65376" lon="6.50243">
        <ele>1903</ele>
        <time>2022-07-28T08:28:07Z</time>
      </trkpt>
      <trkpt lat="45.65377" lon="6.50243">
        <ele>1903</ele>
        <time>2022-07-28T08:28:08Z</time>
      </trkpt>
      <trkpt lat="45.65378" lon="6.50244">
        <ele>1905</ele>
        <time>2022-07-28T08:28:25Z</time>
      </trkpt>
      <trkpt lat="45.65379" lon="6.50244">
        <ele>1905</ele>
        <time>2022-07-28T08:28:26Z</time>
      </trkpt>
      <trkpt lat="45.6538" lon="6.50244">
        <ele>1905</ele>
        <time>2022-07-28T08:28:27Z</time>
      </trkpt>
      <trkpt lat="45.65381" lon="6.50244">
        <ele>1905</ele>
        <time>2022-07-28T08:28:28Z</time>
      </trkpt>
      <trkpt lat="45.65381" lon="6.50244">
        <ele>1905</ele>
        <time>2022-07-28T08:28:29Z</time>
      </trkpt>
      <trkpt lat="45.65382" lon="6.50243">
        <ele>1905</ele>
        <time>2022-07-28T08:28:30Z</time>
      </trkpt>
      <trkpt lat="45.65383" lon="6.50243">
        <ele>1906</ele>
        <time>2022-07-28T08:28:31Z</time>
      </trkpt>
      <trkpt lat="45.65383" lon="6.50243">
        <ele>1906</ele>
        <time>2022-07-28T08:28:32Z</time>
      </trkpt>
      <trkpt lat="45.65383" lon="6.50242">
        <ele>1906</ele>
        <time>2022-07-28T08:28:33Z</time>
      </trkpt>
      <trkpt lat="45.65384" lon="6.50242">
        <ele>1906</ele>
        <time>2022-07-28T08:28:34Z</time>
      </trkpt>
      <trkpt lat="45.65384" lon="6.50242">
        <ele>1906</ele>
        <time>2022-07-28T08:28:35Z</time>
      </trkpt>
      <trkpt lat="45.65385" lon="6.50241">
        <ele>1906</ele>
        <time>2022-07-28T08:28:36Z</time>
      </trkpt>
      <trkpt lat="45.65386" lon="6.50241">
        <ele>1906</ele>
        <time>2022-07-28T08:28:37Z</time>
      </trkpt>
      <trkpt lat="45.65386" lon="6.5024">
        <ele>1906</ele>
        <time>2022-07-28T08:28:38Z</time>
      </trkpt>
      <trkpt lat="45.65387" lon="6.5024">
        <ele>1906</ele>
        <time>2022-07-28T08:28:39Z</time>
      </trkpt>
      <trkpt lat="45.65388" lon="6.5024">
        <ele>1906</ele>
        <time>2022-07-28T08:28:40Z</time>
      </trkpt>
      <trkpt lat="45.65388" lon="6.5024">
        <ele>1907</ele>
        <time>2022-07-28T08:28:41Z</time>
      </trkpt>
      <trkpt lat="45.65389" lon="6.50239">
        <ele>1907</ele>
        <time>2022-07-28T08:28:42Z</time>
      </trkpt>
      <trkpt lat="45.6539" lon="6.50239">
        <ele>1907</ele>
        <time>2022-07-28T08:28:43Z</time>
      </trkpt>
      <trkpt lat="45.6539" lon="6.50239">
        <ele>1907</ele>
        <time>2022-07-28T08:28:44Z</time>
      </trkpt>
      <trkpt lat="45.65391" lon="6.50238">
        <ele>1907</ele>
        <time>2022-07-28T08:28:45Z</time>
      </trkpt>
      <trkpt lat="45.65392" lon="6.50238">
        <ele>1908</ele>
        <time>2022-07-28T08:28:46Z</time>
      </trkpt>
      <trkpt lat="45.65392" lon="6.50237">
        <ele>1908</ele>
        <time>2022-07-28T08:28:47Z</time>
      </trkpt>
      <trkpt lat="45.65393" lon="6.50237">
        <ele>1908</ele>
        <time>2022-07-28T08:28:48Z</time>
      </trkpt>
      <trkpt lat="45.65393" lon="6.50236">
        <ele>1908</ele>
        <time>2022-07-28T08:28:49Z</time>
      </trkpt>
      <trkpt lat="45.65394" lon="6.50235">
        <ele>1908</ele>
        <time>2022-07-28T08:28:50Z</time>
      </trkpt>
      <trkpt lat="45.65394" lon="6.50234">
        <ele>1908</ele>
        <time>2022-07-28T08:28:51Z</time>
      </trkpt>
      <trkpt lat="45.65394" lon="6.50234">
        <ele>1908</ele>
        <time>2022-07-28T08:28:52Z</time>
      </trkpt>
      <trkpt lat="45.65395" lon="6.50233">
        <ele>1908</ele>
        <time>2022-07-28T08:28:53Z</time>
      </trkpt>
      <trkpt lat="45.65395" lon="6.50232">
        <ele>1908</ele>
        <time>2022-07-28T08:28:54Z</time>
      </trkpt>
      <trkpt lat="45.65396" lon="6.50232">
        <ele>1908</ele>
        <time>2022-07-28T08:28:55Z</time>
      </trkpt>
      <trkpt lat="45.65396" lon="6.50231">
        <ele>1909</ele>
        <time>2022-07-28T08:28:56Z</time>
      </trkpt>
      <trkpt lat="45.65397" lon="6.5023">
        <ele>1909</ele>
        <time>2022-07-28T08:28:57Z</time>
      </trkpt>
      <trkpt lat="45.65397" lon="6.5023">
        <ele>1909</ele>
        <time>2022-07-28T08:28:58Z</time>
      </trkpt>
      <trkpt lat="45.65397" lon="6.50229">
        <ele>1909</ele>
        <time>2022-07-28T08:28:59Z</time>
      </trkpt>
      <trkpt lat="45.65398" lon="6.50228">
        <ele>1909</ele>
        <time>2022-07-28T08:29:00Z</time>
      </trkpt>
      <trkpt lat="45.65398" lon="6.50227">
        <ele>1910</ele>
        <time>2022-07-28T08:29:01Z</time>
      </trkpt>
      <trkpt lat="45.65398" lon="6.50227">
        <ele>1910</ele>
        <time>2022-07-28T08:29:02Z</time>
      </trkpt>
      <trkpt lat="45.65399" lon="6.50226">
        <ele>1910</ele>
        <time>2022-07-28T08:29:03Z</time>
      </trkpt>
      <trkpt lat="45.65399" lon="6.50225">
        <ele>1910</ele>
        <time>2022-07-28T08:29:04Z</time>
      </trkpt>
      <trkpt lat="45.65399" lon="6.50224">
        <ele>1910</ele>
        <time>2022-07-28T08:29:05Z</time>
      </trkpt>
      <trkpt lat="45.65399" lon="6.50223">
        <ele>1911</ele>
        <time>2022-07-28T08:29:06Z</time>
      </trkpt>
      <trkpt lat="45.65399" lon="6.50223">
        <ele>1911</ele>
        <time>2022-07-28T08:29:07Z</time>
      </trkpt>
      <trkpt lat="45.65399" lon="6.50222">
        <ele>1911</ele>
        <time>2022-07-28T08:29:08Z</time>
      </trkpt>
      <trkpt lat="45.654" lon="6.50221">
        <ele>1911</ele>
        <time>2022-07-28T08:29:09Z</time>
      </trkpt>
      <trkpt lat="45.654" lon="6.5022">
        <ele>1911</ele>
        <time>2022-07-28T08:29:10Z</time>
      </trkpt>
      <trkpt lat="45.654" lon="6.5022">
        <ele>1912</ele>
        <time>2022-07-28T08:29:11Z</time>
      </trkpt>
      <trkpt lat="45.654" lon="6.5022">
        <ele>1912</ele>
        <time>2022-07-28T08:29:12Z</time>
      </trkpt>
      <trkpt lat="45.654" lon="6.50219">
        <ele>1912</ele>
        <time>2022-07-28T08:29:13Z</time>
      </trkpt>
      <trkpt lat="45.654" lon="6.50219">
        <ele>1912</ele>
        <time>2022-07-28T08:29:14Z</time>
      </trkpt>
      <trkpt lat="45.654" lon="6.50218">
        <ele>1912</ele>
        <time>2022-07-28T08:29:15Z</time>
      </trkpt>
      <trkpt lat="45.654" lon="6.50217">
        <ele>1912</ele>
        <time>2022-07-28T08:29:16Z</time>
      </trkpt>
      <trkpt lat="45.654" lon="6.50217">
        <ele>1912</ele>
        <time>2022-07-28T08:29:17Z</time>
      </trkpt>
      <trkpt lat="45.654" lon="6.50216">
        <ele>1912</ele>
        <time>2022-07-28T08:29:18Z</time>
      </trkpt>
      <trkpt lat="45.654" lon="6.50215">
        <ele>1912</ele>
        <time>2022-07-28T08:29:19Z</time>
      </trkpt>
      <trkpt lat="45.654" lon="6.50215">
        <ele>1915</ele>
        <time>2022-07-28T08:30:40Z</time>
      </trkpt>
      <trkpt lat="45.65399" lon="6.50214">
        <ele>1915</ele>
        <time>2022-07-28T08:30:41Z</time>
      </trkpt>
      <trkpt lat="45.65398" lon="6.50214">
        <ele>1915</ele>
        <time>2022-07-28T08:30:42Z</time>
      </trkpt>
      <trkpt lat="45.65398" lon="6.50213">
        <ele>1915</ele>
        <time>2022-07-28T08:30:43Z</time>
      </trkpt>
      <trkpt lat="45.65398" lon="6.50212">
        <ele>1915</ele>
        <time>2022-07-28T08:30:44Z</time>
      </trkpt>
      <trkpt lat="45.65397" lon="6.50211">
        <ele>1915</ele>
        <time>2022-07-28T08:30:45Z</time>
      </trkpt>
      <trkpt lat="45.65397" lon="6.5021">
        <ele>1916</ele>
        <time>2022-07-28T08:30:46Z</time>
      </trkpt>
      <trkpt lat="45.65397" lon="6.50209">
        <ele>1916</ele>
        <time>2022-07-28T08:30:47Z</time>
      </trkpt>
      <trkpt lat="45.65397" lon="6.50208">
        <ele>1916</ele>
        <time>2022-07-28T08:30:48Z</time>
      </trkpt>
      <trkpt lat="45.65396" lon="6.50207">
        <ele>1916</ele>
        <time>2022-07-28T08:30:49Z</time>
      </trkpt>
      <trkpt lat="45.65396" lon="6.50206">
        <ele>1916</ele>
        <time>2022-07-28T08:30:50Z</time>
      </trkpt>
      <trkpt lat="45.65396" lon="6.50205">
        <ele>1916</ele>
        <time>2022-07-28T08:30:51Z</time>
      </trkpt>
      <trkpt lat="45.65396" lon="6.50204">
        <ele>1916</ele>
        <time>2022-07-28T08:30:52Z</time>
      </trkpt>
      <trkpt lat="45.65395" lon="6.50204">
        <ele>1916</ele>
        <time>2022-07-28T08:30:53Z</time>
      </trkpt>
      <trkpt lat="45.65395" lon="6.50203">
        <ele>1916</ele>
        <time>2022-07-28T08:30:54Z</time>
      </trkpt>
      <trkpt lat="45.65395" lon="6.50202">
        <ele>1916</ele>
        <time>2022-07-28T08:30:55Z</time>
      </trkpt>
      <trkpt lat="45.65395" lon="6.50201">
        <ele>1917</ele>
        <time>2022-07-28T08:30:56Z</time>
      </trkpt>
      <trkpt lat="45.65395" lon="6.502">
        <ele>1917</ele>
        <time>2022-07-28T08:30:57Z</time>
      </trkpt>
      <trkpt lat="45.65395" lon="6.502">
        <ele>1917</ele>
        <time>2022-07-28T08:30:58Z</time>
      </trkpt>
      <trkpt lat="45.65395" lon="6.50199">
        <ele>1917</ele>
        <time>2022-07-28T08:30:59Z</time>
      </trkpt>
      <trkpt lat="45.65395" lon="6.50198">
        <ele>1917</ele>
        <time>2022-07-28T08:31:00Z</time>
      </trkpt>
      <trkpt lat="45.65395" lon="6.50196">
        <ele>1919</ele>
        <time>2022-07-28T08:31:53Z</time>
      </trkpt>
      <trkpt lat="45.65395" lon="6.50195">
        <ele>1919</ele>
        <time>2022-07-28T08:31:54Z</time>
      </trkpt>
      <trkpt lat="45.65395" lon="6.50194">
        <ele>1919</ele>
        <time>2022-07-28T08:31:55Z</time>
      </trkpt>
      <trkpt lat="45.65394" lon="6.50194">
        <ele>1920</ele>
        <time>2022-07-28T08:31:56Z</time>
      </trkpt>
      <trkpt lat="45.65394" lon="6.50193">
        <ele>1920</ele>
        <time>2022-07-28T08:31:57Z</time>
      </trkpt>
      <trkpt lat="45.65394" lon="6.50192">
        <ele>1920</ele>
        <time>2022-07-28T08:31:58Z</time>
      </trkpt>
      <trkpt lat="45.65394" lon="6.50191">
        <ele>1920</ele>
        <time>2022-07-28T08:31:59Z</time>
      </trkpt>
      <trkpt lat="45.65394" lon="6.5019">
        <ele>1920</ele>
        <time>2022-07-28T08:32:00Z</time>
      </trkpt>
      <trkpt lat="45.65394" lon="6.50189">
        <ele>1920</ele>
        <time>2022-07-28T08:32:01Z</time>
      </trkpt>
      <trkpt lat="45.65394" lon="6.50188">
        <ele>1920</ele>
        <time>2022-07-28T08:32:02Z</time>
      </trkpt>
      <trkpt lat="45.65394" lon="6.50187">
        <ele>1920</ele>
        <time>2022-07-28T08:32:03Z</time>
      </trkpt>
      <trkpt lat="45.65394" lon="6.50186">
        <ele>1920</ele>
        <time>2022-07-28T08:32:04Z</time>
      </trkpt>
      <trkpt lat="45.65394" lon="6.50185">
        <ele>1920</ele>
        <time>2022-07-28T08:32:05Z</time>
      </trkpt>
      <trkpt lat="45.65395" lon="6.50184">
        <ele>1921</ele>
        <time>2022-07-28T08:32:06Z</time>
      </trkpt>
      <trkpt lat="45.65395" lon="6.50183">
        <ele>1921</ele>
        <time>2022-07-28T08:32:07Z</time>
      </trkpt>
      <trkpt lat="45.65396" lon="6.50183">
        <ele>1921</ele>
        <time>2022-07-28T08:32:08Z</time>
      </trkpt>
      <trkpt lat="45.65396" lon="6.50183">
        <ele>1921</ele>
        <time>2022-07-28T08:32:09Z</time>
      </trkpt>
      <trkpt lat="45.65396" lon="6.50182">
        <ele>1921</ele>
        <time>2022-07-28T08:32:10Z</time>
      </trkpt>
      <trkpt lat="45.65396" lon="6.50182">
        <ele>1921</ele>
        <time>2022-07-28T08:32:11Z</time>
      </trkpt>
      <trkpt lat="45.65397" lon="6.50182">
        <ele>1921</ele>
        <time>2022-07-28T08:32:12Z</time>
      </trkpt>
      <trkpt lat="45.65397" lon="6.50181">
        <ele>1921</ele>
        <time>2022-07-28T08:32:13Z</time>
      </trkpt>
      <trkpt lat="45.65398" lon="6.50181">
        <ele>1921</ele>
        <time>2022-07-28T08:32:14Z</time>
      </trkpt>
      <trkpt lat="45.65398" lon="6.50181">
        <ele>1921</ele>
        <time>2022-07-28T08:32:15Z</time>
      </trkpt>
      <trkpt lat="45.65399" lon="6.5018">
        <ele>1922</ele>
        <time>2022-07-28T08:32:16Z</time>
      </trkpt>
      <trkpt lat="45.65399" lon="6.5018">
        <ele>1922</ele>
        <time>2022-07-28T08:32:17Z</time>
      </trkpt>
      <trkpt lat="45.654" lon="6.50179">
        <ele>1922</ele>
        <time>2022-07-28T08:32:18Z</time>
      </trkpt>
      <trkpt lat="45.654" lon="6.50179">
        <ele>1922</ele>
        <time>2022-07-28T08:32:19Z</time>
      </trkpt>
      <trkpt lat="45.654" lon="6.50179">
        <ele>1922</ele>
        <time>2022-07-28T08:32:20Z</time>
      </trkpt>
      <trkpt lat="45.65402" lon="6.50177">
        <ele>1925</ele>
        <time>2022-07-28T08:32:35Z</time>
      </trkpt>
      <trkpt lat="45.65403" lon="6.50175">
        <ele>1926</ele>
        <time>2022-07-28T08:32:36Z</time>
      </trkpt>
      <trkpt lat="45.65404" lon="6.50174">
        <ele>1926</ele>
        <time>2022-07-28T08:32:37Z</time>
      </trkpt>
      <trkpt lat="45.65405" lon="6.50174">
        <ele>1926</ele>
        <time>2022-07-28T08:32:38Z</time>
      </trkpt>
      <trkpt lat="45.65406" lon="6.50173">
        <ele>1926</ele>
        <time>2022-07-28T08:32:39Z</time>
      </trkpt>
      <trkpt lat="45.65414" lon="6.50166">
        <ele>1936</ele>
        <time>2022-07-28T08:35:17Z</time>
      </trkpt>
      <trkpt lat="45.65418" lon="6.50163">
        <ele>1936</ele>
        <time>2022-07-28T08:35:18Z</time>
      </trkpt>
      <trkpt lat="45.65423" lon="6.5016">
        <ele>1936</ele>
        <time>2022-07-28T08:35:19Z</time>
      </trkpt>
      <trkpt lat="45.65425" lon="6.50158">
        <ele>1936</ele>
        <time>2022-07-28T08:35:20Z</time>
      </trkpt>
      <trkpt lat="45.65427" lon="6.50157">
        <ele>1937</ele>
        <time>2022-07-28T08:35:21Z</time>
      </trkpt>
      <trkpt lat="45.65428" lon="6.50156">
        <ele>1937</ele>
        <time>2022-07-28T08:35:22Z</time>
      </trkpt>
      <trkpt lat="45.65429" lon="6.50155">
        <ele>1937</ele>
        <time>2022-07-28T08:35:23Z</time>
      </trkpt>
      <trkpt lat="45.6543" lon="6.50154">
        <ele>1937</ele>
        <time>2022-07-28T08:35:24Z</time>
      </trkpt>
      <trkpt lat="45.6543" lon="6.50154">
        <ele>1937</ele>
        <time>2022-07-28T08:35:25Z</time>
      </trkpt>
      <trkpt lat="45.65431" lon="6.50153">
        <ele>1938</ele>
        <time>2022-07-28T08:35:26Z</time>
      </trkpt>
      <trkpt lat="45.65432" lon="6.50152">
        <ele>1938</ele>
        <time>2022-07-28T08:35:27Z</time>
      </trkpt>
      <trkpt lat="45.65432" lon="6.50151">
        <ele>1938</ele>
        <time>2022-07-28T08:35:28Z</time>
      </trkpt>
      <trkpt lat="45.65432" lon="6.50151">
        <ele>1938</ele>
        <time>2022-07-28T08:35:29Z</time>
      </trkpt>
      <trkpt lat="45.65432" lon="6.5015">
        <ele>1938</ele>
        <time>2022-07-28T08:35:30Z</time>
      </trkpt>
      <trkpt lat="45.65432" lon="6.5015">
        <ele>1938</ele>
        <time>2022-07-28T08:35:31Z</time>
      </trkpt>
      <trkpt lat="45.65433" lon="6.5015">
        <ele>1938</ele>
        <time>2022-07-28T08:35:32Z</time>
      </trkpt>
      <trkpt lat="45.65433" lon="6.50149">
        <ele>1938</ele>
        <time>2022-07-28T08:35:33Z</time>
      </trkpt>
      <trkpt lat="45.65433" lon="6.50148">
        <ele>1938</ele>
        <time>2022-07-28T08:35:34Z</time>
      </trkpt>
      <trkpt lat="45.65433" lon="6.50147">
        <ele>1938</ele>
        <time>2022-07-28T08:35:35Z</time>
      </trkpt>
      <trkpt lat="45.65435" lon="6.50144">
        <ele>1939</ele>
        <time>2022-07-28T08:35:44Z</time>
      </trkpt>
      <trkpt lat="45.65435" lon="6.50143">
        <ele>1939</ele>
        <time>2022-07-28T08:35:45Z</time>
      </trkpt>
      <trkpt lat="45.65436" lon="6.50142">
        <ele>1940</ele>
        <time>2022-07-28T08:35:46Z</time>
      </trkpt>
      <trkpt lat="45.65436" lon="6.50141">
        <ele>1940</ele>
        <time>2022-07-28T08:35:47Z</time>
      </trkpt>
      <trkpt lat="45.65437" lon="6.5014">
        <ele>1940</ele>
        <time>2022-07-28T08:35:48Z</time>
      </trkpt>
      <trkpt lat="45.65438" lon="6.50138">
        <ele>1942</ele>
        <time>2022-07-28T08:36:02Z</time>
      </trkpt>
      <trkpt lat="45.65438" lon="6.50137">
        <ele>1942</ele>
        <time>2022-07-28T08:36:03Z</time>
      </trkpt>
      <trkpt lat="45.65439" lon="6.50136">
        <ele>1942</ele>
        <time>2022-07-28T08:36:04Z</time>
      </trkpt>
      <trkpt lat="45.6544" lon="6.50131">
        <ele>1946</ele>
        <time>2022-07-28T08:36:53Z</time>
      </trkpt>
      <trkpt lat="45.65441" lon="6.50129">
        <ele>1946</ele>
        <time>2022-07-28T08:36:54Z</time>
      </trkpt>
      <trkpt lat="45.65442" lon="6.50126">
        <ele>1946</ele>
        <time>2022-07-28T08:36:55Z</time>
      </trkpt>
      <trkpt lat="45.65443" lon="6.5012">
        <ele>1947</ele>
        <time>2022-07-28T08:37:14Z</time>
      </trkpt>
      <trkpt lat="45.65443" lon="6.50118">
        <ele>1947</ele>
        <time>2022-07-28T08:37:15Z</time>
      </trkpt>
      <trkpt lat="45.65443" lon="6.50115">
        <ele>1947</ele>
        <time>2022-07-28T08:37:16Z</time>
      </trkpt>
      <trkpt lat="45.65443" lon="6.50114">
        <ele>1947</ele>
        <time>2022-07-28T08:37:17Z</time>
      </trkpt>
      <trkpt lat="45.65443" lon="6.50113">
        <ele>1947</ele>
        <time>2022-07-28T08:37:18Z</time>
      </trkpt>
      <trkpt lat="45.65443" lon="6.50111">
        <ele>1947</ele>
        <time>2022-07-28T08:37:19Z</time>
      </trkpt>
      <trkpt lat="45.65443" lon="6.5011">
        <ele>1947</ele>
        <time>2022-07-28T08:37:20Z</time>
      </trkpt>
      <trkpt lat="45.65444" lon="6.50109">
        <ele>1948</ele>
        <time>2022-07-28T08:37:21Z</time>
      </trkpt>
      <trkpt lat="45.65444" lon="6.50108">
        <ele>1948</ele>
        <time>2022-07-28T08:37:22Z</time>
      </trkpt>
      <trkpt lat="45.65444" lon="6.50107">
        <ele>1948</ele>
        <time>2022-07-28T08:37:23Z</time>
      </trkpt>
      <trkpt lat="45.65445" lon="6.50107">
        <ele>1948</ele>
        <time>2022-07-28T08:37:24Z</time>
      </trkpt>
      <trkpt lat="45.65445" lon="6.50106">
        <ele>1948</ele>
        <time>2022-07-28T08:37:25Z</time>
      </trkpt>
      <trkpt lat="45.65445" lon="6.50106">
        <ele>1949</ele>
        <time>2022-07-28T08:37:26Z</time>
      </trkpt>
      <trkpt lat="45.65446" lon="6.50106">
        <ele>1949</ele>
        <time>2022-07-28T08:37:27Z</time>
      </trkpt>
      <trkpt lat="45.65446" lon="6.50105">
        <ele>1949</ele>
        <time>2022-07-28T08:37:28Z</time>
      </trkpt>
      <trkpt lat="45.65447" lon="6.50105">
        <ele>1949</ele>
        <time>2022-07-28T08:37:29Z</time>
      </trkpt>
      <trkpt lat="45.65447" lon="6.50104">
        <ele>1949</ele>
        <time>2022-07-28T08:37:30Z</time>
      </trkpt>
      <trkpt lat="45.65448" lon="6.50103">
        <ele>1950</ele>
        <time>2022-07-28T08:37:37Z</time>
      </trkpt>
      <trkpt lat="45.65449" lon="6.50102">
        <ele>1950</ele>
        <time>2022-07-28T08:37:38Z</time>
      </trkpt>
      <trkpt lat="45.65449" lon="6.50102">
        <ele>1950</ele>
        <time>2022-07-28T08:37:39Z</time>
      </trkpt>
      <trkpt lat="45.65451" lon="6.50101">
        <ele>1952</ele>
        <time>2022-07-28T08:37:45Z</time>
      </trkpt>
      <trkpt lat="45.65451" lon="6.501">
        <ele>1953</ele>
        <time>2022-07-28T08:37:46Z</time>
      </trkpt>
      <trkpt lat="45.65452" lon="6.50099">
        <ele>1953</ele>
        <time>2022-07-28T08:37:47Z</time>
      </trkpt>
      <trkpt lat="45.65453" lon="6.50099">
        <ele>1953</ele>
        <time>2022-07-28T08:37:48Z</time>
      </trkpt>
      <trkpt lat="45.65453" lon="6.50098">
        <ele>1953</ele>
        <time>2022-07-28T08:37:49Z</time>
      </trkpt>
      <trkpt lat="45.65454" lon="6.50098">
        <ele>1953</ele>
        <time>2022-07-28T08:37:50Z</time>
      </trkpt>
      <trkpt lat="45.65454" lon="6.50098">
        <ele>1954</ele>
        <time>2022-07-28T08:37:51Z</time>
      </trkpt>
      <trkpt lat="45.65457" lon="6.50093">
        <ele>1958</ele>
        <time>2022-07-28T08:38:50Z</time>
      </trkpt>
      <trkpt lat="45.65458" lon="6.50091">
        <ele>1958</ele>
        <time>2022-07-28T08:38:51Z</time>
      </trkpt>
      <trkpt lat="45.6546" lon="6.50088">
        <ele>1958</ele>
        <time>2022-07-28T08:38:52Z</time>
      </trkpt>
      <trkpt lat="45.65461" lon="6.50085">
        <ele>1959</ele>
        <time>2022-07-28T08:38:58Z</time>
      </trkpt>
      <trkpt lat="45.65462" lon="6.50084">
        <ele>1959</ele>
        <time>2022-07-28T08:38:59Z</time>
      </trkpt>
      <trkpt lat="45.65463" lon="6.50082">
        <ele>1959</ele>
        <time>2022-07-28T08:39:00Z</time>
      </trkpt>
      <trkpt lat="45.65463" lon="6.50082">
        <ele>1960</ele>
        <time>2022-07-28T08:39:01Z</time>
      </trkpt>
      <trkpt lat="45.65464" lon="6.50081">
        <ele>1960</ele>
        <time>2022-07-28T08:39:02Z</time>
      </trkpt>
      <trkpt lat="45.65464" lon="6.5008">
        <ele>1960</ele>
        <time>2022-07-28T08:39:03Z</time>
      </trkpt>
      <trkpt lat="45.65465" lon="6.5008">
        <ele>1960</ele>
        <time>2022-07-28T08:39:04Z</time>
      </trkpt>
      <trkpt lat="45.65465" lon="6.5008">
        <ele>1960</ele>
        <time>2022-07-28T08:39:05Z</time>
      </trkpt>
      <trkpt lat="45.65466" lon="6.5008">
        <ele>1961</ele>
        <time>2022-07-28T08:39:06Z</time>
      </trkpt>
      <trkpt lat="45.65466" lon="6.5008">
        <ele>1961</ele>
        <time>2022-07-28T08:39:07Z</time>
      </trkpt>
      <trkpt lat="45.65467" lon="6.5008">
        <ele>1961</ele>
        <time>2022-07-28T08:39:08Z</time>
      </trkpt>
      <trkpt lat="45.65467" lon="6.50081">
        <ele>1961</ele>
        <time>2022-07-28T08:39:09Z</time>
      </trkpt>
      <trkpt lat="45.65468" lon="6.50081">
        <ele>1961</ele>
        <time>2022-07-28T08:39:10Z</time>
      </trkpt>
      <trkpt lat="45.65468" lon="6.50082">
        <ele>1962</ele>
        <time>2022-07-28T08:39:23Z</time>
      </trkpt>
      <trkpt lat="45.65469" lon="6.50082">
        <ele>1962</ele>
        <time>2022-07-28T08:39:24Z</time>
      </trkpt>
      <trkpt lat="45.65469" lon="6.50082">
        <ele>1962</ele>
        <time>2022-07-28T08:39:25Z</time>
      </trkpt>
      <trkpt lat="45.65469" lon="6.50082">
        <ele>1963</ele>
        <time>2022-07-28T08:39:26Z</time>
      </trkpt>
      <trkpt lat="45.65469" lon="6.50081">
        <ele>1963</ele>
        <time>2022-07-28T08:39:27Z</time>
      </trkpt>
      <trkpt lat="45.6547" lon="6.50081">
        <ele>1963</ele>
        <time>2022-07-28T08:39:28Z</time>
      </trkpt>
      <trkpt lat="45.6547" lon="6.5008">
        <ele>1963</ele>
        <time>2022-07-28T08:39:29Z</time>
      </trkpt>
      <trkpt lat="45.6547" lon="6.50079">
        <ele>1963</ele>
        <time>2022-07-28T08:39:30Z</time>
      </trkpt>
      <trkpt lat="45.6547" lon="6.50078">
        <ele>1963</ele>
        <time>2022-07-28T08:39:31Z</time>
      </trkpt>
      <trkpt lat="45.6547" lon="6.50077">
        <ele>1963</ele>
        <time>2022-07-28T08:39:32Z</time>
      </trkpt>
      <trkpt lat="45.6547" lon="6.50076">
        <ele>1963</ele>
        <time>2022-07-28T08:39:33Z</time>
      </trkpt>
      <trkpt lat="45.65469" lon="6.50075">
        <ele>1963</ele>
        <time>2022-07-28T08:39:34Z</time>
      </trkpt>
      <trkpt lat="45.65469" lon="6.50074">
        <ele>1963</ele>
        <time>2022-07-28T08:39:35Z</time>
      </trkpt>
      <trkpt lat="45.65468" lon="6.50074">
        <ele>1964</ele>
        <time>2022-07-28T08:39:36Z</time>
      </trkpt>
      <trkpt lat="45.65468" lon="6.50073">
        <ele>1964</ele>
        <time>2022-07-28T08:39:37Z</time>
      </trkpt>
      <trkpt lat="45.65467" lon="6.50072">
        <ele>1964</ele>
        <time>2022-07-28T08:39:38Z</time>
      </trkpt>
      <trkpt lat="45.65467" lon="6.50072">
        <ele>1964</ele>
        <time>2022-07-28T08:39:39Z</time>
      </trkpt>
      <trkpt lat="45.65466" lon="6.50071">
        <ele>1964</ele>
        <time>2022-07-28T08:39:40Z</time>
      </trkpt>
      <trkpt lat="45.65466" lon="6.50071">
        <ele>1964</ele>
        <time>2022-07-28T08:39:41Z</time>
      </trkpt>
      <trkpt lat="45.65465" lon="6.50071">
        <ele>1964</ele>
        <time>2022-07-28T08:39:42Z</time>
      </trkpt>
      <trkpt lat="45.65465" lon="6.5007">
        <ele>1964</ele>
        <time>2022-07-28T08:39:43Z</time>
      </trkpt>
      <trkpt lat="45.65465" lon="6.5007">
        <ele>1964</ele>
        <time>2022-07-28T08:39:44Z</time>
      </trkpt>
      <trkpt lat="45.65464" lon="6.5007">
        <ele>1964</ele>
        <time>2022-07-28T08:39:45Z</time>
      </trkpt>
      <trkpt lat="45.65463" lon="6.50069">
        <ele>1964</ele>
        <time>2022-07-28T08:39:46Z</time>
      </trkpt>
      <trkpt lat="45.65462" lon="6.50069">
        <ele>1964</ele>
        <time>2022-07-28T08:39:47Z</time>
      </trkpt>
      <trkpt lat="45.65462" lon="6.50069">
        <ele>1964</ele>
        <time>2022-07-28T08:39:48Z</time>
      </trkpt>
      <trkpt lat="45.65461" lon="6.50069">
        <ele>1964</ele>
        <time>2022-07-28T08:39:49Z</time>
      </trkpt>
      <trkpt lat="45.6546" lon="6.50068">
        <ele>1964</ele>
        <time>2022-07-28T08:39:50Z</time>
      </trkpt>
      <trkpt lat="45.65459" lon="6.50068">
        <ele>1965</ele>
        <time>2022-07-28T08:39:51Z</time>
      </trkpt>
      <trkpt lat="45.65459" lon="6.50068">
        <ele>1965</ele>
        <time>2022-07-28T08:39:52Z</time>
      </trkpt>
      <trkpt lat="45.65458" lon="6.50068">
        <ele>1965</ele>
        <time>2022-07-28T08:39:53Z</time>
      </trkpt>
      <trkpt lat="45.65458" lon="6.50068">
        <ele>1965</ele>
        <time>2022-07-28T08:39:54Z</time>
      </trkpt>
      <trkpt lat="45.65457" lon="6.50068">
        <ele>1965</ele>
        <time>2022-07-28T08:39:55Z</time>
      </trkpt>
      <trkpt lat="45.65456" lon="6.50067">
        <ele>1966</ele>
        <time>2022-07-28T08:39:56Z</time>
      </trkpt>
      <trkpt lat="45.65456" lon="6.50067">
        <ele>1966</ele>
        <time>2022-07-28T08:39:57Z</time>
      </trkpt>
      <trkpt lat="45.65456" lon="6.50066">
        <ele>1966</ele>
        <time>2022-07-28T08:39:58Z</time>
      </trkpt>
      <trkpt lat="45.65455" lon="6.50066">
        <ele>1966</ele>
        <time>2022-07-28T08:39:59Z</time>
      </trkpt>
      <trkpt lat="45.65455" lon="6.50065">
        <ele>1966</ele>
        <time>2022-07-28T08:40:00Z</time>
      </trkpt>
      <trkpt lat="45.65454" lon="6.50064">
        <ele>1967</ele>
        <time>2022-07-28T08:40:01Z</time>
      </trkpt>
      <trkpt lat="45.65454" lon="6.50064">
        <ele>1966</ele>
        <time>2022-07-28T08:40:02Z</time>
      </trkpt>
      <trkpt lat="45.65453" lon="6.50063">
        <ele>1966</ele>
        <time>2022-07-28T08:40:03Z</time>
      </trkpt>
      <trkpt lat="45.65453" lon="6.50063">
        <ele>1966</ele>
        <time>2022-07-28T08:40:04Z</time>
      </trkpt>
      <trkpt lat="45.65452" lon="6.50062">
        <ele>1966</ele>
        <time>2022-07-28T08:40:05Z</time>
      </trkpt>
      <trkpt lat="45.65452" lon="6.50061">
        <ele>1966</ele>
        <time>2022-07-28T08:40:06Z</time>
      </trkpt>
      <trkpt lat="45.65451" lon="6.50061">
        <ele>1966</ele>
        <time>2022-07-28T08:40:07Z</time>
      </trkpt>
      <trkpt lat="45.65451" lon="6.5006">
        <ele>1966</ele>
        <time>2022-07-28T08:40:08Z</time>
      </trkpt>
      <trkpt lat="45.6545" lon="6.50059">
        <ele>1966</ele>
        <time>2022-07-28T08:40:09Z</time>
      </trkpt>
      <trkpt lat="45.6545" lon="6.50059">
        <ele>1966</ele>
        <time>2022-07-28T08:40:10Z</time>
      </trkpt>
      <trkpt lat="45.65449" lon="6.50058">
        <ele>1967</ele>
        <time>2022-07-28T08:40:11Z</time>
      </trkpt>
      <trkpt lat="45.65449" lon="6.50057">
        <ele>1967</ele>
        <time>2022-07-28T08:40:12Z</time>
      </trkpt>
      <trkpt lat="45.65448" lon="6.50057">
        <ele>1967</ele>
        <time>2022-07-28T08:40:13Z</time>
      </trkpt>
      <trkpt lat="45.65448" lon="6.50056">
        <ele>1967</ele>
        <time>2022-07-28T08:40:14Z</time>
      </trkpt>
      <trkpt lat="45.65447" lon="6.50056">
        <ele>1967</ele>
        <time>2022-07-28T08:40:15Z</time>
      </trkpt>
      <trkpt lat="45.65447" lon="6.50055">
        <ele>1968</ele>
        <time>2022-07-28T08:40:16Z</time>
      </trkpt>
      <trkpt lat="45.65446" lon="6.50055">
        <ele>1968</ele>
        <time>2022-07-28T08:40:17Z</time>
      </trkpt>
      <trkpt lat="45.65446" lon="6.50054">
        <ele>1968</ele>
        <time>2022-07-28T08:40:18Z</time>
      </trkpt>
      <trkpt lat="45.65445" lon="6.50054">
        <ele>1968</ele>
        <time>2022-07-28T08:40:19Z</time>
      </trkpt>
      <trkpt lat="45.65445" lon="6.50054">
        <ele>1968</ele>
        <time>2022-07-28T08:40:20Z</time>
      </trkpt>
      <trkpt lat="45.65445" lon="6.50053">
        <ele>1969</ele>
        <time>2022-07-28T08:40:21Z</time>
      </trkpt>
      <trkpt lat="45.65444" lon="6.50053">
        <ele>1969</ele>
        <time>2022-07-28T08:40:22Z</time>
      </trkpt>
      <trkpt lat="45.65444" lon="6.50052">
        <ele>1969</ele>
        <time>2022-07-28T08:40:23Z</time>
      </trkpt>
      <trkpt lat="45.65442" lon="6.5005">
        <ele>1970</ele>
        <time>2022-07-28T08:40:33Z</time>
      </trkpt>
      <trkpt lat="45.65441" lon="6.50049">
        <ele>1970</ele>
        <time>2022-07-28T08:40:34Z</time>
      </trkpt>
      <trkpt lat="45.65441" lon="6.50047">
        <ele>1970</ele>
        <time>2022-07-28T08:40:35Z</time>
      </trkpt>
      <trkpt lat="45.6544" lon="6.50045">
        <ele>1973</ele>
        <time>2022-07-28T08:40:58Z</time>
      </trkpt>
      <trkpt lat="45.6544" lon="6.50044">
        <ele>1973</ele>
        <time>2022-07-28T08:40:59Z</time>
      </trkpt>
      <trkpt lat="45.65439" lon="6.50044">
        <ele>1973</ele>
        <time>2022-07-28T08:41:00Z</time>
      </trkpt>
      <trkpt lat="45.65439" lon="6.50043">
        <ele>1973</ele>
        <time>2022-07-28T08:41:01Z</time>
      </trkpt>
      <trkpt lat="45.65439" lon="6.50042">
        <ele>1973</ele>
        <time>2022-07-28T08:41:02Z</time>
      </trkpt>
      <trkpt lat="45.65439" lon="6.50041">
        <ele>1973</ele>
        <time>2022-07-28T08:41:03Z</time>
      </trkpt>
      <trkpt lat="45.65439" lon="6.5004">
        <ele>1973</ele>
        <time>2022-07-28T08:41:04Z</time>
      </trkpt>
      <trkpt lat="45.65439" lon="6.50039">
        <ele>1973</ele>
        <time>2022-07-28T08:41:05Z</time>
      </trkpt>
      <trkpt lat="45.65439" lon="6.50038">
        <ele>1973</ele>
        <time>2022-07-28T08:41:06Z</time>
      </trkpt>
      <trkpt lat="45.65439" lon="6.50037">
        <ele>1973</ele>
        <time>2022-07-28T08:41:07Z</time>
      </trkpt>
      <trkpt lat="45.65439" lon="6.50036">
        <ele>1973</ele>
        <time>2022-07-28T08:41:08Z</time>
      </trkpt>
      <trkpt lat="45.65438" lon="6.50035">
        <ele>1973</ele>
        <time>2022-07-28T08:41:09Z</time>
      </trkpt>
      <trkpt lat="45.65438" lon="6.50034">
        <ele>1973</ele>
        <time>2022-07-28T08:41:10Z</time>
      </trkpt>
      <trkpt lat="45.65438" lon="6.50033">
        <ele>1973</ele>
        <time>2022-07-28T08:41:11Z</time>
      </trkpt>
      <trkpt lat="45.65438" lon="6.50032">
        <ele>1973</ele>
        <time>2022-07-28T08:41:12Z</time>
      </trkpt>
      <trkpt lat="45.65438" lon="6.50031">
        <ele>1973</ele>
        <time>2022-07-28T08:41:13Z</time>
      </trkpt>
      <trkpt lat="45.65437" lon="6.5003">
        <ele>1973</ele>
        <time>2022-07-28T08:41:14Z</time>
      </trkpt>
      <trkpt lat="45.65437" lon="6.5003">
        <ele>1973</ele>
        <time>2022-07-28T08:41:15Z</time>
      </trkpt>
      <trkpt lat="45.65437" lon="6.50029">
        <ele>1973</ele>
        <time>2022-07-28T08:41:16Z</time>
      </trkpt>
      <trkpt lat="45.65437" lon="6.50029">
        <ele>1973</ele>
        <time>2022-07-28T08:41:17Z</time>
      </trkpt>
      <trkpt lat="45.65437" lon="6.50028">
        <ele>1973</ele>
        <time>2022-07-28T08:41:18Z</time>
      </trkpt>
      <trkpt lat="45.65437" lon="6.50027">
        <ele>1973</ele>
        <time>2022-07-28T08:41:19Z</time>
      </trkpt>
      <trkpt lat="45.65436" lon="6.50027">
        <ele>1973</ele>
        <time>2022-07-28T08:41:20Z</time>
      </trkpt>
      <trkpt lat="45.65436" lon="6.50026">
        <ele>1974</ele>
        <time>2022-07-28T08:41:21Z</time>
      </trkpt>
      <trkpt lat="45.65436" lon="6.50025">
        <ele>1974</ele>
        <time>2022-07-28T08:41:22Z</time>
      </trkpt>
      <trkpt lat="45.65435" lon="6.50024">
        <ele>1974</ele>
        <time>2022-07-28T08:41:23Z</time>
      </trkpt>
      <trkpt lat="45.65435" lon="6.50024">
        <ele>1974</ele>
        <time>2022-07-28T08:41:24Z</time>
      </trkpt>
      <trkpt lat="45.65434" lon="6.50023">
        <ele>1974</ele>
        <time>2022-07-28T08:41:25Z</time>
      </trkpt>
      <trkpt lat="45.65434" lon="6.50022">
        <ele>1974</ele>
        <time>2022-07-28T08:41:26Z</time>
      </trkpt>
      <trkpt lat="45.65434" lon="6.50022">
        <ele>1974</ele>
        <time>2022-07-28T08:41:27Z</time>
      </trkpt>
      <trkpt lat="45.65433" lon="6.50021">
        <ele>1974</ele>
        <time>2022-07-28T08:41:28Z</time>
      </trkpt>
      <trkpt lat="45.65433" lon="6.5002">
        <ele>1974</ele>
        <time>2022-07-28T08:41:29Z</time>
      </trkpt>
      <trkpt lat="45.65432" lon="6.5002">
        <ele>1974</ele>
        <time>2022-07-28T08:41:30Z</time>
      </trkpt>
      <trkpt lat="45.65432" lon="6.50019">
        <ele>1975</ele>
        <time>2022-07-28T08:41:31Z</time>
      </trkpt>
      <trkpt lat="45.65432" lon="6.50018">
        <ele>1975</ele>
        <time>2022-07-28T08:41:32Z</time>
      </trkpt>
      <trkpt lat="45.65431" lon="6.50018">
        <ele>1975</ele>
        <time>2022-07-28T08:41:33Z</time>
      </trkpt>
      <trkpt lat="45.65431" lon="6.50017">
        <ele>1975</ele>
        <time>2022-07-28T08:41:34Z</time>
      </trkpt>
      <trkpt lat="45.6543" lon="6.50017">
        <ele>1975</ele>
        <time>2022-07-28T08:41:35Z</time>
      </trkpt>
      <trkpt lat="45.6543" lon="6.50016">
        <ele>1976</ele>
        <time>2022-07-28T08:41:36Z</time>
      </trkpt>
      <trkpt lat="45.65429" lon="6.50016">
        <ele>1976</ele>
        <time>2022-07-28T08:41:37Z</time>
      </trkpt>
      <trkpt lat="45.65428" lon="6.50014">
        <ele>1977</ele>
        <time>2022-07-28T08:41:46Z</time>
      </trkpt>
      <trkpt lat="45.65427" lon="6.50013">
        <ele>1977</ele>
        <time>2022-07-28T08:41:47Z</time>
      </trkpt>
      <trkpt lat="45.65426" lon="6.50012">
        <ele>1977</ele>
        <time>2022-07-28T08:41:48Z</time>
      </trkpt>
      <trkpt lat="45.65424" lon="6.50011">
        <ele>1979</ele>
        <time>2022-07-28T08:42:41Z</time>
      </trkpt>
      <trkpt lat="45.65423" lon="6.5001">
        <ele>1979</ele>
        <time>2022-07-28T08:42:42Z</time>
      </trkpt>
      <trkpt lat="45.65423" lon="6.50009">
        <ele>1979</ele>
        <time>2022-07-28T08:42:43Z</time>
      </trkpt>
      <trkpt lat="45.65422" lon="6.50009">
        <ele>1979</ele>
        <time>2022-07-28T08:42:44Z</time>
      </trkpt>
      <trkpt lat="45.65421" lon="6.50008">
        <ele>1979</ele>
        <time>2022-07-28T08:42:45Z</time>
      </trkpt>
      <trkpt lat="45.6542" lon="6.50008">
        <ele>1979</ele>
        <time>2022-07-28T08:42:46Z</time>
      </trkpt>
      <trkpt lat="45.65419" lon="6.50007">
        <ele>1979</ele>
        <time>2022-07-28T08:42:47Z</time>
      </trkpt>
      <trkpt lat="45.65418" lon="6.50006">
        <ele>1979</ele>
        <time>2022-07-28T08:42:48Z</time>
      </trkpt>
      <trkpt lat="45.65417" lon="6.50006">
        <ele>1980</ele>
        <time>2022-07-28T08:42:49Z</time>
      </trkpt>
      <trkpt lat="45.65417" lon="6.50005">
        <ele>1980</ele>
        <time>2022-07-28T08:42:50Z</time>
      </trkpt>
      <trkpt lat="45.65416" lon="6.50005">
        <ele>1981</ele>
        <time>2022-07-28T08:42:51Z</time>
      </trkpt>
      <trkpt lat="45.65415" lon="6.50005">
        <ele>1981</ele>
        <time>2022-07-28T08:42:52Z</time>
      </trkpt>
      <trkpt lat="45.65414" lon="6.50004">
        <ele>1981</ele>
        <time>2022-07-28T08:42:53Z</time>
      </trkpt>
      <trkpt lat="45.65413" lon="6.50004">
        <ele>1981</ele>
        <time>2022-07-28T08:42:54Z</time>
      </trkpt>
      <trkpt lat="45.65412" lon="6.50004">
        <ele>1981</ele>
        <time>2022-07-28T08:42:55Z</time>
      </trkpt>
      <trkpt lat="45.65412" lon="6.50003">
        <ele>1982</ele>
        <time>2022-07-28T08:42:56Z</time>
      </trkpt>
      <trkpt lat="45.65411" lon="6.50003">
        <ele>1982</ele>
        <time>2022-07-28T08:42:57Z</time>
      </trkpt>
      <trkpt lat="45.6541" lon="6.50003">
        <ele>1982</ele>
        <time>2022-07-28T08:42:58Z</time>
      </trkpt>
      <trkpt lat="45.65409" lon="6.50003">
        <ele>1983</ele>
        <time>2022-07-28T08:42:59Z</time>
      </trkpt>
      <trkpt lat="45.65408" lon="6.50003">
        <ele>1984</ele>
        <time>2022-07-28T08:43:05Z</time>
      </trkpt>
      <trkpt lat="45.65408" lon="6.50002">
        <ele>1984</ele>
        <time>2022-07-28T08:43:06Z</time>
      </trkpt>
      <trkpt lat="45.65407" lon="6.50002">
        <ele>1984</ele>
        <time>2022-07-28T08:43:07Z</time>
      </trkpt>
      <trkpt lat="45.65406" lon="6.50002">
        <ele>1984</ele>
        <time>2022-07-28T08:43:08Z</time>
      </trkpt>
      <trkpt lat="45.65405" lon="6.50002">
        <ele>1984</ele>
        <time>2022-07-28T08:43:09Z</time>
      </trkpt>
      <trkpt lat="45.65405" lon="6.50002">
        <ele>1984</ele>
        <time>2022-07-28T08:43:10Z</time>
      </trkpt>
      <trkpt lat="45.65404" lon="6.50001">
        <ele>1985</ele>
        <time>2022-07-28T08:43:11Z</time>
      </trkpt>
      <trkpt lat="45.65403" lon="6.50001">
        <ele>1985</ele>
        <time>2022-07-28T08:43:12Z</time>
      </trkpt>
      <trkpt lat="45.65402" lon="6.50001">
        <ele>1985</ele>
        <time>2022-07-28T08:43:13Z</time>
      </trkpt>
      <trkpt lat="45.65401" lon="6.5">
        <ele>1985</ele>
        <time>2022-07-28T08:43:14Z</time>
      </trkpt>
      <trkpt lat="45.654" lon="6.5">
        <ele>1985</ele>
        <time>2022-07-28T08:43:15Z</time>
      </trkpt>
      <trkpt lat="45.65399" lon="6.5">
        <ele>1986</ele>
        <time>2022-07-28T08:43:16Z</time>
      </trkpt>
      <trkpt lat="45.65399" lon="6.49999">
        <ele>1986</ele>
        <time>2022-07-28T08:43:17Z</time>
      </trkpt>
      <trkpt lat="45.65398" lon="6.49999">
        <ele>1986</ele>
        <time>2022-07-28T08:43:18Z</time>
      </trkpt>
      <trkpt lat="45.65398" lon="6.49998">
        <ele>1986</ele>
        <time>2022-07-28T08:43:19Z</time>
      </trkpt>
      <trkpt lat="45.65397" lon="6.49998">
        <ele>1986</ele>
        <time>2022-07-28T08:43:20Z</time>
      </trkpt>
      <trkpt lat="45.65397" lon="6.49997">
        <ele>1986</ele>
        <time>2022-07-28T08:43:21Z</time>
      </trkpt>
      <trkpt lat="45.65396" lon="6.49996">
        <ele>1986</ele>
        <time>2022-07-28T08:43:22Z</time>
      </trkpt>
      <trkpt lat="45.65396" lon="6.49996">
        <ele>1986</ele>
        <time>2022-07-28T08:43:23Z</time>
      </trkpt>
      <trkpt lat="45.65395" lon="6.49995">
        <ele>1987</ele>
        <time>2022-07-28T08:43:24Z</time>
      </trkpt>
      <trkpt lat="45.65394" lon="6.49995">
        <ele>1989</ele>
        <time>2022-07-28T08:44:57Z</time>
      </trkpt>
      <trkpt lat="45.65394" lon="6.49994">
        <ele>1989</ele>
        <time>2022-07-28T08:44:58Z</time>
      </trkpt>
      <trkpt lat="45.65393" lon="6.49994">
        <ele>1989</ele>
        <time>2022-07-28T08:44:59Z</time>
      </trkpt>
      <trkpt lat="45.65393" lon="6.49994">
        <ele>1989</ele>
        <time>2022-07-28T08:45:00Z</time>
      </trkpt>
      <trkpt lat="45.65393" lon="6.49993">
        <ele>1989</ele>
        <time>2022-07-28T08:45:01Z</time>
      </trkpt>
      <trkpt lat="45.65393" lon="6.49993">
        <ele>1989</ele>
        <time>2022-07-28T08:45:02Z</time>
      </trkpt>
      <trkpt lat="45.65393" lon="6.49993">
        <ele>1989</ele>
        <time>2022-07-28T08:45:03Z</time>
      </trkpt>
      <trkpt lat="45.65393" lon="6.49992">
        <ele>1989</ele>
        <time>2022-07-28T08:45:04Z</time>
      </trkpt>
      <trkpt lat="45.65393" lon="6.49992">
        <ele>1989</ele>
        <time>2022-07-28T08:45:05Z</time>
      </trkpt>
      <trkpt lat="45.65393" lon="6.49991">
        <ele>1989</ele>
        <time>2022-07-28T08:45:06Z</time>
      </trkpt>
      <trkpt lat="45.65393" lon="6.4999">
        <ele>1989</ele>
        <time>2022-07-28T08:45:07Z</time>
      </trkpt>
      <trkpt lat="45.65393" lon="6.49989">
        <ele>1989</ele>
        <time>2022-07-28T08:45:08Z</time>
      </trkpt>
      <trkpt lat="45.65394" lon="6.49988">
        <ele>1989</ele>
        <time>2022-07-28T08:45:09Z</time>
      </trkpt>
      <trkpt lat="45.65394" lon="6.49987">
        <ele>1989</ele>
        <time>2022-07-28T08:45:10Z</time>
      </trkpt>
      <trkpt lat="45.65395" lon="6.49986">
        <ele>1989</ele>
        <time>2022-07-28T08:45:11Z</time>
      </trkpt>
      <trkpt lat="45.65395" lon="6.49986">
        <ele>1989</ele>
        <time>2022-07-28T08:45:12Z</time>
      </trkpt>
      <trkpt lat="45.65396" lon="6.49985">
        <ele>1989</ele>
        <time>2022-07-28T08:45:13Z</time>
      </trkpt>
      <trkpt lat="45.65396" lon="6.49985">
        <ele>1990</ele>
        <time>2022-07-28T08:45:14Z</time>
      </trkpt>
      <trkpt lat="45.65397" lon="6.49985">
        <ele>1990</ele>
        <time>2022-07-28T08:45:15Z</time>
      </trkpt>
      <trkpt lat="45.65398" lon="6.49984">
        <ele>1991</ele>
        <time>2022-07-28T08:45:16Z</time>
      </trkpt>
      <trkpt lat="45.65398" lon="6.49984">
        <ele>1991</ele>
        <time>2022-07-28T08:45:17Z</time>
      </trkpt>
      <trkpt lat="45.65399" lon="6.49984">
        <ele>1991</ele>
        <time>2022-07-28T08:45:18Z</time>
      </trkpt>
      <trkpt lat="45.65399" lon="6.49983">
        <ele>1991</ele>
        <time>2022-07-28T08:45:19Z</time>
      </trkpt>
      <trkpt lat="45.654" lon="6.49983">
        <ele>1991</ele>
        <time>2022-07-28T08:45:20Z</time>
      </trkpt>
      <trkpt lat="45.654" lon="6.49983">
        <ele>1992</ele>
        <time>2022-07-28T08:45:21Z</time>
      </trkpt>
      <trkpt lat="45.65401" lon="6.49982">
        <ele>1992</ele>
        <time>2022-07-28T08:45:22Z</time>
      </trkpt>
      <trkpt lat="45.65401" lon="6.49982">
        <ele>1992</ele>
        <time>2022-07-28T08:45:23Z</time>
      </trkpt>
      <trkpt lat="45.65402" lon="6.49982">
        <ele>1992</ele>
        <time>2022-07-28T08:45:24Z</time>
      </trkpt>
      <trkpt lat="45.65402" lon="6.49982">
        <ele>1992</ele>
        <time>2022-07-28T08:45:25Z</time>
      </trkpt>
      <trkpt lat="45.65403" lon="6.49981">
        <ele>1993</ele>
        <time>2022-07-28T08:45:26Z</time>
      </trkpt>
      <trkpt lat="45.65403" lon="6.49981">
        <ele>1993</ele>
        <time>2022-07-28T08:45:27Z</time>
      </trkpt>
      <trkpt lat="45.65404" lon="6.49981">
        <ele>1994</ele>
        <time>2022-07-28T08:45:39Z</time>
      </trkpt>
      <trkpt lat="45.65405" lon="6.4998">
        <ele>1994</ele>
        <time>2022-07-28T08:45:40Z</time>
      </trkpt>
      <trkpt lat="45.65406" lon="6.4998">
        <ele>1995</ele>
        <time>2022-07-28T08:45:41Z</time>
      </trkpt>
      <trkpt lat="45.65406" lon="6.49979">
        <ele>1995</ele>
        <time>2022-07-28T08:45:42Z</time>
      </trkpt>
      <trkpt lat="45.65407" lon="6.49979">
        <ele>1995</ele>
        <time>2022-07-28T08:45:43Z</time>
      </trkpt>
      <trkpt lat="45.65407" lon="6.49979">
        <ele>1995</ele>
        <time>2022-07-28T08:45:44Z</time>
      </trkpt>
      <trkpt lat="45.65408" lon="6.49978">
        <ele>1995</ele>
        <time>2022-07-28T08:45:45Z</time>
      </trkpt>
      <trkpt lat="45.65408" lon="6.49978">
        <ele>1995</ele>
        <time>2022-07-28T08:45:46Z</time>
      </trkpt>
      <trkpt lat="45.65409" lon="6.49977">
        <ele>1995</ele>
        <time>2022-07-28T08:45:47Z</time>
      </trkpt>
      <trkpt lat="45.65409" lon="6.49977">
        <ele>1995</ele>
        <time>2022-07-28T08:45:48Z</time>
      </trkpt>
      <trkpt lat="45.6541" lon="6.49976">
        <ele>1995</ele>
        <time>2022-07-28T08:45:49Z</time>
      </trkpt>
      <trkpt lat="45.6541" lon="6.49976">
        <ele>1995</ele>
        <time>2022-07-28T08:45:50Z</time>
      </trkpt>
      <trkpt lat="45.65411" lon="6.49975">
        <ele>1996</ele>
        <time>2022-07-28T08:45:51Z</time>
      </trkpt>
      <trkpt lat="45.65412" lon="6.49973">
        <ele>1999</ele>
        <time>2022-07-28T08:46:32Z</time>
      </trkpt>
      <trkpt lat="45.65413" lon="6.49972">
        <ele>1999</ele>
        <time>2022-07-28T08:46:33Z</time>
      </trkpt>
      <trkpt lat="45.65414" lon="6.49971">
        <ele>1999</ele>
        <time>2022-07-28T08:46:34Z</time>
      </trkpt>
      <trkpt lat="45.65414" lon="6.49971">
        <ele>1999</ele>
        <time>2022-07-28T08:46:35Z</time>
      </trkpt>
      <trkpt lat="45.65415" lon="6.4997">
        <ele>2000</ele>
        <time>2022-07-28T08:46:36Z</time>
      </trkpt>
      <trkpt lat="45.65416" lon="6.4997">
        <ele>2000</ele>
        <time>2022-07-28T08:46:37Z</time>
      </trkpt>
      <trkpt lat="45.65417" lon="6.4997">
        <ele>2000</ele>
        <time>2022-07-28T08:46:38Z</time>
      </trkpt>
      <trkpt lat="45.65418" lon="6.49969">
        <ele>2000</ele>
        <time>2022-07-28T08:46:39Z</time>
      </trkpt>
      <trkpt lat="45.65418" lon="6.49969">
        <ele>2000</ele>
        <time>2022-07-28T08:46:40Z</time>
      </trkpt>
      <trkpt lat="45.65419" lon="6.49969">
        <ele>2001</ele>
        <time>2022-07-28T08:46:41Z</time>
      </trkpt>
      <trkpt lat="45.6542" lon="6.49969">
        <ele>2001</ele>
        <time>2022-07-28T08:46:42Z</time>
      </trkpt>
      <trkpt lat="45.6542" lon="6.49968">
        <ele>2001</ele>
        <time>2022-07-28T08:46:43Z</time>
      </trkpt>
      <trkpt lat="45.65421" lon="6.49968">
        <ele>2001</ele>
        <time>2022-07-28T08:46:44Z</time>
      </trkpt>
      <trkpt lat="45.65422" lon="6.49968">
        <ele>2001</ele>
        <time>2022-07-28T08:46:45Z</time>
      </trkpt>
      <trkpt lat="45.65422" lon="6.49968">
        <ele>2002</ele>
        <time>2022-07-28T08:46:46Z</time>
      </trkpt>
      <trkpt lat="45.65423" lon="6.49968">
        <ele>2002</ele>
        <time>2022-07-28T08:46:47Z</time>
      </trkpt>
      <trkpt lat="45.65423" lon="6.49968">
        <ele>2002</ele>
        <time>2022-07-28T08:46:48Z</time>
      </trkpt>
      <trkpt lat="45.65424" lon="6.49968">
        <ele>2002</ele>
        <time>2022-07-28T08:46:49Z</time>
      </trkpt>
      <trkpt lat="45.65425" lon="6.49967">
        <ele>2002</ele>
        <time>2022-07-28T08:46:50Z</time>
      </trkpt>
      <trkpt lat="45.65425" lon="6.49967">
        <ele>2003</ele>
        <time>2022-07-28T08:46:51Z</time>
      </trkpt>
      <trkpt lat="45.65426" lon="6.49967">
        <ele>2003</ele>
        <time>2022-07-28T08:46:52Z</time>
      </trkpt>
      <trkpt lat="45.65427" lon="6.49966">
        <ele>2003</ele>
        <time>2022-07-28T08:46:53Z</time>
      </trkpt>
      <trkpt lat="45.65427" lon="6.49966">
        <ele>2003</ele>
        <time>2022-07-28T08:46:54Z</time>
      </trkpt>
      <trkpt lat="45.65428" lon="6.49965">
        <ele>2003</ele>
        <time>2022-07-28T08:46:55Z</time>
      </trkpt>
      <trkpt lat="45.65429" lon="6.49965">
        <ele>2003</ele>
        <time>2022-07-28T08:46:56Z</time>
      </trkpt>
      <trkpt lat="45.65429" lon="6.49964">
        <ele>2003</ele>
        <time>2022-07-28T08:46:57Z</time>
      </trkpt>
      <trkpt lat="45.6543" lon="6.49963">
        <ele>2003</ele>
        <time>2022-07-28T08:46:58Z</time>
      </trkpt>
      <trkpt lat="45.65431" lon="6.49963">
        <ele>2003</ele>
        <time>2022-07-28T08:46:59Z</time>
      </trkpt>
      <trkpt lat="45.65431" lon="6.49962">
        <ele>2003</ele>
        <time>2022-07-28T08:47:00Z</time>
      </trkpt>
      <trkpt lat="45.65432" lon="6.49962">
        <ele>2004</ele>
        <time>2022-07-28T08:47:01Z</time>
      </trkpt>
      <trkpt lat="45.65432" lon="6.49961">
        <ele>2004</ele>
        <time>2022-07-28T08:47:02Z</time>
      </trkpt>
      <trkpt lat="45.65433" lon="6.4996">
        <ele>2004</ele>
        <time>2022-07-28T08:47:03Z</time>
      </trkpt>
      <trkpt lat="45.65433" lon="6.4996">
        <ele>2004</ele>
        <time>2022-07-28T08:47:04Z</time>
      </trkpt>
      <trkpt lat="45.65433" lon="6.49959">
        <ele>2004</ele>
        <time>2022-07-28T08:47:05Z</time>
      </trkpt>
      <trkpt lat="45.65434" lon="6.49959">
        <ele>2005</ele>
        <time>2022-07-28T08:47:06Z</time>
      </trkpt>
      <trkpt lat="45.65434" lon="6.49958">
        <ele>2005</ele>
        <time>2022-07-28T08:47:07Z</time>
      </trkpt>
      <trkpt lat="45.65435" lon="6.49958">
        <ele>2005</ele>
        <time>2022-07-28T08:47:08Z</time>
      </trkpt>
      <trkpt lat="45.65435" lon="6.49957">
        <ele>2005</ele>
        <time>2022-07-28T08:47:09Z</time>
      </trkpt>
      <trkpt lat="45.65436" lon="6.49956">
        <ele>2005</ele>
        <time>2022-07-28T08:47:10Z</time>
      </trkpt>
      <trkpt lat="45.65436" lon="6.49955">
        <ele>2006</ele>
        <time>2022-07-28T08:47:11Z</time>
      </trkpt>
      <trkpt lat="45.65436" lon="6.49954">
        <ele>2006</ele>
        <time>2022-07-28T08:47:12Z</time>
      </trkpt>
      <trkpt lat="45.65437" lon="6.49954">
        <ele>2006</ele>
        <time>2022-07-28T08:47:13Z</time>
      </trkpt>
      <trkpt lat="45.65437" lon="6.49953">
        <ele>2007</ele>
        <time>2022-07-28T08:47:14Z</time>
      </trkpt>
      <trkpt lat="45.65437" lon="6.49953">
        <ele>2007</ele>
        <time>2022-07-28T08:47:15Z</time>
      </trkpt>
      <trkpt lat="45.65438" lon="6.49952">
        <ele>2008</ele>
        <time>2022-07-28T08:47:16Z</time>
      </trkpt>
      <trkpt lat="45.65438" lon="6.49951">
        <ele>2008</ele>
        <time>2022-07-28T08:47:17Z</time>
      </trkpt>
      <trkpt lat="45.65438" lon="6.49951">
        <ele>2008</ele>
        <time>2022-07-28T08:47:18Z</time>
      </trkpt>
      <trkpt lat="45.65438" lon="6.4995">
        <ele>2008</ele>
        <time>2022-07-28T08:47:19Z</time>
      </trkpt>
      <trkpt lat="45.65438" lon="6.4995">
        <ele>2008</ele>
        <time>2022-07-28T08:47:20Z</time>
      </trkpt>
      <trkpt lat="45.65438" lon="6.4995">
        <ele>2009</ele>
        <time>2022-07-28T08:47:21Z</time>
      </trkpt>
      <trkpt lat="45.65439" lon="6.49949">
        <ele>2009</ele>
        <time>2022-07-28T08:47:22Z</time>
      </trkpt>
      <trkpt lat="45.65439" lon="6.49949">
        <ele>2009</ele>
        <time>2022-07-28T08:47:23Z</time>
      </trkpt>
      <trkpt lat="45.65439" lon="6.49948">
        <ele>2009</ele>
        <time>2022-07-28T08:47:24Z</time>
      </trkpt>
      <trkpt lat="45.6544" lon="6.49948">
        <ele>2009</ele>
        <time>2022-07-28T08:47:25Z</time>
      </trkpt>
      <trkpt lat="45.6544" lon="6.49947">
        <ele>2010</ele>
        <time>2022-07-28T08:47:26Z</time>
      </trkpt>
      <trkpt lat="45.6544" lon="6.49946">
        <ele>2009</ele>
        <time>2022-07-28T08:47:27Z</time>
      </trkpt>
      <trkpt lat="45.65441" lon="6.49945">
        <ele>2009</ele>
        <time>2022-07-28T08:47:28Z</time>
      </trkpt>
      <trkpt lat="45.65441" lon="6.49945">
        <ele>2009</ele>
        <time>2022-07-28T08:47:29Z</time>
      </trkpt>
      <trkpt lat="45.65441" lon="6.49944">
        <ele>2009</ele>
        <time>2022-07-28T08:47:30Z</time>
      </trkpt>
      <trkpt lat="45.65442" lon="6.49943">
        <ele>2009</ele>
        <time>2022-07-28T08:47:31Z</time>
      </trkpt>
      <trkpt lat="45.65442" lon="6.49941">
        <ele>2009</ele>
        <time>2022-07-28T08:47:32Z</time>
      </trkpt>
      <trkpt lat="45.65442" lon="6.4994">
        <ele>2009</ele>
        <time>2022-07-28T08:47:33Z</time>
      </trkpt>
      <trkpt lat="45.65442" lon="6.49939">
        <ele>2009</ele>
        <time>2022-07-28T08:47:34Z</time>
      </trkpt>
      <trkpt lat="45.65442" lon="6.49938">
        <ele>2009</ele>
        <time>2022-07-28T08:47:35Z</time>
      </trkpt>
      <trkpt lat="45.65442" lon="6.49937">
        <ele>2009</ele>
        <time>2022-07-28T08:47:36Z</time>
      </trkpt>
      <trkpt lat="45.65441" lon="6.49936">
        <ele>2009</ele>
        <time>2022-07-28T08:47:37Z</time>
      </trkpt>
      <trkpt lat="45.65441" lon="6.49935">
        <ele>2009</ele>
        <time>2022-07-28T08:47:38Z</time>
      </trkpt>
      <trkpt lat="45.6544" lon="6.49934">
        <ele>2009</ele>
        <time>2022-07-28T08:47:39Z</time>
      </trkpt>
      <trkpt lat="45.6544" lon="6.49933">
        <ele>2009</ele>
        <time>2022-07-28T08:47:40Z</time>
      </trkpt>
      <trkpt lat="45.6544" lon="6.49933">
        <ele>2009</ele>
        <time>2022-07-28T08:47:41Z</time>
      </trkpt>
      <trkpt lat="45.65439" lon="6.49932">
        <ele>2009</ele>
        <time>2022-07-28T08:47:42Z</time>
      </trkpt>
      <trkpt lat="45.65438" lon="6.49931">
        <ele>2009</ele>
        <time>2022-07-28T08:47:43Z</time>
      </trkpt>
      <trkpt lat="45.65438" lon="6.4993">
        <ele>2010</ele>
        <time>2022-07-28T08:47:44Z</time>
      </trkpt>
      <trkpt lat="45.65437" lon="6.4993">
        <ele>2010</ele>
        <time>2022-07-28T08:47:45Z</time>
      </trkpt>
      <trkpt lat="45.65436" lon="6.49929">
        <ele>2011</ele>
        <time>2022-07-28T08:47:46Z</time>
      </trkpt>
      <trkpt lat="45.65435" lon="6.49929">
        <ele>2011</ele>
        <time>2022-07-28T08:47:47Z</time>
      </trkpt>
      <trkpt lat="45.65434" lon="6.49929">
        <ele>2011</ele>
        <time>2022-07-28T08:47:48Z</time>
      </trkpt>
      <trkpt lat="45.65434" lon="6.49929">
        <ele>2011</ele>
        <time>2022-07-28T08:47:49Z</time>
      </trkpt>
      <trkpt lat="45.65433" lon="6.49929">
        <ele>2011</ele>
        <time>2022-07-28T08:47:50Z</time>
      </trkpt>
      <trkpt lat="45.65432" lon="6.49929">
        <ele>2012</ele>
        <time>2022-07-28T08:47:51Z</time>
      </trkpt>
      <trkpt lat="45.65431" lon="6.49929">
        <ele>2012</ele>
        <time>2022-07-28T08:47:52Z</time>
      </trkpt>
      <trkpt lat="45.6543" lon="6.4993">
        <ele>2012</ele>
        <time>2022-07-28T08:47:53Z</time>
      </trkpt>
      <trkpt lat="45.65429" lon="6.4993">
        <ele>2012</ele>
        <time>2022-07-28T08:47:54Z</time>
      </trkpt>
      <trkpt lat="45.65428" lon="6.4993">
        <ele>2012</ele>
        <time>2022-07-28T08:47:55Z</time>
      </trkpt>
      <trkpt lat="45.65427" lon="6.4993">
        <ele>2013</ele>
        <time>2022-07-28T08:47:56Z</time>
      </trkpt>
      <trkpt lat="45.65427" lon="6.4993">
        <ele>2013</ele>
        <time>2022-07-28T08:47:57Z</time>
      </trkpt>
      <trkpt lat="45.65426" lon="6.4993">
        <ele>2013</ele>
        <time>2022-07-28T08:47:58Z</time>
      </trkpt>
      <trkpt lat="45.65425" lon="6.49929">
        <ele>2013</ele>
        <time>2022-07-28T08:47:59Z</time>
      </trkpt>
      <trkpt lat="45.65425" lon="6.49929">
        <ele>2013</ele>
        <time>2022-07-28T08:48:00Z</time>
      </trkpt>
      <trkpt lat="45.65424" lon="6.49929">
        <ele>2014</ele>
        <time>2022-07-28T08:48:01Z</time>
      </trkpt>
      <trkpt lat="45.65424" lon="6.49928">
        <ele>2014</ele>
        <time>2022-07-28T08:48:02Z</time>
      </trkpt>
      <trkpt lat="45.65423" lon="6.49928">
        <ele>2014</ele>
        <time>2022-07-28T08:48:03Z</time>
      </trkpt>
      <trkpt lat="45.65423" lon="6.49927">
        <ele>2014</ele>
        <time>2022-07-28T08:48:04Z</time>
      </trkpt>
      <trkpt lat="45.65423" lon="6.49926">
        <ele>2014</ele>
        <time>2022-07-28T08:48:05Z</time>
      </trkpt>
      <trkpt lat="45.65423" lon="6.49925">
        <ele>2015</ele>
        <time>2022-07-28T08:48:06Z</time>
      </trkpt>
      <trkpt lat="45.65423" lon="6.49924">
        <ele>2015</ele>
        <time>2022-07-28T08:48:07Z</time>
      </trkpt>
      <trkpt lat="45.65424" lon="6.49923">
        <ele>2015</ele>
        <time>2022-07-28T08:48:08Z</time>
      </trkpt>
      <trkpt lat="45.65424" lon="6.49922">
        <ele>2015</ele>
        <time>2022-07-28T08:48:09Z</time>
      </trkpt>
      <trkpt lat="45.65424" lon="6.49922">
        <ele>2015</ele>
        <time>2022-07-28T08:48:10Z</time>
      </trkpt>
      <trkpt lat="45.65424" lon="6.49921">
        <ele>2016</ele>
        <time>2022-07-28T08:48:11Z</time>
      </trkpt>
      <trkpt lat="45.65424" lon="6.49921">
        <ele>2016</ele>
        <time>2022-07-28T08:48:12Z</time>
      </trkpt>
      <trkpt lat="45.65425" lon="6.4992">
        <ele>2016</ele>
        <time>2022-07-28T08:48:13Z</time>
      </trkpt>
      <trkpt lat="45.65425" lon="6.49919">
        <ele>2016</ele>
        <time>2022-07-28T08:48:14Z</time>
      </trkpt>
      <trkpt lat="45.65425" lon="6.49918">
        <ele>2016</ele>
        <time>2022-07-28T08:48:15Z</time>
      </trkpt>
      <trkpt lat="45.65425" lon="6.49918">
        <ele>2017</ele>
        <time>2022-07-28T08:48:16Z</time>
      </trkpt>
      <trkpt lat="45.65425" lon="6.49917">
        <ele>2017</ele>
        <time>2022-07-28T08:48:17Z</time>
      </trkpt>
      <trkpt lat="45.65425" lon="6.49916">
        <ele>2017</ele>
        <time>2022-07-28T08:48:18Z</time>
      </trkpt>
      <trkpt lat="45.65425" lon="6.49915">
        <ele>2017</ele>
        <time>2022-07-28T08:48:19Z</time>
      </trkpt>
      <trkpt lat="45.65425" lon="6.49915">
        <ele>2017</ele>
        <time>2022-07-28T08:48:20Z</time>
      </trkpt>
      <trkpt lat="45.65426" lon="6.49914">
        <ele>2018</ele>
        <time>2022-07-28T08:48:21Z</time>
      </trkpt>
      <trkpt lat="45.65427" lon="6.49911">
        <ele>2022</ele>
        <time>2022-07-28T08:49:41Z</time>
      </trkpt>
      <trkpt lat="45.65428" lon="6.4991">
        <ele>2022</ele>
        <time>2022-07-28T08:49:42Z</time>
      </trkpt>
      <trkpt lat="45.65429" lon="6.49909">
        <ele>2022</ele>
        <time>2022-07-28T08:49:43Z</time>
      </trkpt>
      <trkpt lat="45.6543" lon="6.49908">
        <ele>2022</ele>
        <time>2022-07-28T08:49:44Z</time>
      </trkpt>
      <trkpt lat="45.65431" lon="6.49907">
        <ele>2022</ele>
        <time>2022-07-28T08:49:45Z</time>
      </trkpt>
      <trkpt lat="45.65431" lon="6.49906">
        <ele>2022</ele>
        <time>2022-07-28T08:49:46Z</time>
      </trkpt>
      <trkpt lat="45.65432" lon="6.49906">
        <ele>2022</ele>
        <time>2022-07-28T08:49:47Z</time>
      </trkpt>
      <trkpt lat="45.65432" lon="6.49905">
        <ele>2022</ele>
        <time>2022-07-28T08:49:48Z</time>
      </trkpt>
      <trkpt lat="45.65433" lon="6.49904">
        <ele>2022</ele>
        <time>2022-07-28T08:49:49Z</time>
      </trkpt>
      <trkpt lat="45.65433" lon="6.49903">
        <ele>2022</ele>
        <time>2022-07-28T08:49:50Z</time>
      </trkpt>
      <trkpt lat="45.65433" lon="6.49903">
        <ele>2022</ele>
        <time>2022-07-28T08:49:51Z</time>
      </trkpt>
      <trkpt lat="45.65433" lon="6.49902">
        <ele>2022</ele>
        <time>2022-07-28T08:49:52Z</time>
      </trkpt>
      <trkpt lat="45.65433" lon="6.49901">
        <ele>2022</ele>
        <time>2022-07-28T08:49:53Z</time>
      </trkpt>
      <trkpt lat="45.65434" lon="6.49901">
        <ele>2022</ele>
        <time>2022-07-28T08:49:54Z</time>
      </trkpt>
      <trkpt lat="45.65434" lon="6.499">
        <ele>2022</ele>
        <time>2022-07-28T08:49:55Z</time>
      </trkpt>
      <trkpt lat="45.65434" lon="6.49899">
        <ele>2023</ele>
        <time>2022-07-28T08:49:56Z</time>
      </trkpt>
      <trkpt lat="45.65435" lon="6.49898">
        <ele>2023</ele>
        <time>2022-07-28T08:49:57Z</time>
      </trkpt>
      <trkpt lat="45.65435" lon="6.49897">
        <ele>2023</ele>
        <time>2022-07-28T08:49:58Z</time>
      </trkpt>
      <trkpt lat="45.65435" lon="6.49896">
        <ele>2023</ele>
        <time>2022-07-28T08:49:59Z</time>
      </trkpt>
      <trkpt lat="45.65436" lon="6.49895">
        <ele>2023</ele>
        <time>2022-07-28T08:50:00Z</time>
      </trkpt>
      <trkpt lat="45.65436" lon="6.49894">
        <ele>2024</ele>
        <time>2022-07-28T08:50:01Z</time>
      </trkpt>
      <trkpt lat="45.65436" lon="6.49893">
        <ele>2024</ele>
        <time>2022-07-28T08:50:02Z</time>
      </trkpt>
      <trkpt lat="45.65437" lon="6.49892">
        <ele>2024</ele>
        <time>2022-07-28T08:50:03Z</time>
      </trkpt>
      <trkpt lat="45.65437" lon="6.49891">
        <ele>2024</ele>
        <time>2022-07-28T08:50:04Z</time>
      </trkpt>
      <trkpt lat="45.65437" lon="6.4989">
        <ele>2024</ele>
        <time>2022-07-28T08:50:05Z</time>
      </trkpt>
      <trkpt lat="45.65437" lon="6.49889">
        <ele>2025</ele>
        <time>2022-07-28T08:50:06Z</time>
      </trkpt>
      <trkpt lat="45.65438" lon="6.49888">
        <ele>2025</ele>
        <time>2022-07-28T08:50:07Z</time>
      </trkpt>
      <trkpt lat="45.65438" lon="6.49887">
        <ele>2025</ele>
        <time>2022-07-28T08:50:08Z</time>
      </trkpt>
      <trkpt lat="45.65438" lon="6.49887">
        <ele>2025</ele>
        <time>2022-07-28T08:50:09Z</time>
      </trkpt>
      <trkpt lat="45.65438" lon="6.49887">
        <ele>2025</ele>
        <time>2022-07-28T08:50:10Z</time>
      </trkpt>
      <trkpt lat="45.65439" lon="6.49886">
        <ele>2026</ele>
        <time>2022-07-28T08:50:11Z</time>
      </trkpt>
      <trkpt lat="45.65439" lon="6.49885">
        <ele>2026</ele>
        <time>2022-07-28T08:50:12Z</time>
      </trkpt>
      <trkpt lat="45.6544" lon="6.49885">
        <ele>2026</ele>
        <time>2022-07-28T08:50:18Z</time>
      </trkpt>
      <trkpt lat="45.6544" lon="6.49885">
        <ele>2026</ele>
        <time>2022-07-28T08:50:19Z</time>
      </trkpt>
      <trkpt lat="45.6544" lon="6.49884">
        <ele>2026</ele>
        <time>2022-07-28T08:50:20Z</time>
      </trkpt>
      <trkpt lat="45.6544" lon="6.49884">
        <ele>2027</ele>
        <time>2022-07-28T08:50:21Z</time>
      </trkpt>
      <trkpt lat="45.65441" lon="6.49883">
        <ele>2027</ele>
        <time>2022-07-28T08:50:22Z</time>
      </trkpt>
      <trkpt lat="45.65441" lon="6.49882">
        <ele>2027</ele>
        <time>2022-07-28T08:50:23Z</time>
      </trkpt>
      <trkpt lat="45.65441" lon="6.49881">
        <ele>2027</ele>
        <time>2022-07-28T08:50:24Z</time>
      </trkpt>
      <trkpt lat="45.65442" lon="6.4988">
        <ele>2027</ele>
        <time>2022-07-28T08:50:25Z</time>
      </trkpt>
      <trkpt lat="45.65442" lon="6.4988">
        <ele>2028</ele>
        <time>2022-07-28T08:50:26Z</time>
      </trkpt>
      <trkpt lat="45.65443" lon="6.49879">
        <ele>2028</ele>
        <time>2022-07-28T08:50:27Z</time>
      </trkpt>
      <trkpt lat="45.65443" lon="6.49878">
        <ele>2028</ele>
        <time>2022-07-28T08:50:28Z</time>
      </trkpt>
      <trkpt lat="45.65443" lon="6.49877">
        <ele>2028</ele>
        <time>2022-07-28T08:50:29Z</time>
      </trkpt>
      <trkpt lat="45.65443" lon="6.49877">
        <ele>2028</ele>
        <time>2022-07-28T08:50:30Z</time>
      </trkpt>
      <trkpt lat="45.65444" lon="6.49876">
        <ele>2028</ele>
        <time>2022-07-28T08:50:31Z</time>
      </trkpt>
      <trkpt lat="45.65444" lon="6.49875">
        <ele>2028</ele>
        <time>2022-07-28T08:50:32Z</time>
      </trkpt>
      <trkpt lat="45.65444" lon="6.49874">
        <ele>2028</ele>
        <time>2022-07-28T08:50:33Z</time>
      </trkpt>
      <trkpt lat="45.65445" lon="6.49873">
        <ele>2028</ele>
        <time>2022-07-28T08:50:34Z</time>
      </trkpt>
      <trkpt lat="45.65445" lon="6.49871">
        <ele>2030</ele>
        <time>2022-07-28T08:50:47Z</time>
      </trkpt>
      <trkpt lat="45.65445" lon="6.4987">
        <ele>2030</ele>
        <time>2022-07-28T08:50:48Z</time>
      </trkpt>
      <trkpt lat="45.65446" lon="6.49868">
        <ele>2030</ele>
        <time>2022-07-28T08:50:49Z</time>
      </trkpt>
      <trkpt lat="45.65446" lon="6.49867">
        <ele>2030</ele>
        <time>2022-07-28T08:50:50Z</time>
      </trkpt>
      <trkpt lat="45.65446" lon="6.49866">
        <ele>2031</ele>
        <time>2022-07-28T08:50:51Z</time>
      </trkpt>
      <trkpt lat="45.65446" lon="6.49865">
        <ele>2031</ele>
        <time>2022-07-28T08:50:52Z</time>
      </trkpt>
      <trkpt lat="45.65446" lon="6.49864">
        <ele>2031</ele>
        <time>2022-07-28T08:50:53Z</time>
      </trkpt>
      <trkpt lat="45.65446" lon="6.49862">
        <ele>2031</ele>
        <time>2022-07-28T08:50:54Z</time>
      </trkpt>
      <trkpt lat="45.65446" lon="6.49861">
        <ele>2031</ele>
        <time>2022-07-28T08:50:55Z</time>
      </trkpt>
      <trkpt lat="45.65446" lon="6.4986">
        <ele>2031</ele>
        <time>2022-07-28T08:50:56Z</time>
      </trkpt>
      <trkpt lat="45.65446" lon="6.49859">
        <ele>2031</ele>
        <time>2022-07-28T08:50:57Z</time>
      </trkpt>
      <trkpt lat="45.65446" lon="6.49858">
        <ele>2031</ele>
        <time>2022-07-28T08:50:58Z</time>
      </trkpt>
      <trkpt lat="45.65446" lon="6.49857">
        <ele>2031</ele>
        <time>2022-07-28T08:50:59Z</time>
      </trkpt>
      <trkpt lat="45.65446" lon="6.49856">
        <ele>2031</ele>
        <time>2022-07-28T08:51:00Z</time>
      </trkpt>
      <trkpt lat="45.65446" lon="6.49855">
        <ele>2032</ele>
        <time>2022-07-28T08:51:01Z</time>
      </trkpt>
      <trkpt lat="45.65445" lon="6.49854">
        <ele>2032</ele>
        <time>2022-07-28T08:51:02Z</time>
      </trkpt>
      <trkpt lat="45.65445" lon="6.49853">
        <ele>2032</ele>
        <time>2022-07-28T08:51:03Z</time>
      </trkpt>
      <trkpt lat="45.65445" lon="6.49852">
        <ele>2033</ele>
        <time>2022-07-28T08:51:04Z</time>
      </trkpt>
      <trkpt lat="45.65445" lon="6.49852">
        <ele>2033</ele>
        <time>2022-07-28T08:51:05Z</time>
      </trkpt>
      <trkpt lat="45.65445" lon="6.49851">
        <ele>2034</ele>
        <time>2022-07-28T08:51:06Z</time>
      </trkpt>
      <trkpt lat="45.65444" lon="6.4985">
        <ele>2034</ele>
        <time>2022-07-28T08:51:07Z</time>
      </trkpt>
      <trkpt lat="45.65444" lon="6.49849">
        <ele>2034</ele>
        <time>2022-07-28T08:51:08Z</time>
      </trkpt>
      <trkpt lat="45.65444" lon="6.49848">
        <ele>2034</ele>
        <time>2022-07-28T08:51:09Z</time>
      </trkpt>
      <trkpt lat="45.65444" lon="6.49846">
        <ele>2034</ele>
        <time>2022-07-28T08:51:10Z</time>
      </trkpt>
      <trkpt lat="45.65444" lon="6.49845">
        <ele>2034</ele>
        <time>2022-07-28T08:51:11Z</time>
      </trkpt>
      <trkpt lat="45.65444" lon="6.49844">
        <ele>2034</ele>
        <time>2022-07-28T08:51:12Z</time>
      </trkpt>
      <trkpt lat="45.65445" lon="6.49843">
        <ele>2034</ele>
        <time>2022-07-28T08:51:13Z</time>
      </trkpt>
      <trkpt lat="45.65445" lon="6.49842">
        <ele>2034</ele>
        <time>2022-07-28T08:51:14Z</time>
      </trkpt>
      <trkpt lat="45.65446" lon="6.49841">
        <ele>2034</ele>
        <time>2022-07-28T08:51:15Z</time>
      </trkpt>
      <trkpt lat="45.65446" lon="6.49839">
        <ele>2034</ele>
        <time>2022-07-28T08:51:16Z</time>
      </trkpt>
      <trkpt lat="45.65447" lon="6.49838">
        <ele>2034</ele>
        <time>2022-07-28T08:51:17Z</time>
      </trkpt>
      <trkpt lat="45.65448" lon="6.49837">
        <ele>2034</ele>
        <time>2022-07-28T08:51:18Z</time>
      </trkpt>
      <trkpt lat="45.65448" lon="6.49836">
        <ele>2034</ele>
        <time>2022-07-28T08:51:19Z</time>
      </trkpt>
      <trkpt lat="45.65449" lon="6.49836">
        <ele>2034</ele>
        <time>2022-07-28T08:51:20Z</time>
      </trkpt>
      <trkpt lat="45.6545" lon="6.49835">
        <ele>2034</ele>
        <time>2022-07-28T08:51:21Z</time>
      </trkpt>
      <trkpt lat="45.65451" lon="6.49834">
        <ele>2034</ele>
        <time>2022-07-28T08:51:22Z</time>
      </trkpt>
      <trkpt lat="45.65452" lon="6.49834">
        <ele>2034</ele>
        <time>2022-07-28T08:51:23Z</time>
      </trkpt>
      <trkpt lat="45.65453" lon="6.49833">
        <ele>2035</ele>
        <time>2022-07-28T08:51:24Z</time>
      </trkpt>
      <trkpt lat="45.65454" lon="6.49833">
        <ele>2035</ele>
        <time>2022-07-28T08:51:25Z</time>
      </trkpt>
      <trkpt lat="45.65455" lon="6.49832">
        <ele>2036</ele>
        <time>2022-07-28T08:51:26Z</time>
      </trkpt>
      <trkpt lat="45.65456" lon="6.49832">
        <ele>2036</ele>
        <time>2022-07-28T08:51:27Z</time>
      </trkpt>
      <trkpt lat="45.65456" lon="6.49831">
        <ele>2036</ele>
        <time>2022-07-28T08:51:28Z</time>
      </trkpt>
      <trkpt lat="45.65457" lon="6.4983">
        <ele>2036</ele>
        <time>2022-07-28T08:51:29Z</time>
      </trkpt>
      <trkpt lat="45.65458" lon="6.4983">
        <ele>2036</ele>
        <time>2022-07-28T08:51:30Z</time>
      </trkpt>
      <trkpt lat="45.65459" lon="6.49829">
        <ele>2036</ele>
        <time>2022-07-28T08:51:31Z</time>
      </trkpt>
      <trkpt lat="45.65459" lon="6.49828">
        <ele>2036</ele>
        <time>2022-07-28T08:51:32Z</time>
      </trkpt>
      <trkpt lat="45.6546" lon="6.49828">
        <ele>2036</ele>
        <time>2022-07-28T08:51:33Z</time>
      </trkpt>
      <trkpt lat="45.65461" lon="6.49827">
        <ele>2036</ele>
        <time>2022-07-28T08:51:34Z</time>
      </trkpt>
      <trkpt lat="45.65462" lon="6.49827">
        <ele>2036</ele>
        <time>2022-07-28T08:51:35Z</time>
      </trkpt>
      <trkpt lat="45.65463" lon="6.49826">
        <ele>2037</ele>
        <time>2022-07-28T08:51:36Z</time>
      </trkpt>
      <trkpt lat="45.65463" lon="6.49826">
        <ele>2037</ele>
        <time>2022-07-28T08:51:37Z</time>
      </trkpt>
      <trkpt lat="45.65464" lon="6.49826">
        <ele>2037</ele>
        <time>2022-07-28T08:51:38Z</time>
      </trkpt>
      <trkpt lat="45.65465" lon="6.49825">
        <ele>2037</ele>
        <time>2022-07-28T08:51:39Z</time>
      </trkpt>
      <trkpt lat="45.65466" lon="6.49825">
        <ele>2037</ele>
        <time>2022-07-28T08:51:40Z</time>
      </trkpt>
      <trkpt lat="45.65467" lon="6.49825">
        <ele>2038</ele>
        <time>2022-07-28T08:51:41Z</time>
      </trkpt>
      <trkpt lat="45.65468" lon="6.49825">
        <ele>2038</ele>
        <time>2022-07-28T08:51:42Z</time>
      </trkpt>
      <trkpt lat="45.65469" lon="6.49825">
        <ele>2038</ele>
        <time>2022-07-28T08:51:43Z</time>
      </trkpt>
      <trkpt lat="45.65469" lon="6.49824">
        <ele>2038</ele>
        <time>2022-07-28T08:51:44Z</time>
      </trkpt>
      <trkpt lat="45.6547" lon="6.49824">
        <ele>2038</ele>
        <time>2022-07-28T08:51:45Z</time>
      </trkpt>
      <trkpt lat="45.65471" lon="6.49824">
        <ele>2038</ele>
        <time>2022-07-28T08:51:46Z</time>
      </trkpt>
      <trkpt lat="45.65472" lon="6.49824">
        <ele>2038</ele>
        <time>2022-07-28T08:51:47Z</time>
      </trkpt>
      <trkpt lat="45.65473" lon="6.49824">
        <ele>2038</ele>
        <time>2022-07-28T08:51:48Z</time>
      </trkpt>
      <trkpt lat="45.65473" lon="6.49824">
        <ele>2038</ele>
        <time>2022-07-28T08:51:49Z</time>
      </trkpt>
      <trkpt lat="45.65474" lon="6.49824">
        <ele>2038</ele>
        <time>2022-07-28T08:51:50Z</time>
      </trkpt>
      <trkpt lat="45.65475" lon="6.49824">
        <ele>2039</ele>
        <time>2022-07-28T08:51:51Z</time>
      </trkpt>
      <trkpt lat="45.65476" lon="6.49825">
        <ele>2039</ele>
        <time>2022-07-28T08:51:52Z</time>
      </trkpt>
      <trkpt lat="45.65477" lon="6.49825">
        <ele>2039</ele>
        <time>2022-07-28T08:51:53Z</time>
      </trkpt>
      <trkpt lat="45.65478" lon="6.49825">
        <ele>2039</ele>
        <time>2022-07-28T08:51:54Z</time>
      </trkpt>
      <trkpt lat="45.65479" lon="6.49825">
        <ele>2039</ele>
        <time>2022-07-28T08:51:55Z</time>
      </trkpt>
      <trkpt lat="45.6548" lon="6.49825">
        <ele>2040</ele>
        <time>2022-07-28T08:51:56Z</time>
      </trkpt>
      <trkpt lat="45.65481" lon="6.49825">
        <ele>2040</ele>
        <time>2022-07-28T08:51:57Z</time>
      </trkpt>
      <trkpt lat="45.65482" lon="6.49825">
        <ele>2040</ele>
        <time>2022-07-28T08:51:58Z</time>
      </trkpt>
      <trkpt lat="45.65483" lon="6.49826">
        <ele>2040</ele>
        <time>2022-07-28T08:51:59Z</time>
      </trkpt>
      <trkpt lat="45.65483" lon="6.49826">
        <ele>2040</ele>
        <time>2022-07-28T08:52:00Z</time>
      </trkpt>
      <trkpt lat="45.65484" lon="6.49827">
        <ele>2041</ele>
        <time>2022-07-28T08:52:01Z</time>
      </trkpt>
      <trkpt lat="45.65485" lon="6.49827">
        <ele>2041</ele>
        <time>2022-07-28T08:52:02Z</time>
      </trkpt>
      <trkpt lat="45.65486" lon="6.49828">
        <ele>2041</ele>
        <time>2022-07-28T08:52:03Z</time>
      </trkpt>
      <trkpt lat="45.65487" lon="6.49829">
        <ele>2041</ele>
        <time>2022-07-28T08:52:04Z</time>
      </trkpt>
      <trkpt lat="45.65488" lon="6.49829">
        <ele>2041</ele>
        <time>2022-07-28T08:52:05Z</time>
      </trkpt>
      <trkpt lat="45.65489" lon="6.4983">
        <ele>2041</ele>
        <time>2022-07-28T08:52:06Z</time>
      </trkpt>
      <trkpt lat="45.65489" lon="6.4983">
        <ele>2041</ele>
        <time>2022-07-28T08:52:07Z</time>
      </trkpt>
      <trkpt lat="45.6549" lon="6.4983">
        <ele>2041</ele>
        <time>2022-07-28T08:52:08Z</time>
      </trkpt>
      <trkpt lat="45.65491" lon="6.49831">
        <ele>2041</ele>
        <time>2022-07-28T08:52:09Z</time>
      </trkpt>
      <trkpt lat="45.65492" lon="6.49831">
        <ele>2041</ele>
        <time>2022-07-28T08:52:10Z</time>
      </trkpt>
      <trkpt lat="45.65493" lon="6.49831">
        <ele>2041</ele>
        <time>2022-07-28T08:52:11Z</time>
      </trkpt>
      <trkpt lat="45.65494" lon="6.49832">
        <ele>2041</ele>
        <time>2022-07-28T08:52:12Z</time>
      </trkpt>
      <trkpt lat="45.65495" lon="6.49832">
        <ele>2041</ele>
        <time>2022-07-28T08:52:13Z</time>
      </trkpt>
      <trkpt lat="45.65496" lon="6.49832">
        <ele>2041</ele>
        <time>2022-07-28T08:52:14Z</time>
      </trkpt>
      <trkpt lat="45.65497" lon="6.49832">
        <ele>2041</ele>
        <time>2022-07-28T08:52:15Z</time>
      </trkpt>
      <trkpt lat="45.65497" lon="6.49832">
        <ele>2042</ele>
        <time>2022-07-28T08:52:16Z</time>
      </trkpt>
      <trkpt lat="45.65497" lon="6.49832">
        <ele>2042</ele>
        <time>2022-07-28T08:52:17Z</time>
      </trkpt>
      <trkpt lat="45.65497" lon="6.49832">
        <ele>2042</ele>
        <time>2022-07-28T08:52:18Z</time>
      </trkpt>
      <trkpt lat="45.65498" lon="6.49832">
        <ele>2042</ele>
        <time>2022-07-28T08:52:19Z</time>
      </trkpt>
      <trkpt lat="45.65498" lon="6.49832">
        <ele>2042</ele>
        <time>2022-07-28T08:52:20Z</time>
      </trkpt>
      <trkpt lat="45.65499" lon="6.49832">
        <ele>2043</ele>
        <time>2022-07-28T08:52:21Z</time>
      </trkpt>
      <trkpt lat="45.65499" lon="6.49832">
        <ele>2043</ele>
        <time>2022-07-28T08:52:22Z</time>
      </trkpt>
      <trkpt lat="45.655" lon="6.49832">
        <ele>2043</ele>
        <time>2022-07-28T08:52:23Z</time>
      </trkpt>
      <trkpt lat="45.655" lon="6.49832">
        <ele>2043</ele>
        <time>2022-07-28T08:52:24Z</time>
      </trkpt>
      <trkpt lat="45.65501" lon="6.49832">
        <ele>2043</ele>
        <time>2022-07-28T08:52:25Z</time>
      </trkpt>
      <trkpt lat="45.65502" lon="6.49832">
        <ele>2044</ele>
        <time>2022-07-28T08:52:26Z</time>
      </trkpt>
      <trkpt lat="45.65502" lon="6.49833">
        <ele>2044</ele>
        <time>2022-07-28T08:52:27Z</time>
      </trkpt>
      <trkpt lat="45.65503" lon="6.49833">
        <ele>2044</ele>
        <time>2022-07-28T08:52:28Z</time>
      </trkpt>
      <trkpt lat="45.65504" lon="6.49833">
        <ele>2044</ele>
        <time>2022-07-28T08:52:29Z</time>
      </trkpt>
      <trkpt lat="45.65504" lon="6.49833">
        <ele>2044</ele>
        <time>2022-07-28T08:52:30Z</time>
      </trkpt>
      <trkpt lat="45.65505" lon="6.49832">
        <ele>2045</ele>
        <time>2022-07-28T08:52:31Z</time>
      </trkpt>
      <trkpt lat="45.65506" lon="6.49832">
        <ele>2045</ele>
        <time>2022-07-28T08:52:32Z</time>
      </trkpt>
      <trkpt lat="45.65507" lon="6.49832">
        <ele>2047</ele>
        <time>2022-07-28T08:53:02Z</time>
      </trkpt>
      <trkpt lat="45.65508" lon="6.49831">
        <ele>2047</ele>
        <time>2022-07-28T08:53:03Z</time>
      </trkpt>
      <trkpt lat="45.65508" lon="6.49831">
        <ele>2047</ele>
        <time>2022-07-28T08:53:04Z</time>
      </trkpt>
      <trkpt lat="45.65509" lon="6.49831">
        <ele>2047</ele>
        <time>2022-07-28T08:53:05Z</time>
      </trkpt>
      <trkpt lat="45.65509" lon="6.49831">
        <ele>2047</ele>
        <time>2022-07-28T08:53:06Z</time>
      </trkpt>
      <trkpt lat="45.6551" lon="6.4983">
        <ele>2047</ele>
        <time>2022-07-28T08:53:07Z</time>
      </trkpt>
      <trkpt lat="45.65511" lon="6.4983">
        <ele>2047</ele>
        <time>2022-07-28T08:53:08Z</time>
      </trkpt>
      <trkpt lat="45.65512" lon="6.49829">
        <ele>2047</ele>
        <time>2022-07-28T08:53:09Z</time>
      </trkpt>
      <trkpt lat="45.65513" lon="6.49828">
        <ele>2047</ele>
        <time>2022-07-28T08:53:10Z</time>
      </trkpt>
      <trkpt lat="45.65514" lon="6.49827">
        <ele>2048</ele>
        <time>2022-07-28T08:53:11Z</time>
      </trkpt>
      <trkpt lat="45.65515" lon="6.49827">
        <ele>2048</ele>
        <time>2022-07-28T08:53:12Z</time>
      </trkpt>
      <trkpt lat="45.65516" lon="6.49827">
        <ele>2048</ele>
        <time>2022-07-28T08:53:13Z</time>
      </trkpt>
      <trkpt lat="45.65517" lon="6.49827">
        <ele>2048</ele>
        <time>2022-07-28T08:53:14Z</time>
      </trkpt>
      <trkpt lat="45.65518" lon="6.49827">
        <ele>2048</ele>
        <time>2022-07-28T08:53:15Z</time>
      </trkpt>
      <trkpt lat="45.65518" lon="6.49827">
        <ele>2049</ele>
        <time>2022-07-28T08:53:16Z</time>
      </trkpt>
      <trkpt lat="45.65519" lon="6.49827">
        <ele>2049</ele>
        <time>2022-07-28T08:53:17Z</time>
      </trkpt>
      <trkpt lat="45.6552" lon="6.49827">
        <ele>2049</ele>
        <time>2022-07-28T08:53:18Z</time>
      </trkpt>
      <trkpt lat="45.6552" lon="6.49827">
        <ele>2049</ele>
        <time>2022-07-28T08:53:19Z</time>
      </trkpt>
      <trkpt lat="45.65521" lon="6.49827">
        <ele>2049</ele>
        <time>2022-07-28T08:53:20Z</time>
      </trkpt>
      <trkpt lat="45.65521" lon="6.49827">
        <ele>2050</ele>
        <time>2022-07-28T08:53:21Z</time>
      </trkpt>
      <trkpt lat="45.65522" lon="6.49827">
        <ele>2050</ele>
        <time>2022-07-28T08:53:22Z</time>
      </trkpt>
      <trkpt lat="45.65523" lon="6.49827">
        <ele>2050</ele>
        <time>2022-07-28T08:53:23Z</time>
      </trkpt>
      <trkpt lat="45.65523" lon="6.49827">
        <ele>2050</ele>
        <time>2022-07-28T08:53:24Z</time>
      </trkpt>
      <trkpt lat="45.65524" lon="6.49828">
        <ele>2050</ele>
        <time>2022-07-28T08:53:25Z</time>
      </trkpt>
      <trkpt lat="45.65524" lon="6.49828">
        <ele>2051</ele>
        <time>2022-07-28T08:53:26Z</time>
      </trkpt>
      <trkpt lat="45.65525" lon="6.49828">
        <ele>2051</ele>
        <time>2022-07-28T08:53:27Z</time>
      </trkpt>
      <trkpt lat="45.65526" lon="6.49828">
        <ele>2051</ele>
        <time>2022-07-28T08:53:28Z</time>
      </trkpt>
      <trkpt lat="45.65527" lon="6.49828">
        <ele>2051</ele>
        <time>2022-07-28T08:53:29Z</time>
      </trkpt>
      <trkpt lat="45.65528" lon="6.49828">
        <ele>2051</ele>
        <time>2022-07-28T08:53:30Z</time>
      </trkpt>
      <trkpt lat="45.65528" lon="6.49829">
        <ele>2052</ele>
        <time>2022-07-28T08:53:31Z</time>
      </trkpt>
      <trkpt lat="45.65529" lon="6.49829">
        <ele>2052</ele>
        <time>2022-07-28T08:53:32Z</time>
      </trkpt>
      <trkpt lat="45.65529" lon="6.49829">
        <ele>2052</ele>
        <time>2022-07-28T08:53:33Z</time>
      </trkpt>
      <trkpt lat="45.65529" lon="6.49829">
        <ele>2052</ele>
        <time>2022-07-28T08:53:34Z</time>
      </trkpt>
      <trkpt lat="45.65529" lon="6.49829">
        <ele>2052</ele>
        <time>2022-07-28T08:53:35Z</time>
      </trkpt>
      <trkpt lat="45.6553" lon="6.49829">
        <ele>2052</ele>
        <time>2022-07-28T08:53:36Z</time>
      </trkpt>
      <trkpt lat="45.6553" lon="6.49829">
        <ele>2052</ele>
        <time>2022-07-28T08:53:37Z</time>
      </trkpt>
      <trkpt lat="45.65531" lon="6.49829">
        <ele>2052</ele>
        <time>2022-07-28T08:53:38Z</time>
      </trkpt>
      <trkpt lat="45.65531" lon="6.49828">
        <ele>2052</ele>
        <time>2022-07-28T08:53:39Z</time>
      </trkpt>
      <trkpt lat="45.65532" lon="6.49828">
        <ele>2052</ele>
        <time>2022-07-28T08:53:40Z</time>
      </trkpt>
      <trkpt lat="45.65532" lon="6.49828">
        <ele>2053</ele>
        <time>2022-07-28T08:53:41Z</time>
      </trkpt>
      <trkpt lat="45.65533" lon="6.49827">
        <ele>2053</ele>
        <time>2022-07-28T08:53:42Z</time>
      </trkpt>
      <trkpt lat="45.65534" lon="6.49827">
        <ele>2053</ele>
        <time>2022-07-28T08:53:43Z</time>
      </trkpt>
      <trkpt lat="45.65534" lon="6.49827">
        <ele>2053</ele>
        <time>2022-07-28T08:53:44Z</time>
      </trkpt>
      <trkpt lat="45.65535" lon="6.49826">
        <ele>2053</ele>
        <time>2022-07-28T08:53:45Z</time>
      </trkpt>
      <trkpt lat="45.65535" lon="6.49827">
        <ele>2054</ele>
        <time>2022-07-28T08:55:34Z</time>
      </trkpt>
      <trkpt lat="45.65536" lon="6.49826">
        <ele>2054</ele>
        <time>2022-07-28T08:55:35Z</time>
      </trkpt>
      <trkpt lat="45.65536" lon="6.49826">
        <ele>2055</ele>
        <time>2022-07-28T08:55:36Z</time>
      </trkpt>
      <trkpt lat="45.65536" lon="6.49826">
        <ele>2055</ele>
        <time>2022-07-28T08:55:37Z</time>
      </trkpt>
      <trkpt lat="45.65537" lon="6.49825">
        <ele>2055</ele>
        <time>2022-07-28T08:55:38Z</time>
      </trkpt>
      <trkpt lat="45.65537" lon="6.49825">
        <ele>2055</ele>
        <time>2022-07-28T08:55:39Z</time>
      </trkpt>
      <trkpt lat="45.65538" lon="6.49824">
        <ele>2055</ele>
        <time>2022-07-28T08:55:40Z</time>
      </trkpt>
      <trkpt lat="45.65539" lon="6.49824">
        <ele>2055</ele>
        <time>2022-07-28T08:55:41Z</time>
      </trkpt>
      <trkpt lat="45.65539" lon="6.49823">
        <ele>2055</ele>
        <time>2022-07-28T08:55:42Z</time>
      </trkpt>
      <trkpt lat="45.6554" lon="6.49823">
        <ele>2055</ele>
        <time>2022-07-28T08:55:43Z</time>
      </trkpt>
      <trkpt lat="45.65541" lon="6.49823">
        <ele>2055</ele>
        <time>2022-07-28T08:55:44Z</time>
      </trkpt>
      <trkpt lat="45.65541" lon="6.49822">
        <ele>2055</ele>
        <time>2022-07-28T08:55:45Z</time>
      </trkpt>
      <trkpt lat="45.65542" lon="6.49822">
        <ele>2056</ele>
        <time>2022-07-28T08:55:46Z</time>
      </trkpt>
      <trkpt lat="45.65543" lon="6.49822">
        <ele>2057</ele>
        <time>2022-07-28T08:55:57Z</time>
      </trkpt>
      <trkpt lat="45.65543" lon="6.49821">
        <ele>2057</ele>
        <time>2022-07-28T08:55:58Z</time>
      </trkpt>
      <trkpt lat="45.65543" lon="6.49821">
        <ele>2057</ele>
        <time>2022-07-28T08:55:59Z</time>
      </trkpt>
      <trkpt lat="45.65544" lon="6.49821">
        <ele>2057</ele>
        <time>2022-07-28T08:56:00Z</time>
      </trkpt>
      <trkpt lat="45.65544" lon="6.4982">
        <ele>2058</ele>
        <time>2022-07-28T08:56:01Z</time>
      </trkpt>
      <trkpt lat="45.65545" lon="6.4982">
        <ele>2058</ele>
        <time>2022-07-28T08:56:02Z</time>
      </trkpt>
      <trkpt lat="45.65545" lon="6.49819">
        <ele>2058</ele>
        <time>2022-07-28T08:56:03Z</time>
      </trkpt>
      <trkpt lat="45.65546" lon="6.49818">
        <ele>2058</ele>
        <time>2022-07-28T08:56:04Z</time>
      </trkpt>
      <trkpt lat="45.65547" lon="6.49817">
        <ele>2058</ele>
        <time>2022-07-28T08:56:05Z</time>
      </trkpt>
      <trkpt lat="45.65547" lon="6.49816">
        <ele>2058</ele>
        <time>2022-07-28T08:56:06Z</time>
      </trkpt>
      <trkpt lat="45.65548" lon="6.49815">
        <ele>2058</ele>
        <time>2022-07-28T08:56:07Z</time>
      </trkpt>
      <trkpt lat="45.65548" lon="6.49815">
        <ele>2058</ele>
        <time>2022-07-28T08:56:08Z</time>
      </trkpt>
      <trkpt lat="45.65549" lon="6.49814">
        <ele>2058</ele>
        <time>2022-07-28T08:56:09Z</time>
      </trkpt>
      <trkpt lat="45.65549" lon="6.49813">
        <ele>2058</ele>
        <time>2022-07-28T08:56:10Z</time>
      </trkpt>
      <trkpt lat="45.6555" lon="6.49812">
        <ele>2059</ele>
        <time>2022-07-28T08:56:11Z</time>
      </trkpt>
      <trkpt lat="45.6555" lon="6.49812">
        <ele>2059</ele>
        <time>2022-07-28T08:56:12Z</time>
      </trkpt>
      <trkpt lat="45.65551" lon="6.49811">
        <ele>2059</ele>
        <time>2022-07-28T08:56:13Z</time>
      </trkpt>
      <trkpt lat="45.65551" lon="6.49811">
        <ele>2059</ele>
        <time>2022-07-28T08:56:14Z</time>
      </trkpt>
      <trkpt lat="45.65552" lon="6.49811">
        <ele>2059</ele>
        <time>2022-07-28T08:56:15Z</time>
      </trkpt>
      <trkpt lat="45.65552" lon="6.4981">
        <ele>2059</ele>
        <time>2022-07-28T08:56:16Z</time>
      </trkpt>
      <trkpt lat="45.65552" lon="6.4981">
        <ele>2059</ele>
        <time>2022-07-28T08:56:17Z</time>
      </trkpt>
      <trkpt lat="45.65553" lon="6.4981">
        <ele>2059</ele>
        <time>2022-07-28T08:56:18Z</time>
      </trkpt>
      <trkpt lat="45.65553" lon="6.49809">
        <ele>2059</ele>
        <time>2022-07-28T08:56:19Z</time>
      </trkpt>
      <trkpt lat="45.65554" lon="6.49809">
        <ele>2059</ele>
        <time>2022-07-28T08:56:20Z</time>
      </trkpt>
      <trkpt lat="45.65554" lon="6.49809">
        <ele>2059</ele>
        <time>2022-07-28T08:56:21Z</time>
      </trkpt>
      <trkpt lat="45.65555" lon="6.49808">
        <ele>2059</ele>
        <time>2022-07-28T08:56:22Z</time>
      </trkpt>
      <trkpt lat="45.65555" lon="6.49808">
        <ele>2059</ele>
        <time>2022-07-28T08:56:23Z</time>
      </trkpt>
      <trkpt lat="45.65556" lon="6.49808">
        <ele>2059</ele>
        <time>2022-07-28T08:56:24Z</time>
      </trkpt>
      <trkpt lat="45.65557" lon="6.49807">
        <ele>2059</ele>
        <time>2022-07-28T08:56:25Z</time>
      </trkpt>
      <trkpt lat="45.65558" lon="6.49807">
        <ele>2060</ele>
        <time>2022-07-28T08:56:26Z</time>
      </trkpt>
      <trkpt lat="45.65558" lon="6.49807">
        <ele>2060</ele>
        <time>2022-07-28T08:56:27Z</time>
      </trkpt>
      <trkpt lat="45.65559" lon="6.49807">
        <ele>2060</ele>
        <time>2022-07-28T08:56:28Z</time>
      </trkpt>
      <trkpt lat="45.6556" lon="6.49807">
        <ele>2060</ele>
        <time>2022-07-28T08:56:29Z</time>
      </trkpt>
      <trkpt lat="45.6556" lon="6.49806">
        <ele>2060</ele>
        <time>2022-07-28T08:56:30Z</time>
      </trkpt>
      <trkpt lat="45.65561" lon="6.49806">
        <ele>2061</ele>
        <time>2022-07-28T08:56:31Z</time>
      </trkpt>
      <trkpt lat="45.65562" lon="6.49806">
        <ele>2061</ele>
        <time>2022-07-28T08:56:32Z</time>
      </trkpt>
      <trkpt lat="45.65562" lon="6.49806">
        <ele>2062</ele>
        <time>2022-07-28T08:56:33Z</time>
      </trkpt>
      <trkpt lat="45.65563" lon="6.49806">
        <ele>2062</ele>
        <time>2022-07-28T08:56:34Z</time>
      </trkpt>
      <trkpt lat="45.65564" lon="6.49806">
        <ele>2063</ele>
        <time>2022-07-28T08:56:35Z</time>
      </trkpt>
      <trkpt lat="45.65564" lon="6.49806">
        <ele>2064</ele>
        <time>2022-07-28T08:56:36Z</time>
      </trkpt>
      <trkpt lat="45.65565" lon="6.49806">
        <ele>2064</ele>
        <time>2022-07-28T08:56:37Z</time>
      </trkpt>
      <trkpt lat="45.65565" lon="6.49805">
        <ele>2064</ele>
        <time>2022-07-28T08:56:38Z</time>
      </trkpt>
      <trkpt lat="45.65566" lon="6.49805">
        <ele>2064</ele>
        <time>2022-07-28T08:56:39Z</time>
      </trkpt>
      <trkpt lat="45.65567" lon="6.49805">
        <ele>2068</ele>
        <time>2022-07-28T08:56:56Z</time>
      </trkpt>
      <trkpt lat="45.65568" lon="6.49805">
        <ele>2068</ele>
        <time>2022-07-28T08:56:57Z</time>
      </trkpt>
      <trkpt lat="45.65569" lon="6.49805">
        <ele>2068</ele>
        <time>2022-07-28T08:56:58Z</time>
      </trkpt>
      <trkpt lat="45.65569" lon="6.49804">
        <ele>2068</ele>
        <time>2022-07-28T08:56:59Z</time>
      </trkpt>
      <trkpt lat="45.6557" lon="6.49804">
        <ele>2068</ele>
        <time>2022-07-28T08:57:00Z</time>
      </trkpt>
      <trkpt lat="45.65571" lon="6.49804">
        <ele>2068</ele>
        <time>2022-07-28T08:57:01Z</time>
      </trkpt>
      <trkpt lat="45.65571" lon="6.49804">
        <ele>2068</ele>
        <time>2022-07-28T08:57:02Z</time>
      </trkpt>
      <trkpt lat="45.65572" lon="6.49804">
        <ele>2068</ele>
        <time>2022-07-28T08:57:03Z</time>
      </trkpt>
      <trkpt lat="45.65573" lon="6.49804">
        <ele>2068</ele>
        <time>2022-07-28T08:57:04Z</time>
      </trkpt>
      <trkpt lat="45.65574" lon="6.49803">
        <ele>2068</ele>
        <time>2022-07-28T08:57:05Z</time>
      </trkpt>
      <trkpt lat="45.65574" lon="6.49803">
        <ele>2069</ele>
        <time>2022-07-28T08:57:06Z</time>
      </trkpt>
      <trkpt lat="45.65575" lon="6.49803">
        <ele>2069</ele>
        <time>2022-07-28T08:57:07Z</time>
      </trkpt>
      <trkpt lat="45.65575" lon="6.49803">
        <ele>2069</ele>
        <time>2022-07-28T08:57:08Z</time>
      </trkpt>
      <trkpt lat="45.6558" lon="6.49803">
        <ele>2074</ele>
        <time>2022-07-28T08:57:38Z</time>
      </trkpt>
      <trkpt lat="45.65583" lon="6.49802">
        <ele>2074</ele>
        <time>2022-07-28T08:57:39Z</time>
      </trkpt>
      <trkpt lat="45.65585" lon="6.49802">
        <ele>2074</ele>
        <time>2022-07-28T08:57:40Z</time>
      </trkpt>
      <trkpt lat="45.65587" lon="6.49802">
        <ele>2075</ele>
        <time>2022-07-28T08:57:41Z</time>
      </trkpt>
      <trkpt lat="45.65588" lon="6.49802">
        <ele>2075</ele>
        <time>2022-07-28T08:57:42Z</time>
      </trkpt>
      <trkpt lat="45.6559" lon="6.49802">
        <ele>2075</ele>
        <time>2022-07-28T08:57:43Z</time>
      </trkpt>
      <trkpt lat="45.65591" lon="6.49802">
        <ele>2075</ele>
        <time>2022-07-28T08:57:44Z</time>
      </trkpt>
      <trkpt lat="45.65592" lon="6.49802">
        <ele>2075</ele>
        <time>2022-07-28T08:57:45Z</time>
      </trkpt>
      <trkpt lat="45.65593" lon="6.49801">
        <ele>2076</ele>
        <time>2022-07-28T08:57:46Z</time>
      </trkpt>
      <trkpt lat="45.65594" lon="6.49801">
        <ele>2076</ele>
        <time>2022-07-28T08:57:47Z</time>
      </trkpt>
      <trkpt lat="45.65595" lon="6.49801">
        <ele>2076</ele>
        <time>2022-07-28T08:57:48Z</time>
      </trkpt>
      <trkpt lat="45.65596" lon="6.49801">
        <ele>2077</ele>
        <time>2022-07-28T08:57:49Z</time>
      </trkpt>
      <trkpt lat="45.65597" lon="6.49801">
        <ele>2077</ele>
        <time>2022-07-28T08:57:50Z</time>
      </trkpt>
      <trkpt lat="45.65597" lon="6.49801">
        <ele>2078</ele>
        <time>2022-07-28T08:57:51Z</time>
      </trkpt>
      <trkpt lat="45.65598" lon="6.49801">
        <ele>2078</ele>
        <time>2022-07-28T08:57:52Z</time>
      </trkpt>
      <trkpt lat="45.65599" lon="6.49801">
        <ele>2078</ele>
        <time>2022-07-28T08:57:53Z</time>
      </trkpt>
      <trkpt lat="45.65599" lon="6.49801">
        <ele>2078</ele>
        <time>2022-07-28T08:57:54Z</time>
      </trkpt>
      <trkpt lat="45.656" lon="6.49801">
        <ele>2078</ele>
        <time>2022-07-28T08:57:55Z</time>
      </trkpt>
      <trkpt lat="45.65601" lon="6.49801">
        <ele>2079</ele>
        <time>2022-07-28T08:57:56Z</time>
      </trkpt>
      <trkpt lat="45.65601" lon="6.49801">
        <ele>2079</ele>
        <time>2022-07-28T08:58:17Z</time>
      </trkpt>
      <trkpt lat="45.65602" lon="6.49801">
        <ele>2079</ele>
        <time>2022-07-28T08:58:18Z</time>
      </trkpt>
      <trkpt lat="45.65602" lon="6.49801">
        <ele>2079</ele>
        <time>2022-07-28T08:58:19Z</time>
      </trkpt>
      <trkpt lat="45.65603" lon="6.498">
        <ele>2079</ele>
        <time>2022-07-28T08:58:20Z</time>
      </trkpt>
      <trkpt lat="45.65603" lon="6.498">
        <ele>2079</ele>
        <time>2022-07-28T08:58:21Z</time>
      </trkpt>
      <trkpt lat="45.65604" lon="6.49799">
        <ele>2079</ele>
        <time>2022-07-28T08:58:22Z</time>
      </trkpt>
      <trkpt lat="45.65604" lon="6.49798">
        <ele>2079</ele>
        <time>2022-07-28T08:58:23Z</time>
      </trkpt>
      <trkpt lat="45.65605" lon="6.49797">
        <ele>2079</ele>
        <time>2022-07-28T08:58:24Z</time>
      </trkpt>
      <trkpt lat="45.65606" lon="6.49797">
        <ele>2079</ele>
        <time>2022-07-28T08:58:25Z</time>
      </trkpt>
      <trkpt lat="45.65606" lon="6.49796">
        <ele>2080</ele>
        <time>2022-07-28T08:58:26Z</time>
      </trkpt>
      <trkpt lat="45.65607" lon="6.49795">
        <ele>2080</ele>
        <time>2022-07-28T08:58:27Z</time>
      </trkpt>
      <trkpt lat="45.65607" lon="6.49794">
        <ele>2080</ele>
        <time>2022-07-28T08:58:28Z</time>
      </trkpt>
      <trkpt lat="45.65608" lon="6.49792">
        <ele>2080</ele>
        <time>2022-07-28T08:58:29Z</time>
      </trkpt>
      <trkpt lat="45.65608" lon="6.49791">
        <ele>2080</ele>
        <time>2022-07-28T08:58:30Z</time>
      </trkpt>
      <trkpt lat="45.65609" lon="6.4979">
        <ele>2081</ele>
        <time>2022-07-28T08:58:31Z</time>
      </trkpt>
      <trkpt lat="45.65609" lon="6.49789">
        <ele>2081</ele>
        <time>2022-07-28T08:58:32Z</time>
      </trkpt>
      <trkpt lat="45.65609" lon="6.49787">
        <ele>2081</ele>
        <time>2022-07-28T08:58:33Z</time>
      </trkpt>
      <trkpt lat="45.6561" lon="6.49786">
        <ele>2081</ele>
        <time>2022-07-28T08:58:34Z</time>
      </trkpt>
      <trkpt lat="45.6561" lon="6.49785">
        <ele>2081</ele>
        <time>2022-07-28T08:58:35Z</time>
      </trkpt>
      <trkpt lat="45.6561" lon="6.49784">
        <ele>2082</ele>
        <time>2022-07-28T08:58:36Z</time>
      </trkpt>
      <trkpt lat="45.65611" lon="6.49782">
        <ele>2082</ele>
        <time>2022-07-28T08:58:37Z</time>
      </trkpt>
      <trkpt lat="45.65611" lon="6.49781">
        <ele>2082</ele>
        <time>2022-07-28T08:58:38Z</time>
      </trkpt>
      <trkpt lat="45.65611" lon="6.4978">
        <ele>2083</ele>
        <time>2022-07-28T08:58:39Z</time>
      </trkpt>
      <trkpt lat="45.65611" lon="6.49779">
        <ele>2083</ele>
        <time>2022-07-28T08:58:40Z</time>
      </trkpt>
      <trkpt lat="45.65612" lon="6.49778">
        <ele>2084</ele>
        <time>2022-07-28T08:58:41Z</time>
      </trkpt>
      <trkpt lat="45.65612" lon="6.49777">
        <ele>2084</ele>
        <time>2022-07-28T08:58:42Z</time>
      </trkpt>
      <trkpt lat="45.65612" lon="6.49777">
        <ele>2084</ele>
        <time>2022-07-28T08:58:43Z</time>
      </trkpt>
      <trkpt lat="45.65612" lon="6.49776">
        <ele>2084</ele>
        <time>2022-07-28T08:58:44Z</time>
      </trkpt>
      <trkpt lat="45.65612" lon="6.49775">
        <ele>2084</ele>
        <time>2022-07-28T08:58:45Z</time>
      </trkpt>
      <trkpt lat="45.65613" lon="6.49774">
        <ele>2085</ele>
        <time>2022-07-28T08:58:46Z</time>
      </trkpt>
      <trkpt lat="45.65613" lon="6.49773">
        <ele>2085</ele>
        <time>2022-07-28T08:58:47Z</time>
      </trkpt>
      <trkpt lat="45.65613" lon="6.49772">
        <ele>2085</ele>
        <time>2022-07-28T08:58:48Z</time>
      </trkpt>
      <trkpt lat="45.65613" lon="6.49771">
        <ele>2085</ele>
        <time>2022-07-28T08:58:49Z</time>
      </trkpt>
      <trkpt lat="45.65613" lon="6.4977">
        <ele>2085</ele>
        <time>2022-07-28T08:58:50Z</time>
      </trkpt>
      <trkpt lat="45.65614" lon="6.49769">
        <ele>2086</ele>
        <time>2022-07-28T08:58:51Z</time>
      </trkpt>
      <trkpt lat="45.65614" lon="6.4977">
        <ele>2090</ele>
        <time>2022-07-28T09:00:28Z</time>
      </trkpt>
      <trkpt lat="45.65615" lon="6.4977">
        <ele>2090</ele>
        <time>2022-07-28T09:00:29Z</time>
      </trkpt>
      <trkpt lat="45.65616" lon="6.4977">
        <ele>2090</ele>
        <time>2022-07-28T09:00:30Z</time>
      </trkpt>
      <trkpt lat="45.65616" lon="6.49771">
        <ele>2090</ele>
        <time>2022-07-28T09:00:31Z</time>
      </trkpt>
      <trkpt lat="45.65617" lon="6.49771">
        <ele>2090</ele>
        <time>2022-07-28T09:00:32Z</time>
      </trkpt>
      <trkpt lat="45.65619" lon="6.49772">
        <ele>2088</ele>
        <time>2022-07-28T09:00:39Z</time>
      </trkpt>
      <trkpt lat="45.6562" lon="6.49772">
        <ele>2088</ele>
        <time>2022-07-28T09:00:40Z</time>
      </trkpt>
      <trkpt lat="45.6562" lon="6.49772">
        <ele>2088</ele>
        <time>2022-07-28T09:00:41Z</time>
      </trkpt>
      <trkpt lat="45.65621" lon="6.49772">
        <ele>2087</ele>
        <time>2022-07-28T09:00:42Z</time>
      </trkpt>
      <trkpt lat="45.65622" lon="6.49772">
        <ele>2087</ele>
        <time>2022-07-28T09:00:43Z</time>
      </trkpt>
      <trkpt lat="45.65623" lon="6.49773">
        <ele>2087</ele>
        <time>2022-07-28T09:00:44Z</time>
      </trkpt>
      <trkpt lat="45.65624" lon="6.49773">
        <ele>2087</ele>
        <time>2022-07-28T09:00:45Z</time>
      </trkpt>
      <trkpt lat="45.65624" lon="6.49773">
        <ele>2087</ele>
        <time>2022-07-28T09:00:46Z</time>
      </trkpt>
      <trkpt lat="45.65625" lon="6.49774">
        <ele>2087</ele>
        <time>2022-07-28T09:00:47Z</time>
      </trkpt>
      <trkpt lat="45.65626" lon="6.49774">
        <ele>2087</ele>
        <time>2022-07-28T09:00:48Z</time>
      </trkpt>
      <trkpt lat="45.65627" lon="6.49774">
        <ele>2087</ele>
        <time>2022-07-28T09:00:49Z</time>
      </trkpt>
      <trkpt lat="45.65628" lon="6.49774">
        <ele>2087</ele>
        <time>2022-07-28T09:00:50Z</time>
      </trkpt>
      <trkpt lat="45.65629" lon="6.49774">
        <ele>2087</ele>
        <time>2022-07-28T09:00:51Z</time>
      </trkpt>
      <trkpt lat="45.6563" lon="6.49775">
        <ele>2087</ele>
        <time>2022-07-28T09:00:52Z</time>
      </trkpt>
      <trkpt lat="45.65631" lon="6.49775">
        <ele>2087</ele>
        <time>2022-07-28T09:00:53Z</time>
      </trkpt>
      <trkpt lat="45.65632" lon="6.49775">
        <ele>2087</ele>
        <time>2022-07-28T09:00:54Z</time>
      </trkpt>
      <trkpt lat="45.65633" lon="6.49775">
        <ele>2087</ele>
        <time>2022-07-28T09:00:55Z</time>
      </trkpt>
      <trkpt lat="45.65634" lon="6.49775">
        <ele>2087</ele>
        <time>2022-07-28T09:00:56Z</time>
      </trkpt>
      <trkpt lat="45.65635" lon="6.49776">
        <ele>2087</ele>
        <time>2022-07-28T09:00:57Z</time>
      </trkpt>
      <trkpt lat="45.65636" lon="6.49776">
        <ele>2087</ele>
        <time>2022-07-28T09:00:58Z</time>
      </trkpt>
      <trkpt lat="45.65638" lon="6.49777">
        <ele>2087</ele>
        <time>2022-07-28T09:00:59Z</time>
      </trkpt>
      <trkpt lat="45.65638" lon="6.49777">
        <ele>2087</ele>
        <time>2022-07-28T09:01:00Z</time>
      </trkpt>
      <trkpt lat="45.65639" lon="6.49778">
        <ele>2087</ele>
        <time>2022-07-28T09:01:01Z</time>
      </trkpt>
      <trkpt lat="45.6564" lon="6.49778">
        <ele>2087</ele>
        <time>2022-07-28T09:01:02Z</time>
      </trkpt>
      <trkpt lat="45.65641" lon="6.49778">
        <ele>2087</ele>
        <time>2022-07-28T09:01:03Z</time>
      </trkpt>
      <trkpt lat="45.65642" lon="6.49778">
        <ele>2087</ele>
        <time>2022-07-28T09:01:04Z</time>
      </trkpt>
      <trkpt lat="45.65643" lon="6.49778">
        <ele>2087</ele>
        <time>2022-07-28T09:01:05Z</time>
      </trkpt>
      <trkpt lat="45.65644" lon="6.49778">
        <ele>2087</ele>
        <time>2022-07-28T09:01:06Z</time>
      </trkpt>
      <trkpt lat="45.65645" lon="6.49778">
        <ele>2087</ele>
        <time>2022-07-28T09:01:07Z</time>
      </trkpt>
      <trkpt lat="45.65646" lon="6.49778">
        <ele>2087</ele>
        <time>2022-07-28T09:01:08Z</time>
      </trkpt>
      <trkpt lat="45.65647" lon="6.49778">
        <ele>2087</ele>
        <time>2022-07-28T09:01:09Z</time>
      </trkpt>
      <trkpt lat="45.65648" lon="6.49778">
        <ele>2087</ele>
        <time>2022-07-28T09:01:10Z</time>
      </trkpt>
      <trkpt lat="45.65649" lon="6.49778">
        <ele>2087</ele>
        <time>2022-07-28T09:01:11Z</time>
      </trkpt>
      <trkpt lat="45.6565" lon="6.49778">
        <ele>2086</ele>
        <time>2022-07-28T09:01:12Z</time>
      </trkpt>
      <trkpt lat="45.65651" lon="6.49777">
        <ele>2086</ele>
        <time>2022-07-28T09:01:13Z</time>
      </trkpt>
      <trkpt lat="45.65652" lon="6.49777">
        <ele>2086</ele>
        <time>2022-07-28T09:01:14Z</time>
      </trkpt>
      <trkpt lat="45.65652" lon="6.49776">
        <ele>2086</ele>
        <time>2022-07-28T09:01:15Z</time>
      </trkpt>
      <trkpt lat="45.65653" lon="6.49775">
        <ele>2086</ele>
        <time>2022-07-28T09:01:16Z</time>
      </trkpt>
      <trkpt lat="45.65654" lon="6.49774">
        <ele>2086</ele>
        <time>2022-07-28T09:01:17Z</time>
      </trkpt>
      <trkpt lat="45.65654" lon="6.49773">
        <ele>2086</ele>
        <time>2022-07-28T09:01:18Z</time>
      </trkpt>
      <trkpt lat="45.65655" lon="6.49772">
        <ele>2086</ele>
        <time>2022-07-28T09:01:19Z</time>
      </trkpt>
      <trkpt lat="45.65655" lon="6.49771">
        <ele>2086</ele>
        <time>2022-07-28T09:01:20Z</time>
      </trkpt>
      <trkpt lat="45.65655" lon="6.49769">
        <ele>2086</ele>
        <time>2022-07-28T09:01:21Z</time>
      </trkpt>
      <trkpt lat="45.65656" lon="6.49768">
        <ele>2086</ele>
        <time>2022-07-28T09:01:22Z</time>
      </trkpt>
      <trkpt lat="45.65656" lon="6.49767">
        <ele>2086</ele>
        <time>2022-07-28T09:01:23Z</time>
      </trkpt>
      <trkpt lat="45.65657" lon="6.49766">
        <ele>2086</ele>
        <time>2022-07-28T09:01:24Z</time>
      </trkpt>
      <trkpt lat="45.65657" lon="6.49765">
        <ele>2086</ele>
        <time>2022-07-28T09:01:25Z</time>
      </trkpt>
      <trkpt lat="45.65658" lon="6.49765">
        <ele>2087</ele>
        <time>2022-07-28T09:01:26Z</time>
      </trkpt>
      <trkpt lat="45.65658" lon="6.49764">
        <ele>2087</ele>
        <time>2022-07-28T09:01:27Z</time>
      </trkpt>
      <trkpt lat="45.65659" lon="6.49763">
        <ele>2088</ele>
        <time>2022-07-28T09:01:28Z</time>
      </trkpt>
      <trkpt lat="45.65659" lon="6.49762">
        <ele>2088</ele>
        <time>2022-07-28T09:01:29Z</time>
      </trkpt>
      <trkpt lat="45.6566" lon="6.49762">
        <ele>2089</ele>
        <time>2022-07-28T09:01:30Z</time>
      </trkpt>
      <trkpt lat="45.6566" lon="6.49761">
        <ele>2090</ele>
        <time>2022-07-28T09:01:31Z</time>
      </trkpt>
      <trkpt lat="45.65662" lon="6.49759">
        <ele>2091</ele>
        <time>2022-07-28T09:02:42Z</time>
      </trkpt>
      <trkpt lat="45.65662" lon="6.49759">
        <ele>2091</ele>
        <time>2022-07-28T09:02:43Z</time>
      </trkpt>
      <trkpt lat="45.65663" lon="6.49758">
        <ele>2091</ele>
        <time>2022-07-28T09:02:44Z</time>
      </trkpt>
      <trkpt lat="45.65664" lon="6.49758">
        <ele>2091</ele>
        <time>2022-07-28T09:02:45Z</time>
      </trkpt>
      <trkpt lat="45.65665" lon="6.49758">
        <ele>2091</ele>
        <time>2022-07-28T09:02:46Z</time>
      </trkpt>
      <trkpt lat="45.65666" lon="6.49757">
        <ele>2091</ele>
        <time>2022-07-28T09:02:47Z</time>
      </trkpt>
      <trkpt lat="45.65667" lon="6.49757">
        <ele>2091</ele>
        <time>2022-07-28T09:02:48Z</time>
      </trkpt>
      <trkpt lat="45.65667" lon="6.49757">
        <ele>2091</ele>
        <time>2022-07-28T09:02:49Z</time>
      </trkpt>
      <trkpt lat="45.65668" lon="6.49757">
        <ele>2091</ele>
        <time>2022-07-28T09:02:50Z</time>
      </trkpt>
      <trkpt lat="45.65668" lon="6.49757">
        <ele>2091</ele>
        <time>2022-07-28T09:02:51Z</time>
      </trkpt>
      <trkpt lat="45.65669" lon="6.49757">
        <ele>2090</ele>
        <time>2022-07-28T09:02:52Z</time>
      </trkpt>
      <trkpt lat="45.6567" lon="6.49756">
        <ele>2090</ele>
        <time>2022-07-28T09:02:53Z</time>
      </trkpt>
      <trkpt lat="45.6567" lon="6.49756">
        <ele>2090</ele>
        <time>2022-07-28T09:02:54Z</time>
      </trkpt>
      <trkpt lat="45.65671" lon="6.49756">
        <ele>2090</ele>
        <time>2022-07-28T09:02:55Z</time>
      </trkpt>
      <trkpt lat="45.65672" lon="6.49756">
        <ele>2090</ele>
        <time>2022-07-28T09:02:56Z</time>
      </trkpt>
      <trkpt lat="45.65673" lon="6.49755">
        <ele>2089</ele>
        <time>2022-07-28T09:02:57Z</time>
      </trkpt>
      <trkpt lat="45.65674" lon="6.49755">
        <ele>2089</ele>
        <time>2022-07-28T09:02:58Z</time>
      </trkpt>
      <trkpt lat="45.65675" lon="6.49755">
        <ele>2088</ele>
        <time>2022-07-28T09:02:59Z</time>
      </trkpt>
      <trkpt lat="45.65676" lon="6.49755">
        <ele>2088</ele>
        <time>2022-07-28T09:03:00Z</time>
      </trkpt>
      <trkpt lat="45.65677" lon="6.49755">
        <ele>2088</ele>
        <time>2022-07-28T09:03:01Z</time>
      </trkpt>
      <trkpt lat="45.65679" lon="6.49755">
        <ele>2088</ele>
        <time>2022-07-28T09:03:02Z</time>
      </trkpt>
      <trkpt lat="45.6568" lon="6.49755">
        <ele>2088</ele>
        <time>2022-07-28T09:03:03Z</time>
      </trkpt>
      <trkpt lat="45.65681" lon="6.49755">
        <ele>2088</ele>
        <time>2022-07-28T09:03:04Z</time>
      </trkpt>
      <trkpt lat="45.65682" lon="6.49755">
        <ele>2088</ele>
        <time>2022-07-28T09:03:05Z</time>
      </trkpt>
      <trkpt lat="45.65683" lon="6.49754">
        <ele>2088</ele>
        <time>2022-07-28T09:03:06Z</time>
      </trkpt>
      <trkpt lat="45.65684" lon="6.49754">
        <ele>2087</ele>
        <time>2022-07-28T09:03:07Z</time>
      </trkpt>
      <trkpt lat="45.65685" lon="6.49754">
        <ele>2087</ele>
        <time>2022-07-28T09:03:08Z</time>
      </trkpt>
      <trkpt lat="45.65686" lon="6.49754">
        <ele>2087</ele>
        <time>2022-07-28T09:03:09Z</time>
      </trkpt>
      <trkpt lat="45.65687" lon="6.49755">
        <ele>2087</ele>
        <time>2022-07-28T09:03:10Z</time>
      </trkpt>
      <trkpt lat="45.65688" lon="6.49755">
        <ele>2087</ele>
        <time>2022-07-28T09:03:11Z</time>
      </trkpt>
      <trkpt lat="45.65689" lon="6.49755">
        <ele>2087</ele>
        <time>2022-07-28T09:03:12Z</time>
      </trkpt>
      <trkpt lat="45.65691" lon="6.49756">
        <ele>2087</ele>
        <time>2022-07-28T09:03:13Z</time>
      </trkpt>
      <trkpt lat="45.65692" lon="6.49756">
        <ele>2087</ele>
        <time>2022-07-28T09:03:14Z</time>
      </trkpt>
      <trkpt lat="45.65693" lon="6.49756">
        <ele>2087</ele>
        <time>2022-07-28T09:03:15Z</time>
      </trkpt>
      <trkpt lat="45.65694" lon="6.49756">
        <ele>2087</ele>
        <time>2022-07-28T09:03:16Z</time>
      </trkpt>
      <trkpt lat="45.65695" lon="6.49756">
        <ele>2087</ele>
        <time>2022-07-28T09:03:17Z</time>
      </trkpt>
      <trkpt lat="45.65696" lon="6.49756">
        <ele>2087</ele>
        <time>2022-07-28T09:03:18Z</time>
      </trkpt>
      <trkpt lat="45.65697" lon="6.49755">
        <ele>2087</ele>
        <time>2022-07-28T09:03:19Z</time>
      </trkpt>
      <trkpt lat="45.65697" lon="6.49754">
        <ele>2087</ele>
        <time>2022-07-28T09:03:20Z</time>
      </trkpt>
      <trkpt lat="45.65698" lon="6.49753">
        <ele>2087</ele>
        <time>2022-07-28T09:03:21Z</time>
      </trkpt>
      <trkpt lat="45.65699" lon="6.49751">
        <ele>2087</ele>
        <time>2022-07-28T09:03:22Z</time>
      </trkpt>
      <trkpt lat="45.657" lon="6.4975">
        <ele>2087</ele>
        <time>2022-07-28T09:03:23Z</time>
      </trkpt>
      <trkpt lat="45.657" lon="6.49749">
        <ele>2087</ele>
        <time>2022-07-28T09:03:24Z</time>
      </trkpt>
      <trkpt lat="45.65701" lon="6.49748">
        <ele>2087</ele>
        <time>2022-07-28T09:03:25Z</time>
      </trkpt>
      <trkpt lat="45.65701" lon="6.49747">
        <ele>2087</ele>
        <time>2022-07-28T09:03:26Z</time>
      </trkpt>
      <trkpt lat="45.65702" lon="6.49746">
        <ele>2087</ele>
        <time>2022-07-28T09:03:27Z</time>
      </trkpt>
      <trkpt lat="45.65702" lon="6.49745">
        <ele>2087</ele>
        <time>2022-07-28T09:03:28Z</time>
      </trkpt>
      <trkpt lat="45.65702" lon="6.49744">
        <ele>2087</ele>
        <time>2022-07-28T09:03:29Z</time>
      </trkpt>
      <trkpt lat="45.65702" lon="6.49743">
        <ele>2087</ele>
        <time>2022-07-28T09:03:30Z</time>
      </trkpt>
      <trkpt lat="45.65702" lon="6.49742">
        <ele>2088</ele>
        <time>2022-07-28T09:03:31Z</time>
      </trkpt>
      <trkpt lat="45.65702" lon="6.49741">
        <ele>2088</ele>
        <time>2022-07-28T09:03:32Z</time>
      </trkpt>
      <trkpt lat="45.65703" lon="6.4974">
        <ele>2088</ele>
        <time>2022-07-28T09:03:33Z</time>
      </trkpt>
      <trkpt lat="45.65703" lon="6.49739">
        <ele>2088</ele>
        <time>2022-07-28T09:03:34Z</time>
      </trkpt>
      <trkpt lat="45.65704" lon="6.49739">
        <ele>2088</ele>
        <time>2022-07-28T09:03:35Z</time>
      </trkpt>
      <trkpt lat="45.65704" lon="6.49738">
        <ele>2088</ele>
        <time>2022-07-28T09:03:36Z</time>
      </trkpt>
      <trkpt lat="45.65705" lon="6.49738">
        <ele>2088</ele>
        <time>2022-07-28T09:03:37Z</time>
      </trkpt>
      <trkpt lat="45.65705" lon="6.49737">
        <ele>2088</ele>
        <time>2022-07-28T09:03:38Z</time>
      </trkpt>
      <trkpt lat="45.65706" lon="6.49737">
        <ele>2089</ele>
        <time>2022-07-28T09:03:39Z</time>
      </trkpt>
      <trkpt lat="45.65706" lon="6.49737">
        <ele>2089</ele>
        <time>2022-07-28T09:03:40Z</time>
      </trkpt>
      <trkpt lat="45.65706" lon="6.49737">
        <ele>2090</ele>
        <time>2022-07-28T09:03:41Z</time>
      </trkpt>
      <trkpt lat="45.65706" lon="6.49737">
        <ele>2090</ele>
        <time>2022-07-28T09:03:42Z</time>
      </trkpt>
      <trkpt lat="45.65707" lon="6.49737">
        <ele>2090</ele>
        <time>2022-07-28T09:03:43Z</time>
      </trkpt>
      <trkpt lat="45.65707" lon="6.49737">
        <ele>2090</ele>
        <time>2022-07-28T09:03:44Z</time>
      </trkpt>
      <trkpt lat="45.65708" lon="6.49737">
        <ele>2090</ele>
        <time>2022-07-28T09:03:45Z</time>
      </trkpt>
      <trkpt lat="45.65708" lon="6.49737">
        <ele>2090</ele>
        <time>2022-07-28T09:03:46Z</time>
      </trkpt>
      <trkpt lat="45.65709" lon="6.49737">
        <ele>2090</ele>
        <time>2022-07-28T09:03:47Z</time>
      </trkpt>
      <trkpt lat="45.6571" lon="6.49737">
        <ele>2090</ele>
        <time>2022-07-28T09:03:48Z</time>
      </trkpt>
      <trkpt lat="45.65711" lon="6.49737">
        <ele>2090</ele>
        <time>2022-07-28T09:03:49Z</time>
      </trkpt>
      <trkpt lat="45.65712" lon="6.49737">
        <ele>2090</ele>
        <time>2022-07-28T09:03:50Z</time>
      </trkpt>
      <trkpt lat="45.65714" lon="6.49737">
        <ele>2090</ele>
        <time>2022-07-28T09:03:51Z</time>
      </trkpt>
      <trkpt lat="45.65715" lon="6.49737">
        <ele>2089</ele>
        <time>2022-07-28T09:03:52Z</time>
      </trkpt>
      <trkpt lat="45.65716" lon="6.49738">
        <ele>2089</ele>
        <time>2022-07-28T09:03:53Z</time>
      </trkpt>
      <trkpt lat="45.65717" lon="6.49739">
        <ele>2088</ele>
        <time>2022-07-28T09:03:54Z</time>
      </trkpt>
      <trkpt lat="45.65718" lon="6.49739">
        <ele>2088</ele>
        <time>2022-07-28T09:03:55Z</time>
      </trkpt>
      <trkpt lat="45.6572" lon="6.4974">
        <ele>2088</ele>
        <time>2022-07-28T09:03:56Z</time>
      </trkpt>
      <trkpt lat="45.65721" lon="6.49741">
        <ele>2088</ele>
        <time>2022-07-28T09:03:57Z</time>
      </trkpt>
      <trkpt lat="45.65722" lon="6.49742">
        <ele>2088</ele>
        <time>2022-07-28T09:03:58Z</time>
      </trkpt>
      <trkpt lat="45.65723" lon="6.49742">
        <ele>2088</ele>
        <time>2022-07-28T09:03:59Z</time>
      </trkpt>
      <trkpt lat="45.65724" lon="6.49743">
        <ele>2088</ele>
        <time>2022-07-28T09:04:00Z</time>
      </trkpt>
      <trkpt lat="45.65726" lon="6.49743">
        <ele>2088</ele>
        <time>2022-07-28T09:04:01Z</time>
      </trkpt>
      <trkpt lat="45.65727" lon="6.49744">
        <ele>2087</ele>
        <time>2022-07-28T09:04:02Z</time>
      </trkpt>
      <trkpt lat="45.65728" lon="6.49744">
        <ele>2087</ele>
        <time>2022-07-28T09:04:03Z</time>
      </trkpt>
      <trkpt lat="45.65729" lon="6.49744">
        <ele>2087</ele>
        <time>2022-07-28T09:04:04Z</time>
      </trkpt>
      <trkpt lat="45.6573" lon="6.49743">
        <ele>2087</ele>
        <time>2022-07-28T09:04:05Z</time>
      </trkpt>
      <trkpt lat="45.65731" lon="6.49743">
        <ele>2087</ele>
        <time>2022-07-28T09:04:06Z</time>
      </trkpt>
      <trkpt lat="45.65733" lon="6.49743">
        <ele>2087</ele>
        <time>2022-07-28T09:04:07Z</time>
      </trkpt>
      <trkpt lat="45.65734" lon="6.49743">
        <ele>2087</ele>
        <time>2022-07-28T09:04:08Z</time>
      </trkpt>
      <trkpt lat="45.65735" lon="6.49743">
        <ele>2087</ele>
        <time>2022-07-28T09:04:09Z</time>
      </trkpt>
      <trkpt lat="45.65736" lon="6.49743">
        <ele>2087</ele>
        <time>2022-07-28T09:04:10Z</time>
      </trkpt>
      <trkpt lat="45.65737" lon="6.49742">
        <ele>2087</ele>
        <time>2022-07-28T09:04:11Z</time>
      </trkpt>
      <trkpt lat="45.65738" lon="6.49742">
        <ele>2087</ele>
        <time>2022-07-28T09:04:12Z</time>
      </trkpt>
      <trkpt lat="45.65739" lon="6.49742">
        <ele>2087</ele>
        <time>2022-07-28T09:04:13Z</time>
      </trkpt>
      <trkpt lat="45.65741" lon="6.49742">
        <ele>2087</ele>
        <time>2022-07-28T09:04:14Z</time>
      </trkpt>
      <trkpt lat="45.65742" lon="6.49742">
        <ele>2087</ele>
        <time>2022-07-28T09:04:15Z</time>
      </trkpt>
      <trkpt lat="45.65743" lon="6.49742">
        <ele>2087</ele>
        <time>2022-07-28T09:04:16Z</time>
      </trkpt>
      <trkpt lat="45.65744" lon="6.49741">
        <ele>2086</ele>
        <time>2022-07-28T09:04:17Z</time>
      </trkpt>
      <trkpt lat="45.65745" lon="6.49741">
        <ele>2086</ele>
        <time>2022-07-28T09:04:18Z</time>
      </trkpt>
      <trkpt lat="45.65746" lon="6.4974">
        <ele>2086</ele>
        <time>2022-07-28T09:04:19Z</time>
      </trkpt>
      <trkpt lat="45.65747" lon="6.4974">
        <ele>2086</ele>
        <time>2022-07-28T09:04:20Z</time>
      </trkpt>
      <trkpt lat="45.65748" lon="6.49739">
        <ele>2086</ele>
        <time>2022-07-28T09:04:21Z</time>
      </trkpt>
      <trkpt lat="45.65749" lon="6.49738">
        <ele>2086</ele>
        <time>2022-07-28T09:04:22Z</time>
      </trkpt>
      <trkpt lat="45.65751" lon="6.49738">
        <ele>2086</ele>
        <time>2022-07-28T09:04:23Z</time>
      </trkpt>
      <trkpt lat="45.65752" lon="6.49738">
        <ele>2086</ele>
        <time>2022-07-28T09:04:24Z</time>
      </trkpt>
      <trkpt lat="45.65753" lon="6.49738">
        <ele>2086</ele>
        <time>2022-07-28T09:04:25Z</time>
      </trkpt>
      <trkpt lat="45.65754" lon="6.49738">
        <ele>2086</ele>
        <time>2022-07-28T09:04:26Z</time>
      </trkpt>
      <trkpt lat="45.65755" lon="6.49739">
        <ele>2086</ele>
        <time>2022-07-28T09:04:27Z</time>
      </trkpt>
      <trkpt lat="45.65756" lon="6.49739">
        <ele>2086</ele>
        <time>2022-07-28T09:04:28Z</time>
      </trkpt>
      <trkpt lat="45.65758" lon="6.49739">
        <ele>2085</ele>
        <time>2022-07-28T09:04:38Z</time>
      </trkpt>
      <trkpt lat="45.65758" lon="6.49739">
        <ele>2085</ele>
        <time>2022-07-28T09:04:39Z</time>
      </trkpt>
      <trkpt lat="45.65759" lon="6.49739">
        <ele>2085</ele>
        <time>2022-07-28T09:04:40Z</time>
      </trkpt>
      <trkpt lat="45.6576" lon="6.49739">
        <ele>2085</ele>
        <time>2022-07-28T09:04:41Z</time>
      </trkpt>
      <trkpt lat="45.6576" lon="6.49739">
        <ele>2084</ele>
        <time>2022-07-28T09:04:42Z</time>
      </trkpt>
      <trkpt lat="45.65761" lon="6.4974">
        <ele>2084</ele>
        <time>2022-07-28T09:04:43Z</time>
      </trkpt>
      <trkpt lat="45.65762" lon="6.49741">
        <ele>2084</ele>
        <time>2022-07-28T09:04:44Z</time>
      </trkpt>
      <trkpt lat="45.65762" lon="6.49742">
        <ele>2084</ele>
        <time>2022-07-28T09:04:45Z</time>
      </trkpt>
      <trkpt lat="45.65763" lon="6.49742">
        <ele>2084</ele>
        <time>2022-07-28T09:04:46Z</time>
      </trkpt>
      <trkpt lat="45.65764" lon="6.49743">
        <ele>2084</ele>
        <time>2022-07-28T09:04:47Z</time>
      </trkpt>
      <trkpt lat="45.65764" lon="6.49743">
        <ele>2084</ele>
        <time>2022-07-28T09:04:48Z</time>
      </trkpt>
      <trkpt lat="45.65765" lon="6.49743">
        <ele>2084</ele>
        <time>2022-07-28T09:04:49Z</time>
      </trkpt>
      <trkpt lat="45.65765" lon="6.49743">
        <ele>2084</ele>
        <time>2022-07-28T09:04:50Z</time>
      </trkpt>
      <trkpt lat="45.65766" lon="6.49743">
        <ele>2084</ele>
        <time>2022-07-28T09:04:51Z</time>
      </trkpt>
      <trkpt lat="45.65766" lon="6.49743">
        <ele>2083</ele>
        <time>2022-07-28T09:04:52Z</time>
      </trkpt>
      <trkpt lat="45.65767" lon="6.49743">
        <ele>2083</ele>
        <time>2022-07-28T09:04:53Z</time>
      </trkpt>
      <trkpt lat="45.65768" lon="6.49742">
        <ele>2083</ele>
        <time>2022-07-28T09:04:54Z</time>
      </trkpt>
      <trkpt lat="45.65768" lon="6.49741">
        <ele>2083</ele>
        <time>2022-07-28T09:04:55Z</time>
      </trkpt>
      <trkpt lat="45.65769" lon="6.49741">
        <ele>2083</ele>
        <time>2022-07-28T09:04:56Z</time>
      </trkpt>
      <trkpt lat="45.65769" lon="6.4974">
        <ele>2083</ele>
        <time>2022-07-28T09:04:57Z</time>
      </trkpt>
      <trkpt lat="45.6577" lon="6.4974">
        <ele>2083</ele>
        <time>2022-07-28T09:04:58Z</time>
      </trkpt>
      <trkpt lat="45.6577" lon="6.49739">
        <ele>2083</ele>
        <time>2022-07-28T09:04:59Z</time>
      </trkpt>
      <trkpt lat="45.65771" lon="6.49739">
        <ele>2083</ele>
        <time>2022-07-28T09:05:00Z</time>
      </trkpt>
      <trkpt lat="45.65772" lon="6.49738">
        <ele>2083</ele>
        <time>2022-07-28T09:05:01Z</time>
      </trkpt>
      <trkpt lat="45.65772" lon="6.49738">
        <ele>2083</ele>
        <time>2022-07-28T09:05:02Z</time>
      </trkpt>
      <trkpt lat="45.65773" lon="6.49737">
        <ele>2083</ele>
        <time>2022-07-28T09:05:03Z</time>
      </trkpt>
      <trkpt lat="45.65773" lon="6.49737">
        <ele>2083</ele>
        <time>2022-07-28T09:05:04Z</time>
      </trkpt>
      <trkpt lat="45.65774" lon="6.49736">
        <ele>2083</ele>
        <time>2022-07-28T09:05:05Z</time>
      </trkpt>
      <trkpt lat="45.65774" lon="6.49736">
        <ele>2084</ele>
        <time>2022-07-28T09:05:06Z</time>
      </trkpt>
      <trkpt lat="45.65775" lon="6.49735">
        <ele>2084</ele>
        <time>2022-07-28T09:05:07Z</time>
      </trkpt>
      <trkpt lat="45.65775" lon="6.49735">
        <ele>2084</ele>
        <time>2022-07-28T09:05:08Z</time>
      </trkpt>
      <trkpt lat="45.65776" lon="6.49734">
        <ele>2084</ele>
        <time>2022-07-28T09:05:09Z</time>
      </trkpt>
      <trkpt lat="45.65777" lon="6.49734">
        <ele>2084</ele>
        <time>2022-07-28T09:05:10Z</time>
      </trkpt>
      <trkpt lat="45.65777" lon="6.49734">
        <ele>2085</ele>
        <time>2022-07-28T09:05:11Z</time>
      </trkpt>
      <trkpt lat="45.65778" lon="6.49734">
        <ele>2085</ele>
        <time>2022-07-28T09:05:12Z</time>
      </trkpt>
      <trkpt lat="45.65778" lon="6.49733">
        <ele>2085</ele>
        <time>2022-07-28T09:05:13Z</time>
      </trkpt>
      <trkpt lat="45.65778" lon="6.49733">
        <ele>2085</ele>
        <time>2022-07-28T09:05:14Z</time>
      </trkpt>
      <trkpt lat="45.65779" lon="6.49732">
        <ele>2085</ele>
        <time>2022-07-28T09:05:15Z</time>
      </trkpt>
      <trkpt lat="45.65779" lon="6.49731">
        <ele>2085</ele>
        <time>2022-07-28T09:05:16Z</time>
      </trkpt>
      <trkpt lat="45.6578" lon="6.4973">
        <ele>2085</ele>
        <time>2022-07-28T09:05:17Z</time>
      </trkpt>
      <trkpt lat="45.6578" lon="6.4973">
        <ele>2085</ele>
        <time>2022-07-28T09:05:18Z</time>
      </trkpt>
      <trkpt lat="45.65781" lon="6.49729">
        <ele>2085</ele>
        <time>2022-07-28T09:05:19Z</time>
      </trkpt>
      <trkpt lat="45.65781" lon="6.49729">
        <ele>2085</ele>
        <time>2022-07-28T09:05:20Z</time>
      </trkpt>
      <trkpt lat="45.65781" lon="6.49729">
        <ele>2086</ele>
        <time>2022-07-28T09:05:21Z</time>
      </trkpt>
      <trkpt lat="45.65782" lon="6.49729">
        <ele>2086</ele>
        <time>2022-07-28T09:05:22Z</time>
      </trkpt>
      <trkpt lat="45.65782" lon="6.49729">
        <ele>2086</ele>
        <time>2022-07-28T09:05:23Z</time>
      </trkpt>
      <trkpt lat="45.65783" lon="6.49729">
        <ele>2086</ele>
        <time>2022-07-28T09:05:24Z</time>
      </trkpt>
      <trkpt lat="45.65783" lon="6.4973">
        <ele>2086</ele>
        <time>2022-07-28T09:05:25Z</time>
      </trkpt>
      <trkpt lat="45.65784" lon="6.4973">
        <ele>2087</ele>
        <time>2022-07-28T09:05:26Z</time>
      </trkpt>
      <trkpt lat="45.65784" lon="6.4973">
        <ele>2087</ele>
        <time>2022-07-28T09:05:27Z</time>
      </trkpt>
      <trkpt lat="45.65785" lon="6.49731">
        <ele>2087</ele>
        <time>2022-07-28T09:05:28Z</time>
      </trkpt>
      <trkpt lat="45.65785" lon="6.49731">
        <ele>2087</ele>
        <time>2022-07-28T09:05:29Z</time>
      </trkpt>
      <trkpt lat="45.65785" lon="6.49731">
        <ele>2087</ele>
        <time>2022-07-28T09:05:30Z</time>
      </trkpt>
      <trkpt lat="45.65785" lon="6.49731">
        <ele>2088</ele>
        <time>2022-07-28T09:05:31Z</time>
      </trkpt>
      <trkpt lat="45.65785" lon="6.49731">
        <ele>2088</ele>
        <time>2022-07-28T09:05:32Z</time>
      </trkpt>
      <trkpt lat="45.65786" lon="6.49731">
        <ele>2088</ele>
        <time>2022-07-28T09:05:33Z</time>
      </trkpt>
      <trkpt lat="45.65786" lon="6.4973">
        <ele>2089</ele>
        <time>2022-07-28T09:05:34Z</time>
      </trkpt>
      <trkpt lat="45.65787" lon="6.4973">
        <ele>2089</ele>
        <time>2022-07-28T09:05:35Z</time>
      </trkpt>
      <trkpt lat="45.65787" lon="6.4973">
        <ele>2090</ele>
        <time>2022-07-28T09:05:36Z</time>
      </trkpt>
      <trkpt lat="45.65788" lon="6.4973">
        <ele>2090</ele>
        <time>2022-07-28T09:05:37Z</time>
      </trkpt>
      <trkpt lat="45.65789" lon="6.4973">
        <ele>2090</ele>
        <time>2022-07-28T09:05:38Z</time>
      </trkpt>
      <trkpt lat="45.65789" lon="6.49729">
        <ele>2090</ele>
        <time>2022-07-28T09:05:39Z</time>
      </trkpt>
      <trkpt lat="45.6579" lon="6.49729">
        <ele>2090</ele>
        <time>2022-07-28T09:05:40Z</time>
      </trkpt>
      <trkpt lat="45.65791" lon="6.49729">
        <ele>2091</ele>
        <time>2022-07-28T09:05:41Z</time>
      </trkpt>
      <trkpt lat="45.65792" lon="6.49729">
        <ele>2091</ele>
        <time>2022-07-28T09:05:42Z</time>
      </trkpt>
      <trkpt lat="45.65792" lon="6.49729">
        <ele>2091</ele>
        <time>2022-07-28T09:05:43Z</time>
      </trkpt>
      <trkpt lat="45.65793" lon="6.4973">
        <ele>2091</ele>
        <time>2022-07-28T09:05:44Z</time>
      </trkpt>
      <trkpt lat="45.65794" lon="6.4973">
        <ele>2091</ele>
        <time>2022-07-28T09:05:45Z</time>
      </trkpt>
      <trkpt lat="45.65795" lon="6.4973">
        <ele>2092</ele>
        <time>2022-07-28T09:05:46Z</time>
      </trkpt>
      <trkpt lat="45.65795" lon="6.49731">
        <ele>2092</ele>
        <time>2022-07-28T09:05:47Z</time>
      </trkpt>
      <trkpt lat="45.65796" lon="6.49731">
        <ele>2092</ele>
        <time>2022-07-28T09:05:48Z</time>
      </trkpt>
      <trkpt lat="45.65797" lon="6.49731">
        <ele>2092</ele>
        <time>2022-07-28T09:05:49Z</time>
      </trkpt>
      <trkpt lat="45.65798" lon="6.49732">
        <ele>2092</ele>
        <time>2022-07-28T09:05:50Z</time>
      </trkpt>
      <trkpt lat="45.65799" lon="6.49732">
        <ele>2092</ele>
        <time>2022-07-28T09:05:51Z</time>
      </trkpt>
      <trkpt lat="45.65799" lon="6.49732">
        <ele>2092</ele>
        <time>2022-07-28T09:05:52Z</time>
      </trkpt>
      <trkpt lat="45.658" lon="6.49732">
        <ele>2092</ele>
        <time>2022-07-28T09:05:53Z</time>
      </trkpt>
      <trkpt lat="45.65801" lon="6.49732">
        <ele>2092</ele>
        <time>2022-07-28T09:05:54Z</time>
      </trkpt>
      <trkpt lat="45.65802" lon="6.49732">
        <ele>2092</ele>
        <time>2022-07-28T09:05:55Z</time>
      </trkpt>
      <trkpt lat="45.65803" lon="6.49732">
        <ele>2093</ele>
        <time>2022-07-28T09:05:56Z</time>
      </trkpt>
      <trkpt lat="45.65804" lon="6.49732">
        <ele>2093</ele>
        <time>2022-07-28T09:05:57Z</time>
      </trkpt>
      <trkpt lat="45.65804" lon="6.49732">
        <ele>2093</ele>
        <time>2022-07-28T09:05:58Z</time>
      </trkpt>
      <trkpt lat="45.65805" lon="6.49732">
        <ele>2093</ele>
        <time>2022-07-28T09:05:59Z</time>
      </trkpt>
      <trkpt lat="45.65806" lon="6.49732">
        <ele>2093</ele>
        <time>2022-07-28T09:06:00Z</time>
      </trkpt>
      <trkpt lat="45.65807" lon="6.49732">
        <ele>2094</ele>
        <time>2022-07-28T09:06:01Z</time>
      </trkpt>
      <trkpt lat="45.65808" lon="6.49731">
        <ele>2094</ele>
        <time>2022-07-28T09:06:02Z</time>
      </trkpt>
      <trkpt lat="45.65809" lon="6.49731">
        <ele>2094</ele>
        <time>2022-07-28T09:06:03Z</time>
      </trkpt>
      <trkpt lat="45.6581" lon="6.49731">
        <ele>2094</ele>
        <time>2022-07-28T09:06:04Z</time>
      </trkpt>
      <trkpt lat="45.6581" lon="6.4973">
        <ele>2094</ele>
        <time>2022-07-28T09:06:05Z</time>
      </trkpt>
      <trkpt lat="45.65811" lon="6.4973">
        <ele>2094</ele>
        <time>2022-07-28T09:06:06Z</time>
      </trkpt>
      <trkpt lat="45.65812" lon="6.49729">
        <ele>2094</ele>
        <time>2022-07-28T09:06:07Z</time>
      </trkpt>
      <trkpt lat="45.65813" lon="6.49729">
        <ele>2094</ele>
        <time>2022-07-28T09:06:08Z</time>
      </trkpt>
      <trkpt lat="45.65813" lon="6.49728">
        <ele>2094</ele>
        <time>2022-07-28T09:06:09Z</time>
      </trkpt>
      <trkpt lat="45.65814" lon="6.49728">
        <ele>2094</ele>
        <time>2022-07-28T09:06:10Z</time>
      </trkpt>
      <trkpt lat="45.65815" lon="6.49727">
        <ele>2095</ele>
        <time>2022-07-28T09:06:11Z</time>
      </trkpt>
      <trkpt lat="45.65815" lon="6.49727">
        <ele>2095</ele>
        <time>2022-07-28T09:06:12Z</time>
      </trkpt>
      <trkpt lat="45.65816" lon="6.49726">
        <ele>2095</ele>
        <time>2022-07-28T09:06:13Z</time>
      </trkpt>
      <trkpt lat="45.65817" lon="6.49726">
        <ele>2095</ele>
        <time>2022-07-28T09:06:14Z</time>
      </trkpt>
      <trkpt lat="45.65818" lon="6.49726">
        <ele>2095</ele>
        <time>2022-07-28T09:06:15Z</time>
      </trkpt>
      <trkpt lat="45.65818" lon="6.49726">
        <ele>2096</ele>
        <time>2022-07-28T09:06:16Z</time>
      </trkpt>
      <trkpt lat="45.65819" lon="6.49727">
        <ele>2096</ele>
        <time>2022-07-28T09:06:17Z</time>
      </trkpt>
      <trkpt lat="45.6582" lon="6.49727">
        <ele>2096</ele>
        <time>2022-07-28T09:06:18Z</time>
      </trkpt>
      <trkpt lat="45.6582" lon="6.49727">
        <ele>2096</ele>
        <time>2022-07-28T09:06:19Z</time>
      </trkpt>
      <trkpt lat="45.65821" lon="6.49728">
        <ele>2097</ele>
        <time>2022-07-28T09:06:30Z</time>
      </trkpt>
      <trkpt lat="45.65821" lon="6.49728">
        <ele>2097</ele>
        <time>2022-07-28T09:06:31Z</time>
      </trkpt>
      <trkpt lat="45.65822" lon="6.49728">
        <ele>2097</ele>
        <time>2022-07-28T09:06:32Z</time>
      </trkpt>
      <trkpt lat="45.65822" lon="6.49728">
        <ele>2097</ele>
        <time>2022-07-28T09:06:33Z</time>
      </trkpt>
      <trkpt lat="45.65823" lon="6.49728">
        <ele>2097</ele>
        <time>2022-07-28T09:06:34Z</time>
      </trkpt>
      <trkpt lat="45.65823" lon="6.49729">
        <ele>2097</ele>
        <time>2022-07-28T09:06:35Z</time>
      </trkpt>
      <trkpt lat="45.65824" lon="6.49729">
        <ele>2098</ele>
        <time>2022-07-28T09:06:36Z</time>
      </trkpt>
      <trkpt lat="45.65825" lon="6.4973">
        <ele>2098</ele>
        <time>2022-07-28T09:06:37Z</time>
      </trkpt>
      <trkpt lat="45.65826" lon="6.4973">
        <ele>2098</ele>
        <time>2022-07-28T09:06:38Z</time>
      </trkpt>
      <trkpt lat="45.65827" lon="6.49731">
        <ele>2098</ele>
        <time>2022-07-28T09:06:39Z</time>
      </trkpt>
      <trkpt lat="45.65827" lon="6.49731">
        <ele>2098</ele>
        <time>2022-07-28T09:06:40Z</time>
      </trkpt>
      <trkpt lat="45.65828" lon="6.49732">
        <ele>2098</ele>
        <time>2022-07-28T09:06:41Z</time>
      </trkpt>
      <trkpt lat="45.65829" lon="6.49732">
        <ele>2098</ele>
        <time>2022-07-28T09:06:42Z</time>
      </trkpt>
      <trkpt lat="45.65829" lon="6.49732">
        <ele>2098</ele>
        <time>2022-07-28T09:06:43Z</time>
      </trkpt>
      <trkpt lat="45.6583" lon="6.49733">
        <ele>2098</ele>
        <time>2022-07-28T09:06:44Z</time>
      </trkpt>
      <trkpt lat="45.65831" lon="6.49733">
        <ele>2098</ele>
        <time>2022-07-28T09:06:45Z</time>
      </trkpt>
      <trkpt lat="45.65831" lon="6.49734">
        <ele>2099</ele>
        <time>2022-07-28T09:06:46Z</time>
      </trkpt>
      <trkpt lat="45.65832" lon="6.49734">
        <ele>2099</ele>
        <time>2022-07-28T09:06:47Z</time>
      </trkpt>
      <trkpt lat="45.65832" lon="6.49734">
        <ele>2099</ele>
        <time>2022-07-28T09:06:48Z</time>
      </trkpt>
      <trkpt lat="45.65832" lon="6.49734">
        <ele>2099</ele>
        <time>2022-07-28T09:06:49Z</time>
      </trkpt>
      <trkpt lat="45.65832" lon="6.49735">
        <ele>2099</ele>
        <time>2022-07-28T09:06:50Z</time>
      </trkpt>
      <trkpt lat="45.65833" lon="6.49735">
        <ele>2100</ele>
        <time>2022-07-28T09:06:51Z</time>
      </trkpt>
      <trkpt lat="45.65833" lon="6.49735">
        <ele>2100</ele>
        <time>2022-07-28T09:06:52Z</time>
      </trkpt>
      <trkpt lat="45.65834" lon="6.49736">
        <ele>2100</ele>
        <time>2022-07-28T09:06:53Z</time>
      </trkpt>
      <trkpt lat="45.65834" lon="6.49736">
        <ele>2100</ele>
        <time>2022-07-28T09:06:54Z</time>
      </trkpt>
      <trkpt lat="45.65835" lon="6.49736">
        <ele>2100</ele>
        <time>2022-07-28T09:06:55Z</time>
      </trkpt>
      <trkpt lat="45.65835" lon="6.49736">
        <ele>2100</ele>
        <time>2022-07-28T09:06:56Z</time>
      </trkpt>
      <trkpt lat="45.65836" lon="6.49736">
        <ele>2100</ele>
        <time>2022-07-28T09:06:57Z</time>
      </trkpt>
      <trkpt lat="45.65837" lon="6.49735">
        <ele>2100</ele>
        <time>2022-07-28T09:06:58Z</time>
      </trkpt>
      <trkpt lat="45.65838" lon="6.49734">
        <ele>2100</ele>
        <time>2022-07-28T09:06:59Z</time>
      </trkpt>
      <trkpt lat="45.65839" lon="6.49734">
        <ele>2100</ele>
        <time>2022-07-28T09:07:00Z</time>
      </trkpt>
      <trkpt lat="45.6584" lon="6.49733">
        <ele>2101</ele>
        <time>2022-07-28T09:07:01Z</time>
      </trkpt>
      <trkpt lat="45.6584" lon="6.49732">
        <ele>2101</ele>
        <time>2022-07-28T09:07:02Z</time>
      </trkpt>
      <trkpt lat="45.65841" lon="6.49732">
        <ele>2101</ele>
        <time>2022-07-28T09:07:03Z</time>
      </trkpt>
      <trkpt lat="45.65842" lon="6.49731">
        <ele>2101</ele>
        <time>2022-07-28T09:07:04Z</time>
      </trkpt>
      <trkpt lat="45.65843" lon="6.49731">
        <ele>2101</ele>
        <time>2022-07-28T09:07:05Z</time>
      </trkpt>
      <trkpt lat="45.65844" lon="6.49731">
        <ele>2102</ele>
        <time>2022-07-28T09:07:06Z</time>
      </trkpt>
      <trkpt lat="45.65845" lon="6.4973">
        <ele>2102</ele>
        <time>2022-07-28T09:07:07Z</time>
      </trkpt>
      <trkpt lat="45.65846" lon="6.4973">
        <ele>2102</ele>
        <time>2022-07-28T09:07:08Z</time>
      </trkpt>
      <trkpt lat="45.65846" lon="6.4973">
        <ele>2102</ele>
        <time>2022-07-28T09:07:09Z</time>
      </trkpt>
      <trkpt lat="45.65847" lon="6.4973">
        <ele>2102</ele>
        <time>2022-07-28T09:07:10Z</time>
      </trkpt>
      <trkpt lat="45.65848" lon="6.4973">
        <ele>2102</ele>
        <time>2022-07-28T09:07:11Z</time>
      </trkpt>
      <trkpt lat="45.65849" lon="6.4973">
        <ele>2102</ele>
        <time>2022-07-28T09:07:12Z</time>
      </trkpt>
      <trkpt lat="45.6585" lon="6.49731">
        <ele>2102</ele>
        <time>2022-07-28T09:07:13Z</time>
      </trkpt>
      <trkpt lat="45.65851" lon="6.49731">
        <ele>2102</ele>
        <time>2022-07-28T09:07:14Z</time>
      </trkpt>
      <trkpt lat="45.65852" lon="6.49731">
        <ele>2102</ele>
        <time>2022-07-28T09:07:15Z</time>
      </trkpt>
      <trkpt lat="45.65852" lon="6.49731">
        <ele>2103</ele>
        <time>2022-07-28T09:07:16Z</time>
      </trkpt>
      <trkpt lat="45.65853" lon="6.49731">
        <ele>2103</ele>
        <time>2022-07-28T09:07:17Z</time>
      </trkpt>
      <trkpt lat="45.65854" lon="6.4973">
        <ele>2103</ele>
        <time>2022-07-28T09:07:18Z</time>
      </trkpt>
      <trkpt lat="45.65855" lon="6.4973">
        <ele>2103</ele>
        <time>2022-07-28T09:07:19Z</time>
      </trkpt>
      <trkpt lat="45.65855" lon="6.4973">
        <ele>2103</ele>
        <time>2022-07-28T09:07:20Z</time>
      </trkpt>
      <trkpt lat="45.65856" lon="6.4973">
        <ele>2104</ele>
        <time>2022-07-28T09:07:21Z</time>
      </trkpt>
      <trkpt lat="45.65857" lon="6.4973">
        <ele>2104</ele>
        <time>2022-07-28T09:07:22Z</time>
      </trkpt>
      <trkpt lat="45.65858" lon="6.49729">
        <ele>2104</ele>
        <time>2022-07-28T09:07:23Z</time>
      </trkpt>
      <trkpt lat="45.65859" lon="6.49729">
        <ele>2104</ele>
        <time>2022-07-28T09:07:24Z</time>
      </trkpt>
      <trkpt lat="45.6586" lon="6.49729">
        <ele>2104</ele>
        <time>2022-07-28T09:07:25Z</time>
      </trkpt>
      <trkpt lat="45.6586" lon="6.49728">
        <ele>2104</ele>
        <time>2022-07-28T09:07:26Z</time>
      </trkpt>
      <trkpt lat="45.65861" lon="6.49728">
        <ele>2104</ele>
        <time>2022-07-28T09:07:27Z</time>
      </trkpt>
      <trkpt lat="45.65862" lon="6.49728">
        <ele>2104</ele>
        <time>2022-07-28T09:07:28Z</time>
      </trkpt>
      <trkpt lat="45.65862" lon="6.49728">
        <ele>2104</ele>
        <time>2022-07-28T09:07:29Z</time>
      </trkpt>
      <trkpt lat="45.65863" lon="6.49727">
        <ele>2104</ele>
        <time>2022-07-28T09:07:30Z</time>
      </trkpt>
      <trkpt lat="45.65864" lon="6.49727">
        <ele>2105</ele>
        <time>2022-07-28T09:07:31Z</time>
      </trkpt>
      <trkpt lat="45.65864" lon="6.49727">
        <ele>2105</ele>
        <time>2022-07-28T09:07:32Z</time>
      </trkpt>
      <trkpt lat="45.65865" lon="6.49726">
        <ele>2105</ele>
        <time>2022-07-28T09:07:33Z</time>
      </trkpt>
      <trkpt lat="45.65866" lon="6.49726">
        <ele>2105</ele>
        <time>2022-07-28T09:07:34Z</time>
      </trkpt>
      <trkpt lat="45.65867" lon="6.49725">
        <ele>2105</ele>
        <time>2022-07-28T09:07:35Z</time>
      </trkpt>
      <trkpt lat="45.65867" lon="6.49725">
        <ele>2106</ele>
        <time>2022-07-28T09:07:36Z</time>
      </trkpt>
      <trkpt lat="45.65868" lon="6.49724">
        <ele>2106</ele>
        <time>2022-07-28T09:07:37Z</time>
      </trkpt>
      <trkpt lat="45.65869" lon="6.49724">
        <ele>2106</ele>
        <time>2022-07-28T09:07:38Z</time>
      </trkpt>
      <trkpt lat="45.6587" lon="6.49723">
        <ele>2106</ele>
        <time>2022-07-28T09:07:39Z</time>
      </trkpt>
      <trkpt lat="45.65871" lon="6.49723">
        <ele>2106</ele>
        <time>2022-07-28T09:07:40Z</time>
      </trkpt>
      <trkpt lat="45.65871" lon="6.49722">
        <ele>2106</ele>
        <time>2022-07-28T09:07:41Z</time>
      </trkpt>
      <trkpt lat="45.65872" lon="6.49722">
        <ele>2106</ele>
        <time>2022-07-28T09:07:42Z</time>
      </trkpt>
      <trkpt lat="45.65873" lon="6.49722">
        <ele>2106</ele>
        <time>2022-07-28T09:07:43Z</time>
      </trkpt>
      <trkpt lat="45.65874" lon="6.49721">
        <ele>2106</ele>
        <time>2022-07-28T09:07:44Z</time>
      </trkpt>
      <trkpt lat="45.65874" lon="6.49721">
        <ele>2106</ele>
        <time>2022-07-28T09:07:45Z</time>
      </trkpt>
      <trkpt lat="45.65875" lon="6.49721">
        <ele>2107</ele>
        <time>2022-07-28T09:07:46Z</time>
      </trkpt>
      <trkpt lat="45.65876" lon="6.49721">
        <ele>2107</ele>
        <time>2022-07-28T09:07:47Z</time>
      </trkpt>
      <trkpt lat="45.65877" lon="6.49721">
        <ele>2107</ele>
        <time>2022-07-28T09:07:48Z</time>
      </trkpt>
      <trkpt lat="45.65877" lon="6.49721">
        <ele>2107</ele>
        <time>2022-07-28T09:07:49Z</time>
      </trkpt>
      <trkpt lat="45.65878" lon="6.49721">
        <ele>2107</ele>
        <time>2022-07-28T09:07:50Z</time>
      </trkpt>
      <trkpt lat="45.65879" lon="6.49721">
        <ele>2107</ele>
        <time>2022-07-28T09:07:51Z</time>
      </trkpt>
      <trkpt lat="45.6588" lon="6.49721">
        <ele>2107</ele>
        <time>2022-07-28T09:07:52Z</time>
      </trkpt>
      <trkpt lat="45.6588" lon="6.49721">
        <ele>2107</ele>
        <time>2022-07-28T09:07:53Z</time>
      </trkpt>
      <trkpt lat="45.65881" lon="6.4972">
        <ele>2107</ele>
        <time>2022-07-28T09:07:54Z</time>
      </trkpt>
      <trkpt lat="45.65882" lon="6.4972">
        <ele>2107</ele>
        <time>2022-07-28T09:07:55Z</time>
      </trkpt>
      <trkpt lat="45.65883" lon="6.4972">
        <ele>2108</ele>
        <time>2022-07-28T09:07:56Z</time>
      </trkpt>
      <trkpt lat="45.65883" lon="6.4972">
        <ele>2108</ele>
        <time>2022-07-28T09:07:57Z</time>
      </trkpt>
      <trkpt lat="45.65884" lon="6.4972">
        <ele>2108</ele>
        <time>2022-07-28T09:07:58Z</time>
      </trkpt>
      <trkpt lat="45.65885" lon="6.49719">
        <ele>2108</ele>
        <time>2022-07-28T09:07:59Z</time>
      </trkpt>
      <trkpt lat="45.65886" lon="6.49719">
        <ele>2108</ele>
        <time>2022-07-28T09:08:00Z</time>
      </trkpt>
      <trkpt lat="45.65886" lon="6.49719">
        <ele>2109</ele>
        <time>2022-07-28T09:08:01Z</time>
      </trkpt>
      <trkpt lat="45.65887" lon="6.49719">
        <ele>2109</ele>
        <time>2022-07-28T09:08:02Z</time>
      </trkpt>
      <trkpt lat="45.65888" lon="6.49719">
        <ele>2109</ele>
        <time>2022-07-28T09:08:03Z</time>
      </trkpt>
      <trkpt lat="45.65888" lon="6.49719">
        <ele>2109</ele>
        <time>2022-07-28T09:08:04Z</time>
      </trkpt>
      <trkpt lat="45.65889" lon="6.49718">
        <ele>2109</ele>
        <time>2022-07-28T09:08:05Z</time>
      </trkpt>
      <trkpt lat="45.6589" lon="6.49718">
        <ele>2109</ele>
        <time>2022-07-28T09:08:06Z</time>
      </trkpt>
      <trkpt lat="45.65891" lon="6.49718">
        <ele>2109</ele>
        <time>2022-07-28T09:08:07Z</time>
      </trkpt>
      <trkpt lat="45.65891" lon="6.49718">
        <ele>2109</ele>
        <time>2022-07-28T09:08:08Z</time>
      </trkpt>
      <trkpt lat="45.65892" lon="6.49717">
        <ele>2109</ele>
        <time>2022-07-28T09:08:09Z</time>
      </trkpt>
      <trkpt lat="45.65893" lon="6.49717">
        <ele>2109</ele>
        <time>2022-07-28T09:08:10Z</time>
      </trkpt>
      <trkpt lat="45.65894" lon="6.49717">
        <ele>2110</ele>
        <time>2022-07-28T09:08:11Z</time>
      </trkpt>
      <trkpt lat="45.65894" lon="6.49717">
        <ele>2110</ele>
        <time>2022-07-28T09:08:12Z</time>
      </trkpt>
      <trkpt lat="45.65895" lon="6.49717">
        <ele>2110</ele>
        <time>2022-07-28T09:08:13Z</time>
      </trkpt>
      <trkpt lat="45.65896" lon="6.49717">
        <ele>2110</ele>
        <time>2022-07-28T09:08:14Z</time>
      </trkpt>
      <trkpt lat="45.65897" lon="6.49717">
        <ele>2110</ele>
        <time>2022-07-28T09:08:15Z</time>
      </trkpt>
      <trkpt lat="45.65897" lon="6.49717">
        <ele>2111</ele>
        <time>2022-07-28T09:08:16Z</time>
      </trkpt>
      <trkpt lat="45.65898" lon="6.49716">
        <ele>2111</ele>
        <time>2022-07-28T09:08:17Z</time>
      </trkpt>
      <trkpt lat="45.65899" lon="6.49716">
        <ele>2111</ele>
        <time>2022-07-28T09:08:18Z</time>
      </trkpt>
      <trkpt lat="45.65899" lon="6.49716">
        <ele>2111</ele>
        <time>2022-07-28T09:08:19Z</time>
      </trkpt>
      <trkpt lat="45.659" lon="6.49717">
        <ele>2111</ele>
        <time>2022-07-28T09:08:20Z</time>
      </trkpt>
      <trkpt lat="45.659" lon="6.49717">
        <ele>2112</ele>
        <time>2022-07-28T09:08:21Z</time>
      </trkpt>
      <trkpt lat="45.65901" lon="6.49717">
        <ele>2112</ele>
        <time>2022-07-28T09:08:22Z</time>
      </trkpt>
      <trkpt lat="45.65901" lon="6.49717">
        <ele>2112</ele>
        <time>2022-07-28T09:08:23Z</time>
      </trkpt>
      <trkpt lat="45.65902" lon="6.49718">
        <ele>2112</ele>
        <time>2022-07-28T09:08:24Z</time>
      </trkpt>
      <trkpt lat="45.65902" lon="6.49718">
        <ele>2112</ele>
        <time>2022-07-28T09:08:25Z</time>
      </trkpt>
      <trkpt lat="45.65902" lon="6.49718">
        <ele>2112</ele>
        <time>2022-07-28T09:08:26Z</time>
      </trkpt>
      <trkpt lat="45.65903" lon="6.49719">
        <ele>2112</ele>
        <time>2022-07-28T09:08:27Z</time>
      </trkpt>
      <trkpt lat="45.65903" lon="6.49719">
        <ele>2112</ele>
        <time>2022-07-28T09:08:28Z</time>
      </trkpt>
      <trkpt lat="45.65904" lon="6.4972">
        <ele>2112</ele>
        <time>2022-07-28T09:08:29Z</time>
      </trkpt>
      <trkpt lat="45.65907" lon="6.49719">
        <ele>2113</ele>
        <time>2022-07-28T09:12:16Z</time>
      </trkpt>
      <trkpt lat="45.65909" lon="6.49718">
        <ele>2113</ele>
        <time>2022-07-28T09:12:17Z</time>
      </trkpt>
      <trkpt lat="45.6591" lon="6.49718">
        <ele>2113</ele>
        <time>2022-07-28T09:12:18Z</time>
      </trkpt>
      <trkpt lat="45.65913" lon="6.49718">
        <ele>2114</ele>
        <time>2022-07-28T09:12:29Z</time>
      </trkpt>
      <trkpt lat="45.65914" lon="6.49717">
        <ele>2114</ele>
        <time>2022-07-28T09:12:30Z</time>
      </trkpt>
      <trkpt lat="45.65915" lon="6.49717">
        <ele>2114</ele>
        <time>2022-07-28T09:12:31Z</time>
      </trkpt>
      <trkpt lat="45.65915" lon="6.49717">
        <ele>2114</ele>
        <time>2022-07-28T09:12:32Z</time>
      </trkpt>
      <trkpt lat="45.65916" lon="6.49717">
        <ele>2114</ele>
        <time>2022-07-28T09:12:33Z</time>
      </trkpt>
      <trkpt lat="45.65917" lon="6.49717">
        <ele>2114</ele>
        <time>2022-07-28T09:12:34Z</time>
      </trkpt>
      <trkpt lat="45.65917" lon="6.49717">
        <ele>2114</ele>
        <time>2022-07-28T09:12:35Z</time>
      </trkpt>
      <trkpt lat="45.65917" lon="6.49717">
        <ele>2114</ele>
        <time>2022-07-28T09:12:36Z</time>
      </trkpt>
      <trkpt lat="45.65918" lon="6.49717">
        <ele>2114</ele>
        <time>2022-07-28T09:12:37Z</time>
      </trkpt>
      <trkpt lat="45.65919" lon="6.49717">
        <ele>2114</ele>
        <time>2022-07-28T09:12:38Z</time>
      </trkpt>
      <trkpt lat="45.6592" lon="6.49717">
        <ele>2114</ele>
        <time>2022-07-28T09:12:39Z</time>
      </trkpt>
      <trkpt lat="45.6592" lon="6.49717">
        <ele>2114</ele>
        <time>2022-07-28T09:12:40Z</time>
      </trkpt>
      <trkpt lat="45.65921" lon="6.49717">
        <ele>2115</ele>
        <time>2022-07-28T09:12:41Z</time>
      </trkpt>
      <trkpt lat="45.65921" lon="6.49717">
        <ele>2115</ele>
        <time>2022-07-28T09:12:42Z</time>
      </trkpt>
      <trkpt lat="45.65922" lon="6.49717">
        <ele>2115</ele>
        <time>2022-07-28T09:12:43Z</time>
      </trkpt>
      <trkpt lat="45.65922" lon="6.49717">
        <ele>2115</ele>
        <time>2022-07-28T09:12:44Z</time>
      </trkpt>
      <trkpt lat="45.65923" lon="6.49718">
        <ele>2115</ele>
        <time>2022-07-28T09:12:45Z</time>
      </trkpt>
      <trkpt lat="45.65923" lon="6.49718">
        <ele>2115</ele>
        <time>2022-07-28T09:12:46Z</time>
      </trkpt>
      <trkpt lat="45.65924" lon="6.49718">
        <ele>2115</ele>
        <time>2022-07-28T09:12:47Z</time>
      </trkpt>
      <trkpt lat="45.65925" lon="6.49718">
        <ele>2115</ele>
        <time>2022-07-28T09:12:48Z</time>
      </trkpt>
      <trkpt lat="45.65925" lon="6.49719">
        <ele>2115</ele>
        <time>2022-07-28T09:12:49Z</time>
      </trkpt>
      <trkpt lat="45.65926" lon="6.49719">
        <ele>2115</ele>
        <time>2022-07-28T09:12:50Z</time>
      </trkpt>
      <trkpt lat="45.65927" lon="6.49719">
        <ele>2116</ele>
        <time>2022-07-28T09:12:51Z</time>
      </trkpt>
      <trkpt lat="45.65927" lon="6.49719">
        <ele>2116</ele>
        <time>2022-07-28T09:12:52Z</time>
      </trkpt>
      <trkpt lat="45.65928" lon="6.49719">
        <ele>2116</ele>
        <time>2022-07-28T09:12:53Z</time>
      </trkpt>
      <trkpt lat="45.65928" lon="6.49719">
        <ele>2116</ele>
        <time>2022-07-28T09:12:54Z</time>
      </trkpt>
      <trkpt lat="45.65929" lon="6.49719">
        <ele>2116</ele>
        <time>2022-07-28T09:12:55Z</time>
      </trkpt>
      <trkpt lat="45.6593" lon="6.4972">
        <ele>2116</ele>
        <time>2022-07-28T09:12:56Z</time>
      </trkpt>
      <trkpt lat="45.6593" lon="6.4972">
        <ele>2116</ele>
        <time>2022-07-28T09:12:57Z</time>
      </trkpt>
      <trkpt lat="45.65931" lon="6.4972">
        <ele>2116</ele>
        <time>2022-07-28T09:12:58Z</time>
      </trkpt>
      <trkpt lat="45.65931" lon="6.4972">
        <ele>2117</ele>
        <time>2022-07-28T09:12:59Z</time>
      </trkpt>
      <trkpt lat="45.65932" lon="6.4972">
        <ele>2117</ele>
        <time>2022-07-28T09:13:00Z</time>
      </trkpt>
      <trkpt lat="45.65932" lon="6.49721">
        <ele>2118</ele>
        <time>2022-07-28T09:13:01Z</time>
      </trkpt>
      <trkpt lat="45.65933" lon="6.49721">
        <ele>2118</ele>
        <time>2022-07-28T09:13:02Z</time>
      </trkpt>
      <trkpt lat="45.65933" lon="6.49721">
        <ele>2118</ele>
        <time>2022-07-28T09:13:03Z</time>
      </trkpt>
      <trkpt lat="45.65934" lon="6.49722">
        <ele>2118</ele>
        <time>2022-07-28T09:13:04Z</time>
      </trkpt>
      <trkpt lat="45.65938" lon="6.49721">
        <ele>2123</ele>
        <time>2022-07-28T09:13:35Z</time>
      </trkpt>
      <trkpt lat="45.6594" lon="6.49721">
        <ele>2124</ele>
        <time>2022-07-28T09:13:36Z</time>
      </trkpt>
      <trkpt lat="45.65942" lon="6.4972">
        <ele>2124</ele>
        <time>2022-07-28T09:13:37Z</time>
      </trkpt>
      <trkpt lat="45.65944" lon="6.4972">
        <ele>2124</ele>
        <time>2022-07-28T09:13:38Z</time>
      </trkpt>
      <trkpt lat="45.65945" lon="6.49719">
        <ele>2124</ele>
        <time>2022-07-28T09:13:39Z</time>
      </trkpt>
      <trkpt lat="45.65946" lon="6.49718">
        <ele>2125</ele>
        <time>2022-07-28T09:13:50Z</time>
      </trkpt>
      <trkpt lat="45.65946" lon="6.49717">
        <ele>2126</ele>
        <time>2022-07-28T09:13:51Z</time>
      </trkpt>
      <trkpt lat="45.65947" lon="6.49717">
        <ele>2126</ele>
        <time>2022-07-28T09:13:52Z</time>
      </trkpt>
      <trkpt lat="45.65947" lon="6.49716">
        <ele>2126</ele>
        <time>2022-07-28T09:13:53Z</time>
      </trkpt>
      <trkpt lat="45.65947" lon="6.49715">
        <ele>2126</ele>
        <time>2022-07-28T09:13:54Z</time>
      </trkpt>
      <trkpt lat="45.65948" lon="6.49715">
        <ele>2126</ele>
        <time>2022-07-28T09:13:55Z</time>
      </trkpt>
      <trkpt lat="45.65948" lon="6.49714">
        <ele>2126</ele>
        <time>2022-07-28T09:13:56Z</time>
      </trkpt>
      <trkpt lat="45.65948" lon="6.49713">
        <ele>2126</ele>
        <time>2022-07-28T09:13:57Z</time>
      </trkpt>
      <trkpt lat="45.65948" lon="6.49712">
        <ele>2126</ele>
        <time>2022-07-28T09:13:58Z</time>
      </trkpt>
      <trkpt lat="45.65948" lon="6.49711">
        <ele>2126</ele>
        <time>2022-07-28T09:13:59Z</time>
      </trkpt>
      <trkpt lat="45.65948" lon="6.4971">
        <ele>2126</ele>
        <time>2022-07-28T09:14:00Z</time>
      </trkpt>
      <trkpt lat="45.65948" lon="6.49709">
        <ele>2126</ele>
        <time>2022-07-28T09:14:01Z</time>
      </trkpt>
      <trkpt lat="45.65948" lon="6.49708">
        <ele>2126</ele>
        <time>2022-07-28T09:14:02Z</time>
      </trkpt>
      <trkpt lat="45.65948" lon="6.49707">
        <ele>2126</ele>
        <time>2022-07-28T09:14:03Z</time>
      </trkpt>
      <trkpt lat="45.65948" lon="6.49706">
        <ele>2126</ele>
        <time>2022-07-28T09:14:04Z</time>
      </trkpt>
      <trkpt lat="45.65948" lon="6.49704">
        <ele>2126</ele>
        <time>2022-07-28T09:14:05Z</time>
      </trkpt>
      <trkpt lat="45.65948" lon="6.49703">
        <ele>2127</ele>
        <time>2022-07-28T09:14:06Z</time>
      </trkpt>
      <trkpt lat="45.65948" lon="6.49701">
        <ele>2127</ele>
        <time>2022-07-28T09:14:07Z</time>
      </trkpt>
      <trkpt lat="45.65947" lon="6.497">
        <ele>2127</ele>
        <time>2022-07-28T09:14:08Z</time>
      </trkpt>
      <trkpt lat="45.65947" lon="6.49698">
        <ele>2127</ele>
        <time>2022-07-28T09:14:09Z</time>
      </trkpt>
      <trkpt lat="45.65946" lon="6.49697">
        <ele>2127</ele>
        <time>2022-07-28T09:14:10Z</time>
      </trkpt>
      <trkpt lat="45.65946" lon="6.49696">
        <ele>2127</ele>
        <time>2022-07-28T09:14:11Z</time>
      </trkpt>
      <trkpt lat="45.65945" lon="6.49695">
        <ele>2127</ele>
        <time>2022-07-28T09:14:12Z</time>
      </trkpt>
      <trkpt lat="45.65945" lon="6.49694">
        <ele>2127</ele>
        <time>2022-07-28T09:14:13Z</time>
      </trkpt>
      <trkpt lat="45.65944" lon="6.49692">
        <ele>2127</ele>
        <time>2022-07-28T09:14:14Z</time>
      </trkpt>
      <trkpt lat="45.65944" lon="6.49691">
        <ele>2127</ele>
        <time>2022-07-28T09:14:15Z</time>
      </trkpt>
      <trkpt lat="45.65943" lon="6.4969">
        <ele>2128</ele>
        <time>2022-07-28T09:14:16Z</time>
      </trkpt>
      <trkpt lat="45.65943" lon="6.49689">
        <ele>2128</ele>
        <time>2022-07-28T09:14:17Z</time>
      </trkpt>
      <trkpt lat="45.65943" lon="6.49688">
        <ele>2128</ele>
        <time>2022-07-28T09:14:18Z</time>
      </trkpt>
      <trkpt lat="45.65942" lon="6.49687">
        <ele>2128</ele>
        <time>2022-07-28T09:14:19Z</time>
      </trkpt>
      <trkpt lat="45.65942" lon="6.49686">
        <ele>2128</ele>
        <time>2022-07-28T09:14:20Z</time>
      </trkpt>
      <trkpt lat="45.65941" lon="6.49685">
        <ele>2128</ele>
        <time>2022-07-28T09:14:21Z</time>
      </trkpt>
      <trkpt lat="45.65941" lon="6.49684">
        <ele>2128</ele>
        <time>2022-07-28T09:14:22Z</time>
      </trkpt>
      <trkpt lat="45.65941" lon="6.49683">
        <ele>2128</ele>
        <time>2022-07-28T09:14:23Z</time>
      </trkpt>
      <trkpt lat="45.6594" lon="6.49682">
        <ele>2128</ele>
        <time>2022-07-28T09:14:24Z</time>
      </trkpt>
      <trkpt lat="45.6594" lon="6.49681">
        <ele>2128</ele>
        <time>2022-07-28T09:14:25Z</time>
      </trkpt>
      <trkpt lat="45.65939" lon="6.49681">
        <ele>2128</ele>
        <time>2022-07-28T09:14:26Z</time>
      </trkpt>
      <trkpt lat="45.65939" lon="6.4968">
        <ele>2128</ele>
        <time>2022-07-28T09:14:27Z</time>
      </trkpt>
      <trkpt lat="45.65938" lon="6.49679">
        <ele>2128</ele>
        <time>2022-07-28T09:14:28Z</time>
      </trkpt>
      <trkpt lat="45.65938" lon="6.49678">
        <ele>2128</ele>
        <time>2022-07-28T09:14:29Z</time>
      </trkpt>
      <trkpt lat="45.65938" lon="6.49678">
        <ele>2128</ele>
        <time>2022-07-28T09:14:30Z</time>
      </trkpt>
      <trkpt lat="45.65937" lon="6.49677">
        <ele>2129</ele>
        <time>2022-07-28T09:14:31Z</time>
      </trkpt>
      <trkpt lat="45.65937" lon="6.49676">
        <ele>2129</ele>
        <time>2022-07-28T09:14:32Z</time>
      </trkpt>
      <trkpt lat="45.65937" lon="6.49675">
        <ele>2129</ele>
        <time>2022-07-28T09:14:33Z</time>
      </trkpt>
      <trkpt lat="45.65938" lon="6.49674">
        <ele>2129</ele>
        <time>2022-07-28T09:14:34Z</time>
      </trkpt>
      <trkpt lat="45.65938" lon="6.49674">
        <ele>2129</ele>
        <time>2022-07-28T09:14:35Z</time>
      </trkpt>
      <trkpt lat="45.65938" lon="6.49673">
        <ele>2130</ele>
        <time>2022-07-28T09:14:36Z</time>
      </trkpt>
      <trkpt lat="45.65939" lon="6.49673">
        <ele>2130</ele>
        <time>2022-07-28T09:14:37Z</time>
      </trkpt>
      <trkpt lat="45.65939" lon="6.49672">
        <ele>2130</ele>
        <time>2022-07-28T09:14:38Z</time>
      </trkpt>
      <trkpt lat="45.6594" lon="6.49672">
        <ele>2130</ele>
        <time>2022-07-28T09:14:39Z</time>
      </trkpt>
      <trkpt lat="45.6594" lon="6.49671">
        <ele>2130</ele>
        <time>2022-07-28T09:14:40Z</time>
      </trkpt>
      <trkpt lat="45.65941" lon="6.49671">
        <ele>2131</ele>
        <time>2022-07-28T09:14:41Z</time>
      </trkpt>
      <trkpt lat="45.65942" lon="6.4967">
        <ele>2131</ele>
        <time>2022-07-28T09:14:42Z</time>
      </trkpt>
      <trkpt lat="45.65942" lon="6.4967">
        <ele>2131</ele>
        <time>2022-07-28T09:14:43Z</time>
      </trkpt>
      <trkpt lat="45.65942" lon="6.4967">
        <ele>2131</ele>
        <time>2022-07-28T09:14:44Z</time>
      </trkpt>
      <trkpt lat="45.65943" lon="6.4967">
        <ele>2131</ele>
        <time>2022-07-28T09:14:45Z</time>
      </trkpt>
      <trkpt lat="45.65944" lon="6.4967">
        <ele>2132</ele>
        <time>2022-07-28T09:14:46Z</time>
      </trkpt>
      <trkpt lat="45.65944" lon="6.4967">
        <ele>2132</ele>
        <time>2022-07-28T09:14:47Z</time>
      </trkpt>
      <trkpt lat="45.65945" lon="6.49671">
        <ele>2132</ele>
        <time>2022-07-28T09:14:48Z</time>
      </trkpt>
      <trkpt lat="45.65945" lon="6.49671">
        <ele>2132</ele>
        <time>2022-07-28T09:14:49Z</time>
      </trkpt>
      <trkpt lat="45.65946" lon="6.49671">
        <ele>2132</ele>
        <time>2022-07-28T09:14:50Z</time>
      </trkpt>
      <trkpt lat="45.65946" lon="6.49671">
        <ele>2133</ele>
        <time>2022-07-28T09:14:51Z</time>
      </trkpt>
      <trkpt lat="45.65946" lon="6.49671">
        <ele>2133</ele>
        <time>2022-07-28T09:14:52Z</time>
      </trkpt>
      <trkpt lat="45.65946" lon="6.49671">
        <ele>2133</ele>
        <time>2022-07-28T09:14:53Z</time>
      </trkpt>
      <trkpt lat="45.65947" lon="6.49671">
        <ele>2133</ele>
        <time>2022-07-28T09:14:54Z</time>
      </trkpt>
      <trkpt lat="45.65948" lon="6.49671">
        <ele>2133</ele>
        <time>2022-07-28T09:14:55Z</time>
      </trkpt>
      <trkpt lat="45.65948" lon="6.4967">
        <ele>2134</ele>
        <time>2022-07-28T09:14:56Z</time>
      </trkpt>
      <trkpt lat="45.65949" lon="6.4967">
        <ele>2134</ele>
        <time>2022-07-28T09:14:57Z</time>
      </trkpt>
      <trkpt lat="45.65949" lon="6.4967">
        <ele>2134</ele>
        <time>2022-07-28T09:14:58Z</time>
      </trkpt>
      <trkpt lat="45.65949" lon="6.49669">
        <ele>2134</ele>
        <time>2022-07-28T09:14:59Z</time>
      </trkpt>
      <trkpt lat="45.65949" lon="6.49668">
        <ele>2134</ele>
        <time>2022-07-28T09:15:00Z</time>
      </trkpt>
      <trkpt lat="45.65949" lon="6.49667">
        <ele>2135</ele>
        <time>2022-07-28T09:15:01Z</time>
      </trkpt>
      <trkpt lat="45.65949" lon="6.49666">
        <ele>2135</ele>
        <time>2022-07-28T09:15:02Z</time>
      </trkpt>
      <trkpt lat="45.65949" lon="6.49665">
        <ele>2135</ele>
        <time>2022-07-28T09:15:03Z</time>
      </trkpt>
      <trkpt lat="45.65949" lon="6.49664">
        <ele>2135</ele>
        <time>2022-07-28T09:15:04Z</time>
      </trkpt>
      <trkpt lat="45.65949" lon="6.49664">
        <ele>2135</ele>
        <time>2022-07-28T09:15:05Z</time>
      </trkpt>
      <trkpt lat="45.65949" lon="6.49663">
        <ele>2135</ele>
        <time>2022-07-28T09:15:06Z</time>
      </trkpt>
      <trkpt lat="45.65948" lon="6.49662">
        <ele>2135</ele>
        <time>2022-07-28T09:15:07Z</time>
      </trkpt>
      <trkpt lat="45.65948" lon="6.49661">
        <ele>2135</ele>
        <time>2022-07-28T09:15:08Z</time>
      </trkpt>
      <trkpt lat="45.65948" lon="6.4966">
        <ele>2136</ele>
        <time>2022-07-28T09:15:09Z</time>
      </trkpt>
      <trkpt lat="45.65948" lon="6.49659">
        <ele>2136</ele>
        <time>2022-07-28T09:15:10Z</time>
      </trkpt>
      <trkpt lat="45.65948" lon="6.49658">
        <ele>2137</ele>
        <time>2022-07-28T09:15:11Z</time>
      </trkpt>
      <trkpt lat="45.65947" lon="6.49657">
        <ele>2137</ele>
        <time>2022-07-28T09:15:12Z</time>
      </trkpt>
      <trkpt lat="45.65948" lon="6.49655">
        <ele>2137</ele>
        <time>2022-07-28T09:15:19Z</time>
      </trkpt>
      <trkpt lat="45.65949" lon="6.49654">
        <ele>2137</ele>
        <time>2022-07-28T09:15:20Z</time>
      </trkpt>
      <trkpt lat="45.65949" lon="6.49653">
        <ele>2138</ele>
        <time>2022-07-28T09:15:21Z</time>
      </trkpt>
      <trkpt lat="45.65951" lon="6.49654">
        <ele>2141</ele>
        <time>2022-07-28T09:16:23Z</time>
      </trkpt>
      <trkpt lat="45.65952" lon="6.49654">
        <ele>2141</ele>
        <time>2022-07-28T09:16:24Z</time>
      </trkpt>
      <trkpt lat="45.65953" lon="6.49654">
        <ele>2141</ele>
        <time>2022-07-28T09:16:25Z</time>
      </trkpt>
      <trkpt lat="45.65953" lon="6.49654">
        <ele>2141</ele>
        <time>2022-07-28T09:16:26Z</time>
      </trkpt>
      <trkpt lat="45.65954" lon="6.49654">
        <ele>2141</ele>
        <time>2022-07-28T09:16:27Z</time>
      </trkpt>
      <trkpt lat="45.65955" lon="6.49652">
        <ele>2141</ele>
        <time>2022-07-28T09:16:44Z</time>
      </trkpt>
      <trkpt lat="45.65956" lon="6.49652">
        <ele>2141</ele>
        <time>2022-07-28T09:16:45Z</time>
      </trkpt>
      <trkpt lat="45.65957" lon="6.49651">
        <ele>2142</ele>
        <time>2022-07-28T09:16:46Z</time>
      </trkpt>
      <trkpt lat="45.65958" lon="6.49651">
        <ele>2142</ele>
        <time>2022-07-28T09:17:00Z</time>
      </trkpt>
      <trkpt lat="45.65959" lon="6.49651">
        <ele>2142</ele>
        <time>2022-07-28T09:17:01Z</time>
      </trkpt>
      <trkpt lat="45.65959" lon="6.49651">
        <ele>2142</ele>
        <time>2022-07-28T09:17:02Z</time>
      </trkpt>
      <trkpt lat="45.65958" lon="6.4965">
        <ele>2142</ele>
        <time>2022-07-28T09:17:03Z</time>
      </trkpt>
      <trkpt lat="45.65958" lon="6.4965">
        <ele>2142</ele>
        <time>2022-07-28T09:17:04Z</time>
      </trkpt>
      <trkpt lat="45.65957" lon="6.49649">
        <ele>2142</ele>
        <time>2022-07-28T09:17:05Z</time>
      </trkpt>
      <trkpt lat="45.65957" lon="6.49649">
        <ele>2142</ele>
        <time>2022-07-28T09:17:06Z</time>
      </trkpt>
      <trkpt lat="45.65956" lon="6.49648">
        <ele>2142</ele>
        <time>2022-07-28T09:17:07Z</time>
      </trkpt>
      <trkpt lat="45.65955" lon="6.49647">
        <ele>2142</ele>
        <time>2022-07-28T09:17:08Z</time>
      </trkpt>
      <trkpt lat="45.65954" lon="6.49646">
        <ele>2142</ele>
        <time>2022-07-28T09:17:09Z</time>
      </trkpt>
      <trkpt lat="45.65953" lon="6.49644">
        <ele>2142</ele>
        <time>2022-07-28T09:17:10Z</time>
      </trkpt>
      <trkpt lat="45.65952" lon="6.49643">
        <ele>2142</ele>
        <time>2022-07-28T09:17:11Z</time>
      </trkpt>
      <trkpt lat="45.65951" lon="6.49642">
        <ele>2142</ele>
        <time>2022-07-28T09:17:12Z</time>
      </trkpt>
      <trkpt lat="45.65951" lon="6.49641">
        <ele>2142</ele>
        <time>2022-07-28T09:17:13Z</time>
      </trkpt>
      <trkpt lat="45.6595" lon="6.4964">
        <ele>2142</ele>
        <time>2022-07-28T09:17:14Z</time>
      </trkpt>
      <trkpt lat="45.65949" lon="6.49639">
        <ele>2142</ele>
        <time>2022-07-28T09:17:15Z</time>
      </trkpt>
      <trkpt lat="45.65948" lon="6.49639">
        <ele>2142</ele>
        <time>2022-07-28T09:17:16Z</time>
      </trkpt>
      <trkpt lat="45.65947" lon="6.49638">
        <ele>2142</ele>
        <time>2022-07-28T09:17:17Z</time>
      </trkpt>
      <trkpt lat="45.65946" lon="6.49637">
        <ele>2142</ele>
        <time>2022-07-28T09:17:18Z</time>
      </trkpt>
      <trkpt lat="45.65946" lon="6.49637">
        <ele>2144</ele>
        <time>2022-07-28T09:17:25Z</time>
      </trkpt>
      <trkpt lat="45.65945" lon="6.49637">
        <ele>2145</ele>
        <time>2022-07-28T09:17:26Z</time>
      </trkpt>
      <trkpt lat="45.65945" lon="6.49636">
        <ele>2145</ele>
        <time>2022-07-28T09:17:27Z</time>
      </trkpt>
      <trkpt lat="45.65944" lon="6.49636">
        <ele>2145</ele>
        <time>2022-07-28T09:17:28Z</time>
      </trkpt>
      <trkpt lat="45.65943" lon="6.49636">
        <ele>2145</ele>
        <time>2022-07-28T09:17:29Z</time>
      </trkpt>
      <trkpt lat="45.65942" lon="6.49635">
        <ele>2145</ele>
        <time>2022-07-28T09:17:30Z</time>
      </trkpt>
      <trkpt lat="45.65941" lon="6.49635">
        <ele>2145</ele>
        <time>2022-07-28T09:17:31Z</time>
      </trkpt>
      <trkpt lat="45.6594" lon="6.49635">
        <ele>2145</ele>
        <time>2022-07-28T09:17:32Z</time>
      </trkpt>
      <trkpt lat="45.65939" lon="6.49634">
        <ele>2145</ele>
        <time>2022-07-28T09:17:33Z</time>
      </trkpt>
      <trkpt lat="45.65938" lon="6.49634">
        <ele>2145</ele>
        <time>2022-07-28T09:17:34Z</time>
      </trkpt>
      <trkpt lat="45.65937" lon="6.49633">
        <ele>2145</ele>
        <time>2022-07-28T09:17:35Z</time>
      </trkpt>
      <trkpt lat="45.65936" lon="6.49632">
        <ele>2146</ele>
        <time>2022-07-28T09:17:41Z</time>
      </trkpt>
      <trkpt lat="45.65935" lon="6.49632">
        <ele>2146</ele>
        <time>2022-07-28T09:17:42Z</time>
      </trkpt>
      <trkpt lat="45.65935" lon="6.49631">
        <ele>2146</ele>
        <time>2022-07-28T09:17:43Z</time>
      </trkpt>
      <trkpt lat="45.65935" lon="6.4963">
        <ele>2146</ele>
        <time>2022-07-28T09:17:44Z</time>
      </trkpt>
      <trkpt lat="45.65935" lon="6.49629">
        <ele>2146</ele>
        <time>2022-07-28T09:17:45Z</time>
      </trkpt>
      <trkpt lat="45.65935" lon="6.49628">
        <ele>2146</ele>
        <time>2022-07-28T09:17:46Z</time>
      </trkpt>
      <trkpt lat="45.65935" lon="6.49627">
        <ele>2146</ele>
        <time>2022-07-28T09:17:47Z</time>
      </trkpt>
      <trkpt lat="45.65935" lon="6.49625">
        <ele>2146</ele>
        <time>2022-07-28T09:17:48Z</time>
      </trkpt>
      <trkpt lat="45.65935" lon="6.49624">
        <ele>2146</ele>
        <time>2022-07-28T09:17:49Z</time>
      </trkpt>
      <trkpt lat="45.65935" lon="6.49622">
        <ele>2146</ele>
        <time>2022-07-28T09:17:50Z</time>
      </trkpt>
      <trkpt lat="45.65935" lon="6.49621">
        <ele>2147</ele>
        <time>2022-07-28T09:17:51Z</time>
      </trkpt>
      <trkpt lat="45.65935" lon="6.4962">
        <ele>2147</ele>
        <time>2022-07-28T09:17:52Z</time>
      </trkpt>
      <trkpt lat="45.65935" lon="6.49618">
        <ele>2147</ele>
        <time>2022-07-28T09:17:53Z</time>
      </trkpt>
      <trkpt lat="45.65936" lon="6.49617">
        <ele>2147</ele>
        <time>2022-07-28T09:17:54Z</time>
      </trkpt>
      <trkpt lat="45.65936" lon="6.49616">
        <ele>2147</ele>
        <time>2022-07-28T09:17:55Z</time>
      </trkpt>
      <trkpt lat="45.65936" lon="6.49615">
        <ele>2147</ele>
        <time>2022-07-28T09:17:56Z</time>
      </trkpt>
      <trkpt lat="45.65936" lon="6.49614">
        <ele>2147</ele>
        <time>2022-07-28T09:17:57Z</time>
      </trkpt>
      <trkpt lat="45.65936" lon="6.49613">
        <ele>2147</ele>
        <time>2022-07-28T09:17:58Z</time>
      </trkpt>
      <trkpt lat="45.65936" lon="6.49612">
        <ele>2147</ele>
        <time>2022-07-28T09:17:59Z</time>
      </trkpt>
      <trkpt lat="45.65936" lon="6.49611">
        <ele>2147</ele>
        <time>2022-07-28T09:18:00Z</time>
      </trkpt>
      <trkpt lat="45.65936" lon="6.4961">
        <ele>2148</ele>
        <time>2022-07-28T09:18:01Z</time>
      </trkpt>
      <trkpt lat="45.65936" lon="6.49609">
        <ele>2148</ele>
        <time>2022-07-28T09:18:02Z</time>
      </trkpt>
      <trkpt lat="45.65936" lon="6.49608">
        <ele>2148</ele>
        <time>2022-07-28T09:18:03Z</time>
      </trkpt>
      <trkpt lat="45.65936" lon="6.49607">
        <ele>2148</ele>
        <time>2022-07-28T09:18:04Z</time>
      </trkpt>
      <trkpt lat="45.65936" lon="6.49606">
        <ele>2148</ele>
        <time>2022-07-28T09:18:05Z</time>
      </trkpt>
      <trkpt lat="45.65935" lon="6.49605">
        <ele>2149</ele>
        <time>2022-07-28T09:18:06Z</time>
      </trkpt>
      <trkpt lat="45.65935" lon="6.49604">
        <ele>2149</ele>
        <time>2022-07-28T09:18:07Z</time>
      </trkpt>
      <trkpt lat="45.65935" lon="6.49603">
        <ele>2149</ele>
        <time>2022-07-28T09:18:08Z</time>
      </trkpt>
      <trkpt lat="45.65934" lon="6.49602">
        <ele>2149</ele>
        <time>2022-07-28T09:18:09Z</time>
      </trkpt>
      <trkpt lat="45.65934" lon="6.49601">
        <ele>2149</ele>
        <time>2022-07-28T09:18:10Z</time>
      </trkpt>
      <trkpt lat="45.65933" lon="6.496">
        <ele>2149</ele>
        <time>2022-07-28T09:18:11Z</time>
      </trkpt>
      <trkpt lat="45.65933" lon="6.49599">
        <ele>2149</ele>
        <time>2022-07-28T09:18:12Z</time>
      </trkpt>
      <trkpt lat="45.65933" lon="6.49598">
        <ele>2149</ele>
        <time>2022-07-28T09:18:13Z</time>
      </trkpt>
      <trkpt lat="45.65932" lon="6.49597">
        <ele>2149</ele>
        <time>2022-07-28T09:18:14Z</time>
      </trkpt>
      <trkpt lat="45.65932" lon="6.49596">
        <ele>2149</ele>
        <time>2022-07-28T09:18:15Z</time>
      </trkpt>
      <trkpt lat="45.65932" lon="6.49595">
        <ele>2150</ele>
        <time>2022-07-28T09:18:16Z</time>
      </trkpt>
      <trkpt lat="45.65932" lon="6.49594">
        <ele>2150</ele>
        <time>2022-07-28T09:18:17Z</time>
      </trkpt>
      <trkpt lat="45.65932" lon="6.49593">
        <ele>2150</ele>
        <time>2022-07-28T09:18:18Z</time>
      </trkpt>
      <trkpt lat="45.65931" lon="6.49592">
        <ele>2150</ele>
        <time>2022-07-28T09:18:19Z</time>
      </trkpt>
      <trkpt lat="45.65931" lon="6.49591">
        <ele>2150</ele>
        <time>2022-07-28T09:18:20Z</time>
      </trkpt>
      <trkpt lat="45.65931" lon="6.4959">
        <ele>2151</ele>
        <time>2022-07-28T09:18:21Z</time>
      </trkpt>
      <trkpt lat="45.65931" lon="6.49589">
        <ele>2151</ele>
        <time>2022-07-28T09:18:22Z</time>
      </trkpt>
      <trkpt lat="45.65931" lon="6.49588">
        <ele>2151</ele>
        <time>2022-07-28T09:18:23Z</time>
      </trkpt>
      <trkpt lat="45.65931" lon="6.49586">
        <ele>2153</ele>
        <time>2022-07-28T09:18:35Z</time>
      </trkpt>
      <trkpt lat="45.65932" lon="6.49584">
        <ele>2154</ele>
        <time>2022-07-28T09:18:36Z</time>
      </trkpt>
      <trkpt lat="45.65932" lon="6.49583">
        <ele>2154</ele>
        <time>2022-07-28T09:18:37Z</time>
      </trkpt>
      <trkpt lat="45.65932" lon="6.49582">
        <ele>2154</ele>
        <time>2022-07-28T09:18:38Z</time>
      </trkpt>
      <trkpt lat="45.65932" lon="6.4958">
        <ele>2154</ele>
        <time>2022-07-28T09:18:39Z</time>
      </trkpt>
      <trkpt lat="45.65931" lon="6.49579">
        <ele>2154</ele>
        <time>2022-07-28T09:18:40Z</time>
      </trkpt>
      <trkpt lat="45.65931" lon="6.49578">
        <ele>2155</ele>
        <time>2022-07-28T09:18:41Z</time>
      </trkpt>
      <trkpt lat="45.65931" lon="6.49577">
        <ele>2155</ele>
        <time>2022-07-28T09:18:42Z</time>
      </trkpt>
      <trkpt lat="45.65931" lon="6.49576">
        <ele>2155</ele>
        <time>2022-07-28T09:18:43Z</time>
      </trkpt>
      <trkpt lat="45.65931" lon="6.49575">
        <ele>2155</ele>
        <time>2022-07-28T09:18:44Z</time>
      </trkpt>
      <trkpt lat="45.65931" lon="6.49573">
        <ele>2157</ele>
        <time>2022-07-28T09:18:55Z</time>
      </trkpt>
      <trkpt lat="45.65931" lon="6.49572">
        <ele>2157</ele>
        <time>2022-07-28T09:18:56Z</time>
      </trkpt>
      <trkpt lat="45.65932" lon="6.49571">
        <ele>2157</ele>
        <time>2022-07-28T09:18:57Z</time>
      </trkpt>
      <trkpt lat="45.65932" lon="6.49571">
        <ele>2157</ele>
        <time>2022-07-28T09:18:58Z</time>
      </trkpt>
      <trkpt lat="45.65932" lon="6.4957">
        <ele>2157</ele>
        <time>2022-07-28T09:18:59Z</time>
      </trkpt>
      <trkpt lat="45.65934" lon="6.49569">
        <ele>2158</ele>
        <time>2022-07-28T09:19:07Z</time>
      </trkpt>
      <trkpt lat="45.65935" lon="6.49568">
        <ele>2158</ele>
        <time>2022-07-28T09:19:08Z</time>
      </trkpt>
      <trkpt lat="45.65935" lon="6.49567">
        <ele>2158</ele>
        <time>2022-07-28T09:19:09Z</time>
      </trkpt>
      <trkpt lat="45.65936" lon="6.49567">
        <ele>2158</ele>
        <time>2022-07-28T09:19:10Z</time>
      </trkpt>
      <trkpt lat="45.65937" lon="6.49566">
        <ele>2159</ele>
        <time>2022-07-28T09:19:11Z</time>
      </trkpt>
      <trkpt lat="45.65937" lon="6.49565">
        <ele>2159</ele>
        <time>2022-07-28T09:19:12Z</time>
      </trkpt>
      <trkpt lat="45.65938" lon="6.49565">
        <ele>2159</ele>
        <time>2022-07-28T09:19:13Z</time>
      </trkpt>
      <trkpt lat="45.65938" lon="6.49564">
        <ele>2159</ele>
        <time>2022-07-28T09:19:14Z</time>
      </trkpt>
      <trkpt lat="45.65939" lon="6.49563">
        <ele>2159</ele>
        <time>2022-07-28T09:19:15Z</time>
      </trkpt>
      <trkpt lat="45.65939" lon="6.49562">
        <ele>2160</ele>
        <time>2022-07-28T09:19:16Z</time>
      </trkpt>
      <trkpt lat="45.65939" lon="6.49561">
        <ele>2160</ele>
        <time>2022-07-28T09:19:17Z</time>
      </trkpt>
      <trkpt lat="45.6594" lon="6.4956">
        <ele>2160</ele>
        <time>2022-07-28T09:19:18Z</time>
      </trkpt>
      <trkpt lat="45.6594" lon="6.49559">
        <ele>2160</ele>
        <time>2022-07-28T09:19:19Z</time>
      </trkpt>
      <trkpt lat="45.65941" lon="6.49558">
        <ele>2160</ele>
        <time>2022-07-28T09:19:20Z</time>
      </trkpt>
      <trkpt lat="45.65941" lon="6.49557">
        <ele>2160</ele>
        <time>2022-07-28T09:19:21Z</time>
      </trkpt>
      <trkpt lat="45.65941" lon="6.49556">
        <ele>2160</ele>
        <time>2022-07-28T09:19:22Z</time>
      </trkpt>
      <trkpt lat="45.65942" lon="6.49555">
        <ele>2160</ele>
        <time>2022-07-28T09:19:23Z</time>
      </trkpt>
      <trkpt lat="45.65942" lon="6.49554">
        <ele>2160</ele>
        <time>2022-07-28T09:19:24Z</time>
      </trkpt>
      <trkpt lat="45.65943" lon="6.49553">
        <ele>2160</ele>
        <time>2022-07-28T09:19:25Z</time>
      </trkpt>
      <trkpt lat="45.65943" lon="6.49552">
        <ele>2161</ele>
        <time>2022-07-28T09:19:26Z</time>
      </trkpt>
      <trkpt lat="45.65944" lon="6.49552">
        <ele>2161</ele>
        <time>2022-07-28T09:19:27Z</time>
      </trkpt>
      <trkpt lat="45.65944" lon="6.49551">
        <ele>2161</ele>
        <time>2022-07-28T09:19:28Z</time>
      </trkpt>
      <trkpt lat="45.65945" lon="6.4955">
        <ele>2161</ele>
        <time>2022-07-28T09:19:29Z</time>
      </trkpt>
      <trkpt lat="45.65946" lon="6.4955">
        <ele>2161</ele>
        <time>2022-07-28T09:19:30Z</time>
      </trkpt>
      <trkpt lat="45.65947" lon="6.4955">
        <ele>2162</ele>
        <time>2022-07-28T09:19:31Z</time>
      </trkpt>
      <trkpt lat="45.65948" lon="6.49549">
        <ele>2162</ele>
        <time>2022-07-28T09:19:32Z</time>
      </trkpt>
      <trkpt lat="45.65948" lon="6.49549">
        <ele>2162</ele>
        <time>2022-07-28T09:19:33Z</time>
      </trkpt>
      <trkpt lat="45.65949" lon="6.49549">
        <ele>2162</ele>
        <time>2022-07-28T09:19:34Z</time>
      </trkpt>
      <trkpt lat="45.6595" lon="6.4955">
        <ele>2162</ele>
        <time>2022-07-28T09:19:35Z</time>
      </trkpt>
      <trkpt lat="45.65951" lon="6.4955">
        <ele>2162</ele>
        <time>2022-07-28T09:19:36Z</time>
      </trkpt>
      <trkpt lat="45.65951" lon="6.4955">
        <ele>2162</ele>
        <time>2022-07-28T09:19:37Z</time>
      </trkpt>
      <trkpt lat="45.65952" lon="6.4955">
        <ele>2162</ele>
        <time>2022-07-28T09:19:38Z</time>
      </trkpt>
      <trkpt lat="45.65953" lon="6.4955">
        <ele>2162</ele>
        <time>2022-07-28T09:19:39Z</time>
      </trkpt>
      <trkpt lat="45.65954" lon="6.49551">
        <ele>2162</ele>
        <time>2022-07-28T09:19:40Z</time>
      </trkpt>
      <trkpt lat="45.65954" lon="6.49551">
        <ele>2163</ele>
        <time>2022-07-28T09:19:41Z</time>
      </trkpt>
      <trkpt lat="45.65955" lon="6.49551">
        <ele>2163</ele>
        <time>2022-07-28T09:19:42Z</time>
      </trkpt>
      <trkpt lat="45.65955" lon="6.49551">
        <ele>2163</ele>
        <time>2022-07-28T09:19:43Z</time>
      </trkpt>
      <trkpt lat="45.65956" lon="6.49552">
        <ele>2163</ele>
        <time>2022-07-28T09:19:44Z</time>
      </trkpt>
      <trkpt lat="45.65957" lon="6.49553">
        <ele>2163</ele>
        <time>2022-07-28T09:19:45Z</time>
      </trkpt>
      <trkpt lat="45.65958" lon="6.49553">
        <ele>2165</ele>
        <time>2022-07-28T09:19:51Z</time>
      </trkpt>
      <trkpt lat="45.65959" lon="6.49553">
        <ele>2165</ele>
        <time>2022-07-28T09:19:52Z</time>
      </trkpt>
      <trkpt lat="45.65959" lon="6.49554">
        <ele>2165</ele>
        <time>2022-07-28T09:19:53Z</time>
      </trkpt>
      <trkpt lat="45.6596" lon="6.49553">
        <ele>2165</ele>
        <time>2022-07-28T09:19:54Z</time>
      </trkpt>
      <trkpt lat="45.6596" lon="6.49553">
        <ele>2165</ele>
        <time>2022-07-28T09:19:55Z</time>
      </trkpt>
      <trkpt lat="45.65961" lon="6.49553">
        <ele>2166</ele>
        <time>2022-07-28T09:19:56Z</time>
      </trkpt>
      <trkpt lat="45.65962" lon="6.49552">
        <ele>2166</ele>
        <time>2022-07-28T09:19:57Z</time>
      </trkpt>
      <trkpt lat="45.65963" lon="6.49551">
        <ele>2166</ele>
        <time>2022-07-28T09:19:58Z</time>
      </trkpt>
      <trkpt lat="45.65964" lon="6.49551">
        <ele>2166</ele>
        <time>2022-07-28T09:19:59Z</time>
      </trkpt>
      <trkpt lat="45.65964" lon="6.4955">
        <ele>2166</ele>
        <time>2022-07-28T09:20:00Z</time>
      </trkpt>
      <trkpt lat="45.65965" lon="6.4955">
        <ele>2167</ele>
        <time>2022-07-28T09:20:01Z</time>
      </trkpt>
      <trkpt lat="45.65966" lon="6.49549">
        <ele>2167</ele>
        <time>2022-07-28T09:20:02Z</time>
      </trkpt>
      <trkpt lat="45.65967" lon="6.49549">
        <ele>2167</ele>
        <time>2022-07-28T09:20:03Z</time>
      </trkpt>
      <trkpt lat="45.65967" lon="6.49548">
        <ele>2167</ele>
        <time>2022-07-28T09:20:04Z</time>
      </trkpt>
      <trkpt lat="45.65968" lon="6.49548">
        <ele>2167</ele>
        <time>2022-07-28T09:20:05Z</time>
      </trkpt>
      <trkpt lat="45.65969" lon="6.49548">
        <ele>2168</ele>
        <time>2022-07-28T09:20:06Z</time>
      </trkpt>
      <trkpt lat="45.65969" lon="6.49548">
        <ele>2168</ele>
        <time>2022-07-28T09:20:07Z</time>
      </trkpt>
      <trkpt lat="45.6597" lon="6.49548">
        <ele>2168</ele>
        <time>2022-07-28T09:20:08Z</time>
      </trkpt>
      <trkpt lat="45.6597" lon="6.49548">
        <ele>2168</ele>
        <time>2022-07-28T09:20:09Z</time>
      </trkpt>
      <trkpt lat="45.65971" lon="6.49548">
        <ele>2168</ele>
        <time>2022-07-28T09:20:10Z</time>
      </trkpt>
      <trkpt lat="45.65971" lon="6.49548">
        <ele>2169</ele>
        <time>2022-07-28T09:20:11Z</time>
      </trkpt>
      <trkpt lat="45.65972" lon="6.49547">
        <ele>2169</ele>
        <time>2022-07-28T09:20:12Z</time>
      </trkpt>
      <trkpt lat="45.65972" lon="6.49546">
        <ele>2169</ele>
        <time>2022-07-28T09:20:13Z</time>
      </trkpt>
      <trkpt lat="45.65972" lon="6.49545">
        <ele>2169</ele>
        <time>2022-07-28T09:20:14Z</time>
      </trkpt>
      <trkpt lat="45.65973" lon="6.49544">
        <ele>2169</ele>
        <time>2022-07-28T09:20:15Z</time>
      </trkpt>
      <trkpt lat="45.65973" lon="6.49543">
        <ele>2170</ele>
        <time>2022-07-28T09:20:16Z</time>
      </trkpt>
      <trkpt lat="45.65973" lon="6.49542">
        <ele>2170</ele>
        <time>2022-07-28T09:20:17Z</time>
      </trkpt>
      <trkpt lat="45.65973" lon="6.4954">
        <ele>2170</ele>
        <time>2022-07-28T09:20:18Z</time>
      </trkpt>
      <trkpt lat="45.65974" lon="6.49539">
        <ele>2170</ele>
        <time>2022-07-28T09:20:19Z</time>
      </trkpt>
      <trkpt lat="45.65974" lon="6.49537">
        <ele>2170</ele>
        <time>2022-07-28T09:20:20Z</time>
      </trkpt>
      <trkpt lat="45.65974" lon="6.49536">
        <ele>2170</ele>
        <time>2022-07-28T09:20:21Z</time>
      </trkpt>
      <trkpt lat="45.65974" lon="6.49534">
        <ele>2170</ele>
        <time>2022-07-28T09:20:22Z</time>
      </trkpt>
      <trkpt lat="45.65974" lon="6.49533">
        <ele>2170</ele>
        <time>2022-07-28T09:20:23Z</time>
      </trkpt>
      <trkpt lat="45.65974" lon="6.49531">
        <ele>2171</ele>
        <time>2022-07-28T09:20:24Z</time>
      </trkpt>
      <trkpt lat="45.65974" lon="6.4953">
        <ele>2171</ele>
        <time>2022-07-28T09:20:25Z</time>
      </trkpt>
      <trkpt lat="45.65975" lon="6.49529">
        <ele>2172</ele>
        <time>2022-07-28T09:20:26Z</time>
      </trkpt>
      <trkpt lat="45.65975" lon="6.49528">
        <ele>2172</ele>
        <time>2022-07-28T09:20:27Z</time>
      </trkpt>
      <trkpt lat="45.65975" lon="6.49526">
        <ele>2172</ele>
        <time>2022-07-28T09:20:28Z</time>
      </trkpt>
      <trkpt lat="45.65976" lon="6.49525">
        <ele>2172</ele>
        <time>2022-07-28T09:20:29Z</time>
      </trkpt>
      <trkpt lat="45.65976" lon="6.49524">
        <ele>2172</ele>
        <time>2022-07-28T09:20:30Z</time>
      </trkpt>
      <trkpt lat="45.65977" lon="6.49523">
        <ele>2172</ele>
        <time>2022-07-28T09:20:31Z</time>
      </trkpt>
      <trkpt lat="45.65978" lon="6.49522">
        <ele>2172</ele>
        <time>2022-07-28T09:20:32Z</time>
      </trkpt>
      <trkpt lat="45.65979" lon="6.49521">
        <ele>2172</ele>
        <time>2022-07-28T09:20:33Z</time>
      </trkpt>
      <trkpt lat="45.6598" lon="6.4952">
        <ele>2172</ele>
        <time>2022-07-28T09:20:34Z</time>
      </trkpt>
      <trkpt lat="45.65981" lon="6.4952">
        <ele>2172</ele>
        <time>2022-07-28T09:20:35Z</time>
      </trkpt>
      <trkpt lat="45.65982" lon="6.49519">
        <ele>2173</ele>
        <time>2022-07-28T09:20:36Z</time>
      </trkpt>
      <trkpt lat="45.65983" lon="6.49519">
        <ele>2173</ele>
        <time>2022-07-28T09:20:37Z</time>
      </trkpt>
      <trkpt lat="45.65983" lon="6.49519">
        <ele>2173</ele>
        <time>2022-07-28T09:20:38Z</time>
      </trkpt>
      <trkpt lat="45.65984" lon="6.4952">
        <ele>2173</ele>
        <time>2022-07-28T09:20:39Z</time>
      </trkpt>
      <trkpt lat="45.65985" lon="6.4952">
        <ele>2173</ele>
        <time>2022-07-28T09:20:40Z</time>
      </trkpt>
      <trkpt lat="45.65986" lon="6.49521">
        <ele>2173</ele>
        <time>2022-07-28T09:20:41Z</time>
      </trkpt>
      <trkpt lat="45.65987" lon="6.49521">
        <ele>2173</ele>
        <time>2022-07-28T09:20:42Z</time>
      </trkpt>
      <trkpt lat="45.65987" lon="6.49522">
        <ele>2173</ele>
        <time>2022-07-28T09:20:43Z</time>
      </trkpt>
      <trkpt lat="45.65988" lon="6.49522">
        <ele>2173</ele>
        <time>2022-07-28T09:20:44Z</time>
      </trkpt>
      <trkpt lat="45.65988" lon="6.49523">
        <ele>2173</ele>
        <time>2022-07-28T09:20:45Z</time>
      </trkpt>
      <trkpt lat="45.65989" lon="6.49523">
        <ele>2174</ele>
        <time>2022-07-28T09:20:46Z</time>
      </trkpt>
      <trkpt lat="45.65989" lon="6.49523">
        <ele>2174</ele>
        <time>2022-07-28T09:20:47Z</time>
      </trkpt>
      <trkpt lat="45.6599" lon="6.49523">
        <ele>2174</ele>
        <time>2022-07-28T09:20:48Z</time>
      </trkpt>
      <trkpt lat="45.65991" lon="6.49522">
        <ele>2174</ele>
        <time>2022-07-28T09:20:49Z</time>
      </trkpt>
      <trkpt lat="45.65991" lon="6.49522">
        <ele>2174</ele>
        <time>2022-07-28T09:20:50Z</time>
      </trkpt>
      <trkpt lat="45.65992" lon="6.49521">
        <ele>2175</ele>
        <time>2022-07-28T09:20:51Z</time>
      </trkpt>
      <trkpt lat="45.65993" lon="6.49521">
        <ele>2175</ele>
        <time>2022-07-28T09:20:52Z</time>
      </trkpt>
      <trkpt lat="45.65994" lon="6.4952">
        <ele>2175</ele>
        <time>2022-07-28T09:20:53Z</time>
      </trkpt>
      <trkpt lat="45.65995" lon="6.4952">
        <ele>2175</ele>
        <time>2022-07-28T09:20:54Z</time>
      </trkpt>
      <trkpt lat="45.65996" lon="6.49519">
        <ele>2175</ele>
        <time>2022-07-28T09:20:55Z</time>
      </trkpt>
      <trkpt lat="45.65997" lon="6.49519">
        <ele>2175</ele>
        <time>2022-07-28T09:20:56Z</time>
      </trkpt>
      <trkpt lat="45.65998" lon="6.49518">
        <ele>2175</ele>
        <time>2022-07-28T09:20:57Z</time>
      </trkpt>
      <trkpt lat="45.65999" lon="6.49518">
        <ele>2175</ele>
        <time>2022-07-28T09:20:58Z</time>
      </trkpt>
      <trkpt lat="45.66" lon="6.49518">
        <ele>2175</ele>
        <time>2022-07-28T09:20:59Z</time>
      </trkpt>
      <trkpt lat="45.66001" lon="6.49517">
        <ele>2175</ele>
        <time>2022-07-28T09:21:00Z</time>
      </trkpt>
      <trkpt lat="45.66002" lon="6.49517">
        <ele>2176</ele>
        <time>2022-07-28T09:21:01Z</time>
      </trkpt>
      <trkpt lat="45.66002" lon="6.49516">
        <ele>2176</ele>
        <time>2022-07-28T09:21:02Z</time>
      </trkpt>
      <trkpt lat="45.66003" lon="6.49516">
        <ele>2176</ele>
        <time>2022-07-28T09:21:03Z</time>
      </trkpt>
      <trkpt lat="45.66004" lon="6.49516">
        <ele>2176</ele>
        <time>2022-07-28T09:21:04Z</time>
      </trkpt>
      <trkpt lat="45.66005" lon="6.49515">
        <ele>2176</ele>
        <time>2022-07-28T09:21:05Z</time>
      </trkpt>
      <trkpt lat="45.66006" lon="6.49515">
        <ele>2176</ele>
        <time>2022-07-28T09:21:06Z</time>
      </trkpt>
      <trkpt lat="45.66007" lon="6.49514">
        <ele>2176</ele>
        <time>2022-07-28T09:21:07Z</time>
      </trkpt>
      <trkpt lat="45.66008" lon="6.49514">
        <ele>2176</ele>
        <time>2022-07-28T09:21:08Z</time>
      </trkpt>
      <trkpt lat="45.66008" lon="6.49514">
        <ele>2176</ele>
        <time>2022-07-28T09:21:09Z</time>
      </trkpt>
      <trkpt lat="45.66009" lon="6.49513">
        <ele>2176</ele>
        <time>2022-07-28T09:21:10Z</time>
      </trkpt>
      <trkpt lat="45.6601" lon="6.49514">
        <ele>2178</ele>
        <time>2022-07-28T09:22:58Z</time>
      </trkpt>
      <trkpt lat="45.6601" lon="6.49514">
        <ele>2178</ele>
        <time>2022-07-28T09:22:59Z</time>
      </trkpt>
      <trkpt lat="45.6601" lon="6.49515">
        <ele>2178</ele>
        <time>2022-07-28T09:23:00Z</time>
      </trkpt>
      <trkpt lat="45.66011" lon="6.49514">
        <ele>2178</ele>
        <time>2022-07-28T09:23:24Z</time>
      </trkpt>
      <trkpt lat="45.66012" lon="6.49514">
        <ele>2178</ele>
        <time>2022-07-28T09:23:25Z</time>
      </trkpt>
      <trkpt lat="45.66012" lon="6.49514">
        <ele>2178</ele>
        <time>2022-07-28T09:23:26Z</time>
      </trkpt>
      <trkpt lat="45.66013" lon="6.49513">
        <ele>2178</ele>
        <time>2022-07-28T09:23:27Z</time>
      </trkpt>
      <trkpt lat="45.66014" lon="6.49513">
        <ele>2178</ele>
        <time>2022-07-28T09:23:28Z</time>
      </trkpt>
      <trkpt lat="45.66015" lon="6.49512">
        <ele>2178</ele>
        <time>2022-07-28T09:23:29Z</time>
      </trkpt>
      <trkpt lat="45.66016" lon="6.49512">
        <ele>2178</ele>
        <time>2022-07-28T09:23:30Z</time>
      </trkpt>
      <trkpt lat="45.66017" lon="6.49511">
        <ele>2178</ele>
        <time>2022-07-28T09:23:31Z</time>
      </trkpt>
      <trkpt lat="45.66018" lon="6.4951">
        <ele>2178</ele>
        <time>2022-07-28T09:23:32Z</time>
      </trkpt>
      <trkpt lat="45.66019" lon="6.49509">
        <ele>2178</ele>
        <time>2022-07-28T09:23:33Z</time>
      </trkpt>
      <trkpt lat="45.6602" lon="6.49508">
        <ele>2178</ele>
        <time>2022-07-28T09:23:34Z</time>
      </trkpt>
      <trkpt lat="45.66022" lon="6.49507">
        <ele>2178</ele>
        <time>2022-07-28T09:23:35Z</time>
      </trkpt>
      <trkpt lat="45.66023" lon="6.49506">
        <ele>2178</ele>
        <time>2022-07-28T09:23:36Z</time>
      </trkpt>
      <trkpt lat="45.66024" lon="6.49506">
        <ele>2178</ele>
        <time>2022-07-28T09:23:37Z</time>
      </trkpt>
      <trkpt lat="45.66025" lon="6.49506">
        <ele>2178</ele>
        <time>2022-07-28T09:23:38Z</time>
      </trkpt>
      <trkpt lat="45.66027" lon="6.49505">
        <ele>2178</ele>
        <time>2022-07-28T09:23:39Z</time>
      </trkpt>
      <trkpt lat="45.66028" lon="6.49505">
        <ele>2178</ele>
        <time>2022-07-28T09:23:40Z</time>
      </trkpt>
      <trkpt lat="45.66029" lon="6.49505">
        <ele>2178</ele>
        <time>2022-07-28T09:23:41Z</time>
      </trkpt>
      <trkpt lat="45.66031" lon="6.49505">
        <ele>2178</ele>
        <time>2022-07-28T09:23:42Z</time>
      </trkpt>
      <trkpt lat="45.66032" lon="6.49506">
        <ele>2178</ele>
        <time>2022-07-28T09:23:43Z</time>
      </trkpt>
      <trkpt lat="45.66033" lon="6.49506">
        <ele>2178</ele>
        <time>2022-07-28T09:23:44Z</time>
      </trkpt>
      <trkpt lat="45.66034" lon="6.49506">
        <ele>2178</ele>
        <time>2022-07-28T09:23:45Z</time>
      </trkpt>
      <trkpt lat="45.66036" lon="6.49507">
        <ele>2178</ele>
        <time>2022-07-28T09:23:46Z</time>
      </trkpt>
      <trkpt lat="45.66037" lon="6.49507">
        <ele>2178</ele>
        <time>2022-07-28T09:23:47Z</time>
      </trkpt>
      <trkpt lat="45.66038" lon="6.49508">
        <ele>2178</ele>
        <time>2022-07-28T09:23:48Z</time>
      </trkpt>
      <trkpt lat="45.66039" lon="6.49508">
        <ele>2178</ele>
        <time>2022-07-28T09:23:49Z</time>
      </trkpt>
      <trkpt lat="45.6604" lon="6.49508">
        <ele>2178</ele>
        <time>2022-07-28T09:23:50Z</time>
      </trkpt>
      <trkpt lat="45.66042" lon="6.49507">
        <ele>2178</ele>
        <time>2022-07-28T09:23:51Z</time>
      </trkpt>
      <trkpt lat="45.66043" lon="6.49507">
        <ele>2178</ele>
        <time>2022-07-28T09:23:52Z</time>
      </trkpt>
      <trkpt lat="45.66044" lon="6.49506">
        <ele>2178</ele>
        <time>2022-07-28T09:23:53Z</time>
      </trkpt>
      <trkpt lat="45.66045" lon="6.49505">
        <ele>2178</ele>
        <time>2022-07-28T09:23:54Z</time>
      </trkpt>
      <trkpt lat="45.66046" lon="6.49505">
        <ele>2178</ele>
        <time>2022-07-28T09:23:55Z</time>
      </trkpt>
      <trkpt lat="45.66047" lon="6.49504">
        <ele>2179</ele>
        <time>2022-07-28T09:23:56Z</time>
      </trkpt>
      <trkpt lat="45.66048" lon="6.49503">
        <ele>2179</ele>
        <time>2022-07-28T09:23:57Z</time>
      </trkpt>
      <trkpt lat="45.66049" lon="6.49502">
        <ele>2179</ele>
        <time>2022-07-28T09:23:58Z</time>
      </trkpt>
      <trkpt lat="45.6605" lon="6.49501">
        <ele>2179</ele>
        <time>2022-07-28T09:23:59Z</time>
      </trkpt>
      <trkpt lat="45.66051" lon="6.49501">
        <ele>2179</ele>
        <time>2022-07-28T09:24:00Z</time>
      </trkpt>
      <trkpt lat="45.66052" lon="6.495">
        <ele>2179</ele>
        <time>2022-07-28T09:24:01Z</time>
      </trkpt>
      <trkpt lat="45.66053" lon="6.495">
        <ele>2179</ele>
        <time>2022-07-28T09:24:02Z</time>
      </trkpt>
      <trkpt lat="45.66054" lon="6.49499">
        <ele>2179</ele>
        <time>2022-07-28T09:24:03Z</time>
      </trkpt>
      <trkpt lat="45.66055" lon="6.49499">
        <ele>2179</ele>
        <time>2022-07-28T09:24:04Z</time>
      </trkpt>
      <trkpt lat="45.66056" lon="6.49499">
        <ele>2179</ele>
        <time>2022-07-28T09:24:05Z</time>
      </trkpt>
      <trkpt lat="45.66057" lon="6.49499">
        <ele>2180</ele>
        <time>2022-07-28T09:24:06Z</time>
      </trkpt>
      <trkpt lat="45.66059" lon="6.49498">
        <ele>2180</ele>
        <time>2022-07-28T09:24:07Z</time>
      </trkpt>
      <trkpt lat="45.6606" lon="6.49498">
        <ele>2180</ele>
        <time>2022-07-28T09:24:08Z</time>
      </trkpt>
      <trkpt lat="45.66061" lon="6.49497">
        <ele>2180</ele>
        <time>2022-07-28T09:24:09Z</time>
      </trkpt>
      <trkpt lat="45.66062" lon="6.49497">
        <ele>2180</ele>
        <time>2022-07-28T09:24:10Z</time>
      </trkpt>
      <trkpt lat="45.66063" lon="6.49496">
        <ele>2180</ele>
        <time>2022-07-28T09:24:11Z</time>
      </trkpt>
      <trkpt lat="45.66064" lon="6.49495">
        <ele>2180</ele>
        <time>2022-07-28T09:24:12Z</time>
      </trkpt>
      <trkpt lat="45.66065" lon="6.49494">
        <ele>2180</ele>
        <time>2022-07-28T09:24:13Z</time>
      </trkpt>
      <trkpt lat="45.66066" lon="6.49493">
        <ele>2180</ele>
        <time>2022-07-28T09:24:14Z</time>
      </trkpt>
      <trkpt lat="45.66067" lon="6.49492">
        <ele>2180</ele>
        <time>2022-07-28T09:24:15Z</time>
      </trkpt>
      <trkpt lat="45.66068" lon="6.49491">
        <ele>2181</ele>
        <time>2022-07-28T09:24:16Z</time>
      </trkpt>
      <trkpt lat="45.66069" lon="6.4949">
        <ele>2181</ele>
        <time>2022-07-28T09:24:17Z</time>
      </trkpt>
      <trkpt lat="45.6607" lon="6.49489">
        <ele>2181</ele>
        <time>2022-07-28T09:24:18Z</time>
      </trkpt>
      <trkpt lat="45.66071" lon="6.49488">
        <ele>2181</ele>
        <time>2022-07-28T09:24:19Z</time>
      </trkpt>
      <trkpt lat="45.66072" lon="6.49487">
        <ele>2181</ele>
        <time>2022-07-28T09:24:20Z</time>
      </trkpt>
      <trkpt lat="45.66073" lon="6.49486">
        <ele>2181</ele>
        <time>2022-07-28T09:24:21Z</time>
      </trkpt>
      <trkpt lat="45.66073" lon="6.49485">
        <ele>2181</ele>
        <time>2022-07-28T09:24:22Z</time>
      </trkpt>
      <trkpt lat="45.66074" lon="6.49484">
        <ele>2181</ele>
        <time>2022-07-28T09:24:23Z</time>
      </trkpt>
      <trkpt lat="45.66075" lon="6.49482">
        <ele>2181</ele>
        <time>2022-07-28T09:24:24Z</time>
      </trkpt>
      <trkpt lat="45.66076" lon="6.49481">
        <ele>2181</ele>
        <time>2022-07-28T09:24:25Z</time>
      </trkpt>
      <trkpt lat="45.66077" lon="6.4948">
        <ele>2181</ele>
        <time>2022-07-28T09:24:26Z</time>
      </trkpt>
      <trkpt lat="45.66078" lon="6.49478">
        <ele>2181</ele>
        <time>2022-07-28T09:24:27Z</time>
      </trkpt>
      <trkpt lat="45.66079" lon="6.49477">
        <ele>2181</ele>
        <time>2022-07-28T09:24:28Z</time>
      </trkpt>
      <trkpt lat="45.6608" lon="6.49476">
        <ele>2181</ele>
        <time>2022-07-28T09:24:29Z</time>
      </trkpt>
      <trkpt lat="45.66081" lon="6.49475">
        <ele>2181</ele>
        <time>2022-07-28T09:24:30Z</time>
      </trkpt>
      <trkpt lat="45.66082" lon="6.49475">
        <ele>2181</ele>
        <time>2022-07-28T09:24:31Z</time>
      </trkpt>
      <trkpt lat="45.66083" lon="6.49474">
        <ele>2181</ele>
        <time>2022-07-28T09:24:32Z</time>
      </trkpt>
      <trkpt lat="45.66084" lon="6.49473">
        <ele>2181</ele>
        <time>2022-07-28T09:24:33Z</time>
      </trkpt>
      <trkpt lat="45.66085" lon="6.49472">
        <ele>2181</ele>
        <time>2022-07-28T09:24:34Z</time>
      </trkpt>
      <trkpt lat="45.66086" lon="6.49472">
        <ele>2181</ele>
        <time>2022-07-28T09:24:35Z</time>
      </trkpt>
      <trkpt lat="45.66087" lon="6.49471">
        <ele>2182</ele>
        <time>2022-07-28T09:24:36Z</time>
      </trkpt>
      <trkpt lat="45.66088" lon="6.4947">
        <ele>2182</ele>
        <time>2022-07-28T09:24:37Z</time>
      </trkpt>
      <trkpt lat="45.66089" lon="6.4947">
        <ele>2182</ele>
        <time>2022-07-28T09:24:38Z</time>
      </trkpt>
      <trkpt lat="45.6609" lon="6.49469">
        <ele>2182</ele>
        <time>2022-07-28T09:24:39Z</time>
      </trkpt>
      <trkpt lat="45.66091" lon="6.49469">
        <ele>2182</ele>
        <time>2022-07-28T09:24:40Z</time>
      </trkpt>
      <trkpt lat="45.66093" lon="6.49468">
        <ele>2182</ele>
        <time>2022-07-28T09:24:41Z</time>
      </trkpt>
      <trkpt lat="45.66094" lon="6.49467">
        <ele>2182</ele>
        <time>2022-07-28T09:24:42Z</time>
      </trkpt>
      <trkpt lat="45.66095" lon="6.49467">
        <ele>2182</ele>
        <time>2022-07-28T09:24:43Z</time>
      </trkpt>
      <trkpt lat="45.66096" lon="6.49466">
        <ele>2182</ele>
        <time>2022-07-28T09:24:44Z</time>
      </trkpt>
      <trkpt lat="45.66097" lon="6.49465">
        <ele>2182</ele>
        <time>2022-07-28T09:24:45Z</time>
      </trkpt>
      <trkpt lat="45.66098" lon="6.49465">
        <ele>2182</ele>
        <time>2022-07-28T09:24:46Z</time>
      </trkpt>
      <trkpt lat="45.66099" lon="6.49464">
        <ele>2182</ele>
        <time>2022-07-28T09:24:47Z</time>
      </trkpt>
      <trkpt lat="45.66101" lon="6.49464">
        <ele>2182</ele>
        <time>2022-07-28T09:24:48Z</time>
      </trkpt>
      <trkpt lat="45.66102" lon="6.49463">
        <ele>2182</ele>
        <time>2022-07-28T09:24:49Z</time>
      </trkpt>
      <trkpt lat="45.66103" lon="6.49463">
        <ele>2182</ele>
        <time>2022-07-28T09:24:50Z</time>
      </trkpt>
      <trkpt lat="45.66104" lon="6.49462">
        <ele>2183</ele>
        <time>2022-07-28T09:24:51Z</time>
      </trkpt>
      <trkpt lat="45.66105" lon="6.49462">
        <ele>2183</ele>
        <time>2022-07-28T09:24:52Z</time>
      </trkpt>
      <trkpt lat="45.66106" lon="6.49461">
        <ele>2183</ele>
        <time>2022-07-28T09:24:53Z</time>
      </trkpt>
      <trkpt lat="45.66107" lon="6.4946">
        <ele>2183</ele>
        <time>2022-07-28T09:24:54Z</time>
      </trkpt>
      <trkpt lat="45.66108" lon="6.49459">
        <ele>2183</ele>
        <time>2022-07-28T09:24:55Z</time>
      </trkpt>
      <trkpt lat="45.66109" lon="6.49458">
        <ele>2183</ele>
        <time>2022-07-28T09:24:56Z</time>
      </trkpt>
      <trkpt lat="45.6611" lon="6.49457">
        <ele>2183</ele>
        <time>2022-07-28T09:24:57Z</time>
      </trkpt>
      <trkpt lat="45.66111" lon="6.49456">
        <ele>2183</ele>
        <time>2022-07-28T09:24:58Z</time>
      </trkpt>
      <trkpt lat="45.66112" lon="6.49455">
        <ele>2183</ele>
        <time>2022-07-28T09:24:59Z</time>
      </trkpt>
      <trkpt lat="45.66113" lon="6.49454">
        <ele>2183</ele>
        <time>2022-07-28T09:25:00Z</time>
      </trkpt>
      <trkpt lat="45.66114" lon="6.49453">
        <ele>2183</ele>
        <time>2022-07-28T09:25:01Z</time>
      </trkpt>
      <trkpt lat="45.66115" lon="6.49452">
        <ele>2183</ele>
        <time>2022-07-28T09:25:02Z</time>
      </trkpt>
      <trkpt lat="45.66116" lon="6.49452">
        <ele>2183</ele>
        <time>2022-07-28T09:25:03Z</time>
      </trkpt>
      <trkpt lat="45.66118" lon="6.49451">
        <ele>2183</ele>
        <time>2022-07-28T09:25:04Z</time>
      </trkpt>
      <trkpt lat="45.66119" lon="6.4945">
        <ele>2183</ele>
        <time>2022-07-28T09:25:05Z</time>
      </trkpt>
      <trkpt lat="45.6612" lon="6.49449">
        <ele>2183</ele>
        <time>2022-07-28T09:25:06Z</time>
      </trkpt>
      <trkpt lat="45.66121" lon="6.49449">
        <ele>2183</ele>
        <time>2022-07-28T09:25:07Z</time>
      </trkpt>
      <trkpt lat="45.66122" lon="6.49448">
        <ele>2183</ele>
        <time>2022-07-28T09:25:08Z</time>
      </trkpt>
      <trkpt lat="45.66123" lon="6.49448">
        <ele>2183</ele>
        <time>2022-07-28T09:25:09Z</time>
      </trkpt>
      <trkpt lat="45.66125" lon="6.49447">
        <ele>2183</ele>
        <time>2022-07-28T09:25:10Z</time>
      </trkpt>
      <trkpt lat="45.66126" lon="6.49447">
        <ele>2183</ele>
        <time>2022-07-28T09:25:11Z</time>
      </trkpt>
      <trkpt lat="45.66127" lon="6.49447">
        <ele>2183</ele>
        <time>2022-07-28T09:25:12Z</time>
      </trkpt>
      <trkpt lat="45.66128" lon="6.49447">
        <ele>2183</ele>
        <time>2022-07-28T09:25:13Z</time>
      </trkpt>
      <trkpt lat="45.6613" lon="6.49447">
        <ele>2183</ele>
        <time>2022-07-28T09:25:14Z</time>
      </trkpt>
      <trkpt lat="45.66131" lon="6.49447">
        <ele>2183</ele>
        <time>2022-07-28T09:25:15Z</time>
      </trkpt>
      <trkpt lat="45.66132" lon="6.49447">
        <ele>2183</ele>
        <time>2022-07-28T09:25:16Z</time>
      </trkpt>
      <trkpt lat="45.66133" lon="6.49448">
        <ele>2183</ele>
        <time>2022-07-28T09:25:17Z</time>
      </trkpt>
      <trkpt lat="45.66134" lon="6.49448">
        <ele>2183</ele>
        <time>2022-07-28T09:25:18Z</time>
      </trkpt>
      <trkpt lat="45.66135" lon="6.49448">
        <ele>2183</ele>
        <time>2022-07-28T09:25:19Z</time>
      </trkpt>
      <trkpt lat="45.66136" lon="6.49449">
        <ele>2183</ele>
        <time>2022-07-28T09:25:20Z</time>
      </trkpt>
      <trkpt lat="45.66137" lon="6.49448">
        <ele>2183</ele>
        <time>2022-07-28T09:25:21Z</time>
      </trkpt>
      <trkpt lat="45.66138" lon="6.49448">
        <ele>2183</ele>
        <time>2022-07-28T09:25:22Z</time>
      </trkpt>
      <trkpt lat="45.66138" lon="6.49447">
        <ele>2183</ele>
        <time>2022-07-28T09:25:23Z</time>
      </trkpt>
      <trkpt lat="45.66139" lon="6.49446">
        <ele>2183</ele>
        <time>2022-07-28T09:25:24Z</time>
      </trkpt>
      <trkpt lat="45.6614" lon="6.49445">
        <ele>2183</ele>
        <time>2022-07-28T09:25:25Z</time>
      </trkpt>
      <trkpt lat="45.6614" lon="6.49444">
        <ele>2184</ele>
        <time>2022-07-28T09:25:26Z</time>
      </trkpt>
      <trkpt lat="45.66141" lon="6.49443">
        <ele>2184</ele>
        <time>2022-07-28T09:25:27Z</time>
      </trkpt>
      <trkpt lat="45.66142" lon="6.49442">
        <ele>2184</ele>
        <time>2022-07-28T09:25:28Z</time>
      </trkpt>
      <trkpt lat="45.66143" lon="6.49441">
        <ele>2184</ele>
        <time>2022-07-28T09:25:29Z</time>
      </trkpt>
      <trkpt lat="45.66144" lon="6.4944">
        <ele>2184</ele>
        <time>2022-07-28T09:25:30Z</time>
      </trkpt>
      <trkpt lat="45.66144" lon="6.4944">
        <ele>2185</ele>
        <time>2022-07-28T09:25:31Z</time>
      </trkpt>
      <trkpt lat="45.66145" lon="6.4944">
        <ele>2185</ele>
        <time>2022-07-28T09:25:32Z</time>
      </trkpt>
      <trkpt lat="45.66146" lon="6.49441">
        <ele>2185</ele>
        <time>2022-07-28T09:25:33Z</time>
      </trkpt>
      <trkpt lat="45.66146" lon="6.49441">
        <ele>2185</ele>
        <time>2022-07-28T09:25:34Z</time>
      </trkpt>
      <trkpt lat="45.66147" lon="6.49441">
        <ele>2185</ele>
        <time>2022-07-28T09:25:35Z</time>
      </trkpt>
      <trkpt lat="45.66147" lon="6.49442">
        <ele>2186</ele>
        <time>2022-07-28T09:25:36Z</time>
      </trkpt>
      <trkpt lat="45.66148" lon="6.49442">
        <ele>2186</ele>
        <time>2022-07-28T09:25:37Z</time>
      </trkpt>
      <trkpt lat="45.66149" lon="6.49443">
        <ele>2186</ele>
        <time>2022-07-28T09:25:38Z</time>
      </trkpt>
      <trkpt lat="45.66149" lon="6.49443">
        <ele>2186</ele>
        <time>2022-07-28T09:25:39Z</time>
      </trkpt>
      <trkpt lat="45.66149" lon="6.49443">
        <ele>2186</ele>
        <time>2022-07-28T09:25:40Z</time>
      </trkpt>
      <trkpt lat="45.66149" lon="6.49443">
        <ele>2186</ele>
        <time>2022-07-28T09:25:41Z</time>
      </trkpt>
      <trkpt lat="45.6615" lon="6.49443">
        <ele>2186</ele>
        <time>2022-07-28T09:25:42Z</time>
      </trkpt>
      <trkpt lat="45.6615" lon="6.49444">
        <ele>2186</ele>
        <time>2022-07-28T09:25:43Z</time>
      </trkpt>
      <trkpt lat="45.66151" lon="6.49444">
        <ele>2186</ele>
        <time>2022-07-28T09:25:44Z</time>
      </trkpt>
      <trkpt lat="45.66152" lon="6.49444">
        <ele>2186</ele>
        <time>2022-07-28T09:25:45Z</time>
      </trkpt>
      <trkpt lat="45.66152" lon="6.49445">
        <ele>2187</ele>
        <time>2022-07-28T09:25:46Z</time>
      </trkpt>
      <trkpt lat="45.66153" lon="6.49446">
        <ele>2187</ele>
        <time>2022-07-28T09:25:47Z</time>
      </trkpt>
      <trkpt lat="45.66154" lon="6.49447">
        <ele>2187</ele>
        <time>2022-07-28T09:25:48Z</time>
      </trkpt>
      <trkpt lat="45.66155" lon="6.49448">
        <ele>2187</ele>
        <time>2022-07-28T09:25:49Z</time>
      </trkpt>
      <trkpt lat="45.66156" lon="6.49449">
        <ele>2187</ele>
        <time>2022-07-28T09:25:50Z</time>
      </trkpt>
      <trkpt lat="45.66157" lon="6.49449">
        <ele>2187</ele>
        <time>2022-07-28T09:25:51Z</time>
      </trkpt>
      <trkpt lat="45.66158" lon="6.4945">
        <ele>2187</ele>
        <time>2022-07-28T09:25:52Z</time>
      </trkpt>
      <trkpt lat="45.66159" lon="6.49451">
        <ele>2187</ele>
        <time>2022-07-28T09:25:53Z</time>
      </trkpt>
      <trkpt lat="45.6616" lon="6.49451">
        <ele>2187</ele>
        <time>2022-07-28T09:25:54Z</time>
      </trkpt>
      <trkpt lat="45.66161" lon="6.49451">
        <ele>2187</ele>
        <time>2022-07-28T09:25:55Z</time>
      </trkpt>
      <trkpt lat="45.66162" lon="6.49451">
        <ele>2188</ele>
        <time>2022-07-28T09:25:56Z</time>
      </trkpt>
      <trkpt lat="45.66162" lon="6.49451">
        <ele>2188</ele>
        <time>2022-07-28T09:25:57Z</time>
      </trkpt>
      <trkpt lat="45.66163" lon="6.49451">
        <ele>2188</ele>
        <time>2022-07-28T09:25:58Z</time>
      </trkpt>
      <trkpt lat="45.66164" lon="6.4945">
        <ele>2188</ele>
        <time>2022-07-28T09:25:59Z</time>
      </trkpt>
      <trkpt lat="45.66165" lon="6.4945">
        <ele>2188</ele>
        <time>2022-07-28T09:26:00Z</time>
      </trkpt>
      <trkpt lat="45.66165" lon="6.4945">
        <ele>2189</ele>
        <time>2022-07-28T09:26:01Z</time>
      </trkpt>
      <trkpt lat="45.66166" lon="6.4945">
        <ele>2189</ele>
        <time>2022-07-28T09:26:02Z</time>
      </trkpt>
      <trkpt lat="45.66167" lon="6.49449">
        <ele>2189</ele>
        <time>2022-07-28T09:26:03Z</time>
      </trkpt>
      <trkpt lat="45.66167" lon="6.49448">
        <ele>2189</ele>
        <time>2022-07-28T09:26:04Z</time>
      </trkpt>
      <trkpt lat="45.66168" lon="6.49448">
        <ele>2189</ele>
        <time>2022-07-28T09:26:05Z</time>
      </trkpt>
      <trkpt lat="45.66169" lon="6.49447">
        <ele>2189</ele>
        <time>2022-07-28T09:26:06Z</time>
      </trkpt>
      <trkpt lat="45.6617" lon="6.49447">
        <ele>2189</ele>
        <time>2022-07-28T09:26:07Z</time>
      </trkpt>
      <trkpt lat="45.66171" lon="6.49447">
        <ele>2189</ele>
        <time>2022-07-28T09:26:08Z</time>
      </trkpt>
      <trkpt lat="45.66171" lon="6.49446">
        <ele>2190</ele>
        <time>2022-07-28T09:26:09Z</time>
      </trkpt>
      <trkpt lat="45.66172" lon="6.49446">
        <ele>2190</ele>
        <time>2022-07-28T09:26:10Z</time>
      </trkpt>
      <trkpt lat="45.66173" lon="6.49446">
        <ele>2191</ele>
        <time>2022-07-28T09:26:11Z</time>
      </trkpt>
      <trkpt lat="45.66174" lon="6.49446">
        <ele>2191</ele>
        <time>2022-07-28T09:26:12Z</time>
      </trkpt>
      <trkpt lat="45.66174" lon="6.49447">
        <ele>2191</ele>
        <time>2022-07-28T09:26:13Z</time>
      </trkpt>
      <trkpt lat="45.66175" lon="6.49447">
        <ele>2191</ele>
        <time>2022-07-28T09:26:14Z</time>
      </trkpt>
      <trkpt lat="45.66176" lon="6.49447">
        <ele>2191</ele>
        <time>2022-07-28T09:26:15Z</time>
      </trkpt>
      <trkpt lat="45.66176" lon="6.49447">
        <ele>2191</ele>
        <time>2022-07-28T09:26:16Z</time>
      </trkpt>
      <trkpt lat="45.66177" lon="6.49447">
        <ele>2191</ele>
        <time>2022-07-28T09:26:17Z</time>
      </trkpt>
      <trkpt lat="45.66178" lon="6.49447">
        <ele>2191</ele>
        <time>2022-07-28T09:26:18Z</time>
      </trkpt>
      <trkpt lat="45.66178" lon="6.49447">
        <ele>2191</ele>
        <time>2022-07-28T09:26:19Z</time>
      </trkpt>
      <trkpt lat="45.66179" lon="6.49448">
        <ele>2191</ele>
        <time>2022-07-28T09:26:20Z</time>
      </trkpt>
      <trkpt lat="45.6618" lon="6.49448">
        <ele>2192</ele>
        <time>2022-07-28T09:26:21Z</time>
      </trkpt>
      <trkpt lat="45.6618" lon="6.49449">
        <ele>2192</ele>
        <time>2022-07-28T09:26:22Z</time>
      </trkpt>
      <trkpt lat="45.66181" lon="6.49449">
        <ele>2192</ele>
        <time>2022-07-28T09:26:23Z</time>
      </trkpt>
      <trkpt lat="45.66182" lon="6.4945">
        <ele>2192</ele>
        <time>2022-07-28T09:26:24Z</time>
      </trkpt>
      <trkpt lat="45.66183" lon="6.4945">
        <ele>2192</ele>
        <time>2022-07-28T09:26:25Z</time>
      </trkpt>
      <trkpt lat="45.66184" lon="6.49451">
        <ele>2194</ele>
        <time>2022-07-28T09:26:33Z</time>
      </trkpt>
      <trkpt lat="45.66185" lon="6.49451">
        <ele>2194</ele>
        <time>2022-07-28T09:26:34Z</time>
      </trkpt>
      <trkpt lat="45.66186" lon="6.49452">
        <ele>2194</ele>
        <time>2022-07-28T09:26:35Z</time>
      </trkpt>
      <trkpt lat="45.66187" lon="6.49452">
        <ele>2194</ele>
        <time>2022-07-28T09:26:36Z</time>
      </trkpt>
      <trkpt lat="45.66188" lon="6.49452">
        <ele>2194</ele>
        <time>2022-07-28T09:26:37Z</time>
      </trkpt>
      <trkpt lat="45.66189" lon="6.49453">
        <ele>2194</ele>
        <time>2022-07-28T09:26:38Z</time>
      </trkpt>
      <trkpt lat="45.66189" lon="6.49454">
        <ele>2194</ele>
        <time>2022-07-28T09:26:39Z</time>
      </trkpt>
      <trkpt lat="45.6619" lon="6.49454">
        <ele>2194</ele>
        <time>2022-07-28T09:26:40Z</time>
      </trkpt>
      <trkpt lat="45.66191" lon="6.49455">
        <ele>2195</ele>
        <time>2022-07-28T09:26:41Z</time>
      </trkpt>
      <trkpt lat="45.66192" lon="6.49456">
        <ele>2195</ele>
        <time>2022-07-28T09:26:42Z</time>
      </trkpt>
      <trkpt lat="45.66193" lon="6.49456">
        <ele>2195</ele>
        <time>2022-07-28T09:26:43Z</time>
      </trkpt>
      <trkpt lat="45.66194" lon="6.49456">
        <ele>2195</ele>
        <time>2022-07-28T09:26:44Z</time>
      </trkpt>
      <trkpt lat="45.66194" lon="6.49456">
        <ele>2195</ele>
        <time>2022-07-28T09:26:45Z</time>
      </trkpt>
      <trkpt lat="45.66195" lon="6.49456">
        <ele>2195</ele>
        <time>2022-07-28T09:26:46Z</time>
      </trkpt>
      <trkpt lat="45.66195" lon="6.49456">
        <ele>2195</ele>
        <time>2022-07-28T09:26:47Z</time>
      </trkpt>
      <trkpt lat="45.66196" lon="6.49455">
        <ele>2195</ele>
        <time>2022-07-28T09:26:48Z</time>
      </trkpt>
      <trkpt lat="45.66196" lon="6.49455">
        <ele>2195</ele>
        <time>2022-07-28T09:26:49Z</time>
      </trkpt>
      <trkpt lat="45.66197" lon="6.49454">
        <ele>2195</ele>
        <time>2022-07-28T09:26:50Z</time>
      </trkpt>
      <trkpt lat="45.66197" lon="6.49454">
        <ele>2196</ele>
        <time>2022-07-28T09:26:51Z</time>
      </trkpt>
      <trkpt lat="45.66198" lon="6.49454">
        <ele>2196</ele>
        <time>2022-07-28T09:26:52Z</time>
      </trkpt>
      <trkpt lat="45.66199" lon="6.49454">
        <ele>2196</ele>
        <time>2022-07-28T09:26:53Z</time>
      </trkpt>
      <trkpt lat="45.66199" lon="6.49454">
        <ele>2196</ele>
        <time>2022-07-28T09:26:54Z</time>
      </trkpt>
      <trkpt lat="45.662" lon="6.49454">
        <ele>2196</ele>
        <time>2022-07-28T09:26:55Z</time>
      </trkpt>
      <trkpt lat="45.66201" lon="6.49454">
        <ele>2197</ele>
        <time>2022-07-28T09:26:56Z</time>
      </trkpt>
      <trkpt lat="45.66202" lon="6.49454">
        <ele>2197</ele>
        <time>2022-07-28T09:26:57Z</time>
      </trkpt>
      <trkpt lat="45.66202" lon="6.49454">
        <ele>2197</ele>
        <time>2022-07-28T09:26:58Z</time>
      </trkpt>
      <trkpt lat="45.66203" lon="6.49454">
        <ele>2197</ele>
        <time>2022-07-28T09:26:59Z</time>
      </trkpt>
      <trkpt lat="45.66204" lon="6.49454">
        <ele>2197</ele>
        <time>2022-07-28T09:27:00Z</time>
      </trkpt>
      <trkpt lat="45.66205" lon="6.49454">
        <ele>2197</ele>
        <time>2022-07-28T09:27:01Z</time>
      </trkpt>
      <trkpt lat="45.66206" lon="6.49453">
        <ele>2197</ele>
        <time>2022-07-28T09:27:02Z</time>
      </trkpt>
      <trkpt lat="45.66207" lon="6.49453">
        <ele>2197</ele>
        <time>2022-07-28T09:27:03Z</time>
      </trkpt>
      <trkpt lat="45.66208" lon="6.49452">
        <ele>2197</ele>
        <time>2022-07-28T09:27:04Z</time>
      </trkpt>
      <trkpt lat="45.66209" lon="6.49452">
        <ele>2197</ele>
        <time>2022-07-28T09:27:05Z</time>
      </trkpt>
      <trkpt lat="45.6621" lon="6.49451">
        <ele>2198</ele>
        <time>2022-07-28T09:27:06Z</time>
      </trkpt>
      <trkpt lat="45.6621" lon="6.4945">
        <ele>2198</ele>
        <time>2022-07-28T09:27:07Z</time>
      </trkpt>
      <trkpt lat="45.66211" lon="6.49448">
        <ele>2198</ele>
        <time>2022-07-28T09:27:08Z</time>
      </trkpt>
      <trkpt lat="45.66212" lon="6.49447">
        <ele>2199</ele>
        <time>2022-07-28T09:27:09Z</time>
      </trkpt>
      <trkpt lat="45.66213" lon="6.49446">
        <ele>2199</ele>
        <time>2022-07-28T09:27:10Z</time>
      </trkpt>
      <trkpt lat="45.66214" lon="6.49445">
        <ele>2200</ele>
        <time>2022-07-28T09:27:11Z</time>
      </trkpt>
      <trkpt lat="45.66215" lon="6.49445">
        <ele>2200</ele>
        <time>2022-07-28T09:27:12Z</time>
      </trkpt>
      <trkpt lat="45.66216" lon="6.49444">
        <ele>2200</ele>
        <time>2022-07-28T09:27:13Z</time>
      </trkpt>
      <trkpt lat="45.66217" lon="6.49444">
        <ele>2200</ele>
        <time>2022-07-28T09:27:14Z</time>
      </trkpt>
      <trkpt lat="45.66218" lon="6.49443">
        <ele>2200</ele>
        <time>2022-07-28T09:27:15Z</time>
      </trkpt>
      <trkpt lat="45.66219" lon="6.49443">
        <ele>2200</ele>
        <time>2022-07-28T09:27:16Z</time>
      </trkpt>
      <trkpt lat="45.6622" lon="6.49442">
        <ele>2200</ele>
        <time>2022-07-28T09:27:17Z</time>
      </trkpt>
      <trkpt lat="45.66221" lon="6.49442">
        <ele>2200</ele>
        <time>2022-07-28T09:27:18Z</time>
      </trkpt>
      <trkpt lat="45.66222" lon="6.49441">
        <ele>2200</ele>
        <time>2022-07-28T09:27:19Z</time>
      </trkpt>
      <trkpt lat="45.66223" lon="6.49441">
        <ele>2200</ele>
        <time>2022-07-28T09:27:20Z</time>
      </trkpt>
      <trkpt lat="45.66224" lon="6.4944">
        <ele>2201</ele>
        <time>2022-07-28T09:27:21Z</time>
      </trkpt>
      <trkpt lat="45.66225" lon="6.4944">
        <ele>2201</ele>
        <time>2022-07-28T09:27:22Z</time>
      </trkpt>
      <trkpt lat="45.66226" lon="6.49439">
        <ele>2201</ele>
        <time>2022-07-28T09:27:23Z</time>
      </trkpt>
      <trkpt lat="45.66227" lon="6.49439">
        <ele>2201</ele>
        <time>2022-07-28T09:27:24Z</time>
      </trkpt>
      <trkpt lat="45.66228" lon="6.49438">
        <ele>2201</ele>
        <time>2022-07-28T09:27:25Z</time>
      </trkpt>
      <trkpt lat="45.66228" lon="6.49438">
        <ele>2202</ele>
        <time>2022-07-28T09:27:26Z</time>
      </trkpt>
      <trkpt lat="45.66229" lon="6.49437">
        <ele>2202</ele>
        <time>2022-07-28T09:27:27Z</time>
      </trkpt>
      <trkpt lat="45.6623" lon="6.49437">
        <ele>2202</ele>
        <time>2022-07-28T09:27:28Z</time>
      </trkpt>
      <trkpt lat="45.66231" lon="6.49437">
        <ele>2202</ele>
        <time>2022-07-28T09:27:29Z</time>
      </trkpt>
      <trkpt lat="45.66232" lon="6.49437">
        <ele>2202</ele>
        <time>2022-07-28T09:27:30Z</time>
      </trkpt>
      <trkpt lat="45.66233" lon="6.49436">
        <ele>2203</ele>
        <time>2022-07-28T09:27:31Z</time>
      </trkpt>
      <trkpt lat="45.66234" lon="6.49436">
        <ele>2203</ele>
        <time>2022-07-28T09:27:32Z</time>
      </trkpt>
      <trkpt lat="45.66235" lon="6.49436">
        <ele>2203</ele>
        <time>2022-07-28T09:27:33Z</time>
      </trkpt>
      <trkpt lat="45.66235" lon="6.49436">
        <ele>2203</ele>
        <time>2022-07-28T09:27:34Z</time>
      </trkpt>
      <trkpt lat="45.66236" lon="6.49435">
        <ele>2203</ele>
        <time>2022-07-28T09:27:35Z</time>
      </trkpt>
      <trkpt lat="45.66237" lon="6.49435">
        <ele>2204</ele>
        <time>2022-07-28T09:27:36Z</time>
      </trkpt>
      <trkpt lat="45.66238" lon="6.49435">
        <ele>2204</ele>
        <time>2022-07-28T09:27:37Z</time>
      </trkpt>
      <trkpt lat="45.66238" lon="6.49434">
        <ele>2204</ele>
        <time>2022-07-28T09:27:38Z</time>
      </trkpt>
      <trkpt lat="45.66239" lon="6.49434">
        <ele>2204</ele>
        <time>2022-07-28T09:27:39Z</time>
      </trkpt>
      <trkpt lat="45.6624" lon="6.49434">
        <ele>2204</ele>
        <time>2022-07-28T09:27:40Z</time>
      </trkpt>
      <trkpt lat="45.6624" lon="6.49434">
        <ele>2204</ele>
        <time>2022-07-28T09:27:41Z</time>
      </trkpt>
      <trkpt lat="45.66241" lon="6.49433">
        <ele>2204</ele>
        <time>2022-07-28T09:27:42Z</time>
      </trkpt>
      <trkpt lat="45.66241" lon="6.49433">
        <ele>2204</ele>
        <time>2022-07-28T09:27:43Z</time>
      </trkpt>
      <trkpt lat="45.66242" lon="6.49432">
        <ele>2204</ele>
        <time>2022-07-28T09:27:44Z</time>
      </trkpt>
      <trkpt lat="45.66243" lon="6.49432">
        <ele>2204</ele>
        <time>2022-07-28T09:27:45Z</time>
      </trkpt>
      <trkpt lat="45.66244" lon="6.49431">
        <ele>2205</ele>
        <time>2022-07-28T09:27:46Z</time>
      </trkpt>
      <trkpt lat="45.66245" lon="6.49431">
        <ele>2205</ele>
        <time>2022-07-28T09:27:47Z</time>
      </trkpt>
      <trkpt lat="45.66246" lon="6.4943">
        <ele>2205</ele>
        <time>2022-07-28T09:27:48Z</time>
      </trkpt>
      <trkpt lat="45.66247" lon="6.49429">
        <ele>2205</ele>
        <time>2022-07-28T09:27:49Z</time>
      </trkpt>
      <trkpt lat="45.66248" lon="6.49429">
        <ele>2205</ele>
        <time>2022-07-28T09:27:50Z</time>
      </trkpt>
      <trkpt lat="45.66249" lon="6.49428">
        <ele>2205</ele>
        <time>2022-07-28T09:27:51Z</time>
      </trkpt>
      <trkpt lat="45.6625" lon="6.49427">
        <ele>2205</ele>
        <time>2022-07-28T09:27:52Z</time>
      </trkpt>
      <trkpt lat="45.66251" lon="6.49426">
        <ele>2205</ele>
        <time>2022-07-28T09:27:53Z</time>
      </trkpt>
      <trkpt lat="45.66251" lon="6.49425">
        <ele>2205</ele>
        <time>2022-07-28T09:27:54Z</time>
      </trkpt>
      <trkpt lat="45.66252" lon="6.49424">
        <ele>2205</ele>
        <time>2022-07-28T09:27:55Z</time>
      </trkpt>
      <trkpt lat="45.66253" lon="6.49423">
        <ele>2206</ele>
        <time>2022-07-28T09:27:56Z</time>
      </trkpt>
      <trkpt lat="45.66253" lon="6.49422">
        <ele>2206</ele>
        <time>2022-07-28T09:27:57Z</time>
      </trkpt>
      <trkpt lat="45.66254" lon="6.49421">
        <ele>2206</ele>
        <time>2022-07-28T09:27:58Z</time>
      </trkpt>
      <trkpt lat="45.66255" lon="6.4942">
        <ele>2206</ele>
        <time>2022-07-28T09:27:59Z</time>
      </trkpt>
      <trkpt lat="45.66256" lon="6.49419">
        <ele>2206</ele>
        <time>2022-07-28T09:28:00Z</time>
      </trkpt>
      <trkpt lat="45.66256" lon="6.49418">
        <ele>2207</ele>
        <time>2022-07-28T09:28:01Z</time>
      </trkpt>
      <trkpt lat="45.66257" lon="6.49417">
        <ele>2207</ele>
        <time>2022-07-28T09:28:02Z</time>
      </trkpt>
      <trkpt lat="45.66258" lon="6.49417">
        <ele>2207</ele>
        <time>2022-07-28T09:28:03Z</time>
      </trkpt>
      <trkpt lat="45.66258" lon="6.49416">
        <ele>2207</ele>
        <time>2022-07-28T09:28:04Z</time>
      </trkpt>
      <trkpt lat="45.66259" lon="6.49415">
        <ele>2207</ele>
        <time>2022-07-28T09:28:05Z</time>
      </trkpt>
      <trkpt lat="45.66259" lon="6.49414">
        <ele>2207</ele>
        <time>2022-07-28T09:28:06Z</time>
      </trkpt>
      <trkpt lat="45.6626" lon="6.49413">
        <ele>2207</ele>
        <time>2022-07-28T09:28:07Z</time>
      </trkpt>
      <trkpt lat="45.6626" lon="6.49412">
        <ele>2207</ele>
        <time>2022-07-28T09:28:08Z</time>
      </trkpt>
      <trkpt lat="45.66261" lon="6.49411">
        <ele>2207</ele>
        <time>2022-07-28T09:28:09Z</time>
      </trkpt>
      <trkpt lat="45.66261" lon="6.4941">
        <ele>2207</ele>
        <time>2022-07-28T09:28:10Z</time>
      </trkpt>
      <trkpt lat="45.66262" lon="6.49409">
        <ele>2208</ele>
        <time>2022-07-28T09:28:11Z</time>
      </trkpt>
      <trkpt lat="45.66262" lon="6.49408">
        <ele>2208</ele>
        <time>2022-07-28T09:28:12Z</time>
      </trkpt>
      <trkpt lat="45.66263" lon="6.49407">
        <ele>2208</ele>
        <time>2022-07-28T09:28:13Z</time>
      </trkpt>
      <trkpt lat="45.66264" lon="6.49407">
        <ele>2208</ele>
        <time>2022-07-28T09:28:14Z</time>
      </trkpt>
      <trkpt lat="45.66264" lon="6.49406">
        <ele>2208</ele>
        <time>2022-07-28T09:28:15Z</time>
      </trkpt>
      <trkpt lat="45.66265" lon="6.49405">
        <ele>2209</ele>
        <time>2022-07-28T09:28:16Z</time>
      </trkpt>
      <trkpt lat="45.66265" lon="6.49404">
        <ele>2209</ele>
        <time>2022-07-28T09:28:17Z</time>
      </trkpt>
      <trkpt lat="45.66266" lon="6.49404">
        <ele>2209</ele>
        <time>2022-07-28T09:28:18Z</time>
      </trkpt>
      <trkpt lat="45.66266" lon="6.49403">
        <ele>2209</ele>
        <time>2022-07-28T09:28:19Z</time>
      </trkpt>
      <trkpt lat="45.66266" lon="6.49402">
        <ele>2209</ele>
        <time>2022-07-28T09:28:20Z</time>
      </trkpt>
      <trkpt lat="45.66267" lon="6.49401">
        <ele>2210</ele>
        <time>2022-07-28T09:28:21Z</time>
      </trkpt>
      <trkpt lat="45.66267" lon="6.494">
        <ele>2210</ele>
        <time>2022-07-28T09:28:22Z</time>
      </trkpt>
      <trkpt lat="45.66268" lon="6.49399">
        <ele>2210</ele>
        <time>2022-07-28T09:28:23Z</time>
      </trkpt>
      <trkpt lat="45.66268" lon="6.49398">
        <ele>2210</ele>
        <time>2022-07-28T09:28:24Z</time>
      </trkpt>
      <trkpt lat="45.66268" lon="6.49397">
        <ele>2210</ele>
        <time>2022-07-28T09:28:25Z</time>
      </trkpt>
      <trkpt lat="45.66269" lon="6.49396">
        <ele>2211</ele>
        <time>2022-07-28T09:28:26Z</time>
      </trkpt>
      <trkpt lat="45.66269" lon="6.49395">
        <ele>2211</ele>
        <time>2022-07-28T09:28:27Z</time>
      </trkpt>
      <trkpt lat="45.66269" lon="6.49394">
        <ele>2211</ele>
        <time>2022-07-28T09:28:28Z</time>
      </trkpt>
      <trkpt lat="45.66269" lon="6.49393">
        <ele>2211</ele>
        <time>2022-07-28T09:28:29Z</time>
      </trkpt>
      <trkpt lat="45.6627" lon="6.49392">
        <ele>2211</ele>
        <time>2022-07-28T09:28:30Z</time>
      </trkpt>
      <trkpt lat="45.6627" lon="6.49391">
        <ele>2212</ele>
        <time>2022-07-28T09:28:31Z</time>
      </trkpt>
      <trkpt lat="45.6627" lon="6.49389">
        <ele>2212</ele>
        <time>2022-07-28T09:28:32Z</time>
      </trkpt>
      <trkpt lat="45.6627" lon="6.49388">
        <ele>2212</ele>
        <time>2022-07-28T09:28:33Z</time>
      </trkpt>
      <trkpt lat="45.6627" lon="6.49387">
        <ele>2212</ele>
        <time>2022-07-28T09:28:34Z</time>
      </trkpt>
      <trkpt lat="45.6627" lon="6.49386">
        <ele>2212</ele>
        <time>2022-07-28T09:28:35Z</time>
      </trkpt>
      <trkpt lat="45.6627" lon="6.49385">
        <ele>2213</ele>
        <time>2022-07-28T09:28:36Z</time>
      </trkpt>
      <trkpt lat="45.6627" lon="6.49383">
        <ele>2213</ele>
        <time>2022-07-28T09:28:37Z</time>
      </trkpt>
      <trkpt lat="45.6627" lon="6.49382">
        <ele>2213</ele>
        <time>2022-07-28T09:28:38Z</time>
      </trkpt>
      <trkpt lat="45.66271" lon="6.49381">
        <ele>2213</ele>
        <time>2022-07-28T09:28:39Z</time>
      </trkpt>
      <trkpt lat="45.66271" lon="6.4938">
        <ele>2213</ele>
        <time>2022-07-28T09:28:40Z</time>
      </trkpt>
      <trkpt lat="45.66271" lon="6.49379">
        <ele>2214</ele>
        <time>2022-07-28T09:28:41Z</time>
      </trkpt>
      <trkpt lat="45.66271" lon="6.49378">
        <ele>2214</ele>
        <time>2022-07-28T09:28:42Z</time>
      </trkpt>
      <trkpt lat="45.66272" lon="6.49377">
        <ele>2214</ele>
        <time>2022-07-28T09:28:43Z</time>
      </trkpt>
      <trkpt lat="45.66273" lon="6.49376">
        <ele>2214</ele>
        <time>2022-07-28T09:28:44Z</time>
      </trkpt>
      <trkpt lat="45.66273" lon="6.49375">
        <ele>2214</ele>
        <time>2022-07-28T09:28:45Z</time>
      </trkpt>
      <trkpt lat="45.66274" lon="6.49374">
        <ele>2215</ele>
        <time>2022-07-28T09:28:46Z</time>
      </trkpt>
      <trkpt lat="45.66275" lon="6.49373">
        <ele>2215</ele>
        <time>2022-07-28T09:28:47Z</time>
      </trkpt>
      <trkpt lat="45.66275" lon="6.49372">
        <ele>2215</ele>
        <time>2022-07-28T09:28:48Z</time>
      </trkpt>
      <trkpt lat="45.66276" lon="6.49371">
        <ele>2215</ele>
        <time>2022-07-28T09:28:49Z</time>
      </trkpt>
      <trkpt lat="45.66277" lon="6.4937">
        <ele>2215</ele>
        <time>2022-07-28T09:28:50Z</time>
      </trkpt>
      <trkpt lat="45.66277" lon="6.4937">
        <ele>2216</ele>
        <time>2022-07-28T09:28:51Z</time>
      </trkpt>
      <trkpt lat="45.66278" lon="6.49369">
        <ele>2216</ele>
        <time>2022-07-28T09:28:52Z</time>
      </trkpt>
      <trkpt lat="45.66278" lon="6.49368">
        <ele>2216</ele>
        <time>2022-07-28T09:28:53Z</time>
      </trkpt>
      <trkpt lat="45.66278" lon="6.49367">
        <ele>2216</ele>
        <time>2022-07-28T09:28:54Z</time>
      </trkpt>
      <trkpt lat="45.66278" lon="6.49366">
        <ele>2216</ele>
        <time>2022-07-28T09:28:55Z</time>
      </trkpt>
      <trkpt lat="45.66279" lon="6.49365">
        <ele>2217</ele>
        <time>2022-07-28T09:28:56Z</time>
      </trkpt>
      <trkpt lat="45.66279" lon="6.49364">
        <ele>2217</ele>
        <time>2022-07-28T09:28:57Z</time>
      </trkpt>
      <trkpt lat="45.66279" lon="6.49363">
        <ele>2217</ele>
        <time>2022-07-28T09:28:58Z</time>
      </trkpt>
      <trkpt lat="45.66279" lon="6.49363">
        <ele>2217</ele>
        <time>2022-07-28T09:28:59Z</time>
      </trkpt>
      <trkpt lat="45.6628" lon="6.49362">
        <ele>2217</ele>
        <time>2022-07-28T09:29:00Z</time>
      </trkpt>
      <trkpt lat="45.6628" lon="6.49361">
        <ele>2218</ele>
        <time>2022-07-28T09:29:01Z</time>
      </trkpt>
      <trkpt lat="45.66281" lon="6.49361">
        <ele>2218</ele>
        <time>2022-07-28T09:29:02Z</time>
      </trkpt>
      <trkpt lat="45.66281" lon="6.4936">
        <ele>2218</ele>
        <time>2022-07-28T09:29:03Z</time>
      </trkpt>
      <trkpt lat="45.66282" lon="6.49359">
        <ele>2218</ele>
        <time>2022-07-28T09:29:04Z</time>
      </trkpt>
      <trkpt lat="45.66282" lon="6.49359">
        <ele>2218</ele>
        <time>2022-07-28T09:29:05Z</time>
      </trkpt>
      <trkpt lat="45.66283" lon="6.49358">
        <ele>2219</ele>
        <time>2022-07-28T09:29:06Z</time>
      </trkpt>
      <trkpt lat="45.66283" lon="6.49357">
        <ele>2219</ele>
        <time>2022-07-28T09:29:07Z</time>
      </trkpt>
      <trkpt lat="45.66284" lon="6.49357">
        <ele>2219</ele>
        <time>2022-07-28T09:29:08Z</time>
      </trkpt>
      <trkpt lat="45.66285" lon="6.49356">
        <ele>2219</ele>
        <time>2022-07-28T09:29:09Z</time>
      </trkpt>
      <trkpt lat="45.66285" lon="6.49355">
        <ele>2219</ele>
        <time>2022-07-28T09:29:10Z</time>
      </trkpt>
      <trkpt lat="45.66286" lon="6.49354">
        <ele>2220</ele>
        <time>2022-07-28T09:29:11Z</time>
      </trkpt>
      <trkpt lat="45.66287" lon="6.49354">
        <ele>2220</ele>
        <time>2022-07-28T09:29:12Z</time>
      </trkpt>
      <trkpt lat="45.66288" lon="6.49353">
        <ele>2220</ele>
        <time>2022-07-28T09:29:13Z</time>
      </trkpt>
      <trkpt lat="45.66288" lon="6.49352">
        <ele>2220</ele>
        <time>2022-07-28T09:29:14Z</time>
      </trkpt>
      <trkpt lat="45.66289" lon="6.49351">
        <ele>2220</ele>
        <time>2022-07-28T09:29:15Z</time>
      </trkpt>
      <trkpt lat="45.6629" lon="6.4935">
        <ele>2221</ele>
        <time>2022-07-28T09:29:16Z</time>
      </trkpt>
      <trkpt lat="45.66291" lon="6.49349">
        <ele>2221</ele>
        <time>2022-07-28T09:29:17Z</time>
      </trkpt>
      <trkpt lat="45.66291" lon="6.49348">
        <ele>2221</ele>
        <time>2022-07-28T09:29:18Z</time>
      </trkpt>
      <trkpt lat="45.66292" lon="6.49348">
        <ele>2221</ele>
        <time>2022-07-28T09:29:19Z</time>
      </trkpt>
      <trkpt lat="45.66293" lon="6.49347">
        <ele>2221</ele>
        <time>2022-07-28T09:29:20Z</time>
      </trkpt>
      <trkpt lat="45.66293" lon="6.49346">
        <ele>2222</ele>
        <time>2022-07-28T09:29:21Z</time>
      </trkpt>
      <trkpt lat="45.66294" lon="6.49346">
        <ele>2222</ele>
        <time>2022-07-28T09:29:22Z</time>
      </trkpt>
      <trkpt lat="45.66295" lon="6.49345">
        <ele>2222</ele>
        <time>2022-07-28T09:29:23Z</time>
      </trkpt>
      <trkpt lat="45.66295" lon="6.49345">
        <ele>2222</ele>
        <time>2022-07-28T09:29:24Z</time>
      </trkpt>
      <trkpt lat="45.66296" lon="6.49345">
        <ele>2222</ele>
        <time>2022-07-28T09:29:25Z</time>
      </trkpt>
      <trkpt lat="45.66297" lon="6.49345">
        <ele>2224</ele>
        <time>2022-07-28T09:29:40Z</time>
      </trkpt>
      <trkpt lat="45.66297" lon="6.49345">
        <ele>2224</ele>
        <time>2022-07-28T09:29:41Z</time>
      </trkpt>
      <trkpt lat="45.66298" lon="6.49346">
        <ele>2224</ele>
        <time>2022-07-28T09:29:42Z</time>
      </trkpt>
      <trkpt lat="45.66298" lon="6.49346">
        <ele>2224</ele>
        <time>2022-07-28T09:29:43Z</time>
      </trkpt>
      <trkpt lat="45.66299" lon="6.49347">
        <ele>2224</ele>
        <time>2022-07-28T09:29:44Z</time>
      </trkpt>
      <trkpt lat="45.66299" lon="6.49348">
        <ele>2224</ele>
        <time>2022-07-28T09:29:45Z</time>
      </trkpt>
      <trkpt lat="45.663" lon="6.49349">
        <ele>2225</ele>
        <time>2022-07-28T09:29:46Z</time>
      </trkpt>
      <trkpt lat="45.66301" lon="6.4935">
        <ele>2225</ele>
        <time>2022-07-28T09:29:47Z</time>
      </trkpt>
      <trkpt lat="45.66302" lon="6.49351">
        <ele>2225</ele>
        <time>2022-07-28T09:29:48Z</time>
      </trkpt>
      <trkpt lat="45.66302" lon="6.49352">
        <ele>2225</ele>
        <time>2022-07-28T09:29:49Z</time>
      </trkpt>
      <trkpt lat="45.66303" lon="6.49353">
        <ele>2225</ele>
        <time>2022-07-28T09:29:50Z</time>
      </trkpt>
      <trkpt lat="45.66304" lon="6.49354">
        <ele>2225</ele>
        <time>2022-07-28T09:29:51Z</time>
      </trkpt>
      <trkpt lat="45.66304" lon="6.49356">
        <ele>2225</ele>
        <time>2022-07-28T09:29:52Z</time>
      </trkpt>
      <trkpt lat="45.66305" lon="6.49357">
        <ele>2226</ele>
        <time>2022-07-28T09:29:53Z</time>
      </trkpt>
      <trkpt lat="45.66306" lon="6.49358">
        <ele>2226</ele>
        <time>2022-07-28T09:29:54Z</time>
      </trkpt>
      <trkpt lat="45.66306" lon="6.49359">
        <ele>2227</ele>
        <time>2022-07-28T09:29:55Z</time>
      </trkpt>
      <trkpt lat="45.66307" lon="6.4936">
        <ele>2228</ele>
        <time>2022-07-28T09:29:56Z</time>
      </trkpt>
      <trkpt lat="45.66307" lon="6.49361">
        <ele>2228</ele>
        <time>2022-07-28T09:29:57Z</time>
      </trkpt>
      <trkpt lat="45.66308" lon="6.49362">
        <ele>2228</ele>
        <time>2022-07-28T09:29:58Z</time>
      </trkpt>
      <trkpt lat="45.66309" lon="6.49363">
        <ele>2230</ele>
        <time>2022-07-28T09:30:12Z</time>
      </trkpt>
      <trkpt lat="45.66309" lon="6.49364">
        <ele>2230</ele>
        <time>2022-07-28T09:30:13Z</time>
      </trkpt>
      <trkpt lat="45.6631" lon="6.49366">
        <ele>2230</ele>
        <time>2022-07-28T09:30:14Z</time>
      </trkpt>
      <trkpt lat="45.66311" lon="6.49367">
        <ele>2230</ele>
        <time>2022-07-28T09:30:33Z</time>
      </trkpt>
      <trkpt lat="45.66311" lon="6.49368">
        <ele>2230</ele>
        <time>2022-07-28T09:30:34Z</time>
      </trkpt>
      <trkpt lat="45.66311" lon="6.49369">
        <ele>2230</ele>
        <time>2022-07-28T09:30:35Z</time>
      </trkpt>
      <trkpt lat="45.66311" lon="6.4937">
        <ele>2230</ele>
        <time>2022-07-28T09:30:59Z</time>
      </trkpt>
      <trkpt lat="45.66312" lon="6.49371">
        <ele>2230</ele>
        <time>2022-07-28T09:31:00Z</time>
      </trkpt>
      <trkpt lat="45.66312" lon="6.49371">
        <ele>2230</ele>
        <time>2022-07-28T09:31:01Z</time>
      </trkpt>
      <trkpt lat="45.66312" lon="6.49372">
        <ele>2230</ele>
        <time>2022-07-28T09:31:02Z</time>
      </trkpt>
      <trkpt lat="45.66313" lon="6.49373">
        <ele>2230</ele>
        <time>2022-07-28T09:31:03Z</time>
      </trkpt>
      <trkpt lat="45.66313" lon="6.49373">
        <ele>2230</ele>
        <time>2022-07-28T09:31:04Z</time>
      </trkpt>
      <trkpt lat="45.66314" lon="6.49374">
        <ele>2230</ele>
        <time>2022-07-28T09:31:05Z</time>
      </trkpt>
      <trkpt lat="45.66315" lon="6.49375">
        <ele>2231</ele>
        <time>2022-07-28T09:31:06Z</time>
      </trkpt>
      <trkpt lat="45.66315" lon="6.49376">
        <ele>2231</ele>
        <time>2022-07-28T09:31:07Z</time>
      </trkpt>
      <trkpt lat="45.66316" lon="6.49377">
        <ele>2231</ele>
        <time>2022-07-28T09:31:08Z</time>
      </trkpt>
      <trkpt lat="45.66317" lon="6.49377">
        <ele>2231</ele>
        <time>2022-07-28T09:31:09Z</time>
      </trkpt>
      <trkpt lat="45.66317" lon="6.49378">
        <ele>2231</ele>
        <time>2022-07-28T09:31:10Z</time>
      </trkpt>
      <trkpt lat="45.66318" lon="6.49379">
        <ele>2232</ele>
        <time>2022-07-28T09:31:11Z</time>
      </trkpt>
      <trkpt lat="45.66318" lon="6.49379">
        <ele>2232</ele>
        <time>2022-07-28T09:31:12Z</time>
      </trkpt>
      <trkpt lat="45.66319" lon="6.4938">
        <ele>2232</ele>
        <time>2022-07-28T09:31:13Z</time>
      </trkpt>
      <trkpt lat="45.66319" lon="6.49381">
        <ele>2232</ele>
        <time>2022-07-28T09:31:14Z</time>
      </trkpt>
      <trkpt lat="45.6632" lon="6.49381">
        <ele>2232</ele>
        <time>2022-07-28T09:31:15Z</time>
      </trkpt>
      <trkpt lat="45.6632" lon="6.49382">
        <ele>2233</ele>
        <time>2022-07-28T09:31:16Z</time>
      </trkpt>
      <trkpt lat="45.6632" lon="6.49383">
        <ele>2233</ele>
        <time>2022-07-28T09:31:17Z</time>
      </trkpt>
      <trkpt lat="45.66321" lon="6.49384">
        <ele>2233</ele>
        <time>2022-07-28T09:31:18Z</time>
      </trkpt>
      <trkpt lat="45.66321" lon="6.49385">
        <ele>2233</ele>
        <time>2022-07-28T09:31:19Z</time>
      </trkpt>
      <trkpt lat="45.66321" lon="6.49385">
        <ele>2233</ele>
        <time>2022-07-28T09:31:20Z</time>
      </trkpt>
      <trkpt lat="45.66321" lon="6.49386">
        <ele>2234</ele>
        <time>2022-07-28T09:31:21Z</time>
      </trkpt>
      <trkpt lat="45.66322" lon="6.49387">
        <ele>2234</ele>
        <time>2022-07-28T09:31:22Z</time>
      </trkpt>
      <trkpt lat="45.66322" lon="6.49388">
        <ele>2234</ele>
        <time>2022-07-28T09:31:23Z</time>
      </trkpt>
      <trkpt lat="45.66322" lon="6.49389">
        <ele>2234</ele>
        <time>2022-07-28T09:31:24Z</time>
      </trkpt>
      <trkpt lat="45.66323" lon="6.4939">
        <ele>2234</ele>
        <time>2022-07-28T09:31:25Z</time>
      </trkpt>
      <trkpt lat="45.66323" lon="6.4939">
        <ele>2236</ele>
        <time>2022-07-28T09:31:32Z</time>
      </trkpt>
      <trkpt lat="45.66323" lon="6.4939">
        <ele>2236</ele>
        <time>2022-07-28T09:31:33Z</time>
      </trkpt>
      <trkpt lat="45.66323" lon="6.4939">
        <ele>2236</ele>
        <time>2022-07-28T09:31:34Z</time>
      </trkpt>
      <trkpt lat="45.66323" lon="6.49389">
        <ele>2236</ele>
        <time>2022-07-28T09:31:35Z</time>
      </trkpt>
      <trkpt lat="45.66324" lon="6.49389">
        <ele>2236</ele>
        <time>2022-07-28T09:31:36Z</time>
      </trkpt>
      <trkpt lat="45.66324" lon="6.49387">
        <ele>2236</ele>
        <time>2022-07-28T09:31:52Z</time>
      </trkpt>
      <trkpt lat="45.66325" lon="6.49387">
        <ele>2236</ele>
        <time>2022-07-28T09:31:53Z</time>
      </trkpt>
      <trkpt lat="45.66325" lon="6.49387">
        <ele>2236</ele>
        <time>2022-07-28T09:31:54Z</time>
      </trkpt>
      <trkpt lat="45.66324" lon="6.49388">
        <ele>2235</ele>
        <time>2022-07-28T09:34:26Z</time>
      </trkpt>
      <trkpt lat="45.66324" lon="6.49388">
        <ele>2235</ele>
        <time>2022-07-28T09:34:27Z</time>
      </trkpt>
      <trkpt lat="45.66324" lon="6.49388">
        <ele>2235</ele>
        <time>2022-07-28T09:34:28Z</time>
      </trkpt>
      <trkpt lat="45.66323" lon="6.49388">
        <ele>2235</ele>
        <time>2022-07-28T09:34:29Z</time>
      </trkpt>
      <trkpt lat="45.66323" lon="6.49388">
        <ele>2235</ele>
        <time>2022-07-28T09:34:30Z</time>
      </trkpt>
      <trkpt lat="45.66323" lon="6.49387">
        <ele>2235</ele>
        <time>2022-07-28T09:39:22Z</time>
      </trkpt>
      <trkpt lat="45.66323" lon="6.49387">
        <ele>2235</ele>
        <time>2022-07-28T09:39:23Z</time>
      </trkpt>
      <trkpt lat="45.66322" lon="6.49387">
        <ele>2235</ele>
        <time>2022-07-28T09:39:24Z</time>
      </trkpt>
      <trkpt lat="45.66322" lon="6.49386">
        <ele>2235</ele>
        <time>2022-07-28T09:39:43Z</time>
      </trkpt>
      <trkpt lat="45.66322" lon="6.49386">
        <ele>2235</ele>
        <time>2022-07-28T09:39:44Z</time>
      </trkpt>
      <trkpt lat="45.66322" lon="6.49385">
        <ele>2235</ele>
        <time>2022-07-28T09:39:45Z</time>
      </trkpt>
      <trkpt lat="45.66322" lon="6.49386">
        <ele>2235</ele>
        <time>2022-07-28T09:39:46Z</time>
      </trkpt>
      <trkpt lat="45.66322" lon="6.49386">
        <ele>2235</ele>
        <time>2022-07-28T09:39:47Z</time>
      </trkpt>
      <trkpt lat="45.66322" lon="6.49387">
        <ele>2235</ele>
        <time>2022-07-28T09:39:48Z</time>
      </trkpt>
      <trkpt lat="45.66323" lon="6.49387">
        <ele>2235</ele>
        <time>2022-07-28T09:39:49Z</time>
      </trkpt>
      <trkpt lat="45.66323" lon="6.49388">
        <ele>2235</ele>
        <time>2022-07-28T09:39:50Z</time>
      </trkpt>
      <trkpt lat="45.66324" lon="6.49388">
        <ele>2235</ele>
        <time>2022-07-28T09:39:51Z</time>
      </trkpt>
      <trkpt lat="45.66324" lon="6.49389">
        <ele>2235</ele>
        <time>2022-07-28T09:39:52Z</time>
      </trkpt>
      <trkpt lat="45.66324" lon="6.4939">
        <ele>2235</ele>
        <time>2022-07-28T09:39:53Z</time>
      </trkpt>
      <trkpt lat="45.66325" lon="6.49391">
        <ele>2235</ele>
        <time>2022-07-28T09:39:54Z</time>
      </trkpt>
      <trkpt lat="45.66325" lon="6.49391">
        <ele>2235</ele>
        <time>2022-07-28T09:39:55Z</time>
      </trkpt>
      <trkpt lat="45.66326" lon="6.49393">
        <ele>2237</ele>
        <time>2022-07-28T09:40:04Z</time>
      </trkpt>
      <trkpt lat="45.66327" lon="6.49393">
        <ele>2237</ele>
        <time>2022-07-28T09:40:05Z</time>
      </trkpt>
      <trkpt lat="45.66327" lon="6.49394">
        <ele>2237</ele>
        <time>2022-07-28T09:40:06Z</time>
      </trkpt>
      <trkpt lat="45.66327" lon="6.49394">
        <ele>2237</ele>
        <time>2022-07-28T09:40:07Z</time>
      </trkpt>
      <trkpt lat="45.66328" lon="6.49395">
        <ele>2237</ele>
        <time>2022-07-28T09:40:08Z</time>
      </trkpt>
      <trkpt lat="45.66328" lon="6.49396">
        <ele>2237</ele>
        <time>2022-07-28T09:40:09Z</time>
      </trkpt>
      <trkpt lat="45.66329" lon="6.49397">
        <ele>2237</ele>
        <time>2022-07-28T09:40:10Z</time>
      </trkpt>
      <trkpt lat="45.66329" lon="6.49398">
        <ele>2237</ele>
        <time>2022-07-28T09:40:11Z</time>
      </trkpt>
      <trkpt lat="45.66329" lon="6.49399">
        <ele>2237</ele>
        <time>2022-07-28T09:40:12Z</time>
      </trkpt>
      <trkpt lat="45.6633" lon="6.494">
        <ele>2237</ele>
        <time>2022-07-28T09:40:13Z</time>
      </trkpt>
      <trkpt lat="45.66331" lon="6.49401">
        <ele>2237</ele>
        <time>2022-07-28T09:40:14Z</time>
      </trkpt>
      <trkpt lat="45.66331" lon="6.49401">
        <ele>2237</ele>
        <time>2022-07-28T09:40:15Z</time>
      </trkpt>
      <trkpt lat="45.66332" lon="6.49402">
        <ele>2237</ele>
        <time>2022-07-28T09:40:16Z</time>
      </trkpt>
      <trkpt lat="45.66332" lon="6.49403">
        <ele>2237</ele>
        <time>2022-07-28T09:40:17Z</time>
      </trkpt>
      <trkpt lat="45.66333" lon="6.49403">
        <ele>2237</ele>
        <time>2022-07-28T09:40:18Z</time>
      </trkpt>
      <trkpt lat="45.66333" lon="6.49404">
        <ele>2237</ele>
        <time>2022-07-28T09:40:19Z</time>
      </trkpt>
      <trkpt lat="45.66334" lon="6.49404">
        <ele>2237</ele>
        <time>2022-07-28T09:40:20Z</time>
      </trkpt>
      <trkpt lat="45.66335" lon="6.49405">
        <ele>2238</ele>
        <time>2022-07-28T09:40:21Z</time>
      </trkpt>
      <trkpt lat="45.66336" lon="6.49405">
        <ele>2238</ele>
        <time>2022-07-28T09:40:22Z</time>
      </trkpt>
      <trkpt lat="45.66336" lon="6.49406">
        <ele>2238</ele>
        <time>2022-07-28T09:40:23Z</time>
      </trkpt>
      <trkpt lat="45.66337" lon="6.49406">
        <ele>2238</ele>
        <time>2022-07-28T09:40:24Z</time>
      </trkpt>
      <trkpt lat="45.66337" lon="6.49407">
        <ele>2238</ele>
        <time>2022-07-28T09:40:25Z</time>
      </trkpt>
      <trkpt lat="45.66338" lon="6.49407">
        <ele>2239</ele>
        <time>2022-07-28T09:40:26Z</time>
      </trkpt>
      <trkpt lat="45.66338" lon="6.49407">
        <ele>2239</ele>
        <time>2022-07-28T09:40:27Z</time>
      </trkpt>
      <trkpt lat="45.66339" lon="6.49408">
        <ele>2239</ele>
        <time>2022-07-28T09:40:28Z</time>
      </trkpt>
      <trkpt lat="45.6634" lon="6.49408">
        <ele>2239</ele>
        <time>2022-07-28T09:40:29Z</time>
      </trkpt>
      <trkpt lat="45.6634" lon="6.49409">
        <ele>2239</ele>
        <time>2022-07-28T09:40:30Z</time>
      </trkpt>
      <trkpt lat="45.66341" lon="6.4941">
        <ele>2239</ele>
        <time>2022-07-28T09:40:31Z</time>
      </trkpt>
      <trkpt lat="45.66341" lon="6.4941">
        <ele>2239</ele>
        <time>2022-07-28T09:40:32Z</time>
      </trkpt>
      <trkpt lat="45.66342" lon="6.49411">
        <ele>2239</ele>
        <time>2022-07-28T09:40:33Z</time>
      </trkpt>
      <trkpt lat="45.66342" lon="6.49411">
        <ele>2239</ele>
        <time>2022-07-28T09:40:34Z</time>
      </trkpt>
      <trkpt lat="45.66342" lon="6.49411">
        <ele>2239</ele>
        <time>2022-07-28T09:40:35Z</time>
      </trkpt>
      <trkpt lat="45.66343" lon="6.49411">
        <ele>2240</ele>
        <time>2022-07-28T09:40:36Z</time>
      </trkpt>
      <trkpt lat="45.66343" lon="6.49411">
        <ele>2240</ele>
        <time>2022-07-28T09:40:37Z</time>
      </trkpt>
      <trkpt lat="45.66344" lon="6.49411">
        <ele>2240</ele>
        <time>2022-07-28T09:40:38Z</time>
      </trkpt>
      <trkpt lat="45.66344" lon="6.49411">
        <ele>2240</ele>
        <time>2022-07-28T09:40:39Z</time>
      </trkpt>
      <trkpt lat="45.66345" lon="6.49411">
        <ele>2240</ele>
        <time>2022-07-28T09:40:40Z</time>
      </trkpt>
      <trkpt lat="45.66346" lon="6.49411">
        <ele>2241</ele>
        <time>2022-07-28T09:40:41Z</time>
      </trkpt>
      <trkpt lat="45.66346" lon="6.49412">
        <ele>2241</ele>
        <time>2022-07-28T09:40:42Z</time>
      </trkpt>
      <trkpt lat="45.66347" lon="6.49412">
        <ele>2241</ele>
        <time>2022-07-28T09:40:43Z</time>
      </trkpt>
      <trkpt lat="45.66348" lon="6.49412">
        <ele>2241</ele>
        <time>2022-07-28T09:40:44Z</time>
      </trkpt>
      <trkpt lat="45.66348" lon="6.49413">
        <ele>2241</ele>
        <time>2022-07-28T09:40:45Z</time>
      </trkpt>
      <trkpt lat="45.66349" lon="6.49413">
        <ele>2241</ele>
        <time>2022-07-28T09:40:46Z</time>
      </trkpt>
      <trkpt lat="45.6635" lon="6.49414">
        <ele>2241</ele>
        <time>2022-07-28T09:40:47Z</time>
      </trkpt>
      <trkpt lat="45.6635" lon="6.49415">
        <ele>2241</ele>
        <time>2022-07-28T09:40:48Z</time>
      </trkpt>
      <trkpt lat="45.66351" lon="6.49415">
        <ele>2241</ele>
        <time>2022-07-28T09:40:49Z</time>
      </trkpt>
      <trkpt lat="45.66352" lon="6.49416">
        <ele>2241</ele>
        <time>2022-07-28T09:40:50Z</time>
      </trkpt>
      <trkpt lat="45.66352" lon="6.49416">
        <ele>2242</ele>
        <time>2022-07-28T09:40:51Z</time>
      </trkpt>
      <trkpt lat="45.66353" lon="6.49417">
        <ele>2242</ele>
        <time>2022-07-28T09:40:52Z</time>
      </trkpt>
      <trkpt lat="45.66353" lon="6.49417">
        <ele>2242</ele>
        <time>2022-07-28T09:40:53Z</time>
      </trkpt>
      <trkpt lat="45.66354" lon="6.49418">
        <ele>2242</ele>
        <time>2022-07-28T09:40:54Z</time>
      </trkpt>
      <trkpt lat="45.66355" lon="6.49418">
        <ele>2242</ele>
        <time>2022-07-28T09:40:55Z</time>
      </trkpt>
      <trkpt lat="45.66355" lon="6.49418">
        <ele>2243</ele>
        <time>2022-07-28T09:40:56Z</time>
      </trkpt>
      <trkpt lat="45.66356" lon="6.49419">
        <ele>2243</ele>
        <time>2022-07-28T09:40:57Z</time>
      </trkpt>
      <trkpt lat="45.66357" lon="6.49419">
        <ele>2243</ele>
        <time>2022-07-28T09:40:58Z</time>
      </trkpt>
      <trkpt lat="45.66357" lon="6.49419">
        <ele>2243</ele>
        <time>2022-07-28T09:40:59Z</time>
      </trkpt>
      <trkpt lat="45.66358" lon="6.49419">
        <ele>2243</ele>
        <time>2022-07-28T09:41:00Z</time>
      </trkpt>
      <trkpt lat="45.6636" lon="6.4942">
        <ele>2245</ele>
        <time>2022-07-28T09:41:06Z</time>
      </trkpt>
      <trkpt lat="45.6636" lon="6.49421">
        <ele>2245</ele>
        <time>2022-07-28T09:41:07Z</time>
      </trkpt>
      <trkpt lat="45.66361" lon="6.49422">
        <ele>2245</ele>
        <time>2022-07-28T09:41:08Z</time>
      </trkpt>
      <trkpt lat="45.66362" lon="6.49422">
        <ele>2245</ele>
        <time>2022-07-28T09:41:09Z</time>
      </trkpt>
      <trkpt lat="45.66362" lon="6.49423">
        <ele>2245</ele>
        <time>2022-07-28T09:41:10Z</time>
      </trkpt>
      <trkpt lat="45.66362" lon="6.49424">
        <ele>2246</ele>
        <time>2022-07-28T09:41:11Z</time>
      </trkpt>
      <trkpt lat="45.66362" lon="6.49425">
        <ele>2246</ele>
        <time>2022-07-28T09:41:12Z</time>
      </trkpt>
      <trkpt lat="45.66363" lon="6.49426">
        <ele>2246</ele>
        <time>2022-07-28T09:41:13Z</time>
      </trkpt>
      <trkpt lat="45.66363" lon="6.49427">
        <ele>2246</ele>
        <time>2022-07-28T09:41:14Z</time>
      </trkpt>
      <trkpt lat="45.66363" lon="6.49427">
        <ele>2246</ele>
        <time>2022-07-28T09:41:15Z</time>
      </trkpt>
      <trkpt lat="45.66363" lon="6.49428">
        <ele>2247</ele>
        <time>2022-07-28T09:41:16Z</time>
      </trkpt>
      <trkpt lat="45.66363" lon="6.49429">
        <ele>2247</ele>
        <time>2022-07-28T09:41:17Z</time>
      </trkpt>
      <trkpt lat="45.66364" lon="6.4943">
        <ele>2247</ele>
        <time>2022-07-28T09:41:18Z</time>
      </trkpt>
      <trkpt lat="45.66364" lon="6.49431">
        <ele>2247</ele>
        <time>2022-07-28T09:41:19Z</time>
      </trkpt>
      <trkpt lat="45.66364" lon="6.49431">
        <ele>2247</ele>
        <time>2022-07-28T09:41:20Z</time>
      </trkpt>
      <trkpt lat="45.66364" lon="6.49432">
        <ele>2247</ele>
        <time>2022-07-28T09:41:21Z</time>
      </trkpt>
      <trkpt lat="45.66364" lon="6.49432">
        <ele>2247</ele>
        <time>2022-07-28T09:41:22Z</time>
      </trkpt>
      <trkpt lat="45.66364" lon="6.49433">
        <ele>2247</ele>
        <time>2022-07-28T09:41:23Z</time>
      </trkpt>
      <trkpt lat="45.66365" lon="6.49434">
        <ele>2247</ele>
        <time>2022-07-28T09:41:24Z</time>
      </trkpt>
      <trkpt lat="45.66365" lon="6.49435">
        <ele>2247</ele>
        <time>2022-07-28T09:41:25Z</time>
      </trkpt>
      <trkpt lat="45.66365" lon="6.49435">
        <ele>2248</ele>
        <time>2022-07-28T09:41:26Z</time>
      </trkpt>
      <trkpt lat="45.66365" lon="6.49436">
        <ele>2249</ele>
        <time>2022-07-28T09:42:14Z</time>
      </trkpt>
      <trkpt lat="45.66366" lon="6.49436">
        <ele>2249</ele>
        <time>2022-07-28T09:42:15Z</time>
      </trkpt>
      <trkpt lat="45.66366" lon="6.49436">
        <ele>2249</ele>
        <time>2022-07-28T09:42:16Z</time>
      </trkpt>
      <trkpt lat="45.66367" lon="6.49436">
        <ele>2249</ele>
        <time>2022-07-28T09:42:17Z</time>
      </trkpt>
      <trkpt lat="45.66367" lon="6.49436">
        <ele>2249</ele>
        <time>2022-07-28T09:42:18Z</time>
      </trkpt>
      <trkpt lat="45.66368" lon="6.49437">
        <ele>2249</ele>
        <time>2022-07-28T09:42:19Z</time>
      </trkpt>
      <trkpt lat="45.66369" lon="6.49437">
        <ele>2249</ele>
        <time>2022-07-28T09:42:20Z</time>
      </trkpt>
      <trkpt lat="45.6637" lon="6.49439">
        <ele>2250</ele>
        <time>2022-07-28T09:47:11Z</time>
      </trkpt>
      <trkpt lat="45.6637" lon="6.49439">
        <ele>2250</ele>
        <time>2022-07-28T09:47:12Z</time>
      </trkpt>
      <trkpt lat="45.6637" lon="6.4944">
        <ele>2250</ele>
        <time>2022-07-28T09:47:13Z</time>
      </trkpt>
      <trkpt lat="45.66369" lon="6.49441">
        <ele>2251</ele>
        <time>2022-07-28T09:52:22Z</time>
      </trkpt>
      <trkpt lat="45.66369" lon="6.49441">
        <ele>2251</ele>
        <time>2022-07-28T09:52:23Z</time>
      </trkpt>
      <trkpt lat="45.66368" lon="6.49441">
        <ele>2251</ele>
        <time>2022-07-28T09:52:24Z</time>
      </trkpt>
      <trkpt lat="45.66368" lon="6.4944">
        <ele>2251</ele>
        <time>2022-07-28T09:53:20Z</time>
      </trkpt>
      <trkpt lat="45.66368" lon="6.4944">
        <ele>2251</ele>
        <time>2022-07-28T09:53:21Z</time>
      </trkpt>
      <trkpt lat="45.66368" lon="6.4944">
        <ele>2251</ele>
        <time>2022-07-28T09:53:22Z</time>
      </trkpt>
      <trkpt lat="45.66368" lon="6.49439">
        <ele>2251</ele>
        <time>2022-07-28T09:53:23Z</time>
      </trkpt>
      <trkpt lat="45.66369" lon="6.49439">
        <ele>2251</ele>
        <time>2022-07-28T09:53:24Z</time>
      </trkpt>
      <trkpt lat="45.66369" lon="6.49438">
        <ele>2251</ele>
        <time>2022-07-28T09:53:25Z</time>
      </trkpt>
      <trkpt lat="45.66369" lon="6.49438">
        <ele>2252</ele>
        <time>2022-07-28T09:53:26Z</time>
      </trkpt>
      <trkpt lat="45.66369" lon="6.49438">
        <ele>2252</ele>
        <time>2022-07-28T09:53:27Z</time>
      </trkpt>
      <trkpt lat="45.6637" lon="6.49438">
        <ele>2252</ele>
        <time>2022-07-28T09:53:28Z</time>
      </trkpt>
      <trkpt lat="45.66369" lon="6.49439">
        <ele>2251</ele>
        <time>2022-07-28T09:53:50Z</time>
      </trkpt>
      <trkpt lat="45.66369" lon="6.49439">
        <ele>2251</ele>
        <time>2022-07-28T09:53:51Z</time>
      </trkpt>
      <trkpt lat="45.66369" lon="6.4944">
        <ele>2251</ele>
        <time>2022-07-28T09:53:52Z</time>
      </trkpt>
      <trkpt lat="45.66369" lon="6.4944">
        <ele>2251</ele>
        <time>2022-07-28T09:53:53Z</time>
      </trkpt>
      <trkpt lat="45.66369" lon="6.49441">
        <ele>2251</ele>
        <time>2022-07-28T09:53:54Z</time>
      </trkpt>
      <trkpt lat="45.66369" lon="6.49441">
        <ele>2251</ele>
        <time>2022-07-28T09:53:55Z</time>
      </trkpt>
      <trkpt lat="45.66369" lon="6.49441">
        <ele>2251</ele>
        <time>2022-07-28T09:53:56Z</time>
      </trkpt>
      <trkpt lat="45.66369" lon="6.49442">
        <ele>2251</ele>
        <time>2022-07-28T09:53:57Z</time>
      </trkpt>
      <trkpt lat="45.66369" lon="6.49442">
        <ele>2251</ele>
        <time>2022-07-28T09:53:58Z</time>
      </trkpt>
      <trkpt lat="45.66369" lon="6.49442">
        <ele>2251</ele>
        <time>2022-07-28T09:53:59Z</time>
      </trkpt>
      <trkpt lat="45.66368" lon="6.49441">
        <ele>2251</ele>
        <time>2022-07-28T09:54:00Z</time>
      </trkpt>
      <trkpt lat="45.66369" lon="6.49441">
        <ele>2250</ele>
        <time>2022-07-28T10:17:42Z</time>
      </trkpt>
      <trkpt lat="45.66369" lon="6.49441">
        <ele>2250</ele>
        <time>2022-07-28T10:17:43Z</time>
      </trkpt>
      <trkpt lat="45.6637" lon="6.49441">
        <ele>2250</ele>
        <time>2022-07-28T10:17:44Z</time>
      </trkpt>
      <trkpt lat="45.6637" lon="6.49441">
        <ele>2250</ele>
        <time>2022-07-28T10:17:45Z</time>
      </trkpt>
      <trkpt lat="45.66371" lon="6.49441">
        <ele>2250</ele>
        <time>2022-07-28T10:17:46Z</time>
      </trkpt>
      <trkpt lat="45.6637" lon="6.49441">
        <ele>2251</ele>
        <time>2022-07-28T10:22:20Z</time>
      </trkpt>
      <trkpt lat="45.6637" lon="6.49442">
        <ele>2252</ele>
        <time>2022-07-28T10:22:21Z</time>
      </trkpt>
      <trkpt lat="45.6637" lon="6.49442">
        <ele>2252</ele>
        <time>2022-07-28T10:22:22Z</time>
      </trkpt>
      <trkpt lat="45.6637" lon="6.49441">
        <ele>2254</ele>
        <time>2022-07-28T10:22:40Z</time>
      </trkpt>
      <trkpt lat="45.6637" lon="6.49441">
        <ele>2254</ele>
        <time>2022-07-28T10:22:41Z</time>
      </trkpt>
      <trkpt lat="45.6637" lon="6.49441">
        <ele>2253</ele>
        <time>2022-07-28T10:22:42Z</time>
      </trkpt>
      <trkpt lat="45.6637" lon="6.49441">
        <ele>2252</ele>
        <time>2022-07-28T10:22:55Z</time>
      </trkpt>
      <trkpt lat="45.66369" lon="6.49441">
        <ele>2252</ele>
        <time>2022-07-28T10:22:56Z</time>
      </trkpt>
      <trkpt lat="45.66369" lon="6.49441">
        <ele>2252</ele>
        <time>2022-07-28T10:22:57Z</time>
      </trkpt>
      <trkpt lat="45.66368" lon="6.49441">
        <ele>2252</ele>
        <time>2022-07-28T10:22:58Z</time>
      </trkpt>
      <trkpt lat="45.66368" lon="6.49441">
        <ele>2252</ele>
        <time>2022-07-28T10:22:59Z</time>
      </trkpt>
      <trkpt lat="45.66367" lon="6.4944">
        <ele>2254</ele>
        <time>2022-07-28T10:23:11Z</time>
      </trkpt>
      <trkpt lat="45.66367" lon="6.4944">
        <ele>2253</ele>
        <time>2022-07-28T10:23:12Z</time>
      </trkpt>
      <trkpt lat="45.66367" lon="6.49439">
        <ele>2253</ele>
        <time>2022-07-28T10:23:13Z</time>
      </trkpt>
      <trkpt lat="45.66367" lon="6.49439">
        <ele>2252</ele>
        <time>2022-07-28T10:23:14Z</time>
      </trkpt>
      <trkpt lat="45.66367" lon="6.4944">
        <ele>2252</ele>
        <time>2022-07-28T10:23:15Z</time>
      </trkpt>
      <trkpt lat="45.66367" lon="6.4944">
        <ele>2252</ele>
        <time>2022-07-28T10:23:16Z</time>
      </trkpt>
      <trkpt lat="45.66368" lon="6.4944">
        <ele>2252</ele>
        <time>2022-07-28T10:23:17Z</time>
      </trkpt>
      <trkpt lat="45.66368" lon="6.4944">
        <ele>2252</ele>
        <time>2022-07-28T10:23:18Z</time>
      </trkpt>
      <trkpt lat="45.66369" lon="6.4944">
        <ele>2253</ele>
        <time>2022-07-28T10:23:19Z</time>
      </trkpt>
      <trkpt lat="45.6637" lon="6.49441">
        <ele>2251</ele>
        <time>2022-07-28T10:23:52Z</time>
      </trkpt>
      <trkpt lat="45.6637" lon="6.49442">
        <ele>2251</ele>
        <time>2022-07-28T10:23:53Z</time>
      </trkpt>
      <trkpt lat="45.6637" lon="6.49443">
        <ele>2251</ele>
        <time>2022-07-28T10:23:54Z</time>
      </trkpt>
      <trkpt lat="45.6637" lon="6.49444">
        <ele>2250</ele>
        <time>2022-07-28T10:25:06Z</time>
      </trkpt>
      <trkpt lat="45.6637" lon="6.49443">
        <ele>2250</ele>
        <time>2022-07-28T10:25:07Z</time>
      </trkpt>
      <trkpt lat="45.6637" lon="6.49443">
        <ele>2250</ele>
        <time>2022-07-28T10:25:08Z</time>
      </trkpt>
      <trkpt lat="45.66372" lon="6.49443">
        <ele>2251</ele>
        <time>2022-07-28T10:25:16Z</time>
      </trkpt>
      <trkpt lat="45.66372" lon="6.49442">
        <ele>2250</ele>
        <time>2022-07-28T10:25:17Z</time>
      </trkpt>
      <trkpt lat="45.66373" lon="6.49442">
        <ele>2250</ele>
        <time>2022-07-28T10:25:18Z</time>
      </trkpt>
      <trkpt lat="45.66374" lon="6.49442">
        <ele>2250</ele>
        <time>2022-07-28T10:25:19Z</time>
      </trkpt>
      <trkpt lat="45.66374" lon="6.49442">
        <ele>2250</ele>
        <time>2022-07-28T10:25:20Z</time>
      </trkpt>
      <trkpt lat="45.66376" lon="6.49443">
        <ele>2249</ele>
        <time>2022-07-28T10:25:32Z</time>
      </trkpt>
      <trkpt lat="45.66376" lon="6.49444">
        <ele>2249</ele>
        <time>2022-07-28T10:25:33Z</time>
      </trkpt>
      <trkpt lat="45.66377" lon="6.49444">
        <ele>2249</ele>
        <time>2022-07-28T10:25:34Z</time>
      </trkpt>
      <trkpt lat="45.66377" lon="6.49445">
        <ele>2249</ele>
        <time>2022-07-28T10:25:35Z</time>
      </trkpt>
      <trkpt lat="45.66378" lon="6.49446">
        <ele>2249</ele>
        <time>2022-07-28T10:25:36Z</time>
      </trkpt>
      <trkpt lat="45.66379" lon="6.49447">
        <ele>2249</ele>
        <time>2022-07-28T10:25:37Z</time>
      </trkpt>
      <trkpt lat="45.66379" lon="6.49448">
        <ele>2249</ele>
        <time>2022-07-28T10:25:38Z</time>
      </trkpt>
      <trkpt lat="45.6638" lon="6.49449">
        <ele>2249</ele>
        <time>2022-07-28T10:25:39Z</time>
      </trkpt>
      <trkpt lat="45.6638" lon="6.49449">
        <ele>2249</ele>
        <time>2022-07-28T10:25:40Z</time>
      </trkpt>
      <trkpt lat="45.66381" lon="6.4945">
        <ele>2249</ele>
        <time>2022-07-28T10:25:41Z</time>
      </trkpt>
      <trkpt lat="45.66382" lon="6.49451">
        <ele>2248</ele>
        <time>2022-07-28T10:25:42Z</time>
      </trkpt>
      <trkpt lat="45.66382" lon="6.49451">
        <ele>2248</ele>
        <time>2022-07-28T10:25:43Z</time>
      </trkpt>
      <trkpt lat="45.66383" lon="6.49452">
        <ele>2248</ele>
        <time>2022-07-28T10:25:44Z</time>
      </trkpt>
      <trkpt lat="45.66384" lon="6.49452">
        <ele>2248</ele>
        <time>2022-07-28T10:25:45Z</time>
      </trkpt>
      <trkpt lat="45.66385" lon="6.49452">
        <ele>2248</ele>
        <time>2022-07-28T10:25:46Z</time>
      </trkpt>
      <trkpt lat="45.66386" lon="6.49452">
        <ele>2247</ele>
        <time>2022-07-28T10:25:47Z</time>
      </trkpt>
      <trkpt lat="45.66387" lon="6.49452">
        <ele>2247</ele>
        <time>2022-07-28T10:25:48Z</time>
      </trkpt>
      <trkpt lat="45.66387" lon="6.49452">
        <ele>2247</ele>
        <time>2022-07-28T10:25:49Z</time>
      </trkpt>
      <trkpt lat="45.66388" lon="6.49452">
        <ele>2247</ele>
        <time>2022-07-28T10:25:50Z</time>
      </trkpt>
      <trkpt lat="45.66389" lon="6.49453">
        <ele>2247</ele>
        <time>2022-07-28T10:25:51Z</time>
      </trkpt>
      <trkpt lat="45.6639" lon="6.49453">
        <ele>2246</ele>
        <time>2022-07-28T10:25:52Z</time>
      </trkpt>
      <trkpt lat="45.66392" lon="6.49453">
        <ele>2246</ele>
        <time>2022-07-28T10:25:58Z</time>
      </trkpt>
      <trkpt lat="45.66392" lon="6.49453">
        <ele>2246</ele>
        <time>2022-07-28T10:25:59Z</time>
      </trkpt>
      <trkpt lat="45.66393" lon="6.49454">
        <ele>2246</ele>
        <time>2022-07-28T10:26:00Z</time>
      </trkpt>
      <trkpt lat="45.66394" lon="6.49454">
        <ele>2246</ele>
        <time>2022-07-28T10:26:01Z</time>
      </trkpt>
      <trkpt lat="45.66395" lon="6.49454">
        <ele>2245</ele>
        <time>2022-07-28T10:26:02Z</time>
      </trkpt>
      <trkpt lat="45.66396" lon="6.49454">
        <ele>2245</ele>
        <time>2022-07-28T10:26:15Z</time>
      </trkpt>
      <trkpt lat="45.66398" lon="6.49455">
        <ele>2245</ele>
        <time>2022-07-28T10:26:16Z</time>
      </trkpt>
      <trkpt lat="45.66399" lon="6.49455">
        <ele>2244</ele>
        <time>2022-07-28T10:26:17Z</time>
      </trkpt>
      <trkpt lat="45.66399" lon="6.49456">
        <ele>2244</ele>
        <time>2022-07-28T10:26:18Z</time>
      </trkpt>
      <trkpt lat="45.664" lon="6.49456">
        <ele>2244</ele>
        <time>2022-07-28T10:26:19Z</time>
      </trkpt>
      <trkpt lat="45.66401" lon="6.49457">
        <ele>2244</ele>
        <time>2022-07-28T10:26:20Z</time>
      </trkpt>
      <trkpt lat="45.66402" lon="6.49457">
        <ele>2244</ele>
        <time>2022-07-28T10:26:21Z</time>
      </trkpt>
      <trkpt lat="45.66403" lon="6.49458">
        <ele>2243</ele>
        <time>2022-07-28T10:27:14Z</time>
      </trkpt>
      <trkpt lat="45.66404" lon="6.49458">
        <ele>2243</ele>
        <time>2022-07-28T10:27:15Z</time>
      </trkpt>
      <trkpt lat="45.66405" lon="6.49458">
        <ele>2243</ele>
        <time>2022-07-28T10:27:16Z</time>
      </trkpt>
      <trkpt lat="45.66405" lon="6.49458">
        <ele>2242</ele>
        <time>2022-07-28T10:27:17Z</time>
      </trkpt>
      <trkpt lat="45.66406" lon="6.49458">
        <ele>2242</ele>
        <time>2022-07-28T10:27:18Z</time>
      </trkpt>
      <trkpt lat="45.66407" lon="6.49458">
        <ele>2242</ele>
        <time>2022-07-28T10:27:19Z</time>
      </trkpt>
      <trkpt lat="45.66408" lon="6.49458">
        <ele>2242</ele>
        <time>2022-07-28T10:27:20Z</time>
      </trkpt>
      <trkpt lat="45.66409" lon="6.49458">
        <ele>2242</ele>
        <time>2022-07-28T10:27:21Z</time>
      </trkpt>
      <trkpt lat="45.66409" lon="6.49459">
        <ele>2241</ele>
        <time>2022-07-28T10:27:22Z</time>
      </trkpt>
      <trkpt lat="45.6641" lon="6.49459">
        <ele>2241</ele>
        <time>2022-07-28T10:27:23Z</time>
      </trkpt>
      <trkpt lat="45.66411" lon="6.4946">
        <ele>2241</ele>
        <time>2022-07-28T10:27:24Z</time>
      </trkpt>
      <trkpt lat="45.66411" lon="6.4946">
        <ele>2241</ele>
        <time>2022-07-28T10:27:25Z</time>
      </trkpt>
      <trkpt lat="45.66412" lon="6.4946">
        <ele>2241</ele>
        <time>2022-07-28T10:27:26Z</time>
      </trkpt>
      <trkpt lat="45.66412" lon="6.49461">
        <ele>2240</ele>
        <time>2022-07-28T10:27:27Z</time>
      </trkpt>
      <trkpt lat="45.66413" lon="6.49461">
        <ele>2240</ele>
        <time>2022-07-28T10:27:28Z</time>
      </trkpt>
      <trkpt lat="45.66414" lon="6.49462">
        <ele>2240</ele>
        <time>2022-07-28T10:27:29Z</time>
      </trkpt>
      <trkpt lat="45.66414" lon="6.49463">
        <ele>2240</ele>
        <time>2022-07-28T10:27:30Z</time>
      </trkpt>
      <trkpt lat="45.66415" lon="6.49463">
        <ele>2240</ele>
        <time>2022-07-28T10:27:31Z</time>
      </trkpt>
      <trkpt lat="45.66415" lon="6.49464">
        <ele>2239</ele>
        <time>2022-07-28T10:27:32Z</time>
      </trkpt>
      <trkpt lat="45.66415" lon="6.49464">
        <ele>2239</ele>
        <time>2022-07-28T10:27:33Z</time>
      </trkpt>
      <trkpt lat="45.66416" lon="6.49465">
        <ele>2239</ele>
        <time>2022-07-28T10:27:34Z</time>
      </trkpt>
      <trkpt lat="45.66417" lon="6.49466">
        <ele>2239</ele>
        <time>2022-07-28T10:27:35Z</time>
      </trkpt>
      <trkpt lat="45.66417" lon="6.49467">
        <ele>2239</ele>
        <time>2022-07-28T10:27:36Z</time>
      </trkpt>
      <trkpt lat="45.66418" lon="6.49468">
        <ele>2238</ele>
        <time>2022-07-28T10:27:37Z</time>
      </trkpt>
      <trkpt lat="45.66418" lon="6.49469">
        <ele>2238</ele>
        <time>2022-07-28T10:27:38Z</time>
      </trkpt>
      <trkpt lat="45.66419" lon="6.49469">
        <ele>2238</ele>
        <time>2022-07-28T10:27:39Z</time>
      </trkpt>
      <trkpt lat="45.6642" lon="6.4947">
        <ele>2238</ele>
        <time>2022-07-28T10:27:40Z</time>
      </trkpt>
      <trkpt lat="45.6642" lon="6.49471">
        <ele>2238</ele>
        <time>2022-07-28T10:27:41Z</time>
      </trkpt>
      <trkpt lat="45.6642" lon="6.49472">
        <ele>2237</ele>
        <time>2022-07-28T10:27:42Z</time>
      </trkpt>
      <trkpt lat="45.66421" lon="6.49472">
        <ele>2237</ele>
        <time>2022-07-28T10:27:43Z</time>
      </trkpt>
      <trkpt lat="45.66421" lon="6.49473">
        <ele>2237</ele>
        <time>2022-07-28T10:27:44Z</time>
      </trkpt>
      <trkpt lat="45.66422" lon="6.49473">
        <ele>2237</ele>
        <time>2022-07-28T10:27:45Z</time>
      </trkpt>
      <trkpt lat="45.66422" lon="6.49474">
        <ele>2237</ele>
        <time>2022-07-28T10:27:46Z</time>
      </trkpt>
      <trkpt lat="45.66423" lon="6.49474">
        <ele>2236</ele>
        <time>2022-07-28T10:27:47Z</time>
      </trkpt>
      <trkpt lat="45.66423" lon="6.49475">
        <ele>2236</ele>
        <time>2022-07-28T10:27:48Z</time>
      </trkpt>
      <trkpt lat="45.66423" lon="6.49475">
        <ele>2235</ele>
        <time>2022-07-28T10:27:49Z</time>
      </trkpt>
      <trkpt lat="45.66424" lon="6.49475">
        <ele>2235</ele>
        <time>2022-07-28T10:27:50Z</time>
      </trkpt>
      <trkpt lat="45.66424" lon="6.49475">
        <ele>2235</ele>
        <time>2022-07-28T10:27:51Z</time>
      </trkpt>
      <trkpt lat="45.66424" lon="6.49475">
        <ele>2234</ele>
        <time>2022-07-28T10:27:52Z</time>
      </trkpt>
      <trkpt lat="45.66425" lon="6.49475">
        <ele>2234</ele>
        <time>2022-07-28T10:27:53Z</time>
      </trkpt>
      <trkpt lat="45.66425" lon="6.49474">
        <ele>2234</ele>
        <time>2022-07-28T10:27:54Z</time>
      </trkpt>
      <trkpt lat="45.66425" lon="6.49474">
        <ele>2234</ele>
        <time>2022-07-28T10:27:55Z</time>
      </trkpt>
      <trkpt lat="45.66426" lon="6.49474">
        <ele>2234</ele>
        <time>2022-07-28T10:27:56Z</time>
      </trkpt>
      <trkpt lat="45.66426" lon="6.49474">
        <ele>2233</ele>
        <time>2022-07-28T10:27:57Z</time>
      </trkpt>
      <trkpt lat="45.66427" lon="6.49474">
        <ele>2233</ele>
        <time>2022-07-28T10:27:58Z</time>
      </trkpt>
      <trkpt lat="45.66427" lon="6.49474">
        <ele>2233</ele>
        <time>2022-07-28T10:27:59Z</time>
      </trkpt>
      <trkpt lat="45.66428" lon="6.49473">
        <ele>2233</ele>
        <time>2022-07-28T10:28:00Z</time>
      </trkpt>
      <trkpt lat="45.66429" lon="6.49473">
        <ele>2233</ele>
        <time>2022-07-28T10:28:01Z</time>
      </trkpt>
      <trkpt lat="45.6643" lon="6.49473">
        <ele>2231</ele>
        <time>2022-07-28T10:28:08Z</time>
      </trkpt>
      <trkpt lat="45.66431" lon="6.49473">
        <ele>2231</ele>
        <time>2022-07-28T10:28:09Z</time>
      </trkpt>
      <trkpt lat="45.66432" lon="6.49473">
        <ele>2231</ele>
        <time>2022-07-28T10:28:10Z</time>
      </trkpt>
      <trkpt lat="45.66433" lon="6.49474">
        <ele>2231</ele>
        <time>2022-07-28T10:28:11Z</time>
      </trkpt>
      <trkpt lat="45.66433" lon="6.49474">
        <ele>2230</ele>
        <time>2022-07-28T10:28:12Z</time>
      </trkpt>
      <trkpt lat="45.66434" lon="6.49474">
        <ele>2230</ele>
        <time>2022-07-28T10:28:13Z</time>
      </trkpt>
      <trkpt lat="45.66435" lon="6.49475">
        <ele>2229</ele>
        <time>2022-07-28T10:28:14Z</time>
      </trkpt>
      <trkpt lat="45.66436" lon="6.49475">
        <ele>2229</ele>
        <time>2022-07-28T10:28:15Z</time>
      </trkpt>
      <trkpt lat="45.66437" lon="6.49476">
        <ele>2229</ele>
        <time>2022-07-28T10:28:16Z</time>
      </trkpt>
      <trkpt lat="45.66438" lon="6.49477">
        <ele>2228</ele>
        <time>2022-07-28T10:28:17Z</time>
      </trkpt>
      <trkpt lat="45.66438" lon="6.49478">
        <ele>2228</ele>
        <time>2022-07-28T10:28:18Z</time>
      </trkpt>
      <trkpt lat="45.66439" lon="6.49478">
        <ele>2228</ele>
        <time>2022-07-28T10:28:19Z</time>
      </trkpt>
      <trkpt lat="45.6644" lon="6.49479">
        <ele>2228</ele>
        <time>2022-07-28T10:28:20Z</time>
      </trkpt>
      <trkpt lat="45.66441" lon="6.49479">
        <ele>2228</ele>
        <time>2022-07-28T10:28:21Z</time>
      </trkpt>
      <trkpt lat="45.66442" lon="6.4948">
        <ele>2227</ele>
        <time>2022-07-28T10:28:22Z</time>
      </trkpt>
      <trkpt lat="45.66443" lon="6.4948">
        <ele>2226</ele>
        <time>2022-07-28T10:28:23Z</time>
      </trkpt>
      <trkpt lat="45.66444" lon="6.49481">
        <ele>2226</ele>
        <time>2022-07-28T10:28:24Z</time>
      </trkpt>
      <trkpt lat="45.66445" lon="6.49482">
        <ele>2225</ele>
        <time>2022-07-28T10:28:25Z</time>
      </trkpt>
      <trkpt lat="45.66446" lon="6.49482">
        <ele>2225</ele>
        <time>2022-07-28T10:28:26Z</time>
      </trkpt>
      <trkpt lat="45.66447" lon="6.49483">
        <ele>2224</ele>
        <time>2022-07-28T10:28:27Z</time>
      </trkpt>
      <trkpt lat="45.66448" lon="6.49484">
        <ele>2224</ele>
        <time>2022-07-28T10:28:28Z</time>
      </trkpt>
      <trkpt lat="45.66449" lon="6.49485">
        <ele>2224</ele>
        <time>2022-07-28T10:28:29Z</time>
      </trkpt>
      <trkpt lat="45.66449" lon="6.49485">
        <ele>2224</ele>
        <time>2022-07-28T10:28:30Z</time>
      </trkpt>
      <trkpt lat="45.6645" lon="6.49486">
        <ele>2224</ele>
        <time>2022-07-28T10:28:31Z</time>
      </trkpt>
      <trkpt lat="45.66451" lon="6.49486">
        <ele>2223</ele>
        <time>2022-07-28T10:28:32Z</time>
      </trkpt>
      <trkpt lat="45.66451" lon="6.49487">
        <ele>2223</ele>
        <time>2022-07-28T10:28:33Z</time>
      </trkpt>
      <trkpt lat="45.66452" lon="6.49487">
        <ele>2223</ele>
        <time>2022-07-28T10:28:34Z</time>
      </trkpt>
      <trkpt lat="45.66452" lon="6.49488">
        <ele>2223</ele>
        <time>2022-07-28T10:28:35Z</time>
      </trkpt>
      <trkpt lat="45.66453" lon="6.49488">
        <ele>2223</ele>
        <time>2022-07-28T10:28:36Z</time>
      </trkpt>
      <trkpt lat="45.66454" lon="6.49488">
        <ele>2223</ele>
        <time>2022-07-28T10:28:37Z</time>
      </trkpt>
      <trkpt lat="45.66454" lon="6.49489">
        <ele>2223</ele>
        <time>2022-07-28T10:28:38Z</time>
      </trkpt>
      <trkpt lat="45.66456" lon="6.49489">
        <ele>2223</ele>
        <time>2022-07-28T10:28:39Z</time>
      </trkpt>
      <trkpt lat="45.66457" lon="6.4949">
        <ele>2223</ele>
        <time>2022-07-28T10:28:40Z</time>
      </trkpt>
      <trkpt lat="45.66458" lon="6.49491">
        <ele>2223</ele>
        <time>2022-07-28T10:28:41Z</time>
      </trkpt>
      <trkpt lat="45.66459" lon="6.49491">
        <ele>2222</ele>
        <time>2022-07-28T10:28:42Z</time>
      </trkpt>
      <trkpt lat="45.6646" lon="6.49492">
        <ele>2222</ele>
        <time>2022-07-28T10:28:43Z</time>
      </trkpt>
      <trkpt lat="45.66462" lon="6.49493">
        <ele>2222</ele>
        <time>2022-07-28T10:28:44Z</time>
      </trkpt>
      <trkpt lat="45.66463" lon="6.49494">
        <ele>2222</ele>
        <time>2022-07-28T10:28:45Z</time>
      </trkpt>
      <trkpt lat="45.66464" lon="6.49495">
        <ele>2222</ele>
        <time>2022-07-28T10:28:46Z</time>
      </trkpt>
      <trkpt lat="45.66465" lon="6.49496">
        <ele>2221</ele>
        <time>2022-07-28T10:28:47Z</time>
      </trkpt>
      <trkpt lat="45.66466" lon="6.49497">
        <ele>2221</ele>
        <time>2022-07-28T10:28:48Z</time>
      </trkpt>
      <trkpt lat="45.66467" lon="6.49497">
        <ele>2221</ele>
        <time>2022-07-28T10:28:49Z</time>
      </trkpt>
      <trkpt lat="45.66468" lon="6.49498">
        <ele>2221</ele>
        <time>2022-07-28T10:28:50Z</time>
      </trkpt>
      <trkpt lat="45.66469" lon="6.49499">
        <ele>2221</ele>
        <time>2022-07-28T10:28:51Z</time>
      </trkpt>
      <trkpt lat="45.6647" lon="6.49499">
        <ele>2221</ele>
        <time>2022-07-28T10:28:52Z</time>
      </trkpt>
      <trkpt lat="45.66471" lon="6.49499">
        <ele>2221</ele>
        <time>2022-07-28T10:28:53Z</time>
      </trkpt>
      <trkpt lat="45.66471" lon="6.495">
        <ele>2221</ele>
        <time>2022-07-28T10:28:54Z</time>
      </trkpt>
      <trkpt lat="45.66471" lon="6.495">
        <ele>2221</ele>
        <time>2022-07-28T10:28:55Z</time>
      </trkpt>
      <trkpt lat="45.66472" lon="6.495">
        <ele>2221</ele>
        <time>2022-07-28T10:28:56Z</time>
      </trkpt>
      <trkpt lat="45.66472" lon="6.495">
        <ele>2220</ele>
        <time>2022-07-28T10:28:57Z</time>
      </trkpt>
      <trkpt lat="45.66473" lon="6.495">
        <ele>2220</ele>
        <time>2022-07-28T10:28:58Z</time>
      </trkpt>
      <trkpt lat="45.66474" lon="6.49501">
        <ele>2220</ele>
        <time>2022-07-28T10:28:59Z</time>
      </trkpt>
      <trkpt lat="45.66474" lon="6.49501">
        <ele>2220</ele>
        <time>2022-07-28T10:29:00Z</time>
      </trkpt>
      <trkpt lat="45.66475" lon="6.49501">
        <ele>2220</ele>
        <time>2022-07-28T10:29:01Z</time>
      </trkpt>
      <trkpt lat="45.66476" lon="6.49502">
        <ele>2220</ele>
        <time>2022-07-28T10:29:02Z</time>
      </trkpt>
      <trkpt lat="45.66477" lon="6.49502">
        <ele>2220</ele>
        <time>2022-07-28T10:29:03Z</time>
      </trkpt>
      <trkpt lat="45.66479" lon="6.49503">
        <ele>2220</ele>
        <time>2022-07-28T10:29:04Z</time>
      </trkpt>
      <trkpt lat="45.6648" lon="6.49504">
        <ele>2220</ele>
        <time>2022-07-28T10:29:05Z</time>
      </trkpt>
      <trkpt lat="45.66481" lon="6.49504">
        <ele>2220</ele>
        <time>2022-07-28T10:29:06Z</time>
      </trkpt>
      <trkpt lat="45.66482" lon="6.49505">
        <ele>2219</ele>
        <time>2022-07-28T10:29:07Z</time>
      </trkpt>
      <trkpt lat="45.66484" lon="6.49506">
        <ele>2219</ele>
        <time>2022-07-28T10:29:08Z</time>
      </trkpt>
      <trkpt lat="45.66485" lon="6.49506">
        <ele>2219</ele>
        <time>2022-07-28T10:29:09Z</time>
      </trkpt>
      <trkpt lat="45.66486" lon="6.49507">
        <ele>2219</ele>
        <time>2022-07-28T10:29:10Z</time>
      </trkpt>
      <trkpt lat="45.66487" lon="6.49508">
        <ele>2219</ele>
        <time>2022-07-28T10:29:11Z</time>
      </trkpt>
      <trkpt lat="45.66488" lon="6.49509">
        <ele>2219</ele>
        <time>2022-07-28T10:29:12Z</time>
      </trkpt>
      <trkpt lat="45.6649" lon="6.4951">
        <ele>2219</ele>
        <time>2022-07-28T10:29:13Z</time>
      </trkpt>
      <trkpt lat="45.66491" lon="6.4951">
        <ele>2219</ele>
        <time>2022-07-28T10:29:14Z</time>
      </trkpt>
      <trkpt lat="45.66492" lon="6.49511">
        <ele>2219</ele>
        <time>2022-07-28T10:29:15Z</time>
      </trkpt>
      <trkpt lat="45.66493" lon="6.49512">
        <ele>2219</ele>
        <time>2022-07-28T10:29:16Z</time>
      </trkpt>
      <trkpt lat="45.66494" lon="6.49513">
        <ele>2218</ele>
        <time>2022-07-28T10:29:17Z</time>
      </trkpt>
      <trkpt lat="45.66494" lon="6.49513">
        <ele>2218</ele>
        <time>2022-07-28T10:29:18Z</time>
      </trkpt>
      <trkpt lat="45.66495" lon="6.49514">
        <ele>2218</ele>
        <time>2022-07-28T10:29:19Z</time>
      </trkpt>
      <trkpt lat="45.66496" lon="6.49514">
        <ele>2218</ele>
        <time>2022-07-28T10:29:20Z</time>
      </trkpt>
      <trkpt lat="45.66497" lon="6.49515">
        <ele>2218</ele>
        <time>2022-07-28T10:29:21Z</time>
      </trkpt>
      <trkpt lat="45.66498" lon="6.49515">
        <ele>2218</ele>
        <time>2022-07-28T10:29:22Z</time>
      </trkpt>
      <trkpt lat="45.66499" lon="6.49515">
        <ele>2218</ele>
        <time>2022-07-28T10:29:23Z</time>
      </trkpt>
      <trkpt lat="45.665" lon="6.49515">
        <ele>2218</ele>
        <time>2022-07-28T10:29:24Z</time>
      </trkpt>
      <trkpt lat="45.66501" lon="6.49516">
        <ele>2218</ele>
        <time>2022-07-28T10:29:25Z</time>
      </trkpt>
      <trkpt lat="45.66501" lon="6.49516">
        <ele>2218</ele>
        <time>2022-07-28T10:29:26Z</time>
      </trkpt>
      <trkpt lat="45.66502" lon="6.49516">
        <ele>2217</ele>
        <time>2022-07-28T10:29:27Z</time>
      </trkpt>
      <trkpt lat="45.66503" lon="6.49516">
        <ele>2217</ele>
        <time>2022-07-28T10:29:28Z</time>
      </trkpt>
      <trkpt lat="45.66504" lon="6.49517">
        <ele>2217</ele>
        <time>2022-07-28T10:29:29Z</time>
      </trkpt>
      <trkpt lat="45.66504" lon="6.49517">
        <ele>2217</ele>
        <time>2022-07-28T10:29:30Z</time>
      </trkpt>
      <trkpt lat="45.66505" lon="6.49517">
        <ele>2217</ele>
        <time>2022-07-28T10:29:31Z</time>
      </trkpt>
      <trkpt lat="45.66506" lon="6.49518">
        <ele>2216</ele>
        <time>2022-07-28T10:29:32Z</time>
      </trkpt>
      <trkpt lat="45.66506" lon="6.49518">
        <ele>2216</ele>
        <time>2022-07-28T10:29:33Z</time>
      </trkpt>
      <trkpt lat="45.66507" lon="6.49518">
        <ele>2216</ele>
        <time>2022-07-28T10:29:34Z</time>
      </trkpt>
      <trkpt lat="45.66508" lon="6.49519">
        <ele>2216</ele>
        <time>2022-07-28T10:29:35Z</time>
      </trkpt>
      <trkpt lat="45.66509" lon="6.49519">
        <ele>2216</ele>
        <time>2022-07-28T10:29:36Z</time>
      </trkpt>
      <trkpt lat="45.66509" lon="6.4952">
        <ele>2215</ele>
        <time>2022-07-28T10:29:37Z</time>
      </trkpt>
      <trkpt lat="45.6651" lon="6.4952">
        <ele>2215</ele>
        <time>2022-07-28T10:29:38Z</time>
      </trkpt>
      <trkpt lat="45.66511" lon="6.49521">
        <ele>2215</ele>
        <time>2022-07-28T10:29:39Z</time>
      </trkpt>
      <trkpt lat="45.66512" lon="6.49521">
        <ele>2215</ele>
        <time>2022-07-28T10:29:40Z</time>
      </trkpt>
      <trkpt lat="45.66513" lon="6.49522">
        <ele>2215</ele>
        <time>2022-07-28T10:29:41Z</time>
      </trkpt>
      <trkpt lat="45.66513" lon="6.49522">
        <ele>2214</ele>
        <time>2022-07-28T10:29:42Z</time>
      </trkpt>
      <trkpt lat="45.66514" lon="6.49523">
        <ele>2214</ele>
        <time>2022-07-28T10:29:43Z</time>
      </trkpt>
      <trkpt lat="45.66515" lon="6.49523">
        <ele>2214</ele>
        <time>2022-07-28T10:29:44Z</time>
      </trkpt>
      <trkpt lat="45.66516" lon="6.49524">
        <ele>2214</ele>
        <time>2022-07-28T10:29:45Z</time>
      </trkpt>
      <trkpt lat="45.66517" lon="6.49525">
        <ele>2214</ele>
        <time>2022-07-28T10:29:46Z</time>
      </trkpt>
      <trkpt lat="45.66518" lon="6.49525">
        <ele>2213</ele>
        <time>2022-07-28T10:29:47Z</time>
      </trkpt>
      <trkpt lat="45.6652" lon="6.49526">
        <ele>2213</ele>
        <time>2022-07-28T10:29:48Z</time>
      </trkpt>
      <trkpt lat="45.66521" lon="6.49527">
        <ele>2213</ele>
        <time>2022-07-28T10:29:49Z</time>
      </trkpt>
      <trkpt lat="45.66522" lon="6.49528">
        <ele>2213</ele>
        <time>2022-07-28T10:29:50Z</time>
      </trkpt>
      <trkpt lat="45.66523" lon="6.49529">
        <ele>2213</ele>
        <time>2022-07-28T10:29:51Z</time>
      </trkpt>
      <trkpt lat="45.66524" lon="6.4953">
        <ele>2212</ele>
        <time>2022-07-28T10:29:52Z</time>
      </trkpt>
      <trkpt lat="45.66526" lon="6.4953">
        <ele>2212</ele>
        <time>2022-07-28T10:29:53Z</time>
      </trkpt>
      <trkpt lat="45.66527" lon="6.49531">
        <ele>2212</ele>
        <time>2022-07-28T10:29:54Z</time>
      </trkpt>
      <trkpt lat="45.66528" lon="6.49532">
        <ele>2212</ele>
        <time>2022-07-28T10:29:55Z</time>
      </trkpt>
      <trkpt lat="45.66529" lon="6.49532">
        <ele>2212</ele>
        <time>2022-07-28T10:29:56Z</time>
      </trkpt>
      <trkpt lat="45.6653" lon="6.49533">
        <ele>2211</ele>
        <time>2022-07-28T10:29:57Z</time>
      </trkpt>
      <trkpt lat="45.66531" lon="6.49533">
        <ele>2211</ele>
        <time>2022-07-28T10:29:58Z</time>
      </trkpt>
      <trkpt lat="45.66532" lon="6.49534">
        <ele>2211</ele>
        <time>2022-07-28T10:29:59Z</time>
      </trkpt>
      <trkpt lat="45.66533" lon="6.49534">
        <ele>2211</ele>
        <time>2022-07-28T10:30:00Z</time>
      </trkpt>
      <trkpt lat="45.66534" lon="6.49535">
        <ele>2211</ele>
        <time>2022-07-28T10:30:01Z</time>
      </trkpt>
      <trkpt lat="45.66535" lon="6.49535">
        <ele>2210</ele>
        <time>2022-07-28T10:30:02Z</time>
      </trkpt>
      <trkpt lat="45.66536" lon="6.49536">
        <ele>2210</ele>
        <time>2022-07-28T10:30:03Z</time>
      </trkpt>
      <trkpt lat="45.66537" lon="6.49536">
        <ele>2210</ele>
        <time>2022-07-28T10:30:04Z</time>
      </trkpt>
      <trkpt lat="45.66538" lon="6.49536">
        <ele>2210</ele>
        <time>2022-07-28T10:30:05Z</time>
      </trkpt>
      <trkpt lat="45.66539" lon="6.49537">
        <ele>2210</ele>
        <time>2022-07-28T10:30:06Z</time>
      </trkpt>
      <trkpt lat="45.6654" lon="6.49537">
        <ele>2209</ele>
        <time>2022-07-28T10:30:07Z</time>
      </trkpt>
      <trkpt lat="45.66541" lon="6.49537">
        <ele>2209</ele>
        <time>2022-07-28T10:30:08Z</time>
      </trkpt>
      <trkpt lat="45.66542" lon="6.49537">
        <ele>2208</ele>
        <time>2022-07-28T10:30:09Z</time>
      </trkpt>
      <trkpt lat="45.66543" lon="6.49538">
        <ele>2208</ele>
        <time>2022-07-28T10:30:10Z</time>
      </trkpt>
      <trkpt lat="45.66545" lon="6.49538">
        <ele>2208</ele>
        <time>2022-07-28T10:30:11Z</time>
      </trkpt>
      <trkpt lat="45.66546" lon="6.49538">
        <ele>2207</ele>
        <time>2022-07-28T10:30:12Z</time>
      </trkpt>
      <trkpt lat="45.66547" lon="6.49538">
        <ele>2207</ele>
        <time>2022-07-28T10:30:13Z</time>
      </trkpt>
      <trkpt lat="45.66548" lon="6.49539">
        <ele>2207</ele>
        <time>2022-07-28T10:30:14Z</time>
      </trkpt>
      <trkpt lat="45.66549" lon="6.49539">
        <ele>2207</ele>
        <time>2022-07-28T10:30:15Z</time>
      </trkpt>
      <trkpt lat="45.6655" lon="6.49539">
        <ele>2207</ele>
        <time>2022-07-28T10:30:16Z</time>
      </trkpt>
      <trkpt lat="45.66552" lon="6.49539">
        <ele>2206</ele>
        <time>2022-07-28T10:30:17Z</time>
      </trkpt>
      <trkpt lat="45.66553" lon="6.49539">
        <ele>2206</ele>
        <time>2022-07-28T10:30:18Z</time>
      </trkpt>
      <trkpt lat="45.66554" lon="6.49539">
        <ele>2206</ele>
        <time>2022-07-28T10:30:19Z</time>
      </trkpt>
      <trkpt lat="45.66556" lon="6.4954">
        <ele>2206</ele>
        <time>2022-07-28T10:30:20Z</time>
      </trkpt>
      <trkpt lat="45.66557" lon="6.4954">
        <ele>2206</ele>
        <time>2022-07-28T10:30:21Z</time>
      </trkpt>
      <trkpt lat="45.66558" lon="6.4954">
        <ele>2205</ele>
        <time>2022-07-28T10:30:22Z</time>
      </trkpt>
      <trkpt lat="45.6656" lon="6.49541">
        <ele>2205</ele>
        <time>2022-07-28T10:30:23Z</time>
      </trkpt>
      <trkpt lat="45.66561" lon="6.49541">
        <ele>2205</ele>
        <time>2022-07-28T10:30:24Z</time>
      </trkpt>
      <trkpt lat="45.66562" lon="6.49542">
        <ele>2205</ele>
        <time>2022-07-28T10:30:25Z</time>
      </trkpt>
      <trkpt lat="45.66564" lon="6.49542">
        <ele>2205</ele>
        <time>2022-07-28T10:30:26Z</time>
      </trkpt>
      <trkpt lat="45.66565" lon="6.49542">
        <ele>2204</ele>
        <time>2022-07-28T10:30:27Z</time>
      </trkpt>
      <trkpt lat="45.66566" lon="6.49543">
        <ele>2204</ele>
        <time>2022-07-28T10:30:28Z</time>
      </trkpt>
      <trkpt lat="45.66567" lon="6.49543">
        <ele>2204</ele>
        <time>2022-07-28T10:30:29Z</time>
      </trkpt>
      <trkpt lat="45.66569" lon="6.49544">
        <ele>2204</ele>
        <time>2022-07-28T10:30:30Z</time>
      </trkpt>
      <trkpt lat="45.6657" lon="6.49544">
        <ele>2204</ele>
        <time>2022-07-28T10:30:31Z</time>
      </trkpt>
      <trkpt lat="45.66571" lon="6.49545">
        <ele>2203</ele>
        <time>2022-07-28T10:30:32Z</time>
      </trkpt>
      <trkpt lat="45.66572" lon="6.49546">
        <ele>2203</ele>
        <time>2022-07-28T10:30:33Z</time>
      </trkpt>
      <trkpt lat="45.66573" lon="6.49546">
        <ele>2203</ele>
        <time>2022-07-28T10:30:34Z</time>
      </trkpt>
      <trkpt lat="45.66574" lon="6.49547">
        <ele>2203</ele>
        <time>2022-07-28T10:30:35Z</time>
      </trkpt>
      <trkpt lat="45.66575" lon="6.49547">
        <ele>2203</ele>
        <time>2022-07-28T10:30:36Z</time>
      </trkpt>
      <trkpt lat="45.66576" lon="6.49547">
        <ele>2203</ele>
        <time>2022-07-28T10:30:37Z</time>
      </trkpt>
      <trkpt lat="45.66577" lon="6.49547">
        <ele>2203</ele>
        <time>2022-07-28T10:30:38Z</time>
      </trkpt>
      <trkpt lat="45.66578" lon="6.49547">
        <ele>2203</ele>
        <time>2022-07-28T10:30:39Z</time>
      </trkpt>
      <trkpt lat="45.66579" lon="6.49547">
        <ele>2203</ele>
        <time>2022-07-28T10:30:40Z</time>
      </trkpt>
      <trkpt lat="45.6658" lon="6.49547">
        <ele>2203</ele>
        <time>2022-07-28T10:30:41Z</time>
      </trkpt>
      <trkpt lat="45.66581" lon="6.49547">
        <ele>2202</ele>
        <time>2022-07-28T10:30:42Z</time>
      </trkpt>
      <trkpt lat="45.66582" lon="6.49547">
        <ele>2202</ele>
        <time>2022-07-28T10:30:43Z</time>
      </trkpt>
      <trkpt lat="45.66583" lon="6.49548">
        <ele>2202</ele>
        <time>2022-07-28T10:30:44Z</time>
      </trkpt>
      <trkpt lat="45.66584" lon="6.49548">
        <ele>2202</ele>
        <time>2022-07-28T10:30:45Z</time>
      </trkpt>
      <trkpt lat="45.66585" lon="6.49548">
        <ele>2202</ele>
        <time>2022-07-28T10:30:46Z</time>
      </trkpt>
      <trkpt lat="45.66587" lon="6.49549">
        <ele>2201</ele>
        <time>2022-07-28T10:30:47Z</time>
      </trkpt>
      <trkpt lat="45.66588" lon="6.49549">
        <ele>2201</ele>
        <time>2022-07-28T10:30:48Z</time>
      </trkpt>
      <trkpt lat="45.66589" lon="6.4955">
        <ele>2201</ele>
        <time>2022-07-28T10:30:49Z</time>
      </trkpt>
      <trkpt lat="45.6659" lon="6.49551">
        <ele>2201</ele>
        <time>2022-07-28T10:30:50Z</time>
      </trkpt>
      <trkpt lat="45.66591" lon="6.49551">
        <ele>2201</ele>
        <time>2022-07-28T10:30:51Z</time>
      </trkpt>
      <trkpt lat="45.66592" lon="6.49552">
        <ele>2200</ele>
        <time>2022-07-28T10:30:52Z</time>
      </trkpt>
      <trkpt lat="45.66593" lon="6.49553">
        <ele>2199</ele>
        <time>2022-07-28T10:30:53Z</time>
      </trkpt>
      <trkpt lat="45.66594" lon="6.49553">
        <ele>2199</ele>
        <time>2022-07-28T10:30:54Z</time>
      </trkpt>
      <trkpt lat="45.66595" lon="6.49554">
        <ele>2198</ele>
        <time>2022-07-28T10:30:55Z</time>
      </trkpt>
      <trkpt lat="45.66596" lon="6.49555">
        <ele>2198</ele>
        <time>2022-07-28T10:30:56Z</time>
      </trkpt>
      <trkpt lat="45.66597" lon="6.49555">
        <ele>2197</ele>
        <time>2022-07-28T10:30:57Z</time>
      </trkpt>
      <trkpt lat="45.66598" lon="6.49556">
        <ele>2197</ele>
        <time>2022-07-28T10:30:58Z</time>
      </trkpt>
      <trkpt lat="45.66599" lon="6.49556">
        <ele>2197</ele>
        <time>2022-07-28T10:30:59Z</time>
      </trkpt>
      <trkpt lat="45.666" lon="6.49557">
        <ele>2197</ele>
        <time>2022-07-28T10:31:00Z</time>
      </trkpt>
      <trkpt lat="45.66601" lon="6.49557">
        <ele>2197</ele>
        <time>2022-07-28T10:31:01Z</time>
      </trkpt>
      <trkpt lat="45.66602" lon="6.49558">
        <ele>2197</ele>
        <time>2022-07-28T10:31:02Z</time>
      </trkpt>
      <trkpt lat="45.66603" lon="6.49558">
        <ele>2197</ele>
        <time>2022-07-28T10:31:03Z</time>
      </trkpt>
      <trkpt lat="45.66603" lon="6.49558">
        <ele>2197</ele>
        <time>2022-07-28T10:31:04Z</time>
      </trkpt>
      <trkpt lat="45.66604" lon="6.49559">
        <ele>2197</ele>
        <time>2022-07-28T10:31:05Z</time>
      </trkpt>
      <trkpt lat="45.66605" lon="6.49559">
        <ele>2197</ele>
        <time>2022-07-28T10:31:06Z</time>
      </trkpt>
      <trkpt lat="45.66606" lon="6.4956">
        <ele>2196</ele>
        <time>2022-07-28T10:31:07Z</time>
      </trkpt>
      <trkpt lat="45.66607" lon="6.49561">
        <ele>2196</ele>
        <time>2022-07-28T10:31:08Z</time>
      </trkpt>
      <trkpt lat="45.66608" lon="6.49561">
        <ele>2196</ele>
        <time>2022-07-28T10:31:09Z</time>
      </trkpt>
      <trkpt lat="45.66609" lon="6.49562">
        <ele>2196</ele>
        <time>2022-07-28T10:31:10Z</time>
      </trkpt>
      <trkpt lat="45.66609" lon="6.49562">
        <ele>2196</ele>
        <time>2022-07-28T10:31:11Z</time>
      </trkpt>
      <trkpt lat="45.6661" lon="6.49563">
        <ele>2195</ele>
        <time>2022-07-28T10:31:12Z</time>
      </trkpt>
      <trkpt lat="45.6661" lon="6.49563">
        <ele>2195</ele>
        <time>2022-07-28T10:31:13Z</time>
      </trkpt>
      <trkpt lat="45.66611" lon="6.49564">
        <ele>2194</ele>
        <time>2022-07-28T10:31:23Z</time>
      </trkpt>
      <trkpt lat="45.66612" lon="6.49564">
        <ele>2194</ele>
        <time>2022-07-28T10:31:24Z</time>
      </trkpt>
      <trkpt lat="45.66612" lon="6.49565">
        <ele>2194</ele>
        <time>2022-07-28T10:31:25Z</time>
      </trkpt>
      <trkpt lat="45.66613" lon="6.49564">
        <ele>2194</ele>
        <time>2022-07-28T10:31:26Z</time>
      </trkpt>
      <trkpt lat="45.66613" lon="6.49564">
        <ele>2194</ele>
        <time>2022-07-28T10:31:27Z</time>
      </trkpt>
      <trkpt lat="45.66614" lon="6.49564">
        <ele>2194</ele>
        <time>2022-07-28T10:31:28Z</time>
      </trkpt>
      <trkpt lat="45.66615" lon="6.49564">
        <ele>2194</ele>
        <time>2022-07-28T10:31:29Z</time>
      </trkpt>
      <trkpt lat="45.66616" lon="6.49564">
        <ele>2194</ele>
        <time>2022-07-28T10:31:30Z</time>
      </trkpt>
      <trkpt lat="45.66617" lon="6.49564">
        <ele>2194</ele>
        <time>2022-07-28T10:31:31Z</time>
      </trkpt>
      <trkpt lat="45.66618" lon="6.49564">
        <ele>2193</ele>
        <time>2022-07-28T10:31:32Z</time>
      </trkpt>
      <trkpt lat="45.66619" lon="6.49564">
        <ele>2193</ele>
        <time>2022-07-28T10:31:33Z</time>
      </trkpt>
      <trkpt lat="45.66619" lon="6.49564">
        <ele>2193</ele>
        <time>2022-07-28T10:31:34Z</time>
      </trkpt>
      <trkpt lat="45.6662" lon="6.49564">
        <ele>2193</ele>
        <time>2022-07-28T10:31:35Z</time>
      </trkpt>
      <trkpt lat="45.66621" lon="6.49564">
        <ele>2193</ele>
        <time>2022-07-28T10:31:36Z</time>
      </trkpt>
      <trkpt lat="45.66621" lon="6.49564">
        <ele>2192</ele>
        <time>2022-07-28T10:31:37Z</time>
      </trkpt>
      <trkpt lat="45.66622" lon="6.49565">
        <ele>2192</ele>
        <time>2022-07-28T10:31:38Z</time>
      </trkpt>
      <trkpt lat="45.66623" lon="6.49565">
        <ele>2192</ele>
        <time>2022-07-28T10:31:39Z</time>
      </trkpt>
      <trkpt lat="45.66623" lon="6.49565">
        <ele>2192</ele>
        <time>2022-07-28T10:31:40Z</time>
      </trkpt>
      <trkpt lat="45.66624" lon="6.49565">
        <ele>2192</ele>
        <time>2022-07-28T10:31:41Z</time>
      </trkpt>
      <trkpt lat="45.66625" lon="6.49565">
        <ele>2191</ele>
        <time>2022-07-28T10:31:42Z</time>
      </trkpt>
      <trkpt lat="45.66625" lon="6.49565">
        <ele>2191</ele>
        <time>2022-07-28T10:31:43Z</time>
      </trkpt>
      <trkpt lat="45.66626" lon="6.49566">
        <ele>2191</ele>
        <time>2022-07-28T10:31:44Z</time>
      </trkpt>
      <trkpt lat="45.66626" lon="6.49566">
        <ele>2191</ele>
        <time>2022-07-28T10:31:45Z</time>
      </trkpt>
      <trkpt lat="45.66627" lon="6.49566">
        <ele>2191</ele>
        <time>2022-07-28T10:31:46Z</time>
      </trkpt>
      <trkpt lat="45.66628" lon="6.49566">
        <ele>2190</ele>
        <time>2022-07-28T10:31:47Z</time>
      </trkpt>
      <trkpt lat="45.66628" lon="6.49566">
        <ele>2190</ele>
        <time>2022-07-28T10:31:48Z</time>
      </trkpt>
      <trkpt lat="45.66629" lon="6.49566">
        <ele>2190</ele>
        <time>2022-07-28T10:31:49Z</time>
      </trkpt>
      <trkpt lat="45.6663" lon="6.49566">
        <ele>2190</ele>
        <time>2022-07-28T10:31:50Z</time>
      </trkpt>
      <trkpt lat="45.66631" lon="6.49566">
        <ele>2190</ele>
        <time>2022-07-28T10:31:51Z</time>
      </trkpt>
      <trkpt lat="45.66632" lon="6.49566">
        <ele>2190</ele>
        <time>2022-07-28T10:31:52Z</time>
      </trkpt>
      <trkpt lat="45.66632" lon="6.49566">
        <ele>2190</ele>
        <time>2022-07-28T10:31:53Z</time>
      </trkpt>
      <trkpt lat="45.66633" lon="6.49565">
        <ele>2190</ele>
        <time>2022-07-28T10:31:54Z</time>
      </trkpt>
      <trkpt lat="45.66634" lon="6.49565">
        <ele>2190</ele>
        <time>2022-07-28T10:31:55Z</time>
      </trkpt>
      <trkpt lat="45.66635" lon="6.49565">
        <ele>2190</ele>
        <time>2022-07-28T10:31:56Z</time>
      </trkpt>
      <trkpt lat="45.66636" lon="6.49565">
        <ele>2189</ele>
        <time>2022-07-28T10:31:57Z</time>
      </trkpt>
      <trkpt lat="45.66637" lon="6.49565">
        <ele>2189</ele>
        <time>2022-07-28T10:31:58Z</time>
      </trkpt>
      <trkpt lat="45.66638" lon="6.49565">
        <ele>2188</ele>
        <time>2022-07-28T10:31:59Z</time>
      </trkpt>
      <trkpt lat="45.66639" lon="6.49565">
        <ele>2188</ele>
        <time>2022-07-28T10:32:00Z</time>
      </trkpt>
      <trkpt lat="45.6664" lon="6.49566">
        <ele>2188</ele>
        <time>2022-07-28T10:32:01Z</time>
      </trkpt>
      <trkpt lat="45.6664" lon="6.49566">
        <ele>2187</ele>
        <time>2022-07-28T10:32:02Z</time>
      </trkpt>
      <trkpt lat="45.66641" lon="6.49566">
        <ele>2187</ele>
        <time>2022-07-28T10:32:03Z</time>
      </trkpt>
      <trkpt lat="45.66642" lon="6.49567">
        <ele>2187</ele>
        <time>2022-07-28T10:32:04Z</time>
      </trkpt>
      <trkpt lat="45.66642" lon="6.49567">
        <ele>2187</ele>
        <time>2022-07-28T10:32:05Z</time>
      </trkpt>
      <trkpt lat="45.66643" lon="6.49567">
        <ele>2187</ele>
        <time>2022-07-28T10:32:06Z</time>
      </trkpt>
      <trkpt lat="45.66644" lon="6.49567">
        <ele>2186</ele>
        <time>2022-07-28T10:32:07Z</time>
      </trkpt>
      <trkpt lat="45.66644" lon="6.49568">
        <ele>2186</ele>
        <time>2022-07-28T10:32:08Z</time>
      </trkpt>
      <trkpt lat="45.66645" lon="6.49568">
        <ele>2186</ele>
        <time>2022-07-28T10:32:09Z</time>
      </trkpt>
      <trkpt lat="45.66646" lon="6.49568">
        <ele>2186</ele>
        <time>2022-07-28T10:32:10Z</time>
      </trkpt>
      <trkpt lat="45.66647" lon="6.49568">
        <ele>2186</ele>
        <time>2022-07-28T10:32:11Z</time>
      </trkpt>
      <trkpt lat="45.66648" lon="6.49568">
        <ele>2185</ele>
        <time>2022-07-28T10:32:12Z</time>
      </trkpt>
      <trkpt lat="45.66648" lon="6.49568">
        <ele>2185</ele>
        <time>2022-07-28T10:32:13Z</time>
      </trkpt>
      <trkpt lat="45.66649" lon="6.49568">
        <ele>2185</ele>
        <time>2022-07-28T10:32:14Z</time>
      </trkpt>
      <trkpt lat="45.6665" lon="6.49568">
        <ele>2185</ele>
        <time>2022-07-28T10:32:15Z</time>
      </trkpt>
      <trkpt lat="45.66651" lon="6.49568">
        <ele>2185</ele>
        <time>2022-07-28T10:32:16Z</time>
      </trkpt>
      <trkpt lat="45.66652" lon="6.49568">
        <ele>2184</ele>
        <time>2022-07-28T10:32:17Z</time>
      </trkpt>
      <trkpt lat="45.66653" lon="6.49568">
        <ele>2184</ele>
        <time>2022-07-28T10:32:18Z</time>
      </trkpt>
      <trkpt lat="45.66654" lon="6.49568">
        <ele>2184</ele>
        <time>2022-07-28T10:32:19Z</time>
      </trkpt>
      <trkpt lat="45.66654" lon="6.49568">
        <ele>2184</ele>
        <time>2022-07-28T10:32:20Z</time>
      </trkpt>
      <trkpt lat="45.66655" lon="6.49568">
        <ele>2184</ele>
        <time>2022-07-28T10:32:21Z</time>
      </trkpt>
      <trkpt lat="45.66655" lon="6.49568">
        <ele>2184</ele>
        <time>2022-07-28T10:32:22Z</time>
      </trkpt>
      <trkpt lat="45.66656" lon="6.49568">
        <ele>2184</ele>
        <time>2022-07-28T10:32:23Z</time>
      </trkpt>
      <trkpt lat="45.66656" lon="6.49568">
        <ele>2184</ele>
        <time>2022-07-28T10:32:24Z</time>
      </trkpt>
      <trkpt lat="45.66657" lon="6.49568">
        <ele>2184</ele>
        <time>2022-07-28T10:32:25Z</time>
      </trkpt>
      <trkpt lat="45.66658" lon="6.49568">
        <ele>2184</ele>
        <time>2022-07-28T10:32:26Z</time>
      </trkpt>
      <trkpt lat="45.66658" lon="6.49568">
        <ele>2183</ele>
        <time>2022-07-28T10:32:27Z</time>
      </trkpt>
      <trkpt lat="45.66658" lon="6.49568">
        <ele>2183</ele>
        <time>2022-07-28T10:32:28Z</time>
      </trkpt>
      <trkpt lat="45.66659" lon="6.49568">
        <ele>2183</ele>
        <time>2022-07-28T10:32:29Z</time>
      </trkpt>
      <trkpt lat="45.66659" lon="6.49568">
        <ele>2183</ele>
        <time>2022-07-28T10:32:30Z</time>
      </trkpt>
      <trkpt lat="45.66659" lon="6.49568">
        <ele>2183</ele>
        <time>2022-07-28T10:32:31Z</time>
      </trkpt>
      <trkpt lat="45.6666" lon="6.49568">
        <ele>2182</ele>
        <time>2022-07-28T10:32:32Z</time>
      </trkpt>
      <trkpt lat="45.66661" lon="6.49568">
        <ele>2182</ele>
        <time>2022-07-28T10:32:33Z</time>
      </trkpt>
      <trkpt lat="45.66662" lon="6.49569">
        <ele>2182</ele>
        <time>2022-07-28T10:32:34Z</time>
      </trkpt>
      <trkpt lat="45.66662" lon="6.49569">
        <ele>2182</ele>
        <time>2022-07-28T10:32:35Z</time>
      </trkpt>
      <trkpt lat="45.66663" lon="6.49569">
        <ele>2182</ele>
        <time>2022-07-28T10:32:36Z</time>
      </trkpt>
      <trkpt lat="45.66664" lon="6.49569">
        <ele>2181</ele>
        <time>2022-07-28T10:32:37Z</time>
      </trkpt>
      <trkpt lat="45.66665" lon="6.49569">
        <ele>2181</ele>
        <time>2022-07-28T10:32:45Z</time>
      </trkpt>
      <trkpt lat="45.66666" lon="6.49569">
        <ele>2181</ele>
        <time>2022-07-28T10:32:46Z</time>
      </trkpt>
      <trkpt lat="45.66667" lon="6.49569">
        <ele>2180</ele>
        <time>2022-07-28T10:32:47Z</time>
      </trkpt>
      <trkpt lat="45.66668" lon="6.49569">
        <ele>2180</ele>
        <time>2022-07-28T10:32:48Z</time>
      </trkpt>
      <trkpt lat="45.66669" lon="6.49569">
        <ele>2180</ele>
        <time>2022-07-28T10:32:49Z</time>
      </trkpt>
      <trkpt lat="45.6667" lon="6.49569">
        <ele>2179</ele>
        <time>2022-07-28T10:32:55Z</time>
      </trkpt>
      <trkpt lat="45.66671" lon="6.49569">
        <ele>2179</ele>
        <time>2022-07-28T10:32:56Z</time>
      </trkpt>
      <trkpt lat="45.66672" lon="6.49569">
        <ele>2178</ele>
        <time>2022-07-28T10:32:57Z</time>
      </trkpt>
      <trkpt lat="45.66672" lon="6.49568">
        <ele>2178</ele>
        <time>2022-07-28T10:32:58Z</time>
      </trkpt>
      <trkpt lat="45.66673" lon="6.49568">
        <ele>2178</ele>
        <time>2022-07-28T10:32:59Z</time>
      </trkpt>
      <trkpt lat="45.66673" lon="6.49567">
        <ele>2178</ele>
        <time>2022-07-28T10:33:00Z</time>
      </trkpt>
      <trkpt lat="45.66673" lon="6.49567">
        <ele>2178</ele>
        <time>2022-07-28T10:33:01Z</time>
      </trkpt>
      <trkpt lat="45.66673" lon="6.49567">
        <ele>2177</ele>
        <time>2022-07-28T10:33:02Z</time>
      </trkpt>
      <trkpt lat="45.66673" lon="6.49566">
        <ele>2177</ele>
        <time>2022-07-28T10:33:03Z</time>
      </trkpt>
      <trkpt lat="45.66674" lon="6.49566">
        <ele>2177</ele>
        <time>2022-07-28T10:33:04Z</time>
      </trkpt>
      <trkpt lat="45.66674" lon="6.49565">
        <ele>2177</ele>
        <time>2022-07-28T10:33:05Z</time>
      </trkpt>
      <trkpt lat="45.66674" lon="6.49564">
        <ele>2177</ele>
        <time>2022-07-28T10:33:06Z</time>
      </trkpt>
      <trkpt lat="45.66675" lon="6.49564">
        <ele>2177</ele>
        <time>2022-07-28T10:33:07Z</time>
      </trkpt>
      <trkpt lat="45.66676" lon="6.49563">
        <ele>2176</ele>
        <time>2022-07-28T10:33:13Z</time>
      </trkpt>
      <trkpt lat="45.66676" lon="6.49562">
        <ele>2176</ele>
        <time>2022-07-28T10:33:14Z</time>
      </trkpt>
      <trkpt lat="45.66677" lon="6.49562">
        <ele>2176</ele>
        <time>2022-07-28T10:33:15Z</time>
      </trkpt>
      <trkpt lat="45.66678" lon="6.49561">
        <ele>2176</ele>
        <time>2022-07-28T10:33:16Z</time>
      </trkpt>
      <trkpt lat="45.66678" lon="6.49561">
        <ele>2175</ele>
        <time>2022-07-28T10:33:17Z</time>
      </trkpt>
      <trkpt lat="45.66679" lon="6.49561">
        <ele>2175</ele>
        <time>2022-07-28T10:33:18Z</time>
      </trkpt>
      <trkpt lat="45.6668" lon="6.4956">
        <ele>2174</ele>
        <time>2022-07-28T10:33:19Z</time>
      </trkpt>
      <trkpt lat="45.66681" lon="6.4956">
        <ele>2174</ele>
        <time>2022-07-28T10:33:20Z</time>
      </trkpt>
      <trkpt lat="45.66682" lon="6.49559">
        <ele>2174</ele>
        <time>2022-07-28T10:33:21Z</time>
      </trkpt>
      <trkpt lat="45.66683" lon="6.49559">
        <ele>2174</ele>
        <time>2022-07-28T10:33:22Z</time>
      </trkpt>
      <trkpt lat="45.66684" lon="6.49558">
        <ele>2174</ele>
        <time>2022-07-28T10:33:23Z</time>
      </trkpt>
      <trkpt lat="45.66684" lon="6.49558">
        <ele>2174</ele>
        <time>2022-07-28T10:33:24Z</time>
      </trkpt>
      <trkpt lat="45.66685" lon="6.49557">
        <ele>2174</ele>
        <time>2022-07-28T10:33:25Z</time>
      </trkpt>
      <trkpt lat="45.66686" lon="6.49557">
        <ele>2174</ele>
        <time>2022-07-28T10:33:26Z</time>
      </trkpt>
      <trkpt lat="45.66687" lon="6.49556">
        <ele>2173</ele>
        <time>2022-07-28T10:33:27Z</time>
      </trkpt>
      <trkpt lat="45.66687" lon="6.49555">
        <ele>2173</ele>
        <time>2022-07-28T10:33:28Z</time>
      </trkpt>
      <trkpt lat="45.66688" lon="6.49555">
        <ele>2173</ele>
        <time>2022-07-28T10:33:29Z</time>
      </trkpt>
      <trkpt lat="45.66688" lon="6.49554">
        <ele>2173</ele>
        <time>2022-07-28T10:33:30Z</time>
      </trkpt>
      <trkpt lat="45.66689" lon="6.49554">
        <ele>2173</ele>
        <time>2022-07-28T10:33:31Z</time>
      </trkpt>
      <trkpt lat="45.66689" lon="6.49553">
        <ele>2173</ele>
        <time>2022-07-28T10:33:32Z</time>
      </trkpt>
      <trkpt lat="45.6669" lon="6.49553">
        <ele>2173</ele>
        <time>2022-07-28T10:33:33Z</time>
      </trkpt>
      <trkpt lat="45.66691" lon="6.49553">
        <ele>2173</ele>
        <time>2022-07-28T10:33:34Z</time>
      </trkpt>
      <trkpt lat="45.66691" lon="6.49553">
        <ele>2173</ele>
        <time>2022-07-28T10:33:35Z</time>
      </trkpt>
      <trkpt lat="45.66692" lon="6.49553">
        <ele>2173</ele>
        <time>2022-07-28T10:33:36Z</time>
      </trkpt>
      <trkpt lat="45.66692" lon="6.49553">
        <ele>2173</ele>
        <time>2022-07-28T10:33:37Z</time>
      </trkpt>
      <trkpt lat="45.66694" lon="6.49552">
        <ele>2173</ele>
        <time>2022-07-28T10:33:44Z</time>
      </trkpt>
      <trkpt lat="45.66694" lon="6.49552">
        <ele>2173</ele>
        <time>2022-07-28T10:33:45Z</time>
      </trkpt>
      <trkpt lat="45.66694" lon="6.49552">
        <ele>2173</ele>
        <time>2022-07-28T10:33:46Z</time>
      </trkpt>
      <trkpt lat="45.66695" lon="6.49552">
        <ele>2172</ele>
        <time>2022-07-28T10:33:47Z</time>
      </trkpt>
      <trkpt lat="45.66695" lon="6.49552">
        <ele>2172</ele>
        <time>2022-07-28T10:33:48Z</time>
      </trkpt>
      <trkpt lat="45.66696" lon="6.49552">
        <ele>2172</ele>
        <time>2022-07-28T10:33:49Z</time>
      </trkpt>
      <trkpt lat="45.66696" lon="6.49552">
        <ele>2172</ele>
        <time>2022-07-28T10:33:50Z</time>
      </trkpt>
      <trkpt lat="45.66697" lon="6.49552">
        <ele>2172</ele>
        <time>2022-07-28T10:33:51Z</time>
      </trkpt>
      <trkpt lat="45.66698" lon="6.49553">
        <ele>2172</ele>
        <time>2022-07-28T10:33:52Z</time>
      </trkpt>
      <trkpt lat="45.66699" lon="6.49553">
        <ele>2172</ele>
        <time>2022-07-28T10:33:53Z</time>
      </trkpt>
      <trkpt lat="45.66699" lon="6.49553">
        <ele>2172</ele>
        <time>2022-07-28T10:33:54Z</time>
      </trkpt>
      <trkpt lat="45.667" lon="6.49554">
        <ele>2172</ele>
        <time>2022-07-28T10:33:55Z</time>
      </trkpt>
      <trkpt lat="45.66701" lon="6.49554">
        <ele>2172</ele>
        <time>2022-07-28T10:33:56Z</time>
      </trkpt>
      <trkpt lat="45.66702" lon="6.49555">
        <ele>2172</ele>
        <time>2022-07-28T10:33:57Z</time>
      </trkpt>
      <trkpt lat="45.66703" lon="6.49555">
        <ele>2172</ele>
        <time>2022-07-28T10:33:58Z</time>
      </trkpt>
      <trkpt lat="45.66703" lon="6.49555">
        <ele>2172</ele>
        <time>2022-07-28T10:33:59Z</time>
      </trkpt>
      <trkpt lat="45.66704" lon="6.49556">
        <ele>2172</ele>
        <time>2022-07-28T10:34:00Z</time>
      </trkpt>
      <trkpt lat="45.66704" lon="6.49556">
        <ele>2172</ele>
        <time>2022-07-28T10:34:01Z</time>
      </trkpt>
      <trkpt lat="45.66705" lon="6.49556">
        <ele>2172</ele>
        <time>2022-07-28T10:34:02Z</time>
      </trkpt>
      <trkpt lat="45.66705" lon="6.49556">
        <ele>2172</ele>
        <time>2022-07-28T10:34:03Z</time>
      </trkpt>
      <trkpt lat="45.66706" lon="6.49556">
        <ele>2172</ele>
        <time>2022-07-28T10:34:04Z</time>
      </trkpt>
      <trkpt lat="45.66706" lon="6.49556">
        <ele>2172</ele>
        <time>2022-07-28T10:34:05Z</time>
      </trkpt>
      <trkpt lat="45.66707" lon="6.49556">
        <ele>2172</ele>
        <time>2022-07-28T10:34:06Z</time>
      </trkpt>
      <trkpt lat="45.66707" lon="6.49556">
        <ele>2172</ele>
        <time>2022-07-28T10:34:07Z</time>
      </trkpt>
      <trkpt lat="45.66708" lon="6.49556">
        <ele>2172</ele>
        <time>2022-07-28T10:34:08Z</time>
      </trkpt>
      <trkpt lat="45.66709" lon="6.49555">
        <ele>2172</ele>
        <time>2022-07-28T10:34:09Z</time>
      </trkpt>
      <trkpt lat="45.66709" lon="6.49555">
        <ele>2172</ele>
        <time>2022-07-28T10:34:10Z</time>
      </trkpt>
      <trkpt lat="45.6671" lon="6.49554">
        <ele>2172</ele>
        <time>2022-07-28T10:34:11Z</time>
      </trkpt>
      <trkpt lat="45.66711" lon="6.49554">
        <ele>2172</ele>
        <time>2022-07-28T10:34:12Z</time>
      </trkpt>
      <trkpt lat="45.66712" lon="6.49553">
        <ele>2172</ele>
        <time>2022-07-28T10:34:13Z</time>
      </trkpt>
      <trkpt lat="45.66712" lon="6.49553">
        <ele>2172</ele>
        <time>2022-07-28T10:34:14Z</time>
      </trkpt>
      <trkpt lat="45.66713" lon="6.49552">
        <ele>2172</ele>
        <time>2022-07-28T10:34:15Z</time>
      </trkpt>
      <trkpt lat="45.66714" lon="6.49552">
        <ele>2172</ele>
        <time>2022-07-28T10:34:16Z</time>
      </trkpt>
      <trkpt lat="45.66715" lon="6.49552">
        <ele>2172</ele>
        <time>2022-07-28T10:34:17Z</time>
      </trkpt>
      <trkpt lat="45.66716" lon="6.49552">
        <ele>2172</ele>
        <time>2022-07-28T10:34:18Z</time>
      </trkpt>
      <trkpt lat="45.66717" lon="6.49551">
        <ele>2172</ele>
        <time>2022-07-28T10:34:19Z</time>
      </trkpt>
      <trkpt lat="45.66718" lon="6.49551">
        <ele>2172</ele>
        <time>2022-07-28T10:34:20Z</time>
      </trkpt>
      <trkpt lat="45.66719" lon="6.49551">
        <ele>2172</ele>
        <time>2022-07-28T10:34:21Z</time>
      </trkpt>
      <trkpt lat="45.6672" lon="6.49551">
        <ele>2172</ele>
        <time>2022-07-28T10:34:22Z</time>
      </trkpt>
      <trkpt lat="45.66721" lon="6.49551">
        <ele>2172</ele>
        <time>2022-07-28T10:34:23Z</time>
      </trkpt>
      <trkpt lat="45.66722" lon="6.49551">
        <ele>2172</ele>
        <time>2022-07-28T10:34:24Z</time>
      </trkpt>
      <trkpt lat="45.66722" lon="6.49551">
        <ele>2172</ele>
        <time>2022-07-28T10:34:25Z</time>
      </trkpt>
      <trkpt lat="45.66723" lon="6.49551">
        <ele>2172</ele>
        <time>2022-07-28T10:34:26Z</time>
      </trkpt>
      <trkpt lat="45.66724" lon="6.49551">
        <ele>2171</ele>
        <time>2022-07-28T10:34:27Z</time>
      </trkpt>
      <trkpt lat="45.66725" lon="6.49551">
        <ele>2171</ele>
        <time>2022-07-28T10:34:28Z</time>
      </trkpt>
      <trkpt lat="45.66726" lon="6.49551">
        <ele>2170</ele>
        <time>2022-07-28T10:34:29Z</time>
      </trkpt>
      <trkpt lat="45.66727" lon="6.49551">
        <ele>2170</ele>
        <time>2022-07-28T10:34:30Z</time>
      </trkpt>
      <trkpt lat="45.66727" lon="6.49551">
        <ele>2170</ele>
        <time>2022-07-28T10:34:31Z</time>
      </trkpt>
      <trkpt lat="45.66728" lon="6.49551">
        <ele>2170</ele>
        <time>2022-07-28T10:34:32Z</time>
      </trkpt>
      <trkpt lat="45.66729" lon="6.49551">
        <ele>2170</ele>
        <time>2022-07-28T10:34:33Z</time>
      </trkpt>
      <trkpt lat="45.6673" lon="6.49551">
        <ele>2170</ele>
        <time>2022-07-28T10:34:34Z</time>
      </trkpt>
      <trkpt lat="45.6673" lon="6.49552">
        <ele>2170</ele>
        <time>2022-07-28T10:34:35Z</time>
      </trkpt>
      <trkpt lat="45.66731" lon="6.49552">
        <ele>2170</ele>
        <time>2022-07-28T10:34:36Z</time>
      </trkpt>
      <trkpt lat="45.66732" lon="6.49553">
        <ele>2170</ele>
        <time>2022-07-28T10:34:37Z</time>
      </trkpt>
      <trkpt lat="45.66733" lon="6.49554">
        <ele>2170</ele>
        <time>2022-07-28T10:34:38Z</time>
      </trkpt>
      <trkpt lat="45.66733" lon="6.49554">
        <ele>2170</ele>
        <time>2022-07-28T10:34:39Z</time>
      </trkpt>
      <trkpt lat="45.66734" lon="6.49555">
        <ele>2170</ele>
        <time>2022-07-28T10:34:40Z</time>
      </trkpt>
      <trkpt lat="45.66735" lon="6.49555">
        <ele>2170</ele>
        <time>2022-07-28T10:34:41Z</time>
      </trkpt>
      <trkpt lat="45.66736" lon="6.49556">
        <ele>2169</ele>
        <time>2022-07-28T10:34:42Z</time>
      </trkpt>
      <trkpt lat="45.66736" lon="6.49556">
        <ele>2169</ele>
        <time>2022-07-28T10:34:43Z</time>
      </trkpt>
      <trkpt lat="45.66737" lon="6.49556">
        <ele>2169</ele>
        <time>2022-07-28T10:34:44Z</time>
      </trkpt>
      <trkpt lat="45.66737" lon="6.49556">
        <ele>2169</ele>
        <time>2022-07-28T10:34:45Z</time>
      </trkpt>
      <trkpt lat="45.66738" lon="6.49556">
        <ele>2169</ele>
        <time>2022-07-28T10:34:46Z</time>
      </trkpt>
      <trkpt lat="45.66739" lon="6.49557">
        <ele>2168</ele>
        <time>2022-07-28T10:34:47Z</time>
      </trkpt>
      <trkpt lat="45.66739" lon="6.49557">
        <ele>2168</ele>
        <time>2022-07-28T10:34:48Z</time>
      </trkpt>
      <trkpt lat="45.6674" lon="6.49557">
        <ele>2168</ele>
        <time>2022-07-28T10:34:49Z</time>
      </trkpt>
      <trkpt lat="45.66741" lon="6.49557">
        <ele>2168</ele>
        <time>2022-07-28T10:34:50Z</time>
      </trkpt>
      <trkpt lat="45.66741" lon="6.49557">
        <ele>2168</ele>
        <time>2022-07-28T10:34:51Z</time>
      </trkpt>
      <trkpt lat="45.66742" lon="6.49557">
        <ele>2167</ele>
        <time>2022-07-28T10:34:52Z</time>
      </trkpt>
      <trkpt lat="45.66743" lon="6.49556">
        <ele>2167</ele>
        <time>2022-07-28T10:34:53Z</time>
      </trkpt>
      <trkpt lat="45.66744" lon="6.49556">
        <ele>2167</ele>
        <time>2022-07-28T10:34:54Z</time>
      </trkpt>
      <trkpt lat="45.66744" lon="6.49556">
        <ele>2167</ele>
        <time>2022-07-28T10:34:55Z</time>
      </trkpt>
      <trkpt lat="45.66745" lon="6.49555">
        <ele>2167</ele>
        <time>2022-07-28T10:34:56Z</time>
      </trkpt>
      <trkpt lat="45.66746" lon="6.49554">
        <ele>2166</ele>
        <time>2022-07-28T10:34:57Z</time>
      </trkpt>
      <trkpt lat="45.66746" lon="6.49554">
        <ele>2166</ele>
        <time>2022-07-28T10:34:58Z</time>
      </trkpt>
      <trkpt lat="45.66747" lon="6.49553">
        <ele>2166</ele>
        <time>2022-07-28T10:34:59Z</time>
      </trkpt>
      <trkpt lat="45.66748" lon="6.49552">
        <ele>2166</ele>
        <time>2022-07-28T10:35:00Z</time>
      </trkpt>
      <trkpt lat="45.66748" lon="6.49551">
        <ele>2166</ele>
        <time>2022-07-28T10:35:01Z</time>
      </trkpt>
      <trkpt lat="45.66749" lon="6.49551">
        <ele>2165</ele>
        <time>2022-07-28T10:35:02Z</time>
      </trkpt>
      <trkpt lat="45.6675" lon="6.4955">
        <ele>2165</ele>
        <time>2022-07-28T10:35:03Z</time>
      </trkpt>
      <trkpt lat="45.6675" lon="6.49549">
        <ele>2165</ele>
        <time>2022-07-28T10:35:04Z</time>
      </trkpt>
      <trkpt lat="45.66751" lon="6.49548">
        <ele>2165</ele>
        <time>2022-07-28T10:35:05Z</time>
      </trkpt>
      <trkpt lat="45.66751" lon="6.49547">
        <ele>2165</ele>
        <time>2022-07-28T10:35:06Z</time>
      </trkpt>
      <trkpt lat="45.66752" lon="6.49546">
        <ele>2164</ele>
        <time>2022-07-28T10:35:07Z</time>
      </trkpt>
      <trkpt lat="45.66753" lon="6.49546">
        <ele>2164</ele>
        <time>2022-07-28T10:35:08Z</time>
      </trkpt>
      <trkpt lat="45.66754" lon="6.49546">
        <ele>2164</ele>
        <time>2022-07-28T10:35:09Z</time>
      </trkpt>
      <trkpt lat="45.66755" lon="6.49545">
        <ele>2164</ele>
        <time>2022-07-28T10:35:10Z</time>
      </trkpt>
      <trkpt lat="45.66756" lon="6.49545">
        <ele>2164</ele>
        <time>2022-07-28T10:35:11Z</time>
      </trkpt>
      <trkpt lat="45.66756" lon="6.49546">
        <ele>2163</ele>
        <time>2022-07-28T10:35:12Z</time>
      </trkpt>
      <trkpt lat="45.66757" lon="6.49546">
        <ele>2163</ele>
        <time>2022-07-28T10:35:13Z</time>
      </trkpt>
      <trkpt lat="45.66758" lon="6.49546">
        <ele>2163</ele>
        <time>2022-07-28T10:35:14Z</time>
      </trkpt>
      <trkpt lat="45.66759" lon="6.49546">
        <ele>2163</ele>
        <time>2022-07-28T10:35:15Z</time>
      </trkpt>
      <trkpt lat="45.66759" lon="6.49546">
        <ele>2163</ele>
        <time>2022-07-28T10:35:16Z</time>
      </trkpt>
      <trkpt lat="45.6676" lon="6.49546">
        <ele>2163</ele>
        <time>2022-07-28T10:35:17Z</time>
      </trkpt>
      <trkpt lat="45.66761" lon="6.49546">
        <ele>2163</ele>
        <time>2022-07-28T10:35:18Z</time>
      </trkpt>
      <trkpt lat="45.66762" lon="6.49546">
        <ele>2163</ele>
        <time>2022-07-28T10:35:19Z</time>
      </trkpt>
      <trkpt lat="45.66763" lon="6.49547">
        <ele>2163</ele>
        <time>2022-07-28T10:35:20Z</time>
      </trkpt>
      <trkpt lat="45.66764" lon="6.49547">
        <ele>2163</ele>
        <time>2022-07-28T10:35:21Z</time>
      </trkpt>
      <trkpt lat="45.66765" lon="6.49547">
        <ele>2162</ele>
        <time>2022-07-28T10:35:22Z</time>
      </trkpt>
      <trkpt lat="45.66766" lon="6.49546">
        <ele>2162</ele>
        <time>2022-07-28T10:35:23Z</time>
      </trkpt>
      <trkpt lat="45.66767" lon="6.49546">
        <ele>2162</ele>
        <time>2022-07-28T10:35:24Z</time>
      </trkpt>
      <trkpt lat="45.66768" lon="6.49545">
        <ele>2162</ele>
        <time>2022-07-28T10:35:25Z</time>
      </trkpt>
      <trkpt lat="45.66769" lon="6.49545">
        <ele>2162</ele>
        <time>2022-07-28T10:35:26Z</time>
      </trkpt>
      <trkpt lat="45.66769" lon="6.49544">
        <ele>2162</ele>
        <time>2022-07-28T10:35:27Z</time>
      </trkpt>
      <trkpt lat="45.6677" lon="6.49543">
        <ele>2162</ele>
        <time>2022-07-28T10:35:28Z</time>
      </trkpt>
      <trkpt lat="45.66771" lon="6.49543">
        <ele>2162</ele>
        <time>2022-07-28T10:35:29Z</time>
      </trkpt>
      <trkpt lat="45.66772" lon="6.49542">
        <ele>2162</ele>
        <time>2022-07-28T10:35:30Z</time>
      </trkpt>
      <trkpt lat="45.66772" lon="6.49542">
        <ele>2162</ele>
        <time>2022-07-28T10:35:31Z</time>
      </trkpt>
      <trkpt lat="45.66773" lon="6.49542">
        <ele>2162</ele>
        <time>2022-07-28T10:35:32Z</time>
      </trkpt>
      <trkpt lat="45.66773" lon="6.49542">
        <ele>2162</ele>
        <time>2022-07-28T10:35:33Z</time>
      </trkpt>
      <trkpt lat="45.66774" lon="6.49542">
        <ele>2162</ele>
        <time>2022-07-28T10:35:34Z</time>
      </trkpt>
      <trkpt lat="45.66774" lon="6.49542">
        <ele>2162</ele>
        <time>2022-07-28T10:35:35Z</time>
      </trkpt>
      <trkpt lat="45.66775" lon="6.49542">
        <ele>2162</ele>
        <time>2022-07-28T10:35:36Z</time>
      </trkpt>
      <trkpt lat="45.66775" lon="6.49542">
        <ele>2161</ele>
        <time>2022-07-28T10:35:37Z</time>
      </trkpt>
      <trkpt lat="45.66776" lon="6.49543">
        <ele>2161</ele>
        <time>2022-07-28T10:35:38Z</time>
      </trkpt>
      <trkpt lat="45.66776" lon="6.49543">
        <ele>2161</ele>
        <time>2022-07-28T10:35:39Z</time>
      </trkpt>
      <trkpt lat="45.66777" lon="6.49543">
        <ele>2161</ele>
        <time>2022-07-28T10:35:40Z</time>
      </trkpt>
      <trkpt lat="45.66778" lon="6.49544">
        <ele>2161</ele>
        <time>2022-07-28T10:35:41Z</time>
      </trkpt>
      <trkpt lat="45.66779" lon="6.49544">
        <ele>2160</ele>
        <time>2022-07-28T10:35:49Z</time>
      </trkpt>
      <trkpt lat="45.66781" lon="6.49544">
        <ele>2160</ele>
        <time>2022-07-28T10:35:50Z</time>
      </trkpt>
      <trkpt lat="45.66782" lon="6.49544">
        <ele>2160</ele>
        <time>2022-07-28T10:35:51Z</time>
      </trkpt>
      <trkpt lat="45.66783" lon="6.49544">
        <ele>2159</ele>
        <time>2022-07-28T10:35:52Z</time>
      </trkpt>
      <trkpt lat="45.66783" lon="6.49544">
        <ele>2159</ele>
        <time>2022-07-28T10:35:53Z</time>
      </trkpt>
      <trkpt lat="45.66784" lon="6.49544">
        <ele>2159</ele>
        <time>2022-07-28T10:35:54Z</time>
      </trkpt>
      <trkpt lat="45.66785" lon="6.49543">
        <ele>2159</ele>
        <time>2022-07-28T10:35:55Z</time>
      </trkpt>
      <trkpt lat="45.66786" lon="6.49543">
        <ele>2159</ele>
        <time>2022-07-28T10:35:56Z</time>
      </trkpt>
      <trkpt lat="45.66786" lon="6.49543">
        <ele>2158</ele>
        <time>2022-07-28T10:35:57Z</time>
      </trkpt>
      <trkpt lat="45.66787" lon="6.49542">
        <ele>2158</ele>
        <time>2022-07-28T10:35:58Z</time>
      </trkpt>
      <trkpt lat="45.66787" lon="6.49541">
        <ele>2158</ele>
        <time>2022-07-28T10:35:59Z</time>
      </trkpt>
      <trkpt lat="45.66787" lon="6.49541">
        <ele>2158</ele>
        <time>2022-07-28T10:36:00Z</time>
      </trkpt>
      <trkpt lat="45.66788" lon="6.49541">
        <ele>2158</ele>
        <time>2022-07-28T10:36:01Z</time>
      </trkpt>
      <trkpt lat="45.66788" lon="6.4954">
        <ele>2157</ele>
        <time>2022-07-28T10:36:02Z</time>
      </trkpt>
      <trkpt lat="45.66788" lon="6.4954">
        <ele>2157</ele>
        <time>2022-07-28T10:36:03Z</time>
      </trkpt>
      <trkpt lat="45.66788" lon="6.4954">
        <ele>2157</ele>
        <time>2022-07-28T10:36:04Z</time>
      </trkpt>
      <trkpt lat="45.66788" lon="6.49539">
        <ele>2157</ele>
        <time>2022-07-28T10:36:05Z</time>
      </trkpt>
      <trkpt lat="45.66788" lon="6.49538">
        <ele>2157</ele>
        <time>2022-07-28T10:36:06Z</time>
      </trkpt>
      <trkpt lat="45.66788" lon="6.49537">
        <ele>2156</ele>
        <time>2022-07-28T10:36:07Z</time>
      </trkpt>
      <trkpt lat="45.66789" lon="6.49537">
        <ele>2156</ele>
        <time>2022-07-28T10:36:08Z</time>
      </trkpt>
      <trkpt lat="45.66789" lon="6.49536">
        <ele>2156</ele>
        <time>2022-07-28T10:36:09Z</time>
      </trkpt>
      <trkpt lat="45.66789" lon="6.49536">
        <ele>2156</ele>
        <time>2022-07-28T10:36:10Z</time>
      </trkpt>
      <trkpt lat="45.6679" lon="6.49536">
        <ele>2156</ele>
        <time>2022-07-28T10:36:11Z</time>
      </trkpt>
      <trkpt lat="45.66791" lon="6.49536">
        <ele>2155</ele>
        <time>2022-07-28T10:36:12Z</time>
      </trkpt>
      <trkpt lat="45.66791" lon="6.49536">
        <ele>2155</ele>
        <time>2022-07-28T10:36:13Z</time>
      </trkpt>
      <trkpt lat="45.66792" lon="6.49536">
        <ele>2155</ele>
        <time>2022-07-28T10:36:14Z</time>
      </trkpt>
      <trkpt lat="45.66793" lon="6.49536">
        <ele>2155</ele>
        <time>2022-07-28T10:36:15Z</time>
      </trkpt>
      <trkpt lat="45.66794" lon="6.49536">
        <ele>2155</ele>
        <time>2022-07-28T10:36:16Z</time>
      </trkpt>
      <trkpt lat="45.66795" lon="6.49536">
        <ele>2154</ele>
        <time>2022-07-28T10:36:17Z</time>
      </trkpt>
      <trkpt lat="45.66796" lon="6.49536">
        <ele>2154</ele>
        <time>2022-07-28T10:36:18Z</time>
      </trkpt>
      <trkpt lat="45.66797" lon="6.49536">
        <ele>2154</ele>
        <time>2022-07-28T10:36:19Z</time>
      </trkpt>
      <trkpt lat="45.66797" lon="6.49536">
        <ele>2154</ele>
        <time>2022-07-28T10:36:20Z</time>
      </trkpt>
      <trkpt lat="45.66798" lon="6.49537">
        <ele>2154</ele>
        <time>2022-07-28T10:36:21Z</time>
      </trkpt>
      <trkpt lat="45.66798" lon="6.49537">
        <ele>2154</ele>
        <time>2022-07-28T10:36:22Z</time>
      </trkpt>
      <trkpt lat="45.66799" lon="6.49537">
        <ele>2154</ele>
        <time>2022-07-28T10:36:23Z</time>
      </trkpt>
      <trkpt lat="45.668" lon="6.49537">
        <ele>2154</ele>
        <time>2022-07-28T10:36:24Z</time>
      </trkpt>
      <trkpt lat="45.668" lon="6.49538">
        <ele>2154</ele>
        <time>2022-07-28T10:36:25Z</time>
      </trkpt>
      <trkpt lat="45.66801" lon="6.49538">
        <ele>2154</ele>
        <time>2022-07-28T10:36:26Z</time>
      </trkpt>
      <trkpt lat="45.66802" lon="6.49538">
        <ele>2153</ele>
        <time>2022-07-28T10:36:27Z</time>
      </trkpt>
      <trkpt lat="45.66803" lon="6.49538">
        <ele>2153</ele>
        <time>2022-07-28T10:36:28Z</time>
      </trkpt>
      <trkpt lat="45.66803" lon="6.49538">
        <ele>2153</ele>
        <time>2022-07-28T10:36:29Z</time>
      </trkpt>
      <trkpt lat="45.66804" lon="6.49538">
        <ele>2153</ele>
        <time>2022-07-28T10:36:30Z</time>
      </trkpt>
      <trkpt lat="45.66805" lon="6.49538">
        <ele>2153</ele>
        <time>2022-07-28T10:36:31Z</time>
      </trkpt>
      <trkpt lat="45.66806" lon="6.49537">
        <ele>2152</ele>
        <time>2022-07-28T10:36:32Z</time>
      </trkpt>
      <trkpt lat="45.66807" lon="6.49537">
        <ele>2152</ele>
        <time>2022-07-28T10:36:33Z</time>
      </trkpt>
      <trkpt lat="45.66808" lon="6.49537">
        <ele>2152</ele>
        <time>2022-07-28T10:36:34Z</time>
      </trkpt>
      <trkpt lat="45.66809" lon="6.49537">
        <ele>2152</ele>
        <time>2022-07-28T10:36:35Z</time>
      </trkpt>
      <trkpt lat="45.6681" lon="6.49537">
        <ele>2152</ele>
        <time>2022-07-28T10:36:36Z</time>
      </trkpt>
      <trkpt lat="45.66812" lon="6.49537">
        <ele>2151</ele>
        <time>2022-07-28T10:36:37Z</time>
      </trkpt>
      <trkpt lat="45.66813" lon="6.49536">
        <ele>2151</ele>
        <time>2022-07-28T10:36:38Z</time>
      </trkpt>
      <trkpt lat="45.66814" lon="6.49536">
        <ele>2151</ele>
        <time>2022-07-28T10:36:39Z</time>
      </trkpt>
      <trkpt lat="45.66815" lon="6.49536">
        <ele>2151</ele>
        <time>2022-07-28T10:36:40Z</time>
      </trkpt>
      <trkpt lat="45.66816" lon="6.49535">
        <ele>2151</ele>
        <time>2022-07-28T10:36:41Z</time>
      </trkpt>
      <trkpt lat="45.66818" lon="6.49535">
        <ele>2150</ele>
        <time>2022-07-28T10:36:42Z</time>
      </trkpt>
      <trkpt lat="45.66819" lon="6.49535">
        <ele>2150</ele>
        <time>2022-07-28T10:36:43Z</time>
      </trkpt>
      <trkpt lat="45.6682" lon="6.49534">
        <ele>2149</ele>
        <time>2022-07-28T10:36:44Z</time>
      </trkpt>
      <trkpt lat="45.66821" lon="6.49534">
        <ele>2149</ele>
        <time>2022-07-28T10:36:45Z</time>
      </trkpt>
      <trkpt lat="45.66822" lon="6.49533">
        <ele>2149</ele>
        <time>2022-07-28T10:36:46Z</time>
      </trkpt>
      <trkpt lat="45.66822" lon="6.49533">
        <ele>2148</ele>
        <time>2022-07-28T10:36:47Z</time>
      </trkpt>
      <trkpt lat="45.66823" lon="6.49532">
        <ele>2148</ele>
        <time>2022-07-28T10:36:48Z</time>
      </trkpt>
      <trkpt lat="45.66824" lon="6.49531">
        <ele>2148</ele>
        <time>2022-07-28T10:36:49Z</time>
      </trkpt>
      <trkpt lat="45.66825" lon="6.4953">
        <ele>2148</ele>
        <time>2022-07-28T10:36:50Z</time>
      </trkpt>
      <trkpt lat="45.66825" lon="6.49529">
        <ele>2148</ele>
        <time>2022-07-28T10:36:51Z</time>
      </trkpt>
      <trkpt lat="45.66826" lon="6.49528">
        <ele>2147</ele>
        <time>2022-07-28T10:36:52Z</time>
      </trkpt>
      <trkpt lat="45.66826" lon="6.49526">
        <ele>2147</ele>
        <time>2022-07-28T10:36:53Z</time>
      </trkpt>
      <trkpt lat="45.66827" lon="6.49525">
        <ele>2147</ele>
        <time>2022-07-28T10:36:54Z</time>
      </trkpt>
      <trkpt lat="45.66827" lon="6.49524">
        <ele>2147</ele>
        <time>2022-07-28T10:36:55Z</time>
      </trkpt>
      <trkpt lat="45.66827" lon="6.49523">
        <ele>2147</ele>
        <time>2022-07-28T10:36:56Z</time>
      </trkpt>
      <trkpt lat="45.66828" lon="6.49523">
        <ele>2146</ele>
        <time>2022-07-28T10:36:57Z</time>
      </trkpt>
      <trkpt lat="45.66828" lon="6.49522">
        <ele>2146</ele>
        <time>2022-07-28T10:36:58Z</time>
      </trkpt>
      <trkpt lat="45.66828" lon="6.49521">
        <ele>2146</ele>
        <time>2022-07-28T10:36:59Z</time>
      </trkpt>
      <trkpt lat="45.66829" lon="6.4952">
        <ele>2146</ele>
        <time>2022-07-28T10:37:00Z</time>
      </trkpt>
      <trkpt lat="45.66829" lon="6.49519">
        <ele>2146</ele>
        <time>2022-07-28T10:37:01Z</time>
      </trkpt>
      <trkpt lat="45.66829" lon="6.49519">
        <ele>2145</ele>
        <time>2022-07-28T10:37:02Z</time>
      </trkpt>
      <trkpt lat="45.66829" lon="6.49518">
        <ele>2144</ele>
        <time>2022-07-28T10:37:03Z</time>
      </trkpt>
      <trkpt lat="45.66829" lon="6.49517">
        <ele>2144</ele>
        <time>2022-07-28T10:37:04Z</time>
      </trkpt>
      <trkpt lat="45.66829" lon="6.49515">
        <ele>2143</ele>
        <time>2022-07-28T10:37:05Z</time>
      </trkpt>
      <trkpt lat="45.66828" lon="6.49514">
        <ele>2143</ele>
        <time>2022-07-28T10:37:06Z</time>
      </trkpt>
      <trkpt lat="45.66828" lon="6.49513">
        <ele>2142</ele>
        <time>2022-07-28T10:37:07Z</time>
      </trkpt>
      <trkpt lat="45.66828" lon="6.49512">
        <ele>2142</ele>
        <time>2022-07-28T10:37:08Z</time>
      </trkpt>
      <trkpt lat="45.66828" lon="6.49511">
        <ele>2142</ele>
        <time>2022-07-28T10:37:09Z</time>
      </trkpt>
      <trkpt lat="45.66827" lon="6.49509">
        <ele>2142</ele>
        <time>2022-07-28T10:37:10Z</time>
      </trkpt>
      <trkpt lat="45.66827" lon="6.49508">
        <ele>2142</ele>
        <time>2022-07-28T10:37:11Z</time>
      </trkpt>
      <trkpt lat="45.66828" lon="6.49508">
        <ele>2141</ele>
        <time>2022-07-28T10:37:12Z</time>
      </trkpt>
      <trkpt lat="45.66828" lon="6.49507">
        <ele>2141</ele>
        <time>2022-07-28T10:37:13Z</time>
      </trkpt>
      <trkpt lat="45.66829" lon="6.49507">
        <ele>2141</ele>
        <time>2022-07-28T10:37:14Z</time>
      </trkpt>
      <trkpt lat="45.66829" lon="6.49507">
        <ele>2141</ele>
        <time>2022-07-28T10:37:15Z</time>
      </trkpt>
      <trkpt lat="45.6683" lon="6.49507">
        <ele>2141</ele>
        <time>2022-07-28T10:37:16Z</time>
      </trkpt>
      <trkpt lat="45.66831" lon="6.49507">
        <ele>2140</ele>
        <time>2022-07-28T10:37:17Z</time>
      </trkpt>
      <trkpt lat="45.66831" lon="6.49508">
        <ele>2140</ele>
        <time>2022-07-28T10:37:18Z</time>
      </trkpt>
      <trkpt lat="45.66832" lon="6.49508">
        <ele>2140</ele>
        <time>2022-07-28T10:37:19Z</time>
      </trkpt>
      <trkpt lat="45.66833" lon="6.49508">
        <ele>2140</ele>
        <time>2022-07-28T10:37:20Z</time>
      </trkpt>
      <trkpt lat="45.66834" lon="6.49508">
        <ele>2140</ele>
        <time>2022-07-28T10:37:21Z</time>
      </trkpt>
      <trkpt lat="45.66834" lon="6.49509">
        <ele>2140</ele>
        <time>2022-07-28T10:37:22Z</time>
      </trkpt>
      <trkpt lat="45.66834" lon="6.49509">
        <ele>2140</ele>
        <time>2022-07-28T10:37:23Z</time>
      </trkpt>
      <trkpt lat="45.66835" lon="6.49509">
        <ele>2140</ele>
        <time>2022-07-28T10:37:24Z</time>
      </trkpt>
      <trkpt lat="45.66835" lon="6.49509">
        <ele>2140</ele>
        <time>2022-07-28T10:37:25Z</time>
      </trkpt>
      <trkpt lat="45.66836" lon="6.4951">
        <ele>2140</ele>
        <time>2022-07-28T10:37:26Z</time>
      </trkpt>
      <trkpt lat="45.66836" lon="6.4951">
        <ele>2139</ele>
        <time>2022-07-28T10:37:27Z</time>
      </trkpt>
      <trkpt lat="45.66837" lon="6.4951">
        <ele>2139</ele>
        <time>2022-07-28T10:37:28Z</time>
      </trkpt>
      <trkpt lat="45.66838" lon="6.49511">
        <ele>2139</ele>
        <time>2022-07-28T10:37:29Z</time>
      </trkpt>
      <trkpt lat="45.66838" lon="6.49511">
        <ele>2139</ele>
        <time>2022-07-28T10:37:30Z</time>
      </trkpt>
      <trkpt lat="45.66839" lon="6.49511">
        <ele>2139</ele>
        <time>2022-07-28T10:37:31Z</time>
      </trkpt>
      <trkpt lat="45.6684" lon="6.49512">
        <ele>2138</ele>
        <time>2022-07-28T10:37:32Z</time>
      </trkpt>
      <trkpt lat="45.6684" lon="6.49512">
        <ele>2138</ele>
        <time>2022-07-28T10:37:33Z</time>
      </trkpt>
      <trkpt lat="45.66841" lon="6.49512">
        <ele>2138</ele>
        <time>2022-07-28T10:37:34Z</time>
      </trkpt>
      <trkpt lat="45.66842" lon="6.49513">
        <ele>2138</ele>
        <time>2022-07-28T10:37:35Z</time>
      </trkpt>
      <trkpt lat="45.66843" lon="6.49513">
        <ele>2138</ele>
        <time>2022-07-28T10:37:36Z</time>
      </trkpt>
      <trkpt lat="45.66844" lon="6.49514">
        <ele>2137</ele>
        <time>2022-07-28T10:37:37Z</time>
      </trkpt>
      <trkpt lat="45.66845" lon="6.49514">
        <ele>2137</ele>
        <time>2022-07-28T10:37:38Z</time>
      </trkpt>
      <trkpt lat="45.66846" lon="6.49515">
        <ele>2137</ele>
        <time>2022-07-28T10:37:39Z</time>
      </trkpt>
      <trkpt lat="45.66847" lon="6.49515">
        <ele>2137</ele>
        <time>2022-07-28T10:37:40Z</time>
      </trkpt>
      <trkpt lat="45.66848" lon="6.49516">
        <ele>2137</ele>
        <time>2022-07-28T10:37:41Z</time>
      </trkpt>
      <trkpt lat="45.66849" lon="6.49516">
        <ele>2136</ele>
        <time>2022-07-28T10:37:42Z</time>
      </trkpt>
      <trkpt lat="45.6685" lon="6.49516">
        <ele>2136</ele>
        <time>2022-07-28T10:37:43Z</time>
      </trkpt>
      <trkpt lat="45.66851" lon="6.49517">
        <ele>2136</ele>
        <time>2022-07-28T10:37:44Z</time>
      </trkpt>
      <trkpt lat="45.66852" lon="6.49517">
        <ele>2136</ele>
        <time>2022-07-28T10:37:45Z</time>
      </trkpt>
      <trkpt lat="45.66853" lon="6.49517">
        <ele>2136</ele>
        <time>2022-07-28T10:37:46Z</time>
      </trkpt>
      <trkpt lat="45.66854" lon="6.49517">
        <ele>2136</ele>
        <time>2022-07-28T10:37:47Z</time>
      </trkpt>
      <trkpt lat="45.66854" lon="6.49517">
        <ele>2136</ele>
        <time>2022-07-28T10:37:48Z</time>
      </trkpt>
      <trkpt lat="45.66855" lon="6.49517">
        <ele>2136</ele>
        <time>2022-07-28T10:37:49Z</time>
      </trkpt>
      <trkpt lat="45.66856" lon="6.49517">
        <ele>2136</ele>
        <time>2022-07-28T10:37:50Z</time>
      </trkpt>
      <trkpt lat="45.66857" lon="6.49517">
        <ele>2136</ele>
        <time>2022-07-28T10:37:51Z</time>
      </trkpt>
      <trkpt lat="45.66857" lon="6.49517">
        <ele>2135</ele>
        <time>2022-07-28T10:37:52Z</time>
      </trkpt>
      <trkpt lat="45.66858" lon="6.49517">
        <ele>2135</ele>
        <time>2022-07-28T10:37:53Z</time>
      </trkpt>
      <trkpt lat="45.66859" lon="6.49516">
        <ele>2135</ele>
        <time>2022-07-28T10:37:54Z</time>
      </trkpt>
      <trkpt lat="45.66859" lon="6.49516">
        <ele>2135</ele>
        <time>2022-07-28T10:37:55Z</time>
      </trkpt>
      <trkpt lat="45.66859" lon="6.49515">
        <ele>2135</ele>
        <time>2022-07-28T10:37:56Z</time>
      </trkpt>
      <trkpt lat="45.66859" lon="6.49514">
        <ele>2134</ele>
        <time>2022-07-28T10:37:57Z</time>
      </trkpt>
      <trkpt lat="45.66859" lon="6.49513">
        <ele>2134</ele>
        <time>2022-07-28T10:37:58Z</time>
      </trkpt>
      <trkpt lat="45.6686" lon="6.49512">
        <ele>2134</ele>
        <time>2022-07-28T10:37:59Z</time>
      </trkpt>
      <trkpt lat="45.6686" lon="6.49512">
        <ele>2134</ele>
        <time>2022-07-28T10:38:00Z</time>
      </trkpt>
      <trkpt lat="45.6686" lon="6.49511">
        <ele>2134</ele>
        <time>2022-07-28T10:38:01Z</time>
      </trkpt>
      <trkpt lat="45.6686" lon="6.4951">
        <ele>2133</ele>
        <time>2022-07-28T10:38:02Z</time>
      </trkpt>
      <trkpt lat="45.6686" lon="6.49509">
        <ele>2133</ele>
        <time>2022-07-28T10:38:03Z</time>
      </trkpt>
      <trkpt lat="45.6686" lon="6.49508">
        <ele>2133</ele>
        <time>2022-07-28T10:38:04Z</time>
      </trkpt>
      <trkpt lat="45.6686" lon="6.49507">
        <ele>2133</ele>
        <time>2022-07-28T10:38:05Z</time>
      </trkpt>
      <trkpt lat="45.6686" lon="6.49506">
        <ele>2133</ele>
        <time>2022-07-28T10:38:06Z</time>
      </trkpt>
      <trkpt lat="45.66861" lon="6.49505">
        <ele>2133</ele>
        <time>2022-07-28T10:38:07Z</time>
      </trkpt>
      <trkpt lat="45.66861" lon="6.49505">
        <ele>2133</ele>
        <time>2022-07-28T10:38:08Z</time>
      </trkpt>
      <trkpt lat="45.66861" lon="6.49504">
        <ele>2133</ele>
        <time>2022-07-28T10:38:09Z</time>
      </trkpt>
      <trkpt lat="45.66861" lon="6.49504">
        <ele>2133</ele>
        <time>2022-07-28T10:38:10Z</time>
      </trkpt>
      <trkpt lat="45.66861" lon="6.49504">
        <ele>2133</ele>
        <time>2022-07-28T10:38:11Z</time>
      </trkpt>
      <trkpt lat="45.66861" lon="6.49504">
        <ele>2132</ele>
        <time>2022-07-28T10:38:12Z</time>
      </trkpt>
      <trkpt lat="45.66861" lon="6.49503">
        <ele>2132</ele>
        <time>2022-07-28T10:38:13Z</time>
      </trkpt>
      <trkpt lat="45.66862" lon="6.49501">
        <ele>2132</ele>
        <time>2022-07-28T10:38:14Z</time>
      </trkpt>
      <trkpt lat="45.66862" lon="6.49501">
        <ele>2132</ele>
        <time>2022-07-28T10:38:15Z</time>
      </trkpt>
      <trkpt lat="45.66862" lon="6.495">
        <ele>2132</ele>
        <time>2022-07-28T10:38:16Z</time>
      </trkpt>
      <trkpt lat="45.66863" lon="6.49499">
        <ele>2131</ele>
        <time>2022-07-28T10:38:17Z</time>
      </trkpt>
      <trkpt lat="45.66863" lon="6.49499">
        <ele>2131</ele>
        <time>2022-07-28T10:38:18Z</time>
      </trkpt>
      <trkpt lat="45.66864" lon="6.49498">
        <ele>2130</ele>
        <time>2022-07-28T10:38:19Z</time>
      </trkpt>
      <trkpt lat="45.66864" lon="6.49497">
        <ele>2130</ele>
        <time>2022-07-28T10:38:20Z</time>
      </trkpt>
      <trkpt lat="45.66865" lon="6.49496">
        <ele>2130</ele>
        <time>2022-07-28T10:38:21Z</time>
      </trkpt>
      <trkpt lat="45.66866" lon="6.49496">
        <ele>2130</ele>
        <time>2022-07-28T10:38:22Z</time>
      </trkpt>
      <trkpt lat="45.66867" lon="6.49495">
        <ele>2130</ele>
        <time>2022-07-28T10:38:23Z</time>
      </trkpt>
      <trkpt lat="45.66867" lon="6.49494">
        <ele>2130</ele>
        <time>2022-07-28T10:38:24Z</time>
      </trkpt>
      <trkpt lat="45.66868" lon="6.49494">
        <ele>2130</ele>
        <time>2022-07-28T10:38:25Z</time>
      </trkpt>
      <trkpt lat="45.66869" lon="6.49494">
        <ele>2130</ele>
        <time>2022-07-28T10:38:26Z</time>
      </trkpt>
      <trkpt lat="45.6687" lon="6.49493">
        <ele>2129</ele>
        <time>2022-07-28T10:38:27Z</time>
      </trkpt>
      <trkpt lat="45.66871" lon="6.49493">
        <ele>2129</ele>
        <time>2022-07-28T10:38:28Z</time>
      </trkpt>
      <trkpt lat="45.66871" lon="6.49493">
        <ele>2129</ele>
        <time>2022-07-28T10:38:29Z</time>
      </trkpt>
      <trkpt lat="45.66872" lon="6.49492">
        <ele>2129</ele>
        <time>2022-07-28T10:38:30Z</time>
      </trkpt>
      <trkpt lat="45.66873" lon="6.49492">
        <ele>2129</ele>
        <time>2022-07-28T10:38:31Z</time>
      </trkpt>
      <trkpt lat="45.66874" lon="6.49492">
        <ele>2129</ele>
        <time>2022-07-28T10:38:32Z</time>
      </trkpt>
      <trkpt lat="45.66874" lon="6.49491">
        <ele>2129</ele>
        <time>2022-07-28T10:38:33Z</time>
      </trkpt>
      <trkpt lat="45.66875" lon="6.49491">
        <ele>2129</ele>
        <time>2022-07-28T10:38:34Z</time>
      </trkpt>
      <trkpt lat="45.66876" lon="6.49491">
        <ele>2129</ele>
        <time>2022-07-28T10:38:35Z</time>
      </trkpt>
      <trkpt lat="45.66877" lon="6.49491">
        <ele>2129</ele>
        <time>2022-07-28T10:38:36Z</time>
      </trkpt>
      <trkpt lat="45.66878" lon="6.49491">
        <ele>2129</ele>
        <time>2022-07-28T10:38:37Z</time>
      </trkpt>
      <trkpt lat="45.66878" lon="6.49491">
        <ele>2129</ele>
        <time>2022-07-28T10:38:38Z</time>
      </trkpt>
      <trkpt lat="45.66879" lon="6.49492">
        <ele>2129</ele>
        <time>2022-07-28T10:38:39Z</time>
      </trkpt>
      <trkpt lat="45.6688" lon="6.49492">
        <ele>2129</ele>
        <time>2022-07-28T10:38:40Z</time>
      </trkpt>
      <trkpt lat="45.66881" lon="6.49493">
        <ele>2129</ele>
        <time>2022-07-28T10:38:41Z</time>
      </trkpt>
      <trkpt lat="45.66881" lon="6.49493">
        <ele>2128</ele>
        <time>2022-07-28T10:38:42Z</time>
      </trkpt>
      <trkpt lat="45.66882" lon="6.49494">
        <ele>2128</ele>
        <time>2022-07-28T10:38:43Z</time>
      </trkpt>
      <trkpt lat="45.66882" lon="6.49494">
        <ele>2128</ele>
        <time>2022-07-28T10:38:44Z</time>
      </trkpt>
      <trkpt lat="45.66883" lon="6.49495">
        <ele>2128</ele>
        <time>2022-07-28T10:38:45Z</time>
      </trkpt>
      <trkpt lat="45.66883" lon="6.49495">
        <ele>2128</ele>
        <time>2022-07-28T10:38:46Z</time>
      </trkpt>
      <trkpt lat="45.66884" lon="6.49495">
        <ele>2127</ele>
        <time>2022-07-28T10:38:47Z</time>
      </trkpt>
      <trkpt lat="45.66885" lon="6.49495">
        <ele>2127</ele>
        <time>2022-07-28T10:38:48Z</time>
      </trkpt>
      <trkpt lat="45.66885" lon="6.49495">
        <ele>2127</ele>
        <time>2022-07-28T10:38:49Z</time>
      </trkpt>
      <trkpt lat="45.66885" lon="6.49495">
        <ele>2127</ele>
        <time>2022-07-28T10:38:50Z</time>
      </trkpt>
      <trkpt lat="45.66885" lon="6.49495">
        <ele>2127</ele>
        <time>2022-07-28T10:38:51Z</time>
      </trkpt>
      <trkpt lat="45.66886" lon="6.49495">
        <ele>2126</ele>
        <time>2022-07-28T10:38:52Z</time>
      </trkpt>
      <trkpt lat="45.66886" lon="6.49495">
        <ele>2126</ele>
        <time>2022-07-28T10:38:53Z</time>
      </trkpt>
      <trkpt lat="45.66887" lon="6.49494">
        <ele>2126</ele>
        <time>2022-07-28T10:38:54Z</time>
      </trkpt>
      <trkpt lat="45.66887" lon="6.49493">
        <ele>2126</ele>
        <time>2022-07-28T10:38:55Z</time>
      </trkpt>
      <trkpt lat="45.66888" lon="6.49493">
        <ele>2126</ele>
        <time>2022-07-28T10:38:56Z</time>
      </trkpt>
      <trkpt lat="45.66889" lon="6.49493">
        <ele>2126</ele>
        <time>2022-07-28T10:38:57Z</time>
      </trkpt>
      <trkpt lat="45.66889" lon="6.49493">
        <ele>2126</ele>
        <time>2022-07-28T10:38:58Z</time>
      </trkpt>
      <trkpt lat="45.6689" lon="6.49493">
        <ele>2126</ele>
        <time>2022-07-28T10:38:59Z</time>
      </trkpt>
      <trkpt lat="45.6689" lon="6.49493">
        <ele>2126</ele>
        <time>2022-07-28T10:39:00Z</time>
      </trkpt>
      <trkpt lat="45.66891" lon="6.49494">
        <ele>2126</ele>
        <time>2022-07-28T10:39:01Z</time>
      </trkpt>
      <trkpt lat="45.66891" lon="6.49494">
        <ele>2125</ele>
        <time>2022-07-28T10:39:02Z</time>
      </trkpt>
      <trkpt lat="45.66892" lon="6.49494">
        <ele>2125</ele>
        <time>2022-07-28T10:39:03Z</time>
      </trkpt>
      <trkpt lat="45.66892" lon="6.49494">
        <ele>2125</ele>
        <time>2022-07-28T10:39:04Z</time>
      </trkpt>
      <trkpt lat="45.66893" lon="6.49494">
        <ele>2125</ele>
        <time>2022-07-28T10:39:05Z</time>
      </trkpt>
      <trkpt lat="45.66894" lon="6.49494">
        <ele>2125</ele>
        <time>2022-07-28T10:39:06Z</time>
      </trkpt>
      <trkpt lat="45.66894" lon="6.49494">
        <ele>2124</ele>
        <time>2022-07-28T10:39:07Z</time>
      </trkpt>
      <trkpt lat="45.66895" lon="6.49494">
        <ele>2124</ele>
        <time>2022-07-28T10:39:08Z</time>
      </trkpt>
      <trkpt lat="45.66896" lon="6.49494">
        <ele>2124</ele>
        <time>2022-07-28T10:39:09Z</time>
      </trkpt>
      <trkpt lat="45.66896" lon="6.49493">
        <ele>2124</ele>
        <time>2022-07-28T10:39:10Z</time>
      </trkpt>
      <trkpt lat="45.66897" lon="6.49493">
        <ele>2124</ele>
        <time>2022-07-28T10:39:11Z</time>
      </trkpt>
      <trkpt lat="45.66898" lon="6.49493">
        <ele>2123</ele>
        <time>2022-07-28T10:39:12Z</time>
      </trkpt>
      <trkpt lat="45.66898" lon="6.49492">
        <ele>2123</ele>
        <time>2022-07-28T10:39:13Z</time>
      </trkpt>
      <trkpt lat="45.66899" lon="6.49492">
        <ele>2123</ele>
        <time>2022-07-28T10:39:14Z</time>
      </trkpt>
      <trkpt lat="45.669" lon="6.49492">
        <ele>2123</ele>
        <time>2022-07-28T10:39:15Z</time>
      </trkpt>
      <trkpt lat="45.669" lon="6.49492">
        <ele>2123</ele>
        <time>2022-07-28T10:39:16Z</time>
      </trkpt>
      <trkpt lat="45.66901" lon="6.49492">
        <ele>2122</ele>
        <time>2022-07-28T10:39:17Z</time>
      </trkpt>
      <trkpt lat="45.66902" lon="6.49492">
        <ele>2122</ele>
        <time>2022-07-28T10:39:18Z</time>
      </trkpt>
      <trkpt lat="45.66902" lon="6.49492">
        <ele>2122</ele>
        <time>2022-07-28T10:39:19Z</time>
      </trkpt>
      <trkpt lat="45.66902" lon="6.49492">
        <ele>2122</ele>
        <time>2022-07-28T10:39:20Z</time>
      </trkpt>
      <trkpt lat="45.66903" lon="6.49492">
        <ele>2122</ele>
        <time>2022-07-28T10:39:21Z</time>
      </trkpt>
      <trkpt lat="45.66903" lon="6.49492">
        <ele>2121</ele>
        <time>2022-07-28T10:39:22Z</time>
      </trkpt>
      <trkpt lat="45.66904" lon="6.49491">
        <ele>2121</ele>
        <time>2022-07-28T10:39:23Z</time>
      </trkpt>
      <trkpt lat="45.66904" lon="6.49491">
        <ele>2121</ele>
        <time>2022-07-28T10:39:24Z</time>
      </trkpt>
      <trkpt lat="45.66904" lon="6.49491">
        <ele>2121</ele>
        <time>2022-07-28T10:39:25Z</time>
      </trkpt>
      <trkpt lat="45.66905" lon="6.49491">
        <ele>2121</ele>
        <time>2022-07-28T10:39:26Z</time>
      </trkpt>
      <trkpt lat="45.66905" lon="6.4949">
        <ele>2120</ele>
        <time>2022-07-28T10:39:27Z</time>
      </trkpt>
      <trkpt lat="45.66906" lon="6.4949">
        <ele>2120</ele>
        <time>2022-07-28T10:39:28Z</time>
      </trkpt>
      <trkpt lat="45.66907" lon="6.4949">
        <ele>2119</ele>
        <time>2022-07-28T10:39:29Z</time>
      </trkpt>
      <trkpt lat="45.66908" lon="6.4949">
        <ele>2119</ele>
        <time>2022-07-28T10:39:30Z</time>
      </trkpt>
      <trkpt lat="45.66908" lon="6.4949">
        <ele>2119</ele>
        <time>2022-07-28T10:39:31Z</time>
      </trkpt>
      <trkpt lat="45.66909" lon="6.4949">
        <ele>2118</ele>
        <time>2022-07-28T10:39:32Z</time>
      </trkpt>
      <trkpt lat="45.6691" lon="6.4949">
        <ele>2118</ele>
        <time>2022-07-28T10:39:33Z</time>
      </trkpt>
      <trkpt lat="45.6691" lon="6.4949">
        <ele>2118</ele>
        <time>2022-07-28T10:39:34Z</time>
      </trkpt>
      <trkpt lat="45.66911" lon="6.49489">
        <ele>2118</ele>
        <time>2022-07-28T10:39:35Z</time>
      </trkpt>
      <trkpt lat="45.66912" lon="6.49489">
        <ele>2118</ele>
        <time>2022-07-28T10:39:36Z</time>
      </trkpt>
      <trkpt lat="45.66912" lon="6.49489">
        <ele>2117</ele>
        <time>2022-07-28T10:39:37Z</time>
      </trkpt>
      <trkpt lat="45.66913" lon="6.49489">
        <ele>2117</ele>
        <time>2022-07-28T10:39:38Z</time>
      </trkpt>
      <trkpt lat="45.66914" lon="6.49488">
        <ele>2116</ele>
        <time>2022-07-28T10:39:39Z</time>
      </trkpt>
      <trkpt lat="45.66914" lon="6.49488">
        <ele>2116</ele>
        <time>2022-07-28T10:39:40Z</time>
      </trkpt>
      <trkpt lat="45.66915" lon="6.49488">
        <ele>2116</ele>
        <time>2022-07-28T10:39:41Z</time>
      </trkpt>
      <trkpt lat="45.66916" lon="6.49488">
        <ele>2115</ele>
        <time>2022-07-28T10:39:42Z</time>
      </trkpt>
      <trkpt lat="45.66916" lon="6.49489">
        <ele>2115</ele>
        <time>2022-07-28T10:39:43Z</time>
      </trkpt>
      <trkpt lat="45.66917" lon="6.49489">
        <ele>2115</ele>
        <time>2022-07-28T10:39:44Z</time>
      </trkpt>
      <trkpt lat="45.66918" lon="6.49489">
        <ele>2115</ele>
        <time>2022-07-28T10:39:45Z</time>
      </trkpt>
      <trkpt lat="45.66918" lon="6.49489">
        <ele>2115</ele>
        <time>2022-07-28T10:39:46Z</time>
      </trkpt>
      <trkpt lat="45.66919" lon="6.49489">
        <ele>2114</ele>
        <time>2022-07-28T10:39:47Z</time>
      </trkpt>
      <trkpt lat="45.66919" lon="6.49489">
        <ele>2114</ele>
        <time>2022-07-28T10:39:48Z</time>
      </trkpt>
      <trkpt lat="45.6692" lon="6.49488">
        <ele>2114</ele>
        <time>2022-07-28T10:39:49Z</time>
      </trkpt>
      <trkpt lat="45.6692" lon="6.49488">
        <ele>2114</ele>
        <time>2022-07-28T10:39:50Z</time>
      </trkpt>
      <trkpt lat="45.66921" lon="6.49488">
        <ele>2114</ele>
        <time>2022-07-28T10:39:51Z</time>
      </trkpt>
      <trkpt lat="45.66922" lon="6.49488">
        <ele>2113</ele>
        <time>2022-07-28T10:39:52Z</time>
      </trkpt>
      <trkpt lat="45.66923" lon="6.49488">
        <ele>2113</ele>
        <time>2022-07-28T10:39:59Z</time>
      </trkpt>
      <trkpt lat="45.66924" lon="6.49488">
        <ele>2113</ele>
        <time>2022-07-28T10:40:00Z</time>
      </trkpt>
      <trkpt lat="45.66925" lon="6.49487">
        <ele>2113</ele>
        <time>2022-07-28T10:40:01Z</time>
      </trkpt>
      <trkpt lat="45.66926" lon="6.49487">
        <ele>2112</ele>
        <time>2022-07-28T10:40:02Z</time>
      </trkpt>
      <trkpt lat="45.66926" lon="6.49486">
        <ele>2112</ele>
        <time>2022-07-28T10:40:03Z</time>
      </trkpt>
      <trkpt lat="45.66927" lon="6.49486">
        <ele>2112</ele>
        <time>2022-07-28T10:40:04Z</time>
      </trkpt>
      <trkpt lat="45.66927" lon="6.49485">
        <ele>2112</ele>
        <time>2022-07-28T10:40:05Z</time>
      </trkpt>
      <trkpt lat="45.66928" lon="6.49485">
        <ele>2112</ele>
        <time>2022-07-28T10:40:06Z</time>
      </trkpt>
      <trkpt lat="45.66929" lon="6.49484">
        <ele>2111</ele>
        <time>2022-07-28T10:40:07Z</time>
      </trkpt>
      <trkpt lat="45.66929" lon="6.49483">
        <ele>2110</ele>
        <time>2022-07-28T10:40:14Z</time>
      </trkpt>
      <trkpt lat="45.6693" lon="6.49482">
        <ele>2110</ele>
        <time>2022-07-28T10:40:15Z</time>
      </trkpt>
      <trkpt lat="45.6693" lon="6.49481">
        <ele>2110</ele>
        <time>2022-07-28T10:40:16Z</time>
      </trkpt>
      <trkpt lat="45.66931" lon="6.4948">
        <ele>2109</ele>
        <time>2022-07-28T10:40:17Z</time>
      </trkpt>
      <trkpt lat="45.66931" lon="6.49479">
        <ele>2109</ele>
        <time>2022-07-28T10:40:18Z</time>
      </trkpt>
      <trkpt lat="45.66931" lon="6.49479">
        <ele>2109</ele>
        <time>2022-07-28T10:40:19Z</time>
      </trkpt>
      <trkpt lat="45.66931" lon="6.49478">
        <ele>2109</ele>
        <time>2022-07-28T10:40:20Z</time>
      </trkpt>
      <trkpt lat="45.66932" lon="6.49478">
        <ele>2109</ele>
        <time>2022-07-28T10:40:21Z</time>
      </trkpt>
      <trkpt lat="45.66932" lon="6.49477">
        <ele>2108</ele>
        <time>2022-07-28T10:40:22Z</time>
      </trkpt>
      <trkpt lat="45.66933" lon="6.49477">
        <ele>2108</ele>
        <time>2022-07-28T10:40:23Z</time>
      </trkpt>
      <trkpt lat="45.66933" lon="6.49476">
        <ele>2108</ele>
        <time>2022-07-28T10:40:24Z</time>
      </trkpt>
      <trkpt lat="45.66933" lon="6.49476">
        <ele>2108</ele>
        <time>2022-07-28T10:40:25Z</time>
      </trkpt>
      <trkpt lat="45.66934" lon="6.49475">
        <ele>2108</ele>
        <time>2022-07-28T10:40:26Z</time>
      </trkpt>
      <trkpt lat="45.66934" lon="6.49475">
        <ele>2107</ele>
        <time>2022-07-28T10:40:27Z</time>
      </trkpt>
      <trkpt lat="45.66935" lon="6.49474">
        <ele>2107</ele>
        <time>2022-07-28T10:40:28Z</time>
      </trkpt>
      <trkpt lat="45.66935" lon="6.49474">
        <ele>2107</ele>
        <time>2022-07-28T10:40:29Z</time>
      </trkpt>
      <trkpt lat="45.66936" lon="6.49473">
        <ele>2107</ele>
        <time>2022-07-28T10:40:30Z</time>
      </trkpt>
      <trkpt lat="45.66937" lon="6.49472">
        <ele>2107</ele>
        <time>2022-07-28T10:40:31Z</time>
      </trkpt>
      <trkpt lat="45.66938" lon="6.49472">
        <ele>2106</ele>
        <time>2022-07-28T10:40:32Z</time>
      </trkpt>
      <trkpt lat="45.66938" lon="6.49471">
        <ele>2106</ele>
        <time>2022-07-28T10:40:33Z</time>
      </trkpt>
      <trkpt lat="45.66939" lon="6.49471">
        <ele>2106</ele>
        <time>2022-07-28T10:40:34Z</time>
      </trkpt>
      <trkpt lat="45.6694" lon="6.49471">
        <ele>2106</ele>
        <time>2022-07-28T10:40:35Z</time>
      </trkpt>
      <trkpt lat="45.6694" lon="6.4947">
        <ele>2106</ele>
        <time>2022-07-28T10:40:36Z</time>
      </trkpt>
      <trkpt lat="45.66941" lon="6.4947">
        <ele>2106</ele>
        <time>2022-07-28T10:40:37Z</time>
      </trkpt>
      <trkpt lat="45.66941" lon="6.4947">
        <ele>2106</ele>
        <time>2022-07-28T10:40:38Z</time>
      </trkpt>
      <trkpt lat="45.66942" lon="6.49469">
        <ele>2106</ele>
        <time>2022-07-28T10:40:39Z</time>
      </trkpt>
      <trkpt lat="45.66942" lon="6.49469">
        <ele>2106</ele>
        <time>2022-07-28T10:40:40Z</time>
      </trkpt>
      <trkpt lat="45.66942" lon="6.49468">
        <ele>2106</ele>
        <time>2022-07-28T10:40:41Z</time>
      </trkpt>
      <trkpt lat="45.66943" lon="6.49468">
        <ele>2105</ele>
        <time>2022-07-28T10:40:42Z</time>
      </trkpt>
      <trkpt lat="45.66944" lon="6.49467">
        <ele>2105</ele>
        <time>2022-07-28T10:40:43Z</time>
      </trkpt>
      <trkpt lat="45.66944" lon="6.49466">
        <ele>2105</ele>
        <time>2022-07-28T10:40:44Z</time>
      </trkpt>
      <trkpt lat="45.66945" lon="6.49466">
        <ele>2105</ele>
        <time>2022-07-28T10:40:45Z</time>
      </trkpt>
      <trkpt lat="45.66945" lon="6.49465">
        <ele>2105</ele>
        <time>2022-07-28T10:40:46Z</time>
      </trkpt>
      <trkpt lat="45.66946" lon="6.49465">
        <ele>2104</ele>
        <time>2022-07-28T10:40:47Z</time>
      </trkpt>
      <trkpt lat="45.66946" lon="6.49465">
        <ele>2104</ele>
        <time>2022-07-28T10:40:48Z</time>
      </trkpt>
      <trkpt lat="45.66947" lon="6.49465">
        <ele>2104</ele>
        <time>2022-07-28T10:40:49Z</time>
      </trkpt>
      <trkpt lat="45.66947" lon="6.49464">
        <ele>2104</ele>
        <time>2022-07-28T10:40:50Z</time>
      </trkpt>
      <trkpt lat="45.66948" lon="6.49464">
        <ele>2104</ele>
        <time>2022-07-28T10:40:51Z</time>
      </trkpt>
      <trkpt lat="45.66949" lon="6.49464">
        <ele>2103</ele>
        <time>2022-07-28T10:40:52Z</time>
      </trkpt>
      <trkpt lat="45.66949" lon="6.49463">
        <ele>2103</ele>
        <time>2022-07-28T10:40:53Z</time>
      </trkpt>
      <trkpt lat="45.6695" lon="6.49463">
        <ele>2103</ele>
        <time>2022-07-28T10:40:54Z</time>
      </trkpt>
      <trkpt lat="45.6695" lon="6.49463">
        <ele>2103</ele>
        <time>2022-07-28T10:40:55Z</time>
      </trkpt>
      <trkpt lat="45.66951" lon="6.49462">
        <ele>2103</ele>
        <time>2022-07-28T10:40:56Z</time>
      </trkpt>
      <trkpt lat="45.66952" lon="6.49462">
        <ele>2102</ele>
        <time>2022-07-28T10:40:57Z</time>
      </trkpt>
      <trkpt lat="45.66953" lon="6.49461">
        <ele>2102</ele>
        <time>2022-07-28T10:40:58Z</time>
      </trkpt>
      <trkpt lat="45.66954" lon="6.49461">
        <ele>2102</ele>
        <time>2022-07-28T10:40:59Z</time>
      </trkpt>
      <trkpt lat="45.66954" lon="6.49461">
        <ele>2102</ele>
        <time>2022-07-28T10:41:00Z</time>
      </trkpt>
      <trkpt lat="45.66955" lon="6.49461">
        <ele>2102</ele>
        <time>2022-07-28T10:41:01Z</time>
      </trkpt>
      <trkpt lat="45.66956" lon="6.49461">
        <ele>2102</ele>
        <time>2022-07-28T10:41:02Z</time>
      </trkpt>
      <trkpt lat="45.66957" lon="6.49461">
        <ele>2102</ele>
        <time>2022-07-28T10:41:03Z</time>
      </trkpt>
      <trkpt lat="45.66958" lon="6.49461">
        <ele>2102</ele>
        <time>2022-07-28T10:41:04Z</time>
      </trkpt>
      <trkpt lat="45.66958" lon="6.49461">
        <ele>2102</ele>
        <time>2022-07-28T10:41:05Z</time>
      </trkpt>
      <trkpt lat="45.66959" lon="6.49462">
        <ele>2102</ele>
        <time>2022-07-28T10:41:06Z</time>
      </trkpt>
      <trkpt lat="45.6696" lon="6.49462">
        <ele>2101</ele>
        <time>2022-07-28T10:41:07Z</time>
      </trkpt>
      <trkpt lat="45.66961" lon="6.49462">
        <ele>2101</ele>
        <time>2022-07-28T10:41:08Z</time>
      </trkpt>
      <trkpt lat="45.66962" lon="6.49462">
        <ele>2101</ele>
        <time>2022-07-28T10:41:09Z</time>
      </trkpt>
      <trkpt lat="45.66963" lon="6.49462">
        <ele>2101</ele>
        <time>2022-07-28T10:41:10Z</time>
      </trkpt>
      <trkpt lat="45.66963" lon="6.49462">
        <ele>2101</ele>
        <time>2022-07-28T10:41:11Z</time>
      </trkpt>
      <trkpt lat="45.66964" lon="6.49462">
        <ele>2101</ele>
        <time>2022-07-28T10:41:12Z</time>
      </trkpt>
      <trkpt lat="45.66965" lon="6.49462">
        <ele>2101</ele>
        <time>2022-07-28T10:41:13Z</time>
      </trkpt>
      <trkpt lat="45.66966" lon="6.49462">
        <ele>2101</ele>
        <time>2022-07-28T10:41:14Z</time>
      </trkpt>
      <trkpt lat="45.66966" lon="6.49462">
        <ele>2101</ele>
        <time>2022-07-28T10:41:15Z</time>
      </trkpt>
      <trkpt lat="45.66967" lon="6.49462">
        <ele>2101</ele>
        <time>2022-07-28T10:41:16Z</time>
      </trkpt>
      <trkpt lat="45.66967" lon="6.49462">
        <ele>2100</ele>
        <time>2022-07-28T10:41:17Z</time>
      </trkpt>
      <trkpt lat="45.66968" lon="6.49462">
        <ele>2100</ele>
        <time>2022-07-28T10:41:18Z</time>
      </trkpt>
      <trkpt lat="45.66969" lon="6.49462">
        <ele>2100</ele>
        <time>2022-07-28T10:41:19Z</time>
      </trkpt>
      <trkpt lat="45.66969" lon="6.49463">
        <ele>2100</ele>
        <time>2022-07-28T10:41:20Z</time>
      </trkpt>
      <trkpt lat="45.6697" lon="6.49462">
        <ele>2100</ele>
        <time>2022-07-28T10:41:21Z</time>
      </trkpt>
      <trkpt lat="45.66971" lon="6.49462">
        <ele>2099</ele>
        <time>2022-07-28T10:41:22Z</time>
      </trkpt>
      <trkpt lat="45.66972" lon="6.49462">
        <ele>2099</ele>
        <time>2022-07-28T10:41:23Z</time>
      </trkpt>
      <trkpt lat="45.66973" lon="6.49461">
        <ele>2099</ele>
        <time>2022-07-28T10:41:24Z</time>
      </trkpt>
      <trkpt lat="45.66974" lon="6.49461">
        <ele>2099</ele>
        <time>2022-07-28T10:41:25Z</time>
      </trkpt>
      <trkpt lat="45.66974" lon="6.4946">
        <ele>2099</ele>
        <time>2022-07-28T10:41:26Z</time>
      </trkpt>
      <trkpt lat="45.66975" lon="6.49459">
        <ele>2099</ele>
        <time>2022-07-28T10:41:27Z</time>
      </trkpt>
      <trkpt lat="45.66976" lon="6.49459">
        <ele>2099</ele>
        <time>2022-07-28T10:41:28Z</time>
      </trkpt>
      <trkpt lat="45.66977" lon="6.49458">
        <ele>2099</ele>
        <time>2022-07-28T10:41:29Z</time>
      </trkpt>
      <trkpt lat="45.66978" lon="6.49457">
        <ele>2099</ele>
        <time>2022-07-28T10:41:30Z</time>
      </trkpt>
      <trkpt lat="45.66978" lon="6.49457">
        <ele>2099</ele>
        <time>2022-07-28T10:41:31Z</time>
      </trkpt>
      <trkpt lat="45.66979" lon="6.49456">
        <ele>2098</ele>
        <time>2022-07-28T10:41:32Z</time>
      </trkpt>
      <trkpt lat="45.66979" lon="6.49455">
        <ele>2098</ele>
        <time>2022-07-28T10:41:33Z</time>
      </trkpt>
      <trkpt lat="45.6698" lon="6.49455">
        <ele>2098</ele>
        <time>2022-07-28T10:41:34Z</time>
      </trkpt>
      <trkpt lat="45.66981" lon="6.49454">
        <ele>2098</ele>
        <time>2022-07-28T10:41:35Z</time>
      </trkpt>
      <trkpt lat="45.66981" lon="6.49453">
        <ele>2098</ele>
        <time>2022-07-28T10:41:36Z</time>
      </trkpt>
      <trkpt lat="45.66982" lon="6.49453">
        <ele>2098</ele>
        <time>2022-07-28T10:41:37Z</time>
      </trkpt>
      <trkpt lat="45.66983" lon="6.49453">
        <ele>2098</ele>
        <time>2022-07-28T10:41:38Z</time>
      </trkpt>
      <trkpt lat="45.66984" lon="6.49453">
        <ele>2098</ele>
        <time>2022-07-28T10:41:39Z</time>
      </trkpt>
      <trkpt lat="45.66985" lon="6.49453">
        <ele>2098</ele>
        <time>2022-07-28T10:41:40Z</time>
      </trkpt>
      <trkpt lat="45.66986" lon="6.49454">
        <ele>2098</ele>
        <time>2022-07-28T10:41:41Z</time>
      </trkpt>
      <trkpt lat="45.66987" lon="6.49454">
        <ele>2098</ele>
        <time>2022-07-28T10:41:42Z</time>
      </trkpt>
      <trkpt lat="45.66987" lon="6.49454">
        <ele>2098</ele>
        <time>2022-07-28T10:41:43Z</time>
      </trkpt>
      <trkpt lat="45.66988" lon="6.49454">
        <ele>2098</ele>
        <time>2022-07-28T10:41:44Z</time>
      </trkpt>
      <trkpt lat="45.66989" lon="6.49454">
        <ele>2098</ele>
        <time>2022-07-28T10:41:45Z</time>
      </trkpt>
      <trkpt lat="45.66989" lon="6.49454">
        <ele>2098</ele>
        <time>2022-07-28T10:41:46Z</time>
      </trkpt>
      <trkpt lat="45.6699" lon="6.49454">
        <ele>2097</ele>
        <time>2022-07-28T10:41:47Z</time>
      </trkpt>
      <trkpt lat="45.66991" lon="6.49453">
        <ele>2097</ele>
        <time>2022-07-28T10:41:48Z</time>
      </trkpt>
      <trkpt lat="45.66992" lon="6.49453">
        <ele>2097</ele>
        <time>2022-07-28T10:41:49Z</time>
      </trkpt>
      <trkpt lat="45.66993" lon="6.49453">
        <ele>2097</ele>
        <time>2022-07-28T10:41:50Z</time>
      </trkpt>
      <trkpt lat="45.66994" lon="6.49453">
        <ele>2097</ele>
        <time>2022-07-28T10:41:51Z</time>
      </trkpt>
      <trkpt lat="45.66994" lon="6.49452">
        <ele>2097</ele>
        <time>2022-07-28T10:41:52Z</time>
      </trkpt>
      <trkpt lat="45.66995" lon="6.49452">
        <ele>2097</ele>
        <time>2022-07-28T10:41:53Z</time>
      </trkpt>
      <trkpt lat="45.66996" lon="6.49452">
        <ele>2097</ele>
        <time>2022-07-28T10:41:54Z</time>
      </trkpt>
      <trkpt lat="45.66997" lon="6.49453">
        <ele>2097</ele>
        <time>2022-07-28T10:41:55Z</time>
      </trkpt>
      <trkpt lat="45.66998" lon="6.49453">
        <ele>2097</ele>
        <time>2022-07-28T10:41:56Z</time>
      </trkpt>
      <trkpt lat="45.66999" lon="6.49453">
        <ele>2096</ele>
        <time>2022-07-28T10:41:57Z</time>
      </trkpt>
      <trkpt lat="45.67" lon="6.49453">
        <ele>2096</ele>
        <time>2022-07-28T10:41:58Z</time>
      </trkpt>
      <trkpt lat="45.67" lon="6.49453">
        <ele>2096</ele>
        <time>2022-07-28T10:41:59Z</time>
      </trkpt>
      <trkpt lat="45.67001" lon="6.49453">
        <ele>2096</ele>
        <time>2022-07-28T10:42:00Z</time>
      </trkpt>
      <trkpt lat="45.67002" lon="6.49453">
        <ele>2096</ele>
        <time>2022-07-28T10:42:01Z</time>
      </trkpt>
      <trkpt lat="45.67003" lon="6.49453">
        <ele>2095</ele>
        <time>2022-07-28T10:42:02Z</time>
      </trkpt>
      <trkpt lat="45.67004" lon="6.49453">
        <ele>2095</ele>
        <time>2022-07-28T10:42:03Z</time>
      </trkpt>
      <trkpt lat="45.67005" lon="6.49452">
        <ele>2095</ele>
        <time>2022-07-28T10:42:04Z</time>
      </trkpt>
      <trkpt lat="45.67006" lon="6.49452">
        <ele>2095</ele>
        <time>2022-07-28T10:42:05Z</time>
      </trkpt>
      <trkpt lat="45.67007" lon="6.49451">
        <ele>2095</ele>
        <time>2022-07-28T10:42:06Z</time>
      </trkpt>
      <trkpt lat="45.67007" lon="6.49451">
        <ele>2094</ele>
        <time>2022-07-28T10:42:07Z</time>
      </trkpt>
      <trkpt lat="45.67008" lon="6.4945">
        <ele>2094</ele>
        <time>2022-07-28T10:42:08Z</time>
      </trkpt>
      <trkpt lat="45.67009" lon="6.4945">
        <ele>2094</ele>
        <time>2022-07-28T10:42:09Z</time>
      </trkpt>
      <trkpt lat="45.6701" lon="6.4945">
        <ele>2094</ele>
        <time>2022-07-28T10:42:10Z</time>
      </trkpt>
      <trkpt lat="45.67011" lon="6.4945">
        <ele>2094</ele>
        <time>2022-07-28T10:42:11Z</time>
      </trkpt>
      <trkpt lat="45.67012" lon="6.4945">
        <ele>2093</ele>
        <time>2022-07-28T10:42:12Z</time>
      </trkpt>
      <trkpt lat="45.67013" lon="6.4945">
        <ele>2093</ele>
        <time>2022-07-28T10:42:13Z</time>
      </trkpt>
      <trkpt lat="45.67014" lon="6.4945">
        <ele>2093</ele>
        <time>2022-07-28T10:42:14Z</time>
      </trkpt>
      <trkpt lat="45.67015" lon="6.4945">
        <ele>2093</ele>
        <time>2022-07-28T10:42:15Z</time>
      </trkpt>
      <trkpt lat="45.67016" lon="6.4945">
        <ele>2093</ele>
        <time>2022-07-28T10:42:16Z</time>
      </trkpt>
      <trkpt lat="45.67017" lon="6.49449">
        <ele>2092</ele>
        <time>2022-07-28T10:42:17Z</time>
      </trkpt>
      <trkpt lat="45.67018" lon="6.49449">
        <ele>2092</ele>
        <time>2022-07-28T10:42:18Z</time>
      </trkpt>
      <trkpt lat="45.67019" lon="6.49449">
        <ele>2092</ele>
        <time>2022-07-28T10:42:19Z</time>
      </trkpt>
      <trkpt lat="45.6702" lon="6.49449">
        <ele>2092</ele>
        <time>2022-07-28T10:42:20Z</time>
      </trkpt>
      <trkpt lat="45.67022" lon="6.49449">
        <ele>2092</ele>
        <time>2022-07-28T10:42:21Z</time>
      </trkpt>
      <trkpt lat="45.67023" lon="6.49448">
        <ele>2091</ele>
        <time>2022-07-28T10:42:22Z</time>
      </trkpt>
      <trkpt lat="45.67024" lon="6.49448">
        <ele>2091</ele>
        <time>2022-07-28T10:42:23Z</time>
      </trkpt>
      <trkpt lat="45.67025" lon="6.49448">
        <ele>2091</ele>
        <time>2022-07-28T10:42:24Z</time>
      </trkpt>
      <trkpt lat="45.67026" lon="6.49447">
        <ele>2091</ele>
        <time>2022-07-28T10:42:25Z</time>
      </trkpt>
      <trkpt lat="45.67027" lon="6.49447">
        <ele>2091</ele>
        <time>2022-07-28T10:42:26Z</time>
      </trkpt>
      <trkpt lat="45.67028" lon="6.49447">
        <ele>2090</ele>
        <time>2022-07-28T10:42:27Z</time>
      </trkpt>
      <trkpt lat="45.67029" lon="6.49447">
        <ele>2090</ele>
        <time>2022-07-28T10:42:28Z</time>
      </trkpt>
      <trkpt lat="45.6703" lon="6.49447">
        <ele>2090</ele>
        <time>2022-07-28T10:42:29Z</time>
      </trkpt>
      <trkpt lat="45.67032" lon="6.49447">
        <ele>2090</ele>
        <time>2022-07-28T10:42:30Z</time>
      </trkpt>
      <trkpt lat="45.67032" lon="6.49446">
        <ele>2090</ele>
        <time>2022-07-28T10:42:31Z</time>
      </trkpt>
      <trkpt lat="45.67033" lon="6.49446">
        <ele>2090</ele>
        <time>2022-07-28T10:42:32Z</time>
      </trkpt>
      <trkpt lat="45.67034" lon="6.49445">
        <ele>2090</ele>
        <time>2022-07-28T10:42:33Z</time>
      </trkpt>
      <trkpt lat="45.67034" lon="6.49445">
        <ele>2090</ele>
        <time>2022-07-28T10:42:34Z</time>
      </trkpt>
      <trkpt lat="45.67035" lon="6.49444">
        <ele>2090</ele>
        <time>2022-07-28T10:42:35Z</time>
      </trkpt>
      <trkpt lat="45.67036" lon="6.49443">
        <ele>2090</ele>
        <time>2022-07-28T10:42:36Z</time>
      </trkpt>
      <trkpt lat="45.67037" lon="6.49443">
        <ele>2089</ele>
        <time>2022-07-28T10:42:37Z</time>
      </trkpt>
      <trkpt lat="45.67038" lon="6.49442">
        <ele>2089</ele>
        <time>2022-07-28T10:42:38Z</time>
      </trkpt>
      <trkpt lat="45.67039" lon="6.49441">
        <ele>2088</ele>
        <time>2022-07-28T10:42:39Z</time>
      </trkpt>
      <trkpt lat="45.6704" lon="6.49441">
        <ele>2088</ele>
        <time>2022-07-28T10:42:40Z</time>
      </trkpt>
      <trkpt lat="45.67041" lon="6.49441">
        <ele>2088</ele>
        <time>2022-07-28T10:42:41Z</time>
      </trkpt>
      <trkpt lat="45.67042" lon="6.4944">
        <ele>2087</ele>
        <time>2022-07-28T10:42:42Z</time>
      </trkpt>
      <trkpt lat="45.67043" lon="6.4944">
        <ele>2087</ele>
        <time>2022-07-28T10:42:43Z</time>
      </trkpt>
      <trkpt lat="45.67044" lon="6.4944">
        <ele>2087</ele>
        <time>2022-07-28T10:42:44Z</time>
      </trkpt>
      <trkpt lat="45.67045" lon="6.4944">
        <ele>2087</ele>
        <time>2022-07-28T10:42:45Z</time>
      </trkpt>
      <trkpt lat="45.67046" lon="6.49441">
        <ele>2087</ele>
        <time>2022-07-28T10:42:46Z</time>
      </trkpt>
      <trkpt lat="45.67047" lon="6.49441">
        <ele>2087</ele>
        <time>2022-07-28T10:42:47Z</time>
      </trkpt>
      <trkpt lat="45.67048" lon="6.49441">
        <ele>2087</ele>
        <time>2022-07-28T10:42:48Z</time>
      </trkpt>
      <trkpt lat="45.67049" lon="6.4944">
        <ele>2087</ele>
        <time>2022-07-28T10:42:49Z</time>
      </trkpt>
      <trkpt lat="45.6705" lon="6.4944">
        <ele>2087</ele>
        <time>2022-07-28T10:42:50Z</time>
      </trkpt>
      <trkpt lat="45.6705" lon="6.4944">
        <ele>2087</ele>
        <time>2022-07-28T10:42:51Z</time>
      </trkpt>
      <trkpt lat="45.67051" lon="6.49439">
        <ele>2086</ele>
        <time>2022-07-28T10:42:52Z</time>
      </trkpt>
      <trkpt lat="45.67052" lon="6.49438">
        <ele>2086</ele>
        <time>2022-07-28T10:42:53Z</time>
      </trkpt>
      <trkpt lat="45.67053" lon="6.49438">
        <ele>2086</ele>
        <time>2022-07-28T10:42:54Z</time>
      </trkpt>
      <trkpt lat="45.67053" lon="6.49437">
        <ele>2086</ele>
        <time>2022-07-28T10:42:55Z</time>
      </trkpt>
      <trkpt lat="45.67054" lon="6.49436">
        <ele>2086</ele>
        <time>2022-07-28T10:42:56Z</time>
      </trkpt>
      <trkpt lat="45.67054" lon="6.49436">
        <ele>2085</ele>
        <time>2022-07-28T10:42:57Z</time>
      </trkpt>
      <trkpt lat="45.67054" lon="6.49436">
        <ele>2085</ele>
        <time>2022-07-28T10:42:58Z</time>
      </trkpt>
      <trkpt lat="45.67055" lon="6.49436">
        <ele>2085</ele>
        <time>2022-07-28T10:42:59Z</time>
      </trkpt>
      <trkpt lat="45.67055" lon="6.49435">
        <ele>2085</ele>
        <time>2022-07-28T10:43:00Z</time>
      </trkpt>
      <trkpt lat="45.67056" lon="6.49435">
        <ele>2085</ele>
        <time>2022-07-28T10:43:01Z</time>
      </trkpt>
      <trkpt lat="45.67056" lon="6.49435">
        <ele>2084</ele>
        <time>2022-07-28T10:43:02Z</time>
      </trkpt>
      <trkpt lat="45.67056" lon="6.49435">
        <ele>2084</ele>
        <time>2022-07-28T10:43:03Z</time>
      </trkpt>
      <trkpt lat="45.67056" lon="6.49435">
        <ele>2084</ele>
        <time>2022-07-28T10:43:04Z</time>
      </trkpt>
      <trkpt lat="45.67056" lon="6.49435">
        <ele>2084</ele>
        <time>2022-07-28T10:43:05Z</time>
      </trkpt>
      <trkpt lat="45.67057" lon="6.49434">
        <ele>2084</ele>
        <time>2022-07-28T10:43:06Z</time>
      </trkpt>
      <trkpt lat="45.67057" lon="6.49434">
        <ele>2084</ele>
        <time>2022-07-28T10:43:07Z</time>
      </trkpt>
      <trkpt lat="45.67058" lon="6.49434">
        <ele>2084</ele>
        <time>2022-07-28T10:43:08Z</time>
      </trkpt>
      <trkpt lat="45.67058" lon="6.49433">
        <ele>2084</ele>
        <time>2022-07-28T10:43:09Z</time>
      </trkpt>
      <trkpt lat="45.67059" lon="6.49434">
        <ele>2084</ele>
        <time>2022-07-28T10:43:10Z</time>
      </trkpt>
      <trkpt lat="45.67059" lon="6.49434">
        <ele>2084</ele>
        <time>2022-07-28T10:43:11Z</time>
      </trkpt>
      <trkpt lat="45.6706" lon="6.49434">
        <ele>2083</ele>
        <time>2022-07-28T10:43:12Z</time>
      </trkpt>
      <trkpt lat="45.67061" lon="6.49435">
        <ele>2083</ele>
        <time>2022-07-28T10:43:13Z</time>
      </trkpt>
      <trkpt lat="45.67061" lon="6.49435">
        <ele>2083</ele>
        <time>2022-07-28T10:43:14Z</time>
      </trkpt>
      <trkpt lat="45.67062" lon="6.49436">
        <ele>2083</ele>
        <time>2022-07-28T10:43:15Z</time>
      </trkpt>
      <trkpt lat="45.67062" lon="6.49436">
        <ele>2083</ele>
        <time>2022-07-28T10:43:16Z</time>
      </trkpt>
      <trkpt lat="45.67063" lon="6.49436">
        <ele>2082</ele>
        <time>2022-07-28T10:43:17Z</time>
      </trkpt>
      <trkpt lat="45.67063" lon="6.49436">
        <ele>2082</ele>
        <time>2022-07-28T10:43:18Z</time>
      </trkpt>
      <trkpt lat="45.67064" lon="6.49436">
        <ele>2082</ele>
        <time>2022-07-28T10:43:19Z</time>
      </trkpt>
      <trkpt lat="45.67065" lon="6.49436">
        <ele>2082</ele>
        <time>2022-07-28T10:43:20Z</time>
      </trkpt>
      <trkpt lat="45.67065" lon="6.49436">
        <ele>2082</ele>
        <time>2022-07-28T10:43:21Z</time>
      </trkpt>
      <trkpt lat="45.67066" lon="6.49436">
        <ele>2081</ele>
        <time>2022-07-28T10:43:22Z</time>
      </trkpt>
      <trkpt lat="45.67067" lon="6.49436">
        <ele>2081</ele>
        <time>2022-07-28T10:43:23Z</time>
      </trkpt>
      <trkpt lat="45.67068" lon="6.49436">
        <ele>2080</ele>
        <time>2022-07-28T10:43:24Z</time>
      </trkpt>
      <trkpt lat="45.67068" lon="6.49436">
        <ele>2080</ele>
        <time>2022-07-28T10:43:25Z</time>
      </trkpt>
      <trkpt lat="45.67069" lon="6.49436">
        <ele>2080</ele>
        <time>2022-07-28T10:43:26Z</time>
      </trkpt>
      <trkpt lat="45.67069" lon="6.49435">
        <ele>2079</ele>
        <time>2022-07-28T10:43:27Z</time>
      </trkpt>
      <trkpt lat="45.6707" lon="6.49435">
        <ele>2079</ele>
        <time>2022-07-28T10:43:28Z</time>
      </trkpt>
      <trkpt lat="45.6707" lon="6.49435">
        <ele>2079</ele>
        <time>2022-07-28T10:43:29Z</time>
      </trkpt>
      <trkpt lat="45.67071" lon="6.49434">
        <ele>2079</ele>
        <time>2022-07-28T10:43:30Z</time>
      </trkpt>
      <trkpt lat="45.67071" lon="6.49433">
        <ele>2079</ele>
        <time>2022-07-28T10:43:31Z</time>
      </trkpt>
      <trkpt lat="45.67071" lon="6.49433">
        <ele>2078</ele>
        <time>2022-07-28T10:43:32Z</time>
      </trkpt>
      <trkpt lat="45.67072" lon="6.49432">
        <ele>2078</ele>
        <time>2022-07-28T10:43:33Z</time>
      </trkpt>
      <trkpt lat="45.67072" lon="6.49431">
        <ele>2078</ele>
        <time>2022-07-28T10:43:34Z</time>
      </trkpt>
      <trkpt lat="45.67073" lon="6.4943">
        <ele>2078</ele>
        <time>2022-07-28T10:43:35Z</time>
      </trkpt>
      <trkpt lat="45.67073" lon="6.4943">
        <ele>2078</ele>
        <time>2022-07-28T10:43:36Z</time>
      </trkpt>
      <trkpt lat="45.67074" lon="6.49429">
        <ele>2077</ele>
        <time>2022-07-28T10:43:37Z</time>
      </trkpt>
      <trkpt lat="45.67076" lon="6.49429">
        <ele>2076</ele>
        <time>2022-07-28T10:43:46Z</time>
      </trkpt>
      <trkpt lat="45.67076" lon="6.4943">
        <ele>2076</ele>
        <time>2022-07-28T10:43:47Z</time>
      </trkpt>
      <trkpt lat="45.67077" lon="6.4943">
        <ele>2076</ele>
        <time>2022-07-28T10:43:48Z</time>
      </trkpt>
      <trkpt lat="45.67078" lon="6.4943">
        <ele>2076</ele>
        <time>2022-07-28T10:43:49Z</time>
      </trkpt>
      <trkpt lat="45.67078" lon="6.4943">
        <ele>2076</ele>
        <time>2022-07-28T10:43:50Z</time>
      </trkpt>
      <trkpt lat="45.67079" lon="6.4943">
        <ele>2076</ele>
        <time>2022-07-28T10:43:51Z</time>
      </trkpt>
      <trkpt lat="45.67079" lon="6.49429">
        <ele>2076</ele>
        <time>2022-07-28T10:43:52Z</time>
      </trkpt>
      <trkpt lat="45.6708" lon="6.49429">
        <ele>2076</ele>
        <time>2022-07-28T10:43:53Z</time>
      </trkpt>
      <trkpt lat="45.6708" lon="6.49429">
        <ele>2076</ele>
        <time>2022-07-28T10:43:54Z</time>
      </trkpt>
      <trkpt lat="45.67081" lon="6.49429">
        <ele>2076</ele>
        <time>2022-07-28T10:43:55Z</time>
      </trkpt>
      <trkpt lat="45.67081" lon="6.49428">
        <ele>2076</ele>
        <time>2022-07-28T10:43:56Z</time>
      </trkpt>
      <trkpt lat="45.67082" lon="6.49428">
        <ele>2075</ele>
        <time>2022-07-28T10:43:57Z</time>
      </trkpt>
      <trkpt lat="45.67082" lon="6.49428">
        <ele>2075</ele>
        <time>2022-07-28T10:43:58Z</time>
      </trkpt>
      <trkpt lat="45.67083" lon="6.49427">
        <ele>2075</ele>
        <time>2022-07-28T10:43:59Z</time>
      </trkpt>
      <trkpt lat="45.67084" lon="6.49427">
        <ele>2075</ele>
        <time>2022-07-28T10:44:00Z</time>
      </trkpt>
      <trkpt lat="45.67085" lon="6.49426">
        <ele>2075</ele>
        <time>2022-07-28T10:44:01Z</time>
      </trkpt>
      <trkpt lat="45.67086" lon="6.49426">
        <ele>2074</ele>
        <time>2022-07-28T10:44:02Z</time>
      </trkpt>
      <trkpt lat="45.67087" lon="6.49426">
        <ele>2074</ele>
        <time>2022-07-28T10:44:03Z</time>
      </trkpt>
      <trkpt lat="45.67088" lon="6.49425">
        <ele>2074</ele>
        <time>2022-07-28T10:44:04Z</time>
      </trkpt>
      <trkpt lat="45.67089" lon="6.49425">
        <ele>2074</ele>
        <time>2022-07-28T10:44:05Z</time>
      </trkpt>
      <trkpt lat="45.6709" lon="6.49425">
        <ele>2074</ele>
        <time>2022-07-28T10:44:06Z</time>
      </trkpt>
      <trkpt lat="45.67091" lon="6.49425">
        <ele>2073</ele>
        <time>2022-07-28T10:44:07Z</time>
      </trkpt>
      <trkpt lat="45.67092" lon="6.49424">
        <ele>2073</ele>
        <time>2022-07-28T10:44:08Z</time>
      </trkpt>
      <trkpt lat="45.67093" lon="6.49424">
        <ele>2073</ele>
        <time>2022-07-28T10:44:09Z</time>
      </trkpt>
      <trkpt lat="45.67094" lon="6.49424">
        <ele>2073</ele>
        <time>2022-07-28T10:44:10Z</time>
      </trkpt>
      <trkpt lat="45.67096" lon="6.49424">
        <ele>2073</ele>
        <time>2022-07-28T10:44:11Z</time>
      </trkpt>
      <trkpt lat="45.67097" lon="6.49423">
        <ele>2073</ele>
        <time>2022-07-28T10:44:12Z</time>
      </trkpt>
      <trkpt lat="45.67098" lon="6.49423">
        <ele>2073</ele>
        <time>2022-07-28T10:44:13Z</time>
      </trkpt>
      <trkpt lat="45.67099" lon="6.49423">
        <ele>2073</ele>
        <time>2022-07-28T10:44:14Z</time>
      </trkpt>
      <trkpt lat="45.671" lon="6.49423">
        <ele>2073</ele>
        <time>2022-07-28T10:44:15Z</time>
      </trkpt>
      <trkpt lat="45.67101" lon="6.49423">
        <ele>2073</ele>
        <time>2022-07-28T10:44:16Z</time>
      </trkpt>
      <trkpt lat="45.67102" lon="6.49423">
        <ele>2072</ele>
        <time>2022-07-28T10:44:17Z</time>
      </trkpt>
      <trkpt lat="45.67103" lon="6.49422">
        <ele>2072</ele>
        <time>2022-07-28T10:44:18Z</time>
      </trkpt>
      <trkpt lat="45.67104" lon="6.49422">
        <ele>2072</ele>
        <time>2022-07-28T10:44:19Z</time>
      </trkpt>
      <trkpt lat="45.67105" lon="6.49421">
        <ele>2072</ele>
        <time>2022-07-28T10:44:20Z</time>
      </trkpt>
      <trkpt lat="45.67106" lon="6.49421">
        <ele>2072</ele>
        <time>2022-07-28T10:44:21Z</time>
      </trkpt>
      <trkpt lat="45.67108" lon="6.49421">
        <ele>2072</ele>
        <time>2022-07-28T10:44:22Z</time>
      </trkpt>
      <trkpt lat="45.67109" lon="6.4942">
        <ele>2072</ele>
        <time>2022-07-28T10:44:23Z</time>
      </trkpt>
      <trkpt lat="45.6711" lon="6.4942">
        <ele>2072</ele>
        <time>2022-07-28T10:44:24Z</time>
      </trkpt>
      <trkpt lat="45.67111" lon="6.4942">
        <ele>2072</ele>
        <time>2022-07-28T10:44:25Z</time>
      </trkpt>
      <trkpt lat="45.67112" lon="6.49419">
        <ele>2072</ele>
        <time>2022-07-28T10:44:26Z</time>
      </trkpt>
      <trkpt lat="45.67113" lon="6.49419">
        <ele>2071</ele>
        <time>2022-07-28T10:44:27Z</time>
      </trkpt>
      <trkpt lat="45.67115" lon="6.49418">
        <ele>2071</ele>
        <time>2022-07-28T10:44:28Z</time>
      </trkpt>
      <trkpt lat="45.67116" lon="6.49417">
        <ele>2070</ele>
        <time>2022-07-28T10:44:29Z</time>
      </trkpt>
      <trkpt lat="45.67117" lon="6.49417">
        <ele>2070</ele>
        <time>2022-07-28T10:44:30Z</time>
      </trkpt>
      <trkpt lat="45.67118" lon="6.49416">
        <ele>2070</ele>
        <time>2022-07-28T10:44:31Z</time>
      </trkpt>
      <trkpt lat="45.6712" lon="6.49416">
        <ele>2070</ele>
        <time>2022-07-28T10:44:32Z</time>
      </trkpt>
      <trkpt lat="45.67121" lon="6.49415">
        <ele>2070</ele>
        <time>2022-07-28T10:44:33Z</time>
      </trkpt>
      <trkpt lat="45.67122" lon="6.49414">
        <ele>2070</ele>
        <time>2022-07-28T10:44:34Z</time>
      </trkpt>
      <trkpt lat="45.67123" lon="6.49414">
        <ele>2070</ele>
        <time>2022-07-28T10:44:35Z</time>
      </trkpt>
      <trkpt lat="45.67123" lon="6.49413">
        <ele>2070</ele>
        <time>2022-07-28T10:44:36Z</time>
      </trkpt>
      <trkpt lat="45.67124" lon="6.49413">
        <ele>2069</ele>
        <time>2022-07-28T10:44:37Z</time>
      </trkpt>
      <trkpt lat="45.67125" lon="6.49412">
        <ele>2069</ele>
        <time>2022-07-28T10:44:38Z</time>
      </trkpt>
      <trkpt lat="45.67125" lon="6.49412">
        <ele>2068</ele>
        <time>2022-07-28T10:44:39Z</time>
      </trkpt>
      <trkpt lat="45.67126" lon="6.49411">
        <ele>2068</ele>
        <time>2022-07-28T10:44:40Z</time>
      </trkpt>
      <trkpt lat="45.67127" lon="6.49411">
        <ele>2068</ele>
        <time>2022-07-28T10:44:41Z</time>
      </trkpt>
      <trkpt lat="45.67128" lon="6.49411">
        <ele>2067</ele>
        <time>2022-07-28T10:44:42Z</time>
      </trkpt>
      <trkpt lat="45.67128" lon="6.4941">
        <ele>2067</ele>
        <time>2022-07-28T10:44:43Z</time>
      </trkpt>
      <trkpt lat="45.67129" lon="6.4941">
        <ele>2067</ele>
        <time>2022-07-28T10:44:44Z</time>
      </trkpt>
      <trkpt lat="45.6713" lon="6.4941">
        <ele>2067</ele>
        <time>2022-07-28T10:44:45Z</time>
      </trkpt>
      <trkpt lat="45.67131" lon="6.49409">
        <ele>2067</ele>
        <time>2022-07-28T10:44:46Z</time>
      </trkpt>
      <trkpt lat="45.67132" lon="6.49409">
        <ele>2066</ele>
        <time>2022-07-28T10:44:47Z</time>
      </trkpt>
      <trkpt lat="45.67133" lon="6.49408">
        <ele>2066</ele>
        <time>2022-07-28T10:44:48Z</time>
      </trkpt>
      <trkpt lat="45.67134" lon="6.49407">
        <ele>2066</ele>
        <time>2022-07-28T10:44:49Z</time>
      </trkpt>
      <trkpt lat="45.67135" lon="6.49407">
        <ele>2066</ele>
        <time>2022-07-28T10:44:50Z</time>
      </trkpt>
      <trkpt lat="45.67135" lon="6.49406">
        <ele>2066</ele>
        <time>2022-07-28T10:44:51Z</time>
      </trkpt>
      <trkpt lat="45.67136" lon="6.49406">
        <ele>2065</ele>
        <time>2022-07-28T10:44:52Z</time>
      </trkpt>
      <trkpt lat="45.67137" lon="6.49405">
        <ele>2065</ele>
        <time>2022-07-28T10:44:53Z</time>
      </trkpt>
      <trkpt lat="45.67138" lon="6.49404">
        <ele>2065</ele>
        <time>2022-07-28T10:44:54Z</time>
      </trkpt>
      <trkpt lat="45.67138" lon="6.49404">
        <ele>2065</ele>
        <time>2022-07-28T10:44:55Z</time>
      </trkpt>
      <trkpt lat="45.67139" lon="6.49403">
        <ele>2065</ele>
        <time>2022-07-28T10:44:56Z</time>
      </trkpt>
      <trkpt lat="45.6714" lon="6.49403">
        <ele>2065</ele>
        <time>2022-07-28T10:44:57Z</time>
      </trkpt>
      <trkpt lat="45.67141" lon="6.49403">
        <ele>2065</ele>
        <time>2022-07-28T10:44:58Z</time>
      </trkpt>
      <trkpt lat="45.67141" lon="6.49402">
        <ele>2065</ele>
        <time>2022-07-28T10:44:59Z</time>
      </trkpt>
      <trkpt lat="45.67142" lon="6.49402">
        <ele>2065</ele>
        <time>2022-07-28T10:45:00Z</time>
      </trkpt>
      <trkpt lat="45.67142" lon="6.49402">
        <ele>2065</ele>
        <time>2022-07-28T10:45:01Z</time>
      </trkpt>
      <trkpt lat="45.67142" lon="6.49402">
        <ele>2064</ele>
        <time>2022-07-28T10:45:02Z</time>
      </trkpt>
      <trkpt lat="45.67142" lon="6.49402">
        <ele>2064</ele>
        <time>2022-07-28T10:45:03Z</time>
      </trkpt>
      <trkpt lat="45.67143" lon="6.49402">
        <ele>2064</ele>
        <time>2022-07-28T10:45:04Z</time>
      </trkpt>
      <trkpt lat="45.67143" lon="6.49402">
        <ele>2064</ele>
        <time>2022-07-28T10:45:05Z</time>
      </trkpt>
      <trkpt lat="45.67144" lon="6.49402">
        <ele>2064</ele>
        <time>2022-07-28T10:45:06Z</time>
      </trkpt>
      <trkpt lat="45.67145" lon="6.49402">
        <ele>2063</ele>
        <time>2022-07-28T10:45:07Z</time>
      </trkpt>
      <trkpt lat="45.67145" lon="6.49402">
        <ele>2063</ele>
        <time>2022-07-28T10:45:08Z</time>
      </trkpt>
      <trkpt lat="45.67146" lon="6.49401">
        <ele>2063</ele>
        <time>2022-07-28T10:45:09Z</time>
      </trkpt>
      <trkpt lat="45.67147" lon="6.49401">
        <ele>2063</ele>
        <time>2022-07-28T10:45:10Z</time>
      </trkpt>
      <trkpt lat="45.67148" lon="6.49401">
        <ele>2063</ele>
        <time>2022-07-28T10:45:11Z</time>
      </trkpt>
      <trkpt lat="45.67149" lon="6.49401">
        <ele>2062</ele>
        <time>2022-07-28T10:45:12Z</time>
      </trkpt>
      <trkpt lat="45.6715" lon="6.494">
        <ele>2062</ele>
        <time>2022-07-28T10:45:13Z</time>
      </trkpt>
      <trkpt lat="45.6715" lon="6.494">
        <ele>2061</ele>
        <time>2022-07-28T10:45:14Z</time>
      </trkpt>
      <trkpt lat="45.67151" lon="6.494">
        <ele>2061</ele>
        <time>2022-07-28T10:45:15Z</time>
      </trkpt>
      <trkpt lat="45.67152" lon="6.49399">
        <ele>2061</ele>
        <time>2022-07-28T10:45:16Z</time>
      </trkpt>
      <trkpt lat="45.67153" lon="6.49399">
        <ele>2060</ele>
        <time>2022-07-28T10:45:17Z</time>
      </trkpt>
      <trkpt lat="45.67154" lon="6.49399">
        <ele>2060</ele>
        <time>2022-07-28T10:45:18Z</time>
      </trkpt>
      <trkpt lat="45.67155" lon="6.49399">
        <ele>2060</ele>
        <time>2022-07-28T10:45:19Z</time>
      </trkpt>
      <trkpt lat="45.67156" lon="6.49399">
        <ele>2060</ele>
        <time>2022-07-28T10:45:20Z</time>
      </trkpt>
      <trkpt lat="45.67157" lon="6.49399">
        <ele>2060</ele>
        <time>2022-07-28T10:45:21Z</time>
      </trkpt>
      <trkpt lat="45.67158" lon="6.49399">
        <ele>2059</ele>
        <time>2022-07-28T10:45:22Z</time>
      </trkpt>
      <trkpt lat="45.67159" lon="6.49398">
        <ele>2059</ele>
        <time>2022-07-28T10:45:23Z</time>
      </trkpt>
      <trkpt lat="45.6716" lon="6.49398">
        <ele>2059</ele>
        <time>2022-07-28T10:45:24Z</time>
      </trkpt>
      <trkpt lat="45.67161" lon="6.49398">
        <ele>2059</ele>
        <time>2022-07-28T10:45:25Z</time>
      </trkpt>
      <trkpt lat="45.67162" lon="6.49399">
        <ele>2059</ele>
        <time>2022-07-28T10:45:26Z</time>
      </trkpt>
      <trkpt lat="45.67163" lon="6.49399">
        <ele>2058</ele>
        <time>2022-07-28T10:45:27Z</time>
      </trkpt>
      <trkpt lat="45.67164" lon="6.49399">
        <ele>2058</ele>
        <time>2022-07-28T10:45:28Z</time>
      </trkpt>
      <trkpt lat="45.67165" lon="6.494">
        <ele>2058</ele>
        <time>2022-07-28T10:45:29Z</time>
      </trkpt>
      <trkpt lat="45.67166" lon="6.49401">
        <ele>2058</ele>
        <time>2022-07-28T10:45:30Z</time>
      </trkpt>
      <trkpt lat="45.67166" lon="6.49401">
        <ele>2058</ele>
        <time>2022-07-28T10:45:31Z</time>
      </trkpt>
      <trkpt lat="45.67167" lon="6.49402">
        <ele>2058</ele>
        <time>2022-07-28T10:45:32Z</time>
      </trkpt>
      <trkpt lat="45.67168" lon="6.49403">
        <ele>2058</ele>
        <time>2022-07-28T10:45:33Z</time>
      </trkpt>
      <trkpt lat="45.67169" lon="6.49403">
        <ele>2058</ele>
        <time>2022-07-28T10:45:34Z</time>
      </trkpt>
      <trkpt lat="45.6717" lon="6.49404">
        <ele>2058</ele>
        <time>2022-07-28T10:45:35Z</time>
      </trkpt>
      <trkpt lat="45.67171" lon="6.49404">
        <ele>2058</ele>
        <time>2022-07-28T10:45:36Z</time>
      </trkpt>
      <trkpt lat="45.67171" lon="6.49405">
        <ele>2058</ele>
        <time>2022-07-28T10:45:37Z</time>
      </trkpt>
      <trkpt lat="45.67172" lon="6.49405">
        <ele>2058</ele>
        <time>2022-07-28T10:45:38Z</time>
      </trkpt>
      <trkpt lat="45.67173" lon="6.49405">
        <ele>2058</ele>
        <time>2022-07-28T10:45:39Z</time>
      </trkpt>
      <trkpt lat="45.67174" lon="6.49405">
        <ele>2058</ele>
        <time>2022-07-28T10:45:40Z</time>
      </trkpt>
      <trkpt lat="45.67175" lon="6.49405">
        <ele>2058</ele>
        <time>2022-07-28T10:45:41Z</time>
      </trkpt>
      <trkpt lat="45.67176" lon="6.49405">
        <ele>2058</ele>
        <time>2022-07-28T10:45:42Z</time>
      </trkpt>
      <trkpt lat="45.67176" lon="6.49405">
        <ele>2058</ele>
        <time>2022-07-28T10:45:43Z</time>
      </trkpt>
      <trkpt lat="45.67177" lon="6.49404">
        <ele>2058</ele>
        <time>2022-07-28T10:45:44Z</time>
      </trkpt>
      <trkpt lat="45.67178" lon="6.49404">
        <ele>2058</ele>
        <time>2022-07-28T10:45:45Z</time>
      </trkpt>
      <trkpt lat="45.67179" lon="6.49404">
        <ele>2058</ele>
        <time>2022-07-28T10:45:46Z</time>
      </trkpt>
      <trkpt lat="45.6718" lon="6.49403">
        <ele>2058</ele>
        <time>2022-07-28T10:45:47Z</time>
      </trkpt>
      <trkpt lat="45.6718" lon="6.49403">
        <ele>2058</ele>
        <time>2022-07-28T10:45:48Z</time>
      </trkpt>
      <trkpt lat="45.67181" lon="6.49403">
        <ele>2058</ele>
        <time>2022-07-28T10:45:49Z</time>
      </trkpt>
      <trkpt lat="45.67182" lon="6.49403">
        <ele>2058</ele>
        <time>2022-07-28T10:45:50Z</time>
      </trkpt>
      <trkpt lat="45.67183" lon="6.49403">
        <ele>2058</ele>
        <time>2022-07-28T10:45:51Z</time>
      </trkpt>
      <trkpt lat="45.67183" lon="6.49403">
        <ele>2057</ele>
        <time>2022-07-28T10:45:52Z</time>
      </trkpt>
      <trkpt lat="45.67184" lon="6.49403">
        <ele>2057</ele>
        <time>2022-07-28T10:45:53Z</time>
      </trkpt>
      <trkpt lat="45.67185" lon="6.49404">
        <ele>2057</ele>
        <time>2022-07-28T10:45:54Z</time>
      </trkpt>
      <trkpt lat="45.67185" lon="6.49404">
        <ele>2057</ele>
        <time>2022-07-28T10:45:55Z</time>
      </trkpt>
      <trkpt lat="45.67186" lon="6.49404">
        <ele>2057</ele>
        <time>2022-07-28T10:45:56Z</time>
      </trkpt>
      <trkpt lat="45.67187" lon="6.49405">
        <ele>2057</ele>
        <time>2022-07-28T10:45:57Z</time>
      </trkpt>
      <trkpt lat="45.67188" lon="6.49405">
        <ele>2057</ele>
        <time>2022-07-28T10:45:58Z</time>
      </trkpt>
      <trkpt lat="45.67189" lon="6.49405">
        <ele>2057</ele>
        <time>2022-07-28T10:45:59Z</time>
      </trkpt>
      <trkpt lat="45.67189" lon="6.49406">
        <ele>2057</ele>
        <time>2022-07-28T10:46:00Z</time>
      </trkpt>
      <trkpt lat="45.6719" lon="6.49406">
        <ele>2057</ele>
        <time>2022-07-28T10:46:01Z</time>
      </trkpt>
      <trkpt lat="45.67191" lon="6.49406">
        <ele>2056</ele>
        <time>2022-07-28T10:46:02Z</time>
      </trkpt>
      <trkpt lat="45.67191" lon="6.49407">
        <ele>2056</ele>
        <time>2022-07-28T10:46:03Z</time>
      </trkpt>
      <trkpt lat="45.67192" lon="6.49407">
        <ele>2056</ele>
        <time>2022-07-28T10:46:04Z</time>
      </trkpt>
      <trkpt lat="45.67193" lon="6.49407">
        <ele>2056</ele>
        <time>2022-07-28T10:46:05Z</time>
      </trkpt>
      <trkpt lat="45.67194" lon="6.49407">
        <ele>2056</ele>
        <time>2022-07-28T10:46:06Z</time>
      </trkpt>
      <trkpt lat="45.67194" lon="6.49407">
        <ele>2056</ele>
        <time>2022-07-28T10:46:07Z</time>
      </trkpt>
      <trkpt lat="45.67195" lon="6.49407">
        <ele>2056</ele>
        <time>2022-07-28T10:46:08Z</time>
      </trkpt>
      <trkpt lat="45.67196" lon="6.49406">
        <ele>2056</ele>
        <time>2022-07-28T10:46:09Z</time>
      </trkpt>
      <trkpt lat="45.67197" lon="6.49406">
        <ele>2056</ele>
        <time>2022-07-28T10:46:10Z</time>
      </trkpt>
      <trkpt lat="45.67198" lon="6.49406">
        <ele>2056</ele>
        <time>2022-07-28T10:46:11Z</time>
      </trkpt>
      <trkpt lat="45.67198" lon="6.49406">
        <ele>2056</ele>
        <time>2022-07-28T10:46:12Z</time>
      </trkpt>
      <trkpt lat="45.67199" lon="6.49406">
        <ele>2056</ele>
        <time>2022-07-28T10:46:13Z</time>
      </trkpt>
      <trkpt lat="45.672" lon="6.49405">
        <ele>2056</ele>
        <time>2022-07-28T10:46:14Z</time>
      </trkpt>
      <trkpt lat="45.67201" lon="6.49404">
        <ele>2056</ele>
        <time>2022-07-28T10:46:15Z</time>
      </trkpt>
      <trkpt lat="45.67202" lon="6.49403">
        <ele>2056</ele>
        <time>2022-07-28T10:46:16Z</time>
      </trkpt>
      <trkpt lat="45.67203" lon="6.49403">
        <ele>2055</ele>
        <time>2022-07-28T10:46:17Z</time>
      </trkpt>
      <trkpt lat="45.67204" lon="6.49402">
        <ele>2055</ele>
        <time>2022-07-28T10:46:18Z</time>
      </trkpt>
      <trkpt lat="45.67204" lon="6.49401">
        <ele>2055</ele>
        <time>2022-07-28T10:46:19Z</time>
      </trkpt>
      <trkpt lat="45.67205" lon="6.49401">
        <ele>2055</ele>
        <time>2022-07-28T10:46:20Z</time>
      </trkpt>
      <trkpt lat="45.67206" lon="6.494">
        <ele>2055</ele>
        <time>2022-07-28T10:46:21Z</time>
      </trkpt>
      <trkpt lat="45.67207" lon="6.494">
        <ele>2054</ele>
        <time>2022-07-28T10:46:22Z</time>
      </trkpt>
      <trkpt lat="45.67208" lon="6.49399">
        <ele>2054</ele>
        <time>2022-07-28T10:46:23Z</time>
      </trkpt>
      <trkpt lat="45.67209" lon="6.49399">
        <ele>2054</ele>
        <time>2022-07-28T10:46:24Z</time>
      </trkpt>
      <trkpt lat="45.6721" lon="6.49399">
        <ele>2054</ele>
        <time>2022-07-28T10:46:25Z</time>
      </trkpt>
      <trkpt lat="45.67211" lon="6.49399">
        <ele>2054</ele>
        <time>2022-07-28T10:46:26Z</time>
      </trkpt>
      <trkpt lat="45.67211" lon="6.49399">
        <ele>2054</ele>
        <time>2022-07-28T10:46:27Z</time>
      </trkpt>
      <trkpt lat="45.67212" lon="6.49399">
        <ele>2054</ele>
        <time>2022-07-28T10:46:28Z</time>
      </trkpt>
      <trkpt lat="45.67213" lon="6.49399">
        <ele>2054</ele>
        <time>2022-07-28T10:46:29Z</time>
      </trkpt>
      <trkpt lat="45.67213" lon="6.494">
        <ele>2054</ele>
        <time>2022-07-28T10:46:30Z</time>
      </trkpt>
      <trkpt lat="45.67214" lon="6.494">
        <ele>2054</ele>
        <time>2022-07-28T10:46:31Z</time>
      </trkpt>
      <trkpt lat="45.67214" lon="6.494">
        <ele>2054</ele>
        <time>2022-07-28T10:46:32Z</time>
      </trkpt>
      <trkpt lat="45.67215" lon="6.494">
        <ele>2054</ele>
        <time>2022-07-28T10:46:33Z</time>
      </trkpt>
      <trkpt lat="45.67215" lon="6.494">
        <ele>2054</ele>
        <time>2022-07-28T10:46:34Z</time>
      </trkpt>
      <trkpt lat="45.67216" lon="6.494">
        <ele>2054</ele>
        <time>2022-07-28T10:46:35Z</time>
      </trkpt>
      <trkpt lat="45.67217" lon="6.494">
        <ele>2054</ele>
        <time>2022-07-28T10:46:36Z</time>
      </trkpt>
      <trkpt lat="45.67217" lon="6.49401">
        <ele>2054</ele>
        <time>2022-07-28T10:46:37Z</time>
      </trkpt>
      <trkpt lat="45.67218" lon="6.49401">
        <ele>2054</ele>
        <time>2022-07-28T10:46:38Z</time>
      </trkpt>
      <trkpt lat="45.67219" lon="6.49402">
        <ele>2054</ele>
        <time>2022-07-28T10:47:00Z</time>
      </trkpt>
      <trkpt lat="45.67219" lon="6.49402">
        <ele>2054</ele>
        <time>2022-07-28T10:47:01Z</time>
      </trkpt>
      <trkpt lat="45.67219" lon="6.49403">
        <ele>2054</ele>
        <time>2022-07-28T10:47:02Z</time>
      </trkpt>
      <trkpt lat="45.67219" lon="6.49403">
        <ele>2054</ele>
        <time>2022-07-28T10:47:03Z</time>
      </trkpt>
      <trkpt lat="45.67219" lon="6.49403">
        <ele>2054</ele>
        <time>2022-07-28T10:47:04Z</time>
      </trkpt>
      <trkpt lat="45.67218" lon="6.49403">
        <ele>2054</ele>
        <time>2022-07-28T10:47:05Z</time>
      </trkpt>
      <trkpt lat="45.67218" lon="6.49403">
        <ele>2054</ele>
        <time>2022-07-28T10:47:06Z</time>
      </trkpt>
      <trkpt lat="45.67217" lon="6.49403">
        <ele>2054</ele>
        <time>2022-07-28T10:47:23Z</time>
      </trkpt>
      <trkpt lat="45.67217" lon="6.49403">
        <ele>2054</ele>
        <time>2022-07-28T10:47:24Z</time>
      </trkpt>
      <trkpt lat="45.67217" lon="6.49403">
        <ele>2054</ele>
        <time>2022-07-28T10:47:25Z</time>
      </trkpt>
      <trkpt lat="45.67217" lon="6.49403">
        <ele>2054</ele>
        <time>2022-07-28T10:47:26Z</time>
      </trkpt>
      <trkpt lat="45.67218" lon="6.49403">
        <ele>2053</ele>
        <time>2022-07-28T10:47:27Z</time>
      </trkpt>
      <trkpt lat="45.67218" lon="6.49404">
        <ele>2053</ele>
        <time>2022-07-28T10:47:28Z</time>
      </trkpt>
      <trkpt lat="45.67219" lon="6.49404">
        <ele>2053</ele>
        <time>2022-07-28T10:47:29Z</time>
      </trkpt>
      <trkpt lat="45.67219" lon="6.49405">
        <ele>2054</ele>
        <time>2022-07-28T10:47:50Z</time>
      </trkpt>
      <trkpt lat="45.6722" lon="6.49405">
        <ele>2054</ele>
        <time>2022-07-28T10:47:51Z</time>
      </trkpt>
      <trkpt lat="45.6722" lon="6.49405">
        <ele>2054</ele>
        <time>2022-07-28T10:47:52Z</time>
      </trkpt>
      <trkpt lat="45.6722" lon="6.49404">
        <ele>2054</ele>
        <time>2022-07-28T10:47:53Z</time>
      </trkpt>
      <trkpt lat="45.6722" lon="6.49404">
        <ele>2054</ele>
        <time>2022-07-28T10:47:54Z</time>
      </trkpt>
      <trkpt lat="45.67219" lon="6.49404">
        <ele>2054</ele>
        <time>2022-07-28T10:47:55Z</time>
      </trkpt>
      <trkpt lat="45.67219" lon="6.49404">
        <ele>2054</ele>
        <time>2022-07-28T10:47:56Z</time>
      </trkpt>
      <trkpt lat="45.67218" lon="6.49404">
        <ele>2054</ele>
        <time>2022-07-28T10:49:02Z</time>
      </trkpt>
      <trkpt lat="45.67218" lon="6.49404">
        <ele>2054</ele>
        <time>2022-07-28T10:49:03Z</time>
      </trkpt>
      <trkpt lat="45.67217" lon="6.49403">
        <ele>2054</ele>
        <time>2022-07-28T10:49:04Z</time>
      </trkpt>
      <trkpt lat="45.67218" lon="6.49403">
        <ele>2054</ele>
        <time>2022-07-28T10:49:05Z</time>
      </trkpt>
      <trkpt lat="45.67218" lon="6.49403">
        <ele>2054</ele>
        <time>2022-07-28T10:49:06Z</time>
      </trkpt>
      <trkpt lat="45.67218" lon="6.49403">
        <ele>2054</ele>
        <time>2022-07-28T10:52:42Z</time>
      </trkpt>
      <trkpt lat="45.67218" lon="6.49403">
        <ele>2054</ele>
        <time>2022-07-28T10:52:43Z</time>
      </trkpt>
      <trkpt lat="45.67218" lon="6.49402">
        <ele>2054</ele>
        <time>2022-07-28T10:52:44Z</time>
      </trkpt>
      <trkpt lat="45.67217" lon="6.49403">
        <ele>2054</ele>
        <time>2022-07-28T10:52:45Z</time>
      </trkpt>
      <trkpt lat="45.67217" lon="6.49403">
        <ele>2054</ele>
        <time>2022-07-28T10:52:46Z</time>
      </trkpt>
      <trkpt lat="45.67216" lon="6.49403">
        <ele>2053</ele>
        <time>2022-07-28T10:52:56Z</time>
      </trkpt>
      <trkpt lat="45.67216" lon="6.49403">
        <ele>2053</ele>
        <time>2022-07-28T10:52:57Z</time>
      </trkpt>
      <trkpt lat="45.67216" lon="6.49403">
        <ele>2053</ele>
        <time>2022-07-28T10:52:58Z</time>
      </trkpt>
      <trkpt lat="45.67216" lon="6.49402">
        <ele>2053</ele>
        <time>2022-07-28T10:52:59Z</time>
      </trkpt>
      <trkpt lat="45.67217" lon="6.49402">
        <ele>2053</ele>
        <time>2022-07-28T10:53:00Z</time>
      </trkpt>
      <trkpt lat="45.67217" lon="6.49403">
        <ele>2053</ele>
        <time>2022-07-28T10:53:01Z</time>
      </trkpt>
      <trkpt lat="45.67218" lon="6.49403">
        <ele>2053</ele>
        <time>2022-07-28T10:53:02Z</time>
      </trkpt>
      <trkpt lat="45.67218" lon="6.49403">
        <ele>2054</ele>
        <time>2022-07-28T10:54:19Z</time>
      </trkpt>
      <trkpt lat="45.67219" lon="6.49403">
        <ele>2054</ele>
        <time>2022-07-28T10:54:20Z</time>
      </trkpt>
      <trkpt lat="45.67219" lon="6.49402">
        <ele>2054</ele>
        <time>2022-07-28T10:54:21Z</time>
      </trkpt>
      <trkpt lat="45.67219" lon="6.49401">
        <ele>2053</ele>
        <time>2022-07-28T10:54:22Z</time>
      </trkpt>
      <trkpt lat="45.67219" lon="6.49401">
        <ele>2053</ele>
        <time>2022-07-28T10:54:23Z</time>
      </trkpt>
      <trkpt lat="45.67219" lon="6.494">
        <ele>2053</ele>
        <time>2022-07-28T10:54:24Z</time>
      </trkpt>
      <trkpt lat="45.6722" lon="6.49398">
        <ele>2053</ele>
        <time>2022-07-28T10:54:25Z</time>
      </trkpt>
      <trkpt lat="45.6722" lon="6.49397">
        <ele>2053</ele>
        <time>2022-07-28T10:54:26Z</time>
      </trkpt>
      <trkpt lat="45.67221" lon="6.49396">
        <ele>2053</ele>
        <time>2022-07-28T10:54:27Z</time>
      </trkpt>
      <trkpt lat="45.67222" lon="6.49395">
        <ele>2053</ele>
        <time>2022-07-28T10:54:28Z</time>
      </trkpt>
      <trkpt lat="45.67222" lon="6.49393">
        <ele>2053</ele>
        <time>2022-07-28T10:54:29Z</time>
      </trkpt>
      <trkpt lat="45.67223" lon="6.49392">
        <ele>2053</ele>
        <time>2022-07-28T10:54:30Z</time>
      </trkpt>
      <trkpt lat="45.67224" lon="6.4939">
        <ele>2053</ele>
        <time>2022-07-28T10:54:31Z</time>
      </trkpt>
      <trkpt lat="45.67224" lon="6.49389">
        <ele>2053</ele>
        <time>2022-07-28T10:54:32Z</time>
      </trkpt>
      <trkpt lat="45.67225" lon="6.49387">
        <ele>2053</ele>
        <time>2022-07-28T10:54:33Z</time>
      </trkpt>
      <trkpt lat="45.67226" lon="6.49386">
        <ele>2053</ele>
        <time>2022-07-28T10:54:34Z</time>
      </trkpt>
      <trkpt lat="45.67226" lon="6.49385">
        <ele>2053</ele>
        <time>2022-07-28T10:54:35Z</time>
      </trkpt>
      <trkpt lat="45.67226" lon="6.49383">
        <ele>2054</ele>
        <time>2022-07-28T10:54:36Z</time>
      </trkpt>
      <trkpt lat="45.67226" lon="6.49382">
        <ele>2054</ele>
        <time>2022-07-28T10:54:37Z</time>
      </trkpt>
      <trkpt lat="45.67225" lon="6.4938">
        <ele>2054</ele>
        <time>2022-07-28T10:54:38Z</time>
      </trkpt>
      <trkpt lat="45.67225" lon="6.49379">
        <ele>2054</ele>
        <time>2022-07-28T10:54:39Z</time>
      </trkpt>
      <trkpt lat="45.67224" lon="6.49377">
        <ele>2056</ele>
        <time>2022-07-28T10:55:25Z</time>
      </trkpt>
      <trkpt lat="45.67224" lon="6.49376">
        <ele>2056</ele>
        <time>2022-07-28T10:55:26Z</time>
      </trkpt>
      <trkpt lat="45.67225" lon="6.49376">
        <ele>2056</ele>
        <time>2022-07-28T10:55:27Z</time>
      </trkpt>
      <trkpt lat="45.67225" lon="6.49376">
        <ele>2056</ele>
        <time>2022-07-28T10:55:28Z</time>
      </trkpt>
      <trkpt lat="45.67225" lon="6.49376">
        <ele>2056</ele>
        <time>2022-07-28T10:55:29Z</time>
      </trkpt>
      <trkpt lat="45.67226" lon="6.49376">
        <ele>2056</ele>
        <time>2022-07-28T10:55:30Z</time>
      </trkpt>
      <trkpt lat="45.67227" lon="6.49376">
        <ele>2056</ele>
        <time>2022-07-28T10:55:31Z</time>
      </trkpt>
      <trkpt lat="45.67228" lon="6.49376">
        <ele>2056</ele>
        <time>2022-07-28T10:55:32Z</time>
      </trkpt>
      <trkpt lat="45.67229" lon="6.49376">
        <ele>2056</ele>
        <time>2022-07-28T10:55:33Z</time>
      </trkpt>
      <trkpt lat="45.6723" lon="6.49376">
        <ele>2056</ele>
        <time>2022-07-28T10:55:34Z</time>
      </trkpt>
      <trkpt lat="45.67231" lon="6.49376">
        <ele>2056</ele>
        <time>2022-07-28T10:55:35Z</time>
      </trkpt>
      <trkpt lat="45.67232" lon="6.49375">
        <ele>2057</ele>
        <time>2022-07-28T10:55:36Z</time>
      </trkpt>
      <trkpt lat="45.67234" lon="6.49375">
        <ele>2057</ele>
        <time>2022-07-28T10:55:37Z</time>
      </trkpt>
      <trkpt lat="45.67235" lon="6.49374">
        <ele>2057</ele>
        <time>2022-07-28T10:55:38Z</time>
      </trkpt>
      <trkpt lat="45.67236" lon="6.49374">
        <ele>2057</ele>
        <time>2022-07-28T10:55:39Z</time>
      </trkpt>
      <trkpt lat="45.67237" lon="6.49374">
        <ele>2057</ele>
        <time>2022-07-28T10:55:40Z</time>
      </trkpt>
      <trkpt lat="45.67238" lon="6.49374">
        <ele>2057</ele>
        <time>2022-07-28T10:55:41Z</time>
      </trkpt>
      <trkpt lat="45.67239" lon="6.49374">
        <ele>2057</ele>
        <time>2022-07-28T10:55:42Z</time>
      </trkpt>
      <trkpt lat="45.6724" lon="6.49374">
        <ele>2057</ele>
        <time>2022-07-28T10:55:43Z</time>
      </trkpt>
      <trkpt lat="45.67241" lon="6.49374">
        <ele>2057</ele>
        <time>2022-07-28T10:55:44Z</time>
      </trkpt>
      <trkpt lat="45.67242" lon="6.49374">
        <ele>2057</ele>
        <time>2022-07-28T10:55:45Z</time>
      </trkpt>
      <trkpt lat="45.67244" lon="6.49374">
        <ele>2058</ele>
        <time>2022-07-28T10:55:46Z</time>
      </trkpt>
      <trkpt lat="45.67245" lon="6.49373">
        <ele>2058</ele>
        <time>2022-07-28T10:55:47Z</time>
      </trkpt>
      <trkpt lat="45.67246" lon="6.49373">
        <ele>2058</ele>
        <time>2022-07-28T10:55:48Z</time>
      </trkpt>
      <trkpt lat="45.67247" lon="6.49373">
        <ele>2058</ele>
        <time>2022-07-28T10:55:49Z</time>
      </trkpt>
      <trkpt lat="45.67248" lon="6.49373">
        <ele>2058</ele>
        <time>2022-07-28T10:55:50Z</time>
      </trkpt>
      <trkpt lat="45.67249" lon="6.49373">
        <ele>2059</ele>
        <time>2022-07-28T10:55:51Z</time>
      </trkpt>
      <trkpt lat="45.67249" lon="6.49372">
        <ele>2059</ele>
        <time>2022-07-28T10:55:52Z</time>
      </trkpt>
      <trkpt lat="45.6725" lon="6.49372">
        <ele>2059</ele>
        <time>2022-07-28T10:55:53Z</time>
      </trkpt>
      <trkpt lat="45.67251" lon="6.49371">
        <ele>2059</ele>
        <time>2022-07-28T10:55:54Z</time>
      </trkpt>
      <trkpt lat="45.67252" lon="6.49371">
        <ele>2059</ele>
        <time>2022-07-28T10:55:55Z</time>
      </trkpt>
      <trkpt lat="45.67253" lon="6.4937">
        <ele>2059</ele>
        <time>2022-07-28T10:55:56Z</time>
      </trkpt>
      <trkpt lat="45.67254" lon="6.4937">
        <ele>2059</ele>
        <time>2022-07-28T10:55:57Z</time>
      </trkpt>
      <trkpt lat="45.67255" lon="6.49369">
        <ele>2059</ele>
        <time>2022-07-28T10:55:58Z</time>
      </trkpt>
      <trkpt lat="45.67256" lon="6.49369">
        <ele>2059</ele>
        <time>2022-07-28T10:55:59Z</time>
      </trkpt>
      <trkpt lat="45.67256" lon="6.49368">
        <ele>2059</ele>
        <time>2022-07-28T10:56:00Z</time>
      </trkpt>
      <trkpt lat="45.67257" lon="6.49368">
        <ele>2060</ele>
        <time>2022-07-28T10:56:01Z</time>
      </trkpt>
      <trkpt lat="45.67258" lon="6.49367">
        <ele>2060</ele>
        <time>2022-07-28T10:56:02Z</time>
      </trkpt>
      <trkpt lat="45.67259" lon="6.49367">
        <ele>2060</ele>
        <time>2022-07-28T10:56:03Z</time>
      </trkpt>
      <trkpt lat="45.6726" lon="6.49366">
        <ele>2060</ele>
        <time>2022-07-28T10:56:04Z</time>
      </trkpt>
      <trkpt lat="45.67261" lon="6.49366">
        <ele>2060</ele>
        <time>2022-07-28T10:56:05Z</time>
      </trkpt>
      <trkpt lat="45.67262" lon="6.49365">
        <ele>2061</ele>
        <time>2022-07-28T10:56:06Z</time>
      </trkpt>
      <trkpt lat="45.67263" lon="6.49365">
        <ele>2061</ele>
        <time>2022-07-28T10:56:07Z</time>
      </trkpt>
      <trkpt lat="45.67264" lon="6.49364">
        <ele>2061</ele>
        <time>2022-07-28T10:56:08Z</time>
      </trkpt>
      <trkpt lat="45.67265" lon="6.49364">
        <ele>2062</ele>
        <time>2022-07-28T10:56:09Z</time>
      </trkpt>
      <trkpt lat="45.67266" lon="6.49363">
        <ele>2062</ele>
        <time>2022-07-28T10:56:10Z</time>
      </trkpt>
      <trkpt lat="45.67267" lon="6.49363">
        <ele>2063</ele>
        <time>2022-07-28T10:56:11Z</time>
      </trkpt>
      <trkpt lat="45.67267" lon="6.49362">
        <ele>2063</ele>
        <time>2022-07-28T10:56:12Z</time>
      </trkpt>
      <trkpt lat="45.67268" lon="6.49362">
        <ele>2063</ele>
        <time>2022-07-28T10:56:13Z</time>
      </trkpt>
      <trkpt lat="45.67269" lon="6.49361">
        <ele>2063</ele>
        <time>2022-07-28T10:56:14Z</time>
      </trkpt>
      <trkpt lat="45.6727" lon="6.49361">
        <ele>2063</ele>
        <time>2022-07-28T10:56:15Z</time>
      </trkpt>
      <trkpt lat="45.6727" lon="6.4936">
        <ele>2064</ele>
        <time>2022-07-28T10:56:16Z</time>
      </trkpt>
      <trkpt lat="45.67271" lon="6.4936">
        <ele>2064</ele>
        <time>2022-07-28T10:56:17Z</time>
      </trkpt>
      <trkpt lat="45.67272" lon="6.4936">
        <ele>2064</ele>
        <time>2022-07-28T10:56:18Z</time>
      </trkpt>
      <trkpt lat="45.67273" lon="6.49359">
        <ele>2064</ele>
        <time>2022-07-28T10:56:19Z</time>
      </trkpt>
      <trkpt lat="45.67274" lon="6.49359">
        <ele>2064</ele>
        <time>2022-07-28T10:56:26Z</time>
      </trkpt>
      <trkpt lat="45.67275" lon="6.49359">
        <ele>2064</ele>
        <time>2022-07-28T10:56:27Z</time>
      </trkpt>
      <trkpt lat="45.67275" lon="6.49359">
        <ele>2064</ele>
        <time>2022-07-28T10:56:28Z</time>
      </trkpt>
      <trkpt lat="45.67276" lon="6.49359">
        <ele>2064</ele>
        <time>2022-07-28T10:56:29Z</time>
      </trkpt>
      <trkpt lat="45.67277" lon="6.49359">
        <ele>2064</ele>
        <time>2022-07-28T10:56:30Z</time>
      </trkpt>
      <trkpt lat="45.67277" lon="6.49358">
        <ele>2065</ele>
        <time>2022-07-28T10:56:31Z</time>
      </trkpt>
      <trkpt lat="45.67278" lon="6.49357">
        <ele>2065</ele>
        <time>2022-07-28T10:56:32Z</time>
      </trkpt>
      <trkpt lat="45.67279" lon="6.49357">
        <ele>2065</ele>
        <time>2022-07-28T10:56:33Z</time>
      </trkpt>
      <trkpt lat="45.6728" lon="6.49356">
        <ele>2065</ele>
        <time>2022-07-28T10:56:34Z</time>
      </trkpt>
      <trkpt lat="45.6728" lon="6.49356">
        <ele>2065</ele>
        <time>2022-07-28T10:56:35Z</time>
      </trkpt>
      <trkpt lat="45.67281" lon="6.49355">
        <ele>2065</ele>
        <time>2022-07-28T10:56:36Z</time>
      </trkpt>
      <trkpt lat="45.67281" lon="6.49355">
        <ele>2065</ele>
        <time>2022-07-28T10:56:37Z</time>
      </trkpt>
      <trkpt lat="45.67282" lon="6.49355">
        <ele>2065</ele>
        <time>2022-07-28T10:56:38Z</time>
      </trkpt>
      <trkpt lat="45.67283" lon="6.49355">
        <ele>2065</ele>
        <time>2022-07-28T10:56:39Z</time>
      </trkpt>
      <trkpt lat="45.67284" lon="6.49354">
        <ele>2065</ele>
        <time>2022-07-28T10:56:40Z</time>
      </trkpt>
      <trkpt lat="45.67285" lon="6.49354">
        <ele>2065</ele>
        <time>2022-07-28T10:56:41Z</time>
      </trkpt>
      <trkpt lat="45.67286" lon="6.49354">
        <ele>2065</ele>
        <time>2022-07-28T10:56:42Z</time>
      </trkpt>
      <trkpt lat="45.67287" lon="6.49354">
        <ele>2065</ele>
        <time>2022-07-28T10:56:43Z</time>
      </trkpt>
      <trkpt lat="45.67288" lon="6.49354">
        <ele>2065</ele>
        <time>2022-07-28T10:56:44Z</time>
      </trkpt>
      <trkpt lat="45.67289" lon="6.49353">
        <ele>2065</ele>
        <time>2022-07-28T10:56:45Z</time>
      </trkpt>
      <trkpt lat="45.6729" lon="6.49353">
        <ele>2066</ele>
        <time>2022-07-28T10:56:46Z</time>
      </trkpt>
      <trkpt lat="45.67291" lon="6.49353">
        <ele>2066</ele>
        <time>2022-07-28T10:56:47Z</time>
      </trkpt>
      <trkpt lat="45.67292" lon="6.49353">
        <ele>2066</ele>
        <time>2022-07-28T10:56:48Z</time>
      </trkpt>
      <trkpt lat="45.67293" lon="6.49353">
        <ele>2066</ele>
        <time>2022-07-28T10:56:49Z</time>
      </trkpt>
      <trkpt lat="45.67294" lon="6.49353">
        <ele>2066</ele>
        <time>2022-07-28T10:56:50Z</time>
      </trkpt>
      <trkpt lat="45.67295" lon="6.49354">
        <ele>2066</ele>
        <time>2022-07-28T10:56:51Z</time>
      </trkpt>
      <trkpt lat="45.67296" lon="6.49354">
        <ele>2066</ele>
        <time>2022-07-28T10:56:52Z</time>
      </trkpt>
      <trkpt lat="45.67297" lon="6.49353">
        <ele>2066</ele>
        <time>2022-07-28T10:56:53Z</time>
      </trkpt>
      <trkpt lat="45.67298" lon="6.49353">
        <ele>2066</ele>
        <time>2022-07-28T10:56:54Z</time>
      </trkpt>
      <trkpt lat="45.67298" lon="6.49353">
        <ele>2066</ele>
        <time>2022-07-28T10:56:55Z</time>
      </trkpt>
      <trkpt lat="45.67299" lon="6.49352">
        <ele>2066</ele>
        <time>2022-07-28T10:56:56Z</time>
      </trkpt>
      <trkpt lat="45.673" lon="6.49352">
        <ele>2066</ele>
        <time>2022-07-28T10:56:57Z</time>
      </trkpt>
      <trkpt lat="45.67301" lon="6.49351">
        <ele>2066</ele>
        <time>2022-07-28T10:56:58Z</time>
      </trkpt>
      <trkpt lat="45.67301" lon="6.49351">
        <ele>2066</ele>
        <time>2022-07-28T10:56:59Z</time>
      </trkpt>
      <trkpt lat="45.67301" lon="6.49351">
        <ele>2066</ele>
        <time>2022-07-28T10:57:00Z</time>
      </trkpt>
      <trkpt lat="45.67302" lon="6.49351">
        <ele>2066</ele>
        <time>2022-07-28T10:57:01Z</time>
      </trkpt>
      <trkpt lat="45.67303" lon="6.4935">
        <ele>2066</ele>
        <time>2022-07-28T10:57:02Z</time>
      </trkpt>
      <trkpt lat="45.67304" lon="6.49349">
        <ele>2066</ele>
        <time>2022-07-28T10:58:33Z</time>
      </trkpt>
      <trkpt lat="45.67305" lon="6.49349">
        <ele>2066</ele>
        <time>2022-07-28T10:58:34Z</time>
      </trkpt>
      <trkpt lat="45.67305" lon="6.49349">
        <ele>2066</ele>
        <time>2022-07-28T10:58:35Z</time>
      </trkpt>
      <trkpt lat="45.67306" lon="6.49348">
        <ele>2066</ele>
        <time>2022-07-28T10:58:36Z</time>
      </trkpt>
      <trkpt lat="45.67306" lon="6.49348">
        <ele>2066</ele>
        <time>2022-07-28T10:58:37Z</time>
      </trkpt>
      <trkpt lat="45.67307" lon="6.49347">
        <ele>2066</ele>
        <time>2022-07-28T10:58:38Z</time>
      </trkpt>
      <trkpt lat="45.67308" lon="6.49347">
        <ele>2066</ele>
        <time>2022-07-28T10:58:39Z</time>
      </trkpt>
      <trkpt lat="45.67308" lon="6.49346">
        <ele>2066</ele>
        <time>2022-07-28T10:58:40Z</time>
      </trkpt>
      <trkpt lat="45.67309" lon="6.49345">
        <ele>2066</ele>
        <time>2022-07-28T10:58:41Z</time>
      </trkpt>
      <trkpt lat="45.6731" lon="6.49345">
        <ele>2066</ele>
        <time>2022-07-28T10:58:42Z</time>
      </trkpt>
      <trkpt lat="45.67311" lon="6.49344">
        <ele>2066</ele>
        <time>2022-07-28T10:58:43Z</time>
      </trkpt>
      <trkpt lat="45.67311" lon="6.49344">
        <ele>2066</ele>
        <time>2022-07-28T10:58:44Z</time>
      </trkpt>
      <trkpt lat="45.67312" lon="6.49343">
        <ele>2066</ele>
        <time>2022-07-28T10:58:45Z</time>
      </trkpt>
      <trkpt lat="45.67312" lon="6.49343">
        <ele>2066</ele>
        <time>2022-07-28T10:58:46Z</time>
      </trkpt>
      <trkpt lat="45.67313" lon="6.49342">
        <ele>2066</ele>
        <time>2022-07-28T10:58:47Z</time>
      </trkpt>
      <trkpt lat="45.67314" lon="6.49341">
        <ele>2066</ele>
        <time>2022-07-28T10:58:48Z</time>
      </trkpt>
      <trkpt lat="45.67314" lon="6.49341">
        <ele>2066</ele>
        <time>2022-07-28T10:58:49Z</time>
      </trkpt>
      <trkpt lat="45.67315" lon="6.4934">
        <ele>2066</ele>
        <time>2022-07-28T10:58:50Z</time>
      </trkpt>
      <trkpt lat="45.67316" lon="6.4934">
        <ele>2066</ele>
        <time>2022-07-28T10:58:51Z</time>
      </trkpt>
      <trkpt lat="45.67317" lon="6.4934">
        <ele>2066</ele>
        <time>2022-07-28T10:58:52Z</time>
      </trkpt>
      <trkpt lat="45.67318" lon="6.49339">
        <ele>2066</ele>
        <time>2022-07-28T10:58:53Z</time>
      </trkpt>
      <trkpt lat="45.67319" lon="6.49339">
        <ele>2066</ele>
        <time>2022-07-28T10:58:54Z</time>
      </trkpt>
      <trkpt lat="45.6732" lon="6.49339">
        <ele>2066</ele>
        <time>2022-07-28T10:58:55Z</time>
      </trkpt>
      <trkpt lat="45.67321" lon="6.49338">
        <ele>2066</ele>
        <time>2022-07-28T10:58:56Z</time>
      </trkpt>
      <trkpt lat="45.67322" lon="6.49338">
        <ele>2065</ele>
        <time>2022-07-28T10:58:57Z</time>
      </trkpt>
      <trkpt lat="45.67323" lon="6.49337">
        <ele>2065</ele>
        <time>2022-07-28T10:58:58Z</time>
      </trkpt>
      <trkpt lat="45.67324" lon="6.49336">
        <ele>2064</ele>
        <time>2022-07-28T10:58:59Z</time>
      </trkpt>
      <trkpt lat="45.67325" lon="6.49335">
        <ele>2064</ele>
        <time>2022-07-28T10:59:00Z</time>
      </trkpt>
      <trkpt lat="45.67325" lon="6.49334">
        <ele>2064</ele>
        <time>2022-07-28T10:59:01Z</time>
      </trkpt>
      <trkpt lat="45.67326" lon="6.49333">
        <ele>2064</ele>
        <time>2022-07-28T10:59:02Z</time>
      </trkpt>
      <trkpt lat="45.67327" lon="6.49332">
        <ele>2064</ele>
        <time>2022-07-28T10:59:03Z</time>
      </trkpt>
      <trkpt lat="45.67328" lon="6.49331">
        <ele>2064</ele>
        <time>2022-07-28T10:59:04Z</time>
      </trkpt>
      <trkpt lat="45.67329" lon="6.4933">
        <ele>2064</ele>
        <time>2022-07-28T10:59:05Z</time>
      </trkpt>
      <trkpt lat="45.6733" lon="6.49329">
        <ele>2064</ele>
        <time>2022-07-28T10:59:06Z</time>
      </trkpt>
      <trkpt lat="45.67331" lon="6.49328">
        <ele>2064</ele>
        <time>2022-07-28T10:59:07Z</time>
      </trkpt>
      <trkpt lat="45.67331" lon="6.49328">
        <ele>2064</ele>
        <time>2022-07-28T10:59:08Z</time>
      </trkpt>
      <trkpt lat="45.67332" lon="6.49327">
        <ele>2064</ele>
        <time>2022-07-28T10:59:09Z</time>
      </trkpt>
      <trkpt lat="45.67333" lon="6.49326">
        <ele>2064</ele>
        <time>2022-07-28T10:59:10Z</time>
      </trkpt>
      <trkpt lat="45.67333" lon="6.49326">
        <ele>2064</ele>
        <time>2022-07-28T10:59:11Z</time>
      </trkpt>
      <trkpt lat="45.67334" lon="6.49325">
        <ele>2064</ele>
        <time>2022-07-28T10:59:12Z</time>
      </trkpt>
      <trkpt lat="45.67334" lon="6.49325">
        <ele>2064</ele>
        <time>2022-07-28T10:59:13Z</time>
      </trkpt>
      <trkpt lat="45.67335" lon="6.49324">
        <ele>2064</ele>
        <time>2022-07-28T10:59:14Z</time>
      </trkpt>
      <trkpt lat="45.67335" lon="6.49323">
        <ele>2064</ele>
        <time>2022-07-28T10:59:15Z</time>
      </trkpt>
      <trkpt lat="45.67336" lon="6.49323">
        <ele>2065</ele>
        <time>2022-07-28T10:59:16Z</time>
      </trkpt>
      <trkpt lat="45.67337" lon="6.49322">
        <ele>2065</ele>
        <time>2022-07-28T10:59:17Z</time>
      </trkpt>
      <trkpt lat="45.67338" lon="6.49321">
        <ele>2065</ele>
        <time>2022-07-28T10:59:18Z</time>
      </trkpt>
      <trkpt lat="45.67339" lon="6.4932">
        <ele>2065</ele>
        <time>2022-07-28T10:59:19Z</time>
      </trkpt>
      <trkpt lat="45.6734" lon="6.4932">
        <ele>2065</ele>
        <time>2022-07-28T10:59:20Z</time>
      </trkpt>
      <trkpt lat="45.67341" lon="6.4932">
        <ele>2065</ele>
        <time>2022-07-28T10:59:21Z</time>
      </trkpt>
      <trkpt lat="45.67342" lon="6.49319">
        <ele>2065</ele>
        <time>2022-07-28T10:59:22Z</time>
      </trkpt>
      <trkpt lat="45.67343" lon="6.49319">
        <ele>2065</ele>
        <time>2022-07-28T10:59:23Z</time>
      </trkpt>
      <trkpt lat="45.67344" lon="6.49319">
        <ele>2065</ele>
        <time>2022-07-28T10:59:24Z</time>
      </trkpt>
      <trkpt lat="45.67345" lon="6.4932">
        <ele>2065</ele>
        <time>2022-07-28T10:59:25Z</time>
      </trkpt>
      <trkpt lat="45.67346" lon="6.4932">
        <ele>2065</ele>
        <time>2022-07-28T10:59:26Z</time>
      </trkpt>
      <trkpt lat="45.67347" lon="6.4932">
        <ele>2065</ele>
        <time>2022-07-28T10:59:27Z</time>
      </trkpt>
      <trkpt lat="45.67348" lon="6.4932">
        <ele>2065</ele>
        <time>2022-07-28T10:59:28Z</time>
      </trkpt>
      <trkpt lat="45.67349" lon="6.4932">
        <ele>2065</ele>
        <time>2022-07-28T10:59:29Z</time>
      </trkpt>
      <trkpt lat="45.6735" lon="6.4932">
        <ele>2065</ele>
        <time>2022-07-28T10:59:30Z</time>
      </trkpt>
      <trkpt lat="45.67351" lon="6.4932">
        <ele>2065</ele>
        <time>2022-07-28T10:59:31Z</time>
      </trkpt>
      <trkpt lat="45.67352" lon="6.4932">
        <ele>2065</ele>
        <time>2022-07-28T10:59:32Z</time>
      </trkpt>
      <trkpt lat="45.67352" lon="6.49319">
        <ele>2065</ele>
        <time>2022-07-28T10:59:33Z</time>
      </trkpt>
      <trkpt lat="45.67353" lon="6.49319">
        <ele>2065</ele>
        <time>2022-07-28T10:59:34Z</time>
      </trkpt>
      <trkpt lat="45.67354" lon="6.49319">
        <ele>2065</ele>
        <time>2022-07-28T10:59:35Z</time>
      </trkpt>
      <trkpt lat="45.67355" lon="6.49319">
        <ele>2065</ele>
        <time>2022-07-28T10:59:36Z</time>
      </trkpt>
      <trkpt lat="45.67356" lon="6.49318">
        <ele>2064</ele>
        <time>2022-07-28T10:59:37Z</time>
      </trkpt>
      <trkpt lat="45.67357" lon="6.49318">
        <ele>2064</ele>
        <time>2022-07-28T10:59:38Z</time>
      </trkpt>
      <trkpt lat="45.67358" lon="6.49318">
        <ele>2064</ele>
        <time>2022-07-28T10:59:39Z</time>
      </trkpt>
      <trkpt lat="45.67359" lon="6.49318">
        <ele>2064</ele>
        <time>2022-07-28T10:59:40Z</time>
      </trkpt>
      <trkpt lat="45.6736" lon="6.49317">
        <ele>2064</ele>
        <time>2022-07-28T10:59:41Z</time>
      </trkpt>
      <trkpt lat="45.67361" lon="6.49317">
        <ele>2064</ele>
        <time>2022-07-28T10:59:42Z</time>
      </trkpt>
      <trkpt lat="45.67362" lon="6.49316">
        <ele>2064</ele>
        <time>2022-07-28T10:59:43Z</time>
      </trkpt>
      <trkpt lat="45.67363" lon="6.49316">
        <ele>2064</ele>
        <time>2022-07-28T10:59:44Z</time>
      </trkpt>
      <trkpt lat="45.67364" lon="6.49315">
        <ele>2064</ele>
        <time>2022-07-28T10:59:45Z</time>
      </trkpt>
      <trkpt lat="45.67365" lon="6.49314">
        <ele>2064</ele>
        <time>2022-07-28T10:59:46Z</time>
      </trkpt>
      <trkpt lat="45.67365" lon="6.49313">
        <ele>2064</ele>
        <time>2022-07-28T10:59:47Z</time>
      </trkpt>
      <trkpt lat="45.67366" lon="6.49312">
        <ele>2064</ele>
        <time>2022-07-28T10:59:48Z</time>
      </trkpt>
      <trkpt lat="45.67367" lon="6.49311">
        <ele>2064</ele>
        <time>2022-07-28T10:59:49Z</time>
      </trkpt>
      <trkpt lat="45.67368" lon="6.4931">
        <ele>2064</ele>
        <time>2022-07-28T10:59:50Z</time>
      </trkpt>
      <trkpt lat="45.67369" lon="6.4931">
        <ele>2064</ele>
        <time>2022-07-28T10:59:51Z</time>
      </trkpt>
      <trkpt lat="45.6737" lon="6.49309">
        <ele>2063</ele>
        <time>2022-07-28T10:59:52Z</time>
      </trkpt>
      <trkpt lat="45.67371" lon="6.49309">
        <ele>2063</ele>
        <time>2022-07-28T10:59:53Z</time>
      </trkpt>
      <trkpt lat="45.67372" lon="6.49309">
        <ele>2063</ele>
        <time>2022-07-28T10:59:54Z</time>
      </trkpt>
      <trkpt lat="45.67373" lon="6.49309">
        <ele>2063</ele>
        <time>2022-07-28T10:59:55Z</time>
      </trkpt>
      <trkpt lat="45.67374" lon="6.49309">
        <ele>2063</ele>
        <time>2022-07-28T10:59:56Z</time>
      </trkpt>
      <trkpt lat="45.67375" lon="6.49309">
        <ele>2063</ele>
        <time>2022-07-28T10:59:57Z</time>
      </trkpt>
      <trkpt lat="45.67376" lon="6.49309">
        <ele>2063</ele>
        <time>2022-07-28T10:59:58Z</time>
      </trkpt>
      <trkpt lat="45.67377" lon="6.49309">
        <ele>2063</ele>
        <time>2022-07-28T10:59:59Z</time>
      </trkpt>
      <trkpt lat="45.67378" lon="6.49309">
        <ele>2063</ele>
        <time>2022-07-28T11:00:00Z</time>
      </trkpt>
      <trkpt lat="45.67379" lon="6.49309">
        <ele>2063</ele>
        <time>2022-07-28T11:00:01Z</time>
      </trkpt>
      <trkpt lat="45.6738" lon="6.49309">
        <ele>2062</ele>
        <time>2022-07-28T11:00:02Z</time>
      </trkpt>
      <trkpt lat="45.67381" lon="6.49308">
        <ele>2060</ele>
        <time>2022-07-28T11:00:08Z</time>
      </trkpt>
      <trkpt lat="45.67382" lon="6.49307">
        <ele>2060</ele>
        <time>2022-07-28T11:00:09Z</time>
      </trkpt>
      <trkpt lat="45.67382" lon="6.49307">
        <ele>2060</ele>
        <time>2022-07-28T11:00:10Z</time>
      </trkpt>
      <trkpt lat="45.67383" lon="6.49306">
        <ele>2060</ele>
        <time>2022-07-28T11:00:11Z</time>
      </trkpt>
      <trkpt lat="45.67383" lon="6.49305">
        <ele>2060</ele>
        <time>2022-07-28T11:00:12Z</time>
      </trkpt>
      <trkpt lat="45.67383" lon="6.49304">
        <ele>2060</ele>
        <time>2022-07-28T11:00:13Z</time>
      </trkpt>
      <trkpt lat="45.67384" lon="6.49303">
        <ele>2060</ele>
        <time>2022-07-28T11:00:14Z</time>
      </trkpt>
      <trkpt lat="45.67384" lon="6.49301">
        <ele>2060</ele>
        <time>2022-07-28T11:00:15Z</time>
      </trkpt>
      <trkpt lat="45.67384" lon="6.493">
        <ele>2060</ele>
        <time>2022-07-28T11:00:16Z</time>
      </trkpt>
      <trkpt lat="45.67384" lon="6.49299">
        <ele>2060</ele>
        <time>2022-07-28T11:00:17Z</time>
      </trkpt>
      <trkpt lat="45.67384" lon="6.49297">
        <ele>2060</ele>
        <time>2022-07-28T11:00:18Z</time>
      </trkpt>
      <trkpt lat="45.67384" lon="6.49296">
        <ele>2060</ele>
        <time>2022-07-28T11:00:19Z</time>
      </trkpt>
      <trkpt lat="45.67384" lon="6.49294">
        <ele>2060</ele>
        <time>2022-07-28T11:00:20Z</time>
      </trkpt>
      <trkpt lat="45.67384" lon="6.49293">
        <ele>2060</ele>
        <time>2022-07-28T11:00:21Z</time>
      </trkpt>
      <trkpt lat="45.67384" lon="6.49291">
        <ele>2059</ele>
        <time>2022-07-28T11:00:22Z</time>
      </trkpt>
      <trkpt lat="45.67385" lon="6.4929">
        <ele>2059</ele>
        <time>2022-07-28T11:00:23Z</time>
      </trkpt>
      <trkpt lat="45.67385" lon="6.49288">
        <ele>2059</ele>
        <time>2022-07-28T11:00:24Z</time>
      </trkpt>
      <trkpt lat="45.67385" lon="6.49287">
        <ele>2059</ele>
        <time>2022-07-28T11:00:25Z</time>
      </trkpt>
      <trkpt lat="45.67385" lon="6.49286">
        <ele>2059</ele>
        <time>2022-07-28T11:00:26Z</time>
      </trkpt>
      <trkpt lat="45.67386" lon="6.49285">
        <ele>2058</ele>
        <time>2022-07-28T11:00:27Z</time>
      </trkpt>
      <trkpt lat="45.67386" lon="6.49284">
        <ele>2058</ele>
        <time>2022-07-28T11:00:28Z</time>
      </trkpt>
      <trkpt lat="45.67386" lon="6.49283">
        <ele>2058</ele>
        <time>2022-07-28T11:00:29Z</time>
      </trkpt>
      <trkpt lat="45.67387" lon="6.49282">
        <ele>2058</ele>
        <time>2022-07-28T11:00:30Z</time>
      </trkpt>
      <trkpt lat="45.67388" lon="6.49281">
        <ele>2058</ele>
        <time>2022-07-28T11:00:31Z</time>
      </trkpt>
      <trkpt lat="45.67388" lon="6.49281">
        <ele>2057</ele>
        <time>2022-07-28T11:00:32Z</time>
      </trkpt>
      <trkpt lat="45.67389" lon="6.4928">
        <ele>2057</ele>
        <time>2022-07-28T11:00:33Z</time>
      </trkpt>
      <trkpt lat="45.6739" lon="6.4928">
        <ele>2057</ele>
        <time>2022-07-28T11:00:34Z</time>
      </trkpt>
      <trkpt lat="45.67391" lon="6.49279">
        <ele>2057</ele>
        <time>2022-07-28T11:00:35Z</time>
      </trkpt>
      <trkpt lat="45.67391" lon="6.49279">
        <ele>2057</ele>
        <time>2022-07-28T11:00:36Z</time>
      </trkpt>
      <trkpt lat="45.67392" lon="6.49279">
        <ele>2056</ele>
        <time>2022-07-28T11:00:55Z</time>
      </trkpt>
      <trkpt lat="45.67392" lon="6.49278">
        <ele>2056</ele>
        <time>2022-07-28T11:00:56Z</time>
      </trkpt>
      <trkpt lat="45.67393" lon="6.49278">
        <ele>2056</ele>
        <time>2022-07-28T11:00:57Z</time>
      </trkpt>
      <trkpt lat="45.67393" lon="6.49278">
        <ele>2056</ele>
        <time>2022-07-28T11:00:58Z</time>
      </trkpt>
      <trkpt lat="45.67394" lon="6.49277">
        <ele>2056</ele>
        <time>2022-07-28T11:00:59Z</time>
      </trkpt>
      <trkpt lat="45.67394" lon="6.49276">
        <ele>2056</ele>
        <time>2022-07-28T11:01:00Z</time>
      </trkpt>
      <trkpt lat="45.67395" lon="6.49275">
        <ele>2056</ele>
        <time>2022-07-28T11:01:01Z</time>
      </trkpt>
      <trkpt lat="45.67395" lon="6.49274">
        <ele>2056</ele>
        <time>2022-07-28T11:01:02Z</time>
      </trkpt>
      <trkpt lat="45.67396" lon="6.49273">
        <ele>2056</ele>
        <time>2022-07-28T11:01:03Z</time>
      </trkpt>
      <trkpt lat="45.67396" lon="6.49272">
        <ele>2057</ele>
        <time>2022-07-28T11:01:13Z</time>
      </trkpt>
      <trkpt lat="45.67396" lon="6.49272">
        <ele>2057</ele>
        <time>2022-07-28T11:01:14Z</time>
      </trkpt>
      <trkpt lat="45.67396" lon="6.49271">
        <ele>2057</ele>
        <time>2022-07-28T11:01:15Z</time>
      </trkpt>
      <trkpt lat="45.67396" lon="6.4927">
        <ele>2057</ele>
        <time>2022-07-28T11:01:16Z</time>
      </trkpt>
      <trkpt lat="45.67396" lon="6.49269">
        <ele>2057</ele>
        <time>2022-07-28T11:01:17Z</time>
      </trkpt>
      <trkpt lat="45.67397" lon="6.49267">
        <ele>2057</ele>
        <time>2022-07-28T11:01:18Z</time>
      </trkpt>
      <trkpt lat="45.67397" lon="6.49266">
        <ele>2057</ele>
        <time>2022-07-28T11:01:19Z</time>
      </trkpt>
      <trkpt lat="45.67398" lon="6.49263">
        <ele>2056</ele>
        <time>2022-07-28T11:01:40Z</time>
      </trkpt>
      <trkpt lat="45.67398" lon="6.49262">
        <ele>2056</ele>
        <time>2022-07-28T11:01:41Z</time>
      </trkpt>
      <trkpt lat="45.67399" lon="6.49261">
        <ele>2056</ele>
        <time>2022-07-28T11:01:42Z</time>
      </trkpt>
      <trkpt lat="45.67399" lon="6.4926">
        <ele>2056</ele>
        <time>2022-07-28T11:01:43Z</time>
      </trkpt>
      <trkpt lat="45.67399" lon="6.49259">
        <ele>2056</ele>
        <time>2022-07-28T11:01:44Z</time>
      </trkpt>
      <trkpt lat="45.674" lon="6.49258">
        <ele>2056</ele>
        <time>2022-07-28T11:01:45Z</time>
      </trkpt>
      <trkpt lat="45.674" lon="6.49257">
        <ele>2056</ele>
        <time>2022-07-28T11:01:46Z</time>
      </trkpt>
      <trkpt lat="45.674" lon="6.49256">
        <ele>2055</ele>
        <time>2022-07-28T11:01:47Z</time>
      </trkpt>
      <trkpt lat="45.67401" lon="6.49254">
        <ele>2055</ele>
        <time>2022-07-28T11:01:48Z</time>
      </trkpt>
      <trkpt lat="45.67401" lon="6.49253">
        <ele>2055</ele>
        <time>2022-07-28T11:01:49Z</time>
      </trkpt>
      <trkpt lat="45.67401" lon="6.49252">
        <ele>2055</ele>
        <time>2022-07-28T11:01:50Z</time>
      </trkpt>
      <trkpt lat="45.67401" lon="6.49252">
        <ele>2053</ele>
        <time>2022-07-28T11:02:30Z</time>
      </trkpt>
      <trkpt lat="45.67402" lon="6.49252">
        <ele>2053</ele>
        <time>2022-07-28T11:02:31Z</time>
      </trkpt>
      <trkpt lat="45.67402" lon="6.49252">
        <ele>2053</ele>
        <time>2022-07-28T11:02:32Z</time>
      </trkpt>
      <trkpt lat="45.67402" lon="6.49251">
        <ele>2053</ele>
        <time>2022-07-28T11:02:33Z</time>
      </trkpt>
      <trkpt lat="45.67402" lon="6.4925">
        <ele>2053</ele>
        <time>2022-07-28T11:02:34Z</time>
      </trkpt>
      <trkpt lat="45.67403" lon="6.49249">
        <ele>2053</ele>
        <time>2022-07-28T11:02:35Z</time>
      </trkpt>
      <trkpt lat="45.67403" lon="6.49248">
        <ele>2053</ele>
        <time>2022-07-28T11:02:36Z</time>
      </trkpt>
      <trkpt lat="45.67404" lon="6.49247">
        <ele>2053</ele>
        <time>2022-07-28T11:02:37Z</time>
      </trkpt>
      <trkpt lat="45.67405" lon="6.49245">
        <ele>2053</ele>
        <time>2022-07-28T11:02:38Z</time>
      </trkpt>
      <trkpt lat="45.67405" lon="6.49244">
        <ele>2053</ele>
        <time>2022-07-28T11:02:39Z</time>
      </trkpt>
      <trkpt lat="45.67406" lon="6.49242">
        <ele>2053</ele>
        <time>2022-07-28T11:02:40Z</time>
      </trkpt>
      <trkpt lat="45.67406" lon="6.4924">
        <ele>2053</ele>
        <time>2022-07-28T11:02:41Z</time>
      </trkpt>
      <trkpt lat="45.67407" lon="6.49239">
        <ele>2052</ele>
        <time>2022-07-28T11:02:42Z</time>
      </trkpt>
      <trkpt lat="45.67407" lon="6.49237">
        <ele>2052</ele>
        <time>2022-07-28T11:02:43Z</time>
      </trkpt>
      <trkpt lat="45.67408" lon="6.49236">
        <ele>2052</ele>
        <time>2022-07-28T11:02:44Z</time>
      </trkpt>
      <trkpt lat="45.67409" lon="6.49234">
        <ele>2051</ele>
        <time>2022-07-28T11:02:57Z</time>
      </trkpt>
      <trkpt lat="45.67409" lon="6.49234">
        <ele>2051</ele>
        <time>2022-07-28T11:02:58Z</time>
      </trkpt>
      <trkpt lat="45.6741" lon="6.49233">
        <ele>2051</ele>
        <time>2022-07-28T11:02:59Z</time>
      </trkpt>
      <trkpt lat="45.6741" lon="6.49232">
        <ele>2051</ele>
        <time>2022-07-28T11:03:00Z</time>
      </trkpt>
      <trkpt lat="45.67411" lon="6.49231">
        <ele>2051</ele>
        <time>2022-07-28T11:03:01Z</time>
      </trkpt>
      <trkpt lat="45.67412" lon="6.4923">
        <ele>2050</ele>
        <time>2022-07-28T11:03:02Z</time>
      </trkpt>
      <trkpt lat="45.67412" lon="6.49229">
        <ele>2050</ele>
        <time>2022-07-28T11:03:03Z</time>
      </trkpt>
      <trkpt lat="45.67413" lon="6.49228">
        <ele>2050</ele>
        <time>2022-07-28T11:03:04Z</time>
      </trkpt>
      <trkpt lat="45.67413" lon="6.49227">
        <ele>2050</ele>
        <time>2022-07-28T11:03:05Z</time>
      </trkpt>
      <trkpt lat="45.67414" lon="6.49225">
        <ele>2049</ele>
        <time>2022-07-28T11:03:14Z</time>
      </trkpt>
      <trkpt lat="45.67414" lon="6.49224">
        <ele>2049</ele>
        <time>2022-07-28T11:03:15Z</time>
      </trkpt>
      <trkpt lat="45.67414" lon="6.49223">
        <ele>2049</ele>
        <time>2022-07-28T11:03:16Z</time>
      </trkpt>
      <trkpt lat="45.67414" lon="6.49221">
        <ele>2049</ele>
        <time>2022-07-28T11:03:17Z</time>
      </trkpt>
      <trkpt lat="45.67415" lon="6.4922">
        <ele>2049</ele>
        <time>2022-07-28T11:03:18Z</time>
      </trkpt>
      <trkpt lat="45.67415" lon="6.49219">
        <ele>2049</ele>
        <time>2022-07-28T11:03:19Z</time>
      </trkpt>
      <trkpt lat="45.67416" lon="6.49217">
        <ele>2049</ele>
        <time>2022-07-28T11:03:20Z</time>
      </trkpt>
      <trkpt lat="45.67417" lon="6.49215">
        <ele>2049</ele>
        <time>2022-07-28T11:03:21Z</time>
      </trkpt>
      <trkpt lat="45.67418" lon="6.49214">
        <ele>2048</ele>
        <time>2022-07-28T11:03:22Z</time>
      </trkpt>
      <trkpt lat="45.67419" lon="6.49212">
        <ele>2048</ele>
        <time>2022-07-28T11:03:23Z</time>
      </trkpt>
      <trkpt lat="45.67421" lon="6.49211">
        <ele>2048</ele>
        <time>2022-07-28T11:03:24Z</time>
      </trkpt>
      <trkpt lat="45.67422" lon="6.4921">
        <ele>2048</ele>
        <time>2022-07-28T11:03:25Z</time>
      </trkpt>
      <trkpt lat="45.67423" lon="6.49208">
        <ele>2048</ele>
        <time>2022-07-28T11:03:26Z</time>
      </trkpt>
      <trkpt lat="45.67424" lon="6.49207">
        <ele>2047</ele>
        <time>2022-07-28T11:03:27Z</time>
      </trkpt>
      <trkpt lat="45.67425" lon="6.49206">
        <ele>2047</ele>
        <time>2022-07-28T11:03:28Z</time>
      </trkpt>
      <trkpt lat="45.67426" lon="6.49205">
        <ele>2047</ele>
        <time>2022-07-28T11:03:29Z</time>
      </trkpt>
      <trkpt lat="45.67428" lon="6.49204">
        <ele>2047</ele>
        <time>2022-07-28T11:03:30Z</time>
      </trkpt>
      <trkpt lat="45.67429" lon="6.49203">
        <ele>2047</ele>
        <time>2022-07-28T11:03:31Z</time>
      </trkpt>
      <trkpt lat="45.6743" lon="6.49202">
        <ele>2047</ele>
        <time>2022-07-28T11:03:32Z</time>
      </trkpt>
      <trkpt lat="45.67431" lon="6.49201">
        <ele>2047</ele>
        <time>2022-07-28T11:03:33Z</time>
      </trkpt>
      <trkpt lat="45.67432" lon="6.49199">
        <ele>2047</ele>
        <time>2022-07-28T11:03:34Z</time>
      </trkpt>
      <trkpt lat="45.67433" lon="6.49198">
        <ele>2047</ele>
        <time>2022-07-28T11:03:35Z</time>
      </trkpt>
      <trkpt lat="45.67434" lon="6.49197">
        <ele>2047</ele>
        <time>2022-07-28T11:03:36Z</time>
      </trkpt>
      <trkpt lat="45.67435" lon="6.49196">
        <ele>2047</ele>
        <time>2022-07-28T11:03:37Z</time>
      </trkpt>
      <trkpt lat="45.67436" lon="6.49195">
        <ele>2047</ele>
        <time>2022-07-28T11:03:38Z</time>
      </trkpt>
      <trkpt lat="45.67437" lon="6.49194">
        <ele>2047</ele>
        <time>2022-07-28T11:03:39Z</time>
      </trkpt>
      <trkpt lat="45.67437" lon="6.49193">
        <ele>2047</ele>
        <time>2022-07-28T11:03:40Z</time>
      </trkpt>
      <trkpt lat="45.67438" lon="6.49192">
        <ele>2048</ele>
        <time>2022-07-28T11:03:41Z</time>
      </trkpt>
      <trkpt lat="45.67439" lon="6.49191">
        <ele>2048</ele>
        <time>2022-07-28T11:03:42Z</time>
      </trkpt>
      <trkpt lat="45.6744" lon="6.49189">
        <ele>2048</ele>
        <time>2022-07-28T11:03:43Z</time>
      </trkpt>
      <trkpt lat="45.67441" lon="6.49188">
        <ele>2048</ele>
        <time>2022-07-28T11:03:44Z</time>
      </trkpt>
      <trkpt lat="45.67441" lon="6.49187">
        <ele>2048</ele>
        <time>2022-07-28T11:03:45Z</time>
      </trkpt>
      <trkpt lat="45.67442" lon="6.49185">
        <ele>2048</ele>
        <time>2022-07-28T11:03:46Z</time>
      </trkpt>
      <trkpt lat="45.67443" lon="6.49184">
        <ele>2048</ele>
        <time>2022-07-28T11:03:47Z</time>
      </trkpt>
      <trkpt lat="45.67444" lon="6.49183">
        <ele>2048</ele>
        <time>2022-07-28T11:03:48Z</time>
      </trkpt>
      <trkpt lat="45.67445" lon="6.49182">
        <ele>2048</ele>
        <time>2022-07-28T11:03:49Z</time>
      </trkpt>
      <trkpt lat="45.67445" lon="6.49181">
        <ele>2048</ele>
        <time>2022-07-28T11:03:50Z</time>
      </trkpt>
      <trkpt lat="45.67446" lon="6.49181">
        <ele>2048</ele>
        <time>2022-07-28T11:03:51Z</time>
      </trkpt>
      <trkpt lat="45.67446" lon="6.4918">
        <ele>2048</ele>
        <time>2022-07-28T11:03:52Z</time>
      </trkpt>
      <trkpt lat="45.67446" lon="6.4918">
        <ele>2048</ele>
        <time>2022-07-28T11:03:53Z</time>
      </trkpt>
      <trkpt lat="45.67446" lon="6.4918">
        <ele>2048</ele>
        <time>2022-07-28T11:03:54Z</time>
      </trkpt>
      <trkpt lat="45.67446" lon="6.4918">
        <ele>2048</ele>
        <time>2022-07-28T11:03:55Z</time>
      </trkpt>
      <trkpt lat="45.67447" lon="6.4918">
        <ele>2049</ele>
        <time>2022-07-28T11:03:56Z</time>
      </trkpt>
      <trkpt lat="45.67448" lon="6.49179">
        <ele>2049</ele>
        <time>2022-07-28T11:03:57Z</time>
      </trkpt>
      <trkpt lat="45.67449" lon="6.49179">
        <ele>2049</ele>
        <time>2022-07-28T11:03:58Z</time>
      </trkpt>
      <trkpt lat="45.67449" lon="6.49179">
        <ele>2049</ele>
        <time>2022-07-28T11:03:59Z</time>
      </trkpt>
      <trkpt lat="45.6745" lon="6.49178">
        <ele>2049</ele>
        <time>2022-07-28T11:04:00Z</time>
      </trkpt>
      <trkpt lat="45.67451" lon="6.49178">
        <ele>2050</ele>
        <time>2022-07-28T11:04:01Z</time>
      </trkpt>
      <trkpt lat="45.67451" lon="6.49178">
        <ele>2050</ele>
        <time>2022-07-28T11:04:02Z</time>
      </trkpt>
      <trkpt lat="45.67452" lon="6.49178">
        <ele>2050</ele>
        <time>2022-07-28T11:04:03Z</time>
      </trkpt>
      <trkpt lat="45.67453" lon="6.49177">
        <ele>2050</ele>
        <time>2022-07-28T11:04:04Z</time>
      </trkpt>
      <trkpt lat="45.67454" lon="6.49177">
        <ele>2050</ele>
        <time>2022-07-28T11:04:05Z</time>
      </trkpt>
      <trkpt lat="45.67455" lon="6.49176">
        <ele>2050</ele>
        <time>2022-07-28T11:04:06Z</time>
      </trkpt>
      <trkpt lat="45.67456" lon="6.49176">
        <ele>2050</ele>
        <time>2022-07-28T11:04:07Z</time>
      </trkpt>
      <trkpt lat="45.67457" lon="6.49175">
        <ele>2050</ele>
        <time>2022-07-28T11:04:08Z</time>
      </trkpt>
      <trkpt lat="45.67458" lon="6.49175">
        <ele>2050</ele>
        <time>2022-07-28T11:04:09Z</time>
      </trkpt>
      <trkpt lat="45.67459" lon="6.49174">
        <ele>2050</ele>
        <time>2022-07-28T11:04:10Z</time>
      </trkpt>
      <trkpt lat="45.6746" lon="6.49174">
        <ele>2050</ele>
        <time>2022-07-28T11:04:11Z</time>
      </trkpt>
      <trkpt lat="45.67461" lon="6.49174">
        <ele>2050</ele>
        <time>2022-07-28T11:04:12Z</time>
      </trkpt>
      <trkpt lat="45.67463" lon="6.49174">
        <ele>2050</ele>
        <time>2022-07-28T11:04:13Z</time>
      </trkpt>
      <trkpt lat="45.67464" lon="6.49174">
        <ele>2050</ele>
        <time>2022-07-28T11:04:14Z</time>
      </trkpt>
      <trkpt lat="45.67465" lon="6.49174">
        <ele>2050</ele>
        <time>2022-07-28T11:04:15Z</time>
      </trkpt>
      <trkpt lat="45.67466" lon="6.49173">
        <ele>2051</ele>
        <time>2022-07-28T11:04:16Z</time>
      </trkpt>
      <trkpt lat="45.67467" lon="6.49173">
        <ele>2051</ele>
        <time>2022-07-28T11:04:17Z</time>
      </trkpt>
      <trkpt lat="45.67468" lon="6.49172">
        <ele>2051</ele>
        <time>2022-07-28T11:04:18Z</time>
      </trkpt>
      <trkpt lat="45.67469" lon="6.49172">
        <ele>2051</ele>
        <time>2022-07-28T11:04:19Z</time>
      </trkpt>
      <trkpt lat="45.6747" lon="6.49172">
        <ele>2051</ele>
        <time>2022-07-28T11:04:20Z</time>
      </trkpt>
      <trkpt lat="45.67471" lon="6.49172">
        <ele>2052</ele>
        <time>2022-07-28T11:04:21Z</time>
      </trkpt>
      <trkpt lat="45.67471" lon="6.49171">
        <ele>2052</ele>
        <time>2022-07-28T11:04:22Z</time>
      </trkpt>
      <trkpt lat="45.67472" lon="6.49171">
        <ele>2052</ele>
        <time>2022-07-28T11:04:23Z</time>
      </trkpt>
      <trkpt lat="45.67473" lon="6.49171">
        <ele>2052</ele>
        <time>2022-07-28T11:04:24Z</time>
      </trkpt>
      <trkpt lat="45.67473" lon="6.49171">
        <ele>2052</ele>
        <time>2022-07-28T11:04:25Z</time>
      </trkpt>
      <trkpt lat="45.67474" lon="6.49171">
        <ele>2052</ele>
        <time>2022-07-28T11:04:26Z</time>
      </trkpt>
      <trkpt lat="45.67475" lon="6.4917">
        <ele>2052</ele>
        <time>2022-07-28T11:04:27Z</time>
      </trkpt>
      <trkpt lat="45.67476" lon="6.4917">
        <ele>2052</ele>
        <time>2022-07-28T11:04:28Z</time>
      </trkpt>
      <trkpt lat="45.67476" lon="6.49169">
        <ele>2052</ele>
        <time>2022-07-28T11:04:29Z</time>
      </trkpt>
      <trkpt lat="45.67477" lon="6.49168">
        <ele>2052</ele>
        <time>2022-07-28T11:04:30Z</time>
      </trkpt>
      <trkpt lat="45.67477" lon="6.49167">
        <ele>2053</ele>
        <time>2022-07-28T11:04:31Z</time>
      </trkpt>
      <trkpt lat="45.67478" lon="6.49166">
        <ele>2052</ele>
        <time>2022-07-28T11:04:32Z</time>
      </trkpt>
      <trkpt lat="45.67478" lon="6.49165">
        <ele>2052</ele>
        <time>2022-07-28T11:04:33Z</time>
      </trkpt>
      <trkpt lat="45.67478" lon="6.49164">
        <ele>2052</ele>
        <time>2022-07-28T11:04:34Z</time>
      </trkpt>
      <trkpt lat="45.67479" lon="6.49163">
        <ele>2052</ele>
        <time>2022-07-28T11:04:35Z</time>
      </trkpt>
      <trkpt lat="45.67479" lon="6.49162">
        <ele>2052</ele>
        <time>2022-07-28T11:04:36Z</time>
      </trkpt>
      <trkpt lat="45.67479" lon="6.49161">
        <ele>2052</ele>
        <time>2022-07-28T11:04:37Z</time>
      </trkpt>
      <trkpt lat="45.67479" lon="6.49159">
        <ele>2052</ele>
        <time>2022-07-28T11:04:38Z</time>
      </trkpt>
      <trkpt lat="45.6748" lon="6.49158">
        <ele>2052</ele>
        <time>2022-07-28T11:04:39Z</time>
      </trkpt>
      <trkpt lat="45.6748" lon="6.49157">
        <ele>2052</ele>
        <time>2022-07-28T11:04:40Z</time>
      </trkpt>
      <trkpt lat="45.6748" lon="6.49156">
        <ele>2052</ele>
        <time>2022-07-28T11:04:41Z</time>
      </trkpt>
      <trkpt lat="45.6748" lon="6.49155">
        <ele>2051</ele>
        <time>2022-07-28T11:04:42Z</time>
      </trkpt>
      <trkpt lat="45.67481" lon="6.49153">
        <ele>2051</ele>
        <time>2022-07-28T11:04:43Z</time>
      </trkpt>
      <trkpt lat="45.67481" lon="6.49152">
        <ele>2051</ele>
        <time>2022-07-28T11:04:44Z</time>
      </trkpt>
      <trkpt lat="45.67482" lon="6.49151">
        <ele>2051</ele>
        <time>2022-07-28T11:04:45Z</time>
      </trkpt>
      <trkpt lat="45.67482" lon="6.4915">
        <ele>2051</ele>
        <time>2022-07-28T11:04:46Z</time>
      </trkpt>
      <trkpt lat="45.67483" lon="6.49149">
        <ele>2050</ele>
        <time>2022-07-28T11:04:47Z</time>
      </trkpt>
      <trkpt lat="45.67483" lon="6.49147">
        <ele>2050</ele>
        <time>2022-07-28T11:04:48Z</time>
      </trkpt>
      <trkpt lat="45.67484" lon="6.49146">
        <ele>2050</ele>
        <time>2022-07-28T11:04:49Z</time>
      </trkpt>
      <trkpt lat="45.67484" lon="6.49145">
        <ele>2050</ele>
        <time>2022-07-28T11:04:50Z</time>
      </trkpt>
      <trkpt lat="45.67485" lon="6.49143">
        <ele>2050</ele>
        <time>2022-07-28T11:04:51Z</time>
      </trkpt>
      <trkpt lat="45.67486" lon="6.49142">
        <ele>2050</ele>
        <time>2022-07-28T11:04:52Z</time>
      </trkpt>
      <trkpt lat="45.67486" lon="6.49141">
        <ele>2050</ele>
        <time>2022-07-28T11:04:53Z</time>
      </trkpt>
      <trkpt lat="45.67487" lon="6.49139">
        <ele>2050</ele>
        <time>2022-07-28T11:04:54Z</time>
      </trkpt>
      <trkpt lat="45.67487" lon="6.49138">
        <ele>2050</ele>
        <time>2022-07-28T11:04:55Z</time>
      </trkpt>
      <trkpt lat="45.67488" lon="6.49136">
        <ele>2050</ele>
        <time>2022-07-28T11:04:56Z</time>
      </trkpt>
      <trkpt lat="45.67489" lon="6.49135">
        <ele>2050</ele>
        <time>2022-07-28T11:04:57Z</time>
      </trkpt>
      <trkpt lat="45.67489" lon="6.49134">
        <ele>2050</ele>
        <time>2022-07-28T11:04:58Z</time>
      </trkpt>
      <trkpt lat="45.67489" lon="6.49132">
        <ele>2050</ele>
        <time>2022-07-28T11:04:59Z</time>
      </trkpt>
      <trkpt lat="45.6749" lon="6.49131">
        <ele>2050</ele>
        <time>2022-07-28T11:05:00Z</time>
      </trkpt>
      <trkpt lat="45.6749" lon="6.49129">
        <ele>2050</ele>
        <time>2022-07-28T11:05:01Z</time>
      </trkpt>
      <trkpt lat="45.67491" lon="6.49126">
        <ele>2048</ele>
        <time>2022-07-28T11:05:10Z</time>
      </trkpt>
      <trkpt lat="45.67491" lon="6.49126">
        <ele>2048</ele>
        <time>2022-07-28T11:05:11Z</time>
      </trkpt>
      <trkpt lat="45.67491" lon="6.49125">
        <ele>2047</ele>
        <time>2022-07-28T11:05:12Z</time>
      </trkpt>
      <trkpt lat="45.67492" lon="6.49124">
        <ele>2047</ele>
        <time>2022-07-28T11:05:13Z</time>
      </trkpt>
      <trkpt lat="45.67492" lon="6.49123">
        <ele>2047</ele>
        <time>2022-07-28T11:05:14Z</time>
      </trkpt>
      <trkpt lat="45.67494" lon="6.4912">
        <ele>2045</ele>
        <time>2022-07-28T11:05:26Z</time>
      </trkpt>
      <trkpt lat="45.67494" lon="6.4912">
        <ele>2045</ele>
        <time>2022-07-28T11:05:27Z</time>
      </trkpt>
      <trkpt lat="45.67495" lon="6.49119">
        <ele>2045</ele>
        <time>2022-07-28T11:05:28Z</time>
      </trkpt>
      <trkpt lat="45.67495" lon="6.49118">
        <ele>2045</ele>
        <time>2022-07-28T11:05:29Z</time>
      </trkpt>
      <trkpt lat="45.67496" lon="6.49117">
        <ele>2045</ele>
        <time>2022-07-28T11:05:30Z</time>
      </trkpt>
      <trkpt lat="45.67497" lon="6.49116">
        <ele>2045</ele>
        <time>2022-07-28T11:05:31Z</time>
      </trkpt>
      <trkpt lat="45.67498" lon="6.49115">
        <ele>2045</ele>
        <time>2022-07-28T11:05:32Z</time>
      </trkpt>
      <trkpt lat="45.67499" lon="6.49114">
        <ele>2045</ele>
        <time>2022-07-28T11:05:33Z</time>
      </trkpt>
      <trkpt lat="45.675" lon="6.49113">
        <ele>2045</ele>
        <time>2022-07-28T11:05:34Z</time>
      </trkpt>
      <trkpt lat="45.67501" lon="6.49112">
        <ele>2045</ele>
        <time>2022-07-28T11:05:35Z</time>
      </trkpt>
      <trkpt lat="45.67502" lon="6.49111">
        <ele>2045</ele>
        <time>2022-07-28T11:05:36Z</time>
      </trkpt>
      <trkpt lat="45.67502" lon="6.4911">
        <ele>2044</ele>
        <time>2022-07-28T11:05:37Z</time>
      </trkpt>
      <trkpt lat="45.67503" lon="6.4911">
        <ele>2044</ele>
        <time>2022-07-28T11:05:38Z</time>
      </trkpt>
      <trkpt lat="45.67504" lon="6.49109">
        <ele>2044</ele>
        <time>2022-07-28T11:05:39Z</time>
      </trkpt>
      <trkpt lat="45.67504" lon="6.49108">
        <ele>2044</ele>
        <time>2022-07-28T11:05:40Z</time>
      </trkpt>
      <trkpt lat="45.67505" lon="6.49107">
        <ele>2044</ele>
        <time>2022-07-28T11:05:41Z</time>
      </trkpt>
      <trkpt lat="45.67505" lon="6.49106">
        <ele>2044</ele>
        <time>2022-07-28T11:05:42Z</time>
      </trkpt>
      <trkpt lat="45.67506" lon="6.49105">
        <ele>2044</ele>
        <time>2022-07-28T11:05:43Z</time>
      </trkpt>
      <trkpt lat="45.67506" lon="6.49104">
        <ele>2044</ele>
        <time>2022-07-28T11:05:44Z</time>
      </trkpt>
      <trkpt lat="45.67506" lon="6.49103">
        <ele>2044</ele>
        <time>2022-07-28T11:05:45Z</time>
      </trkpt>
      <trkpt lat="45.67506" lon="6.49102">
        <ele>2044</ele>
        <time>2022-07-28T11:05:46Z</time>
      </trkpt>
      <trkpt lat="45.67506" lon="6.49101">
        <ele>2043</ele>
        <time>2022-07-28T11:05:47Z</time>
      </trkpt>
      <trkpt lat="45.67506" lon="6.491">
        <ele>2043</ele>
        <time>2022-07-28T11:05:48Z</time>
      </trkpt>
      <trkpt lat="45.67506" lon="6.49098">
        <ele>2043</ele>
        <time>2022-07-28T11:05:49Z</time>
      </trkpt>
      <trkpt lat="45.67506" lon="6.49097">
        <ele>2043</ele>
        <time>2022-07-28T11:05:50Z</time>
      </trkpt>
      <trkpt lat="45.67506" lon="6.49096">
        <ele>2043</ele>
        <time>2022-07-28T11:05:51Z</time>
      </trkpt>
      <trkpt lat="45.67506" lon="6.49095">
        <ele>2042</ele>
        <time>2022-07-28T11:05:52Z</time>
      </trkpt>
      <trkpt lat="45.67506" lon="6.49094">
        <ele>2042</ele>
        <time>2022-07-28T11:05:53Z</time>
      </trkpt>
      <trkpt lat="45.67507" lon="6.49093">
        <ele>2042</ele>
        <time>2022-07-28T11:05:54Z</time>
      </trkpt>
      <trkpt lat="45.67507" lon="6.49091">
        <ele>2042</ele>
        <time>2022-07-28T11:05:55Z</time>
      </trkpt>
      <trkpt lat="45.67508" lon="6.4909">
        <ele>2042</ele>
        <time>2022-07-28T11:05:56Z</time>
      </trkpt>
      <trkpt lat="45.67508" lon="6.49088">
        <ele>2041</ele>
        <time>2022-07-28T11:05:57Z</time>
      </trkpt>
      <trkpt lat="45.67509" lon="6.49087">
        <ele>2041</ele>
        <time>2022-07-28T11:05:58Z</time>
      </trkpt>
      <trkpt lat="45.6751" lon="6.49085">
        <ele>2041</ele>
        <time>2022-07-28T11:05:59Z</time>
      </trkpt>
      <trkpt lat="45.67511" lon="6.49084">
        <ele>2041</ele>
        <time>2022-07-28T11:06:00Z</time>
      </trkpt>
      <trkpt lat="45.67512" lon="6.49083">
        <ele>2041</ele>
        <time>2022-07-28T11:06:01Z</time>
      </trkpt>
      <trkpt lat="45.67513" lon="6.49082">
        <ele>2040</ele>
        <time>2022-07-28T11:06:02Z</time>
      </trkpt>
      <trkpt lat="45.67514" lon="6.49081">
        <ele>2040</ele>
        <time>2022-07-28T11:06:03Z</time>
      </trkpt>
      <trkpt lat="45.67515" lon="6.4908">
        <ele>2040</ele>
        <time>2022-07-28T11:06:04Z</time>
      </trkpt>
      <trkpt lat="45.67515" lon="6.49079">
        <ele>2040</ele>
        <time>2022-07-28T11:06:05Z</time>
      </trkpt>
      <trkpt lat="45.67516" lon="6.49078">
        <ele>2040</ele>
        <time>2022-07-28T11:06:06Z</time>
      </trkpt>
      <trkpt lat="45.67517" lon="6.49077">
        <ele>2039</ele>
        <time>2022-07-28T11:06:07Z</time>
      </trkpt>
      <trkpt lat="45.67518" lon="6.49076">
        <ele>2039</ele>
        <time>2022-07-28T11:06:08Z</time>
      </trkpt>
      <trkpt lat="45.67518" lon="6.49075">
        <ele>2039</ele>
        <time>2022-07-28T11:06:09Z</time>
      </trkpt>
      <trkpt lat="45.67519" lon="6.49073">
        <ele>2039</ele>
        <time>2022-07-28T11:06:10Z</time>
      </trkpt>
      <trkpt lat="45.6752" lon="6.49072">
        <ele>2039</ele>
        <time>2022-07-28T11:06:11Z</time>
      </trkpt>
      <trkpt lat="45.67521" lon="6.49071">
        <ele>2038</ele>
        <time>2022-07-28T11:06:12Z</time>
      </trkpt>
      <trkpt lat="45.67522" lon="6.4907">
        <ele>2038</ele>
        <time>2022-07-28T11:06:13Z</time>
      </trkpt>
      <trkpt lat="45.67523" lon="6.49068">
        <ele>2038</ele>
        <time>2022-07-28T11:06:14Z</time>
      </trkpt>
      <trkpt lat="45.67524" lon="6.49067">
        <ele>2038</ele>
        <time>2022-07-28T11:06:15Z</time>
      </trkpt>
      <trkpt lat="45.67525" lon="6.49066">
        <ele>2038</ele>
        <time>2022-07-28T11:06:16Z</time>
      </trkpt>
      <trkpt lat="45.67526" lon="6.49064">
        <ele>2038</ele>
        <time>2022-07-28T11:06:17Z</time>
      </trkpt>
      <trkpt lat="45.67527" lon="6.49063">
        <ele>2038</ele>
        <time>2022-07-28T11:06:18Z</time>
      </trkpt>
      <trkpt lat="45.67528" lon="6.49062">
        <ele>2038</ele>
        <time>2022-07-28T11:06:19Z</time>
      </trkpt>
      <trkpt lat="45.67528" lon="6.49061">
        <ele>2038</ele>
        <time>2022-07-28T11:06:20Z</time>
      </trkpt>
      <trkpt lat="45.67529" lon="6.49059">
        <ele>2038</ele>
        <time>2022-07-28T11:06:21Z</time>
      </trkpt>
      <trkpt lat="45.67529" lon="6.49058">
        <ele>2038</ele>
        <time>2022-07-28T11:06:22Z</time>
      </trkpt>
      <trkpt lat="45.6753" lon="6.49056">
        <ele>2038</ele>
        <time>2022-07-28T11:06:23Z</time>
      </trkpt>
      <trkpt lat="45.6753" lon="6.49054">
        <ele>2038</ele>
        <time>2022-07-28T11:06:24Z</time>
      </trkpt>
      <trkpt lat="45.6753" lon="6.49053">
        <ele>2038</ele>
        <time>2022-07-28T11:06:25Z</time>
      </trkpt>
      <trkpt lat="45.67531" lon="6.49051">
        <ele>2038</ele>
        <time>2022-07-28T11:06:26Z</time>
      </trkpt>
      <trkpt lat="45.67531" lon="6.49049">
        <ele>2038</ele>
        <time>2022-07-28T11:06:27Z</time>
      </trkpt>
      <trkpt lat="45.67532" lon="6.49048">
        <ele>2038</ele>
        <time>2022-07-28T11:06:28Z</time>
      </trkpt>
      <trkpt lat="45.67532" lon="6.49046">
        <ele>2038</ele>
        <time>2022-07-28T11:06:29Z</time>
      </trkpt>
      <trkpt lat="45.67533" lon="6.49045">
        <ele>2038</ele>
        <time>2022-07-28T11:06:30Z</time>
      </trkpt>
      <trkpt lat="45.67534" lon="6.49044">
        <ele>2038</ele>
        <time>2022-07-28T11:06:31Z</time>
      </trkpt>
      <trkpt lat="45.67535" lon="6.49042">
        <ele>2038</ele>
        <time>2022-07-28T11:06:32Z</time>
      </trkpt>
      <trkpt lat="45.67536" lon="6.49041">
        <ele>2038</ele>
        <time>2022-07-28T11:06:33Z</time>
      </trkpt>
      <trkpt lat="45.67537" lon="6.4904">
        <ele>2038</ele>
        <time>2022-07-28T11:06:34Z</time>
      </trkpt>
      <trkpt lat="45.67538" lon="6.49039">
        <ele>2038</ele>
        <time>2022-07-28T11:06:35Z</time>
      </trkpt>
      <trkpt lat="45.67539" lon="6.49038">
        <ele>2038</ele>
        <time>2022-07-28T11:06:36Z</time>
      </trkpt>
      <trkpt lat="45.6754" lon="6.49036">
        <ele>2037</ele>
        <time>2022-07-28T11:06:37Z</time>
      </trkpt>
      <trkpt lat="45.67541" lon="6.49035">
        <ele>2037</ele>
        <time>2022-07-28T11:06:38Z</time>
      </trkpt>
      <trkpt lat="45.67541" lon="6.49034">
        <ele>2037</ele>
        <time>2022-07-28T11:06:39Z</time>
      </trkpt>
      <trkpt lat="45.67542" lon="6.49032">
        <ele>2037</ele>
        <time>2022-07-28T11:06:40Z</time>
      </trkpt>
      <trkpt lat="45.67542" lon="6.49031">
        <ele>2037</ele>
        <time>2022-07-28T11:06:41Z</time>
      </trkpt>
      <trkpt lat="45.67542" lon="6.4903">
        <ele>2037</ele>
        <time>2022-07-28T11:06:42Z</time>
      </trkpt>
      <trkpt lat="45.67543" lon="6.49028">
        <ele>2037</ele>
        <time>2022-07-28T11:06:43Z</time>
      </trkpt>
      <trkpt lat="45.67543" lon="6.49027">
        <ele>2037</ele>
        <time>2022-07-28T11:06:44Z</time>
      </trkpt>
      <trkpt lat="45.67544" lon="6.49025">
        <ele>2037</ele>
        <time>2022-07-28T11:07:42Z</time>
      </trkpt>
      <trkpt lat="45.67544" lon="6.49025">
        <ele>2037</ele>
        <time>2022-07-28T11:07:43Z</time>
      </trkpt>
      <trkpt lat="45.67544" lon="6.49024">
        <ele>2037</ele>
        <time>2022-07-28T11:07:44Z</time>
      </trkpt>
      <trkpt lat="45.67544" lon="6.49023">
        <ele>2037</ele>
        <time>2022-07-28T11:07:45Z</time>
      </trkpt>
      <trkpt lat="45.67545" lon="6.49022">
        <ele>2037</ele>
        <time>2022-07-28T11:07:46Z</time>
      </trkpt>
      <trkpt lat="45.67545" lon="6.49021">
        <ele>2036</ele>
        <time>2022-07-28T11:07:47Z</time>
      </trkpt>
      <trkpt lat="45.67546" lon="6.49021">
        <ele>2036</ele>
        <time>2022-07-28T11:07:48Z</time>
      </trkpt>
      <trkpt lat="45.67547" lon="6.49019">
        <ele>2036</ele>
        <time>2022-07-28T11:07:49Z</time>
      </trkpt>
      <trkpt lat="45.67547" lon="6.49018">
        <ele>2036</ele>
        <time>2022-07-28T11:07:50Z</time>
      </trkpt>
      <trkpt lat="45.67548" lon="6.49016">
        <ele>2036</ele>
        <time>2022-07-28T11:07:51Z</time>
      </trkpt>
      <trkpt lat="45.67548" lon="6.49014">
        <ele>2036</ele>
        <time>2022-07-28T11:07:52Z</time>
      </trkpt>
      <trkpt lat="45.67549" lon="6.49013">
        <ele>2036</ele>
        <time>2022-07-28T11:07:53Z</time>
      </trkpt>
      <trkpt lat="45.67549" lon="6.49011">
        <ele>2036</ele>
        <time>2022-07-28T11:07:54Z</time>
      </trkpt>
      <trkpt lat="45.6755" lon="6.49009">
        <ele>2036</ele>
        <time>2022-07-28T11:07:55Z</time>
      </trkpt>
      <trkpt lat="45.6755" lon="6.49007">
        <ele>2036</ele>
        <time>2022-07-28T11:07:56Z</time>
      </trkpt>
      <trkpt lat="45.67551" lon="6.49006">
        <ele>2035</ele>
        <time>2022-07-28T11:07:57Z</time>
      </trkpt>
      <trkpt lat="45.67551" lon="6.49005">
        <ele>2035</ele>
        <time>2022-07-28T11:07:58Z</time>
      </trkpt>
      <trkpt lat="45.67551" lon="6.49003">
        <ele>2034</ele>
        <time>2022-07-28T11:07:59Z</time>
      </trkpt>
      <trkpt lat="45.67552" lon="6.49002">
        <ele>2034</ele>
        <time>2022-07-28T11:08:00Z</time>
      </trkpt>
      <trkpt lat="45.67552" lon="6.49">
        <ele>2034</ele>
        <time>2022-07-28T11:08:01Z</time>
      </trkpt>
      <trkpt lat="45.67553" lon="6.48999">
        <ele>2034</ele>
        <time>2022-07-28T11:08:02Z</time>
      </trkpt>
      <trkpt lat="45.67553" lon="6.48997">
        <ele>2034</ele>
        <time>2022-07-28T11:08:03Z</time>
      </trkpt>
      <trkpt lat="45.67554" lon="6.48996">
        <ele>2034</ele>
        <time>2022-07-28T11:08:04Z</time>
      </trkpt>
      <trkpt lat="45.67555" lon="6.48994">
        <ele>2034</ele>
        <time>2022-07-28T11:08:05Z</time>
      </trkpt>
      <trkpt lat="45.67555" lon="6.48992">
        <ele>2034</ele>
        <time>2022-07-28T11:08:06Z</time>
      </trkpt>
      <trkpt lat="45.67556" lon="6.48991">
        <ele>2034</ele>
        <time>2022-07-28T11:08:07Z</time>
      </trkpt>
      <trkpt lat="45.67557" lon="6.48989">
        <ele>2034</ele>
        <time>2022-07-28T11:08:08Z</time>
      </trkpt>
      <trkpt lat="45.67558" lon="6.48988">
        <ele>2034</ele>
        <time>2022-07-28T11:08:09Z</time>
      </trkpt>
      <trkpt lat="45.67559" lon="6.48986">
        <ele>2034</ele>
        <time>2022-07-28T11:08:10Z</time>
      </trkpt>
      <trkpt lat="45.67559" lon="6.48985">
        <ele>2034</ele>
        <time>2022-07-28T11:08:11Z</time>
      </trkpt>
      <trkpt lat="45.6756" lon="6.48984">
        <ele>2033</ele>
        <time>2022-07-28T11:08:12Z</time>
      </trkpt>
      <trkpt lat="45.67561" lon="6.48982">
        <ele>2033</ele>
        <time>2022-07-28T11:08:13Z</time>
      </trkpt>
      <trkpt lat="45.67561" lon="6.48981">
        <ele>2032</ele>
        <time>2022-07-28T11:08:14Z</time>
      </trkpt>
      <trkpt lat="45.67562" lon="6.4898">
        <ele>2032</ele>
        <time>2022-07-28T11:08:15Z</time>
      </trkpt>
      <trkpt lat="45.67563" lon="6.48979">
        <ele>2032</ele>
        <time>2022-07-28T11:08:16Z</time>
      </trkpt>
      <trkpt lat="45.67563" lon="6.48978">
        <ele>2031</ele>
        <time>2022-07-28T11:08:17Z</time>
      </trkpt>
      <trkpt lat="45.67564" lon="6.48977">
        <ele>2031</ele>
        <time>2022-07-28T11:08:18Z</time>
      </trkpt>
      <trkpt lat="45.67565" lon="6.48976">
        <ele>2030</ele>
        <time>2022-07-28T11:08:19Z</time>
      </trkpt>
      <trkpt lat="45.67566" lon="6.48974">
        <ele>2030</ele>
        <time>2022-07-28T11:08:20Z</time>
      </trkpt>
      <trkpt lat="45.67566" lon="6.48973">
        <ele>2030</ele>
        <time>2022-07-28T11:08:21Z</time>
      </trkpt>
      <trkpt lat="45.67567" lon="6.48972">
        <ele>2029</ele>
        <time>2022-07-28T11:08:22Z</time>
      </trkpt>
      <trkpt lat="45.67568" lon="6.4897">
        <ele>2029</ele>
        <time>2022-07-28T11:08:23Z</time>
      </trkpt>
      <trkpt lat="45.67568" lon="6.48969">
        <ele>2029</ele>
        <time>2022-07-28T11:08:24Z</time>
      </trkpt>
      <trkpt lat="45.67569" lon="6.48967">
        <ele>2029</ele>
        <time>2022-07-28T11:08:25Z</time>
      </trkpt>
      <trkpt lat="45.6757" lon="6.48966">
        <ele>2029</ele>
        <time>2022-07-28T11:08:26Z</time>
      </trkpt>
      <trkpt lat="45.6757" lon="6.48964">
        <ele>2029</ele>
        <time>2022-07-28T11:08:27Z</time>
      </trkpt>
      <trkpt lat="45.67571" lon="6.48962">
        <ele>2029</ele>
        <time>2022-07-28T11:08:28Z</time>
      </trkpt>
      <trkpt lat="45.67571" lon="6.4896">
        <ele>2029</ele>
        <time>2022-07-28T11:08:29Z</time>
      </trkpt>
      <trkpt lat="45.67571" lon="6.48959">
        <ele>2029</ele>
        <time>2022-07-28T11:08:30Z</time>
      </trkpt>
      <trkpt lat="45.67572" lon="6.48957">
        <ele>2029</ele>
        <time>2022-07-28T11:08:31Z</time>
      </trkpt>
      <trkpt lat="45.67572" lon="6.48955">
        <ele>2029</ele>
        <time>2022-07-28T11:08:32Z</time>
      </trkpt>
      <trkpt lat="45.67572" lon="6.48954">
        <ele>2029</ele>
        <time>2022-07-28T11:08:33Z</time>
      </trkpt>
      <trkpt lat="45.67573" lon="6.48952">
        <ele>2029</ele>
        <time>2022-07-28T11:08:34Z</time>
      </trkpt>
      <trkpt lat="45.67574" lon="6.4895">
        <ele>2029</ele>
        <time>2022-07-28T11:08:35Z</time>
      </trkpt>
      <trkpt lat="45.67575" lon="6.48949">
        <ele>2029</ele>
        <time>2022-07-28T11:08:36Z</time>
      </trkpt>
      <trkpt lat="45.67576" lon="6.48947">
        <ele>2028</ele>
        <time>2022-07-28T11:08:37Z</time>
      </trkpt>
      <trkpt lat="45.67577" lon="6.48946">
        <ele>2028</ele>
        <time>2022-07-28T11:08:38Z</time>
      </trkpt>
      <trkpt lat="45.67578" lon="6.48945">
        <ele>2027</ele>
        <time>2022-07-28T11:08:39Z</time>
      </trkpt>
      <trkpt lat="45.67579" lon="6.48944">
        <ele>2027</ele>
        <time>2022-07-28T11:08:40Z</time>
      </trkpt>
      <trkpt lat="45.6758" lon="6.48943">
        <ele>2027</ele>
        <time>2022-07-28T11:08:41Z</time>
      </trkpt>
      <trkpt lat="45.67581" lon="6.48942">
        <ele>2026</ele>
        <time>2022-07-28T11:08:42Z</time>
      </trkpt>
      <trkpt lat="45.67581" lon="6.4894">
        <ele>2026</ele>
        <time>2022-07-28T11:08:43Z</time>
      </trkpt>
      <trkpt lat="45.67582" lon="6.48939">
        <ele>2026</ele>
        <time>2022-07-28T11:08:44Z</time>
      </trkpt>
      <trkpt lat="45.67583" lon="6.48938">
        <ele>2026</ele>
        <time>2022-07-28T11:08:45Z</time>
      </trkpt>
      <trkpt lat="45.67584" lon="6.48937">
        <ele>2026</ele>
        <time>2022-07-28T11:08:46Z</time>
      </trkpt>
      <trkpt lat="45.67585" lon="6.48936">
        <ele>2026</ele>
        <time>2022-07-28T11:08:47Z</time>
      </trkpt>
      <trkpt lat="45.67586" lon="6.48935">
        <ele>2026</ele>
        <time>2022-07-28T11:08:48Z</time>
      </trkpt>
      <trkpt lat="45.67587" lon="6.48934">
        <ele>2026</ele>
        <time>2022-07-28T11:08:49Z</time>
      </trkpt>
      <trkpt lat="45.67589" lon="6.48933">
        <ele>2026</ele>
        <time>2022-07-28T11:08:50Z</time>
      </trkpt>
      <trkpt lat="45.67589" lon="6.48932">
        <ele>2026</ele>
        <time>2022-07-28T11:08:51Z</time>
      </trkpt>
      <trkpt lat="45.6759" lon="6.48931">
        <ele>2026</ele>
        <time>2022-07-28T11:08:52Z</time>
      </trkpt>
      <trkpt lat="45.6759" lon="6.4893">
        <ele>2026</ele>
        <time>2022-07-28T11:08:53Z</time>
      </trkpt>
      <trkpt lat="45.67591" lon="6.48928">
        <ele>2026</ele>
        <time>2022-07-28T11:08:54Z</time>
      </trkpt>
      <trkpt lat="45.67591" lon="6.48926">
        <ele>2026</ele>
        <time>2022-07-28T11:08:55Z</time>
      </trkpt>
      <trkpt lat="45.67591" lon="6.48924">
        <ele>2026</ele>
        <time>2022-07-28T11:08:56Z</time>
      </trkpt>
      <trkpt lat="45.67591" lon="6.48922">
        <ele>2025</ele>
        <time>2022-07-28T11:08:57Z</time>
      </trkpt>
      <trkpt lat="45.67591" lon="6.48919">
        <ele>2025</ele>
        <time>2022-07-28T11:08:58Z</time>
      </trkpt>
      <trkpt lat="45.67592" lon="6.48917">
        <ele>2024</ele>
        <time>2022-07-28T11:08:59Z</time>
      </trkpt>
      <trkpt lat="45.67592" lon="6.48915">
        <ele>2024</ele>
        <time>2022-07-28T11:09:00Z</time>
      </trkpt>
      <trkpt lat="45.67592" lon="6.48913">
        <ele>2024</ele>
        <time>2022-07-28T11:09:01Z</time>
      </trkpt>
      <trkpt lat="45.67592" lon="6.48911">
        <ele>2023</ele>
        <time>2022-07-28T11:09:02Z</time>
      </trkpt>
      <trkpt lat="45.67592" lon="6.48909">
        <ele>2023</ele>
        <time>2022-07-28T11:09:03Z</time>
      </trkpt>
      <trkpt lat="45.67593" lon="6.48907">
        <ele>2023</ele>
        <time>2022-07-28T11:09:04Z</time>
      </trkpt>
      <trkpt lat="45.67593" lon="6.48905">
        <ele>2023</ele>
        <time>2022-07-28T11:09:05Z</time>
      </trkpt>
      <trkpt lat="45.67593" lon="6.48903">
        <ele>2023</ele>
        <time>2022-07-28T11:09:06Z</time>
      </trkpt>
      <trkpt lat="45.67593" lon="6.48901">
        <ele>2023</ele>
        <time>2022-07-28T11:09:07Z</time>
      </trkpt>
      <trkpt lat="45.67594" lon="6.48899">
        <ele>2023</ele>
        <time>2022-07-28T11:09:08Z</time>
      </trkpt>
      <trkpt lat="45.67594" lon="6.48898">
        <ele>2023</ele>
        <time>2022-07-28T11:09:09Z</time>
      </trkpt>
      <trkpt lat="45.67594" lon="6.48896">
        <ele>2023</ele>
        <time>2022-07-28T11:09:10Z</time>
      </trkpt>
      <trkpt lat="45.67595" lon="6.48895">
        <ele>2023</ele>
        <time>2022-07-28T11:09:11Z</time>
      </trkpt>
      <trkpt lat="45.67595" lon="6.48893">
        <ele>2023</ele>
        <time>2022-07-28T11:09:12Z</time>
      </trkpt>
      <trkpt lat="45.67596" lon="6.48892">
        <ele>2023</ele>
        <time>2022-07-28T11:09:13Z</time>
      </trkpt>
      <trkpt lat="45.67597" lon="6.48891">
        <ele>2023</ele>
        <time>2022-07-28T11:09:14Z</time>
      </trkpt>
      <trkpt lat="45.67597" lon="6.4889">
        <ele>2023</ele>
        <time>2022-07-28T11:09:15Z</time>
      </trkpt>
      <trkpt lat="45.67598" lon="6.48889">
        <ele>2023</ele>
        <time>2022-07-28T11:09:16Z</time>
      </trkpt>
      <trkpt lat="45.67599" lon="6.48887">
        <ele>2023</ele>
        <time>2022-07-28T11:09:17Z</time>
      </trkpt>
      <trkpt lat="45.67599" lon="6.48886">
        <ele>2023</ele>
        <time>2022-07-28T11:09:18Z</time>
      </trkpt>
      <trkpt lat="45.676" lon="6.48884">
        <ele>2023</ele>
        <time>2022-07-28T11:09:19Z</time>
      </trkpt>
      <trkpt lat="45.67601" lon="6.48883">
        <ele>2023</ele>
        <time>2022-07-28T11:09:20Z</time>
      </trkpt>
      <trkpt lat="45.67601" lon="6.48881">
        <ele>2023</ele>
        <time>2022-07-28T11:09:21Z</time>
      </trkpt>
      <trkpt lat="45.67602" lon="6.4888">
        <ele>2023</ele>
        <time>2022-07-28T11:09:22Z</time>
      </trkpt>
      <trkpt lat="45.67602" lon="6.48878">
        <ele>2023</ele>
        <time>2022-07-28T11:09:23Z</time>
      </trkpt>
      <trkpt lat="45.67602" lon="6.48876">
        <ele>2023</ele>
        <time>2022-07-28T11:09:24Z</time>
      </trkpt>
      <trkpt lat="45.67603" lon="6.48874">
        <ele>2023</ele>
        <time>2022-07-28T11:09:25Z</time>
      </trkpt>
      <trkpt lat="45.67603" lon="6.48873">
        <ele>2023</ele>
        <time>2022-07-28T11:09:26Z</time>
      </trkpt>
      <trkpt lat="45.67603" lon="6.48871">
        <ele>2023</ele>
        <time>2022-07-28T11:09:27Z</time>
      </trkpt>
      <trkpt lat="45.67603" lon="6.4887">
        <ele>2023</ele>
        <time>2022-07-28T11:09:28Z</time>
      </trkpt>
      <trkpt lat="45.67604" lon="6.48868">
        <ele>2024</ele>
        <time>2022-07-28T11:09:29Z</time>
      </trkpt>
      <trkpt lat="45.67604" lon="6.48867">
        <ele>2024</ele>
        <time>2022-07-28T11:09:30Z</time>
      </trkpt>
      <trkpt lat="45.67604" lon="6.48866">
        <ele>2025</ele>
        <time>2022-07-28T11:09:31Z</time>
      </trkpt>
      <trkpt lat="45.67604" lon="6.48864">
        <ele>2025</ele>
        <time>2022-07-28T11:09:32Z</time>
      </trkpt>
      <trkpt lat="45.67604" lon="6.48863">
        <ele>2025</ele>
        <time>2022-07-28T11:09:33Z</time>
      </trkpt>
      <trkpt lat="45.67604" lon="6.48861">
        <ele>2025</ele>
        <time>2022-07-28T11:09:34Z</time>
      </trkpt>
      <trkpt lat="45.67604" lon="6.4886">
        <ele>2025</ele>
        <time>2022-07-28T11:09:35Z</time>
      </trkpt>
      <trkpt lat="45.67604" lon="6.48859">
        <ele>2025</ele>
        <time>2022-07-28T11:09:36Z</time>
      </trkpt>
      <trkpt lat="45.67604" lon="6.48858">
        <ele>2025</ele>
        <time>2022-07-28T11:09:37Z</time>
      </trkpt>
      <trkpt lat="45.67604" lon="6.48857">
        <ele>2025</ele>
        <time>2022-07-28T11:09:38Z</time>
      </trkpt>
      <trkpt lat="45.67604" lon="6.48856">
        <ele>2025</ele>
        <time>2022-07-28T11:09:39Z</time>
      </trkpt>
      <trkpt lat="45.67603" lon="6.48855">
        <ele>2025</ele>
        <time>2022-07-28T11:09:40Z</time>
      </trkpt>
      <trkpt lat="45.67603" lon="6.48854">
        <ele>2025</ele>
        <time>2022-07-28T11:09:41Z</time>
      </trkpt>
      <trkpt lat="45.67603" lon="6.48853">
        <ele>2025</ele>
        <time>2022-07-28T11:09:42Z</time>
      </trkpt>
      <trkpt lat="45.67603" lon="6.48852">
        <ele>2025</ele>
        <time>2022-07-28T11:09:43Z</time>
      </trkpt>
      <trkpt lat="45.67602" lon="6.48851">
        <ele>2025</ele>
        <time>2022-07-28T11:09:44Z</time>
      </trkpt>
      <trkpt lat="45.67602" lon="6.4885">
        <ele>2025</ele>
        <time>2022-07-28T11:09:45Z</time>
      </trkpt>
      <trkpt lat="45.67602" lon="6.4885">
        <ele>2025</ele>
        <time>2022-07-28T11:09:46Z</time>
      </trkpt>
      <trkpt lat="45.67602" lon="6.48849">
        <ele>2025</ele>
        <time>2022-07-28T11:09:47Z</time>
      </trkpt>
      <trkpt lat="45.67602" lon="6.48849">
        <ele>2025</ele>
        <time>2022-07-28T11:09:48Z</time>
      </trkpt>
      <trkpt lat="45.67601" lon="6.48848">
        <ele>2025</ele>
        <time>2022-07-28T11:09:49Z</time>
      </trkpt>
      <trkpt lat="45.67601" lon="6.48847">
        <ele>2025</ele>
        <time>2022-07-28T11:09:50Z</time>
      </trkpt>
      <trkpt lat="45.67601" lon="6.48846">
        <ele>2025</ele>
        <time>2022-07-28T11:09:51Z</time>
      </trkpt>
      <trkpt lat="45.67601" lon="6.48845">
        <ele>2024</ele>
        <time>2022-07-28T11:09:52Z</time>
      </trkpt>
      <trkpt lat="45.67601" lon="6.48843">
        <ele>2024</ele>
        <time>2022-07-28T11:09:53Z</time>
      </trkpt>
      <trkpt lat="45.67601" lon="6.48842">
        <ele>2024</ele>
        <time>2022-07-28T11:09:54Z</time>
      </trkpt>
      <trkpt lat="45.67601" lon="6.48841">
        <ele>2024</ele>
        <time>2022-07-28T11:09:55Z</time>
      </trkpt>
      <trkpt lat="45.67601" lon="6.4884">
        <ele>2024</ele>
        <time>2022-07-28T11:09:56Z</time>
      </trkpt>
      <trkpt lat="45.67601" lon="6.48838">
        <ele>2023</ele>
        <time>2022-07-28T11:09:57Z</time>
      </trkpt>
      <trkpt lat="45.67601" lon="6.48837">
        <ele>2023</ele>
        <time>2022-07-28T11:09:58Z</time>
      </trkpt>
      <trkpt lat="45.67602" lon="6.48836">
        <ele>2022</ele>
        <time>2022-07-28T11:09:59Z</time>
      </trkpt>
      <trkpt lat="45.67602" lon="6.48834">
        <ele>2022</ele>
        <time>2022-07-28T11:10:00Z</time>
      </trkpt>
      <trkpt lat="45.67602" lon="6.48833">
        <ele>2022</ele>
        <time>2022-07-28T11:10:01Z</time>
      </trkpt>
      <trkpt lat="45.67602" lon="6.48832">
        <ele>2021</ele>
        <time>2022-07-28T11:10:02Z</time>
      </trkpt>
      <trkpt lat="45.67603" lon="6.48831">
        <ele>2021</ele>
        <time>2022-07-28T11:10:03Z</time>
      </trkpt>
      <trkpt lat="45.67603" lon="6.4883">
        <ele>2021</ele>
        <time>2022-07-28T11:10:04Z</time>
      </trkpt>
      <trkpt lat="45.67602" lon="6.4883">
        <ele>2021</ele>
        <time>2022-07-28T11:10:05Z</time>
      </trkpt>
      <trkpt lat="45.67602" lon="6.48829">
        <ele>2021</ele>
        <time>2022-07-28T11:10:06Z</time>
      </trkpt>
      <trkpt lat="45.67602" lon="6.4883">
        <ele>2021</ele>
        <time>2022-07-28T11:10:07Z</time>
      </trkpt>
      <trkpt lat="45.67602" lon="6.4883">
        <ele>2021</ele>
        <time>2022-07-28T11:10:08Z</time>
      </trkpt>
      <trkpt lat="45.67602" lon="6.4883">
        <ele>2021</ele>
        <time>2022-07-28T11:10:09Z</time>
      </trkpt>
      <trkpt lat="45.67601" lon="6.4883">
        <ele>2021</ele>
        <time>2022-07-28T11:10:10Z</time>
      </trkpt>
      <trkpt lat="45.67601" lon="6.48831">
        <ele>2021</ele>
        <time>2022-07-28T11:10:11Z</time>
      </trkpt>
      <trkpt lat="45.676" lon="6.48832">
        <ele>2020</ele>
        <time>2022-07-28T11:10:12Z</time>
      </trkpt>
      <trkpt lat="45.676" lon="6.48832">
        <ele>2020</ele>
        <time>2022-07-28T11:10:13Z</time>
      </trkpt>
      <trkpt lat="45.67599" lon="6.48833">
        <ele>2020</ele>
        <time>2022-07-28T11:10:14Z</time>
      </trkpt>
      <trkpt lat="45.67598" lon="6.48834">
        <ele>2020</ele>
        <time>2022-07-28T11:10:15Z</time>
      </trkpt>
      <trkpt lat="45.67598" lon="6.48835">
        <ele>2020</ele>
        <time>2022-07-28T11:10:16Z</time>
      </trkpt>
      <trkpt lat="45.67597" lon="6.48835">
        <ele>2019</ele>
        <time>2022-07-28T11:10:17Z</time>
      </trkpt>
      <trkpt lat="45.67596" lon="6.48836">
        <ele>2019</ele>
        <time>2022-07-28T11:10:18Z</time>
      </trkpt>
      <trkpt lat="45.67595" lon="6.48836">
        <ele>2019</ele>
        <time>2022-07-28T11:10:19Z</time>
      </trkpt>
      <trkpt lat="45.67594" lon="6.48836">
        <ele>2019</ele>
        <time>2022-07-28T11:10:20Z</time>
      </trkpt>
      <trkpt lat="45.67593" lon="6.48836">
        <ele>2019</ele>
        <time>2022-07-28T11:10:21Z</time>
      </trkpt>
      <trkpt lat="45.67592" lon="6.48836">
        <ele>2018</ele>
        <time>2022-07-28T11:10:22Z</time>
      </trkpt>
      <trkpt lat="45.67591" lon="6.48836">
        <ele>2018</ele>
        <time>2022-07-28T11:10:23Z</time>
      </trkpt>
      <trkpt lat="45.6759" lon="6.48837">
        <ele>2018</ele>
        <time>2022-07-28T11:10:24Z</time>
      </trkpt>
      <trkpt lat="45.67589" lon="6.48837">
        <ele>2018</ele>
        <time>2022-07-28T11:10:25Z</time>
      </trkpt>
      <trkpt lat="45.67588" lon="6.48837">
        <ele>2018</ele>
        <time>2022-07-28T11:10:26Z</time>
      </trkpt>
      <trkpt lat="45.67587" lon="6.48837">
        <ele>2017</ele>
        <time>2022-07-28T11:10:27Z</time>
      </trkpt>
      <trkpt lat="45.67586" lon="6.48837">
        <ele>2017</ele>
        <time>2022-07-28T11:10:28Z</time>
      </trkpt>
      <trkpt lat="45.67585" lon="6.48837">
        <ele>2016</ele>
        <time>2022-07-28T11:10:29Z</time>
      </trkpt>
      <trkpt lat="45.67585" lon="6.48836">
        <ele>2016</ele>
        <time>2022-07-28T11:10:30Z</time>
      </trkpt>
      <trkpt lat="45.67585" lon="6.48834">
        <ele>2016</ele>
        <time>2022-07-28T11:10:31Z</time>
      </trkpt>
      <trkpt lat="45.67585" lon="6.48833">
        <ele>2016</ele>
        <time>2022-07-28T11:10:32Z</time>
      </trkpt>
      <trkpt lat="45.67585" lon="6.48831">
        <ele>2016</ele>
        <time>2022-07-28T11:10:33Z</time>
      </trkpt>
      <trkpt lat="45.67585" lon="6.4883">
        <ele>2016</ele>
        <time>2022-07-28T11:10:34Z</time>
      </trkpt>
      <trkpt lat="45.67586" lon="6.48829">
        <ele>2016</ele>
        <time>2022-07-28T11:10:35Z</time>
      </trkpt>
      <trkpt lat="45.67587" lon="6.48828">
        <ele>2016</ele>
        <time>2022-07-28T11:10:36Z</time>
      </trkpt>
      <trkpt lat="45.67587" lon="6.48827">
        <ele>2015</ele>
        <time>2022-07-28T11:10:37Z</time>
      </trkpt>
      <trkpt lat="45.67588" lon="6.48827">
        <ele>2015</ele>
        <time>2022-07-28T11:10:38Z</time>
      </trkpt>
      <trkpt lat="45.67589" lon="6.48826">
        <ele>2015</ele>
        <time>2022-07-28T11:10:39Z</time>
      </trkpt>
      <trkpt lat="45.67589" lon="6.48826">
        <ele>2015</ele>
        <time>2022-07-28T11:10:40Z</time>
      </trkpt>
      <trkpt lat="45.67589" lon="6.48826">
        <ele>2015</ele>
        <time>2022-07-28T11:10:41Z</time>
      </trkpt>
      <trkpt lat="45.67589" lon="6.48826">
        <ele>2014</ele>
        <time>2022-07-28T11:10:42Z</time>
      </trkpt>
      <trkpt lat="45.67589" lon="6.48826">
        <ele>2014</ele>
        <time>2022-07-28T11:10:43Z</time>
      </trkpt>
      <trkpt lat="45.6759" lon="6.48825">
        <ele>2014</ele>
        <time>2022-07-28T11:10:44Z</time>
      </trkpt>
      <trkpt lat="45.6759" lon="6.48824">
        <ele>2014</ele>
        <time>2022-07-28T11:10:45Z</time>
      </trkpt>
      <trkpt lat="45.6759" lon="6.48824">
        <ele>2014</ele>
        <time>2022-07-28T11:10:46Z</time>
      </trkpt>
      <trkpt lat="45.6759" lon="6.48823">
        <ele>2013</ele>
        <time>2022-07-28T11:10:47Z</time>
      </trkpt>
      <trkpt lat="45.6759" lon="6.48822">
        <ele>2013</ele>
        <time>2022-07-28T11:10:48Z</time>
      </trkpt>
      <trkpt lat="45.6759" lon="6.48821">
        <ele>2013</ele>
        <time>2022-07-28T11:10:49Z</time>
      </trkpt>
      <trkpt lat="45.6759" lon="6.48821">
        <ele>2013</ele>
        <time>2022-07-28T11:10:50Z</time>
      </trkpt>
      <trkpt lat="45.67589" lon="6.4882">
        <ele>2013</ele>
        <time>2022-07-28T11:10:51Z</time>
      </trkpt>
      <trkpt lat="45.67589" lon="6.4882">
        <ele>2012</ele>
        <time>2022-07-28T11:10:52Z</time>
      </trkpt>
      <trkpt lat="45.67588" lon="6.4882">
        <ele>2012</ele>
        <time>2022-07-28T11:10:53Z</time>
      </trkpt>
      <trkpt lat="45.67587" lon="6.4882">
        <ele>2012</ele>
        <time>2022-07-28T11:10:54Z</time>
      </trkpt>
      <trkpt lat="45.67587" lon="6.4882">
        <ele>2012</ele>
        <time>2022-07-28T11:10:55Z</time>
      </trkpt>
      <trkpt lat="45.67586" lon="6.4882">
        <ele>2012</ele>
        <time>2022-07-28T11:10:56Z</time>
      </trkpt>
      <trkpt lat="45.67585" lon="6.4882">
        <ele>2011</ele>
        <time>2022-07-28T11:10:57Z</time>
      </trkpt>
      <trkpt lat="45.67584" lon="6.4882">
        <ele>2011</ele>
        <time>2022-07-28T11:10:58Z</time>
      </trkpt>
      <trkpt lat="45.67583" lon="6.48819">
        <ele>2010</ele>
        <time>2022-07-28T11:10:59Z</time>
      </trkpt>
      <trkpt lat="45.67583" lon="6.48818">
        <ele>2010</ele>
        <time>2022-07-28T11:11:00Z</time>
      </trkpt>
      <trkpt lat="45.67582" lon="6.48817">
        <ele>2010</ele>
        <time>2022-07-28T11:11:01Z</time>
      </trkpt>
      <trkpt lat="45.67582" lon="6.48815">
        <ele>2009</ele>
        <time>2022-07-28T11:11:02Z</time>
      </trkpt>
      <trkpt lat="45.67582" lon="6.48814">
        <ele>2009</ele>
        <time>2022-07-28T11:11:03Z</time>
      </trkpt>
      <trkpt lat="45.67583" lon="6.48812">
        <ele>2009</ele>
        <time>2022-07-28T11:11:04Z</time>
      </trkpt>
      <trkpt lat="45.67583" lon="6.48811">
        <ele>2009</ele>
        <time>2022-07-28T11:11:05Z</time>
      </trkpt>
      <trkpt lat="45.67583" lon="6.48809">
        <ele>2009</ele>
        <time>2022-07-28T11:11:06Z</time>
      </trkpt>
      <trkpt lat="45.67584" lon="6.48808">
        <ele>2008</ele>
        <time>2022-07-28T11:11:07Z</time>
      </trkpt>
      <trkpt lat="45.67584" lon="6.48806">
        <ele>2008</ele>
        <time>2022-07-28T11:11:08Z</time>
      </trkpt>
      <trkpt lat="45.67585" lon="6.48805">
        <ele>2008</ele>
        <time>2022-07-28T11:11:09Z</time>
      </trkpt>
      <trkpt lat="45.67586" lon="6.48804">
        <ele>2008</ele>
        <time>2022-07-28T11:11:10Z</time>
      </trkpt>
      <trkpt lat="45.67586" lon="6.48802">
        <ele>2008</ele>
        <time>2022-07-28T11:11:11Z</time>
      </trkpt>
      <trkpt lat="45.67587" lon="6.48801">
        <ele>2008</ele>
        <time>2022-07-28T11:11:12Z</time>
      </trkpt>
      <trkpt lat="45.67587" lon="6.488">
        <ele>2008</ele>
        <time>2022-07-28T11:11:13Z</time>
      </trkpt>
      <trkpt lat="45.67588" lon="6.48798">
        <ele>2008</ele>
        <time>2022-07-28T11:11:14Z</time>
      </trkpt>
      <trkpt lat="45.67588" lon="6.48797">
        <ele>2008</ele>
        <time>2022-07-28T11:11:15Z</time>
      </trkpt>
      <trkpt lat="45.67589" lon="6.48796">
        <ele>2008</ele>
        <time>2022-07-28T11:11:16Z</time>
      </trkpt>
      <trkpt lat="45.67589" lon="6.48795">
        <ele>2007</ele>
        <time>2022-07-28T11:11:17Z</time>
      </trkpt>
      <trkpt lat="45.6759" lon="6.48794">
        <ele>2007</ele>
        <time>2022-07-28T11:11:18Z</time>
      </trkpt>
      <trkpt lat="45.6759" lon="6.48793">
        <ele>2006</ele>
        <time>2022-07-28T11:11:19Z</time>
      </trkpt>
      <trkpt lat="45.6759" lon="6.48792">
        <ele>2006</ele>
        <time>2022-07-28T11:11:20Z</time>
      </trkpt>
      <trkpt lat="45.6759" lon="6.48791">
        <ele>2006</ele>
        <time>2022-07-28T11:11:21Z</time>
      </trkpt>
      <trkpt lat="45.6759" lon="6.4879">
        <ele>2005</ele>
        <time>2022-07-28T11:11:22Z</time>
      </trkpt>
      <trkpt lat="45.6759" lon="6.4879">
        <ele>2005</ele>
        <time>2022-07-28T11:11:23Z</time>
      </trkpt>
      <trkpt lat="45.67589" lon="6.48789">
        <ele>2005</ele>
        <time>2022-07-28T11:11:24Z</time>
      </trkpt>
      <trkpt lat="45.67589" lon="6.48789">
        <ele>2005</ele>
        <time>2022-07-28T11:11:25Z</time>
      </trkpt>
      <trkpt lat="45.67588" lon="6.48789">
        <ele>2005</ele>
        <time>2022-07-28T11:11:26Z</time>
      </trkpt>
      <trkpt lat="45.67588" lon="6.4879">
        <ele>2004</ele>
        <time>2022-07-28T11:11:27Z</time>
      </trkpt>
      <trkpt lat="45.67587" lon="6.4879">
        <ele>2004</ele>
        <time>2022-07-28T11:11:28Z</time>
      </trkpt>
      <trkpt lat="45.67586" lon="6.4879">
        <ele>2004</ele>
        <time>2022-07-28T11:11:29Z</time>
      </trkpt>
      <trkpt lat="45.67585" lon="6.4879">
        <ele>2004</ele>
        <time>2022-07-28T11:11:30Z</time>
      </trkpt>
      <trkpt lat="45.67585" lon="6.4879">
        <ele>2004</ele>
        <time>2022-07-28T11:11:31Z</time>
      </trkpt>
      <trkpt lat="45.67584" lon="6.48789">
        <ele>2004</ele>
        <time>2022-07-28T11:11:32Z</time>
      </trkpt>
      <trkpt lat="45.67585" lon="6.48787">
        <ele>2004</ele>
        <time>2022-07-28T11:11:33Z</time>
      </trkpt>
      <trkpt lat="45.67585" lon="6.48786">
        <ele>2004</ele>
        <time>2022-07-28T11:11:34Z</time>
      </trkpt>
      <trkpt lat="45.67585" lon="6.48784">
        <ele>2004</ele>
        <time>2022-07-28T11:11:35Z</time>
      </trkpt>
      <trkpt lat="45.67586" lon="6.48782">
        <ele>2004</ele>
        <time>2022-07-28T11:11:36Z</time>
      </trkpt>
      <trkpt lat="45.67587" lon="6.48781">
        <ele>2003</ele>
        <time>2022-07-28T11:11:37Z</time>
      </trkpt>
      <trkpt lat="45.67587" lon="6.48779">
        <ele>2003</ele>
        <time>2022-07-28T11:11:38Z</time>
      </trkpt>
      <trkpt lat="45.67588" lon="6.48777">
        <ele>2003</ele>
        <time>2022-07-28T11:11:39Z</time>
      </trkpt>
      <trkpt lat="45.67589" lon="6.48776">
        <ele>2003</ele>
        <time>2022-07-28T11:11:40Z</time>
      </trkpt>
      <trkpt lat="45.67589" lon="6.48774">
        <ele>2003</ele>
        <time>2022-07-28T11:11:41Z</time>
      </trkpt>
      <trkpt lat="45.6759" lon="6.48773">
        <ele>2002</ele>
        <time>2022-07-28T11:11:42Z</time>
      </trkpt>
      <trkpt lat="45.6759" lon="6.48771">
        <ele>2002</ele>
        <time>2022-07-28T11:11:43Z</time>
      </trkpt>
      <trkpt lat="45.6759" lon="6.48769">
        <ele>2002</ele>
        <time>2022-07-28T11:11:44Z</time>
      </trkpt>
      <trkpt lat="45.67591" lon="6.48768">
        <ele>2002</ele>
        <time>2022-07-28T11:11:45Z</time>
      </trkpt>
      <trkpt lat="45.67591" lon="6.48766">
        <ele>2002</ele>
        <time>2022-07-28T11:11:46Z</time>
      </trkpt>
      <trkpt lat="45.67591" lon="6.48765">
        <ele>2002</ele>
        <time>2022-07-28T11:11:47Z</time>
      </trkpt>
      <trkpt lat="45.67592" lon="6.48763">
        <ele>2002</ele>
        <time>2022-07-28T11:11:48Z</time>
      </trkpt>
      <trkpt lat="45.67592" lon="6.48762">
        <ele>2002</ele>
        <time>2022-07-28T11:11:49Z</time>
      </trkpt>
      <trkpt lat="45.67592" lon="6.48761">
        <ele>2002</ele>
        <time>2022-07-28T11:11:50Z</time>
      </trkpt>
      <trkpt lat="45.67592" lon="6.4876">
        <ele>2002</ele>
        <time>2022-07-28T11:11:51Z</time>
      </trkpt>
      <trkpt lat="45.67593" lon="6.48759">
        <ele>2002</ele>
        <time>2022-07-28T11:11:52Z</time>
      </trkpt>
      <trkpt lat="45.67593" lon="6.48758">
        <ele>2002</ele>
        <time>2022-07-28T11:11:53Z</time>
      </trkpt>
      <trkpt lat="45.67593" lon="6.48757">
        <ele>2002</ele>
        <time>2022-07-28T11:11:54Z</time>
      </trkpt>
      <trkpt lat="45.67594" lon="6.48757">
        <ele>2002</ele>
        <time>2022-07-28T11:11:55Z</time>
      </trkpt>
      <trkpt lat="45.67594" lon="6.48756">
        <ele>2003</ele>
        <time>2022-07-28T11:11:56Z</time>
      </trkpt>
      <trkpt lat="45.67595" lon="6.48755">
        <ele>2003</ele>
        <time>2022-07-28T11:11:57Z</time>
      </trkpt>
      <trkpt lat="45.67595" lon="6.48755">
        <ele>2003</ele>
        <time>2022-07-28T11:11:58Z</time>
      </trkpt>
      <trkpt lat="45.67595" lon="6.48754">
        <ele>2003</ele>
        <time>2022-07-28T11:11:59Z</time>
      </trkpt>
      <trkpt lat="45.67595" lon="6.48753">
        <ele>2003</ele>
        <time>2022-07-28T11:12:00Z</time>
      </trkpt>
      <trkpt lat="45.67596" lon="6.48752">
        <ele>2004</ele>
        <time>2022-07-28T11:12:01Z</time>
      </trkpt>
      <trkpt lat="45.67596" lon="6.4875">
        <ele>2004</ele>
        <time>2022-07-28T11:12:02Z</time>
      </trkpt>
      <trkpt lat="45.67596" lon="6.48749">
        <ele>2004</ele>
        <time>2022-07-28T11:12:03Z</time>
      </trkpt>
      <trkpt lat="45.67596" lon="6.48748">
        <ele>2004</ele>
        <time>2022-07-28T11:12:04Z</time>
      </trkpt>
      <trkpt lat="45.67596" lon="6.48747">
        <ele>2004</ele>
        <time>2022-07-28T11:12:05Z</time>
      </trkpt>
      <trkpt lat="45.67597" lon="6.48746">
        <ele>2004</ele>
        <time>2022-07-28T11:12:06Z</time>
      </trkpt>
      <trkpt lat="45.67597" lon="6.48744">
        <ele>2004</ele>
        <time>2022-07-28T11:12:07Z</time>
      </trkpt>
      <trkpt lat="45.67597" lon="6.48742">
        <ele>2004</ele>
        <time>2022-07-28T11:12:08Z</time>
      </trkpt>
      <trkpt lat="45.67597" lon="6.48741">
        <ele>2004</ele>
        <time>2022-07-28T11:12:09Z</time>
      </trkpt>
      <trkpt lat="45.67597" lon="6.48739">
        <ele>2004</ele>
        <time>2022-07-28T11:12:10Z</time>
      </trkpt>
      <trkpt lat="45.67597" lon="6.48737">
        <ele>2004</ele>
        <time>2022-07-28T11:12:11Z</time>
      </trkpt>
      <trkpt lat="45.67597" lon="6.48735">
        <ele>2004</ele>
        <time>2022-07-28T11:12:12Z</time>
      </trkpt>
      <trkpt lat="45.67597" lon="6.48734">
        <ele>2004</ele>
        <time>2022-07-28T11:12:13Z</time>
      </trkpt>
      <trkpt lat="45.67597" lon="6.48732">
        <ele>2004</ele>
        <time>2022-07-28T11:12:14Z</time>
      </trkpt>
      <trkpt lat="45.67597" lon="6.4873">
        <ele>2004</ele>
        <time>2022-07-28T11:12:15Z</time>
      </trkpt>
      <trkpt lat="45.67597" lon="6.48728">
        <ele>2004</ele>
        <time>2022-07-28T11:12:16Z</time>
      </trkpt>
      <trkpt lat="45.67597" lon="6.48727">
        <ele>2004</ele>
        <time>2022-07-28T11:12:17Z</time>
      </trkpt>
      <trkpt lat="45.67598" lon="6.48725">
        <ele>2004</ele>
        <time>2022-07-28T11:12:18Z</time>
      </trkpt>
      <trkpt lat="45.67598" lon="6.48723">
        <ele>2004</ele>
        <time>2022-07-28T11:12:19Z</time>
      </trkpt>
      <trkpt lat="45.67598" lon="6.48722">
        <ele>2004</ele>
        <time>2022-07-28T11:12:20Z</time>
      </trkpt>
      <trkpt lat="45.67598" lon="6.4872">
        <ele>2004</ele>
        <time>2022-07-28T11:12:21Z</time>
      </trkpt>
      <trkpt lat="45.67599" lon="6.48719">
        <ele>2004</ele>
        <time>2022-07-28T11:12:22Z</time>
      </trkpt>
      <trkpt lat="45.67599" lon="6.48717">
        <ele>2004</ele>
        <time>2022-07-28T11:12:23Z</time>
      </trkpt>
      <trkpt lat="45.676" lon="6.48716">
        <ele>2004</ele>
        <time>2022-07-28T11:12:24Z</time>
      </trkpt>
      <trkpt lat="45.676" lon="6.48715">
        <ele>2004</ele>
        <time>2022-07-28T11:12:25Z</time>
      </trkpt>
      <trkpt lat="45.67601" lon="6.48713">
        <ele>2004</ele>
        <time>2022-07-28T11:12:26Z</time>
      </trkpt>
      <trkpt lat="45.67601" lon="6.48712">
        <ele>2004</ele>
        <time>2022-07-28T11:12:27Z</time>
      </trkpt>
      <trkpt lat="45.67602" lon="6.4871">
        <ele>2004</ele>
        <time>2022-07-28T11:12:28Z</time>
      </trkpt>
      <trkpt lat="45.67602" lon="6.48709">
        <ele>2004</ele>
        <time>2022-07-28T11:12:29Z</time>
      </trkpt>
      <trkpt lat="45.67603" lon="6.48708">
        <ele>2004</ele>
        <time>2022-07-28T11:12:30Z</time>
      </trkpt>
      <trkpt lat="45.67603" lon="6.48706">
        <ele>2004</ele>
        <time>2022-07-28T11:12:31Z</time>
      </trkpt>
      <trkpt lat="45.67604" lon="6.48705">
        <ele>2005</ele>
        <time>2022-07-28T11:12:32Z</time>
      </trkpt>
      <trkpt lat="45.67604" lon="6.48703">
        <ele>2007</ele>
        <time>2022-07-28T11:12:33Z</time>
      </trkpt>
      <trkpt lat="45.67604" lon="6.48701">
        <ele>2008</ele>
        <time>2022-07-28T11:12:34Z</time>
      </trkpt>
      <trkpt lat="45.67605" lon="6.487">
        <ele>2010</ele>
        <time>2022-07-28T11:12:35Z</time>
      </trkpt>
      <trkpt lat="45.67605" lon="6.48698">
        <ele>2012</ele>
        <time>2022-07-28T11:12:36Z</time>
      </trkpt>
      <trkpt lat="45.67606" lon="6.48696">
        <ele>2012</ele>
        <time>2022-07-28T11:12:37Z</time>
      </trkpt>
      <trkpt lat="45.67607" lon="6.48694">
        <ele>2012</ele>
        <time>2022-07-28T11:12:38Z</time>
      </trkpt>
      <trkpt lat="45.67607" lon="6.48693">
        <ele>2012</ele>
        <time>2022-07-28T11:12:39Z</time>
      </trkpt>
      <trkpt lat="45.67608" lon="6.48691">
        <ele>2012</ele>
        <time>2022-07-28T11:12:40Z</time>
      </trkpt>
      <trkpt lat="45.67608" lon="6.48689">
        <ele>2012</ele>
        <time>2022-07-28T11:12:41Z</time>
      </trkpt>
      <trkpt lat="45.67609" lon="6.48687">
        <ele>2011</ele>
        <time>2022-07-28T11:12:42Z</time>
      </trkpt>
      <trkpt lat="45.67609" lon="6.48686">
        <ele>2011</ele>
        <time>2022-07-28T11:12:43Z</time>
      </trkpt>
      <trkpt lat="45.67609" lon="6.48684">
        <ele>2011</ele>
        <time>2022-07-28T11:12:44Z</time>
      </trkpt>
      <trkpt lat="45.67609" lon="6.48683">
        <ele>2011</ele>
        <time>2022-07-28T11:12:45Z</time>
      </trkpt>
      <trkpt lat="45.67609" lon="6.48681">
        <ele>2011</ele>
        <time>2022-07-28T11:12:46Z</time>
      </trkpt>
      <trkpt lat="45.67609" lon="6.4868">
        <ele>2010</ele>
        <time>2022-07-28T11:12:47Z</time>
      </trkpt>
      <trkpt lat="45.67609" lon="6.48678">
        <ele>2010</ele>
        <time>2022-07-28T11:12:48Z</time>
      </trkpt>
      <trkpt lat="45.67609" lon="6.48677">
        <ele>2010</ele>
        <time>2022-07-28T11:12:49Z</time>
      </trkpt>
      <trkpt lat="45.67609" lon="6.48675">
        <ele>2010</ele>
        <time>2022-07-28T11:12:50Z</time>
      </trkpt>
      <trkpt lat="45.67608" lon="6.48675">
        <ele>2010</ele>
        <time>2022-07-28T11:12:51Z</time>
      </trkpt>
      <trkpt lat="45.67608" lon="6.48674">
        <ele>2010</ele>
        <time>2022-07-28T11:12:52Z</time>
      </trkpt>
      <trkpt lat="45.67607" lon="6.48674">
        <ele>2010</ele>
        <time>2022-07-28T11:12:53Z</time>
      </trkpt>
      <trkpt lat="45.67607" lon="6.48673">
        <ele>2010</ele>
        <time>2022-07-28T11:12:54Z</time>
      </trkpt>
      <trkpt lat="45.67605" lon="6.48672">
        <ele>2010</ele>
        <time>2022-07-28T11:14:42Z</time>
      </trkpt>
      <trkpt lat="45.67605" lon="6.48671">
        <ele>2010</ele>
        <time>2022-07-28T11:14:43Z</time>
      </trkpt>
      <trkpt lat="45.67604" lon="6.4867">
        <ele>2010</ele>
        <time>2022-07-28T11:14:44Z</time>
      </trkpt>
      <trkpt lat="45.67604" lon="6.48668">
        <ele>2010</ele>
        <time>2022-07-28T11:14:45Z</time>
      </trkpt>
      <trkpt lat="45.67604" lon="6.48667">
        <ele>2010</ele>
        <time>2022-07-28T11:14:46Z</time>
      </trkpt>
      <trkpt lat="45.67604" lon="6.48666">
        <ele>2009</ele>
        <time>2022-07-28T11:14:47Z</time>
      </trkpt>
      <trkpt lat="45.67604" lon="6.48664">
        <ele>2009</ele>
        <time>2022-07-28T11:14:48Z</time>
      </trkpt>
      <trkpt lat="45.67604" lon="6.48662">
        <ele>2009</ele>
        <time>2022-07-28T11:14:49Z</time>
      </trkpt>
      <trkpt lat="45.67604" lon="6.4866">
        <ele>2009</ele>
        <time>2022-07-28T11:14:50Z</time>
      </trkpt>
      <trkpt lat="45.67603" lon="6.48659">
        <ele>2009</ele>
        <time>2022-07-28T11:14:51Z</time>
      </trkpt>
      <trkpt lat="45.67603" lon="6.48657">
        <ele>2009</ele>
        <time>2022-07-28T11:14:52Z</time>
      </trkpt>
      <trkpt lat="45.67602" lon="6.48655">
        <ele>2009</ele>
        <time>2022-07-28T11:14:53Z</time>
      </trkpt>
      <trkpt lat="45.67602" lon="6.48654">
        <ele>2009</ele>
        <time>2022-07-28T11:14:54Z</time>
      </trkpt>
      <trkpt lat="45.67601" lon="6.48653">
        <ele>2009</ele>
        <time>2022-07-28T11:14:55Z</time>
      </trkpt>
      <trkpt lat="45.67601" lon="6.48651">
        <ele>2009</ele>
        <time>2022-07-28T11:14:56Z</time>
      </trkpt>
      <trkpt lat="45.676" lon="6.4865">
        <ele>2009</ele>
        <time>2022-07-28T11:14:57Z</time>
      </trkpt>
      <trkpt lat="45.676" lon="6.48649">
        <ele>2009</ele>
        <time>2022-07-28T11:14:58Z</time>
      </trkpt>
      <trkpt lat="45.676" lon="6.48647">
        <ele>2009</ele>
        <time>2022-07-28T11:14:59Z</time>
      </trkpt>
      <trkpt lat="45.676" lon="6.48646">
        <ele>2009</ele>
        <time>2022-07-28T11:15:00Z</time>
      </trkpt>
      <trkpt lat="45.676" lon="6.48644">
        <ele>2009</ele>
        <time>2022-07-28T11:15:01Z</time>
      </trkpt>
      <trkpt lat="45.67601" lon="6.48643">
        <ele>2009</ele>
        <time>2022-07-28T11:15:02Z</time>
      </trkpt>
      <trkpt lat="45.67601" lon="6.48641">
        <ele>2009</ele>
        <time>2022-07-28T11:15:03Z</time>
      </trkpt>
      <trkpt lat="45.67602" lon="6.48639">
        <ele>2009</ele>
        <time>2022-07-28T11:15:04Z</time>
      </trkpt>
      <trkpt lat="45.67602" lon="6.48638">
        <ele>2009</ele>
        <time>2022-07-28T11:15:05Z</time>
      </trkpt>
      <trkpt lat="45.67603" lon="6.48637">
        <ele>2009</ele>
        <time>2022-07-28T11:15:06Z</time>
      </trkpt>
      <trkpt lat="45.67603" lon="6.48636">
        <ele>2009</ele>
        <time>2022-07-28T11:15:07Z</time>
      </trkpt>
      <trkpt lat="45.67604" lon="6.48635">
        <ele>2009</ele>
        <time>2022-07-28T11:15:08Z</time>
      </trkpt>
      <trkpt lat="45.67604" lon="6.48634">
        <ele>2009</ele>
        <time>2022-07-28T11:15:09Z</time>
      </trkpt>
      <trkpt lat="45.67604" lon="6.48633">
        <ele>2008</ele>
        <time>2022-07-28T11:15:46Z</time>
      </trkpt>
      <trkpt lat="45.67604" lon="6.48632">
        <ele>2008</ele>
        <time>2022-07-28T11:15:47Z</time>
      </trkpt>
      <trkpt lat="45.67604" lon="6.48632">
        <ele>2008</ele>
        <time>2022-07-28T11:15:48Z</time>
      </trkpt>
      <trkpt lat="45.67604" lon="6.48631">
        <ele>2008</ele>
        <time>2022-07-28T11:15:49Z</time>
      </trkpt>
      <trkpt lat="45.67604" lon="6.4863">
        <ele>2008</ele>
        <time>2022-07-28T11:15:50Z</time>
      </trkpt>
      <trkpt lat="45.67604" lon="6.48629">
        <ele>2008</ele>
        <time>2022-07-28T11:15:51Z</time>
      </trkpt>
      <trkpt lat="45.67604" lon="6.48627">
        <ele>2008</ele>
        <time>2022-07-28T11:15:52Z</time>
      </trkpt>
      <trkpt lat="45.67604" lon="6.48627">
        <ele>2008</ele>
        <time>2022-07-28T11:15:53Z</time>
      </trkpt>
      <trkpt lat="45.67604" lon="6.48626">
        <ele>2008</ele>
        <time>2022-07-28T11:15:54Z</time>
      </trkpt>
      <trkpt lat="45.67604" lon="6.48625">
        <ele>2008</ele>
        <time>2022-07-28T11:15:55Z</time>
      </trkpt>
      <trkpt lat="45.67604" lon="6.48624">
        <ele>2008</ele>
        <time>2022-07-28T11:15:56Z</time>
      </trkpt>
      <trkpt lat="45.67604" lon="6.48623">
        <ele>2008</ele>
        <time>2022-07-28T11:15:57Z</time>
      </trkpt>
      <trkpt lat="45.67604" lon="6.48622">
        <ele>2008</ele>
        <time>2022-07-28T11:15:58Z</time>
      </trkpt>
      <trkpt lat="45.67604" lon="6.4862">
        <ele>2008</ele>
        <time>2022-07-28T11:15:59Z</time>
      </trkpt>
      <trkpt lat="45.67603" lon="6.48619">
        <ele>2008</ele>
        <time>2022-07-28T11:16:00Z</time>
      </trkpt>
      <trkpt lat="45.67603" lon="6.48618">
        <ele>2008</ele>
        <time>2022-07-28T11:16:01Z</time>
      </trkpt>
      <trkpt lat="45.67603" lon="6.48616">
        <ele>2008</ele>
        <time>2022-07-28T11:16:02Z</time>
      </trkpt>
      <trkpt lat="45.67603" lon="6.48614">
        <ele>2008</ele>
        <time>2022-07-28T11:16:03Z</time>
      </trkpt>
      <trkpt lat="45.67603" lon="6.48613">
        <ele>2008</ele>
        <time>2022-07-28T11:16:04Z</time>
      </trkpt>
      <trkpt lat="45.67603" lon="6.48611">
        <ele>2008</ele>
        <time>2022-07-28T11:16:05Z</time>
      </trkpt>
      <trkpt lat="45.67603" lon="6.4861">
        <ele>2008</ele>
        <time>2022-07-28T11:16:06Z</time>
      </trkpt>
      <trkpt lat="45.67603" lon="6.48608">
        <ele>2008</ele>
        <time>2022-07-28T11:16:07Z</time>
      </trkpt>
      <trkpt lat="45.67603" lon="6.48607">
        <ele>2008</ele>
        <time>2022-07-28T11:16:08Z</time>
      </trkpt>
      <trkpt lat="45.67604" lon="6.48606">
        <ele>2008</ele>
        <time>2022-07-28T11:16:09Z</time>
      </trkpt>
      <trkpt lat="45.67604" lon="6.48605">
        <ele>2008</ele>
        <time>2022-07-28T11:16:10Z</time>
      </trkpt>
      <trkpt lat="45.67604" lon="6.48604">
        <ele>2008</ele>
        <time>2022-07-28T11:16:11Z</time>
      </trkpt>
      <trkpt lat="45.67604" lon="6.48603">
        <ele>2008</ele>
        <time>2022-07-28T11:16:12Z</time>
      </trkpt>
      <trkpt lat="45.67604" lon="6.48602">
        <ele>2008</ele>
        <time>2022-07-28T11:16:13Z</time>
      </trkpt>
      <trkpt lat="45.67604" lon="6.48602">
        <ele>2008</ele>
        <time>2022-07-28T11:16:14Z</time>
      </trkpt>
      <trkpt lat="45.67605" lon="6.48601">
        <ele>2008</ele>
        <time>2022-07-28T11:16:15Z</time>
      </trkpt>
      <trkpt lat="45.67605" lon="6.486">
        <ele>2008</ele>
        <time>2022-07-28T11:16:16Z</time>
      </trkpt>
      <trkpt lat="45.67605" lon="6.486">
        <ele>2008</ele>
        <time>2022-07-28T11:16:17Z</time>
      </trkpt>
      <trkpt lat="45.67606" lon="6.48599">
        <ele>2008</ele>
        <time>2022-07-28T11:16:18Z</time>
      </trkpt>
      <trkpt lat="45.67606" lon="6.48598">
        <ele>2008</ele>
        <time>2022-07-28T11:16:19Z</time>
      </trkpt>
      <trkpt lat="45.67606" lon="6.48598">
        <ele>2008</ele>
        <time>2022-07-28T11:16:20Z</time>
      </trkpt>
      <trkpt lat="45.67607" lon="6.48595">
        <ele>2008</ele>
        <time>2022-07-28T11:16:27Z</time>
      </trkpt>
      <trkpt lat="45.67607" lon="6.48594">
        <ele>2008</ele>
        <time>2022-07-28T11:16:28Z</time>
      </trkpt>
      <trkpt lat="45.67607" lon="6.48593">
        <ele>2009</ele>
        <time>2022-07-28T11:16:29Z</time>
      </trkpt>
      <trkpt lat="45.67608" lon="6.4859">
        <ele>2010</ele>
        <time>2022-07-28T11:16:35Z</time>
      </trkpt>
      <trkpt lat="45.67608" lon="6.48589">
        <ele>2010</ele>
        <time>2022-07-28T11:16:36Z</time>
      </trkpt>
      <trkpt lat="45.67608" lon="6.48587">
        <ele>2010</ele>
        <time>2022-07-28T11:16:37Z</time>
      </trkpt>
      <trkpt lat="45.67608" lon="6.48586">
        <ele>2010</ele>
        <time>2022-07-28T11:16:38Z</time>
      </trkpt>
      <trkpt lat="45.67608" lon="6.48585">
        <ele>2010</ele>
        <time>2022-07-28T11:16:39Z</time>
      </trkpt>
      <trkpt lat="45.67609" lon="6.48585">
        <ele>2010</ele>
        <time>2022-07-28T11:16:40Z</time>
      </trkpt>
      <trkpt lat="45.67609" lon="6.48584">
        <ele>2010</ele>
        <time>2022-07-28T11:16:41Z</time>
      </trkpt>
      <trkpt lat="45.6761" lon="6.48582">
        <ele>2014</ele>
        <time>2022-07-28T11:16:50Z</time>
      </trkpt>
      <trkpt lat="45.6761" lon="6.48582">
        <ele>2015</ele>
        <time>2022-07-28T11:16:51Z</time>
      </trkpt>
      <trkpt lat="45.67611" lon="6.48581">
        <ele>2015</ele>
        <time>2022-07-28T11:16:52Z</time>
      </trkpt>
      <trkpt lat="45.67611" lon="6.48581">
        <ele>2015</ele>
        <time>2022-07-28T11:16:53Z</time>
      </trkpt>
      <trkpt lat="45.67611" lon="6.4858">
        <ele>2015</ele>
        <time>2022-07-28T11:16:54Z</time>
      </trkpt>
      <trkpt lat="45.67611" lon="6.4858">
        <ele>2015</ele>
        <time>2022-07-28T11:16:55Z</time>
      </trkpt>
      <trkpt lat="45.67611" lon="6.48579">
        <ele>2015</ele>
        <time>2022-07-28T11:16:56Z</time>
      </trkpt>
      <trkpt lat="45.67611" lon="6.48578">
        <ele>2015</ele>
        <time>2022-07-28T11:16:57Z</time>
      </trkpt>
      <trkpt lat="45.67612" lon="6.48578">
        <ele>2015</ele>
        <time>2022-07-28T11:16:58Z</time>
      </trkpt>
      <trkpt lat="45.67612" lon="6.48577">
        <ele>2015</ele>
        <time>2022-07-28T11:16:59Z</time>
      </trkpt>
      <trkpt lat="45.67614" lon="6.48576">
        <ele>2017</ele>
        <time>2022-07-28T11:17:12Z</time>
      </trkpt>
      <trkpt lat="45.67615" lon="6.48575">
        <ele>2017</ele>
        <time>2022-07-28T11:17:13Z</time>
      </trkpt>
      <trkpt lat="45.67616" lon="6.48574">
        <ele>2017</ele>
        <time>2022-07-28T11:17:14Z</time>
      </trkpt>
      <trkpt lat="45.67617" lon="6.48574">
        <ele>2017</ele>
        <time>2022-07-28T11:17:15Z</time>
      </trkpt>
      <trkpt lat="45.67617" lon="6.48573">
        <ele>2018</ele>
        <time>2022-07-28T11:17:16Z</time>
      </trkpt>
      <trkpt lat="45.67617" lon="6.48572">
        <ele>2018</ele>
        <time>2022-07-28T11:17:17Z</time>
      </trkpt>
      <trkpt lat="45.67618" lon="6.48571">
        <ele>2018</ele>
        <time>2022-07-28T11:17:18Z</time>
      </trkpt>
      <trkpt lat="45.67618" lon="6.48571">
        <ele>2018</ele>
        <time>2022-07-28T11:17:19Z</time>
      </trkpt>
      <trkpt lat="45.67618" lon="6.4857">
        <ele>2018</ele>
        <time>2022-07-28T11:17:20Z</time>
      </trkpt>
      <trkpt lat="45.67619" lon="6.4857">
        <ele>2019</ele>
        <time>2022-07-28T11:17:28Z</time>
      </trkpt>
      <trkpt lat="45.6762" lon="6.48569">
        <ele>2020</ele>
        <time>2022-07-28T11:17:29Z</time>
      </trkpt>
      <trkpt lat="45.67621" lon="6.48569">
        <ele>2020</ele>
        <time>2022-07-28T11:17:30Z</time>
      </trkpt>
      <trkpt lat="45.67621" lon="6.48568">
        <ele>2021</ele>
        <time>2022-07-28T11:17:31Z</time>
      </trkpt>
      <trkpt lat="45.67621" lon="6.48568">
        <ele>2021</ele>
        <time>2022-07-28T11:17:32Z</time>
      </trkpt>
      <trkpt lat="45.67622" lon="6.48567">
        <ele>2021</ele>
        <time>2022-07-28T11:17:33Z</time>
      </trkpt>
      <trkpt lat="45.67622" lon="6.48566">
        <ele>2021</ele>
        <time>2022-07-28T11:17:34Z</time>
      </trkpt>
      <trkpt lat="45.67622" lon="6.48566">
        <ele>2021</ele>
        <time>2022-07-28T11:17:35Z</time>
      </trkpt>
      <trkpt lat="45.67623" lon="6.48565">
        <ele>2021</ele>
        <time>2022-07-28T11:17:36Z</time>
      </trkpt>
      <trkpt lat="45.67624" lon="6.48564">
        <ele>2023</ele>
        <time>2022-07-28T11:18:18Z</time>
      </trkpt>
      <trkpt lat="45.67625" lon="6.48563">
        <ele>2023</ele>
        <time>2022-07-28T11:18:19Z</time>
      </trkpt>
      <trkpt lat="45.67625" lon="6.48563">
        <ele>2023</ele>
        <time>2022-07-28T11:18:20Z</time>
      </trkpt>
      <trkpt lat="45.67626" lon="6.48562">
        <ele>2023</ele>
        <time>2022-07-28T11:18:21Z</time>
      </trkpt>
      <trkpt lat="45.67626" lon="6.48562">
        <ele>2023</ele>
        <time>2022-07-28T11:18:22Z</time>
      </trkpt>
      <trkpt lat="45.67627" lon="6.48561">
        <ele>2023</ele>
        <time>2022-07-28T11:18:23Z</time>
      </trkpt>
      <trkpt lat="45.67628" lon="6.4856">
        <ele>2023</ele>
        <time>2022-07-28T11:18:24Z</time>
      </trkpt>
      <trkpt lat="45.67628" lon="6.48559">
        <ele>2023</ele>
        <time>2022-07-28T11:18:25Z</time>
      </trkpt>
      <trkpt lat="45.67629" lon="6.48559">
        <ele>2023</ele>
        <time>2022-07-28T11:18:26Z</time>
      </trkpt>
      <trkpt lat="45.67629" lon="6.48558">
        <ele>2022</ele>
        <time>2022-07-28T11:18:27Z</time>
      </trkpt>
      <trkpt lat="45.6763" lon="6.48558">
        <ele>2022</ele>
        <time>2022-07-28T11:18:28Z</time>
      </trkpt>
      <trkpt lat="45.67632" lon="6.48557">
        <ele>2022</ele>
        <time>2022-07-28T11:18:37Z</time>
      </trkpt>
      <trkpt lat="45.67633" lon="6.48556">
        <ele>2022</ele>
        <time>2022-07-28T11:18:38Z</time>
      </trkpt>
      <trkpt lat="45.67634" lon="6.48556">
        <ele>2022</ele>
        <time>2022-07-28T11:18:39Z</time>
      </trkpt>
      <trkpt lat="45.67634" lon="6.48556">
        <ele>2022</ele>
        <time>2022-07-28T11:18:40Z</time>
      </trkpt>
      <trkpt lat="45.67635" lon="6.48555">
        <ele>2022</ele>
        <time>2022-07-28T11:18:41Z</time>
      </trkpt>
      <trkpt lat="45.67635" lon="6.48555">
        <ele>2022</ele>
        <time>2022-07-28T11:18:42Z</time>
      </trkpt>
      <trkpt lat="45.67636" lon="6.48554">
        <ele>2022</ele>
        <time>2022-07-28T11:18:43Z</time>
      </trkpt>
      <trkpt lat="45.67637" lon="6.48554">
        <ele>2022</ele>
        <time>2022-07-28T11:18:44Z</time>
      </trkpt>
      <trkpt lat="45.67637" lon="6.48553">
        <ele>2022</ele>
        <time>2022-07-28T11:18:45Z</time>
      </trkpt>
      <trkpt lat="45.67638" lon="6.48552">
        <ele>2022</ele>
        <time>2022-07-28T11:18:46Z</time>
      </trkpt>
      <trkpt lat="45.67638" lon="6.48551">
        <ele>2022</ele>
        <time>2022-07-28T11:18:47Z</time>
      </trkpt>
      <trkpt lat="45.67639" lon="6.4855">
        <ele>2022</ele>
        <time>2022-07-28T11:18:48Z</time>
      </trkpt>
      <trkpt lat="45.6764" lon="6.48549">
        <ele>2022</ele>
        <time>2022-07-28T11:18:49Z</time>
      </trkpt>
      <trkpt lat="45.6764" lon="6.48548">
        <ele>2022</ele>
        <time>2022-07-28T11:18:50Z</time>
      </trkpt>
      <trkpt lat="45.67641" lon="6.48548">
        <ele>2022</ele>
        <time>2022-07-28T11:18:51Z</time>
      </trkpt>
      <trkpt lat="45.67642" lon="6.48547">
        <ele>2022</ele>
        <time>2022-07-28T11:18:52Z</time>
      </trkpt>
      <trkpt lat="45.67643" lon="6.48547">
        <ele>2022</ele>
        <time>2022-07-28T11:18:53Z</time>
      </trkpt>
      <trkpt lat="45.67643" lon="6.48546">
        <ele>2022</ele>
        <time>2022-07-28T11:18:54Z</time>
      </trkpt>
      <trkpt lat="45.67644" lon="6.48546">
        <ele>2022</ele>
        <time>2022-07-28T11:18:55Z</time>
      </trkpt>
      <trkpt lat="45.67645" lon="6.48546">
        <ele>2023</ele>
        <time>2022-07-28T11:18:56Z</time>
      </trkpt>
      <trkpt lat="45.67646" lon="6.48546">
        <ele>2023</ele>
        <time>2022-07-28T11:18:57Z</time>
      </trkpt>
      <trkpt lat="45.67646" lon="6.48546">
        <ele>2023</ele>
        <time>2022-07-28T11:18:58Z</time>
      </trkpt>
      <trkpt lat="45.67647" lon="6.48546">
        <ele>2023</ele>
        <time>2022-07-28T11:18:59Z</time>
      </trkpt>
      <trkpt lat="45.67647" lon="6.48546">
        <ele>2023</ele>
        <time>2022-07-28T11:19:00Z</time>
      </trkpt>
      <trkpt lat="45.67648" lon="6.48546">
        <ele>2024</ele>
        <time>2022-07-28T11:19:01Z</time>
      </trkpt>
      <trkpt lat="45.67649" lon="6.48545">
        <ele>2024</ele>
        <time>2022-07-28T11:19:02Z</time>
      </trkpt>
      <trkpt lat="45.67649" lon="6.48545">
        <ele>2024</ele>
        <time>2022-07-28T11:19:03Z</time>
      </trkpt>
      <trkpt lat="45.6765" lon="6.48544">
        <ele>2024</ele>
        <time>2022-07-28T11:19:04Z</time>
      </trkpt>
      <trkpt lat="45.6765" lon="6.48544">
        <ele>2024</ele>
        <time>2022-07-28T11:19:05Z</time>
      </trkpt>
      <trkpt lat="45.6765" lon="6.48543">
        <ele>2024</ele>
        <time>2022-07-28T11:19:06Z</time>
      </trkpt>
      <trkpt lat="45.67651" lon="6.48543">
        <ele>2024</ele>
        <time>2022-07-28T11:19:07Z</time>
      </trkpt>
      <trkpt lat="45.67651" lon="6.48542">
        <ele>2025</ele>
        <time>2022-07-28T11:19:08Z</time>
      </trkpt>
      <trkpt lat="45.67651" lon="6.48541">
        <ele>2026</ele>
        <time>2022-07-28T11:19:09Z</time>
      </trkpt>
      <trkpt lat="45.67651" lon="6.4854">
        <ele>2027</ele>
        <time>2022-07-28T11:19:10Z</time>
      </trkpt>
      <trkpt lat="45.67651" lon="6.48539">
        <ele>2028</ele>
        <time>2022-07-28T11:19:11Z</time>
      </trkpt>
      <trkpt lat="45.67652" lon="6.48538">
        <ele>2028</ele>
        <time>2022-07-28T11:19:12Z</time>
      </trkpt>
      <trkpt lat="45.67652" lon="6.48537">
        <ele>2028</ele>
        <time>2022-07-28T11:19:13Z</time>
      </trkpt>
      <trkpt lat="45.67653" lon="6.48536">
        <ele>2028</ele>
        <time>2022-07-28T11:19:14Z</time>
      </trkpt>
      <trkpt lat="45.67654" lon="6.48535">
        <ele>2028</ele>
        <time>2022-07-28T11:19:15Z</time>
      </trkpt>
      <trkpt lat="45.67654" lon="6.48534">
        <ele>2028</ele>
        <time>2022-07-28T11:19:16Z</time>
      </trkpt>
      <trkpt lat="45.67655" lon="6.48533">
        <ele>2028</ele>
        <time>2022-07-28T11:19:17Z</time>
      </trkpt>
      <trkpt lat="45.67656" lon="6.48532">
        <ele>2028</ele>
        <time>2022-07-28T11:19:18Z</time>
      </trkpt>
      <trkpt lat="45.67656" lon="6.48531">
        <ele>2028</ele>
        <time>2022-07-28T11:19:19Z</time>
      </trkpt>
      <trkpt lat="45.67657" lon="6.4853">
        <ele>2028</ele>
        <time>2022-07-28T11:19:20Z</time>
      </trkpt>
      <trkpt lat="45.67657" lon="6.48529">
        <ele>2028</ele>
        <time>2022-07-28T11:19:21Z</time>
      </trkpt>
      <trkpt lat="45.67658" lon="6.48528">
        <ele>2028</ele>
        <time>2022-07-28T11:19:22Z</time>
      </trkpt>
      <trkpt lat="45.67658" lon="6.48527">
        <ele>2028</ele>
        <time>2022-07-28T11:19:23Z</time>
      </trkpt>
      <trkpt lat="45.67659" lon="6.48525">
        <ele>2028</ele>
        <time>2022-07-28T11:19:24Z</time>
      </trkpt>
      <trkpt lat="45.6766" lon="6.48524">
        <ele>2028</ele>
        <time>2022-07-28T11:19:25Z</time>
      </trkpt>
      <trkpt lat="45.6766" lon="6.48522">
        <ele>2028</ele>
        <time>2022-07-28T11:19:26Z</time>
      </trkpt>
      <trkpt lat="45.67661" lon="6.48521">
        <ele>2028</ele>
        <time>2022-07-28T11:19:27Z</time>
      </trkpt>
      <trkpt lat="45.67662" lon="6.4852">
        <ele>2028</ele>
        <time>2022-07-28T11:19:28Z</time>
      </trkpt>
      <trkpt lat="45.67662" lon="6.48519">
        <ele>2028</ele>
        <time>2022-07-28T11:19:29Z</time>
      </trkpt>
      <trkpt lat="45.67663" lon="6.48518">
        <ele>2028</ele>
        <time>2022-07-28T11:19:30Z</time>
      </trkpt>
      <trkpt lat="45.67664" lon="6.48517">
        <ele>2028</ele>
        <time>2022-07-28T11:19:31Z</time>
      </trkpt>
      <trkpt lat="45.67664" lon="6.48516">
        <ele>2028</ele>
        <time>2022-07-28T11:19:32Z</time>
      </trkpt>
      <trkpt lat="45.67665" lon="6.48515">
        <ele>2028</ele>
        <time>2022-07-28T11:19:33Z</time>
      </trkpt>
      <trkpt lat="45.67665" lon="6.48514">
        <ele>2028</ele>
        <time>2022-07-28T11:19:34Z</time>
      </trkpt>
      <trkpt lat="45.67665" lon="6.48513">
        <ele>2028</ele>
        <time>2022-07-28T11:19:35Z</time>
      </trkpt>
      <trkpt lat="45.67666" lon="6.48512">
        <ele>2028</ele>
        <time>2022-07-28T11:19:36Z</time>
      </trkpt>
      <trkpt lat="45.67666" lon="6.4851">
        <ele>2028</ele>
        <time>2022-07-28T11:19:37Z</time>
      </trkpt>
      <trkpt lat="45.67666" lon="6.48509">
        <ele>2028</ele>
        <time>2022-07-28T11:19:38Z</time>
      </trkpt>
      <trkpt lat="45.67666" lon="6.48508">
        <ele>2028</ele>
        <time>2022-07-28T11:19:39Z</time>
      </trkpt>
      <trkpt lat="45.67667" lon="6.48507">
        <ele>2028</ele>
        <time>2022-07-28T11:19:40Z</time>
      </trkpt>
      <trkpt lat="45.67667" lon="6.48506">
        <ele>2028</ele>
        <time>2022-07-28T11:19:41Z</time>
      </trkpt>
      <trkpt lat="45.67667" lon="6.48505">
        <ele>2028</ele>
        <time>2022-07-28T11:19:42Z</time>
      </trkpt>
      <trkpt lat="45.67668" lon="6.48504">
        <ele>2028</ele>
        <time>2022-07-28T11:19:43Z</time>
      </trkpt>
      <trkpt lat="45.67668" lon="6.48503">
        <ele>2028</ele>
        <time>2022-07-28T11:19:44Z</time>
      </trkpt>
      <trkpt lat="45.67669" lon="6.48502">
        <ele>2028</ele>
        <time>2022-07-28T11:19:45Z</time>
      </trkpt>
      <trkpt lat="45.67669" lon="6.48501">
        <ele>2028</ele>
        <time>2022-07-28T11:19:46Z</time>
      </trkpt>
      <trkpt lat="45.6767" lon="6.485">
        <ele>2028</ele>
        <time>2022-07-28T11:19:47Z</time>
      </trkpt>
      <trkpt lat="45.6767" lon="6.48499">
        <ele>2028</ele>
        <time>2022-07-28T11:19:48Z</time>
      </trkpt>
      <trkpt lat="45.67671" lon="6.48498">
        <ele>2028</ele>
        <time>2022-07-28T11:19:49Z</time>
      </trkpt>
      <trkpt lat="45.67672" lon="6.48497">
        <ele>2028</ele>
        <time>2022-07-28T11:19:50Z</time>
      </trkpt>
      <trkpt lat="45.67672" lon="6.48496">
        <ele>2028</ele>
        <time>2022-07-28T11:19:51Z</time>
      </trkpt>
      <trkpt lat="45.67673" lon="6.48495">
        <ele>2028</ele>
        <time>2022-07-28T11:19:52Z</time>
      </trkpt>
      <trkpt lat="45.67674" lon="6.48494">
        <ele>2028</ele>
        <time>2022-07-28T11:19:53Z</time>
      </trkpt>
      <trkpt lat="45.67675" lon="6.48492">
        <ele>2028</ele>
        <time>2022-07-28T11:19:54Z</time>
      </trkpt>
      <trkpt lat="45.67676" lon="6.48491">
        <ele>2028</ele>
        <time>2022-07-28T11:19:55Z</time>
      </trkpt>
      <trkpt lat="45.67677" lon="6.4849">
        <ele>2028</ele>
        <time>2022-07-28T11:19:56Z</time>
      </trkpt>
      <trkpt lat="45.67678" lon="6.48489">
        <ele>2028</ele>
        <time>2022-07-28T11:19:57Z</time>
      </trkpt>
      <trkpt lat="45.67678" lon="6.48487">
        <ele>2028</ele>
        <time>2022-07-28T11:19:58Z</time>
      </trkpt>
      <trkpt lat="45.67679" lon="6.48486">
        <ele>2028</ele>
        <time>2022-07-28T11:19:59Z</time>
      </trkpt>
      <trkpt lat="45.6768" lon="6.48486">
        <ele>2028</ele>
        <time>2022-07-28T11:20:00Z</time>
      </trkpt>
      <trkpt lat="45.67681" lon="6.48485">
        <ele>2028</ele>
        <time>2022-07-28T11:20:01Z</time>
      </trkpt>
      <trkpt lat="45.67682" lon="6.48484">
        <ele>2028</ele>
        <time>2022-07-28T11:20:02Z</time>
      </trkpt>
      <trkpt lat="45.67683" lon="6.48484">
        <ele>2028</ele>
        <time>2022-07-28T11:20:03Z</time>
      </trkpt>
      <trkpt lat="45.67683" lon="6.48483">
        <ele>2028</ele>
        <time>2022-07-28T11:20:04Z</time>
      </trkpt>
      <trkpt lat="45.67684" lon="6.48483">
        <ele>2028</ele>
        <time>2022-07-28T11:20:05Z</time>
      </trkpt>
      <trkpt lat="45.67685" lon="6.48482">
        <ele>2028</ele>
        <time>2022-07-28T11:20:06Z</time>
      </trkpt>
      <trkpt lat="45.67685" lon="6.48481">
        <ele>2028</ele>
        <time>2022-07-28T11:20:07Z</time>
      </trkpt>
      <trkpt lat="45.67686" lon="6.4848">
        <ele>2028</ele>
        <time>2022-07-28T11:20:08Z</time>
      </trkpt>
      <trkpt lat="45.67686" lon="6.48479">
        <ele>2028</ele>
        <time>2022-07-28T11:20:09Z</time>
      </trkpt>
      <trkpt lat="45.67687" lon="6.48478">
        <ele>2028</ele>
        <time>2022-07-28T11:20:10Z</time>
      </trkpt>
      <trkpt lat="45.67687" lon="6.48477">
        <ele>2028</ele>
        <time>2022-07-28T11:20:11Z</time>
      </trkpt>
      <trkpt lat="45.67688" lon="6.48476">
        <ele>2028</ele>
        <time>2022-07-28T11:20:12Z</time>
      </trkpt>
      <trkpt lat="45.67688" lon="6.48474">
        <ele>2028</ele>
        <time>2022-07-28T11:20:13Z</time>
      </trkpt>
      <trkpt lat="45.67689" lon="6.48473">
        <ele>2028</ele>
        <time>2022-07-28T11:20:14Z</time>
      </trkpt>
      <trkpt lat="45.67689" lon="6.48471">
        <ele>2028</ele>
        <time>2022-07-28T11:20:15Z</time>
      </trkpt>
      <trkpt lat="45.67689" lon="6.48469">
        <ele>2028</ele>
        <time>2022-07-28T11:20:16Z</time>
      </trkpt>
      <trkpt lat="45.67689" lon="6.48467">
        <ele>2028</ele>
        <time>2022-07-28T11:20:17Z</time>
      </trkpt>
      <trkpt lat="45.67689" lon="6.48466">
        <ele>2028</ele>
        <time>2022-07-28T11:20:18Z</time>
      </trkpt>
      <trkpt lat="45.67689" lon="6.48464">
        <ele>2028</ele>
        <time>2022-07-28T11:20:19Z</time>
      </trkpt>
      <trkpt lat="45.67689" lon="6.48463">
        <ele>2028</ele>
        <time>2022-07-28T11:20:20Z</time>
      </trkpt>
      <trkpt lat="45.67689" lon="6.48462">
        <ele>2028</ele>
        <time>2022-07-28T11:20:21Z</time>
      </trkpt>
      <trkpt lat="45.67689" lon="6.4846">
        <ele>2028</ele>
        <time>2022-07-28T11:20:22Z</time>
      </trkpt>
      <trkpt lat="45.67689" lon="6.48459">
        <ele>2028</ele>
        <time>2022-07-28T11:20:23Z</time>
      </trkpt>
      <trkpt lat="45.67688" lon="6.48459">
        <ele>2028</ele>
        <time>2022-07-28T11:20:24Z</time>
      </trkpt>
      <trkpt lat="45.67687" lon="6.48457">
        <ele>2027</ele>
        <time>2022-07-28T11:22:16Z</time>
      </trkpt>
      <trkpt lat="45.67686" lon="6.48456">
        <ele>2026</ele>
        <time>2022-07-28T11:22:17Z</time>
      </trkpt>
      <trkpt lat="45.67685" lon="6.48455">
        <ele>2026</ele>
        <time>2022-07-28T11:22:18Z</time>
      </trkpt>
      <trkpt lat="45.67684" lon="6.48454">
        <ele>2026</ele>
        <time>2022-07-28T11:22:19Z</time>
      </trkpt>
      <trkpt lat="45.67684" lon="6.48453">
        <ele>2026</ele>
        <time>2022-07-28T11:22:20Z</time>
      </trkpt>
      <trkpt lat="45.67684" lon="6.48451">
        <ele>2026</ele>
        <time>2022-07-28T11:22:21Z</time>
      </trkpt>
      <trkpt lat="45.67684" lon="6.4845">
        <ele>2026</ele>
        <time>2022-07-28T11:22:22Z</time>
      </trkpt>
      <trkpt lat="45.67684" lon="6.48448">
        <ele>2026</ele>
        <time>2022-07-28T11:22:23Z</time>
      </trkpt>
      <trkpt lat="45.67685" lon="6.48447">
        <ele>2026</ele>
        <time>2022-07-28T11:22:24Z</time>
      </trkpt>
      <trkpt lat="45.67685" lon="6.48446">
        <ele>2026</ele>
        <time>2022-07-28T11:22:25Z</time>
      </trkpt>
      <trkpt lat="45.67685" lon="6.48444">
        <ele>2026</ele>
        <time>2022-07-28T11:22:26Z</time>
      </trkpt>
      <trkpt lat="45.67686" lon="6.48443">
        <ele>2025</ele>
        <time>2022-07-28T11:22:27Z</time>
      </trkpt>
      <trkpt lat="45.67686" lon="6.48442">
        <ele>2025</ele>
        <time>2022-07-28T11:22:28Z</time>
      </trkpt>
      <trkpt lat="45.67687" lon="6.48441">
        <ele>2025</ele>
        <time>2022-07-28T11:22:29Z</time>
      </trkpt>
      <trkpt lat="45.67687" lon="6.4844">
        <ele>2025</ele>
        <time>2022-07-28T11:22:30Z</time>
      </trkpt>
      <trkpt lat="45.67688" lon="6.48438">
        <ele>2025</ele>
        <time>2022-07-28T11:22:31Z</time>
      </trkpt>
      <trkpt lat="45.67689" lon="6.48437">
        <ele>2024</ele>
        <time>2022-07-28T11:22:32Z</time>
      </trkpt>
      <trkpt lat="45.67689" lon="6.48436">
        <ele>2024</ele>
        <time>2022-07-28T11:22:33Z</time>
      </trkpt>
      <trkpt lat="45.6769" lon="6.48435">
        <ele>2024</ele>
        <time>2022-07-28T11:22:34Z</time>
      </trkpt>
      <trkpt lat="45.6769" lon="6.48434">
        <ele>2024</ele>
        <time>2022-07-28T11:22:35Z</time>
      </trkpt>
      <trkpt lat="45.67691" lon="6.48433">
        <ele>2024</ele>
        <time>2022-07-28T11:22:36Z</time>
      </trkpt>
      <trkpt lat="45.67691" lon="6.48432">
        <ele>2023</ele>
        <time>2022-07-28T11:22:37Z</time>
      </trkpt>
      <trkpt lat="45.67691" lon="6.48431">
        <ele>2023</ele>
        <time>2022-07-28T11:22:38Z</time>
      </trkpt>
      <trkpt lat="45.67691" lon="6.4843">
        <ele>2023</ele>
        <time>2022-07-28T11:22:39Z</time>
      </trkpt>
      <trkpt lat="45.67691" lon="6.48429">
        <ele>2023</ele>
        <time>2022-07-28T11:22:40Z</time>
      </trkpt>
      <trkpt lat="45.67691" lon="6.48428">
        <ele>2023</ele>
        <time>2022-07-28T11:22:41Z</time>
      </trkpt>
      <trkpt lat="45.67691" lon="6.48427">
        <ele>2022</ele>
        <time>2022-07-28T11:22:42Z</time>
      </trkpt>
      <trkpt lat="45.67691" lon="6.48426">
        <ele>2022</ele>
        <time>2022-07-28T11:22:43Z</time>
      </trkpt>
      <trkpt lat="45.67691" lon="6.48425">
        <ele>2022</ele>
        <time>2022-07-28T11:22:44Z</time>
      </trkpt>
      <trkpt lat="45.67691" lon="6.48424">
        <ele>2022</ele>
        <time>2022-07-28T11:22:45Z</time>
      </trkpt>
      <trkpt lat="45.67691" lon="6.48423">
        <ele>2022</ele>
        <time>2022-07-28T11:22:46Z</time>
      </trkpt>
      <trkpt lat="45.67691" lon="6.48422">
        <ele>2022</ele>
        <time>2022-07-28T11:22:47Z</time>
      </trkpt>
      <trkpt lat="45.67691" lon="6.48421">
        <ele>2022</ele>
        <time>2022-07-28T11:22:48Z</time>
      </trkpt>
      <trkpt lat="45.67691" lon="6.48421">
        <ele>2022</ele>
        <time>2022-07-28T11:22:49Z</time>
      </trkpt>
      <trkpt lat="45.67691" lon="6.4842">
        <ele>2022</ele>
        <time>2022-07-28T11:22:50Z</time>
      </trkpt>
      <trkpt lat="45.67691" lon="6.48419">
        <ele>2022</ele>
        <time>2022-07-28T11:22:51Z</time>
      </trkpt>
      <trkpt lat="45.67691" lon="6.48418">
        <ele>2021</ele>
        <time>2022-07-28T11:22:52Z</time>
      </trkpt>
      <trkpt lat="45.67691" lon="6.48417">
        <ele>2021</ele>
        <time>2022-07-28T11:22:53Z</time>
      </trkpt>
      <trkpt lat="45.67691" lon="6.48415">
        <ele>2021</ele>
        <time>2022-07-28T11:22:54Z</time>
      </trkpt>
      <trkpt lat="45.67691" lon="6.48414">
        <ele>2021</ele>
        <time>2022-07-28T11:22:55Z</time>
      </trkpt>
      <trkpt lat="45.67691" lon="6.48412">
        <ele>2021</ele>
        <time>2022-07-28T11:22:56Z</time>
      </trkpt>
      <trkpt lat="45.67691" lon="6.48411">
        <ele>2020</ele>
        <time>2022-07-28T11:22:57Z</time>
      </trkpt>
      <trkpt lat="45.67691" lon="6.4841">
        <ele>2020</ele>
        <time>2022-07-28T11:22:58Z</time>
      </trkpt>
      <trkpt lat="45.67691" lon="6.48408">
        <ele>2020</ele>
        <time>2022-07-28T11:22:59Z</time>
      </trkpt>
      <trkpt lat="45.67691" lon="6.48407">
        <ele>2020</ele>
        <time>2022-07-28T11:23:00Z</time>
      </trkpt>
      <trkpt lat="45.67691" lon="6.48406">
        <ele>2020</ele>
        <time>2022-07-28T11:23:01Z</time>
      </trkpt>
      <trkpt lat="45.6769" lon="6.48405">
        <ele>2020</ele>
        <time>2022-07-28T11:23:02Z</time>
      </trkpt>
      <trkpt lat="45.67691" lon="6.48403">
        <ele>2020</ele>
        <time>2022-07-28T11:23:03Z</time>
      </trkpt>
      <trkpt lat="45.67691" lon="6.48402">
        <ele>2020</ele>
        <time>2022-07-28T11:23:04Z</time>
      </trkpt>
      <trkpt lat="45.67691" lon="6.484">
        <ele>2020</ele>
        <time>2022-07-28T11:23:05Z</time>
      </trkpt>
      <trkpt lat="45.67691" lon="6.48399">
        <ele>2020</ele>
        <time>2022-07-28T11:23:06Z</time>
      </trkpt>
      <trkpt lat="45.67691" lon="6.48397">
        <ele>2019</ele>
        <time>2022-07-28T11:23:07Z</time>
      </trkpt>
      <trkpt lat="45.67692" lon="6.48396">
        <ele>2019</ele>
        <time>2022-07-28T11:23:08Z</time>
      </trkpt>
      <trkpt lat="45.67692" lon="6.48394">
        <ele>2019</ele>
        <time>2022-07-28T11:23:09Z</time>
      </trkpt>
      <trkpt lat="45.67692" lon="6.48393">
        <ele>2019</ele>
        <time>2022-07-28T11:23:10Z</time>
      </trkpt>
      <trkpt lat="45.67693" lon="6.48392">
        <ele>2019</ele>
        <time>2022-07-28T11:23:11Z</time>
      </trkpt>
      <trkpt lat="45.67693" lon="6.48391">
        <ele>2018</ele>
        <time>2022-07-28T11:23:12Z</time>
      </trkpt>
      <trkpt lat="45.67693" lon="6.4839">
        <ele>2018</ele>
        <time>2022-07-28T11:23:13Z</time>
      </trkpt>
      <trkpt lat="45.67694" lon="6.48389">
        <ele>2018</ele>
        <time>2022-07-28T11:23:14Z</time>
      </trkpt>
      <trkpt lat="45.67694" lon="6.48388">
        <ele>2018</ele>
        <time>2022-07-28T11:23:15Z</time>
      </trkpt>
      <trkpt lat="45.67694" lon="6.48387">
        <ele>2018</ele>
        <time>2022-07-28T11:23:16Z</time>
      </trkpt>
      <trkpt lat="45.67695" lon="6.48385">
        <ele>2017</ele>
        <time>2022-07-28T11:23:17Z</time>
      </trkpt>
      <trkpt lat="45.67695" lon="6.48384">
        <ele>2017</ele>
        <time>2022-07-28T11:23:18Z</time>
      </trkpt>
      <trkpt lat="45.67695" lon="6.48383">
        <ele>2017</ele>
        <time>2022-07-28T11:23:19Z</time>
      </trkpt>
      <trkpt lat="45.67695" lon="6.48382">
        <ele>2017</ele>
        <time>2022-07-28T11:23:20Z</time>
      </trkpt>
      <trkpt lat="45.67696" lon="6.48381">
        <ele>2017</ele>
        <time>2022-07-28T11:23:21Z</time>
      </trkpt>
      <trkpt lat="45.67696" lon="6.4838">
        <ele>2016</ele>
        <time>2022-07-28T11:23:22Z</time>
      </trkpt>
      <trkpt lat="45.67696" lon="6.48378">
        <ele>2016</ele>
        <time>2022-07-28T11:23:23Z</time>
      </trkpt>
      <trkpt lat="45.67696" lon="6.48377">
        <ele>2016</ele>
        <time>2022-07-28T11:23:24Z</time>
      </trkpt>
      <trkpt lat="45.67697" lon="6.48376">
        <ele>2016</ele>
        <time>2022-07-28T11:23:25Z</time>
      </trkpt>
      <trkpt lat="45.67697" lon="6.48374">
        <ele>2016</ele>
        <time>2022-07-28T11:23:26Z</time>
      </trkpt>
      <trkpt lat="45.67697" lon="6.48373">
        <ele>2015</ele>
        <time>2022-07-28T11:23:27Z</time>
      </trkpt>
      <trkpt lat="45.67698" lon="6.48372">
        <ele>2015</ele>
        <time>2022-07-28T11:23:28Z</time>
      </trkpt>
      <trkpt lat="45.67698" lon="6.4837">
        <ele>2015</ele>
        <time>2022-07-28T11:23:29Z</time>
      </trkpt>
      <trkpt lat="45.67698" lon="6.48369">
        <ele>2015</ele>
        <time>2022-07-28T11:23:30Z</time>
      </trkpt>
      <trkpt lat="45.67698" lon="6.48367">
        <ele>2015</ele>
        <time>2022-07-28T11:23:31Z</time>
      </trkpt>
      <trkpt lat="45.67699" lon="6.48366">
        <ele>2015</ele>
        <time>2022-07-28T11:23:32Z</time>
      </trkpt>
      <trkpt lat="45.67699" lon="6.48364">
        <ele>2015</ele>
        <time>2022-07-28T11:23:33Z</time>
      </trkpt>
      <trkpt lat="45.67699" lon="6.48363">
        <ele>2015</ele>
        <time>2022-07-28T11:23:34Z</time>
      </trkpt>
      <trkpt lat="45.67699" lon="6.48362">
        <ele>2015</ele>
        <time>2022-07-28T11:23:35Z</time>
      </trkpt>
      <trkpt lat="45.677" lon="6.48361">
        <ele>2015</ele>
        <time>2022-07-28T11:23:36Z</time>
      </trkpt>
      <trkpt lat="45.677" lon="6.4836">
        <ele>2014</ele>
        <time>2022-07-28T11:23:37Z</time>
      </trkpt>
      <trkpt lat="45.67701" lon="6.48359">
        <ele>2014</ele>
        <time>2022-07-28T11:23:38Z</time>
      </trkpt>
      <trkpt lat="45.67702" lon="6.48358">
        <ele>2013</ele>
        <time>2022-07-28T11:23:39Z</time>
      </trkpt>
      <trkpt lat="45.67702" lon="6.48358">
        <ele>2013</ele>
        <time>2022-07-28T11:23:40Z</time>
      </trkpt>
      <trkpt lat="45.67703" lon="6.48357">
        <ele>2013</ele>
        <time>2022-07-28T11:23:41Z</time>
      </trkpt>
      <trkpt lat="45.67704" lon="6.48356">
        <ele>2013</ele>
        <time>2022-07-28T11:23:42Z</time>
      </trkpt>
      <trkpt lat="45.67705" lon="6.48355">
        <ele>2013</ele>
        <time>2022-07-28T11:23:43Z</time>
      </trkpt>
      <trkpt lat="45.67706" lon="6.48355">
        <ele>2013</ele>
        <time>2022-07-28T11:23:44Z</time>
      </trkpt>
      <trkpt lat="45.67707" lon="6.48354">
        <ele>2013</ele>
        <time>2022-07-28T11:23:45Z</time>
      </trkpt>
      <trkpt lat="45.67707" lon="6.48353">
        <ele>2013</ele>
        <time>2022-07-28T11:23:46Z</time>
      </trkpt>
      <trkpt lat="45.67708" lon="6.48353">
        <ele>2012</ele>
        <time>2022-07-28T11:23:47Z</time>
      </trkpt>
      <trkpt lat="45.67709" lon="6.48352">
        <ele>2012</ele>
        <time>2022-07-28T11:23:48Z</time>
      </trkpt>
      <trkpt lat="45.6771" lon="6.48352">
        <ele>2012</ele>
        <time>2022-07-28T11:23:49Z</time>
      </trkpt>
      <trkpt lat="45.67711" lon="6.48352">
        <ele>2012</ele>
        <time>2022-07-28T11:23:50Z</time>
      </trkpt>
      <trkpt lat="45.67711" lon="6.48351">
        <ele>2012</ele>
        <time>2022-07-28T11:23:51Z</time>
      </trkpt>
      <trkpt lat="45.67712" lon="6.4835">
        <ele>2012</ele>
        <time>2022-07-28T11:23:52Z</time>
      </trkpt>
      <trkpt lat="45.67712" lon="6.48349">
        <ele>2012</ele>
        <time>2022-07-28T11:23:53Z</time>
      </trkpt>
      <trkpt lat="45.67712" lon="6.48348">
        <ele>2012</ele>
        <time>2022-07-28T11:23:54Z</time>
      </trkpt>
      <trkpt lat="45.67713" lon="6.48347">
        <ele>2012</ele>
        <time>2022-07-28T11:23:55Z</time>
      </trkpt>
      <trkpt lat="45.67713" lon="6.48346">
        <ele>2012</ele>
        <time>2022-07-28T11:23:56Z</time>
      </trkpt>
      <trkpt lat="45.67713" lon="6.48344">
        <ele>2011</ele>
        <time>2022-07-28T11:23:57Z</time>
      </trkpt>
      <trkpt lat="45.67714" lon="6.48343">
        <ele>2011</ele>
        <time>2022-07-28T11:23:58Z</time>
      </trkpt>
      <trkpt lat="45.67714" lon="6.48342">
        <ele>2011</ele>
        <time>2022-07-28T11:23:59Z</time>
      </trkpt>
      <trkpt lat="45.67714" lon="6.48341">
        <ele>2011</ele>
        <time>2022-07-28T11:24:00Z</time>
      </trkpt>
      <trkpt lat="45.67714" lon="6.4834">
        <ele>2011</ele>
        <time>2022-07-28T11:24:01Z</time>
      </trkpt>
      <trkpt lat="45.67714" lon="6.4834">
        <ele>2011</ele>
        <time>2022-07-28T11:24:02Z</time>
      </trkpt>
      <trkpt lat="45.67714" lon="6.4834">
        <ele>2011</ele>
        <time>2022-07-28T11:24:03Z</time>
      </trkpt>
      <trkpt lat="45.67714" lon="6.48339">
        <ele>2011</ele>
        <time>2022-07-28T11:24:04Z</time>
      </trkpt>
      <trkpt lat="45.67714" lon="6.48339">
        <ele>2011</ele>
        <time>2022-07-28T11:24:05Z</time>
      </trkpt>
      <trkpt lat="45.67714" lon="6.48339">
        <ele>2011</ele>
        <time>2022-07-28T11:24:06Z</time>
      </trkpt>
      <trkpt lat="45.67714" lon="6.48337">
        <ele>2011</ele>
        <time>2022-07-28T11:24:07Z</time>
      </trkpt>
      <trkpt lat="45.67714" lon="6.48336">
        <ele>2011</ele>
        <time>2022-07-28T11:24:08Z</time>
      </trkpt>
      <trkpt lat="45.67714" lon="6.48335">
        <ele>2011</ele>
        <time>2022-07-28T11:24:09Z</time>
      </trkpt>
      <trkpt lat="45.67714" lon="6.48334">
        <ele>2011</ele>
        <time>2022-07-28T11:24:10Z</time>
      </trkpt>
      <trkpt lat="45.67715" lon="6.48333">
        <ele>2011</ele>
        <time>2022-07-28T11:24:11Z</time>
      </trkpt>
      <trkpt lat="45.67715" lon="6.48332">
        <ele>2011</ele>
        <time>2022-07-28T11:24:12Z</time>
      </trkpt>
      <trkpt lat="45.67715" lon="6.4833">
        <ele>2011</ele>
        <time>2022-07-28T11:24:13Z</time>
      </trkpt>
      <trkpt lat="45.67716" lon="6.48329">
        <ele>2011</ele>
        <time>2022-07-28T11:24:14Z</time>
      </trkpt>
      <trkpt lat="45.67716" lon="6.48328">
        <ele>2011</ele>
        <time>2022-07-28T11:24:15Z</time>
      </trkpt>
      <trkpt lat="45.67717" lon="6.48326">
        <ele>2011</ele>
        <time>2022-07-28T11:24:16Z</time>
      </trkpt>
      <trkpt lat="45.67717" lon="6.48325">
        <ele>2011</ele>
        <time>2022-07-28T11:24:17Z</time>
      </trkpt>
      <trkpt lat="45.67717" lon="6.48323">
        <ele>2011</ele>
        <time>2022-07-28T11:24:18Z</time>
      </trkpt>
      <trkpt lat="45.67717" lon="6.48322">
        <ele>2011</ele>
        <time>2022-07-28T11:24:19Z</time>
      </trkpt>
      <trkpt lat="45.67718" lon="6.48321">
        <ele>2011</ele>
        <time>2022-07-28T11:24:20Z</time>
      </trkpt>
      <trkpt lat="45.67718" lon="6.4832">
        <ele>2011</ele>
        <time>2022-07-28T11:24:21Z</time>
      </trkpt>
      <trkpt lat="45.67718" lon="6.48319">
        <ele>2011</ele>
        <time>2022-07-28T11:24:22Z</time>
      </trkpt>
      <trkpt lat="45.67718" lon="6.48318">
        <ele>2011</ele>
        <time>2022-07-28T11:24:23Z</time>
      </trkpt>
      <trkpt lat="45.67718" lon="6.48317">
        <ele>2011</ele>
        <time>2022-07-28T11:24:24Z</time>
      </trkpt>
      <trkpt lat="45.67718" lon="6.48316">
        <ele>2011</ele>
        <time>2022-07-28T11:24:25Z</time>
      </trkpt>
      <trkpt lat="45.67719" lon="6.48316">
        <ele>2011</ele>
        <time>2022-07-28T11:24:26Z</time>
      </trkpt>
      <trkpt lat="45.67719" lon="6.48315">
        <ele>2011</ele>
        <time>2022-07-28T11:24:27Z</time>
      </trkpt>
      <trkpt lat="45.67719" lon="6.48314">
        <ele>2011</ele>
        <time>2022-07-28T11:24:28Z</time>
      </trkpt>
      <trkpt lat="45.67719" lon="6.48313">
        <ele>2011</ele>
        <time>2022-07-28T11:24:29Z</time>
      </trkpt>
      <trkpt lat="45.67719" lon="6.48311">
        <ele>2011</ele>
        <time>2022-07-28T11:24:30Z</time>
      </trkpt>
      <trkpt lat="45.67719" lon="6.4831">
        <ele>2012</ele>
        <time>2022-07-28T11:24:31Z</time>
      </trkpt>
      <trkpt lat="45.67719" lon="6.48309">
        <ele>2012</ele>
        <time>2022-07-28T11:24:32Z</time>
      </trkpt>
      <trkpt lat="45.67719" lon="6.48308">
        <ele>2012</ele>
        <time>2022-07-28T11:24:33Z</time>
      </trkpt>
      <trkpt lat="45.6772" lon="6.48307">
        <ele>2012</ele>
        <time>2022-07-28T11:24:34Z</time>
      </trkpt>
      <trkpt lat="45.6772" lon="6.48306">
        <ele>2012</ele>
        <time>2022-07-28T11:24:35Z</time>
      </trkpt>
      <trkpt lat="45.6772" lon="6.48305">
        <ele>2012</ele>
        <time>2022-07-28T11:24:36Z</time>
      </trkpt>
      <trkpt lat="45.6772" lon="6.48303">
        <ele>2012</ele>
        <time>2022-07-28T11:24:37Z</time>
      </trkpt>
      <trkpt lat="45.67721" lon="6.48302">
        <ele>2012</ele>
        <time>2022-07-28T11:24:38Z</time>
      </trkpt>
      <trkpt lat="45.67721" lon="6.48301">
        <ele>2012</ele>
        <time>2022-07-28T11:24:39Z</time>
      </trkpt>
      <trkpt lat="45.67721" lon="6.483">
        <ele>2012</ele>
        <time>2022-07-28T11:24:40Z</time>
      </trkpt>
      <trkpt lat="45.67721" lon="6.48298">
        <ele>2012</ele>
        <time>2022-07-28T11:24:41Z</time>
      </trkpt>
      <trkpt lat="45.67721" lon="6.48297">
        <ele>2012</ele>
        <time>2022-07-28T11:24:42Z</time>
      </trkpt>
      <trkpt lat="45.67721" lon="6.48296">
        <ele>2012</ele>
        <time>2022-07-28T11:24:43Z</time>
      </trkpt>
      <trkpt lat="45.67722" lon="6.48295">
        <ele>2012</ele>
        <time>2022-07-28T11:24:44Z</time>
      </trkpt>
      <trkpt lat="45.67722" lon="6.48294">
        <ele>2012</ele>
        <time>2022-07-28T11:24:45Z</time>
      </trkpt>
      <trkpt lat="45.67722" lon="6.48293">
        <ele>2013</ele>
        <time>2022-07-28T11:24:46Z</time>
      </trkpt>
      <trkpt lat="45.67723" lon="6.48292">
        <ele>2013</ele>
        <time>2022-07-28T11:24:47Z</time>
      </trkpt>
      <trkpt lat="45.67723" lon="6.4829">
        <ele>2014</ele>
        <time>2022-07-28T11:24:54Z</time>
      </trkpt>
      <trkpt lat="45.67723" lon="6.48289">
        <ele>2014</ele>
        <time>2022-07-28T11:24:55Z</time>
      </trkpt>
      <trkpt lat="45.67723" lon="6.48288">
        <ele>2014</ele>
        <time>2022-07-28T11:24:56Z</time>
      </trkpt>
      <trkpt lat="45.67723" lon="6.48288">
        <ele>2014</ele>
        <time>2022-07-28T11:24:57Z</time>
      </trkpt>
      <trkpt lat="45.67723" lon="6.48287">
        <ele>2014</ele>
        <time>2022-07-28T11:24:58Z</time>
      </trkpt>
      <trkpt lat="45.67722" lon="6.48286">
        <ele>2014</ele>
        <time>2022-07-28T11:24:59Z</time>
      </trkpt>
      <trkpt lat="45.67722" lon="6.48285">
        <ele>2014</ele>
        <time>2022-07-28T11:25:00Z</time>
      </trkpt>
      <trkpt lat="45.67722" lon="6.48283">
        <ele>2015</ele>
        <time>2022-07-28T11:25:01Z</time>
      </trkpt>
      <trkpt lat="45.67721" lon="6.48282">
        <ele>2015</ele>
        <time>2022-07-28T11:25:02Z</time>
      </trkpt>
      <trkpt lat="45.67721" lon="6.48281">
        <ele>2015</ele>
        <time>2022-07-28T11:25:03Z</time>
      </trkpt>
      <trkpt lat="45.67721" lon="6.48279">
        <ele>2015</ele>
        <time>2022-07-28T11:25:04Z</time>
      </trkpt>
      <trkpt lat="45.6772" lon="6.48278">
        <ele>2015</ele>
        <time>2022-07-28T11:25:05Z</time>
      </trkpt>
      <trkpt lat="45.6772" lon="6.48277">
        <ele>2015</ele>
        <time>2022-07-28T11:25:06Z</time>
      </trkpt>
      <trkpt lat="45.67719" lon="6.48276">
        <ele>2015</ele>
        <time>2022-07-28T11:25:07Z</time>
      </trkpt>
      <trkpt lat="45.67719" lon="6.48275">
        <ele>2015</ele>
        <time>2022-07-28T11:25:08Z</time>
      </trkpt>
      <trkpt lat="45.67718" lon="6.48273">
        <ele>2015</ele>
        <time>2022-07-28T11:25:15Z</time>
      </trkpt>
      <trkpt lat="45.67717" lon="6.48272">
        <ele>2016</ele>
        <time>2022-07-28T11:25:16Z</time>
      </trkpt>
      <trkpt lat="45.67717" lon="6.48272">
        <ele>2016</ele>
        <time>2022-07-28T11:25:17Z</time>
      </trkpt>
      <trkpt lat="45.67717" lon="6.48271">
        <ele>2016</ele>
        <time>2022-07-28T11:25:18Z</time>
      </trkpt>
      <trkpt lat="45.67717" lon="6.4827">
        <ele>2016</ele>
        <time>2022-07-28T11:25:19Z</time>
      </trkpt>
      <trkpt lat="45.67717" lon="6.48268">
        <ele>2016</ele>
        <time>2022-07-28T11:25:20Z</time>
      </trkpt>
      <trkpt lat="45.67717" lon="6.48267">
        <ele>2016</ele>
        <time>2022-07-28T11:25:21Z</time>
      </trkpt>
      <trkpt lat="45.67718" lon="6.48265">
        <ele>2016</ele>
        <time>2022-07-28T11:25:22Z</time>
      </trkpt>
      <trkpt lat="45.67719" lon="6.48264">
        <ele>2016</ele>
        <time>2022-07-28T11:25:23Z</time>
      </trkpt>
      <trkpt lat="45.6772" lon="6.48263">
        <ele>2016</ele>
        <time>2022-07-28T11:25:24Z</time>
      </trkpt>
      <trkpt lat="45.67721" lon="6.48262">
        <ele>2016</ele>
        <time>2022-07-28T11:25:25Z</time>
      </trkpt>
      <trkpt lat="45.67721" lon="6.48261">
        <ele>2016</ele>
        <time>2022-07-28T11:25:26Z</time>
      </trkpt>
      <trkpt lat="45.67722" lon="6.4826">
        <ele>2016</ele>
        <time>2022-07-28T11:25:27Z</time>
      </trkpt>
      <trkpt lat="45.67723" lon="6.48259">
        <ele>2016</ele>
        <time>2022-07-28T11:25:28Z</time>
      </trkpt>
      <trkpt lat="45.67724" lon="6.48258">
        <ele>2016</ele>
        <time>2022-07-28T11:25:29Z</time>
      </trkpt>
      <trkpt lat="45.67724" lon="6.48257">
        <ele>2016</ele>
        <time>2022-07-28T11:25:30Z</time>
      </trkpt>
      <trkpt lat="45.67725" lon="6.48256">
        <ele>2017</ele>
        <time>2022-07-28T11:25:31Z</time>
      </trkpt>
      <trkpt lat="45.67725" lon="6.48256">
        <ele>2017</ele>
        <time>2022-07-28T11:25:32Z</time>
      </trkpt>
      <trkpt lat="45.67726" lon="6.48255">
        <ele>2017</ele>
        <time>2022-07-28T11:25:33Z</time>
      </trkpt>
      <trkpt lat="45.67726" lon="6.48254">
        <ele>2017</ele>
        <time>2022-07-28T11:25:34Z</time>
      </trkpt>
      <trkpt lat="45.67726" lon="6.48253">
        <ele>2017</ele>
        <time>2022-07-28T11:25:35Z</time>
      </trkpt>
      <trkpt lat="45.67726" lon="6.48252">
        <ele>2017</ele>
        <time>2022-07-28T11:25:36Z</time>
      </trkpt>
      <trkpt lat="45.67727" lon="6.48251">
        <ele>2017</ele>
        <time>2022-07-28T11:25:37Z</time>
      </trkpt>
      <trkpt lat="45.67727" lon="6.4825">
        <ele>2017</ele>
        <time>2022-07-28T11:25:38Z</time>
      </trkpt>
      <trkpt lat="45.67727" lon="6.48249">
        <ele>2017</ele>
        <time>2022-07-28T11:25:39Z</time>
      </trkpt>
      <trkpt lat="45.67728" lon="6.48248">
        <ele>2017</ele>
        <time>2022-07-28T11:25:40Z</time>
      </trkpt>
      <trkpt lat="45.67728" lon="6.48247">
        <ele>2018</ele>
        <time>2022-07-28T11:25:41Z</time>
      </trkpt>
      <trkpt lat="45.67728" lon="6.48245">
        <ele>2018</ele>
        <time>2022-07-28T11:25:42Z</time>
      </trkpt>
      <trkpt lat="45.67729" lon="6.48244">
        <ele>2018</ele>
        <time>2022-07-28T11:25:43Z</time>
      </trkpt>
      <trkpt lat="45.6773" lon="6.48242">
        <ele>2018</ele>
        <time>2022-07-28T11:25:44Z</time>
      </trkpt>
      <trkpt lat="45.6773" lon="6.48241">
        <ele>2018</ele>
        <time>2022-07-28T11:25:45Z</time>
      </trkpt>
      <trkpt lat="45.67731" lon="6.4824">
        <ele>2018</ele>
        <time>2022-07-28T11:25:46Z</time>
      </trkpt>
      <trkpt lat="45.67732" lon="6.48239">
        <ele>2018</ele>
        <time>2022-07-28T11:25:47Z</time>
      </trkpt>
      <trkpt lat="45.67732" lon="6.48238">
        <ele>2018</ele>
        <time>2022-07-28T11:25:48Z</time>
      </trkpt>
      <trkpt lat="45.67733" lon="6.48237">
        <ele>2018</ele>
        <time>2022-07-28T11:25:49Z</time>
      </trkpt>
      <trkpt lat="45.67734" lon="6.48236">
        <ele>2018</ele>
        <time>2022-07-28T11:25:50Z</time>
      </trkpt>
      <trkpt lat="45.67735" lon="6.48235">
        <ele>2019</ele>
        <time>2022-07-28T11:25:51Z</time>
      </trkpt>
      <trkpt lat="45.67735" lon="6.48235">
        <ele>2019</ele>
        <time>2022-07-28T11:25:52Z</time>
      </trkpt>
      <trkpt lat="45.67736" lon="6.48234">
        <ele>2019</ele>
        <time>2022-07-28T11:25:53Z</time>
      </trkpt>
      <trkpt lat="45.67737" lon="6.48234">
        <ele>2019</ele>
        <time>2022-07-28T11:25:54Z</time>
      </trkpt>
      <trkpt lat="45.67737" lon="6.48234">
        <ele>2019</ele>
        <time>2022-07-28T11:25:55Z</time>
      </trkpt>
      <trkpt lat="45.67738" lon="6.48233">
        <ele>2019</ele>
        <time>2022-07-28T11:25:56Z</time>
      </trkpt>
      <trkpt lat="45.67739" lon="6.48232">
        <ele>2019</ele>
        <time>2022-07-28T11:25:57Z</time>
      </trkpt>
      <trkpt lat="45.6774" lon="6.48232">
        <ele>2019</ele>
        <time>2022-07-28T11:25:58Z</time>
      </trkpt>
      <trkpt lat="45.6774" lon="6.48231">
        <ele>2019</ele>
        <time>2022-07-28T11:25:59Z</time>
      </trkpt>
      <trkpt lat="45.67741" lon="6.4823">
        <ele>2019</ele>
        <time>2022-07-28T11:26:00Z</time>
      </trkpt>
      <trkpt lat="45.67741" lon="6.48229">
        <ele>2019</ele>
        <time>2022-07-28T11:26:01Z</time>
      </trkpt>
      <trkpt lat="45.67742" lon="6.48228">
        <ele>2019</ele>
        <time>2022-07-28T11:26:02Z</time>
      </trkpt>
      <trkpt lat="45.67742" lon="6.48227">
        <ele>2019</ele>
        <time>2022-07-28T11:26:03Z</time>
      </trkpt>
      <trkpt lat="45.67743" lon="6.48226">
        <ele>2019</ele>
        <time>2022-07-28T11:26:04Z</time>
      </trkpt>
      <trkpt lat="45.67743" lon="6.48225">
        <ele>2019</ele>
        <time>2022-07-28T11:26:05Z</time>
      </trkpt>
      <trkpt lat="45.67744" lon="6.48224">
        <ele>2019</ele>
        <time>2022-07-28T11:26:06Z</time>
      </trkpt>
      <trkpt lat="45.67745" lon="6.48223">
        <ele>2018</ele>
        <time>2022-07-28T11:26:07Z</time>
      </trkpt>
      <trkpt lat="45.67745" lon="6.48222">
        <ele>2018</ele>
        <time>2022-07-28T11:26:08Z</time>
      </trkpt>
      <trkpt lat="45.67748" lon="6.48222">
        <ele>2017</ele>
        <time>2022-07-28T11:26:36Z</time>
      </trkpt>
      <trkpt lat="45.67749" lon="6.48221">
        <ele>2017</ele>
        <time>2022-07-28T11:26:37Z</time>
      </trkpt>
      <trkpt lat="45.6775" lon="6.48221">
        <ele>2017</ele>
        <time>2022-07-28T11:26:38Z</time>
      </trkpt>
      <trkpt lat="45.67752" lon="6.48219">
        <ele>2016</ele>
        <time>2022-07-28T11:26:54Z</time>
      </trkpt>
      <trkpt lat="45.67752" lon="6.48218">
        <ele>2016</ele>
        <time>2022-07-28T11:26:55Z</time>
      </trkpt>
      <trkpt lat="45.67753" lon="6.48218">
        <ele>2016</ele>
        <time>2022-07-28T11:26:56Z</time>
      </trkpt>
      <trkpt lat="45.67754" lon="6.48217">
        <ele>2015</ele>
        <time>2022-07-28T11:26:57Z</time>
      </trkpt>
      <trkpt lat="45.67754" lon="6.48216">
        <ele>2015</ele>
        <time>2022-07-28T11:26:58Z</time>
      </trkpt>
      <trkpt lat="45.67755" lon="6.48216">
        <ele>2015</ele>
        <time>2022-07-28T11:26:59Z</time>
      </trkpt>
      <trkpt lat="45.67755" lon="6.48215">
        <ele>2015</ele>
        <time>2022-07-28T11:27:00Z</time>
      </trkpt>
      <trkpt lat="45.67755" lon="6.48214">
        <ele>2015</ele>
        <time>2022-07-28T11:27:01Z</time>
      </trkpt>
      <trkpt lat="45.67756" lon="6.48214">
        <ele>2015</ele>
        <time>2022-07-28T11:27:02Z</time>
      </trkpt>
      <trkpt lat="45.67756" lon="6.48213">
        <ele>2015</ele>
        <time>2022-07-28T11:27:03Z</time>
      </trkpt>
      <trkpt lat="45.67757" lon="6.48212">
        <ele>2015</ele>
        <time>2022-07-28T11:27:04Z</time>
      </trkpt>
      <trkpt lat="45.67757" lon="6.4821">
        <ele>2015</ele>
        <time>2022-07-28T11:27:05Z</time>
      </trkpt>
      <trkpt lat="45.67757" lon="6.48209">
        <ele>2015</ele>
        <time>2022-07-28T11:27:06Z</time>
      </trkpt>
      <trkpt lat="45.67758" lon="6.48208">
        <ele>2014</ele>
        <time>2022-07-28T11:27:07Z</time>
      </trkpt>
      <trkpt lat="45.67758" lon="6.48207">
        <ele>2014</ele>
        <time>2022-07-28T11:27:08Z</time>
      </trkpt>
      <trkpt lat="45.67758" lon="6.48205">
        <ele>2014</ele>
        <time>2022-07-28T11:27:09Z</time>
      </trkpt>
      <trkpt lat="45.67758" lon="6.48204">
        <ele>2014</ele>
        <time>2022-07-28T11:27:10Z</time>
      </trkpt>
      <trkpt lat="45.67758" lon="6.48203">
        <ele>2014</ele>
        <time>2022-07-28T11:27:11Z</time>
      </trkpt>
      <trkpt lat="45.67758" lon="6.48201">
        <ele>2014</ele>
        <time>2022-07-28T11:27:12Z</time>
      </trkpt>
      <trkpt lat="45.67757" lon="6.48199">
        <ele>2014</ele>
        <time>2022-07-28T11:27:13Z</time>
      </trkpt>
      <trkpt lat="45.67757" lon="6.48198">
        <ele>2014</ele>
        <time>2022-07-28T11:27:14Z</time>
      </trkpt>
      <trkpt lat="45.67757" lon="6.48196">
        <ele>2014</ele>
        <time>2022-07-28T11:27:15Z</time>
      </trkpt>
      <trkpt lat="45.67756" lon="6.48194">
        <ele>2014</ele>
        <time>2022-07-28T11:27:16Z</time>
      </trkpt>
      <trkpt lat="45.67756" lon="6.48193">
        <ele>2014</ele>
        <time>2022-07-28T11:27:17Z</time>
      </trkpt>
      <trkpt lat="45.67756" lon="6.48191">
        <ele>2014</ele>
        <time>2022-07-28T11:27:18Z</time>
      </trkpt>
      <trkpt lat="45.67756" lon="6.48189">
        <ele>2014</ele>
        <time>2022-07-28T11:27:19Z</time>
      </trkpt>
      <trkpt lat="45.67756" lon="6.48187">
        <ele>2014</ele>
        <time>2022-07-28T11:27:20Z</time>
      </trkpt>
      <trkpt lat="45.67757" lon="6.48186">
        <ele>2015</ele>
        <time>2022-07-28T11:27:21Z</time>
      </trkpt>
      <trkpt lat="45.67757" lon="6.48184">
        <ele>2014</ele>
        <time>2022-07-28T11:27:22Z</time>
      </trkpt>
      <trkpt lat="45.67757" lon="6.48183">
        <ele>2014</ele>
        <time>2022-07-28T11:27:23Z</time>
      </trkpt>
      <trkpt lat="45.67758" lon="6.48181">
        <ele>2014</ele>
        <time>2022-07-28T11:27:24Z</time>
      </trkpt>
      <trkpt lat="45.67758" lon="6.48179">
        <ele>2014</ele>
        <time>2022-07-28T11:27:25Z</time>
      </trkpt>
      <trkpt lat="45.67758" lon="6.48177">
        <ele>2014</ele>
        <time>2022-07-28T11:27:26Z</time>
      </trkpt>
      <trkpt lat="45.67759" lon="6.48176">
        <ele>2013</ele>
        <time>2022-07-28T11:27:27Z</time>
      </trkpt>
      <trkpt lat="45.67759" lon="6.48174">
        <ele>2013</ele>
        <time>2022-07-28T11:27:28Z</time>
      </trkpt>
      <trkpt lat="45.67759" lon="6.48173">
        <ele>2013</ele>
        <time>2022-07-28T11:27:29Z</time>
      </trkpt>
      <trkpt lat="45.67759" lon="6.48171">
        <ele>2013</ele>
        <time>2022-07-28T11:27:30Z</time>
      </trkpt>
      <trkpt lat="45.6776" lon="6.48169">
        <ele>2013</ele>
        <time>2022-07-28T11:27:31Z</time>
      </trkpt>
      <trkpt lat="45.6776" lon="6.48167">
        <ele>2013</ele>
        <time>2022-07-28T11:27:32Z</time>
      </trkpt>
      <trkpt lat="45.6776" lon="6.48166">
        <ele>2013</ele>
        <time>2022-07-28T11:27:33Z</time>
      </trkpt>
      <trkpt lat="45.67761" lon="6.48164">
        <ele>2013</ele>
        <time>2022-07-28T11:27:34Z</time>
      </trkpt>
      <trkpt lat="45.67761" lon="6.48163">
        <ele>2013</ele>
        <time>2022-07-28T11:27:35Z</time>
      </trkpt>
      <trkpt lat="45.67761" lon="6.48161">
        <ele>2013</ele>
        <time>2022-07-28T11:27:36Z</time>
      </trkpt>
      <trkpt lat="45.67761" lon="6.48159">
        <ele>2013</ele>
        <time>2022-07-28T11:27:37Z</time>
      </trkpt>
      <trkpt lat="45.67761" lon="6.48158">
        <ele>2013</ele>
        <time>2022-07-28T11:27:38Z</time>
      </trkpt>
      <trkpt lat="45.67761" lon="6.48156">
        <ele>2013</ele>
        <time>2022-07-28T11:27:39Z</time>
      </trkpt>
      <trkpt lat="45.67761" lon="6.48155">
        <ele>2013</ele>
        <time>2022-07-28T11:27:40Z</time>
      </trkpt>
      <trkpt lat="45.67761" lon="6.48154">
        <ele>2013</ele>
        <time>2022-07-28T11:27:41Z</time>
      </trkpt>
      <trkpt lat="45.67762" lon="6.48153">
        <ele>2013</ele>
        <time>2022-07-28T11:27:42Z</time>
      </trkpt>
      <trkpt lat="45.67762" lon="6.48152">
        <ele>2013</ele>
        <time>2022-07-28T11:27:43Z</time>
      </trkpt>
      <trkpt lat="45.67762" lon="6.48151">
        <ele>2013</ele>
        <time>2022-07-28T11:27:44Z</time>
      </trkpt>
      <trkpt lat="45.67763" lon="6.4815">
        <ele>2013</ele>
        <time>2022-07-28T11:27:45Z</time>
      </trkpt>
      <trkpt lat="45.67763" lon="6.48149">
        <ele>2013</ele>
        <time>2022-07-28T11:27:46Z</time>
      </trkpt>
      <trkpt lat="45.67763" lon="6.48148">
        <ele>2012</ele>
        <time>2022-07-28T11:27:47Z</time>
      </trkpt>
      <trkpt lat="45.67763" lon="6.48147">
        <ele>2012</ele>
        <time>2022-07-28T11:27:48Z</time>
      </trkpt>
      <trkpt lat="45.67764" lon="6.48146">
        <ele>2012</ele>
        <time>2022-07-28T11:27:49Z</time>
      </trkpt>
      <trkpt lat="45.67764" lon="6.48145">
        <ele>2012</ele>
        <time>2022-07-28T11:27:50Z</time>
      </trkpt>
      <trkpt lat="45.67764" lon="6.48144">
        <ele>2012</ele>
        <time>2022-07-28T11:27:51Z</time>
      </trkpt>
      <trkpt lat="45.67765" lon="6.48142">
        <ele>2011</ele>
        <time>2022-07-28T11:27:52Z</time>
      </trkpt>
      <trkpt lat="45.67765" lon="6.48141">
        <ele>2011</ele>
        <time>2022-07-28T11:27:53Z</time>
      </trkpt>
      <trkpt lat="45.67766" lon="6.4814">
        <ele>2011</ele>
        <time>2022-07-28T11:27:54Z</time>
      </trkpt>
      <trkpt lat="45.67766" lon="6.48139">
        <ele>2011</ele>
        <time>2022-07-28T11:27:55Z</time>
      </trkpt>
      <trkpt lat="45.67767" lon="6.48138">
        <ele>2011</ele>
        <time>2022-07-28T11:27:56Z</time>
      </trkpt>
      <trkpt lat="45.67767" lon="6.48137">
        <ele>2010</ele>
        <time>2022-07-28T11:27:57Z</time>
      </trkpt>
      <trkpt lat="45.67768" lon="6.48136">
        <ele>2010</ele>
        <time>2022-07-28T11:27:58Z</time>
      </trkpt>
      <trkpt lat="45.67768" lon="6.48135">
        <ele>2010</ele>
        <time>2022-07-28T11:27:59Z</time>
      </trkpt>
      <trkpt lat="45.67769" lon="6.48134">
        <ele>2010</ele>
        <time>2022-07-28T11:28:00Z</time>
      </trkpt>
      <trkpt lat="45.67769" lon="6.48133">
        <ele>2010</ele>
        <time>2022-07-28T11:28:01Z</time>
      </trkpt>
      <trkpt lat="45.6777" lon="6.48132">
        <ele>2009</ele>
        <time>2022-07-28T11:28:02Z</time>
      </trkpt>
      <trkpt lat="45.6777" lon="6.48131">
        <ele>2009</ele>
        <time>2022-07-28T11:28:03Z</time>
      </trkpt>
      <trkpt lat="45.67771" lon="6.4813">
        <ele>2009</ele>
        <time>2022-07-28T11:28:04Z</time>
      </trkpt>
      <trkpt lat="45.67771" lon="6.48129">
        <ele>2009</ele>
        <time>2022-07-28T11:28:05Z</time>
      </trkpt>
      <trkpt lat="45.67772" lon="6.48128">
        <ele>2009</ele>
        <time>2022-07-28T11:28:06Z</time>
      </trkpt>
      <trkpt lat="45.67772" lon="6.48127">
        <ele>2009</ele>
        <time>2022-07-28T11:28:07Z</time>
      </trkpt>
      <trkpt lat="45.67773" lon="6.48125">
        <ele>2009</ele>
        <time>2022-07-28T11:28:08Z</time>
      </trkpt>
      <trkpt lat="45.67773" lon="6.48124">
        <ele>2009</ele>
        <time>2022-07-28T11:28:09Z</time>
      </trkpt>
      <trkpt lat="45.67774" lon="6.48123">
        <ele>2009</ele>
        <time>2022-07-28T11:28:10Z</time>
      </trkpt>
      <trkpt lat="45.67775" lon="6.48121">
        <ele>2009</ele>
        <time>2022-07-28T11:28:11Z</time>
      </trkpt>
      <trkpt lat="45.67775" lon="6.4812">
        <ele>2009</ele>
        <time>2022-07-28T11:28:12Z</time>
      </trkpt>
      <trkpt lat="45.67776" lon="6.48119">
        <ele>2009</ele>
        <time>2022-07-28T11:28:13Z</time>
      </trkpt>
      <trkpt lat="45.67776" lon="6.48118">
        <ele>2009</ele>
        <time>2022-07-28T11:28:14Z</time>
      </trkpt>
      <trkpt lat="45.67777" lon="6.48116">
        <ele>2009</ele>
        <time>2022-07-28T11:28:15Z</time>
      </trkpt>
      <trkpt lat="45.67777" lon="6.48115">
        <ele>2009</ele>
        <time>2022-07-28T11:28:16Z</time>
      </trkpt>
      <trkpt lat="45.67778" lon="6.48113">
        <ele>2009</ele>
        <time>2022-07-28T11:28:17Z</time>
      </trkpt>
      <trkpt lat="45.67779" lon="6.48112">
        <ele>2009</ele>
        <time>2022-07-28T11:28:18Z</time>
      </trkpt>
      <trkpt lat="45.67779" lon="6.48111">
        <ele>2009</ele>
        <time>2022-07-28T11:28:19Z</time>
      </trkpt>
      <trkpt lat="45.6778" lon="6.4811">
        <ele>2009</ele>
        <time>2022-07-28T11:28:20Z</time>
      </trkpt>
      <trkpt lat="45.67781" lon="6.48109">
        <ele>2009</ele>
        <time>2022-07-28T11:28:21Z</time>
      </trkpt>
      <trkpt lat="45.67781" lon="6.48108">
        <ele>2009</ele>
        <time>2022-07-28T11:28:22Z</time>
      </trkpt>
      <trkpt lat="45.67782" lon="6.48107">
        <ele>2009</ele>
        <time>2022-07-28T11:28:23Z</time>
      </trkpt>
      <trkpt lat="45.67783" lon="6.48106">
        <ele>2009</ele>
        <time>2022-07-28T11:28:24Z</time>
      </trkpt>
      <trkpt lat="45.67784" lon="6.48106">
        <ele>2009</ele>
        <time>2022-07-28T11:28:25Z</time>
      </trkpt>
      <trkpt lat="45.67784" lon="6.48105">
        <ele>2009</ele>
        <time>2022-07-28T11:28:26Z</time>
      </trkpt>
      <trkpt lat="45.67786" lon="6.48104">
        <ele>2009</ele>
        <time>2022-07-28T11:28:27Z</time>
      </trkpt>
      <trkpt lat="45.67787" lon="6.48104">
        <ele>2009</ele>
        <time>2022-07-28T11:28:28Z</time>
      </trkpt>
      <trkpt lat="45.67788" lon="6.48103">
        <ele>2009</ele>
        <time>2022-07-28T11:28:29Z</time>
      </trkpt>
      <trkpt lat="45.67789" lon="6.48103">
        <ele>2009</ele>
        <time>2022-07-28T11:28:30Z</time>
      </trkpt>
      <trkpt lat="45.67789" lon="6.48102">
        <ele>2009</ele>
        <time>2022-07-28T11:28:31Z</time>
      </trkpt>
      <trkpt lat="45.6779" lon="6.48102">
        <ele>2009</ele>
        <time>2022-07-28T11:28:32Z</time>
      </trkpt>
      <trkpt lat="45.67791" lon="6.48101">
        <ele>2009</ele>
        <time>2022-07-28T11:28:33Z</time>
      </trkpt>
      <trkpt lat="45.67792" lon="6.481">
        <ele>2009</ele>
        <time>2022-07-28T11:28:34Z</time>
      </trkpt>
      <trkpt lat="45.67792" lon="6.48099">
        <ele>2009</ele>
        <time>2022-07-28T11:28:35Z</time>
      </trkpt>
      <trkpt lat="45.67792" lon="6.48098">
        <ele>2009</ele>
        <time>2022-07-28T11:28:36Z</time>
      </trkpt>
      <trkpt lat="45.67792" lon="6.48096">
        <ele>2008</ele>
        <time>2022-07-28T11:28:37Z</time>
      </trkpt>
      <trkpt lat="45.67792" lon="6.48095">
        <ele>2007</ele>
        <time>2022-07-28T11:28:38Z</time>
      </trkpt>
      <trkpt lat="45.67792" lon="6.48094">
        <ele>2007</ele>
        <time>2022-07-28T11:28:39Z</time>
      </trkpt>
      <trkpt lat="45.67791" lon="6.48093">
        <ele>2006</ele>
        <time>2022-07-28T11:28:40Z</time>
      </trkpt>
      <trkpt lat="45.67791" lon="6.48091">
        <ele>2006</ele>
        <time>2022-07-28T11:28:41Z</time>
      </trkpt>
      <trkpt lat="45.6779" lon="6.4809">
        <ele>2006</ele>
        <time>2022-07-28T11:28:42Z</time>
      </trkpt>
      <trkpt lat="45.6779" lon="6.48088">
        <ele>2006</ele>
        <time>2022-07-28T11:28:43Z</time>
      </trkpt>
      <trkpt lat="45.6779" lon="6.48087">
        <ele>2006</ele>
        <time>2022-07-28T11:28:44Z</time>
      </trkpt>
      <trkpt lat="45.67789" lon="6.48085">
        <ele>2006</ele>
        <time>2022-07-28T11:28:45Z</time>
      </trkpt>
      <trkpt lat="45.67789" lon="6.48084">
        <ele>2006</ele>
        <time>2022-07-28T11:28:46Z</time>
      </trkpt>
      <trkpt lat="45.67789" lon="6.48082">
        <ele>2005</ele>
        <time>2022-07-28T11:28:47Z</time>
      </trkpt>
      <trkpt lat="45.6779" lon="6.48081">
        <ele>2005</ele>
        <time>2022-07-28T11:28:48Z</time>
      </trkpt>
      <trkpt lat="45.6779" lon="6.48079">
        <ele>2005</ele>
        <time>2022-07-28T11:28:49Z</time>
      </trkpt>
      <trkpt lat="45.67791" lon="6.48078">
        <ele>2005</ele>
        <time>2022-07-28T11:28:50Z</time>
      </trkpt>
      <trkpt lat="45.67791" lon="6.48077">
        <ele>2005</ele>
        <time>2022-07-28T11:28:51Z</time>
      </trkpt>
      <trkpt lat="45.67792" lon="6.48075">
        <ele>2004</ele>
        <time>2022-07-28T11:28:52Z</time>
      </trkpt>
      <trkpt lat="45.67793" lon="6.48074">
        <ele>2004</ele>
        <time>2022-07-28T11:28:53Z</time>
      </trkpt>
      <trkpt lat="45.67793" lon="6.48073">
        <ele>2004</ele>
        <time>2022-07-28T11:28:54Z</time>
      </trkpt>
      <trkpt lat="45.67794" lon="6.48071">
        <ele>2004</ele>
        <time>2022-07-28T11:28:55Z</time>
      </trkpt>
      <trkpt lat="45.67794" lon="6.4807">
        <ele>2004</ele>
        <time>2022-07-28T11:28:56Z</time>
      </trkpt>
      <trkpt lat="45.67795" lon="6.48069">
        <ele>2004</ele>
        <time>2022-07-28T11:28:57Z</time>
      </trkpt>
      <trkpt lat="45.67796" lon="6.48067">
        <ele>2004</ele>
        <time>2022-07-28T11:28:58Z</time>
      </trkpt>
      <trkpt lat="45.67796" lon="6.48066">
        <ele>2004</ele>
        <time>2022-07-28T11:28:59Z</time>
      </trkpt>
      <trkpt lat="45.67797" lon="6.48065">
        <ele>2004</ele>
        <time>2022-07-28T11:29:00Z</time>
      </trkpt>
      <trkpt lat="45.67798" lon="6.48064">
        <ele>2004</ele>
        <time>2022-07-28T11:29:01Z</time>
      </trkpt>
      <trkpt lat="45.67798" lon="6.48062">
        <ele>2004</ele>
        <time>2022-07-28T11:29:02Z</time>
      </trkpt>
      <trkpt lat="45.67799" lon="6.48061">
        <ele>2004</ele>
        <time>2022-07-28T11:29:03Z</time>
      </trkpt>
      <trkpt lat="45.678" lon="6.48059">
        <ele>2004</ele>
        <time>2022-07-28T11:29:04Z</time>
      </trkpt>
      <trkpt lat="45.67801" lon="6.48058">
        <ele>2004</ele>
        <time>2022-07-28T11:29:05Z</time>
      </trkpt>
      <trkpt lat="45.67801" lon="6.48057">
        <ele>2004</ele>
        <time>2022-07-28T11:29:06Z</time>
      </trkpt>
      <trkpt lat="45.67802" lon="6.48055">
        <ele>2003</ele>
        <time>2022-07-28T11:29:07Z</time>
      </trkpt>
      <trkpt lat="45.67802" lon="6.48054">
        <ele>2003</ele>
        <time>2022-07-28T11:29:08Z</time>
      </trkpt>
      <trkpt lat="45.67802" lon="6.48053">
        <ele>2002</ele>
        <time>2022-07-28T11:29:09Z</time>
      </trkpt>
      <trkpt lat="45.67802" lon="6.48052">
        <ele>2002</ele>
        <time>2022-07-28T11:29:10Z</time>
      </trkpt>
      <trkpt lat="45.67802" lon="6.4805">
        <ele>2002</ele>
        <time>2022-07-28T11:29:11Z</time>
      </trkpt>
      <trkpt lat="45.67803" lon="6.48049">
        <ele>2001</ele>
        <time>2022-07-28T11:29:12Z</time>
      </trkpt>
      <trkpt lat="45.67803" lon="6.48047">
        <ele>2001</ele>
        <time>2022-07-28T11:29:13Z</time>
      </trkpt>
      <trkpt lat="45.67803" lon="6.48046">
        <ele>2001</ele>
        <time>2022-07-28T11:29:14Z</time>
      </trkpt>
      <trkpt lat="45.67804" lon="6.48044">
        <ele>2001</ele>
        <time>2022-07-28T11:29:15Z</time>
      </trkpt>
      <trkpt lat="45.67804" lon="6.48042">
        <ele>2001</ele>
        <time>2022-07-28T11:29:16Z</time>
      </trkpt>
      <trkpt lat="45.67805" lon="6.48041">
        <ele>2000</ele>
        <time>2022-07-28T11:29:17Z</time>
      </trkpt>
      <trkpt lat="45.67805" lon="6.48039">
        <ele>2000</ele>
        <time>2022-07-28T11:29:18Z</time>
      </trkpt>
      <trkpt lat="45.67806" lon="6.48038">
        <ele>2000</ele>
        <time>2022-07-28T11:29:19Z</time>
      </trkpt>
      <trkpt lat="45.67807" lon="6.48036">
        <ele>2000</ele>
        <time>2022-07-28T11:29:20Z</time>
      </trkpt>
      <trkpt lat="45.67807" lon="6.48035">
        <ele>2000</ele>
        <time>2022-07-28T11:29:21Z</time>
      </trkpt>
      <trkpt lat="45.67808" lon="6.48033">
        <ele>1999</ele>
        <time>2022-07-28T11:29:22Z</time>
      </trkpt>
      <trkpt lat="45.67808" lon="6.48032">
        <ele>1999</ele>
        <time>2022-07-28T11:29:23Z</time>
      </trkpt>
      <trkpt lat="45.67809" lon="6.48031">
        <ele>1999</ele>
        <time>2022-07-28T11:29:24Z</time>
      </trkpt>
      <trkpt lat="45.6781" lon="6.4803">
        <ele>1999</ele>
        <time>2022-07-28T11:29:25Z</time>
      </trkpt>
      <trkpt lat="45.6781" lon="6.48029">
        <ele>1999</ele>
        <time>2022-07-28T11:29:26Z</time>
      </trkpt>
      <trkpt lat="45.67811" lon="6.48028">
        <ele>1998</ele>
        <time>2022-07-28T11:29:27Z</time>
      </trkpt>
      <trkpt lat="45.67812" lon="6.48027">
        <ele>1998</ele>
        <time>2022-07-28T11:29:28Z</time>
      </trkpt>
      <trkpt lat="45.67812" lon="6.48026">
        <ele>1998</ele>
        <time>2022-07-28T11:29:29Z</time>
      </trkpt>
      <trkpt lat="45.67812" lon="6.48025">
        <ele>1998</ele>
        <time>2022-07-28T11:29:30Z</time>
      </trkpt>
      <trkpt lat="45.67813" lon="6.48024">
        <ele>1998</ele>
        <time>2022-07-28T11:29:31Z</time>
      </trkpt>
      <trkpt lat="45.67813" lon="6.48023">
        <ele>1997</ele>
        <time>2022-07-28T11:29:32Z</time>
      </trkpt>
      <trkpt lat="45.67814" lon="6.48021">
        <ele>1997</ele>
        <time>2022-07-28T11:29:33Z</time>
      </trkpt>
      <trkpt lat="45.67815" lon="6.4802">
        <ele>1996</ele>
        <time>2022-07-28T11:29:34Z</time>
      </trkpt>
      <trkpt lat="45.67815" lon="6.48019">
        <ele>1996</ele>
        <time>2022-07-28T11:29:35Z</time>
      </trkpt>
      <trkpt lat="45.67816" lon="6.48018">
        <ele>1996</ele>
        <time>2022-07-28T11:29:36Z</time>
      </trkpt>
      <trkpt lat="45.67817" lon="6.48016">
        <ele>1995</ele>
        <time>2022-07-28T11:29:37Z</time>
      </trkpt>
      <trkpt lat="45.67818" lon="6.48015">
        <ele>1995</ele>
        <time>2022-07-28T11:29:38Z</time>
      </trkpt>
      <trkpt lat="45.67818" lon="6.48014">
        <ele>1995</ele>
        <time>2022-07-28T11:29:39Z</time>
      </trkpt>
      <trkpt lat="45.67819" lon="6.48013">
        <ele>1995</ele>
        <time>2022-07-28T11:29:40Z</time>
      </trkpt>
      <trkpt lat="45.67819" lon="6.48012">
        <ele>1995</ele>
        <time>2022-07-28T11:29:41Z</time>
      </trkpt>
      <trkpt lat="45.67819" lon="6.48011">
        <ele>1995</ele>
        <time>2022-07-28T11:29:42Z</time>
      </trkpt>
      <trkpt lat="45.6782" lon="6.4801">
        <ele>1995</ele>
        <time>2022-07-28T11:29:43Z</time>
      </trkpt>
      <trkpt lat="45.6782" lon="6.48009">
        <ele>1995</ele>
        <time>2022-07-28T11:29:44Z</time>
      </trkpt>
      <trkpt lat="45.6782" lon="6.48008">
        <ele>1995</ele>
        <time>2022-07-28T11:29:45Z</time>
      </trkpt>
      <trkpt lat="45.6782" lon="6.48006">
        <ele>1995</ele>
        <time>2022-07-28T11:29:46Z</time>
      </trkpt>
      <trkpt lat="45.67821" lon="6.48005">
        <ele>1994</ele>
        <time>2022-07-28T11:29:47Z</time>
      </trkpt>
      <trkpt lat="45.67821" lon="6.48003">
        <ele>1994</ele>
        <time>2022-07-28T11:29:48Z</time>
      </trkpt>
      <trkpt lat="45.67821" lon="6.48002">
        <ele>1994</ele>
        <time>2022-07-28T11:29:49Z</time>
      </trkpt>
      <trkpt lat="45.67821" lon="6.48">
        <ele>1994</ele>
        <time>2022-07-28T11:29:50Z</time>
      </trkpt>
      <trkpt lat="45.67822" lon="6.47999">
        <ele>1994</ele>
        <time>2022-07-28T11:29:51Z</time>
      </trkpt>
      <trkpt lat="45.67822" lon="6.47998">
        <ele>1993</ele>
        <time>2022-07-28T11:29:52Z</time>
      </trkpt>
      <trkpt lat="45.67823" lon="6.47996">
        <ele>1993</ele>
        <time>2022-07-28T11:29:53Z</time>
      </trkpt>
      <trkpt lat="45.67823" lon="6.47995">
        <ele>1993</ele>
        <time>2022-07-28T11:29:54Z</time>
      </trkpt>
      <trkpt lat="45.67823" lon="6.47993">
        <ele>1993</ele>
        <time>2022-07-28T11:29:55Z</time>
      </trkpt>
      <trkpt lat="45.67824" lon="6.47992">
        <ele>1993</ele>
        <time>2022-07-28T11:29:56Z</time>
      </trkpt>
      <trkpt lat="45.67824" lon="6.4799">
        <ele>1992</ele>
        <time>2022-07-28T11:29:57Z</time>
      </trkpt>
      <trkpt lat="45.67824" lon="6.47989">
        <ele>1992</ele>
        <time>2022-07-28T11:29:58Z</time>
      </trkpt>
      <trkpt lat="45.67825" lon="6.47987">
        <ele>1992</ele>
        <time>2022-07-28T11:29:59Z</time>
      </trkpt>
      <trkpt lat="45.67825" lon="6.47986">
        <ele>1992</ele>
        <time>2022-07-28T11:30:00Z</time>
      </trkpt>
      <trkpt lat="45.67826" lon="6.47984">
        <ele>1992</ele>
        <time>2022-07-28T11:30:01Z</time>
      </trkpt>
      <trkpt lat="45.67826" lon="6.47983">
        <ele>1991</ele>
        <time>2022-07-28T11:30:02Z</time>
      </trkpt>
      <trkpt lat="45.67826" lon="6.47981">
        <ele>1991</ele>
        <time>2022-07-28T11:30:03Z</time>
      </trkpt>
      <trkpt lat="45.67827" lon="6.4798">
        <ele>1991</ele>
        <time>2022-07-28T11:30:04Z</time>
      </trkpt>
      <trkpt lat="45.67827" lon="6.47978">
        <ele>1991</ele>
        <time>2022-07-28T11:30:05Z</time>
      </trkpt>
      <trkpt lat="45.67828" lon="6.47976">
        <ele>1991</ele>
        <time>2022-07-28T11:30:06Z</time>
      </trkpt>
      <trkpt lat="45.67828" lon="6.47975">
        <ele>1991</ele>
        <time>2022-07-28T11:30:07Z</time>
      </trkpt>
      <trkpt lat="45.67829" lon="6.47974">
        <ele>1991</ele>
        <time>2022-07-28T11:30:08Z</time>
      </trkpt>
      <trkpt lat="45.6783" lon="6.47972">
        <ele>1991</ele>
        <time>2022-07-28T11:30:09Z</time>
      </trkpt>
      <trkpt lat="45.6783" lon="6.47971">
        <ele>1991</ele>
        <time>2022-07-28T11:30:10Z</time>
      </trkpt>
      <trkpt lat="45.67831" lon="6.47969">
        <ele>1991</ele>
        <time>2022-07-28T11:30:11Z</time>
      </trkpt>
      <trkpt lat="45.67832" lon="6.47968">
        <ele>1991</ele>
        <time>2022-07-28T11:30:12Z</time>
      </trkpt>
      <trkpt lat="45.67833" lon="6.47967">
        <ele>1991</ele>
        <time>2022-07-28T11:30:13Z</time>
      </trkpt>
      <trkpt lat="45.67833" lon="6.47965">
        <ele>1991</ele>
        <time>2022-07-28T11:30:14Z</time>
      </trkpt>
      <trkpt lat="45.67834" lon="6.47964">
        <ele>1991</ele>
        <time>2022-07-28T11:30:15Z</time>
      </trkpt>
      <trkpt lat="45.67835" lon="6.47963">
        <ele>1991</ele>
        <time>2022-07-28T11:30:16Z</time>
      </trkpt>
      <trkpt lat="45.67836" lon="6.47961">
        <ele>1991</ele>
        <time>2022-07-28T11:30:17Z</time>
      </trkpt>
      <trkpt lat="45.67837" lon="6.4796">
        <ele>1991</ele>
        <time>2022-07-28T11:30:18Z</time>
      </trkpt>
      <trkpt lat="45.67837" lon="6.47959">
        <ele>1991</ele>
        <time>2022-07-28T11:30:19Z</time>
      </trkpt>
      <trkpt lat="45.67838" lon="6.47958">
        <ele>1991</ele>
        <time>2022-07-28T11:30:20Z</time>
      </trkpt>
      <trkpt lat="45.67839" lon="6.47957">
        <ele>1991</ele>
        <time>2022-07-28T11:30:21Z</time>
      </trkpt>
      <trkpt lat="45.67839" lon="6.47956">
        <ele>1991</ele>
        <time>2022-07-28T11:30:22Z</time>
      </trkpt>
      <trkpt lat="45.6784" lon="6.47954">
        <ele>1991</ele>
        <time>2022-07-28T11:30:23Z</time>
      </trkpt>
      <trkpt lat="45.6784" lon="6.47953">
        <ele>1991</ele>
        <time>2022-07-28T11:30:24Z</time>
      </trkpt>
      <trkpt lat="45.67841" lon="6.47952">
        <ele>1991</ele>
        <time>2022-07-28T11:30:25Z</time>
      </trkpt>
      <trkpt lat="45.67841" lon="6.47951">
        <ele>1991</ele>
        <time>2022-07-28T11:30:26Z</time>
      </trkpt>
      <trkpt lat="45.67842" lon="6.4795">
        <ele>1991</ele>
        <time>2022-07-28T11:30:27Z</time>
      </trkpt>
      <trkpt lat="45.67842" lon="6.47948">
        <ele>1991</ele>
        <time>2022-07-28T11:30:28Z</time>
      </trkpt>
      <trkpt lat="45.67843" lon="6.47947">
        <ele>1991</ele>
        <time>2022-07-28T11:30:29Z</time>
      </trkpt>
      <trkpt lat="45.67843" lon="6.47946">
        <ele>1991</ele>
        <time>2022-07-28T11:30:30Z</time>
      </trkpt>
      <trkpt lat="45.67844" lon="6.47945">
        <ele>1991</ele>
        <time>2022-07-28T11:30:31Z</time>
      </trkpt>
      <trkpt lat="45.67844" lon="6.47943">
        <ele>1990</ele>
        <time>2022-07-28T11:30:32Z</time>
      </trkpt>
      <trkpt lat="45.67845" lon="6.47942">
        <ele>1990</ele>
        <time>2022-07-28T11:30:33Z</time>
      </trkpt>
      <trkpt lat="45.67845" lon="6.47941">
        <ele>1989</ele>
        <time>2022-07-28T11:30:34Z</time>
      </trkpt>
      <trkpt lat="45.67846" lon="6.4794">
        <ele>1989</ele>
        <time>2022-07-28T11:30:35Z</time>
      </trkpt>
      <trkpt lat="45.67847" lon="6.47939">
        <ele>1989</ele>
        <time>2022-07-28T11:30:36Z</time>
      </trkpt>
      <trkpt lat="45.67847" lon="6.47938">
        <ele>1988</ele>
        <time>2022-07-28T11:30:37Z</time>
      </trkpt>
      <trkpt lat="45.67848" lon="6.47937">
        <ele>1988</ele>
        <time>2022-07-28T11:30:38Z</time>
      </trkpt>
      <trkpt lat="45.67849" lon="6.47936">
        <ele>1988</ele>
        <time>2022-07-28T11:30:39Z</time>
      </trkpt>
      <trkpt lat="45.67849" lon="6.47935">
        <ele>1988</ele>
        <time>2022-07-28T11:30:40Z</time>
      </trkpt>
      <trkpt lat="45.6785" lon="6.47933">
        <ele>1988</ele>
        <time>2022-07-28T11:30:41Z</time>
      </trkpt>
      <trkpt lat="45.6785" lon="6.47932">
        <ele>1988</ele>
        <time>2022-07-28T11:30:42Z</time>
      </trkpt>
      <trkpt lat="45.67851" lon="6.47931">
        <ele>1988</ele>
        <time>2022-07-28T11:30:43Z</time>
      </trkpt>
      <trkpt lat="45.67852" lon="6.47929">
        <ele>1988</ele>
        <time>2022-07-28T11:30:44Z</time>
      </trkpt>
      <trkpt lat="45.67853" lon="6.47928">
        <ele>1988</ele>
        <time>2022-07-28T11:30:45Z</time>
      </trkpt>
      <trkpt lat="45.67853" lon="6.47926">
        <ele>1988</ele>
        <time>2022-07-28T11:30:46Z</time>
      </trkpt>
      <trkpt lat="45.67854" lon="6.47925">
        <ele>1989</ele>
        <time>2022-07-28T11:30:47Z</time>
      </trkpt>
      <trkpt lat="45.67855" lon="6.47924">
        <ele>1990</ele>
        <time>2022-07-28T11:30:48Z</time>
      </trkpt>
      <trkpt lat="45.67856" lon="6.47923">
        <ele>1991</ele>
        <time>2022-07-28T11:30:49Z</time>
      </trkpt>
      <trkpt lat="45.67857" lon="6.47921">
        <ele>1992</ele>
        <time>2022-07-28T11:30:50Z</time>
      </trkpt>
      <trkpt lat="45.67858" lon="6.4792">
        <ele>1993</ele>
        <time>2022-07-28T11:30:51Z</time>
      </trkpt>
      <trkpt lat="45.67858" lon="6.47919">
        <ele>1993</ele>
        <time>2022-07-28T11:30:52Z</time>
      </trkpt>
      <trkpt lat="45.67859" lon="6.47917">
        <ele>1993</ele>
        <time>2022-07-28T11:30:53Z</time>
      </trkpt>
      <trkpt lat="45.67859" lon="6.47915">
        <ele>1993</ele>
        <time>2022-07-28T11:30:54Z</time>
      </trkpt>
      <trkpt lat="45.67859" lon="6.47914">
        <ele>1993</ele>
        <time>2022-07-28T11:30:55Z</time>
      </trkpt>
      <trkpt lat="45.6786" lon="6.47913">
        <ele>1993</ele>
        <time>2022-07-28T11:30:56Z</time>
      </trkpt>
      <trkpt lat="45.6786" lon="6.47911">
        <ele>1993</ele>
        <time>2022-07-28T11:30:57Z</time>
      </trkpt>
      <trkpt lat="45.67861" lon="6.4791">
        <ele>1993</ele>
        <time>2022-07-28T11:30:58Z</time>
      </trkpt>
      <trkpt lat="45.67861" lon="6.47909">
        <ele>1993</ele>
        <time>2022-07-28T11:30:59Z</time>
      </trkpt>
      <trkpt lat="45.67861" lon="6.47908">
        <ele>1993</ele>
        <time>2022-07-28T11:31:00Z</time>
      </trkpt>
      <trkpt lat="45.67862" lon="6.47906">
        <ele>1993</ele>
        <time>2022-07-28T11:31:01Z</time>
      </trkpt>
      <trkpt lat="45.67862" lon="6.47905">
        <ele>1993</ele>
        <time>2022-07-28T11:31:02Z</time>
      </trkpt>
      <trkpt lat="45.67862" lon="6.47903">
        <ele>1993</ele>
        <time>2022-07-28T11:31:03Z</time>
      </trkpt>
      <trkpt lat="45.67863" lon="6.47902">
        <ele>1993</ele>
        <time>2022-07-28T11:31:04Z</time>
      </trkpt>
      <trkpt lat="45.67863" lon="6.47901">
        <ele>1993</ele>
        <time>2022-07-28T11:31:05Z</time>
      </trkpt>
      <trkpt lat="45.67863" lon="6.47899">
        <ele>1993</ele>
        <time>2022-07-28T11:31:06Z</time>
      </trkpt>
      <trkpt lat="45.67863" lon="6.47898">
        <ele>1992</ele>
        <time>2022-07-28T11:31:07Z</time>
      </trkpt>
      <trkpt lat="45.67863" lon="6.47897">
        <ele>1991</ele>
        <time>2022-07-28T11:31:08Z</time>
      </trkpt>
      <trkpt lat="45.67863" lon="6.47897">
        <ele>1990</ele>
        <time>2022-07-28T11:31:09Z</time>
      </trkpt>
      <trkpt lat="45.67862" lon="6.47896">
        <ele>1989</ele>
        <time>2022-07-28T11:31:10Z</time>
      </trkpt>
      <trkpt lat="45.67862" lon="6.47895">
        <ele>1989</ele>
        <time>2022-07-28T11:31:11Z</time>
      </trkpt>
      <trkpt lat="45.67862" lon="6.47894">
        <ele>1988</ele>
        <time>2022-07-28T11:31:12Z</time>
      </trkpt>
      <trkpt lat="45.67862" lon="6.47892">
        <ele>1984</ele>
        <time>2022-07-28T11:32:02Z</time>
      </trkpt>
      <trkpt lat="45.67862" lon="6.47892">
        <ele>1984</ele>
        <time>2022-07-28T11:32:03Z</time>
      </trkpt>
      <trkpt lat="45.67863" lon="6.47891">
        <ele>1984</ele>
        <time>2022-07-28T11:32:04Z</time>
      </trkpt>
      <trkpt lat="45.67863" lon="6.4789">
        <ele>1984</ele>
        <time>2022-07-28T11:32:05Z</time>
      </trkpt>
      <trkpt lat="45.67863" lon="6.47889">
        <ele>1984</ele>
        <time>2022-07-28T11:32:06Z</time>
      </trkpt>
      <trkpt lat="45.67864" lon="6.47888">
        <ele>1984</ele>
        <time>2022-07-28T11:32:07Z</time>
      </trkpt>
      <trkpt lat="45.67865" lon="6.47887">
        <ele>1984</ele>
        <time>2022-07-28T11:32:08Z</time>
      </trkpt>
      <trkpt lat="45.67866" lon="6.47885">
        <ele>1984</ele>
        <time>2022-07-28T11:32:09Z</time>
      </trkpt>
      <trkpt lat="45.67867" lon="6.47884">
        <ele>1984</ele>
        <time>2022-07-28T11:32:10Z</time>
      </trkpt>
      <trkpt lat="45.67868" lon="6.47883">
        <ele>1984</ele>
        <time>2022-07-28T11:32:11Z</time>
      </trkpt>
      <trkpt lat="45.6787" lon="6.47882">
        <ele>1984</ele>
        <time>2022-07-28T11:32:12Z</time>
      </trkpt>
      <trkpt lat="45.67871" lon="6.4788">
        <ele>1984</ele>
        <time>2022-07-28T11:32:13Z</time>
      </trkpt>
      <trkpt lat="45.67872" lon="6.47879">
        <ele>1984</ele>
        <time>2022-07-28T11:32:14Z</time>
      </trkpt>
      <trkpt lat="45.67873" lon="6.47878">
        <ele>1984</ele>
        <time>2022-07-28T11:32:15Z</time>
      </trkpt>
      <trkpt lat="45.67874" lon="6.47877">
        <ele>1984</ele>
        <time>2022-07-28T11:32:16Z</time>
      </trkpt>
      <trkpt lat="45.67876" lon="6.47876">
        <ele>1984</ele>
        <time>2022-07-28T11:32:17Z</time>
      </trkpt>
      <trkpt lat="45.67877" lon="6.47875">
        <ele>1984</ele>
        <time>2022-07-28T11:32:18Z</time>
      </trkpt>
      <trkpt lat="45.67878" lon="6.47874">
        <ele>1984</ele>
        <time>2022-07-28T11:32:19Z</time>
      </trkpt>
      <trkpt lat="45.67879" lon="6.47873">
        <ele>1984</ele>
        <time>2022-07-28T11:32:20Z</time>
      </trkpt>
      <trkpt lat="45.6788" lon="6.47872">
        <ele>1984</ele>
        <time>2022-07-28T11:32:21Z</time>
      </trkpt>
      <trkpt lat="45.67881" lon="6.4787">
        <ele>1984</ele>
        <time>2022-07-28T11:32:22Z</time>
      </trkpt>
      <trkpt lat="45.67881" lon="6.47869">
        <ele>1984</ele>
        <time>2022-07-28T11:32:23Z</time>
      </trkpt>
      <trkpt lat="45.67882" lon="6.47867">
        <ele>1984</ele>
        <time>2022-07-28T11:32:24Z</time>
      </trkpt>
      <trkpt lat="45.67882" lon="6.47866">
        <ele>1984</ele>
        <time>2022-07-28T11:32:25Z</time>
      </trkpt>
      <trkpt lat="45.67883" lon="6.47864">
        <ele>1984</ele>
        <time>2022-07-28T11:32:26Z</time>
      </trkpt>
      <trkpt lat="45.67883" lon="6.47863">
        <ele>1984</ele>
        <time>2022-07-28T11:32:27Z</time>
      </trkpt>
      <trkpt lat="45.67884" lon="6.47861">
        <ele>1984</ele>
        <time>2022-07-28T11:32:28Z</time>
      </trkpt>
      <trkpt lat="45.67885" lon="6.4786">
        <ele>1984</ele>
        <time>2022-07-28T11:32:29Z</time>
      </trkpt>
      <trkpt lat="45.67885" lon="6.47859">
        <ele>1984</ele>
        <time>2022-07-28T11:32:30Z</time>
      </trkpt>
      <trkpt lat="45.67886" lon="6.47857">
        <ele>1984</ele>
        <time>2022-07-28T11:32:31Z</time>
      </trkpt>
      <trkpt lat="45.67887" lon="6.47856">
        <ele>1984</ele>
        <time>2022-07-28T11:32:32Z</time>
      </trkpt>
      <trkpt lat="45.67888" lon="6.47855">
        <ele>1984</ele>
        <time>2022-07-28T11:32:33Z</time>
      </trkpt>
      <trkpt lat="45.67889" lon="6.47853">
        <ele>1984</ele>
        <time>2022-07-28T11:32:34Z</time>
      </trkpt>
      <trkpt lat="45.67889" lon="6.47852">
        <ele>1984</ele>
        <time>2022-07-28T11:32:35Z</time>
      </trkpt>
      <trkpt lat="45.6789" lon="6.47851">
        <ele>1984</ele>
        <time>2022-07-28T11:32:36Z</time>
      </trkpt>
      <trkpt lat="45.67891" lon="6.47849">
        <ele>1984</ele>
        <time>2022-07-28T11:32:37Z</time>
      </trkpt>
      <trkpt lat="45.67892" lon="6.47848">
        <ele>1984</ele>
        <time>2022-07-28T11:32:38Z</time>
      </trkpt>
      <trkpt lat="45.67892" lon="6.47846">
        <ele>1984</ele>
        <time>2022-07-28T11:32:39Z</time>
      </trkpt>
      <trkpt lat="45.67893" lon="6.47845">
        <ele>1984</ele>
        <time>2022-07-28T11:32:40Z</time>
      </trkpt>
      <trkpt lat="45.67893" lon="6.47843">
        <ele>1984</ele>
        <time>2022-07-28T11:32:41Z</time>
      </trkpt>
      <trkpt lat="45.67894" lon="6.47841">
        <ele>1984</ele>
        <time>2022-07-28T11:32:42Z</time>
      </trkpt>
      <trkpt lat="45.67894" lon="6.4784">
        <ele>1985</ele>
        <time>2022-07-28T11:32:43Z</time>
      </trkpt>
      <trkpt lat="45.67895" lon="6.47838">
        <ele>1985</ele>
        <time>2022-07-28T11:32:44Z</time>
      </trkpt>
      <trkpt lat="45.67895" lon="6.47837">
        <ele>1986</ele>
        <time>2022-07-28T11:32:45Z</time>
      </trkpt>
      <trkpt lat="45.67895" lon="6.47835">
        <ele>1987</ele>
        <time>2022-07-28T11:32:46Z</time>
      </trkpt>
      <trkpt lat="45.67896" lon="6.47834">
        <ele>1987</ele>
        <time>2022-07-28T11:32:47Z</time>
      </trkpt>
      <trkpt lat="45.67896" lon="6.47832">
        <ele>1987</ele>
        <time>2022-07-28T11:32:48Z</time>
      </trkpt>
      <trkpt lat="45.67896" lon="6.47831">
        <ele>1987</ele>
        <time>2022-07-28T11:32:49Z</time>
      </trkpt>
      <trkpt lat="45.67896" lon="6.47829">
        <ele>1987</ele>
        <time>2022-07-28T11:32:50Z</time>
      </trkpt>
      <trkpt lat="45.67896" lon="6.47828">
        <ele>1987</ele>
        <time>2022-07-28T11:32:51Z</time>
      </trkpt>
      <trkpt lat="45.67896" lon="6.47826">
        <ele>1987</ele>
        <time>2022-07-28T11:32:52Z</time>
      </trkpt>
      <trkpt lat="45.67896" lon="6.47824">
        <ele>1987</ele>
        <time>2022-07-28T11:32:53Z</time>
      </trkpt>
      <trkpt lat="45.67896" lon="6.47823">
        <ele>1987</ele>
        <time>2022-07-28T11:32:54Z</time>
      </trkpt>
      <trkpt lat="45.67896" lon="6.47821">
        <ele>1987</ele>
        <time>2022-07-28T11:32:55Z</time>
      </trkpt>
      <trkpt lat="45.67896" lon="6.47819">
        <ele>1987</ele>
        <time>2022-07-28T11:32:56Z</time>
      </trkpt>
      <trkpt lat="45.67896" lon="6.47818">
        <ele>1987</ele>
        <time>2022-07-28T11:32:57Z</time>
      </trkpt>
      <trkpt lat="45.67896" lon="6.47816">
        <ele>1987</ele>
        <time>2022-07-28T11:32:58Z</time>
      </trkpt>
      <trkpt lat="45.67896" lon="6.47814">
        <ele>1987</ele>
        <time>2022-07-28T11:32:59Z</time>
      </trkpt>
      <trkpt lat="45.67897" lon="6.47813">
        <ele>1987</ele>
        <time>2022-07-28T11:33:00Z</time>
      </trkpt>
      <trkpt lat="45.67897" lon="6.47811">
        <ele>1987</ele>
        <time>2022-07-28T11:33:01Z</time>
      </trkpt>
      <trkpt lat="45.67897" lon="6.47809">
        <ele>1987</ele>
        <time>2022-07-28T11:33:02Z</time>
      </trkpt>
      <trkpt lat="45.67897" lon="6.47808">
        <ele>1987</ele>
        <time>2022-07-28T11:33:03Z</time>
      </trkpt>
      <trkpt lat="45.67898" lon="6.47806">
        <ele>1987</ele>
        <time>2022-07-28T11:33:04Z</time>
      </trkpt>
      <trkpt lat="45.67898" lon="6.47806">
        <ele>1987</ele>
        <time>2022-07-28T11:33:05Z</time>
      </trkpt>
      <trkpt lat="45.67898" lon="6.47805">
        <ele>1987</ele>
        <time>2022-07-28T11:33:06Z</time>
      </trkpt>
      <trkpt lat="45.67898" lon="6.47805">
        <ele>1987</ele>
        <time>2022-07-28T11:33:07Z</time>
      </trkpt>
      <trkpt lat="45.67898" lon="6.47804">
        <ele>1987</ele>
        <time>2022-07-28T11:33:08Z</time>
      </trkpt>
      <trkpt lat="45.67898" lon="6.47804">
        <ele>1987</ele>
        <time>2022-07-28T11:33:09Z</time>
      </trkpt>
      <trkpt lat="45.67898" lon="6.47803">
        <ele>1987</ele>
        <time>2022-07-28T11:33:10Z</time>
      </trkpt>
      <trkpt lat="45.67898" lon="6.47802">
        <ele>1988</ele>
        <time>2022-07-28T11:33:11Z</time>
      </trkpt>
      <trkpt lat="45.67898" lon="6.47802">
        <ele>1988</ele>
        <time>2022-07-28T11:33:12Z</time>
      </trkpt>
      <trkpt lat="45.67899" lon="6.47801">
        <ele>1988</ele>
        <time>2022-07-28T11:33:13Z</time>
      </trkpt>
      <trkpt lat="45.67899" lon="6.478">
        <ele>1988</ele>
        <time>2022-07-28T11:33:14Z</time>
      </trkpt>
      <trkpt lat="45.67899" lon="6.47799">
        <ele>1988</ele>
        <time>2022-07-28T11:33:15Z</time>
      </trkpt>
      <trkpt lat="45.67899" lon="6.47798">
        <ele>1988</ele>
        <time>2022-07-28T11:33:16Z</time>
      </trkpt>
      <trkpt lat="45.67899" lon="6.47797">
        <ele>1988</ele>
        <time>2022-07-28T11:33:17Z</time>
      </trkpt>
      <trkpt lat="45.679" lon="6.47796">
        <ele>1988</ele>
        <time>2022-07-28T11:33:18Z</time>
      </trkpt>
      <trkpt lat="45.679" lon="6.47795">
        <ele>1988</ele>
        <time>2022-07-28T11:33:19Z</time>
      </trkpt>
      <trkpt lat="45.679" lon="6.47793">
        <ele>1988</ele>
        <time>2022-07-28T11:33:20Z</time>
      </trkpt>
      <trkpt lat="45.679" lon="6.47792">
        <ele>1989</ele>
        <time>2022-07-28T11:33:21Z</time>
      </trkpt>
      <trkpt lat="45.67901" lon="6.47791">
        <ele>1989</ele>
        <time>2022-07-28T11:33:22Z</time>
      </trkpt>
      <trkpt lat="45.67901" lon="6.4779">
        <ele>1989</ele>
        <time>2022-07-28T11:33:23Z</time>
      </trkpt>
      <trkpt lat="45.67902" lon="6.47789">
        <ele>1989</ele>
        <time>2022-07-28T11:33:24Z</time>
      </trkpt>
      <trkpt lat="45.67902" lon="6.47788">
        <ele>1989</ele>
        <time>2022-07-28T11:33:25Z</time>
      </trkpt>
      <trkpt lat="45.67902" lon="6.47787">
        <ele>1990</ele>
        <time>2022-07-28T11:33:26Z</time>
      </trkpt>
      <trkpt lat="45.67903" lon="6.47786">
        <ele>1990</ele>
        <time>2022-07-28T11:33:27Z</time>
      </trkpt>
      <trkpt lat="45.67903" lon="6.47785">
        <ele>1990</ele>
        <time>2022-07-28T11:33:28Z</time>
      </trkpt>
      <trkpt lat="45.67903" lon="6.47784">
        <ele>1990</ele>
        <time>2022-07-28T11:33:29Z</time>
      </trkpt>
      <trkpt lat="45.67903" lon="6.47782">
        <ele>1990</ele>
        <time>2022-07-28T11:33:30Z</time>
      </trkpt>
      <trkpt lat="45.67903" lon="6.47781">
        <ele>1990</ele>
        <time>2022-07-28T11:33:31Z</time>
      </trkpt>
      <trkpt lat="45.67903" lon="6.4778">
        <ele>1990</ele>
        <time>2022-07-28T11:33:32Z</time>
      </trkpt>
      <trkpt lat="45.67903" lon="6.47778">
        <ele>1990</ele>
        <time>2022-07-28T11:33:33Z</time>
      </trkpt>
      <trkpt lat="45.67903" lon="6.47777">
        <ele>1990</ele>
        <time>2022-07-28T11:33:34Z</time>
      </trkpt>
      <trkpt lat="45.67903" lon="6.47776">
        <ele>1990</ele>
        <time>2022-07-28T11:33:35Z</time>
      </trkpt>
      <trkpt lat="45.67903" lon="6.47774">
        <ele>1990</ele>
        <time>2022-07-28T11:33:36Z</time>
      </trkpt>
      <trkpt lat="45.67903" lon="6.47773">
        <ele>1990</ele>
        <time>2022-07-28T11:33:37Z</time>
      </trkpt>
      <trkpt lat="45.67903" lon="6.47771">
        <ele>1990</ele>
        <time>2022-07-28T11:33:38Z</time>
      </trkpt>
      <trkpt lat="45.67903" lon="6.4777">
        <ele>1990</ele>
        <time>2022-07-28T11:33:39Z</time>
      </trkpt>
      <trkpt lat="45.67903" lon="6.47769">
        <ele>1990</ele>
        <time>2022-07-28T11:33:40Z</time>
      </trkpt>
      <trkpt lat="45.67903" lon="6.47767">
        <ele>1990</ele>
        <time>2022-07-28T11:33:41Z</time>
      </trkpt>
      <trkpt lat="45.67903" lon="6.47766">
        <ele>1990</ele>
        <time>2022-07-28T11:33:42Z</time>
      </trkpt>
      <trkpt lat="45.67904" lon="6.47765">
        <ele>1990</ele>
        <time>2022-07-28T11:33:43Z</time>
      </trkpt>
      <trkpt lat="45.67904" lon="6.47764">
        <ele>1990</ele>
        <time>2022-07-28T11:33:44Z</time>
      </trkpt>
      <trkpt lat="45.67904" lon="6.47763">
        <ele>1990</ele>
        <time>2022-07-28T11:33:45Z</time>
      </trkpt>
      <trkpt lat="45.67905" lon="6.47762">
        <ele>1991</ele>
        <time>2022-07-28T11:33:46Z</time>
      </trkpt>
      <trkpt lat="45.67905" lon="6.47761">
        <ele>1991</ele>
        <time>2022-07-28T11:33:47Z</time>
      </trkpt>
      <trkpt lat="45.67906" lon="6.4776">
        <ele>1991</ele>
        <time>2022-07-28T11:33:48Z</time>
      </trkpt>
      <trkpt lat="45.67907" lon="6.47759">
        <ele>1991</ele>
        <time>2022-07-28T11:33:49Z</time>
      </trkpt>
      <trkpt lat="45.67907" lon="6.47758">
        <ele>1991</ele>
        <time>2022-07-28T11:33:50Z</time>
      </trkpt>
      <trkpt lat="45.67907" lon="6.47757">
        <ele>1991</ele>
        <time>2022-07-28T11:33:51Z</time>
      </trkpt>
      <trkpt lat="45.67908" lon="6.47755">
        <ele>1991</ele>
        <time>2022-07-28T11:33:52Z</time>
      </trkpt>
      <trkpt lat="45.67908" lon="6.47754">
        <ele>1991</ele>
        <time>2022-07-28T11:33:53Z</time>
      </trkpt>
      <trkpt lat="45.67908" lon="6.47751">
        <ele>1991</ele>
        <time>2022-07-28T11:34:02Z</time>
      </trkpt>
      <trkpt lat="45.67908" lon="6.4775">
        <ele>1991</ele>
        <time>2022-07-28T11:34:03Z</time>
      </trkpt>
      <trkpt lat="45.67908" lon="6.47749">
        <ele>1991</ele>
        <time>2022-07-28T11:34:04Z</time>
      </trkpt>
      <trkpt lat="45.67908" lon="6.47748">
        <ele>1991</ele>
        <time>2022-07-28T11:34:05Z</time>
      </trkpt>
      <trkpt lat="45.67908" lon="6.47747">
        <ele>1991</ele>
        <time>2022-07-28T11:34:06Z</time>
      </trkpt>
      <trkpt lat="45.67908" lon="6.47745">
        <ele>1991</ele>
        <time>2022-07-28T11:34:07Z</time>
      </trkpt>
      <trkpt lat="45.67908" lon="6.47743">
        <ele>1991</ele>
        <time>2022-07-28T11:34:08Z</time>
      </trkpt>
      <trkpt lat="45.67908" lon="6.47741">
        <ele>1991</ele>
        <time>2022-07-28T11:34:09Z</time>
      </trkpt>
      <trkpt lat="45.67908" lon="6.4774">
        <ele>1991</ele>
        <time>2022-07-28T11:34:10Z</time>
      </trkpt>
      <trkpt lat="45.67908" lon="6.47738">
        <ele>1992</ele>
        <time>2022-07-28T11:34:11Z</time>
      </trkpt>
      <trkpt lat="45.67908" lon="6.47736">
        <ele>1992</ele>
        <time>2022-07-28T11:34:12Z</time>
      </trkpt>
      <trkpt lat="45.67908" lon="6.47734">
        <ele>1992</ele>
        <time>2022-07-28T11:34:13Z</time>
      </trkpt>
      <trkpt lat="45.67908" lon="6.47732">
        <ele>1992</ele>
        <time>2022-07-28T11:34:14Z</time>
      </trkpt>
      <trkpt lat="45.67909" lon="6.47731">
        <ele>1992</ele>
        <time>2022-07-28T11:34:15Z</time>
      </trkpt>
      <trkpt lat="45.67909" lon="6.47729">
        <ele>1992</ele>
        <time>2022-07-28T11:34:16Z</time>
      </trkpt>
      <trkpt lat="45.67909" lon="6.47728">
        <ele>1992</ele>
        <time>2022-07-28T11:34:17Z</time>
      </trkpt>
      <trkpt lat="45.6791" lon="6.47727">
        <ele>1992</ele>
        <time>2022-07-28T11:34:18Z</time>
      </trkpt>
      <trkpt lat="45.67911" lon="6.47726">
        <ele>1992</ele>
        <time>2022-07-28T11:34:19Z</time>
      </trkpt>
      <trkpt lat="45.67912" lon="6.47725">
        <ele>1992</ele>
        <time>2022-07-28T11:34:20Z</time>
      </trkpt>
      <trkpt lat="45.67912" lon="6.47725">
        <ele>1992</ele>
        <time>2022-07-28T11:34:21Z</time>
      </trkpt>
      <trkpt lat="45.67913" lon="6.47725">
        <ele>1991</ele>
        <time>2022-07-28T11:34:22Z</time>
      </trkpt>
      <trkpt lat="45.67913" lon="6.47725">
        <ele>1991</ele>
        <time>2022-07-28T11:34:23Z</time>
      </trkpt>
      <trkpt lat="45.67914" lon="6.47725">
        <ele>1991</ele>
        <time>2022-07-28T11:34:24Z</time>
      </trkpt>
      <trkpt lat="45.67914" lon="6.47724">
        <ele>1991</ele>
        <time>2022-07-28T11:34:25Z</time>
      </trkpt>
      <trkpt lat="45.67915" lon="6.47724">
        <ele>1991</ele>
        <time>2022-07-28T11:34:26Z</time>
      </trkpt>
      <trkpt lat="45.67916" lon="6.47724">
        <ele>1991</ele>
        <time>2022-07-28T11:34:27Z</time>
      </trkpt>
      <trkpt lat="45.67916" lon="6.47723">
        <ele>1991</ele>
        <time>2022-07-28T11:34:28Z</time>
      </trkpt>
      <trkpt lat="45.67917" lon="6.47723">
        <ele>1991</ele>
        <time>2022-07-28T11:34:29Z</time>
      </trkpt>
      <trkpt lat="45.67918" lon="6.47722">
        <ele>1991</ele>
        <time>2022-07-28T11:34:30Z</time>
      </trkpt>
      <trkpt lat="45.67919" lon="6.47722">
        <ele>1992</ele>
        <time>2022-07-28T11:34:31Z</time>
      </trkpt>
      <trkpt lat="45.6792" lon="6.47721">
        <ele>1992</ele>
        <time>2022-07-28T11:34:32Z</time>
      </trkpt>
      <trkpt lat="45.6792" lon="6.4772">
        <ele>1992</ele>
        <time>2022-07-28T11:34:33Z</time>
      </trkpt>
      <trkpt lat="45.67921" lon="6.47719">
        <ele>1992</ele>
        <time>2022-07-28T11:34:34Z</time>
      </trkpt>
      <trkpt lat="45.67922" lon="6.47719">
        <ele>1992</ele>
        <time>2022-07-28T11:34:35Z</time>
      </trkpt>
      <trkpt lat="45.67923" lon="6.47718">
        <ele>1992</ele>
        <time>2022-07-28T11:34:36Z</time>
      </trkpt>
      <trkpt lat="45.67924" lon="6.47718">
        <ele>1992</ele>
        <time>2022-07-28T11:34:37Z</time>
      </trkpt>
      <trkpt lat="45.67924" lon="6.47717">
        <ele>1992</ele>
        <time>2022-07-28T11:34:38Z</time>
      </trkpt>
      <trkpt lat="45.67925" lon="6.47717">
        <ele>1992</ele>
        <time>2022-07-28T11:34:39Z</time>
      </trkpt>
      <trkpt lat="45.67926" lon="6.47716">
        <ele>1992</ele>
        <time>2022-07-28T11:34:40Z</time>
      </trkpt>
      <trkpt lat="45.67926" lon="6.47716">
        <ele>1992</ele>
        <time>2022-07-28T11:34:41Z</time>
      </trkpt>
      <trkpt lat="45.67927" lon="6.47715">
        <ele>1991</ele>
        <time>2022-07-28T11:34:42Z</time>
      </trkpt>
      <trkpt lat="45.67927" lon="6.47714">
        <ele>1991</ele>
        <time>2022-07-28T11:34:43Z</time>
      </trkpt>
      <trkpt lat="45.67928" lon="6.47714">
        <ele>1991</ele>
        <time>2022-07-28T11:34:44Z</time>
      </trkpt>
      <trkpt lat="45.67928" lon="6.47713">
        <ele>1991</ele>
        <time>2022-07-28T11:34:45Z</time>
      </trkpt>
      <trkpt lat="45.67929" lon="6.47713">
        <ele>1991</ele>
        <time>2022-07-28T11:34:46Z</time>
      </trkpt>
      <trkpt lat="45.67929" lon="6.47712">
        <ele>1991</ele>
        <time>2022-07-28T11:34:47Z</time>
      </trkpt>
      <trkpt lat="45.6793" lon="6.47712">
        <ele>1991</ele>
        <time>2022-07-28T11:34:48Z</time>
      </trkpt>
      <trkpt lat="45.6793" lon="6.47711">
        <ele>1991</ele>
        <time>2022-07-28T11:34:49Z</time>
      </trkpt>
      <trkpt lat="45.67931" lon="6.47711">
        <ele>1991</ele>
        <time>2022-07-28T11:34:50Z</time>
      </trkpt>
      <trkpt lat="45.67931" lon="6.4771">
        <ele>1992</ele>
        <time>2022-07-28T11:34:51Z</time>
      </trkpt>
      <trkpt lat="45.67931" lon="6.4771">
        <ele>1992</ele>
        <time>2022-07-28T11:34:52Z</time>
      </trkpt>
      <trkpt lat="45.67932" lon="6.47709">
        <ele>1992</ele>
        <time>2022-07-28T11:34:53Z</time>
      </trkpt>
      <trkpt lat="45.67932" lon="6.47709">
        <ele>1992</ele>
        <time>2022-07-28T11:34:54Z</time>
      </trkpt>
      <trkpt lat="45.67932" lon="6.47708">
        <ele>1992</ele>
        <time>2022-07-28T11:34:55Z</time>
      </trkpt>
      <trkpt lat="45.67932" lon="6.47708">
        <ele>1993</ele>
        <time>2022-07-28T11:34:56Z</time>
      </trkpt>
      <trkpt lat="45.67935" lon="6.47704">
        <ele>1996</ele>
        <time>2022-07-28T11:35:16Z</time>
      </trkpt>
      <trkpt lat="45.67936" lon="6.47702">
        <ele>1996</ele>
        <time>2022-07-28T11:35:17Z</time>
      </trkpt>
      <trkpt lat="45.67937" lon="6.477">
        <ele>1996</ele>
        <time>2022-07-28T11:35:18Z</time>
      </trkpt>
      <trkpt lat="45.67938" lon="6.47699">
        <ele>1997</ele>
        <time>2022-07-28T11:35:19Z</time>
      </trkpt>
      <trkpt lat="45.67939" lon="6.47698">
        <ele>1997</ele>
        <time>2022-07-28T11:35:20Z</time>
      </trkpt>
      <trkpt lat="45.67942" lon="6.47692">
        <ele>2000</ele>
        <time>2022-07-28T11:35:44Z</time>
      </trkpt>
      <trkpt lat="45.67943" lon="6.47689">
        <ele>2000</ele>
        <time>2022-07-28T11:35:45Z</time>
      </trkpt>
      <trkpt lat="45.67945" lon="6.47687">
        <ele>2001</ele>
        <time>2022-07-28T11:35:46Z</time>
      </trkpt>
      <trkpt lat="45.67946" lon="6.47685">
        <ele>2001</ele>
        <time>2022-07-28T11:35:47Z</time>
      </trkpt>
      <trkpt lat="45.67947" lon="6.47684">
        <ele>2001</ele>
        <time>2022-07-28T11:35:48Z</time>
      </trkpt>
      <trkpt lat="45.67947" lon="6.47683">
        <ele>2001</ele>
        <time>2022-07-28T11:35:49Z</time>
      </trkpt>
      <trkpt lat="45.67948" lon="6.47681">
        <ele>2001</ele>
        <time>2022-07-28T11:35:50Z</time>
      </trkpt>
      <trkpt lat="45.67948" lon="6.4768">
        <ele>2002</ele>
        <time>2022-07-28T11:35:51Z</time>
      </trkpt>
      <trkpt lat="45.67948" lon="6.47679">
        <ele>2002</ele>
        <time>2022-07-28T11:35:52Z</time>
      </trkpt>
      <trkpt lat="45.67949" lon="6.47679">
        <ele>2002</ele>
        <time>2022-07-28T11:35:53Z</time>
      </trkpt>
      <trkpt lat="45.67949" lon="6.47678">
        <ele>2002</ele>
        <time>2022-07-28T11:35:54Z</time>
      </trkpt>
      <trkpt lat="45.67949" lon="6.47677">
        <ele>2002</ele>
        <time>2022-07-28T11:35:55Z</time>
      </trkpt>
      <trkpt lat="45.6795" lon="6.47676">
        <ele>2003</ele>
        <time>2022-07-28T11:35:56Z</time>
      </trkpt>
      <trkpt lat="45.6795" lon="6.47675">
        <ele>2003</ele>
        <time>2022-07-28T11:35:57Z</time>
      </trkpt>
      <trkpt lat="45.6795" lon="6.47675">
        <ele>2003</ele>
        <time>2022-07-28T11:35:58Z</time>
      </trkpt>
      <trkpt lat="45.67951" lon="6.47674">
        <ele>2003</ele>
        <time>2022-07-28T11:35:59Z</time>
      </trkpt>
      <trkpt lat="45.67951" lon="6.47673">
        <ele>2003</ele>
        <time>2022-07-28T11:36:00Z</time>
      </trkpt>
      <trkpt lat="45.67951" lon="6.47672">
        <ele>2004</ele>
        <time>2022-07-28T11:36:01Z</time>
      </trkpt>
      <trkpt lat="45.67951" lon="6.4767">
        <ele>2004</ele>
        <time>2022-07-28T11:36:02Z</time>
      </trkpt>
      <trkpt lat="45.67952" lon="6.47669">
        <ele>2004</ele>
        <time>2022-07-28T11:36:03Z</time>
      </trkpt>
      <trkpt lat="45.67952" lon="6.47668">
        <ele>2004</ele>
        <time>2022-07-28T11:36:04Z</time>
      </trkpt>
      <trkpt lat="45.67952" lon="6.47667">
        <ele>2004</ele>
        <time>2022-07-28T11:36:05Z</time>
      </trkpt>
      <trkpt lat="45.67952" lon="6.47666">
        <ele>2004</ele>
        <time>2022-07-28T11:36:06Z</time>
      </trkpt>
      <trkpt lat="45.67953" lon="6.47665">
        <ele>2004</ele>
        <time>2022-07-28T11:36:07Z</time>
      </trkpt>
      <trkpt lat="45.67953" lon="6.47664">
        <ele>2004</ele>
        <time>2022-07-28T11:36:08Z</time>
      </trkpt>
      <trkpt lat="45.67953" lon="6.47663">
        <ele>2004</ele>
        <time>2022-07-28T11:36:09Z</time>
      </trkpt>
      <trkpt lat="45.67953" lon="6.47663">
        <ele>2004</ele>
        <time>2022-07-28T11:36:10Z</time>
      </trkpt>
      <trkpt lat="45.67954" lon="6.47662">
        <ele>2005</ele>
        <time>2022-07-28T11:36:11Z</time>
      </trkpt>
      <trkpt lat="45.67954" lon="6.47661">
        <ele>2005</ele>
        <time>2022-07-28T11:36:12Z</time>
      </trkpt>
      <trkpt lat="45.67954" lon="6.4766">
        <ele>2005</ele>
        <time>2022-07-28T11:36:13Z</time>
      </trkpt>
      <trkpt lat="45.67955" lon="6.47659">
        <ele>2005</ele>
        <time>2022-07-28T11:36:14Z</time>
      </trkpt>
      <trkpt lat="45.67955" lon="6.47659">
        <ele>2005</ele>
        <time>2022-07-28T11:36:15Z</time>
      </trkpt>
      <trkpt lat="45.67956" lon="6.47658">
        <ele>2005</ele>
        <time>2022-07-28T11:36:16Z</time>
      </trkpt>
      <trkpt lat="45.67959" lon="6.47658">
        <ele>2010</ele>
        <time>2022-07-28T11:36:36Z</time>
      </trkpt>
      <trkpt lat="45.6796" lon="6.47658">
        <ele>2010</ele>
        <time>2022-07-28T11:36:37Z</time>
      </trkpt>
      <trkpt lat="45.67962" lon="6.47657">
        <ele>2010</ele>
        <time>2022-07-28T11:36:38Z</time>
      </trkpt>
      <trkpt lat="45.67963" lon="6.47657">
        <ele>2010</ele>
        <time>2022-07-28T11:36:39Z</time>
      </trkpt>
      <trkpt lat="45.67963" lon="6.47656">
        <ele>2010</ele>
        <time>2022-07-28T11:36:40Z</time>
      </trkpt>
      <trkpt lat="45.67964" lon="6.47656">
        <ele>2010</ele>
        <time>2022-07-28T11:36:41Z</time>
      </trkpt>
      <trkpt lat="45.67964" lon="6.47655">
        <ele>2010</ele>
        <time>2022-07-28T11:36:42Z</time>
      </trkpt>
      <trkpt lat="45.67965" lon="6.47654">
        <ele>2010</ele>
        <time>2022-07-28T11:36:43Z</time>
      </trkpt>
      <trkpt lat="45.67965" lon="6.47653">
        <ele>2010</ele>
        <time>2022-07-28T11:36:44Z</time>
      </trkpt>
      <trkpt lat="45.67966" lon="6.47652">
        <ele>2010</ele>
        <time>2022-07-28T11:36:45Z</time>
      </trkpt>
      <trkpt lat="45.67966" lon="6.47651">
        <ele>2011</ele>
        <time>2022-07-28T11:36:46Z</time>
      </trkpt>
      <trkpt lat="45.67966" lon="6.4765">
        <ele>2011</ele>
        <time>2022-07-28T11:36:47Z</time>
      </trkpt>
      <trkpt lat="45.67966" lon="6.47649">
        <ele>2011</ele>
        <time>2022-07-28T11:36:48Z</time>
      </trkpt>
      <trkpt lat="45.67967" lon="6.47648">
        <ele>2011</ele>
        <time>2022-07-28T11:36:49Z</time>
      </trkpt>
      <trkpt lat="45.67967" lon="6.47647">
        <ele>2011</ele>
        <time>2022-07-28T11:36:50Z</time>
      </trkpt>
      <trkpt lat="45.67967" lon="6.47647">
        <ele>2012</ele>
        <time>2022-07-28T11:36:51Z</time>
      </trkpt>
      <trkpt lat="45.67967" lon="6.47647">
        <ele>2012</ele>
        <time>2022-07-28T11:36:52Z</time>
      </trkpt>
      <trkpt lat="45.67967" lon="6.47646">
        <ele>2012</ele>
        <time>2022-07-28T11:36:53Z</time>
      </trkpt>
      <trkpt lat="45.67967" lon="6.47646">
        <ele>2012</ele>
        <time>2022-07-28T11:36:54Z</time>
      </trkpt>
      <trkpt lat="45.67968" lon="6.47645">
        <ele>2012</ele>
        <time>2022-07-28T11:36:55Z</time>
      </trkpt>
      <trkpt lat="45.67968" lon="6.47644">
        <ele>2013</ele>
        <time>2022-07-28T11:36:56Z</time>
      </trkpt>
      <trkpt lat="45.67969" lon="6.47644">
        <ele>2013</ele>
        <time>2022-07-28T11:36:57Z</time>
      </trkpt>
      <trkpt lat="45.67969" lon="6.47643">
        <ele>2013</ele>
        <time>2022-07-28T11:36:58Z</time>
      </trkpt>
      <trkpt lat="45.6797" lon="6.47642">
        <ele>2013</ele>
        <time>2022-07-28T11:36:59Z</time>
      </trkpt>
      <trkpt lat="45.6797" lon="6.47642">
        <ele>2013</ele>
        <time>2022-07-28T11:37:00Z</time>
      </trkpt>
      <trkpt lat="45.6797" lon="6.47641">
        <ele>2014</ele>
        <time>2022-07-28T11:37:01Z</time>
      </trkpt>
      <trkpt lat="45.6797" lon="6.4764">
        <ele>2014</ele>
        <time>2022-07-28T11:37:02Z</time>
      </trkpt>
      <trkpt lat="45.6797" lon="6.47639">
        <ele>2014</ele>
        <time>2022-07-28T11:37:03Z</time>
      </trkpt>
      <trkpt lat="45.6797" lon="6.47638">
        <ele>2014</ele>
        <time>2022-07-28T11:37:04Z</time>
      </trkpt>
      <trkpt lat="45.6797" lon="6.47637">
        <ele>2014</ele>
        <time>2022-07-28T11:37:05Z</time>
      </trkpt>
      <trkpt lat="45.6797" lon="6.47636">
        <ele>2015</ele>
        <time>2022-07-28T11:37:06Z</time>
      </trkpt>
      <trkpt lat="45.6797" lon="6.47635">
        <ele>2015</ele>
        <time>2022-07-28T11:37:07Z</time>
      </trkpt>
      <trkpt lat="45.6797" lon="6.47635">
        <ele>2015</ele>
        <time>2022-07-28T11:37:08Z</time>
      </trkpt>
      <trkpt lat="45.6797" lon="6.47634">
        <ele>2015</ele>
        <time>2022-07-28T11:37:09Z</time>
      </trkpt>
      <trkpt lat="45.67971" lon="6.47633">
        <ele>2015</ele>
        <time>2022-07-28T11:37:10Z</time>
      </trkpt>
      <trkpt lat="45.67971" lon="6.47631">
        <ele>2017</ele>
        <time>2022-07-28T11:37:24Z</time>
      </trkpt>
      <trkpt lat="45.67971" lon="6.47629">
        <ele>2017</ele>
        <time>2022-07-28T11:37:25Z</time>
      </trkpt>
      <trkpt lat="45.67972" lon="6.47628">
        <ele>2018</ele>
        <time>2022-07-28T11:37:26Z</time>
      </trkpt>
      <trkpt lat="45.67972" lon="6.47627">
        <ele>2018</ele>
        <time>2022-07-28T11:37:27Z</time>
      </trkpt>
      <trkpt lat="45.67973" lon="6.47626">
        <ele>2018</ele>
        <time>2022-07-28T11:37:28Z</time>
      </trkpt>
      <trkpt lat="45.67973" lon="6.47625">
        <ele>2018</ele>
        <time>2022-07-28T11:37:29Z</time>
      </trkpt>
      <trkpt lat="45.67974" lon="6.47624">
        <ele>2018</ele>
        <time>2022-07-28T11:37:30Z</time>
      </trkpt>
      <trkpt lat="45.67975" lon="6.47623">
        <ele>2018</ele>
        <time>2022-07-28T11:37:31Z</time>
      </trkpt>
      <trkpt lat="45.67975" lon="6.47622">
        <ele>2018</ele>
        <time>2022-07-28T11:37:32Z</time>
      </trkpt>
      <trkpt lat="45.67976" lon="6.47622">
        <ele>2018</ele>
        <time>2022-07-28T11:37:33Z</time>
      </trkpt>
      <trkpt lat="45.67976" lon="6.47621">
        <ele>2018</ele>
        <time>2022-07-28T11:37:34Z</time>
      </trkpt>
      <trkpt lat="45.67977" lon="6.4762">
        <ele>2018</ele>
        <time>2022-07-28T11:37:35Z</time>
      </trkpt>
      <trkpt lat="45.67977" lon="6.47619">
        <ele>2019</ele>
        <time>2022-07-28T11:37:36Z</time>
      </trkpt>
      <trkpt lat="45.67978" lon="6.47617">
        <ele>2020</ele>
        <time>2022-07-28T11:37:42Z</time>
      </trkpt>
      <trkpt lat="45.67978" lon="6.47617">
        <ele>2020</ele>
        <time>2022-07-28T11:37:43Z</time>
      </trkpt>
      <trkpt lat="45.67979" lon="6.47616">
        <ele>2020</ele>
        <time>2022-07-28T11:37:44Z</time>
      </trkpt>
      <trkpt lat="45.67979" lon="6.47615">
        <ele>2020</ele>
        <time>2022-07-28T11:37:45Z</time>
      </trkpt>
      <trkpt lat="45.6798" lon="6.47614">
        <ele>2020</ele>
        <time>2022-07-28T11:37:46Z</time>
      </trkpt>
      <trkpt lat="45.6798" lon="6.47613">
        <ele>2020</ele>
        <time>2022-07-28T11:37:47Z</time>
      </trkpt>
      <trkpt lat="45.67981" lon="6.47612">
        <ele>2020</ele>
        <time>2022-07-28T11:37:48Z</time>
      </trkpt>
      <trkpt lat="45.67981" lon="6.47611">
        <ele>2020</ele>
        <time>2022-07-28T11:37:49Z</time>
      </trkpt>
      <trkpt lat="45.67982" lon="6.4761">
        <ele>2020</ele>
        <time>2022-07-28T11:37:50Z</time>
      </trkpt>
      <trkpt lat="45.67982" lon="6.4761">
        <ele>2021</ele>
        <time>2022-07-28T11:37:51Z</time>
      </trkpt>
      <trkpt lat="45.67983" lon="6.47609">
        <ele>2021</ele>
        <time>2022-07-28T11:37:52Z</time>
      </trkpt>
      <trkpt lat="45.67984" lon="6.47608">
        <ele>2021</ele>
        <time>2022-07-28T11:37:53Z</time>
      </trkpt>
      <trkpt lat="45.67984" lon="6.47607">
        <ele>2021</ele>
        <time>2022-07-28T11:37:54Z</time>
      </trkpt>
      <trkpt lat="45.67985" lon="6.47607">
        <ele>2021</ele>
        <time>2022-07-28T11:37:55Z</time>
      </trkpt>
      <trkpt lat="45.67985" lon="6.47606">
        <ele>2022</ele>
        <time>2022-07-28T11:37:56Z</time>
      </trkpt>
      <trkpt lat="45.67985" lon="6.47605">
        <ele>2022</ele>
        <time>2022-07-28T11:37:57Z</time>
      </trkpt>
      <trkpt lat="45.67986" lon="6.47604">
        <ele>2022</ele>
        <time>2022-07-28T11:37:58Z</time>
      </trkpt>
      <trkpt lat="45.67986" lon="6.47603">
        <ele>2022</ele>
        <time>2022-07-28T11:37:59Z</time>
      </trkpt>
      <trkpt lat="45.67987" lon="6.47602">
        <ele>2022</ele>
        <time>2022-07-28T11:38:00Z</time>
      </trkpt>
      <trkpt lat="45.67987" lon="6.47601">
        <ele>2023</ele>
        <time>2022-07-28T11:38:01Z</time>
      </trkpt>
      <trkpt lat="45.67988" lon="6.476">
        <ele>2023</ele>
        <time>2022-07-28T11:38:02Z</time>
      </trkpt>
      <trkpt lat="45.67988" lon="6.47599">
        <ele>2023</ele>
        <time>2022-07-28T11:38:03Z</time>
      </trkpt>
      <trkpt lat="45.67989" lon="6.47598">
        <ele>2023</ele>
        <time>2022-07-28T11:38:04Z</time>
      </trkpt>
      <trkpt lat="45.67989" lon="6.47597">
        <ele>2023</ele>
        <time>2022-07-28T11:38:05Z</time>
      </trkpt>
      <trkpt lat="45.6799" lon="6.47596">
        <ele>2024</ele>
        <time>2022-07-28T11:38:06Z</time>
      </trkpt>
      <trkpt lat="45.67991" lon="6.47595">
        <ele>2024</ele>
        <time>2022-07-28T11:38:07Z</time>
      </trkpt>
      <trkpt lat="45.67991" lon="6.47594">
        <ele>2024</ele>
        <time>2022-07-28T11:38:08Z</time>
      </trkpt>
      <trkpt lat="45.67992" lon="6.47593">
        <ele>2024</ele>
        <time>2022-07-28T11:38:09Z</time>
      </trkpt>
      <trkpt lat="45.67992" lon="6.47592">
        <ele>2024</ele>
        <time>2022-07-28T11:38:10Z</time>
      </trkpt>
      <trkpt lat="45.67993" lon="6.47591">
        <ele>2024</ele>
        <time>2022-07-28T11:38:11Z</time>
      </trkpt>
      <trkpt lat="45.67994" lon="6.4759">
        <ele>2024</ele>
        <time>2022-07-28T11:38:12Z</time>
      </trkpt>
      <trkpt lat="45.67994" lon="6.47589">
        <ele>2024</ele>
        <time>2022-07-28T11:38:13Z</time>
      </trkpt>
      <trkpt lat="45.67995" lon="6.47588">
        <ele>2024</ele>
        <time>2022-07-28T11:38:14Z</time>
      </trkpt>
      <trkpt lat="45.67995" lon="6.47587">
        <ele>2024</ele>
        <time>2022-07-28T11:38:15Z</time>
      </trkpt>
      <trkpt lat="45.67996" lon="6.47586">
        <ele>2025</ele>
        <time>2022-07-28T11:38:16Z</time>
      </trkpt>
      <trkpt lat="45.67997" lon="6.47585">
        <ele>2025</ele>
        <time>2022-07-28T11:38:17Z</time>
      </trkpt>
      <trkpt lat="45.67997" lon="6.47584">
        <ele>2025</ele>
        <time>2022-07-28T11:38:18Z</time>
      </trkpt>
      <trkpt lat="45.67998" lon="6.47583">
        <ele>2025</ele>
        <time>2022-07-28T11:38:19Z</time>
      </trkpt>
      <trkpt lat="45.67998" lon="6.47582">
        <ele>2025</ele>
        <time>2022-07-28T11:38:20Z</time>
      </trkpt>
      <trkpt lat="45.67999" lon="6.47581">
        <ele>2026</ele>
        <time>2022-07-28T11:38:21Z</time>
      </trkpt>
      <trkpt lat="45.67999" lon="6.4758">
        <ele>2026</ele>
        <time>2022-07-28T11:38:22Z</time>
      </trkpt>
      <trkpt lat="45.68" lon="6.47579">
        <ele>2026</ele>
        <time>2022-07-28T11:38:23Z</time>
      </trkpt>
      <trkpt lat="45.68" lon="6.47578">
        <ele>2026</ele>
        <time>2022-07-28T11:38:24Z</time>
      </trkpt>
      <trkpt lat="45.68001" lon="6.47577">
        <ele>2026</ele>
        <time>2022-07-28T11:38:25Z</time>
      </trkpt>
      <trkpt lat="45.68002" lon="6.47575">
        <ele>2027</ele>
        <time>2022-07-28T11:38:26Z</time>
      </trkpt>
      <trkpt lat="45.68002" lon="6.47574">
        <ele>2027</ele>
        <time>2022-07-28T11:38:27Z</time>
      </trkpt>
      <trkpt lat="45.68003" lon="6.47573">
        <ele>2027</ele>
        <time>2022-07-28T11:38:28Z</time>
      </trkpt>
      <trkpt lat="45.68004" lon="6.47573">
        <ele>2027</ele>
        <time>2022-07-28T11:38:29Z</time>
      </trkpt>
      <trkpt lat="45.68004" lon="6.47572">
        <ele>2027</ele>
        <time>2022-07-28T11:38:30Z</time>
      </trkpt>
      <trkpt lat="45.68005" lon="6.47571">
        <ele>2028</ele>
        <time>2022-07-28T11:38:31Z</time>
      </trkpt>
      <trkpt lat="45.68006" lon="6.4757">
        <ele>2028</ele>
        <time>2022-07-28T11:38:32Z</time>
      </trkpt>
      <trkpt lat="45.68006" lon="6.4757">
        <ele>2028</ele>
        <time>2022-07-28T11:38:33Z</time>
      </trkpt>
      <trkpt lat="45.68007" lon="6.47569">
        <ele>2028</ele>
        <time>2022-07-28T11:38:34Z</time>
      </trkpt>
      <trkpt lat="45.68008" lon="6.47568">
        <ele>2028</ele>
        <time>2022-07-28T11:38:35Z</time>
      </trkpt>
      <trkpt lat="45.68009" lon="6.47568">
        <ele>2028</ele>
        <time>2022-07-28T11:38:36Z</time>
      </trkpt>
      <trkpt lat="45.68009" lon="6.47567">
        <ele>2028</ele>
        <time>2022-07-28T11:38:37Z</time>
      </trkpt>
      <trkpt lat="45.6801" lon="6.47567">
        <ele>2028</ele>
        <time>2022-07-28T11:38:38Z</time>
      </trkpt>
      <trkpt lat="45.68011" lon="6.47566">
        <ele>2028</ele>
        <time>2022-07-28T11:38:39Z</time>
      </trkpt>
      <trkpt lat="45.68012" lon="6.47566">
        <ele>2028</ele>
        <time>2022-07-28T11:38:40Z</time>
      </trkpt>
      <trkpt lat="45.68013" lon="6.47566">
        <ele>2029</ele>
        <time>2022-07-28T11:38:41Z</time>
      </trkpt>
      <trkpt lat="45.68014" lon="6.47565">
        <ele>2029</ele>
        <time>2022-07-28T11:38:42Z</time>
      </trkpt>
      <trkpt lat="45.68015" lon="6.47565">
        <ele>2029</ele>
        <time>2022-07-28T11:38:43Z</time>
      </trkpt>
      <trkpt lat="45.68015" lon="6.47565">
        <ele>2029</ele>
        <time>2022-07-28T11:38:44Z</time>
      </trkpt>
      <trkpt lat="45.68016" lon="6.47564">
        <ele>2029</ele>
        <time>2022-07-28T11:38:45Z</time>
      </trkpt>
      <trkpt lat="45.68017" lon="6.47564">
        <ele>2030</ele>
        <time>2022-07-28T11:38:46Z</time>
      </trkpt>
      <trkpt lat="45.68018" lon="6.47564">
        <ele>2030</ele>
        <time>2022-07-28T11:38:47Z</time>
      </trkpt>
      <trkpt lat="45.68019" lon="6.47564">
        <ele>2030</ele>
        <time>2022-07-28T11:38:48Z</time>
      </trkpt>
      <trkpt lat="45.6802" lon="6.47563">
        <ele>2030</ele>
        <time>2022-07-28T11:38:49Z</time>
      </trkpt>
      <trkpt lat="45.68021" lon="6.47563">
        <ele>2030</ele>
        <time>2022-07-28T11:38:50Z</time>
      </trkpt>
      <trkpt lat="45.68021" lon="6.47562">
        <ele>2030</ele>
        <time>2022-07-28T11:38:51Z</time>
      </trkpt>
      <trkpt lat="45.68022" lon="6.47562">
        <ele>2030</ele>
        <time>2022-07-28T11:38:52Z</time>
      </trkpt>
      <trkpt lat="45.68023" lon="6.47562">
        <ele>2030</ele>
        <time>2022-07-28T11:38:53Z</time>
      </trkpt>
      <trkpt lat="45.68024" lon="6.47561">
        <ele>2030</ele>
        <time>2022-07-28T11:38:54Z</time>
      </trkpt>
      <trkpt lat="45.68024" lon="6.47561">
        <ele>2030</ele>
        <time>2022-07-28T11:38:55Z</time>
      </trkpt>
      <trkpt lat="45.68025" lon="6.4756">
        <ele>2030</ele>
        <time>2022-07-28T11:38:56Z</time>
      </trkpt>
      <trkpt lat="45.68026" lon="6.47559">
        <ele>2030</ele>
        <time>2022-07-28T11:38:57Z</time>
      </trkpt>
      <trkpt lat="45.68026" lon="6.47558">
        <ele>2030</ele>
        <time>2022-07-28T11:38:58Z</time>
      </trkpt>
      <trkpt lat="45.68027" lon="6.47557">
        <ele>2030</ele>
        <time>2022-07-28T11:38:59Z</time>
      </trkpt>
      <trkpt lat="45.68027" lon="6.47557">
        <ele>2030</ele>
        <time>2022-07-28T11:39:00Z</time>
      </trkpt>
      <trkpt lat="45.68028" lon="6.47556">
        <ele>2031</ele>
        <time>2022-07-28T11:39:01Z</time>
      </trkpt>
      <trkpt lat="45.68028" lon="6.47555">
        <ele>2031</ele>
        <time>2022-07-28T11:39:02Z</time>
      </trkpt>
      <trkpt lat="45.68029" lon="6.47555">
        <ele>2031</ele>
        <time>2022-07-28T11:39:03Z</time>
      </trkpt>
      <trkpt lat="45.68029" lon="6.47554">
        <ele>2031</ele>
        <time>2022-07-28T11:39:04Z</time>
      </trkpt>
      <trkpt lat="45.6803" lon="6.47553">
        <ele>2031</ele>
        <time>2022-07-28T11:39:05Z</time>
      </trkpt>
      <trkpt lat="45.6803" lon="6.47552">
        <ele>2031</ele>
        <time>2022-07-28T11:39:06Z</time>
      </trkpt>
      <trkpt lat="45.68031" lon="6.47551">
        <ele>2031</ele>
        <time>2022-07-28T11:39:07Z</time>
      </trkpt>
      <trkpt lat="45.68032" lon="6.47549">
        <ele>2031</ele>
        <time>2022-07-28T11:39:08Z</time>
      </trkpt>
      <trkpt lat="45.68032" lon="6.47548">
        <ele>2031</ele>
        <time>2022-07-28T11:39:09Z</time>
      </trkpt>
      <trkpt lat="45.68033" lon="6.47546">
        <ele>2031</ele>
        <time>2022-07-28T11:39:10Z</time>
      </trkpt>
      <trkpt lat="45.68034" lon="6.47545">
        <ele>2031</ele>
        <time>2022-07-28T11:39:11Z</time>
      </trkpt>
      <trkpt lat="45.68035" lon="6.47543">
        <ele>2031</ele>
        <time>2022-07-28T11:39:12Z</time>
      </trkpt>
      <trkpt lat="45.68035" lon="6.47542">
        <ele>2031</ele>
        <time>2022-07-28T11:39:13Z</time>
      </trkpt>
      <trkpt lat="45.68036" lon="6.47541">
        <ele>2032</ele>
        <time>2022-07-28T11:39:23Z</time>
      </trkpt>
      <trkpt lat="45.68037" lon="6.4754">
        <ele>2032</ele>
        <time>2022-07-28T11:39:24Z</time>
      </trkpt>
      <trkpt lat="45.68037" lon="6.4754">
        <ele>2032</ele>
        <time>2022-07-28T11:39:25Z</time>
      </trkpt>
      <trkpt lat="45.68038" lon="6.47539">
        <ele>2032</ele>
        <time>2022-07-28T11:39:26Z</time>
      </trkpt>
      <trkpt lat="45.68038" lon="6.47539">
        <ele>2032</ele>
        <time>2022-07-28T11:39:27Z</time>
      </trkpt>
      <trkpt lat="45.68039" lon="6.47538">
        <ele>2032</ele>
        <time>2022-07-28T11:39:28Z</time>
      </trkpt>
      <trkpt lat="45.68039" lon="6.47537">
        <ele>2032</ele>
        <time>2022-07-28T11:39:29Z</time>
      </trkpt>
      <trkpt lat="45.6804" lon="6.47536">
        <ele>2032</ele>
        <time>2022-07-28T11:39:30Z</time>
      </trkpt>
      <trkpt lat="45.68041" lon="6.47535">
        <ele>2033</ele>
        <time>2022-07-28T11:39:31Z</time>
      </trkpt>
      <trkpt lat="45.68041" lon="6.47533">
        <ele>2033</ele>
        <time>2022-07-28T11:39:32Z</time>
      </trkpt>
      <trkpt lat="45.68042" lon="6.47532">
        <ele>2033</ele>
        <time>2022-07-28T11:39:33Z</time>
      </trkpt>
      <trkpt lat="45.68042" lon="6.47531">
        <ele>2033</ele>
        <time>2022-07-28T11:39:34Z</time>
      </trkpt>
      <trkpt lat="45.68043" lon="6.4753">
        <ele>2033</ele>
        <time>2022-07-28T11:39:35Z</time>
      </trkpt>
      <trkpt lat="45.68043" lon="6.47529">
        <ele>2033</ele>
        <time>2022-07-28T11:39:36Z</time>
      </trkpt>
      <trkpt lat="45.68044" lon="6.47528">
        <ele>2033</ele>
        <time>2022-07-28T11:39:37Z</time>
      </trkpt>
      <trkpt lat="45.68044" lon="6.47527">
        <ele>2033</ele>
        <time>2022-07-28T11:39:38Z</time>
      </trkpt>
      <trkpt lat="45.68045" lon="6.47526">
        <ele>2033</ele>
        <time>2022-07-28T11:39:39Z</time>
      </trkpt>
      <trkpt lat="45.68045" lon="6.47525">
        <ele>2033</ele>
        <time>2022-07-28T11:39:40Z</time>
      </trkpt>
      <trkpt lat="45.68046" lon="6.47524">
        <ele>2033</ele>
        <time>2022-07-28T11:39:41Z</time>
      </trkpt>
      <trkpt lat="45.68046" lon="6.47523">
        <ele>2033</ele>
        <time>2022-07-28T11:39:42Z</time>
      </trkpt>
      <trkpt lat="45.68047" lon="6.47522">
        <ele>2033</ele>
        <time>2022-07-28T11:39:43Z</time>
      </trkpt>
      <trkpt lat="45.68048" lon="6.47522">
        <ele>2033</ele>
        <time>2022-07-28T11:39:44Z</time>
      </trkpt>
      <trkpt lat="45.68048" lon="6.47521">
        <ele>2033</ele>
        <time>2022-07-28T11:39:45Z</time>
      </trkpt>
      <trkpt lat="45.68049" lon="6.47521">
        <ele>2033</ele>
        <time>2022-07-28T11:39:46Z</time>
      </trkpt>
      <trkpt lat="45.6805" lon="6.4752">
        <ele>2033</ele>
        <time>2022-07-28T11:39:47Z</time>
      </trkpt>
      <trkpt lat="45.6805" lon="6.4752">
        <ele>2034</ele>
        <time>2022-07-28T11:39:54Z</time>
      </trkpt>
      <trkpt lat="45.68051" lon="6.47519">
        <ele>2034</ele>
        <time>2022-07-28T11:39:55Z</time>
      </trkpt>
      <trkpt lat="45.68052" lon="6.47519">
        <ele>2034</ele>
        <time>2022-07-28T11:39:56Z</time>
      </trkpt>
      <trkpt lat="45.68052" lon="6.47518">
        <ele>2034</ele>
        <time>2022-07-28T11:39:57Z</time>
      </trkpt>
      <trkpt lat="45.68053" lon="6.47518">
        <ele>2034</ele>
        <time>2022-07-28T11:39:58Z</time>
      </trkpt>
      <trkpt lat="45.68053" lon="6.47517">
        <ele>2034</ele>
        <time>2022-07-28T11:39:59Z</time>
      </trkpt>
      <trkpt lat="45.68054" lon="6.47516">
        <ele>2034</ele>
        <time>2022-07-28T11:40:00Z</time>
      </trkpt>
      <trkpt lat="45.68054" lon="6.47516">
        <ele>2034</ele>
        <time>2022-07-28T11:40:01Z</time>
      </trkpt>
      <trkpt lat="45.68055" lon="6.47516">
        <ele>2034</ele>
        <time>2022-07-28T11:40:02Z</time>
      </trkpt>
      <trkpt lat="45.68055" lon="6.47516">
        <ele>2034</ele>
        <time>2022-07-28T11:40:03Z</time>
      </trkpt>
      <trkpt lat="45.68055" lon="6.47515">
        <ele>2035</ele>
        <time>2022-07-28T11:40:04Z</time>
      </trkpt>
      <trkpt lat="45.68056" lon="6.47515">
        <ele>2035</ele>
        <time>2022-07-28T11:40:05Z</time>
      </trkpt>
      <trkpt lat="45.68056" lon="6.47515">
        <ele>2036</ele>
        <time>2022-07-28T11:40:06Z</time>
      </trkpt>
      <trkpt lat="45.68057" lon="6.47515">
        <ele>2036</ele>
        <time>2022-07-28T11:40:07Z</time>
      </trkpt>
      <trkpt lat="45.68057" lon="6.47515">
        <ele>2036</ele>
        <time>2022-07-28T11:40:08Z</time>
      </trkpt>
      <trkpt lat="45.68058" lon="6.47514">
        <ele>2036</ele>
        <time>2022-07-28T11:40:09Z</time>
      </trkpt>
      <trkpt lat="45.68058" lon="6.47514">
        <ele>2036</ele>
        <time>2022-07-28T11:40:10Z</time>
      </trkpt>
      <trkpt lat="45.68059" lon="6.47514">
        <ele>2036</ele>
        <time>2022-07-28T11:40:11Z</time>
      </trkpt>
      <trkpt lat="45.68059" lon="6.47514">
        <ele>2036</ele>
        <time>2022-07-28T11:40:12Z</time>
      </trkpt>
      <trkpt lat="45.6806" lon="6.47514">
        <ele>2036</ele>
        <time>2022-07-28T11:40:13Z</time>
      </trkpt>
      <trkpt lat="45.6806" lon="6.47514">
        <ele>2036</ele>
        <time>2022-07-28T11:40:14Z</time>
      </trkpt>
      <trkpt lat="45.68061" lon="6.47513">
        <ele>2036</ele>
        <time>2022-07-28T11:40:15Z</time>
      </trkpt>
      <trkpt lat="45.68061" lon="6.47513">
        <ele>2037</ele>
        <time>2022-07-28T11:40:16Z</time>
      </trkpt>
      <trkpt lat="45.68062" lon="6.47512">
        <ele>2037</ele>
        <time>2022-07-28T11:40:17Z</time>
      </trkpt>
      <trkpt lat="45.68062" lon="6.47511">
        <ele>2037</ele>
        <time>2022-07-28T11:40:18Z</time>
      </trkpt>
      <trkpt lat="45.68063" lon="6.4751">
        <ele>2037</ele>
        <time>2022-07-28T11:40:19Z</time>
      </trkpt>
      <trkpt lat="45.68063" lon="6.47509">
        <ele>2037</ele>
        <time>2022-07-28T11:40:20Z</time>
      </trkpt>
      <trkpt lat="45.68064" lon="6.47508">
        <ele>2037</ele>
        <time>2022-07-28T11:40:21Z</time>
      </trkpt>
      <trkpt lat="45.68064" lon="6.47506">
        <ele>2037</ele>
        <time>2022-07-28T11:40:22Z</time>
      </trkpt>
      <trkpt lat="45.68065" lon="6.47505">
        <ele>2037</ele>
        <time>2022-07-28T11:40:23Z</time>
      </trkpt>
      <trkpt lat="45.68065" lon="6.47504">
        <ele>2037</ele>
        <time>2022-07-28T11:40:24Z</time>
      </trkpt>
      <trkpt lat="45.68066" lon="6.47503">
        <ele>2037</ele>
        <time>2022-07-28T11:40:25Z</time>
      </trkpt>
      <trkpt lat="45.68067" lon="6.47501">
        <ele>2037</ele>
        <time>2022-07-28T11:40:26Z</time>
      </trkpt>
      <trkpt lat="45.68067" lon="6.475">
        <ele>2037</ele>
        <time>2022-07-28T11:40:27Z</time>
      </trkpt>
      <trkpt lat="45.68068" lon="6.47499">
        <ele>2037</ele>
        <time>2022-07-28T11:40:28Z</time>
      </trkpt>
      <trkpt lat="45.68068" lon="6.47498">
        <ele>2037</ele>
        <time>2022-07-28T11:40:29Z</time>
      </trkpt>
      <trkpt lat="45.68069" lon="6.47497">
        <ele>2037</ele>
        <time>2022-07-28T11:40:30Z</time>
      </trkpt>
      <trkpt lat="45.68069" lon="6.47496">
        <ele>2037</ele>
        <time>2022-07-28T11:40:31Z</time>
      </trkpt>
      <trkpt lat="45.68069" lon="6.47495">
        <ele>2037</ele>
        <time>2022-07-28T11:40:32Z</time>
      </trkpt>
      <trkpt lat="45.6807" lon="6.47494">
        <ele>2037</ele>
        <time>2022-07-28T11:40:33Z</time>
      </trkpt>
      <trkpt lat="45.6807" lon="6.47493">
        <ele>2037</ele>
        <time>2022-07-28T11:40:34Z</time>
      </trkpt>
      <trkpt lat="45.6807" lon="6.47492">
        <ele>2037</ele>
        <time>2022-07-28T11:40:35Z</time>
      </trkpt>
      <trkpt lat="45.68071" lon="6.47491">
        <ele>2038</ele>
        <time>2022-07-28T11:40:36Z</time>
      </trkpt>
      <trkpt lat="45.68071" lon="6.4749">
        <ele>2038</ele>
        <time>2022-07-28T11:40:37Z</time>
      </trkpt>
      <trkpt lat="45.68072" lon="6.4749">
        <ele>2038</ele>
        <time>2022-07-28T11:40:38Z</time>
      </trkpt>
      <trkpt lat="45.68072" lon="6.47489">
        <ele>2038</ele>
        <time>2022-07-28T11:40:39Z</time>
      </trkpt>
      <trkpt lat="45.68072" lon="6.47488">
        <ele>2038</ele>
        <time>2022-07-28T11:40:40Z</time>
      </trkpt>
      <trkpt lat="45.68073" lon="6.47487">
        <ele>2039</ele>
        <time>2022-07-28T11:40:41Z</time>
      </trkpt>
      <trkpt lat="45.68073" lon="6.47486">
        <ele>2039</ele>
        <time>2022-07-28T11:40:42Z</time>
      </trkpt>
      <trkpt lat="45.68074" lon="6.47485">
        <ele>2039</ele>
        <time>2022-07-28T11:40:43Z</time>
      </trkpt>
      <trkpt lat="45.68074" lon="6.47484">
        <ele>2039</ele>
        <time>2022-07-28T11:40:44Z</time>
      </trkpt>
      <trkpt lat="45.68075" lon="6.47484">
        <ele>2039</ele>
        <time>2022-07-28T11:40:45Z</time>
      </trkpt>
      <trkpt lat="45.68075" lon="6.47483">
        <ele>2039</ele>
        <time>2022-07-28T11:40:46Z</time>
      </trkpt>
      <trkpt lat="45.68076" lon="6.47482">
        <ele>2039</ele>
        <time>2022-07-28T11:40:47Z</time>
      </trkpt>
      <trkpt lat="45.68077" lon="6.47481">
        <ele>2040</ele>
        <time>2022-07-28T11:41:58Z</time>
      </trkpt>
      <trkpt lat="45.68077" lon="6.4748">
        <ele>2040</ele>
        <time>2022-07-28T11:41:59Z</time>
      </trkpt>
      <trkpt lat="45.68077" lon="6.47479">
        <ele>2040</ele>
        <time>2022-07-28T11:42:00Z</time>
      </trkpt>
      <trkpt lat="45.68078" lon="6.47478">
        <ele>2040</ele>
        <time>2022-07-28T11:42:01Z</time>
      </trkpt>
      <trkpt lat="45.68078" lon="6.47477">
        <ele>2040</ele>
        <time>2022-07-28T11:42:02Z</time>
      </trkpt>
      <trkpt lat="45.68078" lon="6.47476">
        <ele>2040</ele>
        <time>2022-07-28T11:42:03Z</time>
      </trkpt>
      <trkpt lat="45.68078" lon="6.47475">
        <ele>2040</ele>
        <time>2022-07-28T11:42:04Z</time>
      </trkpt>
      <trkpt lat="45.68078" lon="6.47474">
        <ele>2040</ele>
        <time>2022-07-28T11:42:05Z</time>
      </trkpt>
      <trkpt lat="45.68078" lon="6.47473">
        <ele>2040</ele>
        <time>2022-07-28T11:42:06Z</time>
      </trkpt>
      <trkpt lat="45.68078" lon="6.47473">
        <ele>2040</ele>
        <time>2022-07-28T11:42:07Z</time>
      </trkpt>
      <trkpt lat="45.68078" lon="6.47472">
        <ele>2040</ele>
        <time>2022-07-28T11:42:08Z</time>
      </trkpt>
      <trkpt lat="45.68079" lon="6.47471">
        <ele>2040</ele>
        <time>2022-07-28T11:42:09Z</time>
      </trkpt>
      <trkpt lat="45.68079" lon="6.4747">
        <ele>2040</ele>
        <time>2022-07-28T11:42:10Z</time>
      </trkpt>
      <trkpt lat="45.68079" lon="6.47469">
        <ele>2041</ele>
        <time>2022-07-28T11:42:11Z</time>
      </trkpt>
      <trkpt lat="45.6808" lon="6.47469">
        <ele>2041</ele>
        <time>2022-07-28T11:42:12Z</time>
      </trkpt>
      <trkpt lat="45.6808" lon="6.47468">
        <ele>2041</ele>
        <time>2022-07-28T11:42:13Z</time>
      </trkpt>
      <trkpt lat="45.68081" lon="6.47466">
        <ele>2041</ele>
        <time>2022-07-28T11:42:14Z</time>
      </trkpt>
      <trkpt lat="45.68081" lon="6.47465">
        <ele>2041</ele>
        <time>2022-07-28T11:42:15Z</time>
      </trkpt>
      <trkpt lat="45.68082" lon="6.47464">
        <ele>2041</ele>
        <time>2022-07-28T11:42:16Z</time>
      </trkpt>
      <trkpt lat="45.68082" lon="6.47462">
        <ele>2041</ele>
        <time>2022-07-28T11:42:17Z</time>
      </trkpt>
      <trkpt lat="45.68082" lon="6.47461">
        <ele>2041</ele>
        <time>2022-07-28T11:42:18Z</time>
      </trkpt>
      <trkpt lat="45.68082" lon="6.4746">
        <ele>2041</ele>
        <time>2022-07-28T11:42:19Z</time>
      </trkpt>
      <trkpt lat="45.68083" lon="6.47459">
        <ele>2041</ele>
        <time>2022-07-28T11:42:20Z</time>
      </trkpt>
      <trkpt lat="45.68083" lon="6.47458">
        <ele>2041</ele>
        <time>2022-07-28T11:42:21Z</time>
      </trkpt>
      <trkpt lat="45.68083" lon="6.47457">
        <ele>2041</ele>
        <time>2022-07-28T11:42:22Z</time>
      </trkpt>
      <trkpt lat="45.68084" lon="6.47456">
        <ele>2041</ele>
        <time>2022-07-28T11:42:23Z</time>
      </trkpt>
      <trkpt lat="45.68084" lon="6.47455">
        <ele>2041</ele>
        <time>2022-07-28T11:42:24Z</time>
      </trkpt>
      <trkpt lat="45.68084" lon="6.47454">
        <ele>2041</ele>
        <time>2022-07-28T11:42:25Z</time>
      </trkpt>
      <trkpt lat="45.68085" lon="6.47453">
        <ele>2042</ele>
        <time>2022-07-28T11:42:26Z</time>
      </trkpt>
      <trkpt lat="45.68085" lon="6.47452">
        <ele>2042</ele>
        <time>2022-07-28T11:42:27Z</time>
      </trkpt>
      <trkpt lat="45.68086" lon="6.47451">
        <ele>2042</ele>
        <time>2022-07-28T11:42:28Z</time>
      </trkpt>
      <trkpt lat="45.68086" lon="6.4745">
        <ele>2042</ele>
        <time>2022-07-28T11:42:29Z</time>
      </trkpt>
      <trkpt lat="45.68087" lon="6.47449">
        <ele>2042</ele>
        <time>2022-07-28T11:42:30Z</time>
      </trkpt>
      <trkpt lat="45.68088" lon="6.47448">
        <ele>2043</ele>
        <time>2022-07-28T11:42:31Z</time>
      </trkpt>
      <trkpt lat="45.68088" lon="6.47446">
        <ele>2043</ele>
        <time>2022-07-28T11:42:32Z</time>
      </trkpt>
      <trkpt lat="45.68088" lon="6.47445">
        <ele>2043</ele>
        <time>2022-07-28T11:42:33Z</time>
      </trkpt>
      <trkpt lat="45.68089" lon="6.47444">
        <ele>2043</ele>
        <time>2022-07-28T11:42:34Z</time>
      </trkpt>
      <trkpt lat="45.68089" lon="6.47442">
        <ele>2043</ele>
        <time>2022-07-28T11:42:35Z</time>
      </trkpt>
      <trkpt lat="45.68089" lon="6.47441">
        <ele>2043</ele>
        <time>2022-07-28T11:42:36Z</time>
      </trkpt>
      <trkpt lat="45.6809" lon="6.4744">
        <ele>2043</ele>
        <time>2022-07-28T11:42:37Z</time>
      </trkpt>
      <trkpt lat="45.6809" lon="6.47438">
        <ele>2043</ele>
        <time>2022-07-28T11:42:38Z</time>
      </trkpt>
      <trkpt lat="45.68091" lon="6.47437">
        <ele>2043</ele>
        <time>2022-07-28T11:42:39Z</time>
      </trkpt>
      <trkpt lat="45.68091" lon="6.47436">
        <ele>2043</ele>
        <time>2022-07-28T11:42:40Z</time>
      </trkpt>
      <trkpt lat="45.68092" lon="6.47435">
        <ele>2044</ele>
        <time>2022-07-28T11:42:41Z</time>
      </trkpt>
      <trkpt lat="45.68092" lon="6.47434">
        <ele>2044</ele>
        <time>2022-07-28T11:42:42Z</time>
      </trkpt>
      <trkpt lat="45.68093" lon="6.47433">
        <ele>2044</ele>
        <time>2022-07-28T11:42:43Z</time>
      </trkpt>
      <trkpt lat="45.68093" lon="6.47433">
        <ele>2044</ele>
        <time>2022-07-28T11:42:44Z</time>
      </trkpt>
      <trkpt lat="45.68094" lon="6.47432">
        <ele>2044</ele>
        <time>2022-07-28T11:42:45Z</time>
      </trkpt>
      <trkpt lat="45.68095" lon="6.47431">
        <ele>2045</ele>
        <time>2022-07-28T11:42:46Z</time>
      </trkpt>
      <trkpt lat="45.68095" lon="6.4743">
        <ele>2045</ele>
        <time>2022-07-28T11:42:47Z</time>
      </trkpt>
      <trkpt lat="45.68096" lon="6.47429">
        <ele>2045</ele>
        <time>2022-07-28T11:42:48Z</time>
      </trkpt>
      <trkpt lat="45.68096" lon="6.47428">
        <ele>2045</ele>
        <time>2022-07-28T11:42:49Z</time>
      </trkpt>
      <trkpt lat="45.68097" lon="6.47427">
        <ele>2045</ele>
        <time>2022-07-28T11:42:50Z</time>
      </trkpt>
      <trkpt lat="45.68097" lon="6.47426">
        <ele>2046</ele>
        <time>2022-07-28T11:42:51Z</time>
      </trkpt>
      <trkpt lat="45.68098" lon="6.47425">
        <ele>2046</ele>
        <time>2022-07-28T11:42:52Z</time>
      </trkpt>
      <trkpt lat="45.68098" lon="6.47424">
        <ele>2046</ele>
        <time>2022-07-28T11:42:53Z</time>
      </trkpt>
      <trkpt lat="45.68099" lon="6.47423">
        <ele>2046</ele>
        <time>2022-07-28T11:42:54Z</time>
      </trkpt>
      <trkpt lat="45.68099" lon="6.47422">
        <ele>2046</ele>
        <time>2022-07-28T11:42:55Z</time>
      </trkpt>
      <trkpt lat="45.681" lon="6.47421">
        <ele>2046</ele>
        <time>2022-07-28T11:42:56Z</time>
      </trkpt>
      <trkpt lat="45.681" lon="6.47419">
        <ele>2046</ele>
        <time>2022-07-28T11:42:57Z</time>
      </trkpt>
      <trkpt lat="45.68101" lon="6.47418">
        <ele>2046</ele>
        <time>2022-07-28T11:42:58Z</time>
      </trkpt>
      <trkpt lat="45.68101" lon="6.47417">
        <ele>2046</ele>
        <time>2022-07-28T11:42:59Z</time>
      </trkpt>
      <trkpt lat="45.68101" lon="6.47416">
        <ele>2046</ele>
        <time>2022-07-28T11:43:00Z</time>
      </trkpt>
      <trkpt lat="45.68102" lon="6.47415">
        <ele>2047</ele>
        <time>2022-07-28T11:43:01Z</time>
      </trkpt>
      <trkpt lat="45.68102" lon="6.47413">
        <ele>2047</ele>
        <time>2022-07-28T11:43:02Z</time>
      </trkpt>
      <trkpt lat="45.68102" lon="6.47412">
        <ele>2047</ele>
        <time>2022-07-28T11:43:03Z</time>
      </trkpt>
      <trkpt lat="45.68103" lon="6.47411">
        <ele>2047</ele>
        <time>2022-07-28T11:43:04Z</time>
      </trkpt>
      <trkpt lat="45.68103" lon="6.4741">
        <ele>2047</ele>
        <time>2022-07-28T11:43:05Z</time>
      </trkpt>
      <trkpt lat="45.68104" lon="6.47408">
        <ele>2048</ele>
        <time>2022-07-28T11:43:06Z</time>
      </trkpt>
      <trkpt lat="45.68104" lon="6.47407">
        <ele>2048</ele>
        <time>2022-07-28T11:43:07Z</time>
      </trkpt>
      <trkpt lat="45.68104" lon="6.47406">
        <ele>2048</ele>
        <time>2022-07-28T11:43:08Z</time>
      </trkpt>
      <trkpt lat="45.68105" lon="6.47405">
        <ele>2048</ele>
        <time>2022-07-28T11:43:09Z</time>
      </trkpt>
      <trkpt lat="45.68105" lon="6.47403">
        <ele>2048</ele>
        <time>2022-07-28T11:43:10Z</time>
      </trkpt>
      <trkpt lat="45.68106" lon="6.47402">
        <ele>2049</ele>
        <time>2022-07-28T11:43:11Z</time>
      </trkpt>
      <trkpt lat="45.68106" lon="6.474">
        <ele>2049</ele>
        <time>2022-07-28T11:43:12Z</time>
      </trkpt>
      <trkpt lat="45.68107" lon="6.47399">
        <ele>2049</ele>
        <time>2022-07-28T11:43:13Z</time>
      </trkpt>
      <trkpt lat="45.68107" lon="6.47398">
        <ele>2049</ele>
        <time>2022-07-28T11:43:14Z</time>
      </trkpt>
      <trkpt lat="45.68108" lon="6.47396">
        <ele>2049</ele>
        <time>2022-07-28T11:43:15Z</time>
      </trkpt>
      <trkpt lat="45.68108" lon="6.47396">
        <ele>2049</ele>
        <time>2022-07-28T11:43:16Z</time>
      </trkpt>
      <trkpt lat="45.68109" lon="6.47395">
        <ele>2049</ele>
        <time>2022-07-28T11:43:17Z</time>
      </trkpt>
      <trkpt lat="45.68109" lon="6.47394">
        <ele>2049</ele>
        <time>2022-07-28T11:43:18Z</time>
      </trkpt>
      <trkpt lat="45.6811" lon="6.47393">
        <ele>2049</ele>
        <time>2022-07-28T11:43:19Z</time>
      </trkpt>
      <trkpt lat="45.6811" lon="6.47391">
        <ele>2049</ele>
        <time>2022-07-28T11:43:20Z</time>
      </trkpt>
      <trkpt lat="45.68111" lon="6.4739">
        <ele>2049</ele>
        <time>2022-07-28T11:43:21Z</time>
      </trkpt>
      <trkpt lat="45.68111" lon="6.47389">
        <ele>2049</ele>
        <time>2022-07-28T11:43:22Z</time>
      </trkpt>
      <trkpt lat="45.68112" lon="6.47387">
        <ele>2049</ele>
        <time>2022-07-28T11:43:23Z</time>
      </trkpt>
      <trkpt lat="45.68113" lon="6.47386">
        <ele>2049</ele>
        <time>2022-07-28T11:43:24Z</time>
      </trkpt>
      <trkpt lat="45.68113" lon="6.47384">
        <ele>2049</ele>
        <time>2022-07-28T11:43:25Z</time>
      </trkpt>
      <trkpt lat="45.68114" lon="6.47383">
        <ele>2049</ele>
        <time>2022-07-28T11:43:26Z</time>
      </trkpt>
      <trkpt lat="45.68115" lon="6.47382">
        <ele>2049</ele>
        <time>2022-07-28T11:43:27Z</time>
      </trkpt>
      <trkpt lat="45.68116" lon="6.47381">
        <ele>2049</ele>
        <time>2022-07-28T11:43:28Z</time>
      </trkpt>
      <trkpt lat="45.68116" lon="6.4738">
        <ele>2049</ele>
        <time>2022-07-28T11:43:29Z</time>
      </trkpt>
      <trkpt lat="45.68117" lon="6.47379">
        <ele>2049</ele>
        <time>2022-07-28T11:43:30Z</time>
      </trkpt>
      <trkpt lat="45.68118" lon="6.47379">
        <ele>2050</ele>
        <time>2022-07-28T11:43:31Z</time>
      </trkpt>
      <trkpt lat="45.68119" lon="6.47378">
        <ele>2050</ele>
        <time>2022-07-28T11:43:32Z</time>
      </trkpt>
      <trkpt lat="45.6812" lon="6.47378">
        <ele>2050</ele>
        <time>2022-07-28T11:43:33Z</time>
      </trkpt>
      <trkpt lat="45.6812" lon="6.47377">
        <ele>2050</ele>
        <time>2022-07-28T11:43:34Z</time>
      </trkpt>
      <trkpt lat="45.68121" lon="6.47376">
        <ele>2050</ele>
        <time>2022-07-28T11:43:35Z</time>
      </trkpt>
      <trkpt lat="45.68121" lon="6.47375">
        <ele>2050</ele>
        <time>2022-07-28T11:43:36Z</time>
      </trkpt>
      <trkpt lat="45.68122" lon="6.47374">
        <ele>2050</ele>
        <time>2022-07-28T11:43:37Z</time>
      </trkpt>
      <trkpt lat="45.68122" lon="6.47373">
        <ele>2050</ele>
        <time>2022-07-28T11:43:38Z</time>
      </trkpt>
      <trkpt lat="45.68123" lon="6.47371">
        <ele>2050</ele>
        <time>2022-07-28T11:43:39Z</time>
      </trkpt>
      <trkpt lat="45.68123" lon="6.4737">
        <ele>2050</ele>
        <time>2022-07-28T11:43:40Z</time>
      </trkpt>
      <trkpt lat="45.68124" lon="6.47369">
        <ele>2050</ele>
        <time>2022-07-28T11:43:41Z</time>
      </trkpt>
      <trkpt lat="45.68124" lon="6.47368">
        <ele>2050</ele>
        <time>2022-07-28T11:43:42Z</time>
      </trkpt>
      <trkpt lat="45.68125" lon="6.47366">
        <ele>2050</ele>
        <time>2022-07-28T11:43:43Z</time>
      </trkpt>
      <trkpt lat="45.68125" lon="6.47365">
        <ele>2050</ele>
        <time>2022-07-28T11:43:44Z</time>
      </trkpt>
      <trkpt lat="45.68126" lon="6.47364">
        <ele>2050</ele>
        <time>2022-07-28T11:43:45Z</time>
      </trkpt>
      <trkpt lat="45.68126" lon="6.47362">
        <ele>2051</ele>
        <time>2022-07-28T11:43:46Z</time>
      </trkpt>
      <trkpt lat="45.68127" lon="6.47361">
        <ele>2051</ele>
        <time>2022-07-28T11:43:47Z</time>
      </trkpt>
      <trkpt lat="45.68127" lon="6.4736">
        <ele>2051</ele>
        <time>2022-07-28T11:43:48Z</time>
      </trkpt>
      <trkpt lat="45.68128" lon="6.47358">
        <ele>2051</ele>
        <time>2022-07-28T11:43:49Z</time>
      </trkpt>
      <trkpt lat="45.68128" lon="6.47357">
        <ele>2051</ele>
        <time>2022-07-28T11:43:50Z</time>
      </trkpt>
      <trkpt lat="45.68128" lon="6.47356">
        <ele>2051</ele>
        <time>2022-07-28T11:43:51Z</time>
      </trkpt>
      <trkpt lat="45.68129" lon="6.47354">
        <ele>2051</ele>
        <time>2022-07-28T11:43:52Z</time>
      </trkpt>
      <trkpt lat="45.6813" lon="6.47353">
        <ele>2051</ele>
        <time>2022-07-28T11:43:53Z</time>
      </trkpt>
      <trkpt lat="45.6813" lon="6.47352">
        <ele>2051</ele>
        <time>2022-07-28T11:43:54Z</time>
      </trkpt>
      <trkpt lat="45.68131" lon="6.47351">
        <ele>2051</ele>
        <time>2022-07-28T11:43:55Z</time>
      </trkpt>
      <trkpt lat="45.68131" lon="6.4735">
        <ele>2052</ele>
        <time>2022-07-28T11:43:56Z</time>
      </trkpt>
      <trkpt lat="45.68132" lon="6.47349">
        <ele>2052</ele>
        <time>2022-07-28T11:43:57Z</time>
      </trkpt>
      <trkpt lat="45.68133" lon="6.47347">
        <ele>2052</ele>
        <time>2022-07-28T11:43:58Z</time>
      </trkpt>
      <trkpt lat="45.68133" lon="6.47346">
        <ele>2052</ele>
        <time>2022-07-28T11:43:59Z</time>
      </trkpt>
      <trkpt lat="45.68134" lon="6.47345">
        <ele>2052</ele>
        <time>2022-07-28T11:44:00Z</time>
      </trkpt>
      <trkpt lat="45.68134" lon="6.47343">
        <ele>2052</ele>
        <time>2022-07-28T11:44:01Z</time>
      </trkpt>
      <trkpt lat="45.68135" lon="6.47342">
        <ele>2052</ele>
        <time>2022-07-28T11:44:02Z</time>
      </trkpt>
      <trkpt lat="45.68135" lon="6.4734">
        <ele>2052</ele>
        <time>2022-07-28T11:44:03Z</time>
      </trkpt>
      <trkpt lat="45.68136" lon="6.47339">
        <ele>2052</ele>
        <time>2022-07-28T11:44:04Z</time>
      </trkpt>
      <trkpt lat="45.68136" lon="6.47338">
        <ele>2052</ele>
        <time>2022-07-28T11:44:05Z</time>
      </trkpt>
      <trkpt lat="45.68137" lon="6.47337">
        <ele>2053</ele>
        <time>2022-07-28T11:44:06Z</time>
      </trkpt>
      <trkpt lat="45.68138" lon="6.47336">
        <ele>2053</ele>
        <time>2022-07-28T11:44:07Z</time>
      </trkpt>
      <trkpt lat="45.68139" lon="6.47335">
        <ele>2053</ele>
        <time>2022-07-28T11:44:08Z</time>
      </trkpt>
      <trkpt lat="45.68139" lon="6.47334">
        <ele>2053</ele>
        <time>2022-07-28T11:44:09Z</time>
      </trkpt>
      <trkpt lat="45.6814" lon="6.47333">
        <ele>2053</ele>
        <time>2022-07-28T11:44:10Z</time>
      </trkpt>
      <trkpt lat="45.68141" lon="6.47332">
        <ele>2053</ele>
        <time>2022-07-28T11:44:11Z</time>
      </trkpt>
      <trkpt lat="45.68141" lon="6.47331">
        <ele>2053</ele>
        <time>2022-07-28T11:44:12Z</time>
      </trkpt>
      <trkpt lat="45.68142" lon="6.4733">
        <ele>2053</ele>
        <time>2022-07-28T11:44:13Z</time>
      </trkpt>
      <trkpt lat="45.68143" lon="6.47329">
        <ele>2053</ele>
        <time>2022-07-28T11:44:14Z</time>
      </trkpt>
      <trkpt lat="45.68144" lon="6.47328">
        <ele>2053</ele>
        <time>2022-07-28T11:44:15Z</time>
      </trkpt>
      <trkpt lat="45.68144" lon="6.47327">
        <ele>2053</ele>
        <time>2022-07-28T11:44:16Z</time>
      </trkpt>
      <trkpt lat="45.68145" lon="6.47326">
        <ele>2053</ele>
        <time>2022-07-28T11:44:17Z</time>
      </trkpt>
      <trkpt lat="45.68145" lon="6.47324">
        <ele>2053</ele>
        <time>2022-07-28T11:44:18Z</time>
      </trkpt>
      <trkpt lat="45.68146" lon="6.47323">
        <ele>2053</ele>
        <time>2022-07-28T11:44:19Z</time>
      </trkpt>
      <trkpt lat="45.68146" lon="6.47322">
        <ele>2053</ele>
        <time>2022-07-28T11:44:20Z</time>
      </trkpt>
      <trkpt lat="45.68146" lon="6.47321">
        <ele>2053</ele>
        <time>2022-07-28T11:44:21Z</time>
      </trkpt>
      <trkpt lat="45.68147" lon="6.4732">
        <ele>2053</ele>
        <time>2022-07-28T11:44:22Z</time>
      </trkpt>
      <trkpt lat="45.68147" lon="6.47319">
        <ele>2053</ele>
        <time>2022-07-28T11:44:23Z</time>
      </trkpt>
      <trkpt lat="45.68146" lon="6.47317">
        <ele>2053</ele>
        <time>2022-07-28T11:44:24Z</time>
      </trkpt>
      <trkpt lat="45.68146" lon="6.47316">
        <ele>2053</ele>
        <time>2022-07-28T11:44:25Z</time>
      </trkpt>
      <trkpt lat="45.68146" lon="6.47315">
        <ele>2054</ele>
        <time>2022-07-28T11:44:26Z</time>
      </trkpt>
      <trkpt lat="45.68145" lon="6.47314">
        <ele>2054</ele>
        <time>2022-07-28T11:44:27Z</time>
      </trkpt>
      <trkpt lat="45.68144" lon="6.47313">
        <ele>2054</ele>
        <time>2022-07-28T11:44:28Z</time>
      </trkpt>
      <trkpt lat="45.68144" lon="6.47311">
        <ele>2054</ele>
        <time>2022-07-28T11:44:29Z</time>
      </trkpt>
      <trkpt lat="45.68143" lon="6.4731">
        <ele>2054</ele>
        <time>2022-07-28T11:44:30Z</time>
      </trkpt>
      <trkpt lat="45.68142" lon="6.47309">
        <ele>2054</ele>
        <time>2022-07-28T11:44:31Z</time>
      </trkpt>
      <trkpt lat="45.68142" lon="6.47308">
        <ele>2054</ele>
        <time>2022-07-28T11:44:32Z</time>
      </trkpt>
      <trkpt lat="45.68141" lon="6.47307">
        <ele>2054</ele>
        <time>2022-07-28T11:44:33Z</time>
      </trkpt>
      <trkpt lat="45.68141" lon="6.47305">
        <ele>2054</ele>
        <time>2022-07-28T11:44:34Z</time>
      </trkpt>
      <trkpt lat="45.68141" lon="6.47304">
        <ele>2054</ele>
        <time>2022-07-28T11:44:35Z</time>
      </trkpt>
      <trkpt lat="45.6814" lon="6.47302">
        <ele>2055</ele>
        <time>2022-07-28T11:44:36Z</time>
      </trkpt>
      <trkpt lat="45.6814" lon="6.47301">
        <ele>2055</ele>
        <time>2022-07-28T11:44:37Z</time>
      </trkpt>
      <trkpt lat="45.6814" lon="6.47299">
        <ele>2055</ele>
        <time>2022-07-28T11:44:38Z</time>
      </trkpt>
      <trkpt lat="45.6814" lon="6.47298">
        <ele>2055</ele>
        <time>2022-07-28T11:44:39Z</time>
      </trkpt>
      <trkpt lat="45.6814" lon="6.47297">
        <ele>2055</ele>
        <time>2022-07-28T11:44:40Z</time>
      </trkpt>
      <trkpt lat="45.6814" lon="6.47295">
        <ele>2055</ele>
        <time>2022-07-28T11:44:41Z</time>
      </trkpt>
      <trkpt lat="45.68141" lon="6.47294">
        <ele>2055</ele>
        <time>2022-07-28T11:44:42Z</time>
      </trkpt>
      <trkpt lat="45.68141" lon="6.47293">
        <ele>2055</ele>
        <time>2022-07-28T11:44:43Z</time>
      </trkpt>
      <trkpt lat="45.68141" lon="6.47292">
        <ele>2056</ele>
        <time>2022-07-28T11:44:50Z</time>
      </trkpt>
      <trkpt lat="45.68142" lon="6.47291">
        <ele>2056</ele>
        <time>2022-07-28T11:44:51Z</time>
      </trkpt>
      <trkpt lat="45.68142" lon="6.4729">
        <ele>2056</ele>
        <time>2022-07-28T11:44:52Z</time>
      </trkpt>
      <trkpt lat="45.68142" lon="6.4729">
        <ele>2056</ele>
        <time>2022-07-28T11:44:53Z</time>
      </trkpt>
      <trkpt lat="45.68143" lon="6.47289">
        <ele>2056</ele>
        <time>2022-07-28T11:44:54Z</time>
      </trkpt>
      <trkpt lat="45.68144" lon="6.47287">
        <ele>2057</ele>
        <time>2022-07-28T11:45:05Z</time>
      </trkpt>
      <trkpt lat="45.68145" lon="6.47287">
        <ele>2058</ele>
        <time>2022-07-28T11:45:06Z</time>
      </trkpt>
      <trkpt lat="45.68146" lon="6.47286">
        <ele>2058</ele>
        <time>2022-07-28T11:45:07Z</time>
      </trkpt>
      <trkpt lat="45.68146" lon="6.47285">
        <ele>2058</ele>
        <time>2022-07-28T11:45:08Z</time>
      </trkpt>
      <trkpt lat="45.68147" lon="6.47285">
        <ele>2058</ele>
        <time>2022-07-28T11:45:09Z</time>
      </trkpt>
      <trkpt lat="45.68148" lon="6.47284">
        <ele>2058</ele>
        <time>2022-07-28T11:45:10Z</time>
      </trkpt>
      <trkpt lat="45.68148" lon="6.47283">
        <ele>2058</ele>
        <time>2022-07-28T11:45:11Z</time>
      </trkpt>
      <trkpt lat="45.68149" lon="6.47282">
        <ele>2058</ele>
        <time>2022-07-28T11:45:12Z</time>
      </trkpt>
      <trkpt lat="45.6815" lon="6.47281">
        <ele>2058</ele>
        <time>2022-07-28T11:45:13Z</time>
      </trkpt>
      <trkpt lat="45.68151" lon="6.4728">
        <ele>2058</ele>
        <time>2022-07-28T11:45:14Z</time>
      </trkpt>
      <trkpt lat="45.68151" lon="6.47279">
        <ele>2058</ele>
        <time>2022-07-28T11:45:15Z</time>
      </trkpt>
      <trkpt lat="45.68152" lon="6.47278">
        <ele>2058</ele>
        <time>2022-07-28T11:45:16Z</time>
      </trkpt>
      <trkpt lat="45.68152" lon="6.47277">
        <ele>2058</ele>
        <time>2022-07-28T11:45:17Z</time>
      </trkpt>
      <trkpt lat="45.68153" lon="6.47276">
        <ele>2058</ele>
        <time>2022-07-28T11:45:18Z</time>
      </trkpt>
      <trkpt lat="45.68154" lon="6.47274">
        <ele>2058</ele>
        <time>2022-07-28T11:45:19Z</time>
      </trkpt>
      <trkpt lat="45.68154" lon="6.47273">
        <ele>2058</ele>
        <time>2022-07-28T11:45:20Z</time>
      </trkpt>
      <trkpt lat="45.68155" lon="6.47272">
        <ele>2058</ele>
        <time>2022-07-28T11:45:21Z</time>
      </trkpt>
      <trkpt lat="45.68155" lon="6.47271">
        <ele>2058</ele>
        <time>2022-07-28T11:45:22Z</time>
      </trkpt>
      <trkpt lat="45.68156" lon="6.4727">
        <ele>2058</ele>
        <time>2022-07-28T11:45:23Z</time>
      </trkpt>
      <trkpt lat="45.68157" lon="6.47269">
        <ele>2058</ele>
        <time>2022-07-28T11:45:24Z</time>
      </trkpt>
      <trkpt lat="45.68157" lon="6.47268">
        <ele>2058</ele>
        <time>2022-07-28T11:45:25Z</time>
      </trkpt>
      <trkpt lat="45.68158" lon="6.47267">
        <ele>2059</ele>
        <time>2022-07-28T11:45:26Z</time>
      </trkpt>
      <trkpt lat="45.68158" lon="6.47266">
        <ele>2059</ele>
        <time>2022-07-28T11:45:27Z</time>
      </trkpt>
      <trkpt lat="45.68159" lon="6.47265">
        <ele>2059</ele>
        <time>2022-07-28T11:45:28Z</time>
      </trkpt>
      <trkpt lat="45.6816" lon="6.47264">
        <ele>2059</ele>
        <time>2022-07-28T11:45:29Z</time>
      </trkpt>
      <trkpt lat="45.6816" lon="6.47262">
        <ele>2059</ele>
        <time>2022-07-28T11:45:30Z</time>
      </trkpt>
      <trkpt lat="45.68161" lon="6.47261">
        <ele>2059</ele>
        <time>2022-07-28T11:45:31Z</time>
      </trkpt>
      <trkpt lat="45.68162" lon="6.4726">
        <ele>2059</ele>
        <time>2022-07-28T11:45:32Z</time>
      </trkpt>
      <trkpt lat="45.68162" lon="6.47258">
        <ele>2059</ele>
        <time>2022-07-28T11:45:33Z</time>
      </trkpt>
      <trkpt lat="45.68163" lon="6.47257">
        <ele>2059</ele>
        <time>2022-07-28T11:45:34Z</time>
      </trkpt>
      <trkpt lat="45.68164" lon="6.47256">
        <ele>2059</ele>
        <time>2022-07-28T11:45:35Z</time>
      </trkpt>
      <trkpt lat="45.68164" lon="6.47255">
        <ele>2060</ele>
        <time>2022-07-28T11:45:36Z</time>
      </trkpt>
      <trkpt lat="45.68165" lon="6.47254">
        <ele>2060</ele>
        <time>2022-07-28T11:45:37Z</time>
      </trkpt>
      <trkpt lat="45.68166" lon="6.47253">
        <ele>2060</ele>
        <time>2022-07-28T11:45:38Z</time>
      </trkpt>
      <trkpt lat="45.68166" lon="6.47252">
        <ele>2060</ele>
        <time>2022-07-28T11:45:39Z</time>
      </trkpt>
      <trkpt lat="45.68167" lon="6.47251">
        <ele>2060</ele>
        <time>2022-07-28T11:45:40Z</time>
      </trkpt>
      <trkpt lat="45.68167" lon="6.4725">
        <ele>2061</ele>
        <time>2022-07-28T11:45:41Z</time>
      </trkpt>
      <trkpt lat="45.68168" lon="6.47248">
        <ele>2061</ele>
        <time>2022-07-28T11:45:42Z</time>
      </trkpt>
      <trkpt lat="45.68169" lon="6.47247">
        <ele>2061</ele>
        <time>2022-07-28T11:45:43Z</time>
      </trkpt>
      <trkpt lat="45.68169" lon="6.47246">
        <ele>2061</ele>
        <time>2022-07-28T11:45:44Z</time>
      </trkpt>
      <trkpt lat="45.6817" lon="6.47245">
        <ele>2061</ele>
        <time>2022-07-28T11:45:45Z</time>
      </trkpt>
      <trkpt lat="45.6817" lon="6.47244">
        <ele>2061</ele>
        <time>2022-07-28T11:45:46Z</time>
      </trkpt>
      <trkpt lat="45.68171" lon="6.47243">
        <ele>2061</ele>
        <time>2022-07-28T11:45:47Z</time>
      </trkpt>
      <trkpt lat="45.68171" lon="6.47242">
        <ele>2061</ele>
        <time>2022-07-28T11:45:48Z</time>
      </trkpt>
      <trkpt lat="45.68171" lon="6.47241">
        <ele>2062</ele>
        <time>2022-07-28T11:45:49Z</time>
      </trkpt>
      <trkpt lat="45.68172" lon="6.4724">
        <ele>2062</ele>
        <time>2022-07-28T11:45:50Z</time>
      </trkpt>
      <trkpt lat="45.68173" lon="6.47239">
        <ele>2063</ele>
        <time>2022-07-28T11:45:51Z</time>
      </trkpt>
      <trkpt lat="45.68173" lon="6.47239">
        <ele>2063</ele>
        <time>2022-07-28T11:45:52Z</time>
      </trkpt>
      <trkpt lat="45.68174" lon="6.47239">
        <ele>2063</ele>
        <time>2022-07-28T11:45:53Z</time>
      </trkpt>
      <trkpt lat="45.68175" lon="6.47238">
        <ele>2063</ele>
        <time>2022-07-28T11:45:54Z</time>
      </trkpt>
      <trkpt lat="45.68175" lon="6.47238">
        <ele>2063</ele>
        <time>2022-07-28T11:45:55Z</time>
      </trkpt>
      <trkpt lat="45.68176" lon="6.47237">
        <ele>2064</ele>
        <time>2022-07-28T11:45:56Z</time>
      </trkpt>
      <trkpt lat="45.68177" lon="6.47236">
        <ele>2064</ele>
        <time>2022-07-28T11:45:57Z</time>
      </trkpt>
      <trkpt lat="45.68177" lon="6.47235">
        <ele>2064</ele>
        <time>2022-07-28T11:45:58Z</time>
      </trkpt>
      <trkpt lat="45.68178" lon="6.47234">
        <ele>2064</ele>
        <time>2022-07-28T11:45:59Z</time>
      </trkpt>
      <trkpt lat="45.68179" lon="6.47233">
        <ele>2064</ele>
        <time>2022-07-28T11:46:00Z</time>
      </trkpt>
      <trkpt lat="45.68179" lon="6.47232">
        <ele>2064</ele>
        <time>2022-07-28T11:46:01Z</time>
      </trkpt>
      <trkpt lat="45.6818" lon="6.47231">
        <ele>2064</ele>
        <time>2022-07-28T11:46:02Z</time>
      </trkpt>
      <trkpt lat="45.68181" lon="6.4723">
        <ele>2064</ele>
        <time>2022-07-28T11:46:03Z</time>
      </trkpt>
      <trkpt lat="45.68182" lon="6.47229">
        <ele>2064</ele>
        <time>2022-07-28T11:46:04Z</time>
      </trkpt>
      <trkpt lat="45.68182" lon="6.47228">
        <ele>2064</ele>
        <time>2022-07-28T11:46:05Z</time>
      </trkpt>
      <trkpt lat="45.68183" lon="6.47227">
        <ele>2065</ele>
        <time>2022-07-28T11:46:06Z</time>
      </trkpt>
      <trkpt lat="45.68184" lon="6.47226">
        <ele>2065</ele>
        <time>2022-07-28T11:46:07Z</time>
      </trkpt>
      <trkpt lat="45.68185" lon="6.47225">
        <ele>2065</ele>
        <time>2022-07-28T11:46:08Z</time>
      </trkpt>
      <trkpt lat="45.68185" lon="6.47224">
        <ele>2065</ele>
        <time>2022-07-28T11:46:09Z</time>
      </trkpt>
      <trkpt lat="45.68186" lon="6.47223">
        <ele>2065</ele>
        <time>2022-07-28T11:46:10Z</time>
      </trkpt>
      <trkpt lat="45.68187" lon="6.47222">
        <ele>2065</ele>
        <time>2022-07-28T11:46:11Z</time>
      </trkpt>
      <trkpt lat="45.68188" lon="6.47221">
        <ele>2065</ele>
        <time>2022-07-28T11:46:12Z</time>
      </trkpt>
      <trkpt lat="45.68188" lon="6.4722">
        <ele>2065</ele>
        <time>2022-07-28T11:46:13Z</time>
      </trkpt>
      <trkpt lat="45.68189" lon="6.47219">
        <ele>2065</ele>
        <time>2022-07-28T11:46:14Z</time>
      </trkpt>
      <trkpt lat="45.6819" lon="6.47218">
        <ele>2065</ele>
        <time>2022-07-28T11:46:15Z</time>
      </trkpt>
      <trkpt lat="45.68191" lon="6.47217">
        <ele>2066</ele>
        <time>2022-07-28T11:46:16Z</time>
      </trkpt>
      <trkpt lat="45.68191" lon="6.47216">
        <ele>2066</ele>
        <time>2022-07-28T11:46:17Z</time>
      </trkpt>
      <trkpt lat="45.68192" lon="6.47215">
        <ele>2066</ele>
        <time>2022-07-28T11:46:18Z</time>
      </trkpt>
      <trkpt lat="45.68193" lon="6.47214">
        <ele>2066</ele>
        <time>2022-07-28T11:46:19Z</time>
      </trkpt>
      <trkpt lat="45.68194" lon="6.47213">
        <ele>2066</ele>
        <time>2022-07-28T11:46:20Z</time>
      </trkpt>
      <trkpt lat="45.68195" lon="6.47212">
        <ele>2066</ele>
        <time>2022-07-28T11:46:21Z</time>
      </trkpt>
      <trkpt lat="45.68196" lon="6.47211">
        <ele>2066</ele>
        <time>2022-07-28T11:46:22Z</time>
      </trkpt>
      <trkpt lat="45.68197" lon="6.47209">
        <ele>2066</ele>
        <time>2022-07-28T11:46:23Z</time>
      </trkpt>
      <trkpt lat="45.68197" lon="6.47208">
        <ele>2066</ele>
        <time>2022-07-28T11:46:24Z</time>
      </trkpt>
      <trkpt lat="45.68198" lon="6.47207">
        <ele>2066</ele>
        <time>2022-07-28T11:46:25Z</time>
      </trkpt>
      <trkpt lat="45.68198" lon="6.47206">
        <ele>2067</ele>
        <time>2022-07-28T11:46:26Z</time>
      </trkpt>
      <trkpt lat="45.68199" lon="6.47205">
        <ele>2067</ele>
        <time>2022-07-28T11:46:27Z</time>
      </trkpt>
      <trkpt lat="45.682" lon="6.47204">
        <ele>2067</ele>
        <time>2022-07-28T11:46:28Z</time>
      </trkpt>
      <trkpt lat="45.682" lon="6.47202">
        <ele>2067</ele>
        <time>2022-07-28T11:46:29Z</time>
      </trkpt>
      <trkpt lat="45.682" lon="6.47201">
        <ele>2067</ele>
        <time>2022-07-28T11:46:30Z</time>
      </trkpt>
      <trkpt lat="45.68201" lon="6.472">
        <ele>2067</ele>
        <time>2022-07-28T11:46:31Z</time>
      </trkpt>
      <trkpt lat="45.68201" lon="6.47198">
        <ele>2067</ele>
        <time>2022-07-28T11:46:32Z</time>
      </trkpt>
      <trkpt lat="45.68202" lon="6.47197">
        <ele>2067</ele>
        <time>2022-07-28T11:46:33Z</time>
      </trkpt>
      <trkpt lat="45.68202" lon="6.47195">
        <ele>2067</ele>
        <time>2022-07-28T11:46:34Z</time>
      </trkpt>
      <trkpt lat="45.68203" lon="6.47194">
        <ele>2067</ele>
        <time>2022-07-28T11:46:35Z</time>
      </trkpt>
      <trkpt lat="45.68204" lon="6.47192">
        <ele>2067</ele>
        <time>2022-07-28T11:46:36Z</time>
      </trkpt>
      <trkpt lat="45.68204" lon="6.47191">
        <ele>2067</ele>
        <time>2022-07-28T11:46:37Z</time>
      </trkpt>
      <trkpt lat="45.68205" lon="6.4719">
        <ele>2067</ele>
        <time>2022-07-28T11:46:38Z</time>
      </trkpt>
      <trkpt lat="45.68205" lon="6.47188">
        <ele>2067</ele>
        <time>2022-07-28T11:46:39Z</time>
      </trkpt>
      <trkpt lat="45.68206" lon="6.47187">
        <ele>2067</ele>
        <time>2022-07-28T11:46:40Z</time>
      </trkpt>
      <trkpt lat="45.68206" lon="6.47186">
        <ele>2067</ele>
        <time>2022-07-28T11:46:41Z</time>
      </trkpt>
      <trkpt lat="45.68206" lon="6.47184">
        <ele>2067</ele>
        <time>2022-07-28T11:46:42Z</time>
      </trkpt>
      <trkpt lat="45.68207" lon="6.47182">
        <ele>2067</ele>
        <time>2022-07-28T11:46:43Z</time>
      </trkpt>
      <trkpt lat="45.68207" lon="6.47181">
        <ele>2067</ele>
        <time>2022-07-28T11:46:44Z</time>
      </trkpt>
      <trkpt lat="45.68208" lon="6.47179">
        <ele>2067</ele>
        <time>2022-07-28T11:46:45Z</time>
      </trkpt>
      <trkpt lat="45.68208" lon="6.47178">
        <ele>2067</ele>
        <time>2022-07-28T11:46:46Z</time>
      </trkpt>
      <trkpt lat="45.68209" lon="6.47176">
        <ele>2067</ele>
        <time>2022-07-28T11:46:47Z</time>
      </trkpt>
      <trkpt lat="45.68209" lon="6.47175">
        <ele>2067</ele>
        <time>2022-07-28T11:46:48Z</time>
      </trkpt>
      <trkpt lat="45.6821" lon="6.47174">
        <ele>2067</ele>
        <time>2022-07-28T11:46:49Z</time>
      </trkpt>
      <trkpt lat="45.68211" lon="6.47172">
        <ele>2067</ele>
        <time>2022-07-28T11:46:50Z</time>
      </trkpt>
      <trkpt lat="45.68211" lon="6.47171">
        <ele>2067</ele>
        <time>2022-07-28T11:46:51Z</time>
      </trkpt>
      <trkpt lat="45.68212" lon="6.4717">
        <ele>2067</ele>
        <time>2022-07-28T11:46:52Z</time>
      </trkpt>
      <trkpt lat="45.68212" lon="6.47169">
        <ele>2067</ele>
        <time>2022-07-28T11:46:53Z</time>
      </trkpt>
      <trkpt lat="45.68214" lon="6.47166">
        <ele>2068</ele>
        <time>2022-07-28T11:47:15Z</time>
      </trkpt>
      <trkpt lat="45.68214" lon="6.47165">
        <ele>2068</ele>
        <time>2022-07-28T11:47:16Z</time>
      </trkpt>
      <trkpt lat="45.68215" lon="6.47164">
        <ele>2068</ele>
        <time>2022-07-28T11:47:17Z</time>
      </trkpt>
      <trkpt lat="45.68216" lon="6.47163">
        <ele>2068</ele>
        <time>2022-07-28T11:47:18Z</time>
      </trkpt>
      <trkpt lat="45.68216" lon="6.47162">
        <ele>2068</ele>
        <time>2022-07-28T11:47:19Z</time>
      </trkpt>
      <trkpt lat="45.68216" lon="6.47161">
        <ele>2068</ele>
        <time>2022-07-28T11:47:20Z</time>
      </trkpt>
      <trkpt lat="45.68217" lon="6.4716">
        <ele>2068</ele>
        <time>2022-07-28T11:47:21Z</time>
      </trkpt>
      <trkpt lat="45.68218" lon="6.47159">
        <ele>2068</ele>
        <time>2022-07-28T11:47:22Z</time>
      </trkpt>
      <trkpt lat="45.68218" lon="6.47158">
        <ele>2068</ele>
        <time>2022-07-28T11:47:23Z</time>
      </trkpt>
      <trkpt lat="45.68219" lon="6.47157">
        <ele>2067</ele>
        <time>2022-07-28T11:47:29Z</time>
      </trkpt>
      <trkpt lat="45.6822" lon="6.47156">
        <ele>2067</ele>
        <time>2022-07-28T11:47:30Z</time>
      </trkpt>
      <trkpt lat="45.6822" lon="6.47155">
        <ele>2067</ele>
        <time>2022-07-28T11:47:31Z</time>
      </trkpt>
      <trkpt lat="45.68221" lon="6.47155">
        <ele>2066</ele>
        <time>2022-07-28T11:47:32Z</time>
      </trkpt>
      <trkpt lat="45.68221" lon="6.47154">
        <ele>2066</ele>
        <time>2022-07-28T11:47:33Z</time>
      </trkpt>
      <trkpt lat="45.68221" lon="6.47153">
        <ele>2066</ele>
        <time>2022-07-28T11:47:34Z</time>
      </trkpt>
      <trkpt lat="45.68222" lon="6.47153">
        <ele>2066</ele>
        <time>2022-07-28T11:47:35Z</time>
      </trkpt>
      <trkpt lat="45.68222" lon="6.47152">
        <ele>2066</ele>
        <time>2022-07-28T11:47:36Z</time>
      </trkpt>
      <trkpt lat="45.68222" lon="6.47151">
        <ele>2066</ele>
        <time>2022-07-28T11:47:37Z</time>
      </trkpt>
      <trkpt lat="45.68223" lon="6.4715">
        <ele>2066</ele>
        <time>2022-07-28T11:47:38Z</time>
      </trkpt>
      <trkpt lat="45.68223" lon="6.47149">
        <ele>2066</ele>
        <time>2022-07-28T11:47:39Z</time>
      </trkpt>
      <trkpt lat="45.68223" lon="6.47148">
        <ele>2066</ele>
        <time>2022-07-28T11:47:40Z</time>
      </trkpt>
      <trkpt lat="45.68223" lon="6.47148">
        <ele>2066</ele>
        <time>2022-07-28T11:47:41Z</time>
      </trkpt>
      <trkpt lat="45.68223" lon="6.47147">
        <ele>2065</ele>
        <time>2022-07-28T11:47:42Z</time>
      </trkpt>
      <trkpt lat="45.68223" lon="6.47146">
        <ele>2065</ele>
        <time>2022-07-28T11:47:43Z</time>
      </trkpt>
      <trkpt lat="45.68223" lon="6.47145">
        <ele>2065</ele>
        <time>2022-07-28T11:47:44Z</time>
      </trkpt>
      <trkpt lat="45.68223" lon="6.47144">
        <ele>2065</ele>
        <time>2022-07-28T11:47:45Z</time>
      </trkpt>
      <trkpt lat="45.68223" lon="6.47143">
        <ele>2065</ele>
        <time>2022-07-28T11:47:46Z</time>
      </trkpt>
      <trkpt lat="45.68224" lon="6.47141">
        <ele>2065</ele>
        <time>2022-07-28T11:47:47Z</time>
      </trkpt>
      <trkpt lat="45.68224" lon="6.4714">
        <ele>2065</ele>
        <time>2022-07-28T11:47:48Z</time>
      </trkpt>
      <trkpt lat="45.68224" lon="6.47139">
        <ele>2065</ele>
        <time>2022-07-28T11:47:49Z</time>
      </trkpt>
      <trkpt lat="45.68224" lon="6.47137">
        <ele>2065</ele>
        <time>2022-07-28T11:47:50Z</time>
      </trkpt>
      <trkpt lat="45.68225" lon="6.47136">
        <ele>2065</ele>
        <time>2022-07-28T11:47:51Z</time>
      </trkpt>
      <trkpt lat="45.68225" lon="6.47135">
        <ele>2064</ele>
        <time>2022-07-28T11:47:52Z</time>
      </trkpt>
      <trkpt lat="45.68225" lon="6.47134">
        <ele>2064</ele>
        <time>2022-07-28T11:47:53Z</time>
      </trkpt>
      <trkpt lat="45.68226" lon="6.47133">
        <ele>2064</ele>
        <time>2022-07-28T11:47:54Z</time>
      </trkpt>
      <trkpt lat="45.68226" lon="6.47132">
        <ele>2064</ele>
        <time>2022-07-28T11:47:55Z</time>
      </trkpt>
      <trkpt lat="45.68227" lon="6.47131">
        <ele>2064</ele>
        <time>2022-07-28T11:47:56Z</time>
      </trkpt>
      <trkpt lat="45.68227" lon="6.4713">
        <ele>2063</ele>
        <time>2022-07-28T11:47:57Z</time>
      </trkpt>
      <trkpt lat="45.68228" lon="6.47129">
        <ele>2063</ele>
        <time>2022-07-28T11:47:58Z</time>
      </trkpt>
      <trkpt lat="45.68228" lon="6.47128">
        <ele>2063</ele>
        <time>2022-07-28T11:47:59Z</time>
      </trkpt>
      <trkpt lat="45.68229" lon="6.47127">
        <ele>2063</ele>
        <time>2022-07-28T11:48:00Z</time>
      </trkpt>
      <trkpt lat="45.68229" lon="6.47127">
        <ele>2063</ele>
        <time>2022-07-28T11:48:01Z</time>
      </trkpt>
      <trkpt lat="45.68229" lon="6.47126">
        <ele>2063</ele>
        <time>2022-07-28T11:48:02Z</time>
      </trkpt>
      <trkpt lat="45.68229" lon="6.47126">
        <ele>2063</ele>
        <time>2022-07-28T11:48:03Z</time>
      </trkpt>
      <trkpt lat="45.68229" lon="6.47126">
        <ele>2063</ele>
        <time>2022-07-28T11:48:04Z</time>
      </trkpt>
      <trkpt lat="45.68229" lon="6.47125">
        <ele>2063</ele>
        <time>2022-07-28T11:48:05Z</time>
      </trkpt>
      <trkpt lat="45.68229" lon="6.47125">
        <ele>2063</ele>
        <time>2022-07-28T11:48:06Z</time>
      </trkpt>
      <trkpt lat="45.6823" lon="6.47124">
        <ele>2062</ele>
        <time>2022-07-28T11:48:07Z</time>
      </trkpt>
      <trkpt lat="45.6823" lon="6.47123">
        <ele>2061</ele>
        <time>2022-07-28T11:48:08Z</time>
      </trkpt>
      <trkpt lat="45.6823" lon="6.47122">
        <ele>2061</ele>
        <time>2022-07-28T11:48:09Z</time>
      </trkpt>
      <trkpt lat="45.6823" lon="6.47121">
        <ele>2060</ele>
        <time>2022-07-28T11:48:10Z</time>
      </trkpt>
      <trkpt lat="45.68231" lon="6.4712">
        <ele>2060</ele>
        <time>2022-07-28T11:48:11Z</time>
      </trkpt>
      <trkpt lat="45.68231" lon="6.47119">
        <ele>2059</ele>
        <time>2022-07-28T11:48:12Z</time>
      </trkpt>
      <trkpt lat="45.68232" lon="6.47118">
        <ele>2059</ele>
        <time>2022-07-28T11:48:13Z</time>
      </trkpt>
      <trkpt lat="45.68233" lon="6.47117">
        <ele>2059</ele>
        <time>2022-07-28T11:48:14Z</time>
      </trkpt>
      <trkpt lat="45.68234" lon="6.47116">
        <ele>2059</ele>
        <time>2022-07-28T11:48:15Z</time>
      </trkpt>
      <trkpt lat="45.68234" lon="6.47115">
        <ele>2059</ele>
        <time>2022-07-28T11:48:16Z</time>
      </trkpt>
      <trkpt lat="45.68235" lon="6.47114">
        <ele>2058</ele>
        <time>2022-07-28T11:48:17Z</time>
      </trkpt>
      <trkpt lat="45.68236" lon="6.47112">
        <ele>2058</ele>
        <time>2022-07-28T11:48:18Z</time>
      </trkpt>
      <trkpt lat="45.68237" lon="6.47111">
        <ele>2058</ele>
        <time>2022-07-28T11:48:19Z</time>
      </trkpt>
      <trkpt lat="45.68237" lon="6.4711">
        <ele>2058</ele>
        <time>2022-07-28T11:48:20Z</time>
      </trkpt>
      <trkpt lat="45.68237" lon="6.47109">
        <ele>2058</ele>
        <time>2022-07-28T11:48:21Z</time>
      </trkpt>
      <trkpt lat="45.68238" lon="6.47107">
        <ele>2058</ele>
        <time>2022-07-28T11:48:22Z</time>
      </trkpt>
      <trkpt lat="45.68238" lon="6.47106">
        <ele>2058</ele>
        <time>2022-07-28T11:48:23Z</time>
      </trkpt>
      <trkpt lat="45.68239" lon="6.47105">
        <ele>2058</ele>
        <time>2022-07-28T11:48:24Z</time>
      </trkpt>
      <trkpt lat="45.68239" lon="6.47104">
        <ele>2058</ele>
        <time>2022-07-28T11:48:25Z</time>
      </trkpt>
      <trkpt lat="45.6824" lon="6.47103">
        <ele>2058</ele>
        <time>2022-07-28T11:48:26Z</time>
      </trkpt>
      <trkpt lat="45.68241" lon="6.47103">
        <ele>2057</ele>
        <time>2022-07-28T11:48:27Z</time>
      </trkpt>
      <trkpt lat="45.68241" lon="6.47102">
        <ele>2057</ele>
        <time>2022-07-28T11:48:28Z</time>
      </trkpt>
      <trkpt lat="45.68242" lon="6.47101">
        <ele>2057</ele>
        <time>2022-07-28T11:48:29Z</time>
      </trkpt>
      <trkpt lat="45.68243" lon="6.471">
        <ele>2057</ele>
        <time>2022-07-28T11:48:30Z</time>
      </trkpt>
      <trkpt lat="45.68244" lon="6.47099">
        <ele>2057</ele>
        <time>2022-07-28T11:48:31Z</time>
      </trkpt>
      <trkpt lat="45.68245" lon="6.47099">
        <ele>2057</ele>
        <time>2022-07-28T11:48:32Z</time>
      </trkpt>
      <trkpt lat="45.68246" lon="6.47098">
        <ele>2057</ele>
        <time>2022-07-28T11:48:33Z</time>
      </trkpt>
      <trkpt lat="45.68247" lon="6.47098">
        <ele>2057</ele>
        <time>2022-07-28T11:48:34Z</time>
      </trkpt>
      <trkpt lat="45.68248" lon="6.47097">
        <ele>2057</ele>
        <time>2022-07-28T11:48:35Z</time>
      </trkpt>
      <trkpt lat="45.68249" lon="6.47096">
        <ele>2057</ele>
        <time>2022-07-28T11:48:36Z</time>
      </trkpt>
      <trkpt lat="45.6825" lon="6.47096">
        <ele>2056</ele>
        <time>2022-07-28T11:48:37Z</time>
      </trkpt>
      <trkpt lat="45.6825" lon="6.47094">
        <ele>2056</ele>
        <time>2022-07-28T11:48:38Z</time>
      </trkpt>
      <trkpt lat="45.68251" lon="6.47093">
        <ele>2056</ele>
        <time>2022-07-28T11:48:39Z</time>
      </trkpt>
      <trkpt lat="45.68252" lon="6.47092">
        <ele>2056</ele>
        <time>2022-07-28T11:48:40Z</time>
      </trkpt>
      <trkpt lat="45.68253" lon="6.47091">
        <ele>2056</ele>
        <time>2022-07-28T11:48:41Z</time>
      </trkpt>
      <trkpt lat="45.68254" lon="6.4709">
        <ele>2056</ele>
        <time>2022-07-28T11:48:42Z</time>
      </trkpt>
      <trkpt lat="45.68254" lon="6.47088">
        <ele>2056</ele>
        <time>2022-07-28T11:48:43Z</time>
      </trkpt>
      <trkpt lat="45.68255" lon="6.47087">
        <ele>2056</ele>
        <time>2022-07-28T11:48:44Z</time>
      </trkpt>
      <trkpt lat="45.68256" lon="6.47086">
        <ele>2056</ele>
        <time>2022-07-28T11:48:45Z</time>
      </trkpt>
      <trkpt lat="45.68257" lon="6.47085">
        <ele>2056</ele>
        <time>2022-07-28T11:48:46Z</time>
      </trkpt>
      <trkpt lat="45.68258" lon="6.47084">
        <ele>2056</ele>
        <time>2022-07-28T11:48:47Z</time>
      </trkpt>
      <trkpt lat="45.68258" lon="6.47083">
        <ele>2056</ele>
        <time>2022-07-28T11:48:48Z</time>
      </trkpt>
      <trkpt lat="45.68259" lon="6.47083">
        <ele>2056</ele>
        <time>2022-07-28T11:48:49Z</time>
      </trkpt>
      <trkpt lat="45.6826" lon="6.47082">
        <ele>2056</ele>
        <time>2022-07-28T11:48:50Z</time>
      </trkpt>
      <trkpt lat="45.6826" lon="6.47081">
        <ele>2056</ele>
        <time>2022-07-28T11:48:51Z</time>
      </trkpt>
      <trkpt lat="45.6826" lon="6.47081">
        <ele>2055</ele>
        <time>2022-07-28T11:48:52Z</time>
      </trkpt>
      <trkpt lat="45.68261" lon="6.47081">
        <ele>2055</ele>
        <time>2022-07-28T11:48:53Z</time>
      </trkpt>
      <trkpt lat="45.68261" lon="6.4708">
        <ele>2055</ele>
        <time>2022-07-28T11:48:54Z</time>
      </trkpt>
      <trkpt lat="45.68261" lon="6.4708">
        <ele>2055</ele>
        <time>2022-07-28T11:48:55Z</time>
      </trkpt>
      <trkpt lat="45.68261" lon="6.4708">
        <ele>2055</ele>
        <time>2022-07-28T11:48:56Z</time>
      </trkpt>
      <trkpt lat="45.68261" lon="6.47079">
        <ele>2055</ele>
        <time>2022-07-28T11:48:57Z</time>
      </trkpt>
      <trkpt lat="45.68262" lon="6.47078">
        <ele>2055</ele>
        <time>2022-07-28T11:48:58Z</time>
      </trkpt>
      <trkpt lat="45.68262" lon="6.47077">
        <ele>2055</ele>
        <time>2022-07-28T11:48:59Z</time>
      </trkpt>
      <trkpt lat="45.68262" lon="6.47076">
        <ele>2055</ele>
        <time>2022-07-28T11:49:00Z</time>
      </trkpt>
      <trkpt lat="45.68262" lon="6.47075">
        <ele>2055</ele>
        <time>2022-07-28T11:49:01Z</time>
      </trkpt>
      <trkpt lat="45.68262" lon="6.47075">
        <ele>2054</ele>
        <time>2022-07-28T11:49:02Z</time>
      </trkpt>
      <trkpt lat="45.68262" lon="6.47074">
        <ele>2054</ele>
        <time>2022-07-28T11:49:03Z</time>
      </trkpt>
      <trkpt lat="45.68263" lon="6.47073">
        <ele>2054</ele>
        <time>2022-07-28T11:49:04Z</time>
      </trkpt>
      <trkpt lat="45.68263" lon="6.47073">
        <ele>2054</ele>
        <time>2022-07-28T11:49:05Z</time>
      </trkpt>
      <trkpt lat="45.68263" lon="6.47072">
        <ele>2054</ele>
        <time>2022-07-28T11:49:06Z</time>
      </trkpt>
      <trkpt lat="45.68263" lon="6.47071">
        <ele>2053</ele>
        <time>2022-07-28T11:49:07Z</time>
      </trkpt>
      <trkpt lat="45.68263" lon="6.47071">
        <ele>2053</ele>
        <time>2022-07-28T11:49:08Z</time>
      </trkpt>
      <trkpt lat="45.68263" lon="6.4707">
        <ele>2053</ele>
        <time>2022-07-28T11:49:09Z</time>
      </trkpt>
      <trkpt lat="45.68264" lon="6.47069">
        <ele>2053</ele>
        <time>2022-07-28T11:49:10Z</time>
      </trkpt>
      <trkpt lat="45.68264" lon="6.47068">
        <ele>2053</ele>
        <time>2022-07-28T11:49:11Z</time>
      </trkpt>
      <trkpt lat="45.68264" lon="6.47067">
        <ele>2052</ele>
        <time>2022-07-28T11:49:12Z</time>
      </trkpt>
      <trkpt lat="45.68265" lon="6.47065">
        <ele>2052</ele>
        <time>2022-07-28T11:49:13Z</time>
      </trkpt>
      <trkpt lat="45.68265" lon="6.47064">
        <ele>2052</ele>
        <time>2022-07-28T11:49:14Z</time>
      </trkpt>
      <trkpt lat="45.68265" lon="6.47063">
        <ele>2052</ele>
        <time>2022-07-28T11:49:15Z</time>
      </trkpt>
      <trkpt lat="45.68265" lon="6.47061">
        <ele>2052</ele>
        <time>2022-07-28T11:49:16Z</time>
      </trkpt>
      <trkpt lat="45.68266" lon="6.4706">
        <ele>2051</ele>
        <time>2022-07-28T11:49:17Z</time>
      </trkpt>
      <trkpt lat="45.68266" lon="6.47058">
        <ele>2051</ele>
        <time>2022-07-28T11:49:18Z</time>
      </trkpt>
      <trkpt lat="45.68266" lon="6.47057">
        <ele>2051</ele>
        <time>2022-07-28T11:49:19Z</time>
      </trkpt>
      <trkpt lat="45.68266" lon="6.47056">
        <ele>2051</ele>
        <time>2022-07-28T11:49:20Z</time>
      </trkpt>
      <trkpt lat="45.68266" lon="6.47055">
        <ele>2051</ele>
        <time>2022-07-28T11:49:21Z</time>
      </trkpt>
      <trkpt lat="45.68266" lon="6.47054">
        <ele>2050</ele>
        <time>2022-07-28T11:49:22Z</time>
      </trkpt>
      <trkpt lat="45.68267" lon="6.47053">
        <ele>2050</ele>
        <time>2022-07-28T11:49:23Z</time>
      </trkpt>
      <trkpt lat="45.68267" lon="6.47051">
        <ele>2050</ele>
        <time>2022-07-28T11:49:24Z</time>
      </trkpt>
      <trkpt lat="45.68267" lon="6.4705">
        <ele>2050</ele>
        <time>2022-07-28T11:49:25Z</time>
      </trkpt>
      <trkpt lat="45.68267" lon="6.47049">
        <ele>2050</ele>
        <time>2022-07-28T11:49:26Z</time>
      </trkpt>
      <trkpt lat="45.68267" lon="6.47047">
        <ele>2049</ele>
        <time>2022-07-28T11:49:27Z</time>
      </trkpt>
      <trkpt lat="45.68268" lon="6.47046">
        <ele>2049</ele>
        <time>2022-07-28T11:49:28Z</time>
      </trkpt>
      <trkpt lat="45.68268" lon="6.47045">
        <ele>2049</ele>
        <time>2022-07-28T11:49:29Z</time>
      </trkpt>
      <trkpt lat="45.68269" lon="6.47043">
        <ele>2049</ele>
        <time>2022-07-28T11:49:30Z</time>
      </trkpt>
      <trkpt lat="45.68269" lon="6.47042">
        <ele>2049</ele>
        <time>2022-07-28T11:49:31Z</time>
      </trkpt>
      <trkpt lat="45.68269" lon="6.47041">
        <ele>2048</ele>
        <time>2022-07-28T11:49:32Z</time>
      </trkpt>
      <trkpt lat="45.6827" lon="6.4704">
        <ele>2048</ele>
        <time>2022-07-28T11:49:33Z</time>
      </trkpt>
      <trkpt lat="45.6827" lon="6.47039">
        <ele>2048</ele>
        <time>2022-07-28T11:49:34Z</time>
      </trkpt>
      <trkpt lat="45.6827" lon="6.47038">
        <ele>2048</ele>
        <time>2022-07-28T11:49:35Z</time>
      </trkpt>
      <trkpt lat="45.6827" lon="6.47037">
        <ele>2048</ele>
        <time>2022-07-28T11:49:36Z</time>
      </trkpt>
      <trkpt lat="45.6827" lon="6.47036">
        <ele>2047</ele>
        <time>2022-07-28T11:49:56Z</time>
      </trkpt>
      <trkpt lat="45.6827" lon="6.47035">
        <ele>2047</ele>
        <time>2022-07-28T11:49:57Z</time>
      </trkpt>
      <trkpt lat="45.68271" lon="6.47034">
        <ele>2047</ele>
        <time>2022-07-28T11:49:58Z</time>
      </trkpt>
      <trkpt lat="45.68271" lon="6.47034">
        <ele>2047</ele>
        <time>2022-07-28T11:49:59Z</time>
      </trkpt>
      <trkpt lat="45.68271" lon="6.47033">
        <ele>2047</ele>
        <time>2022-07-28T11:50:00Z</time>
      </trkpt>
      <trkpt lat="45.68272" lon="6.47033">
        <ele>2047</ele>
        <time>2022-07-28T11:50:01Z</time>
      </trkpt>
      <trkpt lat="45.68272" lon="6.47032">
        <ele>2047</ele>
        <time>2022-07-28T11:50:02Z</time>
      </trkpt>
      <trkpt lat="45.68273" lon="6.47031">
        <ele>2047</ele>
        <time>2022-07-28T11:50:03Z</time>
      </trkpt>
      <trkpt lat="45.68274" lon="6.4703">
        <ele>2047</ele>
        <time>2022-07-28T11:50:04Z</time>
      </trkpt>
      <trkpt lat="45.68274" lon="6.4703">
        <ele>2047</ele>
        <time>2022-07-28T11:50:05Z</time>
      </trkpt>
      <trkpt lat="45.68275" lon="6.47029">
        <ele>2047</ele>
        <time>2022-07-28T11:50:06Z</time>
      </trkpt>
      <trkpt lat="45.68277" lon="6.47028">
        <ele>2046</ele>
        <time>2022-07-28T11:50:07Z</time>
      </trkpt>
      <trkpt lat="45.68278" lon="6.47028">
        <ele>2046</ele>
        <time>2022-07-28T11:50:08Z</time>
      </trkpt>
      <trkpt lat="45.68279" lon="6.47027">
        <ele>2046</ele>
        <time>2022-07-28T11:50:09Z</time>
      </trkpt>
      <trkpt lat="45.6828" lon="6.47027">
        <ele>2046</ele>
        <time>2022-07-28T11:50:10Z</time>
      </trkpt>
      <trkpt lat="45.6828" lon="6.47027">
        <ele>2046</ele>
        <time>2022-07-28T11:50:11Z</time>
      </trkpt>
      <trkpt lat="45.68281" lon="6.47027">
        <ele>2045</ele>
        <time>2022-07-28T11:50:12Z</time>
      </trkpt>
      <trkpt lat="45.68282" lon="6.47027">
        <ele>2045</ele>
        <time>2022-07-28T11:50:13Z</time>
      </trkpt>
      <trkpt lat="45.68283" lon="6.47027">
        <ele>2045</ele>
        <time>2022-07-28T11:50:14Z</time>
      </trkpt>
      <trkpt lat="45.68283" lon="6.47026">
        <ele>2045</ele>
        <time>2022-07-28T11:50:15Z</time>
      </trkpt>
      <trkpt lat="45.68284" lon="6.47026">
        <ele>2045</ele>
        <time>2022-07-28T11:50:16Z</time>
      </trkpt>
      <trkpt lat="45.68284" lon="6.47025">
        <ele>2043</ele>
        <time>2022-07-28T11:50:24Z</time>
      </trkpt>
      <trkpt lat="45.68284" lon="6.47024">
        <ele>2043</ele>
        <time>2022-07-28T11:50:25Z</time>
      </trkpt>
      <trkpt lat="45.68285" lon="6.47022">
        <ele>2043</ele>
        <time>2022-07-28T11:50:26Z</time>
      </trkpt>
      <trkpt lat="45.68285" lon="6.47021">
        <ele>2042</ele>
        <time>2022-07-28T11:50:27Z</time>
      </trkpt>
      <trkpt lat="45.68285" lon="6.4702">
        <ele>2042</ele>
        <time>2022-07-28T11:50:28Z</time>
      </trkpt>
      <trkpt lat="45.68284" lon="6.47019">
        <ele>2042</ele>
        <time>2022-07-28T11:50:29Z</time>
      </trkpt>
      <trkpt lat="45.68284" lon="6.47018">
        <ele>2042</ele>
        <time>2022-07-28T11:50:30Z</time>
      </trkpt>
      <trkpt lat="45.68284" lon="6.47017">
        <ele>2042</ele>
        <time>2022-07-28T11:50:31Z</time>
      </trkpt>
      <trkpt lat="45.68284" lon="6.47016">
        <ele>2041</ele>
        <time>2022-07-28T11:50:32Z</time>
      </trkpt>
      <trkpt lat="45.68284" lon="6.47015">
        <ele>2041</ele>
        <time>2022-07-28T11:50:33Z</time>
      </trkpt>
      <trkpt lat="45.68284" lon="6.47014">
        <ele>2040</ele>
        <time>2022-07-28T11:50:34Z</time>
      </trkpt>
      <trkpt lat="45.68285" lon="6.47013">
        <ele>2040</ele>
        <time>2022-07-28T11:50:35Z</time>
      </trkpt>
      <trkpt lat="45.68285" lon="6.47011">
        <ele>2040</ele>
        <time>2022-07-28T11:50:36Z</time>
      </trkpt>
      <trkpt lat="45.68285" lon="6.4701">
        <ele>2039</ele>
        <time>2022-07-28T11:50:37Z</time>
      </trkpt>
      <trkpt lat="45.68285" lon="6.47009">
        <ele>2039</ele>
        <time>2022-07-28T11:50:38Z</time>
      </trkpt>
      <trkpt lat="45.68285" lon="6.47008">
        <ele>2039</ele>
        <time>2022-07-28T11:51:43Z</time>
      </trkpt>
      <trkpt lat="45.68285" lon="6.47007">
        <ele>2039</ele>
        <time>2022-07-28T11:51:44Z</time>
      </trkpt>
      <trkpt lat="45.68285" lon="6.47006">
        <ele>2039</ele>
        <time>2022-07-28T11:51:45Z</time>
      </trkpt>
      <trkpt lat="45.68285" lon="6.47005">
        <ele>2039</ele>
        <time>2022-07-28T11:51:46Z</time>
      </trkpt>
      <trkpt lat="45.68286" lon="6.47004">
        <ele>2038</ele>
        <time>2022-07-28T11:51:47Z</time>
      </trkpt>
      <trkpt lat="45.68286" lon="6.47003">
        <ele>2038</ele>
        <time>2022-07-28T11:51:48Z</time>
      </trkpt>
      <trkpt lat="45.68286" lon="6.47002">
        <ele>2038</ele>
        <time>2022-07-28T11:51:49Z</time>
      </trkpt>
      <trkpt lat="45.68287" lon="6.47">
        <ele>2038</ele>
        <time>2022-07-28T11:51:50Z</time>
      </trkpt>
      <trkpt lat="45.68287" lon="6.46999">
        <ele>2038</ele>
        <time>2022-07-28T11:51:51Z</time>
      </trkpt>
      <trkpt lat="45.68287" lon="6.46997">
        <ele>2038</ele>
        <time>2022-07-28T11:51:52Z</time>
      </trkpt>
      <trkpt lat="45.68288" lon="6.46996">
        <ele>2038</ele>
        <time>2022-07-28T11:51:53Z</time>
      </trkpt>
      <trkpt lat="45.68288" lon="6.46995">
        <ele>2038</ele>
        <time>2022-07-28T11:51:54Z</time>
      </trkpt>
      <trkpt lat="45.68288" lon="6.46994">
        <ele>2038</ele>
        <time>2022-07-28T11:51:55Z</time>
      </trkpt>
      <trkpt lat="45.68288" lon="6.46993">
        <ele>2038</ele>
        <time>2022-07-28T11:51:56Z</time>
      </trkpt>
      <trkpt lat="45.68288" lon="6.46992">
        <ele>2037</ele>
        <time>2022-07-28T11:51:57Z</time>
      </trkpt>
      <trkpt lat="45.68288" lon="6.46991">
        <ele>2037</ele>
        <time>2022-07-28T11:51:58Z</time>
      </trkpt>
      <trkpt lat="45.68288" lon="6.4699">
        <ele>2037</ele>
        <time>2022-07-28T11:51:59Z</time>
      </trkpt>
      <trkpt lat="45.68288" lon="6.46989">
        <ele>2037</ele>
        <time>2022-07-28T11:52:00Z</time>
      </trkpt>
      <trkpt lat="45.68288" lon="6.46988">
        <ele>2037</ele>
        <time>2022-07-28T11:52:01Z</time>
      </trkpt>
      <trkpt lat="45.68289" lon="6.46987">
        <ele>2036</ele>
        <time>2022-07-28T11:52:02Z</time>
      </trkpt>
      <trkpt lat="45.68289" lon="6.46986">
        <ele>2036</ele>
        <time>2022-07-28T11:52:03Z</time>
      </trkpt>
      <trkpt lat="45.68289" lon="6.46985">
        <ele>2036</ele>
        <time>2022-07-28T11:52:04Z</time>
      </trkpt>
      <trkpt lat="45.68289" lon="6.46985">
        <ele>2036</ele>
        <time>2022-07-28T11:52:05Z</time>
      </trkpt>
      <trkpt lat="45.68289" lon="6.46984">
        <ele>2036</ele>
        <time>2022-07-28T11:52:06Z</time>
      </trkpt>
      <trkpt lat="45.68289" lon="6.46984">
        <ele>2036</ele>
        <time>2022-07-28T11:52:07Z</time>
      </trkpt>
      <trkpt lat="45.68289" lon="6.46984">
        <ele>2036</ele>
        <time>2022-07-28T11:52:08Z</time>
      </trkpt>
      <trkpt lat="45.6829" lon="6.46983">
        <ele>2036</ele>
        <time>2022-07-28T11:52:09Z</time>
      </trkpt>
      <trkpt lat="45.6829" lon="6.46982">
        <ele>2036</ele>
        <time>2022-07-28T11:52:10Z</time>
      </trkpt>
      <trkpt lat="45.68292" lon="6.46982">
        <ele>2033</ele>
        <time>2022-07-28T11:52:28Z</time>
      </trkpt>
      <trkpt lat="45.68293" lon="6.46982">
        <ele>2033</ele>
        <time>2022-07-28T11:52:29Z</time>
      </trkpt>
      <trkpt lat="45.68294" lon="6.46983">
        <ele>2033</ele>
        <time>2022-07-28T11:52:30Z</time>
      </trkpt>
      <trkpt lat="45.68294" lon="6.46983">
        <ele>2033</ele>
        <time>2022-07-28T11:52:31Z</time>
      </trkpt>
      <trkpt lat="45.68295" lon="6.46983">
        <ele>2032</ele>
        <time>2022-07-28T11:52:32Z</time>
      </trkpt>
      <trkpt lat="45.68296" lon="6.46983">
        <ele>2032</ele>
        <time>2022-07-28T11:52:33Z</time>
      </trkpt>
      <trkpt lat="45.68297" lon="6.46983">
        <ele>2032</ele>
        <time>2022-07-28T11:52:34Z</time>
      </trkpt>
      <trkpt lat="45.68298" lon="6.46984">
        <ele>2032</ele>
        <time>2022-07-28T11:52:35Z</time>
      </trkpt>
      <trkpt lat="45.68299" lon="6.46984">
        <ele>2032</ele>
        <time>2022-07-28T11:52:36Z</time>
      </trkpt>
      <trkpt lat="45.683" lon="6.46985">
        <ele>2031</ele>
        <time>2022-07-28T11:52:37Z</time>
      </trkpt>
      <trkpt lat="45.68301" lon="6.46985">
        <ele>2031</ele>
        <time>2022-07-28T11:52:38Z</time>
      </trkpt>
      <trkpt lat="45.68302" lon="6.46986">
        <ele>2031</ele>
        <time>2022-07-28T11:52:39Z</time>
      </trkpt>
      <trkpt lat="45.68303" lon="6.46986">
        <ele>2031</ele>
        <time>2022-07-28T11:52:40Z</time>
      </trkpt>
      <trkpt lat="45.68304" lon="6.46987">
        <ele>2031</ele>
        <time>2022-07-28T11:52:41Z</time>
      </trkpt>
      <trkpt lat="45.68305" lon="6.46987">
        <ele>2030</ele>
        <time>2022-07-28T11:52:42Z</time>
      </trkpt>
      <trkpt lat="45.68306" lon="6.46988">
        <ele>2030</ele>
        <time>2022-07-28T11:52:43Z</time>
      </trkpt>
      <trkpt lat="45.68307" lon="6.46988">
        <ele>2029</ele>
        <time>2022-07-28T11:52:44Z</time>
      </trkpt>
      <trkpt lat="45.68308" lon="6.46989">
        <ele>2029</ele>
        <time>2022-07-28T11:52:45Z</time>
      </trkpt>
      <trkpt lat="45.68309" lon="6.46989">
        <ele>2029</ele>
        <time>2022-07-28T11:52:46Z</time>
      </trkpt>
      <trkpt lat="45.6831" lon="6.46989">
        <ele>2028</ele>
        <time>2022-07-28T11:52:47Z</time>
      </trkpt>
      <trkpt lat="45.68311" lon="6.4699">
        <ele>2028</ele>
        <time>2022-07-28T11:52:48Z</time>
      </trkpt>
      <trkpt lat="45.68312" lon="6.4699">
        <ele>2028</ele>
        <time>2022-07-28T11:52:49Z</time>
      </trkpt>
      <trkpt lat="45.68313" lon="6.46991">
        <ele>2028</ele>
        <time>2022-07-28T11:52:50Z</time>
      </trkpt>
      <trkpt lat="45.68314" lon="6.46992">
        <ele>2028</ele>
        <time>2022-07-28T11:52:51Z</time>
      </trkpt>
      <trkpt lat="45.68315" lon="6.46992">
        <ele>2027</ele>
        <time>2022-07-28T11:52:52Z</time>
      </trkpt>
      <trkpt lat="45.68316" lon="6.46993">
        <ele>2027</ele>
        <time>2022-07-28T11:52:53Z</time>
      </trkpt>
      <trkpt lat="45.68317" lon="6.46994">
        <ele>2026</ele>
        <time>2022-07-28T11:52:54Z</time>
      </trkpt>
      <trkpt lat="45.68318" lon="6.46995">
        <ele>2026</ele>
        <time>2022-07-28T11:52:55Z</time>
      </trkpt>
      <trkpt lat="45.68318" lon="6.46996">
        <ele>2026</ele>
        <time>2022-07-28T11:52:56Z</time>
      </trkpt>
      <trkpt lat="45.68319" lon="6.46997">
        <ele>2025</ele>
        <time>2022-07-28T11:52:57Z</time>
      </trkpt>
      <trkpt lat="45.6832" lon="6.46998">
        <ele>2025</ele>
        <time>2022-07-28T11:52:58Z</time>
      </trkpt>
      <trkpt lat="45.68321" lon="6.46998">
        <ele>2024</ele>
        <time>2022-07-28T11:52:59Z</time>
      </trkpt>
      <trkpt lat="45.68321" lon="6.46999">
        <ele>2024</ele>
        <time>2022-07-28T11:53:00Z</time>
      </trkpt>
      <trkpt lat="45.68321" lon="6.46999">
        <ele>2024</ele>
        <time>2022-07-28T11:53:01Z</time>
      </trkpt>
      <trkpt lat="45.68322" lon="6.46999">
        <ele>2023</ele>
        <time>2022-07-28T11:53:02Z</time>
      </trkpt>
      <trkpt lat="45.68323" lon="6.47">
        <ele>2023</ele>
        <time>2022-07-28T11:53:03Z</time>
      </trkpt>
      <trkpt lat="45.68323" lon="6.47">
        <ele>2023</ele>
        <time>2022-07-28T11:53:04Z</time>
      </trkpt>
      <trkpt lat="45.68323" lon="6.47">
        <ele>2023</ele>
        <time>2022-07-28T11:53:05Z</time>
      </trkpt>
      <trkpt lat="45.68324" lon="6.47">
        <ele>2023</ele>
        <time>2022-07-28T11:53:06Z</time>
      </trkpt>
      <trkpt lat="45.68325" lon="6.47001">
        <ele>2022</ele>
        <time>2022-07-28T11:53:07Z</time>
      </trkpt>
      <trkpt lat="45.68325" lon="6.47001">
        <ele>2022</ele>
        <time>2022-07-28T11:53:08Z</time>
      </trkpt>
      <trkpt lat="45.68326" lon="6.47001">
        <ele>2022</ele>
        <time>2022-07-28T11:53:09Z</time>
      </trkpt>
      <trkpt lat="45.68326" lon="6.47002">
        <ele>2022</ele>
        <time>2022-07-28T11:53:10Z</time>
      </trkpt>
      <trkpt lat="45.68327" lon="6.47003">
        <ele>2022</ele>
        <time>2022-07-28T11:53:11Z</time>
      </trkpt>
      <trkpt lat="45.68327" lon="6.47003">
        <ele>2021</ele>
        <time>2022-07-28T11:53:12Z</time>
      </trkpt>
      <trkpt lat="45.68327" lon="6.47003">
        <ele>2021</ele>
        <time>2022-07-28T11:53:13Z</time>
      </trkpt>
      <trkpt lat="45.68328" lon="6.47004">
        <ele>2020</ele>
        <time>2022-07-28T11:53:14Z</time>
      </trkpt>
      <trkpt lat="45.68328" lon="6.47004">
        <ele>2020</ele>
        <time>2022-07-28T11:53:15Z</time>
      </trkpt>
      <trkpt lat="45.68329" lon="6.47005">
        <ele>2020</ele>
        <time>2022-07-28T11:53:16Z</time>
      </trkpt>
      <trkpt lat="45.6833" lon="6.47005">
        <ele>2019</ele>
        <time>2022-07-28T11:53:17Z</time>
      </trkpt>
      <trkpt lat="45.6833" lon="6.47006">
        <ele>2019</ele>
        <time>2022-07-28T11:53:18Z</time>
      </trkpt>
      <trkpt lat="45.68331" lon="6.47006">
        <ele>2019</ele>
        <time>2022-07-28T11:53:19Z</time>
      </trkpt>
      <trkpt lat="45.68331" lon="6.47007">
        <ele>2019</ele>
        <time>2022-07-28T11:53:20Z</time>
      </trkpt>
      <trkpt lat="45.68332" lon="6.47007">
        <ele>2019</ele>
        <time>2022-07-28T11:53:21Z</time>
      </trkpt>
      <trkpt lat="45.68332" lon="6.47007">
        <ele>2018</ele>
        <time>2022-07-28T11:53:22Z</time>
      </trkpt>
      <trkpt lat="45.68333" lon="6.47007">
        <ele>2018</ele>
        <time>2022-07-28T11:53:23Z</time>
      </trkpt>
      <trkpt lat="45.68333" lon="6.47008">
        <ele>2018</ele>
        <time>2022-07-28T11:53:24Z</time>
      </trkpt>
      <trkpt lat="45.68334" lon="6.47008">
        <ele>2018</ele>
        <time>2022-07-28T11:53:25Z</time>
      </trkpt>
      <trkpt lat="45.68335" lon="6.47008">
        <ele>2018</ele>
        <time>2022-07-28T11:53:26Z</time>
      </trkpt>
      <trkpt lat="45.68335" lon="6.47008">
        <ele>2017</ele>
        <time>2022-07-28T11:53:27Z</time>
      </trkpt>
      <trkpt lat="45.68336" lon="6.47008">
        <ele>2017</ele>
        <time>2022-07-28T11:53:28Z</time>
      </trkpt>
      <trkpt lat="45.68337" lon="6.47008">
        <ele>2016</ele>
        <time>2022-07-28T11:53:29Z</time>
      </trkpt>
      <trkpt lat="45.68338" lon="6.47008">
        <ele>2016</ele>
        <time>2022-07-28T11:53:30Z</time>
      </trkpt>
      <trkpt lat="45.68339" lon="6.47008">
        <ele>2016</ele>
        <time>2022-07-28T11:53:31Z</time>
      </trkpt>
      <trkpt lat="45.68339" lon="6.47008">
        <ele>2015</ele>
        <time>2022-07-28T11:53:32Z</time>
      </trkpt>
      <trkpt lat="45.6834" lon="6.47008">
        <ele>2015</ele>
        <time>2022-07-28T11:53:33Z</time>
      </trkpt>
      <trkpt lat="45.68341" lon="6.47007">
        <ele>2015</ele>
        <time>2022-07-28T11:53:34Z</time>
      </trkpt>
      <trkpt lat="45.68341" lon="6.47007">
        <ele>2015</ele>
        <time>2022-07-28T11:53:35Z</time>
      </trkpt>
      <trkpt lat="45.68342" lon="6.47007">
        <ele>2015</ele>
        <time>2022-07-28T11:53:36Z</time>
      </trkpt>
      <trkpt lat="45.68343" lon="6.47007">
        <ele>2014</ele>
        <time>2022-07-28T11:53:37Z</time>
      </trkpt>
      <trkpt lat="45.68343" lon="6.47007">
        <ele>2014</ele>
        <time>2022-07-28T11:53:38Z</time>
      </trkpt>
      <trkpt lat="45.68344" lon="6.47007">
        <ele>2013</ele>
        <time>2022-07-28T11:53:39Z</time>
      </trkpt>
      <trkpt lat="45.68345" lon="6.47007">
        <ele>2013</ele>
        <time>2022-07-28T11:53:40Z</time>
      </trkpt>
      <trkpt lat="45.68345" lon="6.47008">
        <ele>2013</ele>
        <time>2022-07-28T11:53:41Z</time>
      </trkpt>
      <trkpt lat="45.68346" lon="6.47008">
        <ele>2012</ele>
        <time>2022-07-28T11:53:42Z</time>
      </trkpt>
      <trkpt lat="45.68346" lon="6.47008">
        <ele>2012</ele>
        <time>2022-07-28T11:53:43Z</time>
      </trkpt>
      <trkpt lat="45.68347" lon="6.47007">
        <ele>2012</ele>
        <time>2022-07-28T11:53:44Z</time>
      </trkpt>
      <trkpt lat="45.68347" lon="6.47007">
        <ele>2012</ele>
        <time>2022-07-28T11:53:45Z</time>
      </trkpt>
      <trkpt lat="45.68348" lon="6.47007">
        <ele>2012</ele>
        <time>2022-07-28T11:53:46Z</time>
      </trkpt>
      <trkpt lat="45.68349" lon="6.47007">
        <ele>2011</ele>
        <time>2022-07-28T11:53:47Z</time>
      </trkpt>
      <trkpt lat="45.68349" lon="6.47006">
        <ele>2011</ele>
        <time>2022-07-28T11:53:48Z</time>
      </trkpt>
      <trkpt lat="45.6835" lon="6.47006">
        <ele>2010</ele>
        <time>2022-07-28T11:53:49Z</time>
      </trkpt>
      <trkpt lat="45.68351" lon="6.47005">
        <ele>2010</ele>
        <time>2022-07-28T11:53:50Z</time>
      </trkpt>
      <trkpt lat="45.68351" lon="6.47005">
        <ele>2010</ele>
        <time>2022-07-28T11:53:51Z</time>
      </trkpt>
      <trkpt lat="45.68352" lon="6.47004">
        <ele>2009</ele>
        <time>2022-07-28T11:53:52Z</time>
      </trkpt>
      <trkpt lat="45.68352" lon="6.47004">
        <ele>2009</ele>
        <time>2022-07-28T11:53:53Z</time>
      </trkpt>
      <trkpt lat="45.68352" lon="6.47003">
        <ele>2009</ele>
        <time>2022-07-28T11:53:54Z</time>
      </trkpt>
      <trkpt lat="45.68353" lon="6.47002">
        <ele>2009</ele>
        <time>2022-07-28T11:53:55Z</time>
      </trkpt>
      <trkpt lat="45.68353" lon="6.47001">
        <ele>2009</ele>
        <time>2022-07-28T11:53:56Z</time>
      </trkpt>
      <trkpt lat="45.68353" lon="6.47">
        <ele>2008</ele>
        <time>2022-07-28T11:53:57Z</time>
      </trkpt>
      <trkpt lat="45.68353" lon="6.46999">
        <ele>2008</ele>
        <time>2022-07-28T11:53:58Z</time>
      </trkpt>
      <trkpt lat="45.68354" lon="6.46998">
        <ele>2008</ele>
        <time>2022-07-28T11:53:59Z</time>
      </trkpt>
      <trkpt lat="45.68354" lon="6.46997">
        <ele>2004</ele>
        <time>2022-07-28T11:54:17Z</time>
      </trkpt>
      <trkpt lat="45.68354" lon="6.46996">
        <ele>2004</ele>
        <time>2022-07-28T11:54:18Z</time>
      </trkpt>
      <trkpt lat="45.68354" lon="6.46995">
        <ele>2004</ele>
        <time>2022-07-28T11:54:19Z</time>
      </trkpt>
      <trkpt lat="45.68355" lon="6.46995">
        <ele>2004</ele>
        <time>2022-07-28T11:54:20Z</time>
      </trkpt>
      <trkpt lat="45.68355" lon="6.46994">
        <ele>2004</ele>
        <time>2022-07-28T11:54:21Z</time>
      </trkpt>
      <trkpt lat="45.68356" lon="6.46993">
        <ele>2004</ele>
        <time>2022-07-28T11:54:22Z</time>
      </trkpt>
      <trkpt lat="45.68356" lon="6.46992">
        <ele>2004</ele>
        <time>2022-07-28T11:54:23Z</time>
      </trkpt>
      <trkpt lat="45.68357" lon="6.46992">
        <ele>2004</ele>
        <time>2022-07-28T11:54:24Z</time>
      </trkpt>
      <trkpt lat="45.68358" lon="6.46991">
        <ele>2004</ele>
        <time>2022-07-28T11:54:25Z</time>
      </trkpt>
      <trkpt lat="45.68359" lon="6.46991">
        <ele>2004</ele>
        <time>2022-07-28T11:54:26Z</time>
      </trkpt>
      <trkpt lat="45.68359" lon="6.46991">
        <ele>2003</ele>
        <time>2022-07-28T11:54:27Z</time>
      </trkpt>
      <trkpt lat="45.6836" lon="6.46991">
        <ele>2003</ele>
        <time>2022-07-28T11:54:28Z</time>
      </trkpt>
      <trkpt lat="45.68361" lon="6.46991">
        <ele>2003</ele>
        <time>2022-07-28T11:54:29Z</time>
      </trkpt>
      <trkpt lat="45.68362" lon="6.46991">
        <ele>2003</ele>
        <time>2022-07-28T11:54:30Z</time>
      </trkpt>
      <trkpt lat="45.68363" lon="6.46991">
        <ele>2003</ele>
        <time>2022-07-28T11:54:31Z</time>
      </trkpt>
      <trkpt lat="45.68363" lon="6.46991">
        <ele>2002</ele>
        <time>2022-07-28T11:54:32Z</time>
      </trkpt>
      <trkpt lat="45.68364" lon="6.46991">
        <ele>2002</ele>
        <time>2022-07-28T11:54:33Z</time>
      </trkpt>
      <trkpt lat="45.68365" lon="6.4699">
        <ele>2002</ele>
        <time>2022-07-28T11:54:34Z</time>
      </trkpt>
      <trkpt lat="45.68365" lon="6.4699">
        <ele>2002</ele>
        <time>2022-07-28T11:54:35Z</time>
      </trkpt>
      <trkpt lat="45.68366" lon="6.4699">
        <ele>2002</ele>
        <time>2022-07-28T11:54:36Z</time>
      </trkpt>
      <trkpt lat="45.68367" lon="6.4699">
        <ele>2001</ele>
        <time>2022-07-28T11:54:37Z</time>
      </trkpt>
      <trkpt lat="45.68367" lon="6.46989">
        <ele>2001</ele>
        <time>2022-07-28T11:54:38Z</time>
      </trkpt>
      <trkpt lat="45.68367" lon="6.46989">
        <ele>2001</ele>
        <time>2022-07-28T11:54:39Z</time>
      </trkpt>
      <trkpt lat="45.68368" lon="6.46989">
        <ele>2001</ele>
        <time>2022-07-28T11:54:40Z</time>
      </trkpt>
      <trkpt lat="45.68368" lon="6.46989">
        <ele>2001</ele>
        <time>2022-07-28T11:54:41Z</time>
      </trkpt>
      <trkpt lat="45.68369" lon="6.46989">
        <ele>2000</ele>
        <time>2022-07-28T11:54:42Z</time>
      </trkpt>
      <trkpt lat="45.68369" lon="6.46988">
        <ele>2000</ele>
        <time>2022-07-28T11:54:43Z</time>
      </trkpt>
      <trkpt lat="45.6837" lon="6.46988">
        <ele>2000</ele>
        <time>2022-07-28T11:54:44Z</time>
      </trkpt>
      <trkpt lat="45.6837" lon="6.46988">
        <ele>2000</ele>
        <time>2022-07-28T11:54:45Z</time>
      </trkpt>
      <trkpt lat="45.6837" lon="6.46987">
        <ele>2000</ele>
        <time>2022-07-28T11:54:46Z</time>
      </trkpt>
      <trkpt lat="45.6837" lon="6.46987">
        <ele>1999</ele>
        <time>2022-07-28T11:54:47Z</time>
      </trkpt>
      <trkpt lat="45.68371" lon="6.46987">
        <ele>1999</ele>
        <time>2022-07-28T11:54:48Z</time>
      </trkpt>
      <trkpt lat="45.68371" lon="6.46986">
        <ele>1999</ele>
        <time>2022-07-28T11:54:49Z</time>
      </trkpt>
      <trkpt lat="45.68371" lon="6.46985">
        <ele>1999</ele>
        <time>2022-07-28T11:54:50Z</time>
      </trkpt>
      <trkpt lat="45.68372" lon="6.46985">
        <ele>1999</ele>
        <time>2022-07-28T11:54:51Z</time>
      </trkpt>
      <trkpt lat="45.68372" lon="6.46984">
        <ele>1998</ele>
        <time>2022-07-28T11:54:52Z</time>
      </trkpt>
      <trkpt lat="45.68373" lon="6.46984">
        <ele>1998</ele>
        <time>2022-07-28T11:54:53Z</time>
      </trkpt>
      <trkpt lat="45.68374" lon="6.46983">
        <ele>1998</ele>
        <time>2022-07-28T11:54:54Z</time>
      </trkpt>
      <trkpt lat="45.68374" lon="6.46983">
        <ele>1998</ele>
        <time>2022-07-28T11:54:55Z</time>
      </trkpt>
      <trkpt lat="45.68375" lon="6.46983">
        <ele>1998</ele>
        <time>2022-07-28T11:54:56Z</time>
      </trkpt>
      <trkpt lat="45.68375" lon="6.46983">
        <ele>1997</ele>
        <time>2022-07-28T11:54:57Z</time>
      </trkpt>
      <trkpt lat="45.68376" lon="6.46983">
        <ele>1997</ele>
        <time>2022-07-28T11:54:58Z</time>
      </trkpt>
      <trkpt lat="45.68376" lon="6.46983">
        <ele>1997</ele>
        <time>2022-07-28T11:54:59Z</time>
      </trkpt>
      <trkpt lat="45.68377" lon="6.46983">
        <ele>1997</ele>
        <time>2022-07-28T11:55:00Z</time>
      </trkpt>
      <trkpt lat="45.68378" lon="6.46983">
        <ele>1997</ele>
        <time>2022-07-28T11:55:01Z</time>
      </trkpt>
      <trkpt lat="45.68378" lon="6.46983">
        <ele>1996</ele>
        <time>2022-07-28T11:55:02Z</time>
      </trkpt>
      <trkpt lat="45.68379" lon="6.46983">
        <ele>1996</ele>
        <time>2022-07-28T11:55:03Z</time>
      </trkpt>
      <trkpt lat="45.6838" lon="6.46984">
        <ele>1996</ele>
        <time>2022-07-28T11:55:04Z</time>
      </trkpt>
      <trkpt lat="45.6838" lon="6.46985">
        <ele>1996</ele>
        <time>2022-07-28T11:55:05Z</time>
      </trkpt>
      <trkpt lat="45.68381" lon="6.46985">
        <ele>1996</ele>
        <time>2022-07-28T11:55:06Z</time>
      </trkpt>
      <trkpt lat="45.68381" lon="6.46986">
        <ele>1995</ele>
        <time>2022-07-28T11:55:07Z</time>
      </trkpt>
      <trkpt lat="45.68382" lon="6.46987">
        <ele>1995</ele>
        <time>2022-07-28T11:55:08Z</time>
      </trkpt>
      <trkpt lat="45.68383" lon="6.46987">
        <ele>1995</ele>
        <time>2022-07-28T11:55:09Z</time>
      </trkpt>
      <trkpt lat="45.68383" lon="6.46988">
        <ele>1995</ele>
        <time>2022-07-28T11:55:10Z</time>
      </trkpt>
      <trkpt lat="45.68384" lon="6.46988">
        <ele>1995</ele>
        <time>2022-07-28T11:55:11Z</time>
      </trkpt>
      <trkpt lat="45.68384" lon="6.46988">
        <ele>1994</ele>
        <time>2022-07-28T11:55:12Z</time>
      </trkpt>
      <trkpt lat="45.68385" lon="6.46989">
        <ele>1994</ele>
        <time>2022-07-28T11:55:13Z</time>
      </trkpt>
      <trkpt lat="45.68386" lon="6.46989">
        <ele>1994</ele>
        <time>2022-07-28T11:55:14Z</time>
      </trkpt>
      <trkpt lat="45.68387" lon="6.4699">
        <ele>1994</ele>
        <time>2022-07-28T11:55:15Z</time>
      </trkpt>
      <trkpt lat="45.68388" lon="6.4699">
        <ele>1994</ele>
        <time>2022-07-28T11:55:16Z</time>
      </trkpt>
      <trkpt lat="45.68388" lon="6.46991">
        <ele>1993</ele>
        <time>2022-07-28T11:55:17Z</time>
      </trkpt>
      <trkpt lat="45.68389" lon="6.46991">
        <ele>1993</ele>
        <time>2022-07-28T11:55:18Z</time>
      </trkpt>
      <trkpt lat="45.6839" lon="6.46992">
        <ele>1993</ele>
        <time>2022-07-28T11:55:19Z</time>
      </trkpt>
      <trkpt lat="45.68391" lon="6.46992">
        <ele>1993</ele>
        <time>2022-07-28T11:55:20Z</time>
      </trkpt>
      <trkpt lat="45.68391" lon="6.46992">
        <ele>1993</ele>
        <time>2022-07-28T11:55:21Z</time>
      </trkpt>
      <trkpt lat="45.68392" lon="6.46993">
        <ele>1992</ele>
        <time>2022-07-28T11:55:22Z</time>
      </trkpt>
      <trkpt lat="45.68392" lon="6.46993">
        <ele>1992</ele>
        <time>2022-07-28T11:55:23Z</time>
      </trkpt>
      <trkpt lat="45.68393" lon="6.46994">
        <ele>1992</ele>
        <time>2022-07-28T11:55:24Z</time>
      </trkpt>
      <trkpt lat="45.68393" lon="6.46994">
        <ele>1992</ele>
        <time>2022-07-28T11:55:25Z</time>
      </trkpt>
      <trkpt lat="45.68394" lon="6.46994">
        <ele>1992</ele>
        <time>2022-07-28T11:55:26Z</time>
      </trkpt>
      <trkpt lat="45.68394" lon="6.46995">
        <ele>1991</ele>
        <time>2022-07-28T11:55:27Z</time>
      </trkpt>
      <trkpt lat="45.68395" lon="6.46995">
        <ele>1991</ele>
        <time>2022-07-28T11:55:28Z</time>
      </trkpt>
      <trkpt lat="45.68396" lon="6.46995">
        <ele>1991</ele>
        <time>2022-07-28T11:55:29Z</time>
      </trkpt>
      <trkpt lat="45.68396" lon="6.46995">
        <ele>1991</ele>
        <time>2022-07-28T11:55:30Z</time>
      </trkpt>
      <trkpt lat="45.68397" lon="6.46996">
        <ele>1991</ele>
        <time>2022-07-28T11:55:31Z</time>
      </trkpt>
      <trkpt lat="45.68397" lon="6.46996">
        <ele>1990</ele>
        <time>2022-07-28T11:55:32Z</time>
      </trkpt>
      <trkpt lat="45.68398" lon="6.46996">
        <ele>1990</ele>
        <time>2022-07-28T11:55:33Z</time>
      </trkpt>
      <trkpt lat="45.68398" lon="6.46997">
        <ele>1990</ele>
        <time>2022-07-28T11:55:34Z</time>
      </trkpt>
      <trkpt lat="45.68399" lon="6.46997">
        <ele>1990</ele>
        <time>2022-07-28T11:55:35Z</time>
      </trkpt>
      <trkpt lat="45.68399" lon="6.46998">
        <ele>1990</ele>
        <time>2022-07-28T11:55:36Z</time>
      </trkpt>
      <trkpt lat="45.68402" lon="6.47">
        <ele>1986</ele>
        <time>2022-07-28T11:56:03Z</time>
      </trkpt>
      <trkpt lat="45.68404" lon="6.47002">
        <ele>1986</ele>
        <time>2022-07-28T11:56:04Z</time>
      </trkpt>
      <trkpt lat="45.68405" lon="6.47003">
        <ele>1986</ele>
        <time>2022-07-28T11:56:05Z</time>
      </trkpt>
      <trkpt lat="45.68406" lon="6.47004">
        <ele>1986</ele>
        <time>2022-07-28T11:56:06Z</time>
      </trkpt>
      <trkpt lat="45.68407" lon="6.47004">
        <ele>1985</ele>
        <time>2022-07-28T11:56:07Z</time>
      </trkpt>
      <trkpt lat="45.68408" lon="6.47005">
        <ele>1985</ele>
        <time>2022-07-28T11:56:08Z</time>
      </trkpt>
      <trkpt lat="45.68409" lon="6.47005">
        <ele>1985</ele>
        <time>2022-07-28T11:56:09Z</time>
      </trkpt>
      <trkpt lat="45.6841" lon="6.47006">
        <ele>1985</ele>
        <time>2022-07-28T11:56:10Z</time>
      </trkpt>
      <trkpt lat="45.68411" lon="6.47006">
        <ele>1985</ele>
        <time>2022-07-28T11:56:11Z</time>
      </trkpt>
      <trkpt lat="45.68412" lon="6.47006">
        <ele>1984</ele>
        <time>2022-07-28T11:56:12Z</time>
      </trkpt>
      <trkpt lat="45.68412" lon="6.47007">
        <ele>1984</ele>
        <time>2022-07-28T11:56:13Z</time>
      </trkpt>
      <trkpt lat="45.68413" lon="6.47007">
        <ele>1984</ele>
        <time>2022-07-28T11:56:14Z</time>
      </trkpt>
      <trkpt lat="45.68414" lon="6.47007">
        <ele>1984</ele>
        <time>2022-07-28T11:56:15Z</time>
      </trkpt>
      <trkpt lat="45.68415" lon="6.47006">
        <ele>1984</ele>
        <time>2022-07-28T11:56:16Z</time>
      </trkpt>
      <trkpt lat="45.68416" lon="6.47006">
        <ele>1983</ele>
        <time>2022-07-28T11:56:17Z</time>
      </trkpt>
      <trkpt lat="45.68417" lon="6.47005">
        <ele>1983</ele>
        <time>2022-07-28T11:56:18Z</time>
      </trkpt>
      <trkpt lat="45.68419" lon="6.47005">
        <ele>1983</ele>
        <time>2022-07-28T11:56:19Z</time>
      </trkpt>
      <trkpt lat="45.6842" lon="6.47005">
        <ele>1983</ele>
        <time>2022-07-28T11:56:20Z</time>
      </trkpt>
      <trkpt lat="45.68421" lon="6.47004">
        <ele>1983</ele>
        <time>2022-07-28T11:56:21Z</time>
      </trkpt>
      <trkpt lat="45.68422" lon="6.47005">
        <ele>1982</ele>
        <time>2022-07-28T11:56:22Z</time>
      </trkpt>
      <trkpt lat="45.68423" lon="6.47005">
        <ele>1982</ele>
        <time>2022-07-28T11:56:23Z</time>
      </trkpt>
      <trkpt lat="45.68424" lon="6.47006">
        <ele>1982</ele>
        <time>2022-07-28T11:56:24Z</time>
      </trkpt>
      <trkpt lat="45.68425" lon="6.47007">
        <ele>1982</ele>
        <time>2022-07-28T11:56:25Z</time>
      </trkpt>
      <trkpt lat="45.68425" lon="6.47008">
        <ele>1982</ele>
        <time>2022-07-28T11:56:26Z</time>
      </trkpt>
      <trkpt lat="45.68426" lon="6.47009">
        <ele>1982</ele>
        <time>2022-07-28T11:56:27Z</time>
      </trkpt>
      <trkpt lat="45.68427" lon="6.4701">
        <ele>1982</ele>
        <time>2022-07-28T11:56:28Z</time>
      </trkpt>
      <trkpt lat="45.68427" lon="6.4701">
        <ele>1982</ele>
        <time>2022-07-28T11:56:29Z</time>
      </trkpt>
      <trkpt lat="45.68428" lon="6.47011">
        <ele>1982</ele>
        <time>2022-07-28T11:56:30Z</time>
      </trkpt>
      <trkpt lat="45.68429" lon="6.47012">
        <ele>1982</ele>
        <time>2022-07-28T11:56:31Z</time>
      </trkpt>
      <trkpt lat="45.6843" lon="6.47012">
        <ele>1982</ele>
        <time>2022-07-28T11:56:32Z</time>
      </trkpt>
      <trkpt lat="45.6843" lon="6.47013">
        <ele>1982</ele>
        <time>2022-07-28T11:56:33Z</time>
      </trkpt>
      <trkpt lat="45.68431" lon="6.47013">
        <ele>1982</ele>
        <time>2022-07-28T11:56:34Z</time>
      </trkpt>
      <trkpt lat="45.68432" lon="6.47013">
        <ele>1982</ele>
        <time>2022-07-28T11:56:35Z</time>
      </trkpt>
      <trkpt lat="45.68432" lon="6.47013">
        <ele>1982</ele>
        <time>2022-07-28T11:56:36Z</time>
      </trkpt>
      <trkpt lat="45.68433" lon="6.47014">
        <ele>1981</ele>
        <time>2022-07-28T11:56:37Z</time>
      </trkpt>
      <trkpt lat="45.68434" lon="6.47014">
        <ele>1981</ele>
        <time>2022-07-28T11:56:38Z</time>
      </trkpt>
      <trkpt lat="45.68434" lon="6.47014">
        <ele>1981</ele>
        <time>2022-07-28T11:56:39Z</time>
      </trkpt>
      <trkpt lat="45.68435" lon="6.47014">
        <ele>1981</ele>
        <time>2022-07-28T11:56:40Z</time>
      </trkpt>
      <trkpt lat="45.68436" lon="6.47014">
        <ele>1981</ele>
        <time>2022-07-28T11:56:41Z</time>
      </trkpt>
      <trkpt lat="45.68436" lon="6.47014">
        <ele>1980</ele>
        <time>2022-07-28T11:56:42Z</time>
      </trkpt>
      <trkpt lat="45.68437" lon="6.47014">
        <ele>1980</ele>
        <time>2022-07-28T11:56:43Z</time>
      </trkpt>
      <trkpt lat="45.68438" lon="6.47015">
        <ele>1979</ele>
        <time>2022-07-28T11:56:44Z</time>
      </trkpt>
      <trkpt lat="45.68438" lon="6.47015">
        <ele>1979</ele>
        <time>2022-07-28T11:56:45Z</time>
      </trkpt>
      <trkpt lat="45.68439" lon="6.47016">
        <ele>1979</ele>
        <time>2022-07-28T11:56:46Z</time>
      </trkpt>
      <trkpt lat="45.68439" lon="6.47017">
        <ele>1978</ele>
        <time>2022-07-28T11:56:47Z</time>
      </trkpt>
      <trkpt lat="45.6844" lon="6.47017">
        <ele>1978</ele>
        <time>2022-07-28T11:56:48Z</time>
      </trkpt>
      <trkpt lat="45.6844" lon="6.47018">
        <ele>1978</ele>
        <time>2022-07-28T11:56:49Z</time>
      </trkpt>
      <trkpt lat="45.6844" lon="6.47018">
        <ele>1978</ele>
        <time>2022-07-28T11:56:50Z</time>
      </trkpt>
      <trkpt lat="45.68441" lon="6.47019">
        <ele>1978</ele>
        <time>2022-07-28T11:56:51Z</time>
      </trkpt>
      <trkpt lat="45.68441" lon="6.47019">
        <ele>1978</ele>
        <time>2022-07-28T11:56:52Z</time>
      </trkpt>
      <trkpt lat="45.68442" lon="6.47019">
        <ele>1978</ele>
        <time>2022-07-28T11:56:53Z</time>
      </trkpt>
      <trkpt lat="45.68442" lon="6.4702">
        <ele>1978</ele>
        <time>2022-07-28T11:56:54Z</time>
      </trkpt>
      <trkpt lat="45.68443" lon="6.4702">
        <ele>1978</ele>
        <time>2022-07-28T11:56:55Z</time>
      </trkpt>
      <trkpt lat="45.68443" lon="6.4702">
        <ele>1978</ele>
        <time>2022-07-28T11:56:56Z</time>
      </trkpt>
      <trkpt lat="45.68444" lon="6.47021">
        <ele>1977</ele>
        <time>2022-07-28T11:56:57Z</time>
      </trkpt>
      <trkpt lat="45.68444" lon="6.47021">
        <ele>1977</ele>
        <time>2022-07-28T11:56:58Z</time>
      </trkpt>
      <trkpt lat="45.68445" lon="6.47022">
        <ele>1977</ele>
        <time>2022-07-28T11:56:59Z</time>
      </trkpt>
      <trkpt lat="45.68445" lon="6.47022">
        <ele>1977</ele>
        <time>2022-07-28T11:57:00Z</time>
      </trkpt>
      <trkpt lat="45.68446" lon="6.47022">
        <ele>1977</ele>
        <time>2022-07-28T11:57:01Z</time>
      </trkpt>
      <trkpt lat="45.68446" lon="6.47022">
        <ele>1976</ele>
        <time>2022-07-28T11:57:02Z</time>
      </trkpt>
      <trkpt lat="45.68447" lon="6.47023">
        <ele>1976</ele>
        <time>2022-07-28T11:57:03Z</time>
      </trkpt>
      <trkpt lat="45.68447" lon="6.47023">
        <ele>1976</ele>
        <time>2022-07-28T11:57:04Z</time>
      </trkpt>
      <trkpt lat="45.68447" lon="6.47023">
        <ele>1976</ele>
        <time>2022-07-28T11:57:05Z</time>
      </trkpt>
      <trkpt lat="45.68448" lon="6.47023">
        <ele>1976</ele>
        <time>2022-07-28T11:57:06Z</time>
      </trkpt>
      <trkpt lat="45.68448" lon="6.47024">
        <ele>1975</ele>
        <time>2022-07-28T11:57:07Z</time>
      </trkpt>
      <trkpt lat="45.68449" lon="6.47024">
        <ele>1975</ele>
        <time>2022-07-28T11:57:08Z</time>
      </trkpt>
      <trkpt lat="45.68449" lon="6.47024">
        <ele>1975</ele>
        <time>2022-07-28T11:57:09Z</time>
      </trkpt>
      <trkpt lat="45.6845" lon="6.47025">
        <ele>1975</ele>
        <time>2022-07-28T11:57:10Z</time>
      </trkpt>
      <trkpt lat="45.68451" lon="6.47026">
        <ele>1975</ele>
        <time>2022-07-28T11:57:11Z</time>
      </trkpt>
      <trkpt lat="45.68451" lon="6.47027">
        <ele>1974</ele>
        <time>2022-07-28T11:57:12Z</time>
      </trkpt>
      <trkpt lat="45.68452" lon="6.47028">
        <ele>1974</ele>
        <time>2022-07-28T11:57:13Z</time>
      </trkpt>
      <trkpt lat="45.68453" lon="6.47028">
        <ele>1974</ele>
        <time>2022-07-28T11:57:14Z</time>
      </trkpt>
      <trkpt lat="45.68453" lon="6.47029">
        <ele>1974</ele>
        <time>2022-07-28T11:57:15Z</time>
      </trkpt>
      <trkpt lat="45.68454" lon="6.47029">
        <ele>1974</ele>
        <time>2022-07-28T11:57:16Z</time>
      </trkpt>
      <trkpt lat="45.68455" lon="6.4703">
        <ele>1973</ele>
        <time>2022-07-28T11:57:17Z</time>
      </trkpt>
      <trkpt lat="45.68455" lon="6.4703">
        <ele>1973</ele>
        <time>2022-07-28T11:57:18Z</time>
      </trkpt>
      <trkpt lat="45.68456" lon="6.4703">
        <ele>1973</ele>
        <time>2022-07-28T11:57:19Z</time>
      </trkpt>
      <trkpt lat="45.68456" lon="6.47031">
        <ele>1973</ele>
        <time>2022-07-28T11:57:20Z</time>
      </trkpt>
      <trkpt lat="45.68457" lon="6.47031">
        <ele>1973</ele>
        <time>2022-07-28T11:57:21Z</time>
      </trkpt>
      <trkpt lat="45.68458" lon="6.47032">
        <ele>1972</ele>
        <time>2022-07-28T11:57:22Z</time>
      </trkpt>
      <trkpt lat="45.68458" lon="6.47032">
        <ele>1972</ele>
        <time>2022-07-28T11:57:23Z</time>
      </trkpt>
      <trkpt lat="45.68459" lon="6.47033">
        <ele>1972</ele>
        <time>2022-07-28T11:57:24Z</time>
      </trkpt>
      <trkpt lat="45.68459" lon="6.47033">
        <ele>1972</ele>
        <time>2022-07-28T11:57:25Z</time>
      </trkpt>
      <trkpt lat="45.6846" lon="6.47033">
        <ele>1972</ele>
        <time>2022-07-28T11:57:26Z</time>
      </trkpt>
      <trkpt lat="45.6846" lon="6.47033">
        <ele>1971</ele>
        <time>2022-07-28T11:57:27Z</time>
      </trkpt>
      <trkpt lat="45.6846" lon="6.47034">
        <ele>1971</ele>
        <time>2022-07-28T11:57:28Z</time>
      </trkpt>
      <trkpt lat="45.68461" lon="6.47034">
        <ele>1971</ele>
        <time>2022-07-28T11:57:29Z</time>
      </trkpt>
      <trkpt lat="45.68461" lon="6.47035">
        <ele>1971</ele>
        <time>2022-07-28T11:57:30Z</time>
      </trkpt>
      <trkpt lat="45.68462" lon="6.47035">
        <ele>1971</ele>
        <time>2022-07-28T11:57:31Z</time>
      </trkpt>
      <trkpt lat="45.68462" lon="6.47035">
        <ele>1970</ele>
        <time>2022-07-28T11:57:32Z</time>
      </trkpt>
      <trkpt lat="45.68463" lon="6.47036">
        <ele>1970</ele>
        <time>2022-07-28T11:57:33Z</time>
      </trkpt>
      <trkpt lat="45.68463" lon="6.47036">
        <ele>1970</ele>
        <time>2022-07-28T11:57:34Z</time>
      </trkpt>
      <trkpt lat="45.68464" lon="6.47036">
        <ele>1970</ele>
        <time>2022-07-28T11:57:35Z</time>
      </trkpt>
      <trkpt lat="45.68465" lon="6.47036">
        <ele>1970</ele>
        <time>2022-07-28T11:57:36Z</time>
      </trkpt>
      <trkpt lat="45.68466" lon="6.47035">
        <ele>1969</ele>
        <time>2022-07-28T11:57:37Z</time>
      </trkpt>
      <trkpt lat="45.68466" lon="6.47035">
        <ele>1969</ele>
        <time>2022-07-28T11:57:38Z</time>
      </trkpt>
      <trkpt lat="45.68467" lon="6.47035">
        <ele>1969</ele>
        <time>2022-07-28T11:57:39Z</time>
      </trkpt>
      <trkpt lat="45.68468" lon="6.47034">
        <ele>1969</ele>
        <time>2022-07-28T11:57:40Z</time>
      </trkpt>
      <trkpt lat="45.68469" lon="6.47034">
        <ele>1969</ele>
        <time>2022-07-28T11:57:41Z</time>
      </trkpt>
      <trkpt lat="45.6847" lon="6.47034">
        <ele>1968</ele>
        <time>2022-07-28T11:57:42Z</time>
      </trkpt>
      <trkpt lat="45.68471" lon="6.47035">
        <ele>1968</ele>
        <time>2022-07-28T11:57:43Z</time>
      </trkpt>
      <trkpt lat="45.68472" lon="6.47035">
        <ele>1968</ele>
        <time>2022-07-28T11:57:44Z</time>
      </trkpt>
      <trkpt lat="45.68473" lon="6.47036">
        <ele>1968</ele>
        <time>2022-07-28T11:57:45Z</time>
      </trkpt>
      <trkpt lat="45.68474" lon="6.47036">
        <ele>1968</ele>
        <time>2022-07-28T11:57:46Z</time>
      </trkpt>
      <trkpt lat="45.68475" lon="6.47037">
        <ele>1967</ele>
        <time>2022-07-28T11:57:47Z</time>
      </trkpt>
      <trkpt lat="45.68476" lon="6.47038">
        <ele>1967</ele>
        <time>2022-07-28T11:57:48Z</time>
      </trkpt>
      <trkpt lat="45.68477" lon="6.47038">
        <ele>1967</ele>
        <time>2022-07-28T11:57:49Z</time>
      </trkpt>
      <trkpt lat="45.68478" lon="6.47039">
        <ele>1967</ele>
        <time>2022-07-28T11:57:50Z</time>
      </trkpt>
      <trkpt lat="45.68479" lon="6.4704">
        <ele>1967</ele>
        <time>2022-07-28T11:57:51Z</time>
      </trkpt>
      <trkpt lat="45.6848" lon="6.47041">
        <ele>1967</ele>
        <time>2022-07-28T11:57:52Z</time>
      </trkpt>
      <trkpt lat="45.68481" lon="6.47042">
        <ele>1967</ele>
        <time>2022-07-28T11:57:53Z</time>
      </trkpt>
      <trkpt lat="45.68481" lon="6.47043">
        <ele>1967</ele>
        <time>2022-07-28T11:57:54Z</time>
      </trkpt>
      <trkpt lat="45.68482" lon="6.47043">
        <ele>1967</ele>
        <time>2022-07-28T11:57:55Z</time>
      </trkpt>
      <trkpt lat="45.68483" lon="6.47044">
        <ele>1967</ele>
        <time>2022-07-28T11:57:56Z</time>
      </trkpt>
      <trkpt lat="45.68483" lon="6.47044">
        <ele>1966</ele>
        <time>2022-07-28T11:57:57Z</time>
      </trkpt>
      <trkpt lat="45.68484" lon="6.47045">
        <ele>1966</ele>
        <time>2022-07-28T11:57:58Z</time>
      </trkpt>
      <trkpt lat="45.68486" lon="6.47046">
        <ele>1965</ele>
        <time>2022-07-28T11:58:16Z</time>
      </trkpt>
      <trkpt lat="45.68487" lon="6.47047">
        <ele>1964</ele>
        <time>2022-07-28T11:58:17Z</time>
      </trkpt>
      <trkpt lat="45.68488" lon="6.47048">
        <ele>1964</ele>
        <time>2022-07-28T11:58:18Z</time>
      </trkpt>
      <trkpt lat="45.68488" lon="6.47048">
        <ele>1964</ele>
        <time>2022-07-28T11:58:19Z</time>
      </trkpt>
      <trkpt lat="45.68489" lon="6.47048">
        <ele>1964</ele>
        <time>2022-07-28T11:58:20Z</time>
      </trkpt>
      <trkpt lat="45.6849" lon="6.47049">
        <ele>1964</ele>
        <time>2022-07-28T11:58:21Z</time>
      </trkpt>
      <trkpt lat="45.68491" lon="6.47049">
        <ele>1963</ele>
        <time>2022-07-28T11:58:22Z</time>
      </trkpt>
      <trkpt lat="45.68491" lon="6.47049">
        <ele>1963</ele>
        <time>2022-07-28T11:58:23Z</time>
      </trkpt>
      <trkpt lat="45.68492" lon="6.4705">
        <ele>1963</ele>
        <time>2022-07-28T11:58:24Z</time>
      </trkpt>
      <trkpt lat="45.68492" lon="6.4705">
        <ele>1963</ele>
        <time>2022-07-28T11:58:25Z</time>
      </trkpt>
      <trkpt lat="45.68493" lon="6.4705">
        <ele>1963</ele>
        <time>2022-07-28T11:58:26Z</time>
      </trkpt>
      <trkpt lat="45.68493" lon="6.47051">
        <ele>1962</ele>
        <time>2022-07-28T11:58:27Z</time>
      </trkpt>
      <trkpt lat="45.68494" lon="6.47051">
        <ele>1962</ele>
        <time>2022-07-28T11:58:28Z</time>
      </trkpt>
      <trkpt lat="45.68495" lon="6.47052">
        <ele>1962</ele>
        <time>2022-07-28T11:58:29Z</time>
      </trkpt>
      <trkpt lat="45.68495" lon="6.47052">
        <ele>1962</ele>
        <time>2022-07-28T11:58:30Z</time>
      </trkpt>
      <trkpt lat="45.68496" lon="6.47053">
        <ele>1962</ele>
        <time>2022-07-28T11:58:31Z</time>
      </trkpt>
      <trkpt lat="45.68497" lon="6.47053">
        <ele>1962</ele>
        <time>2022-07-28T11:58:32Z</time>
      </trkpt>
      <trkpt lat="45.68498" lon="6.47056">
        <ele>1961</ele>
        <time>2022-07-28T11:58:44Z</time>
      </trkpt>
      <trkpt lat="45.68499" lon="6.47056">
        <ele>1961</ele>
        <time>2022-07-28T11:58:45Z</time>
      </trkpt>
      <trkpt lat="45.685" lon="6.47057">
        <ele>1961</ele>
        <time>2022-07-28T11:58:46Z</time>
      </trkpt>
      <trkpt lat="45.68501" lon="6.47057">
        <ele>1960</ele>
        <time>2022-07-28T11:58:47Z</time>
      </trkpt>
      <trkpt lat="45.68501" lon="6.47056">
        <ele>1960</ele>
        <time>2022-07-28T11:58:48Z</time>
      </trkpt>
      <trkpt lat="45.68501" lon="6.47056">
        <ele>1960</ele>
        <time>2022-07-28T11:58:49Z</time>
      </trkpt>
      <trkpt lat="45.68502" lon="6.47056">
        <ele>1960</ele>
        <time>2022-07-28T11:58:50Z</time>
      </trkpt>
      <trkpt lat="45.68502" lon="6.47055">
        <ele>1960</ele>
        <time>2022-07-28T11:58:51Z</time>
      </trkpt>
      <trkpt lat="45.68502" lon="6.47055">
        <ele>1959</ele>
        <time>2022-07-28T11:58:52Z</time>
      </trkpt>
      <trkpt lat="45.68502" lon="6.47054">
        <ele>1959</ele>
        <time>2022-07-28T11:58:53Z</time>
      </trkpt>
      <trkpt lat="45.68502" lon="6.47052">
        <ele>1959</ele>
        <time>2022-07-28T11:58:54Z</time>
      </trkpt>
      <trkpt lat="45.68502" lon="6.47051">
        <ele>1959</ele>
        <time>2022-07-28T11:58:55Z</time>
      </trkpt>
      <trkpt lat="45.68502" lon="6.4705">
        <ele>1959</ele>
        <time>2022-07-28T11:58:56Z</time>
      </trkpt>
      <trkpt lat="45.68502" lon="6.47049">
        <ele>1958</ele>
        <time>2022-07-28T11:58:57Z</time>
      </trkpt>
      <trkpt lat="45.68502" lon="6.47047">
        <ele>1958</ele>
        <time>2022-07-28T11:58:58Z</time>
      </trkpt>
      <trkpt lat="45.68502" lon="6.47046">
        <ele>1958</ele>
        <time>2022-07-28T11:58:59Z</time>
      </trkpt>
      <trkpt lat="45.68501" lon="6.47045">
        <ele>1958</ele>
        <time>2022-07-28T11:59:00Z</time>
      </trkpt>
      <trkpt lat="45.68501" lon="6.47044">
        <ele>1958</ele>
        <time>2022-07-28T11:59:01Z</time>
      </trkpt>
      <trkpt lat="45.68501" lon="6.47043">
        <ele>1957</ele>
        <time>2022-07-28T11:59:02Z</time>
      </trkpt>
      <trkpt lat="45.68501" lon="6.47042">
        <ele>1957</ele>
        <time>2022-07-28T11:59:03Z</time>
      </trkpt>
      <trkpt lat="45.685" lon="6.4704">
        <ele>1957</ele>
        <time>2022-07-28T11:59:04Z</time>
      </trkpt>
      <trkpt lat="45.685" lon="6.47039">
        <ele>1957</ele>
        <time>2022-07-28T11:59:05Z</time>
      </trkpt>
      <trkpt lat="45.685" lon="6.47038">
        <ele>1957</ele>
        <time>2022-07-28T11:59:06Z</time>
      </trkpt>
      <trkpt lat="45.685" lon="6.47036">
        <ele>1956</ele>
        <time>2022-07-28T11:59:07Z</time>
      </trkpt>
      <trkpt lat="45.685" lon="6.47035">
        <ele>1956</ele>
        <time>2022-07-28T11:59:08Z</time>
      </trkpt>
      <trkpt lat="45.685" lon="6.47034">
        <ele>1956</ele>
        <time>2022-07-28T11:59:09Z</time>
      </trkpt>
      <trkpt lat="45.685" lon="6.47032">
        <ele>1956</ele>
        <time>2022-07-28T11:59:10Z</time>
      </trkpt>
      <trkpt lat="45.685" lon="6.47031">
        <ele>1956</ele>
        <time>2022-07-28T11:59:11Z</time>
      </trkpt>
      <trkpt lat="45.685" lon="6.4703">
        <ele>1955</ele>
        <time>2022-07-28T11:59:12Z</time>
      </trkpt>
      <trkpt lat="45.685" lon="6.47029">
        <ele>1955</ele>
        <time>2022-07-28T11:59:13Z</time>
      </trkpt>
      <trkpt lat="45.68499" lon="6.47027">
        <ele>1955</ele>
        <time>2022-07-28T11:59:14Z</time>
      </trkpt>
      <trkpt lat="45.68499" lon="6.47026">
        <ele>1955</ele>
        <time>2022-07-28T11:59:15Z</time>
      </trkpt>
      <trkpt lat="45.68499" lon="6.47026">
        <ele>1955</ele>
        <time>2022-07-28T11:59:16Z</time>
      </trkpt>
      <trkpt lat="45.68498" lon="6.47025">
        <ele>1954</ele>
        <time>2022-07-28T11:59:17Z</time>
      </trkpt>
      <trkpt lat="45.68498" lon="6.47024">
        <ele>1954</ele>
        <time>2022-07-28T11:59:18Z</time>
      </trkpt>
      <trkpt lat="45.68497" lon="6.47023">
        <ele>1953</ele>
        <time>2022-07-28T11:59:19Z</time>
      </trkpt>
      <trkpt lat="45.68497" lon="6.47022">
        <ele>1953</ele>
        <time>2022-07-28T11:59:20Z</time>
      </trkpt>
      <trkpt lat="45.68496" lon="6.47021">
        <ele>1953</ele>
        <time>2022-07-28T11:59:21Z</time>
      </trkpt>
      <trkpt lat="45.68496" lon="6.4702">
        <ele>1952</ele>
        <time>2022-07-28T11:59:22Z</time>
      </trkpt>
      <trkpt lat="45.68495" lon="6.47018">
        <ele>1952</ele>
        <time>2022-07-28T11:59:23Z</time>
      </trkpt>
      <trkpt lat="45.68495" lon="6.47017">
        <ele>1951</ele>
        <time>2022-07-28T11:59:24Z</time>
      </trkpt>
      <trkpt lat="45.68494" lon="6.47016">
        <ele>1951</ele>
        <time>2022-07-28T11:59:25Z</time>
      </trkpt>
      <trkpt lat="45.68494" lon="6.47014">
        <ele>1951</ele>
        <time>2022-07-28T11:59:26Z</time>
      </trkpt>
      <trkpt lat="45.68493" lon="6.47013">
        <ele>1950</ele>
        <time>2022-07-28T11:59:27Z</time>
      </trkpt>
      <trkpt lat="45.68493" lon="6.47012">
        <ele>1950</ele>
        <time>2022-07-28T11:59:28Z</time>
      </trkpt>
      <trkpt lat="45.68492" lon="6.47011">
        <ele>1950</ele>
        <time>2022-07-28T11:59:29Z</time>
      </trkpt>
      <trkpt lat="45.68491" lon="6.4701">
        <ele>1950</ele>
        <time>2022-07-28T11:59:30Z</time>
      </trkpt>
      <trkpt lat="45.68491" lon="6.47008">
        <ele>1950</ele>
        <time>2022-07-28T11:59:31Z</time>
      </trkpt>
      <trkpt lat="45.6849" lon="6.47007">
        <ele>1949</ele>
        <time>2022-07-28T11:59:32Z</time>
      </trkpt>
      <trkpt lat="45.68489" lon="6.47006">
        <ele>1949</ele>
        <time>2022-07-28T11:59:33Z</time>
      </trkpt>
      <trkpt lat="45.68488" lon="6.47005">
        <ele>1949</ele>
        <time>2022-07-28T11:59:34Z</time>
      </trkpt>
      <trkpt lat="45.68488" lon="6.47004">
        <ele>1949</ele>
        <time>2022-07-28T11:59:35Z</time>
      </trkpt>
      <trkpt lat="45.68487" lon="6.47002">
        <ele>1949</ele>
        <time>2022-07-28T11:59:36Z</time>
      </trkpt>
      <trkpt lat="45.68486" lon="6.47001">
        <ele>1948</ele>
        <time>2022-07-28T11:59:37Z</time>
      </trkpt>
      <trkpt lat="45.68486" lon="6.46999">
        <ele>1948</ele>
        <time>2022-07-28T11:59:38Z</time>
      </trkpt>
      <trkpt lat="45.68485" lon="6.46998">
        <ele>1948</ele>
        <time>2022-07-28T11:59:39Z</time>
      </trkpt>
      <trkpt lat="45.68484" lon="6.46997">
        <ele>1948</ele>
        <time>2022-07-28T11:59:40Z</time>
      </trkpt>
      <trkpt lat="45.68483" lon="6.46996">
        <ele>1948</ele>
        <time>2022-07-28T11:59:41Z</time>
      </trkpt>
      <trkpt lat="45.68483" lon="6.46995">
        <ele>1947</ele>
        <time>2022-07-28T11:59:42Z</time>
      </trkpt>
      <trkpt lat="45.68482" lon="6.46993">
        <ele>1947</ele>
        <time>2022-07-28T11:59:43Z</time>
      </trkpt>
      <trkpt lat="45.68482" lon="6.46992">
        <ele>1947</ele>
        <time>2022-07-28T11:59:44Z</time>
      </trkpt>
      <trkpt lat="45.68482" lon="6.46991">
        <ele>1947</ele>
        <time>2022-07-28T11:59:45Z</time>
      </trkpt>
      <trkpt lat="45.68481" lon="6.4699">
        <ele>1947</ele>
        <time>2022-07-28T11:59:46Z</time>
      </trkpt>
      <trkpt lat="45.68481" lon="6.46988">
        <ele>1946</ele>
        <time>2022-07-28T11:59:47Z</time>
      </trkpt>
      <trkpt lat="45.68481" lon="6.46987">
        <ele>1946</ele>
        <time>2022-07-28T11:59:48Z</time>
      </trkpt>
      <trkpt lat="45.6848" lon="6.46986">
        <ele>1946</ele>
        <time>2022-07-28T11:59:49Z</time>
      </trkpt>
      <trkpt lat="45.6848" lon="6.46986">
        <ele>1946</ele>
        <time>2022-07-28T11:59:50Z</time>
      </trkpt>
      <trkpt lat="45.68479" lon="6.46985">
        <ele>1946</ele>
        <time>2022-07-28T11:59:51Z</time>
      </trkpt>
      <trkpt lat="45.68479" lon="6.46984">
        <ele>1946</ele>
        <time>2022-07-28T11:59:52Z</time>
      </trkpt>
      <trkpt lat="45.68478" lon="6.46984">
        <ele>1946</ele>
        <time>2022-07-28T11:59:53Z</time>
      </trkpt>
      <trkpt lat="45.68478" lon="6.46983">
        <ele>1946</ele>
        <time>2022-07-28T11:59:54Z</time>
      </trkpt>
      <trkpt lat="45.68477" lon="6.46982">
        <ele>1946</ele>
        <time>2022-07-28T11:59:55Z</time>
      </trkpt>
      <trkpt lat="45.68477" lon="6.46981">
        <ele>1946</ele>
        <time>2022-07-28T11:59:56Z</time>
      </trkpt>
      <trkpt lat="45.68477" lon="6.4698">
        <ele>1945</ele>
        <time>2022-07-28T11:59:57Z</time>
      </trkpt>
      <trkpt lat="45.68477" lon="6.46979">
        <ele>1945</ele>
        <time>2022-07-28T11:59:58Z</time>
      </trkpt>
      <trkpt lat="45.68476" lon="6.46978">
        <ele>1944</ele>
        <time>2022-07-28T11:59:59Z</time>
      </trkpt>
      <trkpt lat="45.68476" lon="6.46977">
        <ele>1944</ele>
        <time>2022-07-28T12:00:00Z</time>
      </trkpt>
      <trkpt lat="45.68475" lon="6.46976">
        <ele>1944</ele>
        <time>2022-07-28T12:00:01Z</time>
      </trkpt>
      <trkpt lat="45.68475" lon="6.46975">
        <ele>1943</ele>
        <time>2022-07-28T12:00:02Z</time>
      </trkpt>
      <trkpt lat="45.68474" lon="6.46974">
        <ele>1943</ele>
        <time>2022-07-28T12:00:03Z</time>
      </trkpt>
      <trkpt lat="45.68473" lon="6.46972">
        <ele>1943</ele>
        <time>2022-07-28T12:00:04Z</time>
      </trkpt>
      <trkpt lat="45.68472" lon="6.46971">
        <ele>1943</ele>
        <time>2022-07-28T12:00:05Z</time>
      </trkpt>
      <trkpt lat="45.68472" lon="6.46969">
        <ele>1943</ele>
        <time>2022-07-28T12:00:06Z</time>
      </trkpt>
      <trkpt lat="45.68471" lon="6.46968">
        <ele>1942</ele>
        <time>2022-07-28T12:00:07Z</time>
      </trkpt>
      <trkpt lat="45.6847" lon="6.46966">
        <ele>1942</ele>
        <time>2022-07-28T12:00:08Z</time>
      </trkpt>
      <trkpt lat="45.6847" lon="6.46965">
        <ele>1942</ele>
        <time>2022-07-28T12:00:09Z</time>
      </trkpt>
      <trkpt lat="45.68469" lon="6.46964">
        <ele>1942</ele>
        <time>2022-07-28T12:00:10Z</time>
      </trkpt>
      <trkpt lat="45.68469" lon="6.46962">
        <ele>1942</ele>
        <time>2022-07-28T12:00:11Z</time>
      </trkpt>
      <trkpt lat="45.68469" lon="6.46961">
        <ele>1941</ele>
        <time>2022-07-28T12:00:12Z</time>
      </trkpt>
      <trkpt lat="45.68468" lon="6.4696">
        <ele>1941</ele>
        <time>2022-07-28T12:00:13Z</time>
      </trkpt>
      <trkpt lat="45.68468" lon="6.46958">
        <ele>1941</ele>
        <time>2022-07-28T12:00:14Z</time>
      </trkpt>
      <trkpt lat="45.68467" lon="6.46957">
        <ele>1941</ele>
        <time>2022-07-28T12:00:15Z</time>
      </trkpt>
      <trkpt lat="45.68467" lon="6.46956">
        <ele>1941</ele>
        <time>2022-07-28T12:00:16Z</time>
      </trkpt>
      <trkpt lat="45.68467" lon="6.46955">
        <ele>1941</ele>
        <time>2022-07-28T12:00:17Z</time>
      </trkpt>
      <trkpt lat="45.68466" lon="6.46954">
        <ele>1941</ele>
        <time>2022-07-28T12:00:18Z</time>
      </trkpt>
      <trkpt lat="45.68466" lon="6.46953">
        <ele>1941</ele>
        <time>2022-07-28T12:00:19Z</time>
      </trkpt>
      <trkpt lat="45.68466" lon="6.46953">
        <ele>1941</ele>
        <time>2022-07-28T12:00:20Z</time>
      </trkpt>
      <trkpt lat="45.68465" lon="6.46952">
        <ele>1941</ele>
        <time>2022-07-28T12:00:21Z</time>
      </trkpt>
      <trkpt lat="45.68465" lon="6.46951">
        <ele>1940</ele>
        <time>2022-07-28T12:00:22Z</time>
      </trkpt>
      <trkpt lat="45.68465" lon="6.4695">
        <ele>1940</ele>
        <time>2022-07-28T12:00:23Z</time>
      </trkpt>
      <trkpt lat="45.68465" lon="6.46949">
        <ele>1940</ele>
        <time>2022-07-28T12:00:24Z</time>
      </trkpt>
      <trkpt lat="45.68465" lon="6.46948">
        <ele>1940</ele>
        <time>2022-07-28T12:00:25Z</time>
      </trkpt>
      <trkpt lat="45.68465" lon="6.46947">
        <ele>1940</ele>
        <time>2022-07-28T12:00:26Z</time>
      </trkpt>
      <trkpt lat="45.68465" lon="6.46947">
        <ele>1939</ele>
        <time>2022-07-28T12:00:27Z</time>
      </trkpt>
      <trkpt lat="45.68466" lon="6.46946">
        <ele>1939</ele>
        <time>2022-07-28T12:00:28Z</time>
      </trkpt>
      <trkpt lat="45.68466" lon="6.46945">
        <ele>1938</ele>
        <time>2022-07-28T12:00:29Z</time>
      </trkpt>
      <trkpt lat="45.68467" lon="6.46944">
        <ele>1938</ele>
        <time>2022-07-28T12:00:30Z</time>
      </trkpt>
      <trkpt lat="45.68468" lon="6.46943">
        <ele>1938</ele>
        <time>2022-07-28T12:00:31Z</time>
      </trkpt>
      <trkpt lat="45.68468" lon="6.46943">
        <ele>1937</ele>
        <time>2022-07-28T12:00:32Z</time>
      </trkpt>
      <trkpt lat="45.68469" lon="6.46942">
        <ele>1937</ele>
        <time>2022-07-28T12:00:33Z</time>
      </trkpt>
      <trkpt lat="45.6847" lon="6.46942">
        <ele>1937</ele>
        <time>2022-07-28T12:00:34Z</time>
      </trkpt>
      <trkpt lat="45.6847" lon="6.46941">
        <ele>1937</ele>
        <time>2022-07-28T12:00:35Z</time>
      </trkpt>
      <trkpt lat="45.68471" lon="6.46941">
        <ele>1937</ele>
        <time>2022-07-28T12:00:36Z</time>
      </trkpt>
      <trkpt lat="45.68472" lon="6.4694">
        <ele>1936</ele>
        <time>2022-07-28T12:00:37Z</time>
      </trkpt>
      <trkpt lat="45.68472" lon="6.4694">
        <ele>1936</ele>
        <time>2022-07-28T12:00:38Z</time>
      </trkpt>
      <trkpt lat="45.68473" lon="6.4694">
        <ele>1936</ele>
        <time>2022-07-28T12:00:39Z</time>
      </trkpt>
      <trkpt lat="45.68474" lon="6.4694">
        <ele>1936</ele>
        <time>2022-07-28T12:00:40Z</time>
      </trkpt>
      <trkpt lat="45.68474" lon="6.46941">
        <ele>1936</ele>
        <time>2022-07-28T12:00:41Z</time>
      </trkpt>
      <trkpt lat="45.68475" lon="6.46941">
        <ele>1935</ele>
        <time>2022-07-28T12:00:42Z</time>
      </trkpt>
      <trkpt lat="45.68475" lon="6.46941">
        <ele>1935</ele>
        <time>2022-07-28T12:00:43Z</time>
      </trkpt>
      <trkpt lat="45.68476" lon="6.46941">
        <ele>1935</ele>
        <time>2022-07-28T12:00:44Z</time>
      </trkpt>
      <trkpt lat="45.68476" lon="6.46941">
        <ele>1935</ele>
        <time>2022-07-28T12:00:45Z</time>
      </trkpt>
      <trkpt lat="45.68477" lon="6.46941">
        <ele>1935</ele>
        <time>2022-07-28T12:00:46Z</time>
      </trkpt>
      <trkpt lat="45.68477" lon="6.46941">
        <ele>1934</ele>
        <time>2022-07-28T12:00:47Z</time>
      </trkpt>
      <trkpt lat="45.68478" lon="6.46941">
        <ele>1934</ele>
        <time>2022-07-28T12:00:48Z</time>
      </trkpt>
      <trkpt lat="45.68478" lon="6.46941">
        <ele>1934</ele>
        <time>2022-07-28T12:00:49Z</time>
      </trkpt>
      <trkpt lat="45.68479" lon="6.4694">
        <ele>1934</ele>
        <time>2022-07-28T12:00:50Z</time>
      </trkpt>
      <trkpt lat="45.68479" lon="6.4694">
        <ele>1934</ele>
        <time>2022-07-28T12:00:51Z</time>
      </trkpt>
      <trkpt lat="45.6848" lon="6.46939">
        <ele>1933</ele>
        <time>2022-07-28T12:00:52Z</time>
      </trkpt>
      <trkpt lat="45.6848" lon="6.46938">
        <ele>1933</ele>
        <time>2022-07-28T12:00:53Z</time>
      </trkpt>
      <trkpt lat="45.68481" lon="6.46937">
        <ele>1933</ele>
        <time>2022-07-28T12:00:54Z</time>
      </trkpt>
      <trkpt lat="45.68481" lon="6.46936">
        <ele>1933</ele>
        <time>2022-07-28T12:00:55Z</time>
      </trkpt>
      <trkpt lat="45.68481" lon="6.46935">
        <ele>1933</ele>
        <time>2022-07-28T12:00:56Z</time>
      </trkpt>
      <trkpt lat="45.68481" lon="6.46934">
        <ele>1932</ele>
        <time>2022-07-28T12:00:57Z</time>
      </trkpt>
      <trkpt lat="45.68481" lon="6.46933">
        <ele>1932</ele>
        <time>2022-07-28T12:00:58Z</time>
      </trkpt>
      <trkpt lat="45.68482" lon="6.46931">
        <ele>1932</ele>
        <time>2022-07-28T12:00:59Z</time>
      </trkpt>
      <trkpt lat="45.68482" lon="6.4693">
        <ele>1932</ele>
        <time>2022-07-28T12:01:00Z</time>
      </trkpt>
      <trkpt lat="45.68482" lon="6.46929">
        <ele>1932</ele>
        <time>2022-07-28T12:01:01Z</time>
      </trkpt>
      <trkpt lat="45.68482" lon="6.46928">
        <ele>1931</ele>
        <time>2022-07-28T12:01:02Z</time>
      </trkpt>
      <trkpt lat="45.68482" lon="6.46927">
        <ele>1931</ele>
        <time>2022-07-28T12:01:03Z</time>
      </trkpt>
      <trkpt lat="45.68482" lon="6.46927">
        <ele>1931</ele>
        <time>2022-07-28T12:01:04Z</time>
      </trkpt>
      <trkpt lat="45.68482" lon="6.46926">
        <ele>1931</ele>
        <time>2022-07-28T12:01:05Z</time>
      </trkpt>
      <trkpt lat="45.68483" lon="6.46926">
        <ele>1931</ele>
        <time>2022-07-28T12:01:06Z</time>
      </trkpt>
      <trkpt lat="45.68483" lon="6.46925">
        <ele>1931</ele>
        <time>2022-07-28T12:01:07Z</time>
      </trkpt>
      <trkpt lat="45.68484" lon="6.46924">
        <ele>1931</ele>
        <time>2022-07-28T12:01:08Z</time>
      </trkpt>
      <trkpt lat="45.68484" lon="6.46924">
        <ele>1931</ele>
        <time>2022-07-28T12:01:09Z</time>
      </trkpt>
      <trkpt lat="45.68485" lon="6.46923">
        <ele>1931</ele>
        <time>2022-07-28T12:01:10Z</time>
      </trkpt>
      <trkpt lat="45.68486" lon="6.46924">
        <ele>1929</ele>
        <time>2022-07-28T12:01:22Z</time>
      </trkpt>
      <trkpt lat="45.68487" lon="6.46925">
        <ele>1929</ele>
        <time>2022-07-28T12:01:23Z</time>
      </trkpt>
      <trkpt lat="45.68487" lon="6.46926">
        <ele>1929</ele>
        <time>2022-07-28T12:01:24Z</time>
      </trkpt>
      <trkpt lat="45.68488" lon="6.46927">
        <ele>1929</ele>
        <time>2022-07-28T12:01:25Z</time>
      </trkpt>
      <trkpt lat="45.68488" lon="6.46927">
        <ele>1929</ele>
        <time>2022-07-28T12:01:26Z</time>
      </trkpt>
      <trkpt lat="45.68489" lon="6.46928">
        <ele>1928</ele>
        <time>2022-07-28T12:01:27Z</time>
      </trkpt>
      <trkpt lat="45.6849" lon="6.46929">
        <ele>1928</ele>
        <time>2022-07-28T12:01:28Z</time>
      </trkpt>
      <trkpt lat="45.6849" lon="6.46929">
        <ele>1928</ele>
        <time>2022-07-28T12:01:29Z</time>
      </trkpt>
      <trkpt lat="45.6849" lon="6.46929">
        <ele>1928</ele>
        <time>2022-07-28T12:01:30Z</time>
      </trkpt>
      <trkpt lat="45.68491" lon="6.4693">
        <ele>1928</ele>
        <time>2022-07-28T12:01:31Z</time>
      </trkpt>
      <trkpt lat="45.68491" lon="6.4693">
        <ele>1927</ele>
        <time>2022-07-28T12:01:32Z</time>
      </trkpt>
      <trkpt lat="45.68491" lon="6.46931">
        <ele>1927</ele>
        <time>2022-07-28T12:01:33Z</time>
      </trkpt>
      <trkpt lat="45.68492" lon="6.46931">
        <ele>1927</ele>
        <time>2022-07-28T12:01:34Z</time>
      </trkpt>
      <trkpt lat="45.68493" lon="6.46932">
        <ele>1927</ele>
        <time>2022-07-28T12:01:35Z</time>
      </trkpt>
      <trkpt lat="45.68493" lon="6.46932">
        <ele>1927</ele>
        <time>2022-07-28T12:01:36Z</time>
      </trkpt>
      <trkpt lat="45.68494" lon="6.46932">
        <ele>1926</ele>
        <time>2022-07-28T12:01:37Z</time>
      </trkpt>
      <trkpt lat="45.68494" lon="6.46933">
        <ele>1926</ele>
        <time>2022-07-28T12:01:38Z</time>
      </trkpt>
      <trkpt lat="45.68495" lon="6.46933">
        <ele>1926</ele>
        <time>2022-07-28T12:01:39Z</time>
      </trkpt>
      <trkpt lat="45.68495" lon="6.46933">
        <ele>1926</ele>
        <time>2022-07-28T12:01:40Z</time>
      </trkpt>
      <trkpt lat="45.68496" lon="6.46933">
        <ele>1924</ele>
        <time>2022-07-28T12:01:49Z</time>
      </trkpt>
      <trkpt lat="45.68497" lon="6.46932">
        <ele>1924</ele>
        <time>2022-07-28T12:01:50Z</time>
      </trkpt>
      <trkpt lat="45.68498" lon="6.46932">
        <ele>1924</ele>
        <time>2022-07-28T12:01:51Z</time>
      </trkpt>
      <trkpt lat="45.68499" lon="6.46931">
        <ele>1922</ele>
        <time>2022-07-28T12:01:58Z</time>
      </trkpt>
      <trkpt lat="45.685" lon="6.46931">
        <ele>1922</ele>
        <time>2022-07-28T12:01:59Z</time>
      </trkpt>
      <trkpt lat="45.68501" lon="6.46931">
        <ele>1922</ele>
        <time>2022-07-28T12:02:00Z</time>
      </trkpt>
      <trkpt lat="45.68501" lon="6.46932">
        <ele>1922</ele>
        <time>2022-07-28T12:02:01Z</time>
      </trkpt>
      <trkpt lat="45.68502" lon="6.46932">
        <ele>1921</ele>
        <time>2022-07-28T12:02:02Z</time>
      </trkpt>
      <trkpt lat="45.68502" lon="6.46932">
        <ele>1921</ele>
        <time>2022-07-28T12:02:03Z</time>
      </trkpt>
      <trkpt lat="45.68503" lon="6.46932">
        <ele>1921</ele>
        <time>2022-07-28T12:02:04Z</time>
      </trkpt>
      <trkpt lat="45.68504" lon="6.46933">
        <ele>1921</ele>
        <time>2022-07-28T12:02:05Z</time>
      </trkpt>
      <trkpt lat="45.68504" lon="6.46933">
        <ele>1921</ele>
        <time>2022-07-28T12:02:06Z</time>
      </trkpt>
      <trkpt lat="45.68505" lon="6.46934">
        <ele>1920</ele>
        <time>2022-07-28T12:02:07Z</time>
      </trkpt>
      <trkpt lat="45.68505" lon="6.46934">
        <ele>1920</ele>
        <time>2022-07-28T12:02:08Z</time>
      </trkpt>
      <trkpt lat="45.68505" lon="6.46935">
        <ele>1920</ele>
        <time>2022-07-28T12:02:09Z</time>
      </trkpt>
      <trkpt lat="45.68506" lon="6.46935">
        <ele>1920</ele>
        <time>2022-07-28T12:02:10Z</time>
      </trkpt>
      <trkpt lat="45.68506" lon="6.46935">
        <ele>1920</ele>
        <time>2022-07-28T12:02:11Z</time>
      </trkpt>
      <trkpt lat="45.68507" lon="6.46935">
        <ele>1919</ele>
        <time>2022-07-28T12:02:12Z</time>
      </trkpt>
      <trkpt lat="45.68507" lon="6.46934">
        <ele>1919</ele>
        <time>2022-07-28T12:02:13Z</time>
      </trkpt>
      <trkpt lat="45.68508" lon="6.46934">
        <ele>1919</ele>
        <time>2022-07-28T12:02:14Z</time>
      </trkpt>
      <trkpt lat="45.68508" lon="6.46934">
        <ele>1919</ele>
        <time>2022-07-28T12:02:15Z</time>
      </trkpt>
      <trkpt lat="45.68509" lon="6.46934">
        <ele>1919</ele>
        <time>2022-07-28T12:02:16Z</time>
      </trkpt>
      <trkpt lat="45.68509" lon="6.46933">
        <ele>1918</ele>
        <time>2022-07-28T12:02:17Z</time>
      </trkpt>
      <trkpt lat="45.6851" lon="6.46933">
        <ele>1918</ele>
        <time>2022-07-28T12:02:18Z</time>
      </trkpt>
      <trkpt lat="45.6851" lon="6.46933">
        <ele>1918</ele>
        <time>2022-07-28T12:02:19Z</time>
      </trkpt>
      <trkpt lat="45.68511" lon="6.46933">
        <ele>1918</ele>
        <time>2022-07-28T12:02:20Z</time>
      </trkpt>
      <trkpt lat="45.68512" lon="6.46933">
        <ele>1918</ele>
        <time>2022-07-28T12:02:21Z</time>
      </trkpt>
      <trkpt lat="45.68512" lon="6.46933">
        <ele>1917</ele>
        <time>2022-07-28T12:02:22Z</time>
      </trkpt>
      <trkpt lat="45.68513" lon="6.46932">
        <ele>1917</ele>
        <time>2022-07-28T12:02:23Z</time>
      </trkpt>
      <trkpt lat="45.68514" lon="6.46932">
        <ele>1917</ele>
        <time>2022-07-28T12:02:24Z</time>
      </trkpt>
      <trkpt lat="45.68515" lon="6.46931">
        <ele>1917</ele>
        <time>2022-07-28T12:02:25Z</time>
      </trkpt>
      <trkpt lat="45.68516" lon="6.4693">
        <ele>1917</ele>
        <time>2022-07-28T12:02:26Z</time>
      </trkpt>
      <trkpt lat="45.68517" lon="6.4693">
        <ele>1916</ele>
        <time>2022-07-28T12:02:27Z</time>
      </trkpt>
      <trkpt lat="45.68518" lon="6.46929">
        <ele>1916</ele>
        <time>2022-07-28T12:02:28Z</time>
      </trkpt>
      <trkpt lat="45.68519" lon="6.46929">
        <ele>1916</ele>
        <time>2022-07-28T12:02:29Z</time>
      </trkpt>
      <trkpt lat="45.68519" lon="6.46928">
        <ele>1916</ele>
        <time>2022-07-28T12:02:30Z</time>
      </trkpt>
      <trkpt lat="45.6852" lon="6.46928">
        <ele>1916</ele>
        <time>2022-07-28T12:02:31Z</time>
      </trkpt>
      <trkpt lat="45.6852" lon="6.46928">
        <ele>1915</ele>
        <time>2022-07-28T12:02:32Z</time>
      </trkpt>
      <trkpt lat="45.68521" lon="6.46928">
        <ele>1915</ele>
        <time>2022-07-28T12:02:33Z</time>
      </trkpt>
      <trkpt lat="45.68522" lon="6.46928">
        <ele>1915</ele>
        <time>2022-07-28T12:02:34Z</time>
      </trkpt>
      <trkpt lat="45.68523" lon="6.46928">
        <ele>1915</ele>
        <time>2022-07-28T12:02:35Z</time>
      </trkpt>
      <trkpt lat="45.68523" lon="6.46928">
        <ele>1915</ele>
        <time>2022-07-28T12:02:36Z</time>
      </trkpt>
      <trkpt lat="45.68524" lon="6.46928">
        <ele>1914</ele>
        <time>2022-07-28T12:02:37Z</time>
      </trkpt>
      <trkpt lat="45.68525" lon="6.46928">
        <ele>1914</ele>
        <time>2022-07-28T12:02:38Z</time>
      </trkpt>
      <trkpt lat="45.68526" lon="6.46928">
        <ele>1914</ele>
        <time>2022-07-28T12:02:39Z</time>
      </trkpt>
      <trkpt lat="45.68526" lon="6.46928">
        <ele>1914</ele>
        <time>2022-07-28T12:02:40Z</time>
      </trkpt>
      <trkpt lat="45.68527" lon="6.46928">
        <ele>1914</ele>
        <time>2022-07-28T12:02:41Z</time>
      </trkpt>
      <trkpt lat="45.68528" lon="6.46928">
        <ele>1913</ele>
        <time>2022-07-28T12:02:42Z</time>
      </trkpt>
      <trkpt lat="45.68529" lon="6.46928">
        <ele>1913</ele>
        <time>2022-07-28T12:02:43Z</time>
      </trkpt>
      <trkpt lat="45.68529" lon="6.46928">
        <ele>1913</ele>
        <time>2022-07-28T12:02:44Z</time>
      </trkpt>
      <trkpt lat="45.6853" lon="6.46928">
        <ele>1913</ele>
        <time>2022-07-28T12:02:45Z</time>
      </trkpt>
      <trkpt lat="45.6853" lon="6.46928">
        <ele>1913</ele>
        <time>2022-07-28T12:02:46Z</time>
      </trkpt>
      <trkpt lat="45.68531" lon="6.46928">
        <ele>1913</ele>
        <time>2022-07-28T12:02:47Z</time>
      </trkpt>
      <trkpt lat="45.68531" lon="6.46927">
        <ele>1913</ele>
        <time>2022-07-28T12:02:48Z</time>
      </trkpt>
      <trkpt lat="45.68532" lon="6.46927">
        <ele>1913</ele>
        <time>2022-07-28T12:02:49Z</time>
      </trkpt>
      <trkpt lat="45.68533" lon="6.46928">
        <ele>1913</ele>
        <time>2022-07-28T12:02:50Z</time>
      </trkpt>
      <trkpt lat="45.68533" lon="6.46928">
        <ele>1913</ele>
        <time>2022-07-28T12:02:51Z</time>
      </trkpt>
      <trkpt lat="45.68534" lon="6.46928">
        <ele>1912</ele>
        <time>2022-07-28T12:02:52Z</time>
      </trkpt>
      <trkpt lat="45.68535" lon="6.46928">
        <ele>1912</ele>
        <time>2022-07-28T12:02:53Z</time>
      </trkpt>
      <trkpt lat="45.68536" lon="6.46929">
        <ele>1912</ele>
        <time>2022-07-28T12:02:54Z</time>
      </trkpt>
      <trkpt lat="45.68537" lon="6.46929">
        <ele>1912</ele>
        <time>2022-07-28T12:02:55Z</time>
      </trkpt>
      <trkpt lat="45.68538" lon="6.46929">
        <ele>1912</ele>
        <time>2022-07-28T12:02:56Z</time>
      </trkpt>
      <trkpt lat="45.68539" lon="6.46929">
        <ele>1911</ele>
        <time>2022-07-28T12:02:57Z</time>
      </trkpt>
      <trkpt lat="45.6854" lon="6.46929">
        <ele>1911</ele>
        <time>2022-07-28T12:02:58Z</time>
      </trkpt>
      <trkpt lat="45.68541" lon="6.46929">
        <ele>1911</ele>
        <time>2022-07-28T12:02:59Z</time>
      </trkpt>
      <trkpt lat="45.68542" lon="6.46929">
        <ele>1911</ele>
        <time>2022-07-28T12:03:00Z</time>
      </trkpt>
      <trkpt lat="45.68543" lon="6.4693">
        <ele>1911</ele>
        <time>2022-07-28T12:03:01Z</time>
      </trkpt>
      <trkpt lat="45.68544" lon="6.4693">
        <ele>1910</ele>
        <time>2022-07-28T12:03:02Z</time>
      </trkpt>
      <trkpt lat="45.68544" lon="6.4693">
        <ele>1910</ele>
        <time>2022-07-28T12:03:03Z</time>
      </trkpt>
      <trkpt lat="45.68545" lon="6.4693">
        <ele>1910</ele>
        <time>2022-07-28T12:03:04Z</time>
      </trkpt>
      <trkpt lat="45.68545" lon="6.4693">
        <ele>1910</ele>
        <time>2022-07-28T12:03:05Z</time>
      </trkpt>
      <trkpt lat="45.68546" lon="6.4693">
        <ele>1910</ele>
        <time>2022-07-28T12:03:06Z</time>
      </trkpt>
      <trkpt lat="45.68546" lon="6.4693">
        <ele>1909</ele>
        <time>2022-07-28T12:03:07Z</time>
      </trkpt>
      <trkpt lat="45.68546" lon="6.4693">
        <ele>1909</ele>
        <time>2022-07-28T12:03:08Z</time>
      </trkpt>
      <trkpt lat="45.68547" lon="6.46929">
        <ele>1909</ele>
        <time>2022-07-28T12:03:09Z</time>
      </trkpt>
      <trkpt lat="45.68547" lon="6.46929">
        <ele>1909</ele>
        <time>2022-07-28T12:03:10Z</time>
      </trkpt>
      <trkpt lat="45.68548" lon="6.46928">
        <ele>1909</ele>
        <time>2022-07-28T12:03:11Z</time>
      </trkpt>
      <trkpt lat="45.68549" lon="6.46928">
        <ele>1908</ele>
        <time>2022-07-28T12:03:12Z</time>
      </trkpt>
      <trkpt lat="45.68549" lon="6.46927">
        <ele>1908</ele>
        <time>2022-07-28T12:03:13Z</time>
      </trkpt>
      <trkpt lat="45.6855" lon="6.46927">
        <ele>1908</ele>
        <time>2022-07-28T12:03:14Z</time>
      </trkpt>
      <trkpt lat="45.6855" lon="6.46926">
        <ele>1908</ele>
        <time>2022-07-28T12:03:15Z</time>
      </trkpt>
      <trkpt lat="45.68551" lon="6.46925">
        <ele>1908</ele>
        <time>2022-07-28T12:03:16Z</time>
      </trkpt>
      <trkpt lat="45.68551" lon="6.46924">
        <ele>1908</ele>
        <time>2022-07-28T12:03:17Z</time>
      </trkpt>
      <trkpt lat="45.68551" lon="6.46923">
        <ele>1908</ele>
        <time>2022-07-28T12:03:18Z</time>
      </trkpt>
      <trkpt lat="45.68552" lon="6.46921">
        <ele>1908</ele>
        <time>2022-07-28T12:03:19Z</time>
      </trkpt>
      <trkpt lat="45.68552" lon="6.4692">
        <ele>1908</ele>
        <time>2022-07-28T12:03:20Z</time>
      </trkpt>
      <trkpt lat="45.68552" lon="6.46919">
        <ele>1908</ele>
        <time>2022-07-28T12:03:21Z</time>
      </trkpt>
      <trkpt lat="45.68553" lon="6.46918">
        <ele>1907</ele>
        <time>2022-07-28T12:03:22Z</time>
      </trkpt>
      <trkpt lat="45.68553" lon="6.46916">
        <ele>1907</ele>
        <time>2022-07-28T12:03:23Z</time>
      </trkpt>
      <trkpt lat="45.68554" lon="6.46915">
        <ele>1907</ele>
        <time>2022-07-28T12:03:24Z</time>
      </trkpt>
      <trkpt lat="45.68554" lon="6.46914">
        <ele>1907</ele>
        <time>2022-07-28T12:03:25Z</time>
      </trkpt>
      <trkpt lat="45.68554" lon="6.46913">
        <ele>1907</ele>
        <time>2022-07-28T12:03:26Z</time>
      </trkpt>
      <trkpt lat="45.68555" lon="6.46912">
        <ele>1906</ele>
        <time>2022-07-28T12:03:27Z</time>
      </trkpt>
      <trkpt lat="45.68555" lon="6.46911">
        <ele>1906</ele>
        <time>2022-07-28T12:03:28Z</time>
      </trkpt>
      <trkpt lat="45.68555" lon="6.4691">
        <ele>1906</ele>
        <time>2022-07-28T12:03:29Z</time>
      </trkpt>
      <trkpt lat="45.68558" lon="6.46906">
        <ele>1901</ele>
        <time>2022-07-28T12:04:04Z</time>
      </trkpt>
      <trkpt lat="45.6856" lon="6.46904">
        <ele>1901</ele>
        <time>2022-07-28T12:04:05Z</time>
      </trkpt>
      <trkpt lat="45.68561" lon="6.46903">
        <ele>1901</ele>
        <time>2022-07-28T12:04:06Z</time>
      </trkpt>
      <trkpt lat="45.68562" lon="6.46902">
        <ele>1900</ele>
        <time>2022-07-28T12:04:07Z</time>
      </trkpt>
      <trkpt lat="45.68563" lon="6.46901">
        <ele>1900</ele>
        <time>2022-07-28T12:04:08Z</time>
      </trkpt>
      <trkpt lat="45.68563" lon="6.46899">
        <ele>1900</ele>
        <time>2022-07-28T12:04:09Z</time>
      </trkpt>
      <trkpt lat="45.68563" lon="6.46898">
        <ele>1900</ele>
        <time>2022-07-28T12:04:10Z</time>
      </trkpt>
      <trkpt lat="45.68563" lon="6.46897">
        <ele>1900</ele>
        <time>2022-07-28T12:04:11Z</time>
      </trkpt>
      <trkpt lat="45.68563" lon="6.46896">
        <ele>1899</ele>
        <time>2022-07-28T12:04:12Z</time>
      </trkpt>
      <trkpt lat="45.68563" lon="6.46895">
        <ele>1899</ele>
        <time>2022-07-28T12:04:13Z</time>
      </trkpt>
      <trkpt lat="45.68563" lon="6.46894">
        <ele>1899</ele>
        <time>2022-07-28T12:04:14Z</time>
      </trkpt>
      <trkpt lat="45.68563" lon="6.46891">
        <ele>1897</ele>
        <time>2022-07-28T12:04:20Z</time>
      </trkpt>
      <trkpt lat="45.68562" lon="6.46889">
        <ele>1897</ele>
        <time>2022-07-28T12:04:21Z</time>
      </trkpt>
      <trkpt lat="45.68562" lon="6.46888">
        <ele>1896</ele>
        <time>2022-07-28T12:04:22Z</time>
      </trkpt>
      <trkpt lat="45.68562" lon="6.46887">
        <ele>1896</ele>
        <time>2022-07-28T12:04:23Z</time>
      </trkpt>
      <trkpt lat="45.68562" lon="6.46886">
        <ele>1896</ele>
        <time>2022-07-28T12:04:24Z</time>
      </trkpt>
      <trkpt lat="45.68562" lon="6.46885">
        <ele>1896</ele>
        <time>2022-07-28T12:04:25Z</time>
      </trkpt>
      <trkpt lat="45.68561" lon="6.46884">
        <ele>1896</ele>
        <time>2022-07-28T12:04:26Z</time>
      </trkpt>
      <trkpt lat="45.6856" lon="6.46884">
        <ele>1895</ele>
        <time>2022-07-28T12:04:27Z</time>
      </trkpt>
      <trkpt lat="45.6856" lon="6.46883">
        <ele>1895</ele>
        <time>2022-07-28T12:04:28Z</time>
      </trkpt>
      <trkpt lat="45.68559" lon="6.46882">
        <ele>1895</ele>
        <time>2022-07-28T12:04:29Z</time>
      </trkpt>
      <trkpt lat="45.68559" lon="6.46882">
        <ele>1895</ele>
        <time>2022-07-28T12:04:30Z</time>
      </trkpt>
      <trkpt lat="45.68558" lon="6.46881">
        <ele>1895</ele>
        <time>2022-07-28T12:04:31Z</time>
      </trkpt>
      <trkpt lat="45.68558" lon="6.46881">
        <ele>1894</ele>
        <time>2022-07-28T12:04:32Z</time>
      </trkpt>
      <trkpt lat="45.68558" lon="6.46881">
        <ele>1894</ele>
        <time>2022-07-28T12:04:33Z</time>
      </trkpt>
      <trkpt lat="45.68558" lon="6.46881">
        <ele>1894</ele>
        <time>2022-07-28T12:04:34Z</time>
      </trkpt>
      <trkpt lat="45.68557" lon="6.4688">
        <ele>1894</ele>
        <time>2022-07-28T12:04:35Z</time>
      </trkpt>
      <trkpt lat="45.68557" lon="6.4688">
        <ele>1894</ele>
        <time>2022-07-28T12:04:36Z</time>
      </trkpt>
      <trkpt lat="45.68556" lon="6.46879">
        <ele>1893</ele>
        <time>2022-07-28T12:04:37Z</time>
      </trkpt>
      <trkpt lat="45.68556" lon="6.46879">
        <ele>1893</ele>
        <time>2022-07-28T12:04:38Z</time>
      </trkpt>
      <trkpt lat="45.68556" lon="6.46878">
        <ele>1893</ele>
        <time>2022-07-28T12:04:39Z</time>
      </trkpt>
      <trkpt lat="45.68555" lon="6.46877">
        <ele>1893</ele>
        <time>2022-07-28T12:04:40Z</time>
      </trkpt>
      <trkpt lat="45.68555" lon="6.46876">
        <ele>1893</ele>
        <time>2022-07-28T12:04:41Z</time>
      </trkpt>
      <trkpt lat="45.68555" lon="6.46875">
        <ele>1892</ele>
        <time>2022-07-28T12:04:42Z</time>
      </trkpt>
      <trkpt lat="45.68554" lon="6.46874">
        <ele>1892</ele>
        <time>2022-07-28T12:04:43Z</time>
      </trkpt>
      <trkpt lat="45.68554" lon="6.46873">
        <ele>1892</ele>
        <time>2022-07-28T12:04:44Z</time>
      </trkpt>
      <trkpt lat="45.68554" lon="6.46872">
        <ele>1892</ele>
        <time>2022-07-28T12:04:45Z</time>
      </trkpt>
      <trkpt lat="45.68554" lon="6.46871">
        <ele>1892</ele>
        <time>2022-07-28T12:04:46Z</time>
      </trkpt>
      <trkpt lat="45.68554" lon="6.46871">
        <ele>1891</ele>
        <time>2022-07-28T12:04:47Z</time>
      </trkpt>
      <trkpt lat="45.68554" lon="6.4687">
        <ele>1891</ele>
        <time>2022-07-28T12:04:48Z</time>
      </trkpt>
      <trkpt lat="45.68553" lon="6.46865">
        <ele>1888</ele>
        <time>2022-07-28T12:05:09Z</time>
      </trkpt>
      <trkpt lat="45.68553" lon="6.46863">
        <ele>1888</ele>
        <time>2022-07-28T12:05:10Z</time>
      </trkpt>
      <trkpt lat="45.68552" lon="6.4686">
        <ele>1888</ele>
        <time>2022-07-28T12:05:11Z</time>
      </trkpt>
      <trkpt lat="45.68552" lon="6.46859">
        <ele>1888</ele>
        <time>2022-07-28T12:05:12Z</time>
      </trkpt>
      <trkpt lat="45.68552" lon="6.46857">
        <ele>1888</ele>
        <time>2022-07-28T12:05:13Z</time>
      </trkpt>
      <trkpt lat="45.68551" lon="6.46855">
        <ele>1886</ele>
        <time>2022-07-28T12:05:33Z</time>
      </trkpt>
      <trkpt lat="45.68551" lon="6.46853">
        <ele>1886</ele>
        <time>2022-07-28T12:05:34Z</time>
      </trkpt>
      <trkpt lat="45.6855" lon="6.46851">
        <ele>1886</ele>
        <time>2022-07-28T12:05:35Z</time>
      </trkpt>
      <trkpt lat="45.6855" lon="6.4685">
        <ele>1886</ele>
        <time>2022-07-28T12:05:36Z</time>
      </trkpt>
      <trkpt lat="45.6855" lon="6.46849">
        <ele>1885</ele>
        <time>2022-07-28T12:05:37Z</time>
      </trkpt>
      <trkpt lat="45.6855" lon="6.46848">
        <ele>1885</ele>
        <time>2022-07-28T12:05:38Z</time>
      </trkpt>
      <trkpt lat="45.6855" lon="6.46847">
        <ele>1885</ele>
        <time>2022-07-28T12:05:39Z</time>
      </trkpt>
      <trkpt lat="45.68551" lon="6.46846">
        <ele>1885</ele>
        <time>2022-07-28T12:05:40Z</time>
      </trkpt>
      <trkpt lat="45.68551" lon="6.46845">
        <ele>1885</ele>
        <time>2022-07-28T12:05:41Z</time>
      </trkpt>
      <trkpt lat="45.68551" lon="6.46844">
        <ele>1884</ele>
        <time>2022-07-28T12:05:42Z</time>
      </trkpt>
      <trkpt lat="45.68552" lon="6.46843">
        <ele>1884</ele>
        <time>2022-07-28T12:05:43Z</time>
      </trkpt>
      <trkpt lat="45.68552" lon="6.46842">
        <ele>1884</ele>
        <time>2022-07-28T12:05:44Z</time>
      </trkpt>
      <trkpt lat="45.68552" lon="6.46841">
        <ele>1884</ele>
        <time>2022-07-28T12:05:45Z</time>
      </trkpt>
      <trkpt lat="45.68552" lon="6.46841">
        <ele>1884</ele>
        <time>2022-07-28T12:05:46Z</time>
      </trkpt>
      <trkpt lat="45.68552" lon="6.4684">
        <ele>1883</ele>
        <time>2022-07-28T12:05:47Z</time>
      </trkpt>
      <trkpt lat="45.68552" lon="6.46839">
        <ele>1883</ele>
        <time>2022-07-28T12:05:48Z</time>
      </trkpt>
      <trkpt lat="45.68551" lon="6.46838">
        <ele>1883</ele>
        <time>2022-07-28T12:05:49Z</time>
      </trkpt>
      <trkpt lat="45.68551" lon="6.46838">
        <ele>1883</ele>
        <time>2022-07-28T12:05:50Z</time>
      </trkpt>
      <trkpt lat="45.68551" lon="6.46837">
        <ele>1883</ele>
        <time>2022-07-28T12:05:51Z</time>
      </trkpt>
      <trkpt lat="45.68551" lon="6.46836">
        <ele>1882</ele>
        <time>2022-07-28T12:05:52Z</time>
      </trkpt>
      <trkpt lat="45.68551" lon="6.46835">
        <ele>1882</ele>
        <time>2022-07-28T12:05:53Z</time>
      </trkpt>
      <trkpt lat="45.68551" lon="6.46834">
        <ele>1882</ele>
        <time>2022-07-28T12:05:54Z</time>
      </trkpt>
      <trkpt lat="45.68551" lon="6.46833">
        <ele>1882</ele>
        <time>2022-07-28T12:05:55Z</time>
      </trkpt>
      <trkpt lat="45.68551" lon="6.46832">
        <ele>1882</ele>
        <time>2022-07-28T12:05:56Z</time>
      </trkpt>
      <trkpt lat="45.68551" lon="6.46831">
        <ele>1881</ele>
        <time>2022-07-28T12:05:57Z</time>
      </trkpt>
      <trkpt lat="45.68551" lon="6.4683">
        <ele>1881</ele>
        <time>2022-07-28T12:05:58Z</time>
      </trkpt>
      <trkpt lat="45.68551" lon="6.46829">
        <ele>1881</ele>
        <time>2022-07-28T12:05:59Z</time>
      </trkpt>
      <trkpt lat="45.68551" lon="6.46828">
        <ele>1881</ele>
        <time>2022-07-28T12:06:00Z</time>
      </trkpt>
      <trkpt lat="45.68552" lon="6.46827">
        <ele>1881</ele>
        <time>2022-07-28T12:06:01Z</time>
      </trkpt>
      <trkpt lat="45.68552" lon="6.46825">
        <ele>1880</ele>
        <time>2022-07-28T12:06:02Z</time>
      </trkpt>
      <trkpt lat="45.68552" lon="6.46824">
        <ele>1880</ele>
        <time>2022-07-28T12:06:03Z</time>
      </trkpt>
      <trkpt lat="45.68552" lon="6.46823">
        <ele>1880</ele>
        <time>2022-07-28T12:06:04Z</time>
      </trkpt>
      <trkpt lat="45.68552" lon="6.46822">
        <ele>1880</ele>
        <time>2022-07-28T12:06:05Z</time>
      </trkpt>
      <trkpt lat="45.68552" lon="6.46821">
        <ele>1880</ele>
        <time>2022-07-28T12:06:06Z</time>
      </trkpt>
      <trkpt lat="45.68552" lon="6.46821">
        <ele>1880</ele>
        <time>2022-07-28T12:06:07Z</time>
      </trkpt>
      <trkpt lat="45.68552" lon="6.46821">
        <ele>1880</ele>
        <time>2022-07-28T12:06:08Z</time>
      </trkpt>
      <trkpt lat="45.68552" lon="6.46821">
        <ele>1880</ele>
        <time>2022-07-28T12:06:09Z</time>
      </trkpt>
      <trkpt lat="45.68552" lon="6.4682">
        <ele>1880</ele>
        <time>2022-07-28T12:06:10Z</time>
      </trkpt>
      <trkpt lat="45.68551" lon="6.4682">
        <ele>1880</ele>
        <time>2022-07-28T12:06:11Z</time>
      </trkpt>
      <trkpt lat="45.68551" lon="6.46819">
        <ele>1879</ele>
        <time>2022-07-28T12:06:12Z</time>
      </trkpt>
      <trkpt lat="45.68551" lon="6.46818">
        <ele>1879</ele>
        <time>2022-07-28T12:06:13Z</time>
      </trkpt>
      <trkpt lat="45.6855" lon="6.46817">
        <ele>1879</ele>
        <time>2022-07-28T12:06:14Z</time>
      </trkpt>
      <trkpt lat="45.6855" lon="6.46816">
        <ele>1879</ele>
        <time>2022-07-28T12:06:15Z</time>
      </trkpt>
      <trkpt lat="45.6855" lon="6.46813">
        <ele>1875</ele>
        <time>2022-07-28T12:06:51Z</time>
      </trkpt>
      <trkpt lat="45.6855" lon="6.46811">
        <ele>1874</ele>
        <time>2022-07-28T12:06:52Z</time>
      </trkpt>
      <trkpt lat="45.6855" lon="6.46809">
        <ele>1874</ele>
        <time>2022-07-28T12:06:53Z</time>
      </trkpt>
      <trkpt lat="45.6855" lon="6.46809">
        <ele>1874</ele>
        <time>2022-07-28T12:06:54Z</time>
      </trkpt>
      <trkpt lat="45.6855" lon="6.46809">
        <ele>1874</ele>
        <time>2022-07-28T12:06:55Z</time>
      </trkpt>
      <trkpt lat="45.6855" lon="6.46808">
        <ele>1874</ele>
        <time>2022-07-28T12:06:56Z</time>
      </trkpt>
      <trkpt lat="45.68551" lon="6.46808">
        <ele>1873</ele>
        <time>2022-07-28T12:06:57Z</time>
      </trkpt>
      <trkpt lat="45.68551" lon="6.46808">
        <ele>1873</ele>
        <time>2022-07-28T12:06:58Z</time>
      </trkpt>
      <trkpt lat="45.68551" lon="6.46807">
        <ele>1873</ele>
        <time>2022-07-28T12:06:59Z</time>
      </trkpt>
      <trkpt lat="45.68551" lon="6.46807">
        <ele>1873</ele>
        <time>2022-07-28T12:07:00Z</time>
      </trkpt>
      <trkpt lat="45.68552" lon="6.46807">
        <ele>1873</ele>
        <time>2022-07-28T12:07:01Z</time>
      </trkpt>
      <trkpt lat="45.68552" lon="6.46806">
        <ele>1873</ele>
        <time>2022-07-28T12:07:02Z</time>
      </trkpt>
      <trkpt lat="45.68553" lon="6.46806">
        <ele>1873</ele>
        <time>2022-07-28T12:07:03Z</time>
      </trkpt>
      <trkpt lat="45.68553" lon="6.46806">
        <ele>1873</ele>
        <time>2022-07-28T12:07:04Z</time>
      </trkpt>
      <trkpt lat="45.68554" lon="6.46806">
        <ele>1873</ele>
        <time>2022-07-28T12:07:05Z</time>
      </trkpt>
      <trkpt lat="45.68554" lon="6.46806">
        <ele>1873</ele>
        <time>2022-07-28T12:07:06Z</time>
      </trkpt>
      <trkpt lat="45.68555" lon="6.46806">
        <ele>1872</ele>
        <time>2022-07-28T12:07:07Z</time>
      </trkpt>
      <trkpt lat="45.68555" lon="6.46805">
        <ele>1872</ele>
        <time>2022-07-28T12:07:08Z</time>
      </trkpt>
      <trkpt lat="45.68556" lon="6.46805">
        <ele>1872</ele>
        <time>2022-07-28T12:07:09Z</time>
      </trkpt>
      <trkpt lat="45.68556" lon="6.46805">
        <ele>1872</ele>
        <time>2022-07-28T12:07:10Z</time>
      </trkpt>
      <trkpt lat="45.68557" lon="6.46805">
        <ele>1872</ele>
        <time>2022-07-28T12:07:11Z</time>
      </trkpt>
      <trkpt lat="45.68557" lon="6.46805">
        <ele>1871</ele>
        <time>2022-07-28T12:07:12Z</time>
      </trkpt>
      <trkpt lat="45.68558" lon="6.46805">
        <ele>1871</ele>
        <time>2022-07-28T12:07:13Z</time>
      </trkpt>
      <trkpt lat="45.68558" lon="6.46805">
        <ele>1871</ele>
        <time>2022-07-28T12:07:14Z</time>
      </trkpt>
      <trkpt lat="45.68559" lon="6.46804">
        <ele>1869</ele>
        <time>2022-07-28T12:07:23Z</time>
      </trkpt>
      <trkpt lat="45.6856" lon="6.46804">
        <ele>1869</ele>
        <time>2022-07-28T12:07:24Z</time>
      </trkpt>
      <trkpt lat="45.6856" lon="6.46804">
        <ele>1869</ele>
        <time>2022-07-28T12:07:25Z</time>
      </trkpt>
      <trkpt lat="45.68561" lon="6.46804">
        <ele>1869</ele>
        <time>2022-07-28T12:07:26Z</time>
      </trkpt>
      <trkpt lat="45.68561" lon="6.46803">
        <ele>1868</ele>
        <time>2022-07-28T12:07:27Z</time>
      </trkpt>
      <trkpt lat="45.68562" lon="6.46803">
        <ele>1867</ele>
        <time>2022-07-28T12:07:47Z</time>
      </trkpt>
      <trkpt lat="45.68563" lon="6.46803">
        <ele>1867</ele>
        <time>2022-07-28T12:07:48Z</time>
      </trkpt>
      <trkpt lat="45.68563" lon="6.46803">
        <ele>1867</ele>
        <time>2022-07-28T12:07:49Z</time>
      </trkpt>
      <trkpt lat="45.68564" lon="6.46802">
        <ele>1867</ele>
        <time>2022-07-28T12:07:50Z</time>
      </trkpt>
      <trkpt lat="45.68564" lon="6.46802">
        <ele>1867</ele>
        <time>2022-07-28T12:07:51Z</time>
      </trkpt>
      <trkpt lat="45.68565" lon="6.46801">
        <ele>1867</ele>
        <time>2022-07-28T12:07:52Z</time>
      </trkpt>
      <trkpt lat="45.68565" lon="6.46801">
        <ele>1867</ele>
        <time>2022-07-28T12:07:53Z</time>
      </trkpt>
      <trkpt lat="45.68566" lon="6.46801">
        <ele>1867</ele>
        <time>2022-07-28T12:07:54Z</time>
      </trkpt>
      <trkpt lat="45.68567" lon="6.468">
        <ele>1867</ele>
        <time>2022-07-28T12:07:55Z</time>
      </trkpt>
      <trkpt lat="45.68568" lon="6.468">
        <ele>1867</ele>
        <time>2022-07-28T12:07:56Z</time>
      </trkpt>
      <trkpt lat="45.68568" lon="6.468">
        <ele>1866</ele>
        <time>2022-07-28T12:07:57Z</time>
      </trkpt>
      <trkpt lat="45.68569" lon="6.468">
        <ele>1866</ele>
        <time>2022-07-28T12:07:58Z</time>
      </trkpt>
      <trkpt lat="45.6857" lon="6.468">
        <ele>1866</ele>
        <time>2022-07-28T12:07:59Z</time>
      </trkpt>
      <trkpt lat="45.6857" lon="6.46799">
        <ele>1866</ele>
        <time>2022-07-28T12:08:00Z</time>
      </trkpt>
      <trkpt lat="45.68571" lon="6.46799">
        <ele>1866</ele>
        <time>2022-07-28T12:08:01Z</time>
      </trkpt>
      <trkpt lat="45.68572" lon="6.46799">
        <ele>1865</ele>
        <time>2022-07-28T12:08:02Z</time>
      </trkpt>
      <trkpt lat="45.68572" lon="6.46798">
        <ele>1865</ele>
        <time>2022-07-28T12:08:03Z</time>
      </trkpt>
      <trkpt lat="45.68573" lon="6.46798">
        <ele>1865</ele>
        <time>2022-07-28T12:08:04Z</time>
      </trkpt>
      <trkpt lat="45.68573" lon="6.46797">
        <ele>1865</ele>
        <time>2022-07-28T12:08:05Z</time>
      </trkpt>
      <trkpt lat="45.68574" lon="6.46796">
        <ele>1865</ele>
        <time>2022-07-28T12:08:06Z</time>
      </trkpt>
      <trkpt lat="45.68574" lon="6.46796">
        <ele>1864</ele>
        <time>2022-07-28T12:08:07Z</time>
      </trkpt>
      <trkpt lat="45.68575" lon="6.46795">
        <ele>1864</ele>
        <time>2022-07-28T12:08:08Z</time>
      </trkpt>
      <trkpt lat="45.68576" lon="6.46794">
        <ele>1864</ele>
        <time>2022-07-28T12:08:09Z</time>
      </trkpt>
      <trkpt lat="45.68576" lon="6.46793">
        <ele>1864</ele>
        <time>2022-07-28T12:08:10Z</time>
      </trkpt>
      <trkpt lat="45.68577" lon="6.46793">
        <ele>1864</ele>
        <time>2022-07-28T12:08:11Z</time>
      </trkpt>
      <trkpt lat="45.68578" lon="6.46792">
        <ele>1863</ele>
        <time>2022-07-28T12:08:12Z</time>
      </trkpt>
      <trkpt lat="45.68579" lon="6.46791">
        <ele>1863</ele>
        <time>2022-07-28T12:08:13Z</time>
      </trkpt>
      <trkpt lat="45.6858" lon="6.46791">
        <ele>1862</ele>
        <time>2022-07-28T12:08:14Z</time>
      </trkpt>
      <trkpt lat="45.68581" lon="6.4679">
        <ele>1862</ele>
        <time>2022-07-28T12:08:15Z</time>
      </trkpt>
      <trkpt lat="45.68582" lon="6.4679">
        <ele>1862</ele>
        <time>2022-07-28T12:08:16Z</time>
      </trkpt>
      <trkpt lat="45.68583" lon="6.46789">
        <ele>1861</ele>
        <time>2022-07-28T12:08:17Z</time>
      </trkpt>
      <trkpt lat="45.68584" lon="6.46789">
        <ele>1861</ele>
        <time>2022-07-28T12:08:18Z</time>
      </trkpt>
      <trkpt lat="45.68585" lon="6.46789">
        <ele>1861</ele>
        <time>2022-07-28T12:08:19Z</time>
      </trkpt>
      <trkpt lat="45.68586" lon="6.46788">
        <ele>1861</ele>
        <time>2022-07-28T12:08:20Z</time>
      </trkpt>
      <trkpt lat="45.68587" lon="6.46788">
        <ele>1861</ele>
        <time>2022-07-28T12:08:21Z</time>
      </trkpt>
      <trkpt lat="45.68588" lon="6.46788">
        <ele>1860</ele>
        <time>2022-07-28T12:08:22Z</time>
      </trkpt>
      <trkpt lat="45.6859" lon="6.46788">
        <ele>1860</ele>
        <time>2022-07-28T12:08:23Z</time>
      </trkpt>
      <trkpt lat="45.68591" lon="6.46788">
        <ele>1859</ele>
        <time>2022-07-28T12:08:24Z</time>
      </trkpt>
      <trkpt lat="45.68592" lon="6.46787">
        <ele>1859</ele>
        <time>2022-07-28T12:08:25Z</time>
      </trkpt>
      <trkpt lat="45.68593" lon="6.46787">
        <ele>1859</ele>
        <time>2022-07-28T12:08:26Z</time>
      </trkpt>
      <trkpt lat="45.68594" lon="6.46787">
        <ele>1858</ele>
        <time>2022-07-28T12:08:27Z</time>
      </trkpt>
      <trkpt lat="45.68594" lon="6.46786">
        <ele>1858</ele>
        <time>2022-07-28T12:08:28Z</time>
      </trkpt>
      <trkpt lat="45.68594" lon="6.46786">
        <ele>1858</ele>
        <time>2022-07-28T12:08:29Z</time>
      </trkpt>
      <trkpt lat="45.68595" lon="6.46786">
        <ele>1858</ele>
        <time>2022-07-28T12:08:30Z</time>
      </trkpt>
      <trkpt lat="45.68595" lon="6.46786">
        <ele>1858</ele>
        <time>2022-07-28T12:08:31Z</time>
      </trkpt>
      <trkpt lat="45.68595" lon="6.46785">
        <ele>1858</ele>
        <time>2022-07-28T12:08:32Z</time>
      </trkpt>
      <trkpt lat="45.68595" lon="6.46784">
        <ele>1858</ele>
        <time>2022-07-28T12:08:33Z</time>
      </trkpt>
      <trkpt lat="45.68595" lon="6.46783">
        <ele>1858</ele>
        <time>2022-07-28T12:08:34Z</time>
      </trkpt>
      <trkpt lat="45.68595" lon="6.46783">
        <ele>1858</ele>
        <time>2022-07-28T12:08:35Z</time>
      </trkpt>
      <trkpt lat="45.68594" lon="6.46781">
        <ele>1856</ele>
        <time>2022-07-28T12:09:41Z</time>
      </trkpt>
      <trkpt lat="45.68593" lon="6.46779">
        <ele>1856</ele>
        <time>2022-07-28T12:09:42Z</time>
      </trkpt>
      <trkpt lat="45.68593" lon="6.46778">
        <ele>1856</ele>
        <time>2022-07-28T12:09:43Z</time>
      </trkpt>
      <trkpt lat="45.68592" lon="6.46776">
        <ele>1857</ele>
        <time>2022-07-28T12:10:16Z</time>
      </trkpt>
      <trkpt lat="45.68591" lon="6.46776">
        <ele>1857</ele>
        <time>2022-07-28T12:10:17Z</time>
      </trkpt>
      <trkpt lat="45.68591" lon="6.46775">
        <ele>1857</ele>
        <time>2022-07-28T12:10:18Z</time>
      </trkpt>
      <trkpt lat="45.6859" lon="6.46775">
        <ele>1857</ele>
        <time>2022-07-28T12:10:19Z</time>
      </trkpt>
      <trkpt lat="45.68589" lon="6.46774">
        <ele>1857</ele>
        <time>2022-07-28T12:10:20Z</time>
      </trkpt>
      <trkpt lat="45.68589" lon="6.46773">
        <ele>1857</ele>
        <time>2022-07-28T12:10:21Z</time>
      </trkpt>
      <trkpt lat="45.68588" lon="6.46772">
        <ele>1856</ele>
        <time>2022-07-28T12:10:22Z</time>
      </trkpt>
      <trkpt lat="45.68588" lon="6.46772">
        <ele>1856</ele>
        <time>2022-07-28T12:10:23Z</time>
      </trkpt>
      <trkpt lat="45.68587" lon="6.46771">
        <ele>1856</ele>
        <time>2022-07-28T12:10:24Z</time>
      </trkpt>
      <trkpt lat="45.68587" lon="6.4677">
        <ele>1856</ele>
        <time>2022-07-28T12:10:25Z</time>
      </trkpt>
      <trkpt lat="45.68586" lon="6.4677">
        <ele>1856</ele>
        <time>2022-07-28T12:10:26Z</time>
      </trkpt>
      <trkpt lat="45.68585" lon="6.46769">
        <ele>1855</ele>
        <time>2022-07-28T12:10:27Z</time>
      </trkpt>
      <trkpt lat="45.68584" lon="6.46769">
        <ele>1855</ele>
        <time>2022-07-28T12:10:28Z</time>
      </trkpt>
      <trkpt lat="45.68584" lon="6.46768">
        <ele>1855</ele>
        <time>2022-07-28T12:10:29Z</time>
      </trkpt>
      <trkpt lat="45.68583" lon="6.46768">
        <ele>1855</ele>
        <time>2022-07-28T12:10:30Z</time>
      </trkpt>
      <trkpt lat="45.68582" lon="6.46768">
        <ele>1855</ele>
        <time>2022-07-28T12:10:31Z</time>
      </trkpt>
      <trkpt lat="45.68581" lon="6.46767">
        <ele>1854</ele>
        <time>2022-07-28T12:10:32Z</time>
      </trkpt>
      <trkpt lat="45.68581" lon="6.46767">
        <ele>1854</ele>
        <time>2022-07-28T12:10:33Z</time>
      </trkpt>
      <trkpt lat="45.6858" lon="6.46767">
        <ele>1854</ele>
        <time>2022-07-28T12:10:34Z</time>
      </trkpt>
      <trkpt lat="45.68579" lon="6.46767">
        <ele>1854</ele>
        <time>2022-07-28T12:10:35Z</time>
      </trkpt>
      <trkpt lat="45.68579" lon="6.46766">
        <ele>1854</ele>
        <time>2022-07-28T12:10:36Z</time>
      </trkpt>
      <trkpt lat="45.68577" lon="6.46765">
        <ele>1852</ele>
        <time>2022-07-28T12:10:45Z</time>
      </trkpt>
      <trkpt lat="45.68576" lon="6.46764">
        <ele>1852</ele>
        <time>2022-07-28T12:10:46Z</time>
      </trkpt>
      <trkpt lat="45.68576" lon="6.46764">
        <ele>1851</ele>
        <time>2022-07-28T12:10:47Z</time>
      </trkpt>
      <trkpt lat="45.68575" lon="6.46763">
        <ele>1851</ele>
        <time>2022-07-28T12:10:48Z</time>
      </trkpt>
      <trkpt lat="45.68575" lon="6.46762">
        <ele>1851</ele>
        <time>2022-07-28T12:10:49Z</time>
      </trkpt>
      <trkpt lat="45.68575" lon="6.46761">
        <ele>1851</ele>
        <time>2022-07-28T12:10:50Z</time>
      </trkpt>
      <trkpt lat="45.68574" lon="6.46761">
        <ele>1851</ele>
        <time>2022-07-28T12:10:51Z</time>
      </trkpt>
      <trkpt lat="45.68574" lon="6.4676">
        <ele>1850</ele>
        <time>2022-07-28T12:10:52Z</time>
      </trkpt>
      <trkpt lat="45.68574" lon="6.4676">
        <ele>1850</ele>
        <time>2022-07-28T12:10:53Z</time>
      </trkpt>
      <trkpt lat="45.68573" lon="6.46759">
        <ele>1850</ele>
        <time>2022-07-28T12:10:54Z</time>
      </trkpt>
      <trkpt lat="45.68573" lon="6.46759">
        <ele>1850</ele>
        <time>2022-07-28T12:10:55Z</time>
      </trkpt>
      <trkpt lat="45.68572" lon="6.46759">
        <ele>1850</ele>
        <time>2022-07-28T12:10:56Z</time>
      </trkpt>
      <trkpt lat="45.68572" lon="6.46758">
        <ele>1849</ele>
        <time>2022-07-28T12:10:57Z</time>
      </trkpt>
      <trkpt lat="45.68571" lon="6.46757">
        <ele>1849</ele>
        <time>2022-07-28T12:10:58Z</time>
      </trkpt>
      <trkpt lat="45.68571" lon="6.46756">
        <ele>1849</ele>
        <time>2022-07-28T12:10:59Z</time>
      </trkpt>
      <trkpt lat="45.68571" lon="6.46755">
        <ele>1849</ele>
        <time>2022-07-28T12:11:00Z</time>
      </trkpt>
      <trkpt lat="45.68571" lon="6.46755">
        <ele>1849</ele>
        <time>2022-07-28T12:11:01Z</time>
      </trkpt>
      <trkpt lat="45.6857" lon="6.46752">
        <ele>1848</ele>
        <time>2022-07-28T12:11:10Z</time>
      </trkpt>
      <trkpt lat="45.68569" lon="6.46751">
        <ele>1848</ele>
        <time>2022-07-28T12:11:11Z</time>
      </trkpt>
      <trkpt lat="45.68569" lon="6.4675">
        <ele>1847</ele>
        <time>2022-07-28T12:11:12Z</time>
      </trkpt>
      <trkpt lat="45.68568" lon="6.4675">
        <ele>1847</ele>
        <time>2022-07-28T12:11:13Z</time>
      </trkpt>
      <trkpt lat="45.68568" lon="6.46749">
        <ele>1847</ele>
        <time>2022-07-28T12:11:14Z</time>
      </trkpt>
      <trkpt lat="45.68567" lon="6.46748">
        <ele>1847</ele>
        <time>2022-07-28T12:11:15Z</time>
      </trkpt>
      <trkpt lat="45.68567" lon="6.46748">
        <ele>1847</ele>
        <time>2022-07-28T12:11:16Z</time>
      </trkpt>
      <trkpt lat="45.68566" lon="6.46747">
        <ele>1846</ele>
        <time>2022-07-28T12:11:17Z</time>
      </trkpt>
      <trkpt lat="45.68566" lon="6.46747">
        <ele>1846</ele>
        <time>2022-07-28T12:11:18Z</time>
      </trkpt>
      <trkpt lat="45.68565" lon="6.46745">
        <ele>1845</ele>
        <time>2022-07-28T12:11:28Z</time>
      </trkpt>
      <trkpt lat="45.68565" lon="6.46743">
        <ele>1845</ele>
        <time>2022-07-28T12:11:29Z</time>
      </trkpt>
      <trkpt lat="45.68565" lon="6.46742">
        <ele>1845</ele>
        <time>2022-07-28T12:11:30Z</time>
      </trkpt>
      <trkpt lat="45.68565" lon="6.46741">
        <ele>1845</ele>
        <time>2022-07-28T12:11:31Z</time>
      </trkpt>
      <trkpt lat="45.68565" lon="6.4674">
        <ele>1844</ele>
        <time>2022-07-28T12:11:32Z</time>
      </trkpt>
      <trkpt lat="45.68565" lon="6.46739">
        <ele>1844</ele>
        <time>2022-07-28T12:11:33Z</time>
      </trkpt>
      <trkpt lat="45.68566" lon="6.46738">
        <ele>1844</ele>
        <time>2022-07-28T12:11:34Z</time>
      </trkpt>
      <trkpt lat="45.68566" lon="6.46737">
        <ele>1844</ele>
        <time>2022-07-28T12:11:35Z</time>
      </trkpt>
      <trkpt lat="45.68566" lon="6.46736">
        <ele>1844</ele>
        <time>2022-07-28T12:11:36Z</time>
      </trkpt>
      <trkpt lat="45.68565" lon="6.46735">
        <ele>1843</ele>
        <time>2022-07-28T12:11:37Z</time>
      </trkpt>
      <trkpt lat="45.68565" lon="6.46734">
        <ele>1843</ele>
        <time>2022-07-28T12:11:38Z</time>
      </trkpt>
      <trkpt lat="45.68565" lon="6.46733">
        <ele>1842</ele>
        <time>2022-07-28T12:11:39Z</time>
      </trkpt>
      <trkpt lat="45.68565" lon="6.46732">
        <ele>1842</ele>
        <time>2022-07-28T12:11:40Z</time>
      </trkpt>
      <trkpt lat="45.68564" lon="6.46732">
        <ele>1842</ele>
        <time>2022-07-28T12:11:41Z</time>
      </trkpt>
      <trkpt lat="45.68564" lon="6.46731">
        <ele>1841</ele>
        <time>2022-07-28T12:11:42Z</time>
      </trkpt>
      <trkpt lat="45.68564" lon="6.4673">
        <ele>1841</ele>
        <time>2022-07-28T12:11:43Z</time>
      </trkpt>
      <trkpt lat="45.68564" lon="6.4673">
        <ele>1841</ele>
        <time>2022-07-28T12:11:44Z</time>
      </trkpt>
      <trkpt lat="45.68564" lon="6.46729">
        <ele>1841</ele>
        <time>2022-07-28T12:11:45Z</time>
      </trkpt>
      <trkpt lat="45.68564" lon="6.46728">
        <ele>1841</ele>
        <time>2022-07-28T12:11:46Z</time>
      </trkpt>
      <trkpt lat="45.68564" lon="6.46728">
        <ele>1840</ele>
        <time>2022-07-28T12:11:47Z</time>
      </trkpt>
      <trkpt lat="45.68564" lon="6.46727">
        <ele>1840</ele>
        <time>2022-07-28T12:11:48Z</time>
      </trkpt>
      <trkpt lat="45.68564" lon="6.46727">
        <ele>1840</ele>
        <time>2022-07-28T12:11:49Z</time>
      </trkpt>
      <trkpt lat="45.68564" lon="6.46726">
        <ele>1840</ele>
        <time>2022-07-28T12:11:50Z</time>
      </trkpt>
      <trkpt lat="45.68564" lon="6.46725">
        <ele>1840</ele>
        <time>2022-07-28T12:11:51Z</time>
      </trkpt>
      <trkpt lat="45.68564" lon="6.46725">
        <ele>1840</ele>
        <time>2022-07-28T12:11:52Z</time>
      </trkpt>
      <trkpt lat="45.68564" lon="6.46724">
        <ele>1840</ele>
        <time>2022-07-28T12:11:53Z</time>
      </trkpt>
      <trkpt lat="45.68564" lon="6.46723">
        <ele>1840</ele>
        <time>2022-07-28T12:11:54Z</time>
      </trkpt>
      <trkpt lat="45.68565" lon="6.46721">
        <ele>1838</ele>
        <time>2022-07-28T12:12:04Z</time>
      </trkpt>
      <trkpt lat="45.68565" lon="6.46719">
        <ele>1838</ele>
        <time>2022-07-28T12:12:05Z</time>
      </trkpt>
      <trkpt lat="45.68565" lon="6.46718">
        <ele>1838</ele>
        <time>2022-07-28T12:12:06Z</time>
      </trkpt>
      <trkpt lat="45.68565" lon="6.46717">
        <ele>1837</ele>
        <time>2022-07-28T12:12:07Z</time>
      </trkpt>
      <trkpt lat="45.68565" lon="6.46716">
        <ele>1837</ele>
        <time>2022-07-28T12:12:08Z</time>
      </trkpt>
      <trkpt lat="45.68565" lon="6.46715">
        <ele>1837</ele>
        <time>2022-07-28T12:12:09Z</time>
      </trkpt>
      <trkpt lat="45.68566" lon="6.46715">
        <ele>1837</ele>
        <time>2022-07-28T12:12:10Z</time>
      </trkpt>
      <trkpt lat="45.68566" lon="6.46715">
        <ele>1837</ele>
        <time>2022-07-28T12:12:11Z</time>
      </trkpt>
      <trkpt lat="45.68566" lon="6.46714">
        <ele>1836</ele>
        <time>2022-07-28T12:12:12Z</time>
      </trkpt>
      <trkpt lat="45.68566" lon="6.46713">
        <ele>1836</ele>
        <time>2022-07-28T12:12:13Z</time>
      </trkpt>
      <trkpt lat="45.68566" lon="6.46712">
        <ele>1836</ele>
        <time>2022-07-28T12:12:14Z</time>
      </trkpt>
      <trkpt lat="45.68566" lon="6.46711">
        <ele>1836</ele>
        <time>2022-07-28T12:12:15Z</time>
      </trkpt>
      <trkpt lat="45.68566" lon="6.4671">
        <ele>1836</ele>
        <time>2022-07-28T12:12:16Z</time>
      </trkpt>
      <trkpt lat="45.68566" lon="6.4671">
        <ele>1835</ele>
        <time>2022-07-28T12:12:17Z</time>
      </trkpt>
      <trkpt lat="45.68567" lon="6.46709">
        <ele>1835</ele>
        <time>2022-07-28T12:12:18Z</time>
      </trkpt>
      <trkpt lat="45.68567" lon="6.46708">
        <ele>1835</ele>
        <time>2022-07-28T12:12:19Z</time>
      </trkpt>
      <trkpt lat="45.68567" lon="6.46708">
        <ele>1835</ele>
        <time>2022-07-28T12:12:20Z</time>
      </trkpt>
      <trkpt lat="45.68568" lon="6.46707">
        <ele>1835</ele>
        <time>2022-07-28T12:12:21Z</time>
      </trkpt>
      <trkpt lat="45.68568" lon="6.46707">
        <ele>1834</ele>
        <time>2022-07-28T12:12:22Z</time>
      </trkpt>
      <trkpt lat="45.68568" lon="6.46706">
        <ele>1834</ele>
        <time>2022-07-28T12:12:23Z</time>
      </trkpt>
      <trkpt lat="45.68568" lon="6.46705">
        <ele>1834</ele>
        <time>2022-07-28T12:12:24Z</time>
      </trkpt>
      <trkpt lat="45.68568" lon="6.46704">
        <ele>1834</ele>
        <time>2022-07-28T12:12:25Z</time>
      </trkpt>
      <trkpt lat="45.68568" lon="6.46704">
        <ele>1834</ele>
        <time>2022-07-28T12:12:26Z</time>
      </trkpt>
      <trkpt lat="45.68568" lon="6.46703">
        <ele>1834</ele>
        <time>2022-07-28T12:12:27Z</time>
      </trkpt>
      <trkpt lat="45.68567" lon="6.46701">
        <ele>1834</ele>
        <time>2022-07-28T12:12:28Z</time>
      </trkpt>
      <trkpt lat="45.68567" lon="6.467">
        <ele>1834</ele>
        <time>2022-07-28T12:12:29Z</time>
      </trkpt>
      <trkpt lat="45.68568" lon="6.467">
        <ele>1834</ele>
        <time>2022-07-28T12:12:30Z</time>
      </trkpt>
      <trkpt lat="45.68568" lon="6.46699">
        <ele>1834</ele>
        <time>2022-07-28T12:12:31Z</time>
      </trkpt>
      <trkpt lat="45.68568" lon="6.46698">
        <ele>1833</ele>
        <time>2022-07-28T12:12:32Z</time>
      </trkpt>
      <trkpt lat="45.68568" lon="6.46697">
        <ele>1833</ele>
        <time>2022-07-28T12:12:33Z</time>
      </trkpt>
      <trkpt lat="45.68568" lon="6.46696">
        <ele>1832</ele>
        <time>2022-07-28T12:12:34Z</time>
      </trkpt>
      <trkpt lat="45.68568" lon="6.46695">
        <ele>1832</ele>
        <time>2022-07-28T12:12:35Z</time>
      </trkpt>
      <trkpt lat="45.68569" lon="6.46695">
        <ele>1832</ele>
        <time>2022-07-28T12:12:36Z</time>
      </trkpt>
      <trkpt lat="45.68569" lon="6.46694">
        <ele>1831</ele>
        <time>2022-07-28T12:12:37Z</time>
      </trkpt>
      <trkpt lat="45.68569" lon="6.46693">
        <ele>1831</ele>
        <time>2022-07-28T12:12:38Z</time>
      </trkpt>
      <trkpt lat="45.6857" lon="6.46692">
        <ele>1831</ele>
        <time>2022-07-28T12:12:39Z</time>
      </trkpt>
      <trkpt lat="45.6857" lon="6.46691">
        <ele>1831</ele>
        <time>2022-07-28T12:12:40Z</time>
      </trkpt>
      <trkpt lat="45.6857" lon="6.4669">
        <ele>1831</ele>
        <time>2022-07-28T12:12:41Z</time>
      </trkpt>
      <trkpt lat="45.6857" lon="6.46688">
        <ele>1830</ele>
        <time>2022-07-28T12:12:42Z</time>
      </trkpt>
      <trkpt lat="45.6857" lon="6.46687">
        <ele>1830</ele>
        <time>2022-07-28T12:12:43Z</time>
      </trkpt>
      <trkpt lat="45.68571" lon="6.46685">
        <ele>1830</ele>
        <time>2022-07-28T12:12:44Z</time>
      </trkpt>
      <trkpt lat="45.68571" lon="6.46683">
        <ele>1830</ele>
        <time>2022-07-28T12:12:45Z</time>
      </trkpt>
      <trkpt lat="45.6857" lon="6.46682">
        <ele>1830</ele>
        <time>2022-07-28T12:12:46Z</time>
      </trkpt>
      <trkpt lat="45.6857" lon="6.46679">
        <ele>1829</ele>
        <time>2022-07-28T12:12:47Z</time>
      </trkpt>
      <trkpt lat="45.6857" lon="6.46677">
        <ele>1829</ele>
        <time>2022-07-28T12:12:48Z</time>
      </trkpt>
      <trkpt lat="45.6857" lon="6.46675">
        <ele>1829</ele>
        <time>2022-07-28T12:12:49Z</time>
      </trkpt>
      <trkpt lat="45.6857" lon="6.46672">
        <ele>1829</ele>
        <time>2022-07-28T12:12:50Z</time>
      </trkpt>
      <trkpt lat="45.68569" lon="6.4667">
        <ele>1829</ele>
        <time>2022-07-28T12:12:51Z</time>
      </trkpt>
      <trkpt lat="45.68569" lon="6.46668">
        <ele>1828</ele>
        <time>2022-07-28T12:12:52Z</time>
      </trkpt>
      <trkpt lat="45.68569" lon="6.46666">
        <ele>1828</ele>
        <time>2022-07-28T12:12:53Z</time>
      </trkpt>
      <trkpt lat="45.68569" lon="6.46664">
        <ele>1828</ele>
        <time>2022-07-28T12:12:54Z</time>
      </trkpt>
      <trkpt lat="45.68569" lon="6.46662">
        <ele>1828</ele>
        <time>2022-07-28T12:12:55Z</time>
      </trkpt>
      <trkpt lat="45.68569" lon="6.4666">
        <ele>1828</ele>
        <time>2022-07-28T12:12:56Z</time>
      </trkpt>
      <trkpt lat="45.68569" lon="6.46658">
        <ele>1827</ele>
        <time>2022-07-28T12:12:57Z</time>
      </trkpt>
      <trkpt lat="45.68569" lon="6.46656">
        <ele>1827</ele>
        <time>2022-07-28T12:12:58Z</time>
      </trkpt>
      <trkpt lat="45.68569" lon="6.46654">
        <ele>1827</ele>
        <time>2022-07-28T12:12:59Z</time>
      </trkpt>
      <trkpt lat="45.6857" lon="6.46653">
        <ele>1827</ele>
        <time>2022-07-28T12:13:00Z</time>
      </trkpt>
      <trkpt lat="45.68571" lon="6.46651">
        <ele>1827</ele>
        <time>2022-07-28T12:13:01Z</time>
      </trkpt>
      <trkpt lat="45.68571" lon="6.4665">
        <ele>1827</ele>
        <time>2022-07-28T12:13:02Z</time>
      </trkpt>
      <trkpt lat="45.68572" lon="6.46649">
        <ele>1827</ele>
        <time>2022-07-28T12:13:03Z</time>
      </trkpt>
      <trkpt lat="45.68572" lon="6.46648">
        <ele>1827</ele>
        <time>2022-07-28T12:13:04Z</time>
      </trkpt>
      <trkpt lat="45.68573" lon="6.46646">
        <ele>1827</ele>
        <time>2022-07-28T12:13:33Z</time>
      </trkpt>
      <trkpt lat="45.68573" lon="6.46645">
        <ele>1827</ele>
        <time>2022-07-28T12:13:34Z</time>
      </trkpt>
      <trkpt lat="45.68574" lon="6.46644">
        <ele>1827</ele>
        <time>2022-07-28T12:13:35Z</time>
      </trkpt>
      <trkpt lat="45.68575" lon="6.46643">
        <ele>1827</ele>
        <time>2022-07-28T12:13:36Z</time>
      </trkpt>
      <trkpt lat="45.68575" lon="6.46643">
        <ele>1826</ele>
        <time>2022-07-28T12:13:37Z</time>
      </trkpt>
      <trkpt lat="45.68576" lon="6.46642">
        <ele>1826</ele>
        <time>2022-07-28T12:13:38Z</time>
      </trkpt>
      <trkpt lat="45.68577" lon="6.46641">
        <ele>1826</ele>
        <time>2022-07-28T12:13:39Z</time>
      </trkpt>
      <trkpt lat="45.68579" lon="6.4664">
        <ele>1826</ele>
        <time>2022-07-28T12:13:40Z</time>
      </trkpt>
      <trkpt lat="45.6858" lon="6.46639">
        <ele>1826</ele>
        <time>2022-07-28T12:13:41Z</time>
      </trkpt>
      <trkpt lat="45.68581" lon="6.46638">
        <ele>1826</ele>
        <time>2022-07-28T12:13:42Z</time>
      </trkpt>
      <trkpt lat="45.68582" lon="6.46638">
        <ele>1826</ele>
        <time>2022-07-28T12:13:43Z</time>
      </trkpt>
      <trkpt lat="45.68584" lon="6.46637">
        <ele>1826</ele>
        <time>2022-07-28T12:13:44Z</time>
      </trkpt>
      <trkpt lat="45.68585" lon="6.46637">
        <ele>1826</ele>
        <time>2022-07-28T12:13:45Z</time>
      </trkpt>
      <trkpt lat="45.68586" lon="6.46636">
        <ele>1826</ele>
        <time>2022-07-28T12:13:46Z</time>
      </trkpt>
      <trkpt lat="45.68587" lon="6.46636">
        <ele>1825</ele>
        <time>2022-07-28T12:13:47Z</time>
      </trkpt>
      <trkpt lat="45.68588" lon="6.46636">
        <ele>1825</ele>
        <time>2022-07-28T12:13:48Z</time>
      </trkpt>
      <trkpt lat="45.6859" lon="6.46636">
        <ele>1825</ele>
        <time>2022-07-28T12:13:49Z</time>
      </trkpt>
      <trkpt lat="45.68591" lon="6.46636">
        <ele>1825</ele>
        <time>2022-07-28T12:13:50Z</time>
      </trkpt>
      <trkpt lat="45.68592" lon="6.46637">
        <ele>1825</ele>
        <time>2022-07-28T12:13:51Z</time>
      </trkpt>
      <trkpt lat="45.68593" lon="6.46637">
        <ele>1825</ele>
        <time>2022-07-28T12:13:52Z</time>
      </trkpt>
      <trkpt lat="45.68594" lon="6.46637">
        <ele>1825</ele>
        <time>2022-07-28T12:13:53Z</time>
      </trkpt>
      <trkpt lat="45.68595" lon="6.46637">
        <ele>1825</ele>
        <time>2022-07-28T12:13:54Z</time>
      </trkpt>
      <trkpt lat="45.68596" lon="6.46636">
        <ele>1825</ele>
        <time>2022-07-28T12:13:55Z</time>
      </trkpt>
      <trkpt lat="45.68597" lon="6.46636">
        <ele>1825</ele>
        <time>2022-07-28T12:13:56Z</time>
      </trkpt>
      <trkpt lat="45.68598" lon="6.46635">
        <ele>1824</ele>
        <time>2022-07-28T12:13:57Z</time>
      </trkpt>
      <trkpt lat="45.68599" lon="6.46634">
        <ele>1824</ele>
        <time>2022-07-28T12:13:58Z</time>
      </trkpt>
      <trkpt lat="45.686" lon="6.46634">
        <ele>1824</ele>
        <time>2022-07-28T12:13:59Z</time>
      </trkpt>
      <trkpt lat="45.68601" lon="6.46633">
        <ele>1824</ele>
        <time>2022-07-28T12:14:00Z</time>
      </trkpt>
      <trkpt lat="45.68602" lon="6.46632">
        <ele>1824</ele>
        <time>2022-07-28T12:14:01Z</time>
      </trkpt>
      <trkpt lat="45.68603" lon="6.46632">
        <ele>1824</ele>
        <time>2022-07-28T12:14:02Z</time>
      </trkpt>
      <trkpt lat="45.68604" lon="6.46631">
        <ele>1824</ele>
        <time>2022-07-28T12:14:03Z</time>
      </trkpt>
      <trkpt lat="45.68604" lon="6.4663">
        <ele>1824</ele>
        <time>2022-07-28T12:14:04Z</time>
      </trkpt>
      <trkpt lat="45.68605" lon="6.4663">
        <ele>1824</ele>
        <time>2022-07-28T12:14:05Z</time>
      </trkpt>
      <trkpt lat="45.68606" lon="6.46629">
        <ele>1824</ele>
        <time>2022-07-28T12:14:06Z</time>
      </trkpt>
      <trkpt lat="45.68607" lon="6.46628">
        <ele>1824</ele>
        <time>2022-07-28T12:14:07Z</time>
      </trkpt>
      <trkpt lat="45.68607" lon="6.46627">
        <ele>1824</ele>
        <time>2022-07-28T12:14:08Z</time>
      </trkpt>
      <trkpt lat="45.68607" lon="6.46625">
        <ele>1824</ele>
        <time>2022-07-28T12:14:09Z</time>
      </trkpt>
      <trkpt lat="45.68608" lon="6.46624">
        <ele>1824</ele>
        <time>2022-07-28T12:14:10Z</time>
      </trkpt>
      <trkpt lat="45.68608" lon="6.46623">
        <ele>1824</ele>
        <time>2022-07-28T12:14:11Z</time>
      </trkpt>
      <trkpt lat="45.68608" lon="6.46622">
        <ele>1824</ele>
        <time>2022-07-28T12:14:12Z</time>
      </trkpt>
      <trkpt lat="45.68608" lon="6.46621">
        <ele>1824</ele>
        <time>2022-07-28T12:14:13Z</time>
      </trkpt>
      <trkpt lat="45.68608" lon="6.4662">
        <ele>1824</ele>
        <time>2022-07-28T12:14:14Z</time>
      </trkpt>
      <trkpt lat="45.68607" lon="6.4662">
        <ele>1824</ele>
        <time>2022-07-28T12:14:15Z</time>
      </trkpt>
      <trkpt lat="45.68607" lon="6.46619">
        <ele>1824</ele>
        <time>2022-07-28T12:14:16Z</time>
      </trkpt>
      <trkpt lat="45.68607" lon="6.46618">
        <ele>1824</ele>
        <time>2022-07-28T12:14:17Z</time>
      </trkpt>
      <trkpt lat="45.68606" lon="6.46618">
        <ele>1824</ele>
        <time>2022-07-28T12:14:18Z</time>
      </trkpt>
      <trkpt lat="45.68606" lon="6.46617">
        <ele>1824</ele>
        <time>2022-07-28T12:14:19Z</time>
      </trkpt>
      <trkpt lat="45.68605" lon="6.46616">
        <ele>1824</ele>
        <time>2022-07-28T12:14:20Z</time>
      </trkpt>
      <trkpt lat="45.68604" lon="6.46615">
        <ele>1824</ele>
        <time>2022-07-28T12:14:21Z</time>
      </trkpt>
      <trkpt lat="45.68604" lon="6.46615">
        <ele>1823</ele>
        <time>2022-07-28T12:14:22Z</time>
      </trkpt>
      <trkpt lat="45.68603" lon="6.46614">
        <ele>1823</ele>
        <time>2022-07-28T12:14:23Z</time>
      </trkpt>
      <trkpt lat="45.68603" lon="6.46613">
        <ele>1823</ele>
        <time>2022-07-28T12:14:24Z</time>
      </trkpt>
      <trkpt lat="45.68603" lon="6.46612">
        <ele>1823</ele>
        <time>2022-07-28T12:14:25Z</time>
      </trkpt>
      <trkpt lat="45.68602" lon="6.46612">
        <ele>1823</ele>
        <time>2022-07-28T12:14:26Z</time>
      </trkpt>
      <trkpt lat="45.68602" lon="6.46611">
        <ele>1822</ele>
        <time>2022-07-28T12:14:27Z</time>
      </trkpt>
      <trkpt lat="45.68601" lon="6.46611">
        <ele>1822</ele>
        <time>2022-07-28T12:14:28Z</time>
      </trkpt>
      <trkpt lat="45.686" lon="6.4661">
        <ele>1822</ele>
        <time>2022-07-28T12:14:29Z</time>
      </trkpt>
      <trkpt lat="45.686" lon="6.4661">
        <ele>1822</ele>
        <time>2022-07-28T12:14:30Z</time>
      </trkpt>
      <trkpt lat="45.68599" lon="6.46609">
        <ele>1822</ele>
        <time>2022-07-28T12:14:31Z</time>
      </trkpt>
      <trkpt lat="45.68598" lon="6.46609">
        <ele>1822</ele>
        <time>2022-07-28T12:14:32Z</time>
      </trkpt>
      <trkpt lat="45.68598" lon="6.46609">
        <ele>1822</ele>
        <time>2022-07-28T12:14:33Z</time>
      </trkpt>
      <trkpt lat="45.68595" lon="6.46607">
        <ele>1819</ele>
        <time>2022-07-28T12:14:50Z</time>
      </trkpt>
      <trkpt lat="45.68594" lon="6.46606">
        <ele>1819</ele>
        <time>2022-07-28T12:14:51Z</time>
      </trkpt>
      <trkpt lat="45.68593" lon="6.46604">
        <ele>1819</ele>
        <time>2022-07-28T12:14:52Z</time>
      </trkpt>
      <trkpt lat="45.68593" lon="6.46603">
        <ele>1819</ele>
        <time>2022-07-28T12:14:53Z</time>
      </trkpt>
      <trkpt lat="45.68592" lon="6.46602">
        <ele>1819</ele>
        <time>2022-07-28T12:14:54Z</time>
      </trkpt>
      <trkpt lat="45.68593" lon="6.46601">
        <ele>1818</ele>
        <time>2022-07-28T12:15:00Z</time>
      </trkpt>
      <trkpt lat="45.68593" lon="6.466">
        <ele>1818</ele>
        <time>2022-07-28T12:15:01Z</time>
      </trkpt>
      <trkpt lat="45.68593" lon="6.46599">
        <ele>1817</ele>
        <time>2022-07-28T12:15:02Z</time>
      </trkpt>
      <trkpt lat="45.68593" lon="6.46598">
        <ele>1817</ele>
        <time>2022-07-28T12:15:03Z</time>
      </trkpt>
      <trkpt lat="45.68593" lon="6.46597">
        <ele>1817</ele>
        <time>2022-07-28T12:15:04Z</time>
      </trkpt>
      <trkpt lat="45.68593" lon="6.46597">
        <ele>1817</ele>
        <time>2022-07-28T12:15:05Z</time>
      </trkpt>
      <trkpt lat="45.68593" lon="6.46596">
        <ele>1817</ele>
        <time>2022-07-28T12:15:06Z</time>
      </trkpt>
      <trkpt lat="45.68593" lon="6.46596">
        <ele>1816</ele>
        <time>2022-07-28T12:15:07Z</time>
      </trkpt>
      <trkpt lat="45.68593" lon="6.46596">
        <ele>1816</ele>
        <time>2022-07-28T12:15:08Z</time>
      </trkpt>
      <trkpt lat="45.68593" lon="6.46595">
        <ele>1815</ele>
        <time>2022-07-28T12:15:09Z</time>
      </trkpt>
      <trkpt lat="45.68592" lon="6.46594">
        <ele>1815</ele>
        <time>2022-07-28T12:15:10Z</time>
      </trkpt>
      <trkpt lat="45.68592" lon="6.46593">
        <ele>1815</ele>
        <time>2022-07-28T12:15:11Z</time>
      </trkpt>
      <trkpt lat="45.68591" lon="6.46592">
        <ele>1814</ele>
        <time>2022-07-28T12:15:18Z</time>
      </trkpt>
      <trkpt lat="45.6859" lon="6.46591">
        <ele>1814</ele>
        <time>2022-07-28T12:15:19Z</time>
      </trkpt>
      <trkpt lat="45.6859" lon="6.46591">
        <ele>1814</ele>
        <time>2022-07-28T12:15:20Z</time>
      </trkpt>
      <trkpt lat="45.6859" lon="6.4659">
        <ele>1814</ele>
        <time>2022-07-28T12:15:21Z</time>
      </trkpt>
      <trkpt lat="45.6859" lon="6.46589">
        <ele>1813</ele>
        <time>2022-07-28T12:15:22Z</time>
      </trkpt>
      <trkpt lat="45.6859" lon="6.46587">
        <ele>1812</ele>
        <time>2022-07-28T12:15:35Z</time>
      </trkpt>
      <trkpt lat="45.6859" lon="6.46586">
        <ele>1812</ele>
        <time>2022-07-28T12:15:36Z</time>
      </trkpt>
      <trkpt lat="45.6859" lon="6.46584">
        <ele>1812</ele>
        <time>2022-07-28T12:15:37Z</time>
      </trkpt>
      <trkpt lat="45.68591" lon="6.46583">
        <ele>1812</ele>
        <time>2022-07-28T12:15:38Z</time>
      </trkpt>
      <trkpt lat="45.68591" lon="6.46582">
        <ele>1812</ele>
        <time>2022-07-28T12:15:39Z</time>
      </trkpt>
      <trkpt lat="45.68592" lon="6.46582">
        <ele>1812</ele>
        <time>2022-07-28T12:15:40Z</time>
      </trkpt>
      <trkpt lat="45.68592" lon="6.46581">
        <ele>1812</ele>
        <time>2022-07-28T12:15:41Z</time>
      </trkpt>
      <trkpt lat="45.68593" lon="6.46581">
        <ele>1811</ele>
        <time>2022-07-28T12:15:42Z</time>
      </trkpt>
      <trkpt lat="45.68593" lon="6.46581">
        <ele>1811</ele>
        <time>2022-07-28T12:15:43Z</time>
      </trkpt>
      <trkpt lat="45.68593" lon="6.4658">
        <ele>1811</ele>
        <time>2022-07-28T12:15:44Z</time>
      </trkpt>
      <trkpt lat="45.68597" lon="6.46575">
        <ele>1804</ele>
        <time>2022-07-28T12:16:33Z</time>
      </trkpt>
      <trkpt lat="45.68599" lon="6.46572">
        <ele>1804</ele>
        <time>2022-07-28T12:16:34Z</time>
      </trkpt>
      <trkpt lat="45.68601" lon="6.46569">
        <ele>1804</ele>
        <time>2022-07-28T12:16:35Z</time>
      </trkpt>
      <trkpt lat="45.68601" lon="6.46568">
        <ele>1804</ele>
        <time>2022-07-28T12:16:36Z</time>
      </trkpt>
      <trkpt lat="45.68602" lon="6.46566">
        <ele>1803</ele>
        <time>2022-07-28T12:16:37Z</time>
      </trkpt>
      <trkpt lat="45.68604" lon="6.46562">
        <ele>1800</ele>
        <time>2022-07-28T12:16:57Z</time>
      </trkpt>
      <trkpt lat="45.68604" lon="6.46559">
        <ele>1800</ele>
        <time>2022-07-28T12:16:58Z</time>
      </trkpt>
      <trkpt lat="45.68605" lon="6.46557">
        <ele>1800</ele>
        <time>2022-07-28T12:16:59Z</time>
      </trkpt>
      <trkpt lat="45.68605" lon="6.46555">
        <ele>1800</ele>
        <time>2022-07-28T12:17:00Z</time>
      </trkpt>
      <trkpt lat="45.68606" lon="6.46554">
        <ele>1800</ele>
        <time>2022-07-28T12:17:01Z</time>
      </trkpt>
      <trkpt lat="45.68606" lon="6.46552">
        <ele>1799</ele>
        <time>2022-07-28T12:17:02Z</time>
      </trkpt>
      <trkpt lat="45.68606" lon="6.46551">
        <ele>1799</ele>
        <time>2022-07-28T12:17:03Z</time>
      </trkpt>
      <trkpt lat="45.68606" lon="6.4655">
        <ele>1799</ele>
        <time>2022-07-28T12:17:04Z</time>
      </trkpt>
      <trkpt lat="45.68606" lon="6.46549">
        <ele>1799</ele>
        <time>2022-07-28T12:17:05Z</time>
      </trkpt>
      <trkpt lat="45.68605" lon="6.46548">
        <ele>1799</ele>
        <time>2022-07-28T12:17:06Z</time>
      </trkpt>
      <trkpt lat="45.68605" lon="6.46547">
        <ele>1798</ele>
        <time>2022-07-28T12:17:07Z</time>
      </trkpt>
      <trkpt lat="45.68605" lon="6.46546">
        <ele>1798</ele>
        <time>2022-07-28T12:17:08Z</time>
      </trkpt>
      <trkpt lat="45.68605" lon="6.46545">
        <ele>1798</ele>
        <time>2022-07-28T12:17:09Z</time>
      </trkpt>
      <trkpt lat="45.68604" lon="6.46544">
        <ele>1798</ele>
        <time>2022-07-28T12:17:10Z</time>
      </trkpt>
      <trkpt lat="45.68604" lon="6.46543">
        <ele>1798</ele>
        <time>2022-07-28T12:17:11Z</time>
      </trkpt>
      <trkpt lat="45.68604" lon="6.46542">
        <ele>1798</ele>
        <time>2022-07-28T12:17:12Z</time>
      </trkpt>
      <trkpt lat="45.68604" lon="6.46542">
        <ele>1798</ele>
        <time>2022-07-28T12:17:13Z</time>
      </trkpt>
      <trkpt lat="45.68604" lon="6.46541">
        <ele>1798</ele>
        <time>2022-07-28T12:17:14Z</time>
      </trkpt>
      <trkpt lat="45.68604" lon="6.4654">
        <ele>1798</ele>
        <time>2022-07-28T12:17:15Z</time>
      </trkpt>
      <trkpt lat="45.68604" lon="6.46539">
        <ele>1796</ele>
        <time>2022-07-28T12:17:27Z</time>
      </trkpt>
      <trkpt lat="45.68604" lon="6.46538">
        <ele>1796</ele>
        <time>2022-07-28T12:17:28Z</time>
      </trkpt>
      <trkpt lat="45.68605" lon="6.46537">
        <ele>1796</ele>
        <time>2022-07-28T12:17:29Z</time>
      </trkpt>
      <trkpt lat="45.68605" lon="6.46537">
        <ele>1796</ele>
        <time>2022-07-28T12:17:30Z</time>
      </trkpt>
      <trkpt lat="45.68605" lon="6.46536">
        <ele>1796</ele>
        <time>2022-07-28T12:17:31Z</time>
      </trkpt>
      <trkpt lat="45.68606" lon="6.46536">
        <ele>1795</ele>
        <time>2022-07-28T12:17:32Z</time>
      </trkpt>
      <trkpt lat="45.68606" lon="6.46535">
        <ele>1795</ele>
        <time>2022-07-28T12:17:33Z</time>
      </trkpt>
      <trkpt lat="45.68606" lon="6.46535">
        <ele>1795</ele>
        <time>2022-07-28T12:17:34Z</time>
      </trkpt>
      <trkpt lat="45.68607" lon="6.46534">
        <ele>1795</ele>
        <time>2022-07-28T12:17:35Z</time>
      </trkpt>
      <trkpt lat="45.68607" lon="6.46533">
        <ele>1795</ele>
        <time>2022-07-28T12:17:36Z</time>
      </trkpt>
      <trkpt lat="45.68608" lon="6.46532">
        <ele>1794</ele>
        <time>2022-07-28T12:17:37Z</time>
      </trkpt>
      <trkpt lat="45.68608" lon="6.46531">
        <ele>1794</ele>
        <time>2022-07-28T12:17:38Z</time>
      </trkpt>
      <trkpt lat="45.68609" lon="6.4653">
        <ele>1794</ele>
        <time>2022-07-28T12:17:39Z</time>
      </trkpt>
      <trkpt lat="45.68609" lon="6.46529">
        <ele>1794</ele>
        <time>2022-07-28T12:17:40Z</time>
      </trkpt>
      <trkpt lat="45.6861" lon="6.46528">
        <ele>1794</ele>
        <time>2022-07-28T12:17:41Z</time>
      </trkpt>
      <trkpt lat="45.6861" lon="6.46527">
        <ele>1793</ele>
        <time>2022-07-28T12:17:42Z</time>
      </trkpt>
      <trkpt lat="45.68611" lon="6.46526">
        <ele>1793</ele>
        <time>2022-07-28T12:17:43Z</time>
      </trkpt>
      <trkpt lat="45.68612" lon="6.46525">
        <ele>1793</ele>
        <time>2022-07-28T12:17:44Z</time>
      </trkpt>
      <trkpt lat="45.68612" lon="6.46523">
        <ele>1793</ele>
        <time>2022-07-28T12:17:45Z</time>
      </trkpt>
      <trkpt lat="45.68613" lon="6.46523">
        <ele>1793</ele>
        <time>2022-07-28T12:17:46Z</time>
      </trkpt>
      <trkpt lat="45.68614" lon="6.46522">
        <ele>1792</ele>
        <time>2022-07-28T12:17:47Z</time>
      </trkpt>
      <trkpt lat="45.68615" lon="6.46521">
        <ele>1792</ele>
        <time>2022-07-28T12:17:48Z</time>
      </trkpt>
      <trkpt lat="45.68616" lon="6.4652">
        <ele>1791</ele>
        <time>2022-07-28T12:17:49Z</time>
      </trkpt>
      <trkpt lat="45.68617" lon="6.46519">
        <ele>1791</ele>
        <time>2022-07-28T12:17:50Z</time>
      </trkpt>
      <trkpt lat="45.68617" lon="6.46518">
        <ele>1791</ele>
        <time>2022-07-28T12:17:51Z</time>
      </trkpt>
      <trkpt lat="45.68618" lon="6.46517">
        <ele>1790</ele>
        <time>2022-07-28T12:17:52Z</time>
      </trkpt>
      <trkpt lat="45.68619" lon="6.46516">
        <ele>1790</ele>
        <time>2022-07-28T12:17:53Z</time>
      </trkpt>
      <trkpt lat="45.68619" lon="6.46516">
        <ele>1790</ele>
        <time>2022-07-28T12:17:54Z</time>
      </trkpt>
      <trkpt lat="45.6862" lon="6.46515">
        <ele>1790</ele>
        <time>2022-07-28T12:17:55Z</time>
      </trkpt>
      <trkpt lat="45.68621" lon="6.46515">
        <ele>1790</ele>
        <time>2022-07-28T12:17:56Z</time>
      </trkpt>
      <trkpt lat="45.68622" lon="6.46515">
        <ele>1789</ele>
        <time>2022-07-28T12:17:57Z</time>
      </trkpt>
      <trkpt lat="45.68622" lon="6.46514">
        <ele>1788</ele>
        <time>2022-07-28T12:17:58Z</time>
      </trkpt>
      <trkpt lat="45.68623" lon="6.46514">
        <ele>1788</ele>
        <time>2022-07-28T12:17:59Z</time>
      </trkpt>
      <trkpt lat="45.68624" lon="6.46514">
        <ele>1787</ele>
        <time>2022-07-28T12:18:00Z</time>
      </trkpt>
      <trkpt lat="45.68625" lon="6.46513">
        <ele>1787</ele>
        <time>2022-07-28T12:18:01Z</time>
      </trkpt>
      <trkpt lat="45.68625" lon="6.46513">
        <ele>1786</ele>
        <time>2022-07-28T12:18:02Z</time>
      </trkpt>
      <trkpt lat="45.68626" lon="6.46512">
        <ele>1786</ele>
        <time>2022-07-28T12:18:03Z</time>
      </trkpt>
      <trkpt lat="45.68627" lon="6.46512">
        <ele>1786</ele>
        <time>2022-07-28T12:18:04Z</time>
      </trkpt>
      <trkpt lat="45.68627" lon="6.46511">
        <ele>1786</ele>
        <time>2022-07-28T12:18:05Z</time>
      </trkpt>
      <trkpt lat="45.68628" lon="6.46511">
        <ele>1786</ele>
        <time>2022-07-28T12:18:06Z</time>
      </trkpt>
      <trkpt lat="45.68628" lon="6.46511">
        <ele>1785</ele>
        <time>2022-07-28T12:18:07Z</time>
      </trkpt>
      <trkpt lat="45.68629" lon="6.4651">
        <ele>1785</ele>
        <time>2022-07-28T12:18:08Z</time>
      </trkpt>
      <trkpt lat="45.68629" lon="6.46509">
        <ele>1785</ele>
        <time>2022-07-28T12:18:09Z</time>
      </trkpt>
      <trkpt lat="45.68629" lon="6.46509">
        <ele>1785</ele>
        <time>2022-07-28T12:18:10Z</time>
      </trkpt>
      <trkpt lat="45.6863" lon="6.46508">
        <ele>1785</ele>
        <time>2022-07-28T12:18:11Z</time>
      </trkpt>
      <trkpt lat="45.6863" lon="6.46508">
        <ele>1784</ele>
        <time>2022-07-28T12:18:12Z</time>
      </trkpt>
      <trkpt lat="45.6863" lon="6.46508">
        <ele>1784</ele>
        <time>2022-07-28T12:18:13Z</time>
      </trkpt>
      <trkpt lat="45.68631" lon="6.46508">
        <ele>1784</ele>
        <time>2022-07-28T12:18:14Z</time>
      </trkpt>
      <trkpt lat="45.68631" lon="6.46508">
        <ele>1784</ele>
        <time>2022-07-28T12:18:15Z</time>
      </trkpt>
      <trkpt lat="45.68632" lon="6.46508">
        <ele>1784</ele>
        <time>2022-07-28T12:18:16Z</time>
      </trkpt>
      <trkpt lat="45.68632" lon="6.46507">
        <ele>1783</ele>
        <time>2022-07-28T12:18:17Z</time>
      </trkpt>
      <trkpt lat="45.68633" lon="6.46506">
        <ele>1783</ele>
        <time>2022-07-28T12:18:24Z</time>
      </trkpt>
      <trkpt lat="45.68634" lon="6.46506">
        <ele>1783</ele>
        <time>2022-07-28T12:18:25Z</time>
      </trkpt>
      <trkpt lat="45.68634" lon="6.46506">
        <ele>1783</ele>
        <time>2022-07-28T12:18:26Z</time>
      </trkpt>
      <trkpt lat="45.68634" lon="6.46505">
        <ele>1782</ele>
        <time>2022-07-28T12:18:27Z</time>
      </trkpt>
      <trkpt lat="45.68635" lon="6.46505">
        <ele>1782</ele>
        <time>2022-07-28T12:18:28Z</time>
      </trkpt>
      <trkpt lat="45.68635" lon="6.46504">
        <ele>1782</ele>
        <time>2022-07-28T12:18:29Z</time>
      </trkpt>
      <trkpt lat="45.68636" lon="6.46503">
        <ele>1782</ele>
        <time>2022-07-28T12:18:30Z</time>
      </trkpt>
      <trkpt lat="45.68636" lon="6.46502">
        <ele>1782</ele>
        <time>2022-07-28T12:18:31Z</time>
      </trkpt>
      <trkpt lat="45.68637" lon="6.46501">
        <ele>1781</ele>
        <time>2022-07-28T12:18:32Z</time>
      </trkpt>
      <trkpt lat="45.68637" lon="6.465">
        <ele>1781</ele>
        <time>2022-07-28T12:18:33Z</time>
      </trkpt>
      <trkpt lat="45.68638" lon="6.46499">
        <ele>1781</ele>
        <time>2022-07-28T12:18:34Z</time>
      </trkpt>
      <trkpt lat="45.68638" lon="6.46498">
        <ele>1781</ele>
        <time>2022-07-28T12:18:35Z</time>
      </trkpt>
      <trkpt lat="45.68639" lon="6.46497">
        <ele>1781</ele>
        <time>2022-07-28T12:18:36Z</time>
      </trkpt>
      <trkpt lat="45.68639" lon="6.46497">
        <ele>1781</ele>
        <time>2022-07-28T12:18:37Z</time>
      </trkpt>
      <trkpt lat="45.6864" lon="6.46496">
        <ele>1781</ele>
        <time>2022-07-28T12:18:38Z</time>
      </trkpt>
      <trkpt lat="45.6864" lon="6.46496">
        <ele>1781</ele>
        <time>2022-07-28T12:18:39Z</time>
      </trkpt>
      <trkpt lat="45.68641" lon="6.46495">
        <ele>1781</ele>
        <time>2022-07-28T12:18:40Z</time>
      </trkpt>
      <trkpt lat="45.68641" lon="6.46495">
        <ele>1781</ele>
        <time>2022-07-28T12:18:41Z</time>
      </trkpt>
      <trkpt lat="45.68642" lon="6.46494">
        <ele>1780</ele>
        <time>2022-07-28T12:18:42Z</time>
      </trkpt>
      <trkpt lat="45.68642" lon="6.46494">
        <ele>1780</ele>
        <time>2022-07-28T12:18:43Z</time>
      </trkpt>
      <trkpt lat="45.68643" lon="6.46493">
        <ele>1779</ele>
        <time>2022-07-28T12:18:44Z</time>
      </trkpt>
      <trkpt lat="45.68644" lon="6.46492">
        <ele>1779</ele>
        <time>2022-07-28T12:18:45Z</time>
      </trkpt>
      <trkpt lat="45.68644" lon="6.46491">
        <ele>1779</ele>
        <time>2022-07-28T12:18:46Z</time>
      </trkpt>
      <trkpt lat="45.68645" lon="6.4649">
        <ele>1779</ele>
        <time>2022-07-28T12:18:47Z</time>
      </trkpt>
      <trkpt lat="45.68645" lon="6.46489">
        <ele>1779</ele>
        <time>2022-07-28T12:18:48Z</time>
      </trkpt>
      <trkpt lat="45.68646" lon="6.46487">
        <ele>1779</ele>
        <time>2022-07-28T12:18:49Z</time>
      </trkpt>
      <trkpt lat="45.68646" lon="6.46486">
        <ele>1779</ele>
        <time>2022-07-28T12:18:50Z</time>
      </trkpt>
      <trkpt lat="45.68646" lon="6.46485">
        <ele>1779</ele>
        <time>2022-07-28T12:18:51Z</time>
      </trkpt>
      <trkpt lat="45.68647" lon="6.46483">
        <ele>1778</ele>
        <time>2022-07-28T12:18:52Z</time>
      </trkpt>
      <trkpt lat="45.68647" lon="6.46482">
        <ele>1778</ele>
        <time>2022-07-28T12:18:53Z</time>
      </trkpt>
      <trkpt lat="45.68647" lon="6.46481">
        <ele>1778</ele>
        <time>2022-07-28T12:18:54Z</time>
      </trkpt>
      <trkpt lat="45.68647" lon="6.4648">
        <ele>1778</ele>
        <time>2022-07-28T12:18:55Z</time>
      </trkpt>
      <trkpt lat="45.68647" lon="6.46479">
        <ele>1778</ele>
        <time>2022-07-28T12:18:56Z</time>
      </trkpt>
      <trkpt lat="45.68647" lon="6.46477">
        <ele>1777</ele>
        <time>2022-07-28T12:18:57Z</time>
      </trkpt>
      <trkpt lat="45.68647" lon="6.46477">
        <ele>1777</ele>
        <time>2022-07-28T12:18:58Z</time>
      </trkpt>
      <trkpt lat="45.68648" lon="6.46476">
        <ele>1777</ele>
        <time>2022-07-28T12:18:59Z</time>
      </trkpt>
      <trkpt lat="45.68648" lon="6.46475">
        <ele>1777</ele>
        <time>2022-07-28T12:19:00Z</time>
      </trkpt>
      <trkpt lat="45.68648" lon="6.46475">
        <ele>1777</ele>
        <time>2022-07-28T12:19:01Z</time>
      </trkpt>
      <trkpt lat="45.68649" lon="6.46475">
        <ele>1776</ele>
        <time>2022-07-28T12:19:02Z</time>
      </trkpt>
      <trkpt lat="45.6865" lon="6.46475">
        <ele>1776</ele>
        <time>2022-07-28T12:19:03Z</time>
      </trkpt>
      <trkpt lat="45.68651" lon="6.46476">
        <ele>1776</ele>
        <time>2022-07-28T12:19:04Z</time>
      </trkpt>
      <trkpt lat="45.68651" lon="6.46477">
        <ele>1776</ele>
        <time>2022-07-28T12:19:05Z</time>
      </trkpt>
      <trkpt lat="45.68652" lon="6.46478">
        <ele>1776</ele>
        <time>2022-07-28T12:19:06Z</time>
      </trkpt>
      <trkpt lat="45.68653" lon="6.46478">
        <ele>1775</ele>
        <time>2022-07-28T12:19:07Z</time>
      </trkpt>
      <trkpt lat="45.68653" lon="6.46479">
        <ele>1775</ele>
        <time>2022-07-28T12:19:08Z</time>
      </trkpt>
      <trkpt lat="45.68654" lon="6.4648">
        <ele>1775</ele>
        <time>2022-07-28T12:19:09Z</time>
      </trkpt>
      <trkpt lat="45.68654" lon="6.46481">
        <ele>1775</ele>
        <time>2022-07-28T12:19:10Z</time>
      </trkpt>
      <trkpt lat="45.68655" lon="6.46482">
        <ele>1775</ele>
        <time>2022-07-28T12:19:11Z</time>
      </trkpt>
      <trkpt lat="45.68655" lon="6.46482">
        <ele>1774</ele>
        <time>2022-07-28T12:19:12Z</time>
      </trkpt>
      <trkpt lat="45.68656" lon="6.46483">
        <ele>1774</ele>
        <time>2022-07-28T12:19:13Z</time>
      </trkpt>
      <trkpt lat="45.68656" lon="6.46483">
        <ele>1774</ele>
        <time>2022-07-28T12:19:14Z</time>
      </trkpt>
      <trkpt lat="45.68657" lon="6.46483">
        <ele>1774</ele>
        <time>2022-07-28T12:19:15Z</time>
      </trkpt>
      <trkpt lat="45.68657" lon="6.46484">
        <ele>1774</ele>
        <time>2022-07-28T12:19:16Z</time>
      </trkpt>
      <trkpt lat="45.68658" lon="6.46484">
        <ele>1774</ele>
        <time>2022-07-28T12:19:17Z</time>
      </trkpt>
      <trkpt lat="45.68658" lon="6.46484">
        <ele>1774</ele>
        <time>2022-07-28T12:19:18Z</time>
      </trkpt>
      <trkpt lat="45.68658" lon="6.46484">
        <ele>1774</ele>
        <time>2022-07-28T12:19:19Z</time>
      </trkpt>
      <trkpt lat="45.68659" lon="6.46483">
        <ele>1774</ele>
        <time>2022-07-28T12:19:20Z</time>
      </trkpt>
      <trkpt lat="45.68659" lon="6.46483">
        <ele>1774</ele>
        <time>2022-07-28T12:19:21Z</time>
      </trkpt>
      <trkpt lat="45.6866" lon="6.46482">
        <ele>1773</ele>
        <time>2022-07-28T12:19:22Z</time>
      </trkpt>
      <trkpt lat="45.6866" lon="6.46481">
        <ele>1773</ele>
        <time>2022-07-28T12:19:23Z</time>
      </trkpt>
      <trkpt lat="45.6866" lon="6.46479">
        <ele>1773</ele>
        <time>2022-07-28T12:19:24Z</time>
      </trkpt>
      <trkpt lat="45.6866" lon="6.46478">
        <ele>1773</ele>
        <time>2022-07-28T12:19:25Z</time>
      </trkpt>
      <trkpt lat="45.6866" lon="6.46477">
        <ele>1773</ele>
        <time>2022-07-28T12:19:26Z</time>
      </trkpt>
      <trkpt lat="45.6866" lon="6.46476">
        <ele>1772</ele>
        <time>2022-07-28T12:19:27Z</time>
      </trkpt>
      <trkpt lat="45.6866" lon="6.46474">
        <ele>1772</ele>
        <time>2022-07-28T12:19:28Z</time>
      </trkpt>
      <trkpt lat="45.6866" lon="6.46473">
        <ele>1772</ele>
        <time>2022-07-28T12:19:29Z</time>
      </trkpt>
      <trkpt lat="45.68659" lon="6.46472">
        <ele>1772</ele>
        <time>2022-07-28T12:19:30Z</time>
      </trkpt>
      <trkpt lat="45.68659" lon="6.46471">
        <ele>1772</ele>
        <time>2022-07-28T12:19:31Z</time>
      </trkpt>
      <trkpt lat="45.68659" lon="6.4647">
        <ele>1772</ele>
        <time>2022-07-28T12:19:32Z</time>
      </trkpt>
      <trkpt lat="45.68659" lon="6.46469">
        <ele>1772</ele>
        <time>2022-07-28T12:19:33Z</time>
      </trkpt>
      <trkpt lat="45.68658" lon="6.46468">
        <ele>1772</ele>
        <time>2022-07-28T12:19:34Z</time>
      </trkpt>
      <trkpt lat="45.68658" lon="6.46468">
        <ele>1772</ele>
        <time>2022-07-28T12:19:35Z</time>
      </trkpt>
      <trkpt lat="45.68657" lon="6.46467">
        <ele>1772</ele>
        <time>2022-07-28T12:19:36Z</time>
      </trkpt>
      <trkpt lat="45.68657" lon="6.46466">
        <ele>1771</ele>
        <time>2022-07-28T12:19:37Z</time>
      </trkpt>
      <trkpt lat="45.68656" lon="6.46465">
        <ele>1771</ele>
        <time>2022-07-28T12:19:38Z</time>
      </trkpt>
      <trkpt lat="45.68656" lon="6.46465">
        <ele>1771</ele>
        <time>2022-07-28T12:19:39Z</time>
      </trkpt>
      <trkpt lat="45.68655" lon="6.46464">
        <ele>1771</ele>
        <time>2022-07-28T12:19:40Z</time>
      </trkpt>
      <trkpt lat="45.68655" lon="6.46463">
        <ele>1771</ele>
        <time>2022-07-28T12:19:41Z</time>
      </trkpt>
      <trkpt lat="45.68655" lon="6.46463">
        <ele>1770</ele>
        <time>2022-07-28T12:19:42Z</time>
      </trkpt>
      <trkpt lat="45.68655" lon="6.46462">
        <ele>1770</ele>
        <time>2022-07-28T12:19:43Z</time>
      </trkpt>
      <trkpt lat="45.68655" lon="6.46461">
        <ele>1770</ele>
        <time>2022-07-28T12:19:44Z</time>
      </trkpt>
      <trkpt lat="45.68655" lon="6.4646">
        <ele>1770</ele>
        <time>2022-07-28T12:19:45Z</time>
      </trkpt>
      <trkpt lat="45.68655" lon="6.46459">
        <ele>1770</ele>
        <time>2022-07-28T12:19:46Z</time>
      </trkpt>
      <trkpt lat="45.68655" lon="6.46459">
        <ele>1770</ele>
        <time>2022-07-28T12:19:47Z</time>
      </trkpt>
      <trkpt lat="45.68655" lon="6.46458">
        <ele>1770</ele>
        <time>2022-07-28T12:19:48Z</time>
      </trkpt>
      <trkpt lat="45.68655" lon="6.46457">
        <ele>1770</ele>
        <time>2022-07-28T12:19:49Z</time>
      </trkpt>
      <trkpt lat="45.68656" lon="6.46456">
        <ele>1769</ele>
        <time>2022-07-28T12:19:56Z</time>
      </trkpt>
      <trkpt lat="45.68656" lon="6.46455">
        <ele>1769</ele>
        <time>2022-07-28T12:19:57Z</time>
      </trkpt>
      <trkpt lat="45.68656" lon="6.46454">
        <ele>1769</ele>
        <time>2022-07-28T12:19:58Z</time>
      </trkpt>
      <trkpt lat="45.68657" lon="6.46453">
        <ele>1769</ele>
        <time>2022-07-28T12:19:59Z</time>
      </trkpt>
      <trkpt lat="45.68657" lon="6.46452">
        <ele>1769</ele>
        <time>2022-07-28T12:20:00Z</time>
      </trkpt>
      <trkpt lat="45.68658" lon="6.46452">
        <ele>1769</ele>
        <time>2022-07-28T12:20:01Z</time>
      </trkpt>
      <trkpt lat="45.68658" lon="6.46451">
        <ele>1768</ele>
        <time>2022-07-28T12:20:02Z</time>
      </trkpt>
      <trkpt lat="45.68658" lon="6.46451">
        <ele>1768</ele>
        <time>2022-07-28T12:20:03Z</time>
      </trkpt>
      <trkpt lat="45.6866" lon="6.46449">
        <ele>1767</ele>
        <time>2022-07-28T12:20:15Z</time>
      </trkpt>
      <trkpt lat="45.6866" lon="6.46448">
        <ele>1767</ele>
        <time>2022-07-28T12:20:16Z</time>
      </trkpt>
      <trkpt lat="45.68661" lon="6.46447">
        <ele>1766</ele>
        <time>2022-07-28T12:20:17Z</time>
      </trkpt>
      <trkpt lat="45.68662" lon="6.46446">
        <ele>1766</ele>
        <time>2022-07-28T12:20:18Z</time>
      </trkpt>
      <trkpt lat="45.68662" lon="6.46445">
        <ele>1766</ele>
        <time>2022-07-28T12:20:19Z</time>
      </trkpt>
      <trkpt lat="45.68662" lon="6.46443">
        <ele>1762</ele>
        <time>2022-07-28T12:21:27Z</time>
      </trkpt>
      <trkpt lat="45.68662" lon="6.46441">
        <ele>1762</ele>
        <time>2022-07-28T12:21:28Z</time>
      </trkpt>
      <trkpt lat="45.68661" lon="6.4644">
        <ele>1762</ele>
        <time>2022-07-28T12:21:29Z</time>
      </trkpt>
      <trkpt lat="45.68661" lon="6.46439">
        <ele>1762</ele>
        <time>2022-07-28T12:21:30Z</time>
      </trkpt>
      <trkpt lat="45.68661" lon="6.46438">
        <ele>1762</ele>
        <time>2022-07-28T12:21:31Z</time>
      </trkpt>
      <trkpt lat="45.68661" lon="6.46437">
        <ele>1762</ele>
        <time>2022-07-28T12:21:32Z</time>
      </trkpt>
      <trkpt lat="45.68661" lon="6.46435">
        <ele>1762</ele>
        <time>2022-07-28T12:21:33Z</time>
      </trkpt>
      <trkpt lat="45.68662" lon="6.46434">
        <ele>1762</ele>
        <time>2022-07-28T12:21:34Z</time>
      </trkpt>
      <trkpt lat="45.68662" lon="6.46433">
        <ele>1762</ele>
        <time>2022-07-28T12:21:35Z</time>
      </trkpt>
      <trkpt lat="45.68663" lon="6.46431">
        <ele>1762</ele>
        <time>2022-07-28T12:21:36Z</time>
      </trkpt>
      <trkpt lat="45.68663" lon="6.4643">
        <ele>1761</ele>
        <time>2022-07-28T12:21:37Z</time>
      </trkpt>
      <trkpt lat="45.68664" lon="6.46429">
        <ele>1761</ele>
        <time>2022-07-28T12:21:38Z</time>
      </trkpt>
      <trkpt lat="45.68665" lon="6.46427">
        <ele>1760</ele>
        <time>2022-07-28T12:21:39Z</time>
      </trkpt>
      <trkpt lat="45.68666" lon="6.46426">
        <ele>1760</ele>
        <time>2022-07-28T12:21:40Z</time>
      </trkpt>
      <trkpt lat="45.68666" lon="6.46425">
        <ele>1760</ele>
        <time>2022-07-28T12:21:41Z</time>
      </trkpt>
      <trkpt lat="45.68667" lon="6.46424">
        <ele>1759</ele>
        <time>2022-07-28T12:21:42Z</time>
      </trkpt>
      <trkpt lat="45.68668" lon="6.46422">
        <ele>1759</ele>
        <time>2022-07-28T12:21:43Z</time>
      </trkpt>
      <trkpt lat="45.68669" lon="6.46421">
        <ele>1758</ele>
        <time>2022-07-28T12:21:44Z</time>
      </trkpt>
      <trkpt lat="45.68669" lon="6.4642">
        <ele>1758</ele>
        <time>2022-07-28T12:21:45Z</time>
      </trkpt>
      <trkpt lat="45.6867" lon="6.46419">
        <ele>1758</ele>
        <time>2022-07-28T12:21:46Z</time>
      </trkpt>
      <trkpt lat="45.6867" lon="6.46417">
        <ele>1757</ele>
        <time>2022-07-28T12:21:47Z</time>
      </trkpt>
      <trkpt lat="45.68671" lon="6.46416">
        <ele>1757</ele>
        <time>2022-07-28T12:21:48Z</time>
      </trkpt>
      <trkpt lat="45.68671" lon="6.46415">
        <ele>1757</ele>
        <time>2022-07-28T12:21:49Z</time>
      </trkpt>
      <trkpt lat="45.68672" lon="6.46413">
        <ele>1757</ele>
        <time>2022-07-28T12:21:50Z</time>
      </trkpt>
      <trkpt lat="45.68672" lon="6.46412">
        <ele>1757</ele>
        <time>2022-07-28T12:21:51Z</time>
      </trkpt>
      <trkpt lat="45.68672" lon="6.46412">
        <ele>1756</ele>
        <time>2022-07-28T12:21:52Z</time>
      </trkpt>
      <trkpt lat="45.68672" lon="6.46411">
        <ele>1756</ele>
        <time>2022-07-28T12:21:53Z</time>
      </trkpt>
      <trkpt lat="45.68673" lon="6.4641">
        <ele>1756</ele>
        <time>2022-07-28T12:21:54Z</time>
      </trkpt>
      <trkpt lat="45.68673" lon="6.4641">
        <ele>1756</ele>
        <time>2022-07-28T12:21:55Z</time>
      </trkpt>
      <trkpt lat="45.68673" lon="6.46409">
        <ele>1756</ele>
        <time>2022-07-28T12:21:56Z</time>
      </trkpt>
      <trkpt lat="45.68673" lon="6.46408">
        <ele>1755</ele>
        <time>2022-07-28T12:21:57Z</time>
      </trkpt>
      <trkpt lat="45.68673" lon="6.46407">
        <ele>1755</ele>
        <time>2022-07-28T12:21:58Z</time>
      </trkpt>
      <trkpt lat="45.68674" lon="6.46406">
        <ele>1754</ele>
        <time>2022-07-28T12:21:59Z</time>
      </trkpt>
      <trkpt lat="45.68674" lon="6.46405">
        <ele>1754</ele>
        <time>2022-07-28T12:22:00Z</time>
      </trkpt>
      <trkpt lat="45.68675" lon="6.46404">
        <ele>1754</ele>
        <time>2022-07-28T12:22:01Z</time>
      </trkpt>
      <trkpt lat="45.68676" lon="6.46403">
        <ele>1753</ele>
        <time>2022-07-28T12:22:02Z</time>
      </trkpt>
      <trkpt lat="45.68677" lon="6.46401">
        <ele>1753</ele>
        <time>2022-07-28T12:22:03Z</time>
      </trkpt>
      <trkpt lat="45.68678" lon="6.464">
        <ele>1752</ele>
        <time>2022-07-28T12:22:04Z</time>
      </trkpt>
      <trkpt lat="45.68678" lon="6.46399">
        <ele>1752</ele>
        <time>2022-07-28T12:22:05Z</time>
      </trkpt>
      <trkpt lat="45.68679" lon="6.46397">
        <ele>1752</ele>
        <time>2022-07-28T12:22:06Z</time>
      </trkpt>
      <trkpt lat="45.6868" lon="6.46396">
        <ele>1751</ele>
        <time>2022-07-28T12:22:07Z</time>
      </trkpt>
      <trkpt lat="45.6868" lon="6.46394">
        <ele>1751</ele>
        <time>2022-07-28T12:22:08Z</time>
      </trkpt>
      <trkpt lat="45.68681" lon="6.46393">
        <ele>1750</ele>
        <time>2022-07-28T12:22:09Z</time>
      </trkpt>
      <trkpt lat="45.68682" lon="6.46391">
        <ele>1750</ele>
        <time>2022-07-28T12:22:10Z</time>
      </trkpt>
      <trkpt lat="45.68683" lon="6.46389">
        <ele>1750</ele>
        <time>2022-07-28T12:22:11Z</time>
      </trkpt>
      <trkpt lat="45.68684" lon="6.46387">
        <ele>1749</ele>
        <time>2022-07-28T12:22:12Z</time>
      </trkpt>
      <trkpt lat="45.68685" lon="6.46385">
        <ele>1749</ele>
        <time>2022-07-28T12:22:13Z</time>
      </trkpt>
      <trkpt lat="45.68685" lon="6.46384">
        <ele>1748</ele>
        <time>2022-07-28T12:22:14Z</time>
      </trkpt>
      <trkpt lat="45.68686" lon="6.46382">
        <ele>1748</ele>
        <time>2022-07-28T12:22:15Z</time>
      </trkpt>
      <trkpt lat="45.68687" lon="6.4638">
        <ele>1748</ele>
        <time>2022-07-28T12:22:16Z</time>
      </trkpt>
      <trkpt lat="45.68687" lon="6.46378">
        <ele>1747</ele>
        <time>2022-07-28T12:22:17Z</time>
      </trkpt>
      <trkpt lat="45.68688" lon="6.46376">
        <ele>1747</ele>
        <time>2022-07-28T12:22:18Z</time>
      </trkpt>
      <trkpt lat="45.68689" lon="6.46374">
        <ele>1746</ele>
        <time>2022-07-28T12:22:19Z</time>
      </trkpt>
      <trkpt lat="45.68689" lon="6.46372">
        <ele>1746</ele>
        <time>2022-07-28T12:22:20Z</time>
      </trkpt>
      <trkpt lat="45.6869" lon="6.4637">
        <ele>1746</ele>
        <time>2022-07-28T12:22:21Z</time>
      </trkpt>
      <trkpt lat="45.6869" lon="6.46369">
        <ele>1745</ele>
        <time>2022-07-28T12:22:22Z</time>
      </trkpt>
      <trkpt lat="45.68691" lon="6.46367">
        <ele>1745</ele>
        <time>2022-07-28T12:22:23Z</time>
      </trkpt>
      <trkpt lat="45.68691" lon="6.46366">
        <ele>1744</ele>
        <time>2022-07-28T12:22:24Z</time>
      </trkpt>
      <trkpt lat="45.68692" lon="6.46365">
        <ele>1744</ele>
        <time>2022-07-28T12:22:25Z</time>
      </trkpt>
      <trkpt lat="45.68692" lon="6.46364">
        <ele>1744</ele>
        <time>2022-07-28T12:22:26Z</time>
      </trkpt>
      <trkpt lat="45.68693" lon="6.46363">
        <ele>1743</ele>
        <time>2022-07-28T12:22:27Z</time>
      </trkpt>
      <trkpt lat="45.68694" lon="6.46362">
        <ele>1743</ele>
        <time>2022-07-28T12:22:28Z</time>
      </trkpt>
      <trkpt lat="45.68695" lon="6.46361">
        <ele>1743</ele>
        <time>2022-07-28T12:22:29Z</time>
      </trkpt>
      <trkpt lat="45.68695" lon="6.4636">
        <ele>1743</ele>
        <time>2022-07-28T12:22:30Z</time>
      </trkpt>
      <trkpt lat="45.68696" lon="6.46359">
        <ele>1743</ele>
        <time>2022-07-28T12:22:31Z</time>
      </trkpt>
      <trkpt lat="45.68696" lon="6.46358">
        <ele>1742</ele>
        <time>2022-07-28T12:22:32Z</time>
      </trkpt>
      <trkpt lat="45.68696" lon="6.46358">
        <ele>1742</ele>
        <time>2022-07-28T12:22:33Z</time>
      </trkpt>
      <trkpt lat="45.68696" lon="6.46357">
        <ele>1742</ele>
        <time>2022-07-28T12:22:34Z</time>
      </trkpt>
      <trkpt lat="45.68696" lon="6.46357">
        <ele>1742</ele>
        <time>2022-07-28T12:22:35Z</time>
      </trkpt>
      <trkpt lat="45.68696" lon="6.46356">
        <ele>1742</ele>
        <time>2022-07-28T12:22:36Z</time>
      </trkpt>
      <trkpt lat="45.68696" lon="6.46355">
        <ele>1741</ele>
        <time>2022-07-28T12:22:37Z</time>
      </trkpt>
      <trkpt lat="45.68696" lon="6.46354">
        <ele>1741</ele>
        <time>2022-07-28T12:22:38Z</time>
      </trkpt>
      <trkpt lat="45.68696" lon="6.46353">
        <ele>1740</ele>
        <time>2022-07-28T12:22:52Z</time>
      </trkpt>
      <trkpt lat="45.68696" lon="6.46352">
        <ele>1740</ele>
        <time>2022-07-28T12:22:53Z</time>
      </trkpt>
      <trkpt lat="45.68696" lon="6.46351">
        <ele>1740</ele>
        <time>2022-07-28T12:22:54Z</time>
      </trkpt>
      <trkpt lat="45.68697" lon="6.46351">
        <ele>1740</ele>
        <time>2022-07-28T12:22:55Z</time>
      </trkpt>
      <trkpt lat="45.68697" lon="6.4635">
        <ele>1740</ele>
        <time>2022-07-28T12:22:56Z</time>
      </trkpt>
      <trkpt lat="45.68697" lon="6.46349">
        <ele>1739</ele>
        <time>2022-07-28T12:22:57Z</time>
      </trkpt>
      <trkpt lat="45.68697" lon="6.46348">
        <ele>1739</ele>
        <time>2022-07-28T12:22:58Z</time>
      </trkpt>
      <trkpt lat="45.68698" lon="6.46347">
        <ele>1739</ele>
        <time>2022-07-28T12:22:59Z</time>
      </trkpt>
      <trkpt lat="45.68698" lon="6.46346">
        <ele>1739</ele>
        <time>2022-07-28T12:23:00Z</time>
      </trkpt>
      <trkpt lat="45.68699" lon="6.46345">
        <ele>1739</ele>
        <time>2022-07-28T12:23:01Z</time>
      </trkpt>
      <trkpt lat="45.68699" lon="6.46344">
        <ele>1739</ele>
        <time>2022-07-28T12:23:02Z</time>
      </trkpt>
      <trkpt lat="45.687" lon="6.46343">
        <ele>1739</ele>
        <time>2022-07-28T12:23:03Z</time>
      </trkpt>
      <trkpt lat="45.68701" lon="6.46341">
        <ele>1739</ele>
        <time>2022-07-28T12:23:04Z</time>
      </trkpt>
      <trkpt lat="45.68701" lon="6.4634">
        <ele>1739</ele>
        <time>2022-07-28T12:23:05Z</time>
      </trkpt>
      <trkpt lat="45.68702" lon="6.46338">
        <ele>1739</ele>
        <time>2022-07-28T12:23:06Z</time>
      </trkpt>
      <trkpt lat="45.68703" lon="6.46337">
        <ele>1739</ele>
        <time>2022-07-28T12:23:07Z</time>
      </trkpt>
      <trkpt lat="45.68703" lon="6.46335">
        <ele>1739</ele>
        <time>2022-07-28T12:23:08Z</time>
      </trkpt>
      <trkpt lat="45.68704" lon="6.46334">
        <ele>1739</ele>
        <time>2022-07-28T12:23:09Z</time>
      </trkpt>
      <trkpt lat="45.68704" lon="6.46332">
        <ele>1739</ele>
        <time>2022-07-28T12:23:10Z</time>
      </trkpt>
      <trkpt lat="45.68705" lon="6.46331">
        <ele>1739</ele>
        <time>2022-07-28T12:23:11Z</time>
      </trkpt>
      <trkpt lat="45.68705" lon="6.46329">
        <ele>1739</ele>
        <time>2022-07-28T12:23:12Z</time>
      </trkpt>
      <trkpt lat="45.68705" lon="6.46328">
        <ele>1739</ele>
        <time>2022-07-28T12:23:13Z</time>
      </trkpt>
      <trkpt lat="45.68706" lon="6.46327">
        <ele>1739</ele>
        <time>2022-07-28T12:23:14Z</time>
      </trkpt>
      <trkpt lat="45.68706" lon="6.46325">
        <ele>1739</ele>
        <time>2022-07-28T12:23:15Z</time>
      </trkpt>
      <trkpt lat="45.68707" lon="6.46324">
        <ele>1739</ele>
        <time>2022-07-28T12:23:16Z</time>
      </trkpt>
      <trkpt lat="45.68707" lon="6.46323">
        <ele>1739</ele>
        <time>2022-07-28T12:23:17Z</time>
      </trkpt>
      <trkpt lat="45.68708" lon="6.46322">
        <ele>1739</ele>
        <time>2022-07-28T12:23:18Z</time>
      </trkpt>
      <trkpt lat="45.68708" lon="6.4632">
        <ele>1739</ele>
        <time>2022-07-28T12:23:19Z</time>
      </trkpt>
      <trkpt lat="45.68708" lon="6.46319">
        <ele>1739</ele>
        <time>2022-07-28T12:23:20Z</time>
      </trkpt>
      <trkpt lat="45.68709" lon="6.46318">
        <ele>1739</ele>
        <time>2022-07-28T12:23:21Z</time>
      </trkpt>
      <trkpt lat="45.68709" lon="6.46317">
        <ele>1739</ele>
        <time>2022-07-28T12:23:22Z</time>
      </trkpt>
      <trkpt lat="45.68709" lon="6.46315">
        <ele>1739</ele>
        <time>2022-07-28T12:23:23Z</time>
      </trkpt>
      <trkpt lat="45.68709" lon="6.46314">
        <ele>1739</ele>
        <time>2022-07-28T12:23:24Z</time>
      </trkpt>
      <trkpt lat="45.6871" lon="6.46313">
        <ele>1739</ele>
        <time>2022-07-28T12:23:25Z</time>
      </trkpt>
      <trkpt lat="45.6871" lon="6.46312">
        <ele>1739</ele>
        <time>2022-07-28T12:23:26Z</time>
      </trkpt>
      <trkpt lat="45.6871" lon="6.46311">
        <ele>1739</ele>
        <time>2022-07-28T12:23:27Z</time>
      </trkpt>
      <trkpt lat="45.6871" lon="6.4631">
        <ele>1739</ele>
        <time>2022-07-28T12:23:28Z</time>
      </trkpt>
      <trkpt lat="45.68711" lon="6.46308">
        <ele>1739</ele>
        <time>2022-07-28T12:23:29Z</time>
      </trkpt>
      <trkpt lat="45.68711" lon="6.46307">
        <ele>1739</ele>
        <time>2022-07-28T12:23:30Z</time>
      </trkpt>
      <trkpt lat="45.68711" lon="6.46306">
        <ele>1739</ele>
        <time>2022-07-28T12:23:31Z</time>
      </trkpt>
      <trkpt lat="45.68712" lon="6.46305">
        <ele>1739</ele>
        <time>2022-07-28T12:23:32Z</time>
      </trkpt>
      <trkpt lat="45.68712" lon="6.46303">
        <ele>1739</ele>
        <time>2022-07-28T12:23:33Z</time>
      </trkpt>
      <trkpt lat="45.68713" lon="6.46302">
        <ele>1739</ele>
        <time>2022-07-28T12:23:34Z</time>
      </trkpt>
      <trkpt lat="45.68713" lon="6.463">
        <ele>1739</ele>
        <time>2022-07-28T12:23:35Z</time>
      </trkpt>
      <trkpt lat="45.68713" lon="6.46299">
        <ele>1739</ele>
        <time>2022-07-28T12:23:36Z</time>
      </trkpt>
      <trkpt lat="45.68713" lon="6.46298">
        <ele>1739</ele>
        <time>2022-07-28T12:23:37Z</time>
      </trkpt>
      <trkpt lat="45.68713" lon="6.46296">
        <ele>1739</ele>
        <time>2022-07-28T12:23:38Z</time>
      </trkpt>
      <trkpt lat="45.68713" lon="6.46295">
        <ele>1739</ele>
        <time>2022-07-28T12:23:39Z</time>
      </trkpt>
      <trkpt lat="45.68713" lon="6.46294">
        <ele>1739</ele>
        <time>2022-07-28T12:23:40Z</time>
      </trkpt>
      <trkpt lat="45.68713" lon="6.46293">
        <ele>1739</ele>
        <time>2022-07-28T12:23:41Z</time>
      </trkpt>
      <trkpt lat="45.68714" lon="6.46291">
        <ele>1739</ele>
        <time>2022-07-28T12:23:42Z</time>
      </trkpt>
      <trkpt lat="45.68714" lon="6.46291">
        <ele>1739</ele>
        <time>2022-07-28T12:23:43Z</time>
      </trkpt>
      <trkpt lat="45.68714" lon="6.4629">
        <ele>1739</ele>
        <time>2022-07-28T12:23:44Z</time>
      </trkpt>
      <trkpt lat="45.68714" lon="6.46289">
        <ele>1739</ele>
        <time>2022-07-28T12:23:45Z</time>
      </trkpt>
      <trkpt lat="45.68714" lon="6.46288">
        <ele>1739</ele>
        <time>2022-07-28T12:23:46Z</time>
      </trkpt>
      <trkpt lat="45.68714" lon="6.46288">
        <ele>1739</ele>
        <time>2022-07-28T12:23:47Z</time>
      </trkpt>
      <trkpt lat="45.68714" lon="6.46287">
        <ele>1739</ele>
        <time>2022-07-28T12:23:48Z</time>
      </trkpt>
      <trkpt lat="45.68714" lon="6.46286">
        <ele>1739</ele>
        <time>2022-07-28T12:23:49Z</time>
      </trkpt>
      <trkpt lat="45.68714" lon="6.46285">
        <ele>1739</ele>
        <time>2022-07-28T12:23:50Z</time>
      </trkpt>
      <trkpt lat="45.68714" lon="6.46285">
        <ele>1739</ele>
        <time>2022-07-28T12:23:51Z</time>
      </trkpt>
      <trkpt lat="45.68714" lon="6.46284">
        <ele>1738</ele>
        <time>2022-07-28T12:23:52Z</time>
      </trkpt>
      <trkpt lat="45.68714" lon="6.46283">
        <ele>1738</ele>
        <time>2022-07-28T12:23:53Z</time>
      </trkpt>
      <trkpt lat="45.68715" lon="6.46282">
        <ele>1738</ele>
        <time>2022-07-28T12:23:54Z</time>
      </trkpt>
      <trkpt lat="45.68715" lon="6.46281">
        <ele>1738</ele>
        <time>2022-07-28T12:23:55Z</time>
      </trkpt>
      <trkpt lat="45.68716" lon="6.4628">
        <ele>1738</ele>
        <time>2022-07-28T12:23:56Z</time>
      </trkpt>
      <trkpt lat="45.68716" lon="6.46279">
        <ele>1738</ele>
        <time>2022-07-28T12:23:57Z</time>
      </trkpt>
      <trkpt lat="45.68717" lon="6.46278">
        <ele>1738</ele>
        <time>2022-07-28T12:23:58Z</time>
      </trkpt>
      <trkpt lat="45.68717" lon="6.46276">
        <ele>1738</ele>
        <time>2022-07-28T12:23:59Z</time>
      </trkpt>
      <trkpt lat="45.68717" lon="6.46275">
        <ele>1738</ele>
        <time>2022-07-28T12:24:00Z</time>
      </trkpt>
      <trkpt lat="45.68718" lon="6.46273">
        <ele>1738</ele>
        <time>2022-07-28T12:24:01Z</time>
      </trkpt>
      <trkpt lat="45.68718" lon="6.46272">
        <ele>1737</ele>
        <time>2022-07-28T12:24:02Z</time>
      </trkpt>
      <trkpt lat="45.68718" lon="6.4627">
        <ele>1737</ele>
        <time>2022-07-28T12:24:03Z</time>
      </trkpt>
      <trkpt lat="45.68718" lon="6.46269">
        <ele>1737</ele>
        <time>2022-07-28T12:24:04Z</time>
      </trkpt>
      <trkpt lat="45.68719" lon="6.46267">
        <ele>1737</ele>
        <time>2022-07-28T12:24:05Z</time>
      </trkpt>
      <trkpt lat="45.68719" lon="6.46266">
        <ele>1737</ele>
        <time>2022-07-28T12:24:06Z</time>
      </trkpt>
      <trkpt lat="45.68719" lon="6.46265">
        <ele>1737</ele>
        <time>2022-07-28T12:24:07Z</time>
      </trkpt>
      <trkpt lat="45.6872" lon="6.46264">
        <ele>1737</ele>
        <time>2022-07-28T12:24:08Z</time>
      </trkpt>
      <trkpt lat="45.6872" lon="6.46263">
        <ele>1737</ele>
        <time>2022-07-28T12:24:09Z</time>
      </trkpt>
      <trkpt lat="45.68721" lon="6.46262">
        <ele>1737</ele>
        <time>2022-07-28T12:24:10Z</time>
      </trkpt>
      <trkpt lat="45.68721" lon="6.46261">
        <ele>1737</ele>
        <time>2022-07-28T12:24:11Z</time>
      </trkpt>
      <trkpt lat="45.68721" lon="6.4626">
        <ele>1736</ele>
        <time>2022-07-28T12:24:12Z</time>
      </trkpt>
      <trkpt lat="45.68722" lon="6.46259">
        <ele>1736</ele>
        <time>2022-07-28T12:24:13Z</time>
      </trkpt>
      <trkpt lat="45.68722" lon="6.46259">
        <ele>1736</ele>
        <time>2022-07-28T12:24:14Z</time>
      </trkpt>
      <trkpt lat="45.68723" lon="6.46258">
        <ele>1736</ele>
        <time>2022-07-28T12:24:15Z</time>
      </trkpt>
      <trkpt lat="45.68724" lon="6.46257">
        <ele>1736</ele>
        <time>2022-07-28T12:24:16Z</time>
      </trkpt>
      <trkpt lat="45.68724" lon="6.46256">
        <ele>1735</ele>
        <time>2022-07-28T12:24:17Z</time>
      </trkpt>
      <trkpt lat="45.68725" lon="6.46256">
        <ele>1735</ele>
        <time>2022-07-28T12:24:18Z</time>
      </trkpt>
      <trkpt lat="45.68726" lon="6.46255">
        <ele>1735</ele>
        <time>2022-07-28T12:24:19Z</time>
      </trkpt>
      <trkpt lat="45.68727" lon="6.46255">
        <ele>1735</ele>
        <time>2022-07-28T12:24:20Z</time>
      </trkpt>
      <trkpt lat="45.68728" lon="6.46254">
        <ele>1735</ele>
        <time>2022-07-28T12:24:21Z</time>
      </trkpt>
      <trkpt lat="45.68729" lon="6.46253">
        <ele>1735</ele>
        <time>2022-07-28T12:24:22Z</time>
      </trkpt>
      <trkpt lat="45.6873" lon="6.46252">
        <ele>1735</ele>
        <time>2022-07-28T12:24:23Z</time>
      </trkpt>
      <trkpt lat="45.68731" lon="6.46252">
        <ele>1735</ele>
        <time>2022-07-28T12:24:24Z</time>
      </trkpt>
      <trkpt lat="45.68732" lon="6.46251">
        <ele>1735</ele>
        <time>2022-07-28T12:24:25Z</time>
      </trkpt>
      <trkpt lat="45.68732" lon="6.4625">
        <ele>1735</ele>
        <time>2022-07-28T12:24:26Z</time>
      </trkpt>
      <trkpt lat="45.68733" lon="6.46249">
        <ele>1734</ele>
        <time>2022-07-28T12:24:27Z</time>
      </trkpt>
      <trkpt lat="45.68734" lon="6.46248">
        <ele>1734</ele>
        <time>2022-07-28T12:24:28Z</time>
      </trkpt>
      <trkpt lat="45.68735" lon="6.46247">
        <ele>1734</ele>
        <time>2022-07-28T12:24:29Z</time>
      </trkpt>
      <trkpt lat="45.68736" lon="6.46246">
        <ele>1734</ele>
        <time>2022-07-28T12:24:30Z</time>
      </trkpt>
      <trkpt lat="45.68737" lon="6.46245">
        <ele>1734</ele>
        <time>2022-07-28T12:24:31Z</time>
      </trkpt>
      <trkpt lat="45.68738" lon="6.46244">
        <ele>1733</ele>
        <time>2022-07-28T12:24:32Z</time>
      </trkpt>
      <trkpt lat="45.68739" lon="6.46243">
        <ele>1733</ele>
        <time>2022-07-28T12:24:33Z</time>
      </trkpt>
      <trkpt lat="45.68739" lon="6.46242">
        <ele>1732</ele>
        <time>2022-07-28T12:24:34Z</time>
      </trkpt>
      <trkpt lat="45.6874" lon="6.46241">
        <ele>1732</ele>
        <time>2022-07-28T12:24:35Z</time>
      </trkpt>
      <trkpt lat="45.68741" lon="6.4624">
        <ele>1732</ele>
        <time>2022-07-28T12:24:36Z</time>
      </trkpt>
      <trkpt lat="45.68741" lon="6.46239">
        <ele>1731</ele>
        <time>2022-07-28T12:24:37Z</time>
      </trkpt>
      <trkpt lat="45.68742" lon="6.46237">
        <ele>1731</ele>
        <time>2022-07-28T12:24:38Z</time>
      </trkpt>
      <trkpt lat="45.68742" lon="6.46236">
        <ele>1731</ele>
        <time>2022-07-28T12:24:39Z</time>
      </trkpt>
      <trkpt lat="45.68743" lon="6.46235">
        <ele>1731</ele>
        <time>2022-07-28T12:24:40Z</time>
      </trkpt>
      <trkpt lat="45.68743" lon="6.46233">
        <ele>1731</ele>
        <time>2022-07-28T12:24:41Z</time>
      </trkpt>
      <trkpt lat="45.68744" lon="6.46232">
        <ele>1731</ele>
        <time>2022-07-28T12:24:42Z</time>
      </trkpt>
      <trkpt lat="45.68744" lon="6.46231">
        <ele>1731</ele>
        <time>2022-07-28T12:24:43Z</time>
      </trkpt>
      <trkpt lat="45.68745" lon="6.46229">
        <ele>1731</ele>
        <time>2022-07-28T12:24:44Z</time>
      </trkpt>
      <trkpt lat="45.68745" lon="6.46228">
        <ele>1731</ele>
        <time>2022-07-28T12:24:45Z</time>
      </trkpt>
      <trkpt lat="45.68745" lon="6.46226">
        <ele>1731</ele>
        <time>2022-07-28T12:24:46Z</time>
      </trkpt>
      <trkpt lat="45.68746" lon="6.46225">
        <ele>1730</ele>
        <time>2022-07-28T12:24:47Z</time>
      </trkpt>
      <trkpt lat="45.68746" lon="6.46223">
        <ele>1730</ele>
        <time>2022-07-28T12:24:48Z</time>
      </trkpt>
      <trkpt lat="45.68747" lon="6.46222">
        <ele>1730</ele>
        <time>2022-07-28T12:24:49Z</time>
      </trkpt>
      <trkpt lat="45.68747" lon="6.4622">
        <ele>1730</ele>
        <time>2022-07-28T12:24:50Z</time>
      </trkpt>
      <trkpt lat="45.68748" lon="6.46219">
        <ele>1730</ele>
        <time>2022-07-28T12:24:51Z</time>
      </trkpt>
      <trkpt lat="45.68748" lon="6.46217">
        <ele>1729</ele>
        <time>2022-07-28T12:24:52Z</time>
      </trkpt>
      <trkpt lat="45.68749" lon="6.46216">
        <ele>1729</ele>
        <time>2022-07-28T12:24:53Z</time>
      </trkpt>
      <trkpt lat="45.68749" lon="6.46215">
        <ele>1729</ele>
        <time>2022-07-28T12:24:54Z</time>
      </trkpt>
      <trkpt lat="45.6875" lon="6.46213">
        <ele>1729</ele>
        <time>2022-07-28T12:24:55Z</time>
      </trkpt>
      <trkpt lat="45.68751" lon="6.46212">
        <ele>1729</ele>
        <time>2022-07-28T12:24:56Z</time>
      </trkpt>
      <trkpt lat="45.68751" lon="6.4621">
        <ele>1729</ele>
        <time>2022-07-28T12:24:57Z</time>
      </trkpt>
      <trkpt lat="45.68752" lon="6.46209">
        <ele>1729</ele>
        <time>2022-07-28T12:24:58Z</time>
      </trkpt>
      <trkpt lat="45.68752" lon="6.46208">
        <ele>1729</ele>
        <time>2022-07-28T12:24:59Z</time>
      </trkpt>
      <trkpt lat="45.68753" lon="6.46206">
        <ele>1729</ele>
        <time>2022-07-28T12:25:00Z</time>
      </trkpt>
      <trkpt lat="45.68753" lon="6.46205">
        <ele>1729</ele>
        <time>2022-07-28T12:25:01Z</time>
      </trkpt>
      <trkpt lat="45.68754" lon="6.46204">
        <ele>1729</ele>
        <time>2022-07-28T12:25:02Z</time>
      </trkpt>
      <trkpt lat="45.68754" lon="6.46203">
        <ele>1729</ele>
        <time>2022-07-28T12:25:03Z</time>
      </trkpt>
      <trkpt lat="45.68755" lon="6.46202">
        <ele>1729</ele>
        <time>2022-07-28T12:25:04Z</time>
      </trkpt>
      <trkpt lat="45.68755" lon="6.46201">
        <ele>1729</ele>
        <time>2022-07-28T12:25:05Z</time>
      </trkpt>
      <trkpt lat="45.68755" lon="6.462">
        <ele>1729</ele>
        <time>2022-07-28T12:25:06Z</time>
      </trkpt>
      <trkpt lat="45.68755" lon="6.462">
        <ele>1728</ele>
        <time>2022-07-28T12:25:07Z</time>
      </trkpt>
      <trkpt lat="45.68756" lon="6.46199">
        <ele>1728</ele>
        <time>2022-07-28T12:25:08Z</time>
      </trkpt>
      <trkpt lat="45.68756" lon="6.46198">
        <ele>1728</ele>
        <time>2022-07-28T12:25:09Z</time>
      </trkpt>
      <trkpt lat="45.68757" lon="6.46196">
        <ele>1728</ele>
        <time>2022-07-28T12:25:10Z</time>
      </trkpt>
      <trkpt lat="45.68757" lon="6.46195">
        <ele>1728</ele>
        <time>2022-07-28T12:25:11Z</time>
      </trkpt>
      <trkpt lat="45.68758" lon="6.46194">
        <ele>1728</ele>
        <time>2022-07-28T12:25:12Z</time>
      </trkpt>
      <trkpt lat="45.68759" lon="6.46193">
        <ele>1728</ele>
        <time>2022-07-28T12:25:13Z</time>
      </trkpt>
      <trkpt lat="45.68759" lon="6.46191">
        <ele>1728</ele>
        <time>2022-07-28T12:25:14Z</time>
      </trkpt>
      <trkpt lat="45.6876" lon="6.4619">
        <ele>1728</ele>
        <time>2022-07-28T12:25:15Z</time>
      </trkpt>
      <trkpt lat="45.6876" lon="6.46189">
        <ele>1728</ele>
        <time>2022-07-28T12:25:16Z</time>
      </trkpt>
      <trkpt lat="45.68761" lon="6.46188">
        <ele>1728</ele>
        <time>2022-07-28T12:25:17Z</time>
      </trkpt>
      <trkpt lat="45.68761" lon="6.46187">
        <ele>1728</ele>
        <time>2022-07-28T12:25:18Z</time>
      </trkpt>
      <trkpt lat="45.68761" lon="6.46186">
        <ele>1728</ele>
        <time>2022-07-28T12:25:19Z</time>
      </trkpt>
      <trkpt lat="45.68762" lon="6.46185">
        <ele>1728</ele>
        <time>2022-07-28T12:25:20Z</time>
      </trkpt>
      <trkpt lat="45.68762" lon="6.46184">
        <ele>1728</ele>
        <time>2022-07-28T12:25:21Z</time>
      </trkpt>
      <trkpt lat="45.68762" lon="6.46183">
        <ele>1728</ele>
        <time>2022-07-28T12:25:22Z</time>
      </trkpt>
      <trkpt lat="45.68763" lon="6.46183">
        <ele>1728</ele>
        <time>2022-07-28T12:25:23Z</time>
      </trkpt>
      <trkpt lat="45.68763" lon="6.46182">
        <ele>1728</ele>
        <time>2022-07-28T12:25:24Z</time>
      </trkpt>
      <trkpt lat="45.68764" lon="6.46182">
        <ele>1728</ele>
        <time>2022-07-28T12:25:25Z</time>
      </trkpt>
      <trkpt lat="45.68765" lon="6.46181">
        <ele>1728</ele>
        <time>2022-07-28T12:25:26Z</time>
      </trkpt>
      <trkpt lat="45.68766" lon="6.4618">
        <ele>1728</ele>
        <time>2022-07-28T12:25:27Z</time>
      </trkpt>
      <trkpt lat="45.68767" lon="6.46179">
        <ele>1728</ele>
        <time>2022-07-28T12:25:28Z</time>
      </trkpt>
      <trkpt lat="45.68768" lon="6.46178">
        <ele>1728</ele>
        <time>2022-07-28T12:25:29Z</time>
      </trkpt>
      <trkpt lat="45.68768" lon="6.46177">
        <ele>1728</ele>
        <time>2022-07-28T12:25:30Z</time>
      </trkpt>
      <trkpt lat="45.68769" lon="6.46176">
        <ele>1728</ele>
        <time>2022-07-28T12:25:31Z</time>
      </trkpt>
      <trkpt lat="45.68769" lon="6.46175">
        <ele>1728</ele>
        <time>2022-07-28T12:25:32Z</time>
      </trkpt>
      <trkpt lat="45.68769" lon="6.46174">
        <ele>1728</ele>
        <time>2022-07-28T12:25:33Z</time>
      </trkpt>
      <trkpt lat="45.6877" lon="6.46173">
        <ele>1728</ele>
        <time>2022-07-28T12:25:34Z</time>
      </trkpt>
      <trkpt lat="45.6877" lon="6.46172">
        <ele>1728</ele>
        <time>2022-07-28T12:25:35Z</time>
      </trkpt>
      <trkpt lat="45.6877" lon="6.4617">
        <ele>1728</ele>
        <time>2022-07-28T12:25:36Z</time>
      </trkpt>
      <trkpt lat="45.6877" lon="6.46169">
        <ele>1728</ele>
        <time>2022-07-28T12:25:37Z</time>
      </trkpt>
      <trkpt lat="45.68771" lon="6.46168">
        <ele>1728</ele>
        <time>2022-07-28T12:25:38Z</time>
      </trkpt>
      <trkpt lat="45.68771" lon="6.46167">
        <ele>1728</ele>
        <time>2022-07-28T12:25:39Z</time>
      </trkpt>
      <trkpt lat="45.68771" lon="6.46166">
        <ele>1728</ele>
        <time>2022-07-28T12:25:40Z</time>
      </trkpt>
      <trkpt lat="45.68771" lon="6.46165">
        <ele>1728</ele>
        <time>2022-07-28T12:25:41Z</time>
      </trkpt>
      <trkpt lat="45.68772" lon="6.46163">
        <ele>1727</ele>
        <time>2022-07-28T12:25:42Z</time>
      </trkpt>
      <trkpt lat="45.68773" lon="6.46162">
        <ele>1727</ele>
        <time>2022-07-28T12:25:43Z</time>
      </trkpt>
      <trkpt lat="45.68774" lon="6.46161">
        <ele>1727</ele>
        <time>2022-07-28T12:25:44Z</time>
      </trkpt>
      <trkpt lat="45.68774" lon="6.46159">
        <ele>1727</ele>
        <time>2022-07-28T12:25:45Z</time>
      </trkpt>
      <trkpt lat="45.68775" lon="6.46158">
        <ele>1727</ele>
        <time>2022-07-28T12:25:46Z</time>
      </trkpt>
      <trkpt lat="45.68776" lon="6.46156">
        <ele>1727</ele>
        <time>2022-07-28T12:25:47Z</time>
      </trkpt>
      <trkpt lat="45.68777" lon="6.46155">
        <ele>1727</ele>
        <time>2022-07-28T12:25:48Z</time>
      </trkpt>
      <trkpt lat="45.68777" lon="6.46154">
        <ele>1727</ele>
        <time>2022-07-28T12:25:49Z</time>
      </trkpt>
      <trkpt lat="45.68778" lon="6.46152">
        <ele>1727</ele>
        <time>2022-07-28T12:25:50Z</time>
      </trkpt>
      <trkpt lat="45.68779" lon="6.46151">
        <ele>1727</ele>
        <time>2022-07-28T12:25:51Z</time>
      </trkpt>
      <trkpt lat="45.68779" lon="6.4615">
        <ele>1726</ele>
        <time>2022-07-28T12:25:52Z</time>
      </trkpt>
      <trkpt lat="45.6878" lon="6.46149">
        <ele>1726</ele>
        <time>2022-07-28T12:25:53Z</time>
      </trkpt>
      <trkpt lat="45.6878" lon="6.46149">
        <ele>1726</ele>
        <time>2022-07-28T12:25:54Z</time>
      </trkpt>
      <trkpt lat="45.68781" lon="6.46148">
        <ele>1726</ele>
        <time>2022-07-28T12:25:55Z</time>
      </trkpt>
      <trkpt lat="45.68782" lon="6.46147">
        <ele>1726</ele>
        <time>2022-07-28T12:25:56Z</time>
      </trkpt>
      <trkpt lat="45.68782" lon="6.46146">
        <ele>1725</ele>
        <time>2022-07-28T12:25:57Z</time>
      </trkpt>
      <trkpt lat="45.68783" lon="6.46146">
        <ele>1725</ele>
        <time>2022-07-28T12:25:58Z</time>
      </trkpt>
      <trkpt lat="45.68784" lon="6.46145">
        <ele>1725</ele>
        <time>2022-07-28T12:25:59Z</time>
      </trkpt>
      <trkpt lat="45.68785" lon="6.46145">
        <ele>1725</ele>
        <time>2022-07-28T12:26:00Z</time>
      </trkpt>
      <trkpt lat="45.68786" lon="6.46144">
        <ele>1725</ele>
        <time>2022-07-28T12:26:01Z</time>
      </trkpt>
      <trkpt lat="45.68787" lon="6.46144">
        <ele>1724</ele>
        <time>2022-07-28T12:26:02Z</time>
      </trkpt>
      <trkpt lat="45.68788" lon="6.46143">
        <ele>1724</ele>
        <time>2022-07-28T12:26:03Z</time>
      </trkpt>
      <trkpt lat="45.68789" lon="6.46143">
        <ele>1724</ele>
        <time>2022-07-28T12:26:04Z</time>
      </trkpt>
      <trkpt lat="45.6879" lon="6.46142">
        <ele>1724</ele>
        <time>2022-07-28T12:26:05Z</time>
      </trkpt>
      <trkpt lat="45.68791" lon="6.46141">
        <ele>1724</ele>
        <time>2022-07-28T12:26:06Z</time>
      </trkpt>
      <trkpt lat="45.68792" lon="6.4614">
        <ele>1723</ele>
        <time>2022-07-28T12:26:07Z</time>
      </trkpt>
      <trkpt lat="45.68793" lon="6.46139">
        <ele>1723</ele>
        <time>2022-07-28T12:26:08Z</time>
      </trkpt>
      <trkpt lat="45.68794" lon="6.46137">
        <ele>1723</ele>
        <time>2022-07-28T12:26:09Z</time>
      </trkpt>
      <trkpt lat="45.68795" lon="6.46136">
        <ele>1723</ele>
        <time>2022-07-28T12:26:10Z</time>
      </trkpt>
      <trkpt lat="45.68796" lon="6.46134">
        <ele>1723</ele>
        <time>2022-07-28T12:26:11Z</time>
      </trkpt>
      <trkpt lat="45.68796" lon="6.46133">
        <ele>1722</ele>
        <time>2022-07-28T12:26:12Z</time>
      </trkpt>
      <trkpt lat="45.68797" lon="6.46132">
        <ele>1722</ele>
        <time>2022-07-28T12:26:13Z</time>
      </trkpt>
      <trkpt lat="45.68798" lon="6.4613">
        <ele>1722</ele>
        <time>2022-07-28T12:26:14Z</time>
      </trkpt>
      <trkpt lat="45.68799" lon="6.46129">
        <ele>1722</ele>
        <time>2022-07-28T12:26:15Z</time>
      </trkpt>
      <trkpt lat="45.688" lon="6.46127">
        <ele>1722</ele>
        <time>2022-07-28T12:26:16Z</time>
      </trkpt>
      <trkpt lat="45.68801" lon="6.46126">
        <ele>1721</ele>
        <time>2022-07-28T12:26:17Z</time>
      </trkpt>
      <trkpt lat="45.68802" lon="6.46125">
        <ele>1721</ele>
        <time>2022-07-28T12:26:18Z</time>
      </trkpt>
      <trkpt lat="45.68803" lon="6.46124">
        <ele>1721</ele>
        <time>2022-07-28T12:26:19Z</time>
      </trkpt>
      <trkpt lat="45.68804" lon="6.46123">
        <ele>1721</ele>
        <time>2022-07-28T12:26:20Z</time>
      </trkpt>
      <trkpt lat="45.68804" lon="6.46121">
        <ele>1721</ele>
        <time>2022-07-28T12:26:21Z</time>
      </trkpt>
      <trkpt lat="45.68805" lon="6.4612">
        <ele>1721</ele>
        <time>2022-07-28T12:26:22Z</time>
      </trkpt>
      <trkpt lat="45.68806" lon="6.46119">
        <ele>1721</ele>
        <time>2022-07-28T12:26:23Z</time>
      </trkpt>
      <trkpt lat="45.68807" lon="6.46118">
        <ele>1721</ele>
        <time>2022-07-28T12:26:24Z</time>
      </trkpt>
      <trkpt lat="45.68808" lon="6.46117">
        <ele>1721</ele>
        <time>2022-07-28T12:26:25Z</time>
      </trkpt>
      <trkpt lat="45.68808" lon="6.46116">
        <ele>1721</ele>
        <time>2022-07-28T12:26:26Z</time>
      </trkpt>
      <trkpt lat="45.68809" lon="6.46115">
        <ele>1720</ele>
        <time>2022-07-28T12:26:27Z</time>
      </trkpt>
      <trkpt lat="45.6881" lon="6.46115">
        <ele>1720</ele>
        <time>2022-07-28T12:26:28Z</time>
      </trkpt>
      <trkpt lat="45.68811" lon="6.46114">
        <ele>1720</ele>
        <time>2022-07-28T12:26:29Z</time>
      </trkpt>
      <trkpt lat="45.68812" lon="6.46113">
        <ele>1720</ele>
        <time>2022-07-28T12:26:30Z</time>
      </trkpt>
      <trkpt lat="45.68813" lon="6.46113">
        <ele>1720</ele>
        <time>2022-07-28T12:26:31Z</time>
      </trkpt>
      <trkpt lat="45.68815" lon="6.46112">
        <ele>1720</ele>
        <time>2022-07-28T12:26:32Z</time>
      </trkpt>
      <trkpt lat="45.68816" lon="6.46112">
        <ele>1720</ele>
        <time>2022-07-28T12:26:33Z</time>
      </trkpt>
      <trkpt lat="45.68817" lon="6.46112">
        <ele>1720</ele>
        <time>2022-07-28T12:26:34Z</time>
      </trkpt>
      <trkpt lat="45.68818" lon="6.46111">
        <ele>1720</ele>
        <time>2022-07-28T12:26:35Z</time>
      </trkpt>
      <trkpt lat="45.6882" lon="6.46111">
        <ele>1720</ele>
        <time>2022-07-28T12:26:36Z</time>
      </trkpt>
      <trkpt lat="45.68821" lon="6.46111">
        <ele>1720</ele>
        <time>2022-07-28T12:26:37Z</time>
      </trkpt>
      <trkpt lat="45.68822" lon="6.4611">
        <ele>1720</ele>
        <time>2022-07-28T12:26:38Z</time>
      </trkpt>
      <trkpt lat="45.68823" lon="6.4611">
        <ele>1720</ele>
        <time>2022-07-28T12:26:39Z</time>
      </trkpt>
      <trkpt lat="45.68825" lon="6.4611">
        <ele>1720</ele>
        <time>2022-07-28T12:26:40Z</time>
      </trkpt>
      <trkpt lat="45.68826" lon="6.46109">
        <ele>1720</ele>
        <time>2022-07-28T12:26:41Z</time>
      </trkpt>
      <trkpt lat="45.68827" lon="6.46108">
        <ele>1720</ele>
        <time>2022-07-28T12:26:42Z</time>
      </trkpt>
      <trkpt lat="45.68828" lon="6.46108">
        <ele>1720</ele>
        <time>2022-07-28T12:26:43Z</time>
      </trkpt>
      <trkpt lat="45.6883" lon="6.46107">
        <ele>1720</ele>
        <time>2022-07-28T12:26:44Z</time>
      </trkpt>
      <trkpt lat="45.68831" lon="6.46107">
        <ele>1720</ele>
        <time>2022-07-28T12:26:45Z</time>
      </trkpt>
      <trkpt lat="45.68832" lon="6.46107">
        <ele>1720</ele>
        <time>2022-07-28T12:26:46Z</time>
      </trkpt>
      <trkpt lat="45.68833" lon="6.46107">
        <ele>1720</ele>
        <time>2022-07-28T12:26:47Z</time>
      </trkpt>
      <trkpt lat="45.68834" lon="6.46107">
        <ele>1720</ele>
        <time>2022-07-28T12:26:48Z</time>
      </trkpt>
      <trkpt lat="45.68835" lon="6.46107">
        <ele>1720</ele>
        <time>2022-07-28T12:26:49Z</time>
      </trkpt>
      <trkpt lat="45.68836" lon="6.46107">
        <ele>1720</ele>
        <time>2022-07-28T12:26:50Z</time>
      </trkpt>
      <trkpt lat="45.68837" lon="6.46107">
        <ele>1720</ele>
        <time>2022-07-28T12:26:51Z</time>
      </trkpt>
      <trkpt lat="45.68838" lon="6.46108">
        <ele>1720</ele>
        <time>2022-07-28T12:26:52Z</time>
      </trkpt>
      <trkpt lat="45.68839" lon="6.46108">
        <ele>1720</ele>
        <time>2022-07-28T12:26:53Z</time>
      </trkpt>
      <trkpt lat="45.6884" lon="6.46109">
        <ele>1720</ele>
        <time>2022-07-28T12:26:54Z</time>
      </trkpt>
      <trkpt lat="45.68841" lon="6.46109">
        <ele>1720</ele>
        <time>2022-07-28T12:26:55Z</time>
      </trkpt>
      <trkpt lat="45.68842" lon="6.4611">
        <ele>1721</ele>
        <time>2022-07-28T12:26:56Z</time>
      </trkpt>
      <trkpt lat="45.68843" lon="6.4611">
        <ele>1721</ele>
        <time>2022-07-28T12:26:57Z</time>
      </trkpt>
      <trkpt lat="45.68844" lon="6.46111">
        <ele>1721</ele>
        <time>2022-07-28T12:26:58Z</time>
      </trkpt>
      <trkpt lat="45.68844" lon="6.46112">
        <ele>1721</ele>
        <time>2022-07-28T12:26:59Z</time>
      </trkpt>
      <trkpt lat="45.68845" lon="6.46112">
        <ele>1721</ele>
        <time>2022-07-28T12:27:00Z</time>
      </trkpt>
      <trkpt lat="45.68846" lon="6.46113">
        <ele>1721</ele>
        <time>2022-07-28T12:27:01Z</time>
      </trkpt>
      <trkpt lat="45.68847" lon="6.46114">
        <ele>1721</ele>
        <time>2022-07-28T12:27:02Z</time>
      </trkpt>
      <trkpt lat="45.68847" lon="6.46115">
        <ele>1721</ele>
        <time>2022-07-28T12:27:03Z</time>
      </trkpt>
      <trkpt lat="45.68848" lon="6.46115">
        <ele>1721</ele>
        <time>2022-07-28T12:27:04Z</time>
      </trkpt>
      <trkpt lat="45.68849" lon="6.46116">
        <ele>1721</ele>
        <time>2022-07-28T12:27:05Z</time>
      </trkpt>
      <trkpt lat="45.68849" lon="6.46116">
        <ele>1722</ele>
        <time>2022-07-28T12:27:06Z</time>
      </trkpt>
      <trkpt lat="45.6885" lon="6.46116">
        <ele>1722</ele>
        <time>2022-07-28T12:27:07Z</time>
      </trkpt>
      <trkpt lat="45.68851" lon="6.46117">
        <ele>1722</ele>
        <time>2022-07-28T12:27:08Z</time>
      </trkpt>
      <trkpt lat="45.68852" lon="6.46117">
        <ele>1722</ele>
        <time>2022-07-28T12:27:09Z</time>
      </trkpt>
      <trkpt lat="45.68853" lon="6.46118">
        <ele>1722</ele>
        <time>2022-07-28T12:27:10Z</time>
      </trkpt>
      <trkpt lat="45.68853" lon="6.46118">
        <ele>1723</ele>
        <time>2022-07-28T12:27:11Z</time>
      </trkpt>
      <trkpt lat="45.68854" lon="6.46119">
        <ele>1723</ele>
        <time>2022-07-28T12:27:12Z</time>
      </trkpt>
      <trkpt lat="45.68855" lon="6.46119">
        <ele>1723</ele>
        <time>2022-07-28T12:27:13Z</time>
      </trkpt>
      <trkpt lat="45.68856" lon="6.4612">
        <ele>1723</ele>
        <time>2022-07-28T12:27:14Z</time>
      </trkpt>
      <trkpt lat="45.68857" lon="6.4612">
        <ele>1723</ele>
        <time>2022-07-28T12:27:15Z</time>
      </trkpt>
      <trkpt lat="45.68858" lon="6.4612">
        <ele>1724</ele>
        <time>2022-07-28T12:27:16Z</time>
      </trkpt>
      <trkpt lat="45.68858" lon="6.4612">
        <ele>1724</ele>
        <time>2022-07-28T12:27:17Z</time>
      </trkpt>
      <trkpt lat="45.68859" lon="6.46121">
        <ele>1724</ele>
        <time>2022-07-28T12:27:18Z</time>
      </trkpt>
      <trkpt lat="45.6886" lon="6.46121">
        <ele>1724</ele>
        <time>2022-07-28T12:27:19Z</time>
      </trkpt>
      <trkpt lat="45.68861" lon="6.46121">
        <ele>1724</ele>
        <time>2022-07-28T12:27:20Z</time>
      </trkpt>
      <trkpt lat="45.68862" lon="6.46121">
        <ele>1725</ele>
        <time>2022-07-28T12:27:21Z</time>
      </trkpt>
      <trkpt lat="45.68863" lon="6.46122">
        <ele>1725</ele>
        <time>2022-07-28T12:27:22Z</time>
      </trkpt>
      <trkpt lat="45.68864" lon="6.46122">
        <ele>1725</ele>
        <time>2022-07-28T12:27:23Z</time>
      </trkpt>
      <trkpt lat="45.68864" lon="6.46122">
        <ele>1725</ele>
        <time>2022-07-28T12:27:24Z</time>
      </trkpt>
      <trkpt lat="45.68865" lon="6.46123">
        <ele>1725</ele>
        <time>2022-07-28T12:27:25Z</time>
      </trkpt>
      <trkpt lat="45.68866" lon="6.46123">
        <ele>1726</ele>
        <time>2022-07-28T12:27:26Z</time>
      </trkpt>
      <trkpt lat="45.68867" lon="6.46123">
        <ele>1726</ele>
        <time>2022-07-28T12:27:27Z</time>
      </trkpt>
      <trkpt lat="45.68868" lon="6.46124">
        <ele>1726</ele>
        <time>2022-07-28T12:27:28Z</time>
      </trkpt>
      <trkpt lat="45.68868" lon="6.46124">
        <ele>1726</ele>
        <time>2022-07-28T12:27:29Z</time>
      </trkpt>
      <trkpt lat="45.68869" lon="6.46124">
        <ele>1726</ele>
        <time>2022-07-28T12:27:30Z</time>
      </trkpt>
      <trkpt lat="45.6887" lon="6.46125">
        <ele>1727</ele>
        <time>2022-07-28T12:27:31Z</time>
      </trkpt>
      <trkpt lat="45.68871" lon="6.46125">
        <ele>1727</ele>
        <time>2022-07-28T12:27:32Z</time>
      </trkpt>
      <trkpt lat="45.68872" lon="6.46125">
        <ele>1727</ele>
        <time>2022-07-28T12:27:33Z</time>
      </trkpt>
      <trkpt lat="45.68873" lon="6.46125">
        <ele>1727</ele>
        <time>2022-07-28T12:27:34Z</time>
      </trkpt>
      <trkpt lat="45.68874" lon="6.46125">
        <ele>1727</ele>
        <time>2022-07-28T12:27:35Z</time>
      </trkpt>
      <trkpt lat="45.68874" lon="6.46125">
        <ele>1728</ele>
        <time>2022-07-28T12:27:36Z</time>
      </trkpt>
      <trkpt lat="45.68875" lon="6.46125">
        <ele>1728</ele>
        <time>2022-07-28T12:27:37Z</time>
      </trkpt>
      <trkpt lat="45.68876" lon="6.46125">
        <ele>1728</ele>
        <time>2022-07-28T12:27:38Z</time>
      </trkpt>
      <trkpt lat="45.68877" lon="6.46125">
        <ele>1728</ele>
        <time>2022-07-28T12:27:39Z</time>
      </trkpt>
      <trkpt lat="45.68878" lon="6.46125">
        <ele>1728</ele>
        <time>2022-07-28T12:27:40Z</time>
      </trkpt>
      <trkpt lat="45.68879" lon="6.46124">
        <ele>1729</ele>
        <time>2022-07-28T12:27:41Z</time>
      </trkpt>
      <trkpt lat="45.6888" lon="6.46124">
        <ele>1729</ele>
        <time>2022-07-28T12:27:42Z</time>
      </trkpt>
      <trkpt lat="45.68881" lon="6.46123">
        <ele>1729</ele>
        <time>2022-07-28T12:27:43Z</time>
      </trkpt>
      <trkpt lat="45.68881" lon="6.46123">
        <ele>1729</ele>
        <time>2022-07-28T12:27:44Z</time>
      </trkpt>
      <trkpt lat="45.68882" lon="6.46122">
        <ele>1729</ele>
        <time>2022-07-28T12:27:45Z</time>
      </trkpt>
      <trkpt lat="45.68882" lon="6.46122">
        <ele>1730</ele>
        <time>2022-07-28T12:27:46Z</time>
      </trkpt>
      <trkpt lat="45.68883" lon="6.46122">
        <ele>1730</ele>
        <time>2022-07-28T12:27:47Z</time>
      </trkpt>
      <trkpt lat="45.68883" lon="6.46122">
        <ele>1730</ele>
        <time>2022-07-28T12:27:48Z</time>
      </trkpt>
      <trkpt lat="45.68883" lon="6.46122">
        <ele>1730</ele>
        <time>2022-07-28T12:27:49Z</time>
      </trkpt>
      <trkpt lat="45.68883" lon="6.46121">
        <ele>1730</ele>
        <time>2022-07-28T12:27:50Z</time>
      </trkpt>
      <trkpt lat="45.68884" lon="6.46121">
        <ele>1730</ele>
        <time>2022-07-28T12:27:51Z</time>
      </trkpt>
      <trkpt lat="45.68885" lon="6.46121">
        <ele>1730</ele>
        <time>2022-07-28T12:27:52Z</time>
      </trkpt>
      <trkpt lat="45.68885" lon="6.4612">
        <ele>1730</ele>
        <time>2022-07-28T12:27:53Z</time>
      </trkpt>
      <trkpt lat="45.68886" lon="6.4612">
        <ele>1730</ele>
        <time>2022-07-28T12:27:54Z</time>
      </trkpt>
      <trkpt lat="45.68887" lon="6.46119">
        <ele>1730</ele>
        <time>2022-07-28T12:27:55Z</time>
      </trkpt>
      <trkpt lat="45.68888" lon="6.46119">
        <ele>1730</ele>
        <time>2022-07-28T12:27:56Z</time>
      </trkpt>
      <trkpt lat="45.68889" lon="6.46118">
        <ele>1730</ele>
        <time>2022-07-28T12:27:57Z</time>
      </trkpt>
      <trkpt lat="45.6889" lon="6.46118">
        <ele>1730</ele>
        <time>2022-07-28T12:27:58Z</time>
      </trkpt>
      <trkpt lat="45.68891" lon="6.46117">
        <ele>1730</ele>
        <time>2022-07-28T12:27:59Z</time>
      </trkpt>
      <trkpt lat="45.68892" lon="6.46117">
        <ele>1730</ele>
        <time>2022-07-28T12:28:00Z</time>
      </trkpt>
      <trkpt lat="45.68893" lon="6.46116">
        <ele>1731</ele>
        <time>2022-07-28T12:28:01Z</time>
      </trkpt>
      <trkpt lat="45.68894" lon="6.46116">
        <ele>1731</ele>
        <time>2022-07-28T12:28:02Z</time>
      </trkpt>
      <trkpt lat="45.68895" lon="6.46115">
        <ele>1731</ele>
        <time>2022-07-28T12:28:03Z</time>
      </trkpt>
      <trkpt lat="45.68897" lon="6.46114">
        <ele>1731</ele>
        <time>2022-07-28T12:28:04Z</time>
      </trkpt>
      <trkpt lat="45.68898" lon="6.46113">
        <ele>1731</ele>
        <time>2022-07-28T12:28:05Z</time>
      </trkpt>
      <trkpt lat="45.68899" lon="6.46113">
        <ele>1731</ele>
        <time>2022-07-28T12:28:06Z</time>
      </trkpt>
      <trkpt lat="45.689" lon="6.46112">
        <ele>1731</ele>
        <time>2022-07-28T12:28:07Z</time>
      </trkpt>
      <trkpt lat="45.68901" lon="6.46111">
        <ele>1731</ele>
        <time>2022-07-28T12:28:08Z</time>
      </trkpt>
      <trkpt lat="45.68902" lon="6.46111">
        <ele>1731</ele>
        <time>2022-07-28T12:28:09Z</time>
      </trkpt>
      <trkpt lat="45.68903" lon="6.4611">
        <ele>1731</ele>
        <time>2022-07-28T12:28:10Z</time>
      </trkpt>
      <trkpt lat="45.68904" lon="6.4611">
        <ele>1731</ele>
        <time>2022-07-28T12:28:11Z</time>
      </trkpt>
      <trkpt lat="45.68905" lon="6.46109">
        <ele>1731</ele>
        <time>2022-07-28T12:28:12Z</time>
      </trkpt>
      <trkpt lat="45.68907" lon="6.46109">
        <ele>1731</ele>
        <time>2022-07-28T12:28:13Z</time>
      </trkpt>
      <trkpt lat="45.68908" lon="6.46108">
        <ele>1731</ele>
        <time>2022-07-28T12:28:14Z</time>
      </trkpt>
      <trkpt lat="45.68909" lon="6.46108">
        <ele>1731</ele>
        <time>2022-07-28T12:28:15Z</time>
      </trkpt>
      <trkpt lat="45.6891" lon="6.46107">
        <ele>1731</ele>
        <time>2022-07-28T12:28:16Z</time>
      </trkpt>
      <trkpt lat="45.68911" lon="6.46106">
        <ele>1731</ele>
        <time>2022-07-28T12:28:17Z</time>
      </trkpt>
      <trkpt lat="45.68912" lon="6.46106">
        <ele>1731</ele>
        <time>2022-07-28T12:28:18Z</time>
      </trkpt>
      <trkpt lat="45.68913" lon="6.46105">
        <ele>1731</ele>
        <time>2022-07-28T12:28:19Z</time>
      </trkpt>
      <trkpt lat="45.68914" lon="6.46104">
        <ele>1731</ele>
        <time>2022-07-28T12:28:20Z</time>
      </trkpt>
      <trkpt lat="45.68915" lon="6.46103">
        <ele>1731</ele>
        <time>2022-07-28T12:28:21Z</time>
      </trkpt>
      <trkpt lat="45.68916" lon="6.46102">
        <ele>1731</ele>
        <time>2022-07-28T12:28:22Z</time>
      </trkpt>
      <trkpt lat="45.68917" lon="6.46101">
        <ele>1731</ele>
        <time>2022-07-28T12:28:23Z</time>
      </trkpt>
      <trkpt lat="45.68918" lon="6.46101">
        <ele>1731</ele>
        <time>2022-07-28T12:28:24Z</time>
      </trkpt>
      <trkpt lat="45.68919" lon="6.461">
        <ele>1731</ele>
        <time>2022-07-28T12:28:25Z</time>
      </trkpt>
      <trkpt lat="45.6892" lon="6.46099">
        <ele>1731</ele>
        <time>2022-07-28T12:28:26Z</time>
      </trkpt>
      <trkpt lat="45.68921" lon="6.46098">
        <ele>1731</ele>
        <time>2022-07-28T12:28:27Z</time>
      </trkpt>
      <trkpt lat="45.68921" lon="6.46097">
        <ele>1731</ele>
        <time>2022-07-28T12:28:28Z</time>
      </trkpt>
      <trkpt lat="45.68922" lon="6.46096">
        <ele>1731</ele>
        <time>2022-07-28T12:28:29Z</time>
      </trkpt>
      <trkpt lat="45.68923" lon="6.46095">
        <ele>1731</ele>
        <time>2022-07-28T12:28:30Z</time>
      </trkpt>
      <trkpt lat="45.68924" lon="6.46094">
        <ele>1731</ele>
        <time>2022-07-28T12:28:31Z</time>
      </trkpt>
      <trkpt lat="45.68925" lon="6.46093">
        <ele>1731</ele>
        <time>2022-07-28T12:28:32Z</time>
      </trkpt>
      <trkpt lat="45.68926" lon="6.46092">
        <ele>1731</ele>
        <time>2022-07-28T12:28:33Z</time>
      </trkpt>
      <trkpt lat="45.68927" lon="6.46091">
        <ele>1731</ele>
        <time>2022-07-28T12:28:34Z</time>
      </trkpt>
      <trkpt lat="45.68928" lon="6.4609">
        <ele>1731</ele>
        <time>2022-07-28T12:28:35Z</time>
      </trkpt>
      <trkpt lat="45.68929" lon="6.46089">
        <ele>1731</ele>
        <time>2022-07-28T12:28:36Z</time>
      </trkpt>
      <trkpt lat="45.6893" lon="6.46087">
        <ele>1730</ele>
        <time>2022-07-28T12:28:37Z</time>
      </trkpt>
      <trkpt lat="45.68931" lon="6.46086">
        <ele>1730</ele>
        <time>2022-07-28T12:28:38Z</time>
      </trkpt>
      <trkpt lat="45.68932" lon="6.46085">
        <ele>1730</ele>
        <time>2022-07-28T12:28:39Z</time>
      </trkpt>
      <trkpt lat="45.68932" lon="6.46084">
        <ele>1730</ele>
        <time>2022-07-28T12:28:40Z</time>
      </trkpt>
      <trkpt lat="45.68933" lon="6.46082">
        <ele>1730</ele>
        <time>2022-07-28T12:28:41Z</time>
      </trkpt>
      <trkpt lat="45.68934" lon="6.46081">
        <ele>1730</ele>
        <time>2022-07-28T12:28:42Z</time>
      </trkpt>
      <trkpt lat="45.68935" lon="6.4608">
        <ele>1730</ele>
        <time>2022-07-28T12:28:43Z</time>
      </trkpt>
      <trkpt lat="45.68935" lon="6.46078">
        <ele>1730</ele>
        <time>2022-07-28T12:28:44Z</time>
      </trkpt>
      <trkpt lat="45.68936" lon="6.46077">
        <ele>1730</ele>
        <time>2022-07-28T12:28:45Z</time>
      </trkpt>
      <trkpt lat="45.68937" lon="6.46075">
        <ele>1730</ele>
        <time>2022-07-28T12:28:46Z</time>
      </trkpt>
      <trkpt lat="45.68937" lon="6.46074">
        <ele>1729</ele>
        <time>2022-07-28T12:28:47Z</time>
      </trkpt>
      <trkpt lat="45.68938" lon="6.46073">
        <ele>1729</ele>
        <time>2022-07-28T12:28:48Z</time>
      </trkpt>
      <trkpt lat="45.68939" lon="6.46072">
        <ele>1729</ele>
        <time>2022-07-28T12:28:49Z</time>
      </trkpt>
      <trkpt lat="45.6894" lon="6.46071">
        <ele>1729</ele>
        <time>2022-07-28T12:28:50Z</time>
      </trkpt>
      <trkpt lat="45.68941" lon="6.4607">
        <ele>1729</ele>
        <time>2022-07-28T12:28:51Z</time>
      </trkpt>
      <trkpt lat="45.68942" lon="6.46069">
        <ele>1728</ele>
        <time>2022-07-28T12:28:52Z</time>
      </trkpt>
      <trkpt lat="45.68942" lon="6.46068">
        <ele>1728</ele>
        <time>2022-07-28T12:28:53Z</time>
      </trkpt>
      <trkpt lat="45.68943" lon="6.46067">
        <ele>1728</ele>
        <time>2022-07-28T12:28:54Z</time>
      </trkpt>
      <trkpt lat="45.68944" lon="6.46066">
        <ele>1728</ele>
        <time>2022-07-28T12:28:55Z</time>
      </trkpt>
      <trkpt lat="45.68945" lon="6.46065">
        <ele>1728</ele>
        <time>2022-07-28T12:28:56Z</time>
      </trkpt>
      <trkpt lat="45.68946" lon="6.46064">
        <ele>1727</ele>
        <time>2022-07-28T12:28:57Z</time>
      </trkpt>
      <trkpt lat="45.68947" lon="6.46062">
        <ele>1727</ele>
        <time>2022-07-28T12:28:58Z</time>
      </trkpt>
      <trkpt lat="45.68948" lon="6.46061">
        <ele>1727</ele>
        <time>2022-07-28T12:28:59Z</time>
      </trkpt>
      <trkpt lat="45.68949" lon="6.46059">
        <ele>1727</ele>
        <time>2022-07-28T12:29:00Z</time>
      </trkpt>
      <trkpt lat="45.68951" lon="6.46058">
        <ele>1727</ele>
        <time>2022-07-28T12:29:01Z</time>
      </trkpt>
      <trkpt lat="45.68952" lon="6.46056">
        <ele>1726</ele>
        <time>2022-07-28T12:29:02Z</time>
      </trkpt>
      <trkpt lat="45.68953" lon="6.46055">
        <ele>1726</ele>
        <time>2022-07-28T12:29:03Z</time>
      </trkpt>
      <trkpt lat="45.68954" lon="6.46054">
        <ele>1726</ele>
        <time>2022-07-28T12:29:04Z</time>
      </trkpt>
      <trkpt lat="45.68955" lon="6.46052">
        <ele>1726</ele>
        <time>2022-07-28T12:29:05Z</time>
      </trkpt>
      <trkpt lat="45.68956" lon="6.46051">
        <ele>1726</ele>
        <time>2022-07-28T12:29:06Z</time>
      </trkpt>
      <trkpt lat="45.68958" lon="6.4605">
        <ele>1726</ele>
        <time>2022-07-28T12:29:07Z</time>
      </trkpt>
      <trkpt lat="45.68959" lon="6.46049">
        <ele>1726</ele>
        <time>2022-07-28T12:29:08Z</time>
      </trkpt>
      <trkpt lat="45.6896" lon="6.46048">
        <ele>1726</ele>
        <time>2022-07-28T12:29:09Z</time>
      </trkpt>
      <trkpt lat="45.68961" lon="6.46047">
        <ele>1726</ele>
        <time>2022-07-28T12:29:10Z</time>
      </trkpt>
      <trkpt lat="45.68962" lon="6.46046">
        <ele>1726</ele>
        <time>2022-07-28T12:29:11Z</time>
      </trkpt>
      <trkpt lat="45.68963" lon="6.46044">
        <ele>1725</ele>
        <time>2022-07-28T12:29:12Z</time>
      </trkpt>
      <trkpt lat="45.68963" lon="6.46043">
        <ele>1725</ele>
        <time>2022-07-28T12:29:13Z</time>
      </trkpt>
      <trkpt lat="45.68964" lon="6.46041">
        <ele>1725</ele>
        <time>2022-07-28T12:29:14Z</time>
      </trkpt>
      <trkpt lat="45.68964" lon="6.4604">
        <ele>1725</ele>
        <time>2022-07-28T12:29:15Z</time>
      </trkpt>
      <trkpt lat="45.68965" lon="6.46038">
        <ele>1725</ele>
        <time>2022-07-28T12:29:16Z</time>
      </trkpt>
      <trkpt lat="45.68965" lon="6.46037">
        <ele>1725</ele>
        <time>2022-07-28T12:29:17Z</time>
      </trkpt>
      <trkpt lat="45.68965" lon="6.46035">
        <ele>1725</ele>
        <time>2022-07-28T12:29:18Z</time>
      </trkpt>
      <trkpt lat="45.68965" lon="6.46034">
        <ele>1725</ele>
        <time>2022-07-28T12:29:19Z</time>
      </trkpt>
      <trkpt lat="45.68965" lon="6.46033">
        <ele>1725</ele>
        <time>2022-07-28T12:29:20Z</time>
      </trkpt>
      <trkpt lat="45.68965" lon="6.46031">
        <ele>1725</ele>
        <time>2022-07-28T12:29:21Z</time>
      </trkpt>
      <trkpt lat="45.68966" lon="6.4603">
        <ele>1724</ele>
        <time>2022-07-28T12:29:22Z</time>
      </trkpt>
      <trkpt lat="45.68966" lon="6.46029">
        <ele>1724</ele>
        <time>2022-07-28T12:29:23Z</time>
      </trkpt>
      <trkpt lat="45.68966" lon="6.46027">
        <ele>1723</ele>
        <time>2022-07-28T12:29:24Z</time>
      </trkpt>
      <trkpt lat="45.68966" lon="6.46026">
        <ele>1723</ele>
        <time>2022-07-28T12:29:25Z</time>
      </trkpt>
      <trkpt lat="45.68967" lon="6.46024">
        <ele>1723</ele>
        <time>2022-07-28T12:29:26Z</time>
      </trkpt>
      <trkpt lat="45.68967" lon="6.46023">
        <ele>1722</ele>
        <time>2022-07-28T12:29:27Z</time>
      </trkpt>
      <trkpt lat="45.68967" lon="6.46021">
        <ele>1722</ele>
        <time>2022-07-28T12:29:28Z</time>
      </trkpt>
      <trkpt lat="45.68968" lon="6.4602">
        <ele>1722</ele>
        <time>2022-07-28T12:29:29Z</time>
      </trkpt>
      <trkpt lat="45.68968" lon="6.46018">
        <ele>1722</ele>
        <time>2022-07-28T12:29:30Z</time>
      </trkpt>
      <trkpt lat="45.68969" lon="6.46017">
        <ele>1722</ele>
        <time>2022-07-28T12:29:31Z</time>
      </trkpt>
      <trkpt lat="45.6897" lon="6.46016">
        <ele>1720</ele>
        <time>2022-07-28T12:29:41Z</time>
      </trkpt>
      <trkpt lat="45.6897" lon="6.46015">
        <ele>1720</ele>
        <time>2022-07-28T12:29:42Z</time>
      </trkpt>
      <trkpt lat="45.68971" lon="6.46014">
        <ele>1720</ele>
        <time>2022-07-28T12:29:43Z</time>
      </trkpt>
      <trkpt lat="45.68971" lon="6.46013">
        <ele>1720</ele>
        <time>2022-07-28T12:29:44Z</time>
      </trkpt>
      <trkpt lat="45.68972" lon="6.46012">
        <ele>1720</ele>
        <time>2022-07-28T12:29:45Z</time>
      </trkpt>
      <trkpt lat="45.68973" lon="6.46011">
        <ele>1720</ele>
        <time>2022-07-28T12:29:46Z</time>
      </trkpt>
      <trkpt lat="45.68973" lon="6.4601">
        <ele>1719</ele>
        <time>2022-07-28T12:29:47Z</time>
      </trkpt>
      <trkpt lat="45.68973" lon="6.46009">
        <ele>1719</ele>
        <time>2022-07-28T12:29:48Z</time>
      </trkpt>
      <trkpt lat="45.68973" lon="6.46009">
        <ele>1719</ele>
        <time>2022-07-28T12:29:49Z</time>
      </trkpt>
      <trkpt lat="45.68974" lon="6.46009">
        <ele>1719</ele>
        <time>2022-07-28T12:29:50Z</time>
      </trkpt>
      <trkpt lat="45.68974" lon="6.46009">
        <ele>1719</ele>
        <time>2022-07-28T12:29:51Z</time>
      </trkpt>
      <trkpt lat="45.68974" lon="6.46008">
        <ele>1718</ele>
        <time>2022-07-28T12:29:52Z</time>
      </trkpt>
      <trkpt lat="45.68975" lon="6.46008">
        <ele>1718</ele>
        <time>2022-07-28T12:29:53Z</time>
      </trkpt>
      <trkpt lat="45.68975" lon="6.46007">
        <ele>1718</ele>
        <time>2022-07-28T12:29:54Z</time>
      </trkpt>
      <trkpt lat="45.68976" lon="6.46007">
        <ele>1718</ele>
        <time>2022-07-28T12:29:55Z</time>
      </trkpt>
      <trkpt lat="45.68976" lon="6.46006">
        <ele>1716</ele>
        <time>2022-07-28T12:30:07Z</time>
      </trkpt>
      <trkpt lat="45.68977" lon="6.46006">
        <ele>1716</ele>
        <time>2022-07-28T12:30:08Z</time>
      </trkpt>
      <trkpt lat="45.68977" lon="6.46005">
        <ele>1716</ele>
        <time>2022-07-28T12:30:09Z</time>
      </trkpt>
      <trkpt lat="45.68977" lon="6.46004">
        <ele>1716</ele>
        <time>2022-07-28T12:30:10Z</time>
      </trkpt>
      <trkpt lat="45.68977" lon="6.46004">
        <ele>1716</ele>
        <time>2022-07-28T12:30:11Z</time>
      </trkpt>
      <trkpt lat="45.68978" lon="6.46003">
        <ele>1716</ele>
        <time>2022-07-28T12:30:12Z</time>
      </trkpt>
      <trkpt lat="45.68978" lon="6.46001">
        <ele>1716</ele>
        <time>2022-07-28T12:30:13Z</time>
      </trkpt>
      <trkpt lat="45.68978" lon="6.46001">
        <ele>1716</ele>
        <time>2022-07-28T12:30:14Z</time>
      </trkpt>
      <trkpt lat="45.68978" lon="6.46001">
        <ele>1716</ele>
        <time>2022-07-28T12:30:15Z</time>
      </trkpt>
      <trkpt lat="45.68978" lon="6.46001">
        <ele>1716</ele>
        <time>2022-07-28T12:30:16Z</time>
      </trkpt>
      <trkpt lat="45.68978" lon="6.46">
        <ele>1715</ele>
        <time>2022-07-28T12:30:17Z</time>
      </trkpt>
      <trkpt lat="45.68978" lon="6.46">
        <ele>1715</ele>
        <time>2022-07-28T12:30:18Z</time>
      </trkpt>
      <trkpt lat="45.68978" lon="6.45999">
        <ele>1715</ele>
        <time>2022-07-28T12:30:19Z</time>
      </trkpt>
      <trkpt lat="45.68978" lon="6.45998">
        <ele>1715</ele>
        <time>2022-07-28T12:30:20Z</time>
      </trkpt>
      <trkpt lat="45.68978" lon="6.45997">
        <ele>1715</ele>
        <time>2022-07-28T12:30:21Z</time>
      </trkpt>
      <trkpt lat="45.68978" lon="6.45997">
        <ele>1714</ele>
        <time>2022-07-28T12:30:22Z</time>
      </trkpt>
      <trkpt lat="45.68978" lon="6.45996">
        <ele>1714</ele>
        <time>2022-07-28T12:30:23Z</time>
      </trkpt>
      <trkpt lat="45.68978" lon="6.45996">
        <ele>1714</ele>
        <time>2022-07-28T12:30:24Z</time>
      </trkpt>
      <trkpt lat="45.68978" lon="6.45996">
        <ele>1714</ele>
        <time>2022-07-28T12:30:25Z</time>
      </trkpt>
      <trkpt lat="45.68978" lon="6.45995">
        <ele>1714</ele>
        <time>2022-07-28T12:30:26Z</time>
      </trkpt>
      <trkpt lat="45.68978" lon="6.45994">
        <ele>1714</ele>
        <time>2022-07-28T12:30:27Z</time>
      </trkpt>
      <trkpt lat="45.68978" lon="6.45993">
        <ele>1714</ele>
        <time>2022-07-28T12:30:28Z</time>
      </trkpt>
      <trkpt lat="45.68978" lon="6.45991">
        <ele>1714</ele>
        <time>2022-07-28T12:30:29Z</time>
      </trkpt>
      <trkpt lat="45.68978" lon="6.45991">
        <ele>1714</ele>
        <time>2022-07-28T12:30:30Z</time>
      </trkpt>
      <trkpt lat="45.68979" lon="6.45991">
        <ele>1714</ele>
        <time>2022-07-28T12:30:31Z</time>
      </trkpt>
      <trkpt lat="45.68979" lon="6.4599">
        <ele>1713</ele>
        <time>2022-07-28T12:30:32Z</time>
      </trkpt>
      <trkpt lat="45.68979" lon="6.4599">
        <ele>1713</ele>
        <time>2022-07-28T12:30:33Z</time>
      </trkpt>
      <trkpt lat="45.68979" lon="6.45989">
        <ele>1713</ele>
        <time>2022-07-28T12:30:34Z</time>
      </trkpt>
      <trkpt lat="45.68979" lon="6.45988">
        <ele>1712</ele>
        <time>2022-07-28T12:31:01Z</time>
      </trkpt>
      <trkpt lat="45.68979" lon="6.45987">
        <ele>1711</ele>
        <time>2022-07-28T12:31:02Z</time>
      </trkpt>
      <trkpt lat="45.68979" lon="6.45986">
        <ele>1711</ele>
        <time>2022-07-28T12:31:03Z</time>
      </trkpt>
      <trkpt lat="45.68979" lon="6.45986">
        <ele>1711</ele>
        <time>2022-07-28T12:31:04Z</time>
      </trkpt>
      <trkpt lat="45.68979" lon="6.45985">
        <ele>1711</ele>
        <time>2022-07-28T12:31:05Z</time>
      </trkpt>
      <trkpt lat="45.68979" lon="6.45984">
        <ele>1711</ele>
        <time>2022-07-28T12:31:06Z</time>
      </trkpt>
      <trkpt lat="45.68979" lon="6.45983">
        <ele>1711</ele>
        <time>2022-07-28T12:31:07Z</time>
      </trkpt>
      <trkpt lat="45.6898" lon="6.45982">
        <ele>1711</ele>
        <time>2022-07-28T12:31:08Z</time>
      </trkpt>
      <trkpt lat="45.6898" lon="6.45982">
        <ele>1711</ele>
        <time>2022-07-28T12:31:09Z</time>
      </trkpt>
      <trkpt lat="45.6898" lon="6.45981">
        <ele>1711</ele>
        <time>2022-07-28T12:31:10Z</time>
      </trkpt>
      <trkpt lat="45.68981" lon="6.4598">
        <ele>1711</ele>
        <time>2022-07-28T12:31:11Z</time>
      </trkpt>
      <trkpt lat="45.68981" lon="6.45979">
        <ele>1710</ele>
        <time>2022-07-28T12:31:12Z</time>
      </trkpt>
      <trkpt lat="45.68981" lon="6.45978">
        <ele>1710</ele>
        <time>2022-07-28T12:31:13Z</time>
      </trkpt>
      <trkpt lat="45.68982" lon="6.45978">
        <ele>1710</ele>
        <time>2022-07-28T12:31:14Z</time>
      </trkpt>
      <trkpt lat="45.68982" lon="6.45977">
        <ele>1710</ele>
        <time>2022-07-28T12:31:15Z</time>
      </trkpt>
      <trkpt lat="45.68982" lon="6.45976">
        <ele>1710</ele>
        <time>2022-07-28T12:31:16Z</time>
      </trkpt>
      <trkpt lat="45.68982" lon="6.45975">
        <ele>1709</ele>
        <time>2022-07-28T12:31:17Z</time>
      </trkpt>
      <trkpt lat="45.68983" lon="6.45973">
        <ele>1709</ele>
        <time>2022-07-28T12:31:18Z</time>
      </trkpt>
      <trkpt lat="45.68983" lon="6.45972">
        <ele>1708</ele>
        <time>2022-07-28T12:31:19Z</time>
      </trkpt>
      <trkpt lat="45.68983" lon="6.45971">
        <ele>1708</ele>
        <time>2022-07-28T12:31:20Z</time>
      </trkpt>
      <trkpt lat="45.68984" lon="6.4597">
        <ele>1708</ele>
        <time>2022-07-28T12:31:21Z</time>
      </trkpt>
      <trkpt lat="45.68986" lon="6.45967">
        <ele>1704</ele>
        <time>2022-07-28T12:31:45Z</time>
      </trkpt>
      <trkpt lat="45.68987" lon="6.45966">
        <ele>1704</ele>
        <time>2022-07-28T12:31:46Z</time>
      </trkpt>
      <trkpt lat="45.68987" lon="6.45965">
        <ele>1703</ele>
        <time>2022-07-28T12:31:47Z</time>
      </trkpt>
      <trkpt lat="45.68988" lon="6.45964">
        <ele>1703</ele>
        <time>2022-07-28T12:31:48Z</time>
      </trkpt>
      <trkpt lat="45.68988" lon="6.45963">
        <ele>1703</ele>
        <time>2022-07-28T12:31:49Z</time>
      </trkpt>
      <trkpt lat="45.68988" lon="6.45961">
        <ele>1703</ele>
        <time>2022-07-28T12:32:03Z</time>
      </trkpt>
      <trkpt lat="45.68988" lon="6.4596">
        <ele>1703</ele>
        <time>2022-07-28T12:32:04Z</time>
      </trkpt>
      <trkpt lat="45.68989" lon="6.45959">
        <ele>1703</ele>
        <time>2022-07-28T12:32:05Z</time>
      </trkpt>
      <trkpt lat="45.68989" lon="6.45958">
        <ele>1703</ele>
        <time>2022-07-28T12:32:06Z</time>
      </trkpt>
      <trkpt lat="45.68989" lon="6.45957">
        <ele>1702</ele>
        <time>2022-07-28T12:32:07Z</time>
      </trkpt>
      <trkpt lat="45.68989" lon="6.45956">
        <ele>1702</ele>
        <time>2022-07-28T12:32:13Z</time>
      </trkpt>
      <trkpt lat="45.68989" lon="6.45956">
        <ele>1702</ele>
        <time>2022-07-28T12:32:14Z</time>
      </trkpt>
      <trkpt lat="45.6899" lon="6.45955">
        <ele>1702</ele>
        <time>2022-07-28T12:32:15Z</time>
      </trkpt>
      <trkpt lat="45.6899" lon="6.45954">
        <ele>1702</ele>
        <time>2022-07-28T12:32:16Z</time>
      </trkpt>
      <trkpt lat="45.6899" lon="6.45953">
        <ele>1702</ele>
        <time>2022-07-28T12:32:17Z</time>
      </trkpt>
      <trkpt lat="45.6899" lon="6.45952">
        <ele>1702</ele>
        <time>2022-07-28T12:32:18Z</time>
      </trkpt>
      <trkpt lat="45.68991" lon="6.45952">
        <ele>1702</ele>
        <time>2022-07-28T12:32:19Z</time>
      </trkpt>
      <trkpt lat="45.68991" lon="6.45951">
        <ele>1702</ele>
        <time>2022-07-28T12:32:20Z</time>
      </trkpt>
      <trkpt lat="45.68991" lon="6.45951">
        <ele>1702</ele>
        <time>2022-07-28T12:32:21Z</time>
      </trkpt>
      <trkpt lat="45.68992" lon="6.45951">
        <ele>1701</ele>
        <time>2022-07-28T12:32:22Z</time>
      </trkpt>
      <trkpt lat="45.68993" lon="6.4595">
        <ele>1701</ele>
        <time>2022-07-28T12:32:23Z</time>
      </trkpt>
      <trkpt lat="45.68993" lon="6.4595">
        <ele>1701</ele>
        <time>2022-07-28T12:32:24Z</time>
      </trkpt>
      <trkpt lat="45.68993" lon="6.4595">
        <ele>1701</ele>
        <time>2022-07-28T12:32:25Z</time>
      </trkpt>
      <trkpt lat="45.68994" lon="6.45949">
        <ele>1701</ele>
        <time>2022-07-28T12:32:26Z</time>
      </trkpt>
      <trkpt lat="45.68994" lon="6.45949">
        <ele>1700</ele>
        <time>2022-07-28T12:32:27Z</time>
      </trkpt>
      <trkpt lat="45.68994" lon="6.45948">
        <ele>1700</ele>
        <time>2022-07-28T12:32:28Z</time>
      </trkpt>
      <trkpt lat="45.68994" lon="6.45947">
        <ele>1698</ele>
        <time>2022-07-28T12:33:08Z</time>
      </trkpt>
      <trkpt lat="45.68994" lon="6.45947">
        <ele>1698</ele>
        <time>2022-07-28T12:33:09Z</time>
      </trkpt>
      <trkpt lat="45.68994" lon="6.45946">
        <ele>1698</ele>
        <time>2022-07-28T12:33:10Z</time>
      </trkpt>
      <trkpt lat="45.68994" lon="6.45946">
        <ele>1698</ele>
        <time>2022-07-28T12:33:11Z</time>
      </trkpt>
      <trkpt lat="45.68993" lon="6.45945">
        <ele>1698</ele>
        <time>2022-07-28T12:33:12Z</time>
      </trkpt>
      <trkpt lat="45.68993" lon="6.45944">
        <ele>1698</ele>
        <time>2022-07-28T12:33:13Z</time>
      </trkpt>
      <trkpt lat="45.68994" lon="6.45944">
        <ele>1698</ele>
        <time>2022-07-28T12:33:14Z</time>
      </trkpt>
      <trkpt lat="45.68994" lon="6.45943">
        <ele>1698</ele>
        <time>2022-07-28T12:33:15Z</time>
      </trkpt>
      <trkpt lat="45.68994" lon="6.45942">
        <ele>1698</ele>
        <time>2022-07-28T12:33:16Z</time>
      </trkpt>
      <trkpt lat="45.68994" lon="6.45941">
        <ele>1697</ele>
        <time>2022-07-28T12:33:17Z</time>
      </trkpt>
      <trkpt lat="45.68994" lon="6.45941">
        <ele>1697</ele>
        <time>2022-07-28T12:33:18Z</time>
      </trkpt>
      <trkpt lat="45.68994" lon="6.45941">
        <ele>1697</ele>
        <time>2022-07-28T12:33:19Z</time>
      </trkpt>
      <trkpt lat="45.68994" lon="6.4594">
        <ele>1697</ele>
        <time>2022-07-28T12:33:20Z</time>
      </trkpt>
      <trkpt lat="45.68995" lon="6.45939">
        <ele>1697</ele>
        <time>2022-07-28T12:33:21Z</time>
      </trkpt>
      <trkpt lat="45.68995" lon="6.45939">
        <ele>1696</ele>
        <time>2022-07-28T12:33:22Z</time>
      </trkpt>
      <trkpt lat="45.68995" lon="6.45938">
        <ele>1696</ele>
        <time>2022-07-28T12:33:23Z</time>
      </trkpt>
      <trkpt lat="45.68995" lon="6.45937">
        <ele>1696</ele>
        <time>2022-07-28T12:33:24Z</time>
      </trkpt>
      <trkpt lat="45.68996" lon="6.45936">
        <ele>1696</ele>
        <time>2022-07-28T12:33:25Z</time>
      </trkpt>
      <trkpt lat="45.68996" lon="6.45936">
        <ele>1696</ele>
        <time>2022-07-28T12:33:26Z</time>
      </trkpt>
      <trkpt lat="45.68996" lon="6.45935">
        <ele>1695</ele>
        <time>2022-07-28T12:33:27Z</time>
      </trkpt>
      <trkpt lat="45.68996" lon="6.45934">
        <ele>1695</ele>
        <time>2022-07-28T12:33:28Z</time>
      </trkpt>
      <trkpt lat="45.68997" lon="6.45933">
        <ele>1695</ele>
        <time>2022-07-28T12:33:29Z</time>
      </trkpt>
      <trkpt lat="45.68997" lon="6.45932">
        <ele>1695</ele>
        <time>2022-07-28T12:33:30Z</time>
      </trkpt>
      <trkpt lat="45.68997" lon="6.45932">
        <ele>1695</ele>
        <time>2022-07-28T12:33:31Z</time>
      </trkpt>
      <trkpt lat="45.68997" lon="6.45931">
        <ele>1695</ele>
        <time>2022-07-28T12:33:32Z</time>
      </trkpt>
      <trkpt lat="45.68997" lon="6.4593">
        <ele>1695</ele>
        <time>2022-07-28T12:33:33Z</time>
      </trkpt>
      <trkpt lat="45.68998" lon="6.45928">
        <ele>1694</ele>
        <time>2022-07-28T12:33:41Z</time>
      </trkpt>
      <trkpt lat="45.68999" lon="6.45927">
        <ele>1693</ele>
        <time>2022-07-28T12:33:42Z</time>
      </trkpt>
      <trkpt lat="45.68999" lon="6.45927">
        <ele>1693</ele>
        <time>2022-07-28T12:33:43Z</time>
      </trkpt>
      <trkpt lat="45.69" lon="6.45926">
        <ele>1693</ele>
        <time>2022-07-28T12:33:44Z</time>
      </trkpt>
      <trkpt lat="45.69001" lon="6.45926">
        <ele>1693</ele>
        <time>2022-07-28T12:33:45Z</time>
      </trkpt>
      <trkpt lat="45.69001" lon="6.45925">
        <ele>1693</ele>
        <time>2022-07-28T12:33:46Z</time>
      </trkpt>
      <trkpt lat="45.69002" lon="6.45924">
        <ele>1692</ele>
        <time>2022-07-28T12:33:47Z</time>
      </trkpt>
      <trkpt lat="45.69002" lon="6.45923">
        <ele>1692</ele>
        <time>2022-07-28T12:33:48Z</time>
      </trkpt>
      <trkpt lat="45.69002" lon="6.45922">
        <ele>1692</ele>
        <time>2022-07-28T12:33:49Z</time>
      </trkpt>
      <trkpt lat="45.69002" lon="6.45922">
        <ele>1692</ele>
        <time>2022-07-28T12:33:50Z</time>
      </trkpt>
      <trkpt lat="45.69002" lon="6.45921">
        <ele>1692</ele>
        <time>2022-07-28T12:33:51Z</time>
      </trkpt>
      <trkpt lat="45.69003" lon="6.4592">
        <ele>1690</ele>
        <time>2022-07-28T12:34:08Z</time>
      </trkpt>
      <trkpt lat="45.69003" lon="6.45919">
        <ele>1690</ele>
        <time>2022-07-28T12:34:09Z</time>
      </trkpt>
      <trkpt lat="45.69003" lon="6.45919">
        <ele>1690</ele>
        <time>2022-07-28T12:34:10Z</time>
      </trkpt>
      <trkpt lat="45.69004" lon="6.45918">
        <ele>1690</ele>
        <time>2022-07-28T12:34:11Z</time>
      </trkpt>
      <trkpt lat="45.69004" lon="6.45918">
        <ele>1689</ele>
        <time>2022-07-28T12:34:12Z</time>
      </trkpt>
      <trkpt lat="45.69004" lon="6.45917">
        <ele>1689</ele>
        <time>2022-07-28T12:34:13Z</time>
      </trkpt>
      <trkpt lat="45.69004" lon="6.45916">
        <ele>1689</ele>
        <time>2022-07-28T12:34:14Z</time>
      </trkpt>
      <trkpt lat="45.69004" lon="6.45915">
        <ele>1689</ele>
        <time>2022-07-28T12:34:15Z</time>
      </trkpt>
      <trkpt lat="45.69004" lon="6.45913">
        <ele>1689</ele>
        <time>2022-07-28T12:34:16Z</time>
      </trkpt>
      <trkpt lat="45.69004" lon="6.45912">
        <ele>1688</ele>
        <time>2022-07-28T12:34:17Z</time>
      </trkpt>
      <trkpt lat="45.69003" lon="6.45911">
        <ele>1688</ele>
        <time>2022-07-28T12:34:18Z</time>
      </trkpt>
      <trkpt lat="45.69004" lon="6.4591">
        <ele>1688</ele>
        <time>2022-07-28T12:34:19Z</time>
      </trkpt>
      <trkpt lat="45.69004" lon="6.45909">
        <ele>1688</ele>
        <time>2022-07-28T12:34:20Z</time>
      </trkpt>
      <trkpt lat="45.69004" lon="6.45909">
        <ele>1688</ele>
        <time>2022-07-28T12:34:21Z</time>
      </trkpt>
      <trkpt lat="45.69004" lon="6.45908">
        <ele>1687</ele>
        <time>2022-07-28T12:34:22Z</time>
      </trkpt>
      <trkpt lat="45.69004" lon="6.45908">
        <ele>1687</ele>
        <time>2022-07-28T12:34:23Z</time>
      </trkpt>
      <trkpt lat="45.69005" lon="6.45907">
        <ele>1687</ele>
        <time>2022-07-28T12:34:24Z</time>
      </trkpt>
      <trkpt lat="45.69005" lon="6.45906">
        <ele>1687</ele>
        <time>2022-07-28T12:34:25Z</time>
      </trkpt>
      <trkpt lat="45.69005" lon="6.45906">
        <ele>1687</ele>
        <time>2022-07-28T12:34:26Z</time>
      </trkpt>
      <trkpt lat="45.69005" lon="6.45905">
        <ele>1686</ele>
        <time>2022-07-28T12:34:27Z</time>
      </trkpt>
      <trkpt lat="45.69005" lon="6.45904">
        <ele>1686</ele>
        <time>2022-07-28T12:34:28Z</time>
      </trkpt>
      <trkpt lat="45.69005" lon="6.45904">
        <ele>1686</ele>
        <time>2022-07-28T12:34:29Z</time>
      </trkpt>
      <trkpt lat="45.69004" lon="6.45903">
        <ele>1686</ele>
        <time>2022-07-28T12:34:30Z</time>
      </trkpt>
      <trkpt lat="45.69004" lon="6.45903">
        <ele>1686</ele>
        <time>2022-07-28T12:34:31Z</time>
      </trkpt>
      <trkpt lat="45.69004" lon="6.45902">
        <ele>1685</ele>
        <time>2022-07-28T12:34:32Z</time>
      </trkpt>
      <trkpt lat="45.69003" lon="6.45901">
        <ele>1685</ele>
        <time>2022-07-28T12:34:33Z</time>
      </trkpt>
      <trkpt lat="45.69003" lon="6.45901">
        <ele>1684</ele>
        <time>2022-07-28T12:34:34Z</time>
      </trkpt>
      <trkpt lat="45.69003" lon="6.45901">
        <ele>1684</ele>
        <time>2022-07-28T12:34:35Z</time>
      </trkpt>
      <trkpt lat="45.69003" lon="6.459">
        <ele>1684</ele>
        <time>2022-07-28T12:34:36Z</time>
      </trkpt>
      <trkpt lat="45.69003" lon="6.459">
        <ele>1683</ele>
        <time>2022-07-28T12:34:37Z</time>
      </trkpt>
      <trkpt lat="45.69002" lon="6.459">
        <ele>1683</ele>
        <time>2022-07-28T12:34:38Z</time>
      </trkpt>
      <trkpt lat="45.69002" lon="6.45899">
        <ele>1683</ele>
        <time>2022-07-28T12:34:39Z</time>
      </trkpt>
      <trkpt lat="45.69001" lon="6.45898">
        <ele>1683</ele>
        <time>2022-07-28T12:34:40Z</time>
      </trkpt>
      <trkpt lat="45.69001" lon="6.45897">
        <ele>1683</ele>
        <time>2022-07-28T12:34:41Z</time>
      </trkpt>
      <trkpt lat="45.69" lon="6.45896">
        <ele>1682</ele>
        <time>2022-07-28T12:34:42Z</time>
      </trkpt>
      <trkpt lat="45.69" lon="6.45895">
        <ele>1682</ele>
        <time>2022-07-28T12:34:43Z</time>
      </trkpt>
      <trkpt lat="45.69" lon="6.45894">
        <ele>1681</ele>
        <time>2022-07-28T12:34:44Z</time>
      </trkpt>
      <trkpt lat="45.69" lon="6.45893">
        <ele>1681</ele>
        <time>2022-07-28T12:34:45Z</time>
      </trkpt>
      <trkpt lat="45.68999" lon="6.45891">
        <ele>1681</ele>
        <time>2022-07-28T12:34:46Z</time>
      </trkpt>
      <trkpt lat="45.68999" lon="6.4589">
        <ele>1680</ele>
        <time>2022-07-28T12:34:47Z</time>
      </trkpt>
      <trkpt lat="45.69" lon="6.45888">
        <ele>1680</ele>
        <time>2022-07-28T12:34:48Z</time>
      </trkpt>
      <trkpt lat="45.69" lon="6.45886">
        <ele>1678</ele>
        <time>2022-07-28T12:34:54Z</time>
      </trkpt>
      <trkpt lat="45.69" lon="6.45885">
        <ele>1678</ele>
        <time>2022-07-28T12:34:55Z</time>
      </trkpt>
      <trkpt lat="45.69001" lon="6.45883">
        <ele>1678</ele>
        <time>2022-07-28T12:34:56Z</time>
      </trkpt>
      <trkpt lat="45.69001" lon="6.45882">
        <ele>1677</ele>
        <time>2022-07-28T12:34:57Z</time>
      </trkpt>
      <trkpt lat="45.69001" lon="6.45881">
        <ele>1677</ele>
        <time>2022-07-28T12:34:58Z</time>
      </trkpt>
      <trkpt lat="45.69001" lon="6.45878">
        <ele>1676</ele>
        <time>2022-07-28T12:35:04Z</time>
      </trkpt>
      <trkpt lat="45.69001" lon="6.45877">
        <ele>1676</ele>
        <time>2022-07-28T12:35:05Z</time>
      </trkpt>
      <trkpt lat="45.69001" lon="6.45876">
        <ele>1676</ele>
        <time>2022-07-28T12:35:06Z</time>
      </trkpt>
      <trkpt lat="45.69001" lon="6.45875">
        <ele>1675</ele>
        <time>2022-07-28T12:35:07Z</time>
      </trkpt>
      <trkpt lat="45.69001" lon="6.45874">
        <ele>1675</ele>
        <time>2022-07-28T12:35:08Z</time>
      </trkpt>
      <trkpt lat="45.69001" lon="6.45873">
        <ele>1675</ele>
        <time>2022-07-28T12:35:09Z</time>
      </trkpt>
      <trkpt lat="45.69" lon="6.45872">
        <ele>1675</ele>
        <time>2022-07-28T12:35:10Z</time>
      </trkpt>
      <trkpt lat="45.69" lon="6.45871">
        <ele>1675</ele>
        <time>2022-07-28T12:35:11Z</time>
      </trkpt>
      <trkpt lat="45.69" lon="6.4587">
        <ele>1674</ele>
        <time>2022-07-28T12:35:12Z</time>
      </trkpt>
      <trkpt lat="45.69" lon="6.4587">
        <ele>1674</ele>
        <time>2022-07-28T12:35:13Z</time>
      </trkpt>
      <trkpt lat="45.69" lon="6.45869">
        <ele>1674</ele>
        <time>2022-07-28T12:35:14Z</time>
      </trkpt>
      <trkpt lat="45.68999" lon="6.45869">
        <ele>1674</ele>
        <time>2022-07-28T12:35:15Z</time>
      </trkpt>
      <trkpt lat="45.68999" lon="6.45868">
        <ele>1674</ele>
        <time>2022-07-28T12:35:16Z</time>
      </trkpt>
      <trkpt lat="45.68999" lon="6.45867">
        <ele>1673</ele>
        <time>2022-07-28T12:35:17Z</time>
      </trkpt>
      <trkpt lat="45.68999" lon="6.45866">
        <ele>1673</ele>
        <time>2022-07-28T12:35:18Z</time>
      </trkpt>
      <trkpt lat="45.68999" lon="6.45865">
        <ele>1673</ele>
        <time>2022-07-28T12:35:19Z</time>
      </trkpt>
      <trkpt lat="45.68999" lon="6.45863">
        <ele>1673</ele>
        <time>2022-07-28T12:35:20Z</time>
      </trkpt>
      <trkpt lat="45.68998" lon="6.45862">
        <ele>1673</ele>
        <time>2022-07-28T12:35:21Z</time>
      </trkpt>
      <trkpt lat="45.68998" lon="6.45861">
        <ele>1672</ele>
        <time>2022-07-28T12:35:22Z</time>
      </trkpt>
      <trkpt lat="45.68998" lon="6.45861">
        <ele>1672</ele>
        <time>2022-07-28T12:35:23Z</time>
      </trkpt>
      <trkpt lat="45.68998" lon="6.4586">
        <ele>1672</ele>
        <time>2022-07-28T12:35:24Z</time>
      </trkpt>
      <trkpt lat="45.68997" lon="6.45859">
        <ele>1672</ele>
        <time>2022-07-28T12:35:25Z</time>
      </trkpt>
      <trkpt lat="45.68997" lon="6.45858">
        <ele>1672</ele>
        <time>2022-07-28T12:35:26Z</time>
      </trkpt>
      <trkpt lat="45.68997" lon="6.45857">
        <ele>1671</ele>
        <time>2022-07-28T12:35:27Z</time>
      </trkpt>
      <trkpt lat="45.68997" lon="6.45857">
        <ele>1671</ele>
        <time>2022-07-28T12:35:28Z</time>
      </trkpt>
      <trkpt lat="45.68996" lon="6.45856">
        <ele>1671</ele>
        <time>2022-07-28T12:35:29Z</time>
      </trkpt>
      <trkpt lat="45.68996" lon="6.45855">
        <ele>1671</ele>
        <time>2022-07-28T12:35:30Z</time>
      </trkpt>
      <trkpt lat="45.68996" lon="6.45854">
        <ele>1671</ele>
        <time>2022-07-28T12:35:31Z</time>
      </trkpt>
      <trkpt lat="45.68996" lon="6.45854">
        <ele>1670</ele>
        <time>2022-07-28T12:35:32Z</time>
      </trkpt>
      <trkpt lat="45.68996" lon="6.45853">
        <ele>1670</ele>
        <time>2022-07-28T12:35:33Z</time>
      </trkpt>
      <trkpt lat="45.68996" lon="6.45852">
        <ele>1670</ele>
        <time>2022-07-28T12:35:34Z</time>
      </trkpt>
      <trkpt lat="45.68996" lon="6.45851">
        <ele>1670</ele>
        <time>2022-07-28T12:35:35Z</time>
      </trkpt>
      <trkpt lat="45.68996" lon="6.4585">
        <ele>1670</ele>
        <time>2022-07-28T12:35:36Z</time>
      </trkpt>
      <trkpt lat="45.68996" lon="6.4585">
        <ele>1669</ele>
        <time>2022-07-28T12:35:37Z</time>
      </trkpt>
      <trkpt lat="45.68996" lon="6.45849">
        <ele>1669</ele>
        <time>2022-07-28T12:35:38Z</time>
      </trkpt>
      <trkpt lat="45.68996" lon="6.45849">
        <ele>1669</ele>
        <time>2022-07-28T12:35:39Z</time>
      </trkpt>
      <trkpt lat="45.68996" lon="6.45848">
        <ele>1669</ele>
        <time>2022-07-28T12:35:40Z</time>
      </trkpt>
      <trkpt lat="45.68996" lon="6.45848">
        <ele>1669</ele>
        <time>2022-07-28T12:35:41Z</time>
      </trkpt>
      <trkpt lat="45.68996" lon="6.45847">
        <ele>1668</ele>
        <time>2022-07-28T12:35:42Z</time>
      </trkpt>
      <trkpt lat="45.68996" lon="6.45846">
        <ele>1668</ele>
        <time>2022-07-28T12:35:43Z</time>
      </trkpt>
      <trkpt lat="45.68997" lon="6.45845">
        <ele>1668</ele>
        <time>2022-07-28T12:35:44Z</time>
      </trkpt>
      <trkpt lat="45.68997" lon="6.45845">
        <ele>1668</ele>
        <time>2022-07-28T12:35:45Z</time>
      </trkpt>
      <trkpt lat="45.68998" lon="6.45843">
        <ele>1666</ele>
        <time>2022-07-28T12:37:46Z</time>
      </trkpt>
      <trkpt lat="45.68999" lon="6.45843">
        <ele>1665</ele>
        <time>2022-07-28T12:37:47Z</time>
      </trkpt>
      <trkpt lat="45.68999" lon="6.45842">
        <ele>1665</ele>
        <time>2022-07-28T12:37:48Z</time>
      </trkpt>
      <trkpt lat="45.69" lon="6.45841">
        <ele>1665</ele>
        <time>2022-07-28T12:37:49Z</time>
      </trkpt>
      <trkpt lat="45.69" lon="6.4584">
        <ele>1665</ele>
        <time>2022-07-28T12:37:50Z</time>
      </trkpt>
      <trkpt lat="45.68999" lon="6.45839">
        <ele>1665</ele>
        <time>2022-07-28T12:37:51Z</time>
      </trkpt>
      <trkpt lat="45.68999" lon="6.45839">
        <ele>1665</ele>
        <time>2022-07-28T12:37:52Z</time>
      </trkpt>
      <trkpt lat="45.68999" lon="6.45838">
        <ele>1665</ele>
        <time>2022-07-28T12:37:53Z</time>
      </trkpt>
      <trkpt lat="45.68998" lon="6.45837">
        <ele>1665</ele>
        <time>2022-07-28T12:37:54Z</time>
      </trkpt>
      <trkpt lat="45.68998" lon="6.45836">
        <ele>1665</ele>
        <time>2022-07-28T12:37:55Z</time>
      </trkpt>
      <trkpt lat="45.68997" lon="6.45836">
        <ele>1665</ele>
        <time>2022-07-28T12:37:56Z</time>
      </trkpt>
      <trkpt lat="45.68996" lon="6.45835">
        <ele>1664</ele>
        <time>2022-07-28T12:37:57Z</time>
      </trkpt>
      <trkpt lat="45.68996" lon="6.45834">
        <ele>1664</ele>
        <time>2022-07-28T12:37:58Z</time>
      </trkpt>
      <trkpt lat="45.68995" lon="6.45833">
        <ele>1664</ele>
        <time>2022-07-28T12:37:59Z</time>
      </trkpt>
      <trkpt lat="45.68995" lon="6.45832">
        <ele>1664</ele>
        <time>2022-07-28T12:38:00Z</time>
      </trkpt>
      <trkpt lat="45.68994" lon="6.4583">
        <ele>1664</ele>
        <time>2022-07-28T12:38:01Z</time>
      </trkpt>
      <trkpt lat="45.68994" lon="6.45829">
        <ele>1663</ele>
        <time>2022-07-28T12:38:02Z</time>
      </trkpt>
      <trkpt lat="45.68994" lon="6.45828">
        <ele>1663</ele>
        <time>2022-07-28T12:38:03Z</time>
      </trkpt>
      <trkpt lat="45.68993" lon="6.45826">
        <ele>1663</ele>
        <time>2022-07-28T12:38:04Z</time>
      </trkpt>
      <trkpt lat="45.68993" lon="6.45825">
        <ele>1663</ele>
        <time>2022-07-28T12:38:05Z</time>
      </trkpt>
      <trkpt lat="45.68993" lon="6.45824">
        <ele>1663</ele>
        <time>2022-07-28T12:38:06Z</time>
      </trkpt>
      <trkpt lat="45.68992" lon="6.45822">
        <ele>1662</ele>
        <time>2022-07-28T12:38:07Z</time>
      </trkpt>
      <trkpt lat="45.68992" lon="6.45821">
        <ele>1662</ele>
        <time>2022-07-28T12:38:08Z</time>
      </trkpt>
      <trkpt lat="45.68991" lon="6.4582">
        <ele>1662</ele>
        <time>2022-07-28T12:38:09Z</time>
      </trkpt>
      <trkpt lat="45.68991" lon="6.45819">
        <ele>1662</ele>
        <time>2022-07-28T12:38:10Z</time>
      </trkpt>
      <trkpt lat="45.6899" lon="6.45818">
        <ele>1662</ele>
        <time>2022-07-28T12:38:11Z</time>
      </trkpt>
      <trkpt lat="45.68989" lon="6.45817">
        <ele>1661</ele>
        <time>2022-07-28T12:38:12Z</time>
      </trkpt>
      <trkpt lat="45.68988" lon="6.45816">
        <ele>1661</ele>
        <time>2022-07-28T12:38:13Z</time>
      </trkpt>
      <trkpt lat="45.68988" lon="6.45816">
        <ele>1661</ele>
        <time>2022-07-28T12:38:14Z</time>
      </trkpt>
      <trkpt lat="45.68987" lon="6.45815">
        <ele>1661</ele>
        <time>2022-07-28T12:38:15Z</time>
      </trkpt>
      <trkpt lat="45.68986" lon="6.45814">
        <ele>1661</ele>
        <time>2022-07-28T12:38:16Z</time>
      </trkpt>
      <trkpt lat="45.68986" lon="6.45814">
        <ele>1660</ele>
        <time>2022-07-28T12:38:17Z</time>
      </trkpt>
      <trkpt lat="45.68985" lon="6.45813">
        <ele>1660</ele>
        <time>2022-07-28T12:38:18Z</time>
      </trkpt>
      <trkpt lat="45.68985" lon="6.45813">
        <ele>1660</ele>
        <time>2022-07-28T12:38:19Z</time>
      </trkpt>
      <trkpt lat="45.68985" lon="6.45813">
        <ele>1660</ele>
        <time>2022-07-28T12:38:20Z</time>
      </trkpt>
      <trkpt lat="45.68984" lon="6.45812">
        <ele>1660</ele>
        <time>2022-07-28T12:38:21Z</time>
      </trkpt>
      <trkpt lat="45.68984" lon="6.45811">
        <ele>1659</ele>
        <time>2022-07-28T12:38:22Z</time>
      </trkpt>
      <trkpt lat="45.68984" lon="6.45811">
        <ele>1659</ele>
        <time>2022-07-28T12:38:23Z</time>
      </trkpt>
      <trkpt lat="45.68983" lon="6.4581">
        <ele>1659</ele>
        <time>2022-07-28T12:38:24Z</time>
      </trkpt>
      <trkpt lat="45.68983" lon="6.45809">
        <ele>1659</ele>
        <time>2022-07-28T12:38:25Z</time>
      </trkpt>
      <trkpt lat="45.68983" lon="6.45808">
        <ele>1659</ele>
        <time>2022-07-28T12:38:26Z</time>
      </trkpt>
      <trkpt lat="45.68983" lon="6.45808">
        <ele>1658</ele>
        <time>2022-07-28T12:38:27Z</time>
      </trkpt>
      <trkpt lat="45.68982" lon="6.45807">
        <ele>1658</ele>
        <time>2022-07-28T12:38:28Z</time>
      </trkpt>
      <trkpt lat="45.68982" lon="6.45807">
        <ele>1658</ele>
        <time>2022-07-28T12:38:29Z</time>
      </trkpt>
      <trkpt lat="45.68982" lon="6.45806">
        <ele>1658</ele>
        <time>2022-07-28T12:38:30Z</time>
      </trkpt>
      <trkpt lat="45.68981" lon="6.45805">
        <ele>1658</ele>
        <time>2022-07-28T12:38:31Z</time>
      </trkpt>
      <trkpt lat="45.68981" lon="6.45805">
        <ele>1657</ele>
        <time>2022-07-28T12:38:32Z</time>
      </trkpt>
      <trkpt lat="45.68981" lon="6.45804">
        <ele>1657</ele>
        <time>2022-07-28T12:38:33Z</time>
      </trkpt>
      <trkpt lat="45.68981" lon="6.45803">
        <ele>1657</ele>
        <time>2022-07-28T12:38:34Z</time>
      </trkpt>
      <trkpt lat="45.68981" lon="6.45802">
        <ele>1657</ele>
        <time>2022-07-28T12:38:35Z</time>
      </trkpt>
      <trkpt lat="45.68981" lon="6.45801">
        <ele>1657</ele>
        <time>2022-07-28T12:38:36Z</time>
      </trkpt>
      <trkpt lat="45.68981" lon="6.45801">
        <ele>1657</ele>
        <time>2022-07-28T12:38:37Z</time>
      </trkpt>
      <trkpt lat="45.68981" lon="6.458">
        <ele>1657</ele>
        <time>2022-07-28T12:38:38Z</time>
      </trkpt>
      <trkpt lat="45.68981" lon="6.45799">
        <ele>1657</ele>
        <time>2022-07-28T12:38:39Z</time>
      </trkpt>
      <trkpt lat="45.68982" lon="6.45799">
        <ele>1657</ele>
        <time>2022-07-28T12:38:40Z</time>
      </trkpt>
      <trkpt lat="45.68981" lon="6.45798">
        <ele>1657</ele>
        <time>2022-07-28T12:38:41Z</time>
      </trkpt>
      <trkpt lat="45.68981" lon="6.45797">
        <ele>1656</ele>
        <time>2022-07-28T12:38:42Z</time>
      </trkpt>
      <trkpt lat="45.68981" lon="6.45797">
        <ele>1656</ele>
        <time>2022-07-28T12:38:43Z</time>
      </trkpt>
      <trkpt lat="45.68981" lon="6.45796">
        <ele>1656</ele>
        <time>2022-07-28T12:38:44Z</time>
      </trkpt>
      <trkpt lat="45.68981" lon="6.45795">
        <ele>1656</ele>
        <time>2022-07-28T12:38:45Z</time>
      </trkpt>
      <trkpt lat="45.68981" lon="6.45795">
        <ele>1656</ele>
        <time>2022-07-28T12:38:46Z</time>
      </trkpt>
      <trkpt lat="45.6898" lon="6.45794">
        <ele>1655</ele>
        <time>2022-07-28T12:38:47Z</time>
      </trkpt>
      <trkpt lat="45.6898" lon="6.45793">
        <ele>1655</ele>
        <time>2022-07-28T12:38:48Z</time>
      </trkpt>
      <trkpt lat="45.68979" lon="6.45793">
        <ele>1655</ele>
        <time>2022-07-28T12:38:49Z</time>
      </trkpt>
      <trkpt lat="45.68979" lon="6.45792">
        <ele>1655</ele>
        <time>2022-07-28T12:38:50Z</time>
      </trkpt>
      <trkpt lat="45.68979" lon="6.45792">
        <ele>1655</ele>
        <time>2022-07-28T12:38:51Z</time>
      </trkpt>
      <trkpt lat="45.68978" lon="6.45791">
        <ele>1654</ele>
        <time>2022-07-28T12:38:52Z</time>
      </trkpt>
      <trkpt lat="45.68978" lon="6.4579">
        <ele>1654</ele>
        <time>2022-07-28T12:38:53Z</time>
      </trkpt>
      <trkpt lat="45.68977" lon="6.4579">
        <ele>1654</ele>
        <time>2022-07-28T12:38:54Z</time>
      </trkpt>
      <trkpt lat="45.68977" lon="6.45789">
        <ele>1654</ele>
        <time>2022-07-28T12:38:55Z</time>
      </trkpt>
      <trkpt lat="45.68976" lon="6.45788">
        <ele>1654</ele>
        <time>2022-07-28T12:38:56Z</time>
      </trkpt>
      <trkpt lat="45.68976" lon="6.45788">
        <ele>1653</ele>
        <time>2022-07-28T12:38:57Z</time>
      </trkpt>
      <trkpt lat="45.68976" lon="6.45787">
        <ele>1653</ele>
        <time>2022-07-28T12:38:58Z</time>
      </trkpt>
      <trkpt lat="45.68976" lon="6.45786">
        <ele>1653</ele>
        <time>2022-07-28T12:38:59Z</time>
      </trkpt>
      <trkpt lat="45.68976" lon="6.45785">
        <ele>1653</ele>
        <time>2022-07-28T12:39:00Z</time>
      </trkpt>
      <trkpt lat="45.68976" lon="6.45785">
        <ele>1653</ele>
        <time>2022-07-28T12:39:01Z</time>
      </trkpt>
      <trkpt lat="45.68976" lon="6.45784">
        <ele>1652</ele>
        <time>2022-07-28T12:39:02Z</time>
      </trkpt>
      <trkpt lat="45.68976" lon="6.45783">
        <ele>1652</ele>
        <time>2022-07-28T12:39:03Z</time>
      </trkpt>
      <trkpt lat="45.68975" lon="6.45782">
        <ele>1652</ele>
        <time>2022-07-28T12:39:04Z</time>
      </trkpt>
      <trkpt lat="45.68975" lon="6.45781">
        <ele>1652</ele>
        <time>2022-07-28T12:39:05Z</time>
      </trkpt>
      <trkpt lat="45.68974" lon="6.4578">
        <ele>1652</ele>
        <time>2022-07-28T12:39:06Z</time>
      </trkpt>
      <trkpt lat="45.68974" lon="6.45779">
        <ele>1651</ele>
        <time>2022-07-28T12:39:07Z</time>
      </trkpt>
      <trkpt lat="45.68973" lon="6.45778">
        <ele>1651</ele>
        <time>2022-07-28T12:39:08Z</time>
      </trkpt>
      <trkpt lat="45.68973" lon="6.45776">
        <ele>1650</ele>
        <time>2022-07-28T12:39:09Z</time>
      </trkpt>
      <trkpt lat="45.68973" lon="6.45775">
        <ele>1650</ele>
        <time>2022-07-28T12:39:10Z</time>
      </trkpt>
      <trkpt lat="45.68973" lon="6.45773">
        <ele>1650</ele>
        <time>2022-07-28T12:39:11Z</time>
      </trkpt>
      <trkpt lat="45.68973" lon="6.45771">
        <ele>1649</ele>
        <time>2022-07-28T12:39:12Z</time>
      </trkpt>
      <trkpt lat="45.68973" lon="6.4577">
        <ele>1649</ele>
        <time>2022-07-28T12:39:13Z</time>
      </trkpt>
      <trkpt lat="45.68973" lon="6.45768">
        <ele>1649</ele>
        <time>2022-07-28T12:39:14Z</time>
      </trkpt>
      <trkpt lat="45.68973" lon="6.45767">
        <ele>1649</ele>
        <time>2022-07-28T12:39:15Z</time>
      </trkpt>
      <trkpt lat="45.68974" lon="6.45766">
        <ele>1649</ele>
        <time>2022-07-28T12:39:16Z</time>
      </trkpt>
      <trkpt lat="45.68974" lon="6.45764">
        <ele>1649</ele>
        <time>2022-07-28T12:39:17Z</time>
      </trkpt>
      <trkpt lat="45.68975" lon="6.45763">
        <ele>1649</ele>
        <time>2022-07-28T12:39:18Z</time>
      </trkpt>
      <trkpt lat="45.68975" lon="6.45762">
        <ele>1649</ele>
        <time>2022-07-28T12:39:19Z</time>
      </trkpt>
      <trkpt lat="45.68975" lon="6.45761">
        <ele>1649</ele>
        <time>2022-07-28T12:39:20Z</time>
      </trkpt>
      <trkpt lat="45.68976" lon="6.45761">
        <ele>1649</ele>
        <time>2022-07-28T12:39:21Z</time>
      </trkpt>
      <trkpt lat="45.68976" lon="6.4576">
        <ele>1648</ele>
        <time>2022-07-28T12:39:22Z</time>
      </trkpt>
      <trkpt lat="45.68977" lon="6.45759">
        <ele>1648</ele>
        <time>2022-07-28T12:39:23Z</time>
      </trkpt>
      <trkpt lat="45.68977" lon="6.45759">
        <ele>1648</ele>
        <time>2022-07-28T12:39:24Z</time>
      </trkpt>
      <trkpt lat="45.68977" lon="6.45758">
        <ele>1648</ele>
        <time>2022-07-28T12:39:25Z</time>
      </trkpt>
      <trkpt lat="45.68977" lon="6.45758">
        <ele>1648</ele>
        <time>2022-07-28T12:39:26Z</time>
      </trkpt>
      <trkpt lat="45.68977" lon="6.45757">
        <ele>1647</ele>
        <time>2022-07-28T12:39:27Z</time>
      </trkpt>
      <trkpt lat="45.68977" lon="6.45757">
        <ele>1647</ele>
        <time>2022-07-28T12:39:28Z</time>
      </trkpt>
      <trkpt lat="45.68977" lon="6.45756">
        <ele>1647</ele>
        <time>2022-07-28T12:39:29Z</time>
      </trkpt>
      <trkpt lat="45.68977" lon="6.45755">
        <ele>1647</ele>
        <time>2022-07-28T12:39:30Z</time>
      </trkpt>
      <trkpt lat="45.68977" lon="6.45754">
        <ele>1647</ele>
        <time>2022-07-28T12:39:31Z</time>
      </trkpt>
      <trkpt lat="45.68977" lon="6.45754">
        <ele>1646</ele>
        <time>2022-07-28T12:39:32Z</time>
      </trkpt>
      <trkpt lat="45.68977" lon="6.45753">
        <ele>1646</ele>
        <time>2022-07-28T12:39:33Z</time>
      </trkpt>
      <trkpt lat="45.68977" lon="6.45753">
        <ele>1646</ele>
        <time>2022-07-28T12:39:34Z</time>
      </trkpt>
      <trkpt lat="45.68977" lon="6.45752">
        <ele>1646</ele>
        <time>2022-07-28T12:39:35Z</time>
      </trkpt>
      <trkpt lat="45.68977" lon="6.45752">
        <ele>1646</ele>
        <time>2022-07-28T12:39:36Z</time>
      </trkpt>
      <trkpt lat="45.68977" lon="6.45751">
        <ele>1645</ele>
        <time>2022-07-28T12:39:37Z</time>
      </trkpt>
      <trkpt lat="45.68977" lon="6.4575">
        <ele>1645</ele>
        <time>2022-07-28T12:39:38Z</time>
      </trkpt>
      <trkpt lat="45.68977" lon="6.45749">
        <ele>1644</ele>
        <time>2022-07-28T12:39:39Z</time>
      </trkpt>
      <trkpt lat="45.68977" lon="6.45748">
        <ele>1644</ele>
        <time>2022-07-28T12:39:40Z</time>
      </trkpt>
      <trkpt lat="45.68976" lon="6.45748">
        <ele>1644</ele>
        <time>2022-07-28T12:39:41Z</time>
      </trkpt>
      <trkpt lat="45.68976" lon="6.45747">
        <ele>1643</ele>
        <time>2022-07-28T12:39:42Z</time>
      </trkpt>
      <trkpt lat="45.68976" lon="6.45746">
        <ele>1643</ele>
        <time>2022-07-28T12:39:43Z</time>
      </trkpt>
      <trkpt lat="45.68976" lon="6.45745">
        <ele>1643</ele>
        <time>2022-07-28T12:39:44Z</time>
      </trkpt>
      <trkpt lat="45.68975" lon="6.45745">
        <ele>1643</ele>
        <time>2022-07-28T12:39:45Z</time>
      </trkpt>
      <trkpt lat="45.68975" lon="6.45744">
        <ele>1643</ele>
        <time>2022-07-28T12:39:46Z</time>
      </trkpt>
      <trkpt lat="45.68975" lon="6.45743">
        <ele>1643</ele>
        <time>2022-07-28T12:39:47Z</time>
      </trkpt>
      <trkpt lat="45.68975" lon="6.45742">
        <ele>1643</ele>
        <time>2022-07-28T12:39:48Z</time>
      </trkpt>
      <trkpt lat="45.68974" lon="6.45741">
        <ele>1643</ele>
        <time>2022-07-28T12:39:49Z</time>
      </trkpt>
      <trkpt lat="45.68974" lon="6.4574">
        <ele>1643</ele>
        <time>2022-07-28T12:39:50Z</time>
      </trkpt>
      <trkpt lat="45.68974" lon="6.45739">
        <ele>1643</ele>
        <time>2022-07-28T12:39:51Z</time>
      </trkpt>
      <trkpt lat="45.68973" lon="6.45738">
        <ele>1642</ele>
        <time>2022-07-28T12:39:52Z</time>
      </trkpt>
      <trkpt lat="45.68973" lon="6.45737">
        <ele>1642</ele>
        <time>2022-07-28T12:39:53Z</time>
      </trkpt>
      <trkpt lat="45.68972" lon="6.45736">
        <ele>1641</ele>
        <time>2022-07-28T12:39:54Z</time>
      </trkpt>
      <trkpt lat="45.68971" lon="6.45735">
        <ele>1641</ele>
        <time>2022-07-28T12:39:55Z</time>
      </trkpt>
      <trkpt lat="45.68971" lon="6.45734">
        <ele>1641</ele>
        <time>2022-07-28T12:39:56Z</time>
      </trkpt>
      <trkpt lat="45.6897" lon="6.45734">
        <ele>1640</ele>
        <time>2022-07-28T12:39:57Z</time>
      </trkpt>
      <trkpt lat="45.68969" lon="6.45733">
        <ele>1640</ele>
        <time>2022-07-28T12:39:58Z</time>
      </trkpt>
      <trkpt lat="45.68968" lon="6.45732">
        <ele>1640</ele>
        <time>2022-07-28T12:39:59Z</time>
      </trkpt>
      <trkpt lat="45.68967" lon="6.45732">
        <ele>1640</ele>
        <time>2022-07-28T12:40:00Z</time>
      </trkpt>
      <trkpt lat="45.68967" lon="6.45731">
        <ele>1640</ele>
        <time>2022-07-28T12:40:01Z</time>
      </trkpt>
      <trkpt lat="45.68966" lon="6.45731">
        <ele>1639</ele>
        <time>2022-07-28T12:40:02Z</time>
      </trkpt>
      <trkpt lat="45.68965" lon="6.4573">
        <ele>1639</ele>
        <time>2022-07-28T12:40:03Z</time>
      </trkpt>
      <trkpt lat="45.68964" lon="6.4573">
        <ele>1639</ele>
        <time>2022-07-28T12:40:04Z</time>
      </trkpt>
      <trkpt lat="45.68963" lon="6.4573">
        <ele>1639</ele>
        <time>2022-07-28T12:40:05Z</time>
      </trkpt>
      <trkpt lat="45.68962" lon="6.45729">
        <ele>1639</ele>
        <time>2022-07-28T12:40:06Z</time>
      </trkpt>
      <trkpt lat="45.68962" lon="6.45729">
        <ele>1638</ele>
        <time>2022-07-28T12:40:07Z</time>
      </trkpt>
      <trkpt lat="45.68961" lon="6.45728">
        <ele>1638</ele>
        <time>2022-07-28T12:40:08Z</time>
      </trkpt>
      <trkpt lat="45.6896" lon="6.45728">
        <ele>1638</ele>
        <time>2022-07-28T12:40:09Z</time>
      </trkpt>
      <trkpt lat="45.68959" lon="6.45727">
        <ele>1638</ele>
        <time>2022-07-28T12:40:10Z</time>
      </trkpt>
      <trkpt lat="45.68958" lon="6.45727">
        <ele>1638</ele>
        <time>2022-07-28T12:40:11Z</time>
      </trkpt>
      <trkpt lat="45.68958" lon="6.45726">
        <ele>1638</ele>
        <time>2022-07-28T12:40:12Z</time>
      </trkpt>
      <trkpt lat="45.68957" lon="6.45726">
        <ele>1638</ele>
        <time>2022-07-28T12:40:13Z</time>
      </trkpt>
      <trkpt lat="45.68956" lon="6.45726">
        <ele>1638</ele>
        <time>2022-07-28T12:40:14Z</time>
      </trkpt>
      <trkpt lat="45.68956" lon="6.45725">
        <ele>1638</ele>
        <time>2022-07-28T12:40:15Z</time>
      </trkpt>
      <trkpt lat="45.68955" lon="6.45725">
        <ele>1638</ele>
        <time>2022-07-28T12:40:16Z</time>
      </trkpt>
      <trkpt lat="45.68954" lon="6.45724">
        <ele>1637</ele>
        <time>2022-07-28T12:40:17Z</time>
      </trkpt>
      <trkpt lat="45.68953" lon="6.45724">
        <ele>1637</ele>
        <time>2022-07-28T12:40:18Z</time>
      </trkpt>
      <trkpt lat="45.68953" lon="6.45723">
        <ele>1637</ele>
        <time>2022-07-28T12:40:19Z</time>
      </trkpt>
      <trkpt lat="45.68952" lon="6.45722">
        <ele>1637</ele>
        <time>2022-07-28T12:40:20Z</time>
      </trkpt>
      <trkpt lat="45.68951" lon="6.45721">
        <ele>1637</ele>
        <time>2022-07-28T12:40:21Z</time>
      </trkpt>
      <trkpt lat="45.6895" lon="6.45719">
        <ele>1636</ele>
        <time>2022-07-28T12:40:22Z</time>
      </trkpt>
      <trkpt lat="45.68949" lon="6.45718">
        <ele>1636</ele>
        <time>2022-07-28T12:40:23Z</time>
      </trkpt>
      <trkpt lat="45.68949" lon="6.45716">
        <ele>1636</ele>
        <time>2022-07-28T12:40:24Z</time>
      </trkpt>
      <trkpt lat="45.68948" lon="6.45715">
        <ele>1636</ele>
        <time>2022-07-28T12:40:25Z</time>
      </trkpt>
      <trkpt lat="45.68947" lon="6.45714">
        <ele>1636</ele>
        <time>2022-07-28T12:40:26Z</time>
      </trkpt>
      <trkpt lat="45.68946" lon="6.45713">
        <ele>1635</ele>
        <time>2022-07-28T12:40:27Z</time>
      </trkpt>
      <trkpt lat="45.68945" lon="6.45712">
        <ele>1635</ele>
        <time>2022-07-28T12:40:28Z</time>
      </trkpt>
      <trkpt lat="45.68945" lon="6.45712">
        <ele>1635</ele>
        <time>2022-07-28T12:40:29Z</time>
      </trkpt>
      <trkpt lat="45.68944" lon="6.45711">
        <ele>1635</ele>
        <time>2022-07-28T12:40:30Z</time>
      </trkpt>
      <trkpt lat="45.68943" lon="6.4571">
        <ele>1635</ele>
        <time>2022-07-28T12:40:31Z</time>
      </trkpt>
      <trkpt lat="45.68943" lon="6.45709">
        <ele>1634</ele>
        <time>2022-07-28T12:40:32Z</time>
      </trkpt>
      <trkpt lat="45.68943" lon="6.45708">
        <ele>1634</ele>
        <time>2022-07-28T12:40:33Z</time>
      </trkpt>
      <trkpt lat="45.68942" lon="6.45707">
        <ele>1634</ele>
        <time>2022-07-28T12:40:34Z</time>
      </trkpt>
      <trkpt lat="45.68942" lon="6.45706">
        <ele>1634</ele>
        <time>2022-07-28T12:40:35Z</time>
      </trkpt>
      <trkpt lat="45.68942" lon="6.45705">
        <ele>1634</ele>
        <time>2022-07-28T12:40:36Z</time>
      </trkpt>
      <trkpt lat="45.68941" lon="6.45704">
        <ele>1633</ele>
        <time>2022-07-28T12:40:37Z</time>
      </trkpt>
      <trkpt lat="45.68941" lon="6.45702">
        <ele>1633</ele>
        <time>2022-07-28T12:40:38Z</time>
      </trkpt>
      <trkpt lat="45.68941" lon="6.45701">
        <ele>1633</ele>
        <time>2022-07-28T12:40:39Z</time>
      </trkpt>
      <trkpt lat="45.6894" lon="6.457">
        <ele>1633</ele>
        <time>2022-07-28T12:40:40Z</time>
      </trkpt>
      <trkpt lat="45.6894" lon="6.45699">
        <ele>1633</ele>
        <time>2022-07-28T12:40:41Z</time>
      </trkpt>
      <trkpt lat="45.68939" lon="6.45698">
        <ele>1632</ele>
        <time>2022-07-28T12:40:42Z</time>
      </trkpt>
      <trkpt lat="45.68939" lon="6.45697">
        <ele>1632</ele>
        <time>2022-07-28T12:40:43Z</time>
      </trkpt>
      <trkpt lat="45.68939" lon="6.45696">
        <ele>1632</ele>
        <time>2022-07-28T12:40:44Z</time>
      </trkpt>
      <trkpt lat="45.68939" lon="6.45695">
        <ele>1632</ele>
        <time>2022-07-28T12:40:45Z</time>
      </trkpt>
      <trkpt lat="45.68939" lon="6.45694">
        <ele>1632</ele>
        <time>2022-07-28T12:40:46Z</time>
      </trkpt>
      <trkpt lat="45.68938" lon="6.45693">
        <ele>1631</ele>
        <time>2022-07-28T12:40:47Z</time>
      </trkpt>
      <trkpt lat="45.68938" lon="6.45692">
        <ele>1631</ele>
        <time>2022-07-28T12:40:48Z</time>
      </trkpt>
      <trkpt lat="45.68938" lon="6.45691">
        <ele>1631</ele>
        <time>2022-07-28T12:40:49Z</time>
      </trkpt>
      <trkpt lat="45.68938" lon="6.4569">
        <ele>1631</ele>
        <time>2022-07-28T12:40:50Z</time>
      </trkpt>
      <trkpt lat="45.68938" lon="6.45689">
        <ele>1631</ele>
        <time>2022-07-28T12:40:51Z</time>
      </trkpt>
      <trkpt lat="45.68938" lon="6.45688">
        <ele>1630</ele>
        <time>2022-07-28T12:40:52Z</time>
      </trkpt>
      <trkpt lat="45.68937" lon="6.45687">
        <ele>1630</ele>
        <time>2022-07-28T12:40:53Z</time>
      </trkpt>
      <trkpt lat="45.68937" lon="6.45685">
        <ele>1630</ele>
        <time>2022-07-28T12:40:54Z</time>
      </trkpt>
      <trkpt lat="45.68937" lon="6.45684">
        <ele>1630</ele>
        <time>2022-07-28T12:40:55Z</time>
      </trkpt>
      <trkpt lat="45.68936" lon="6.45682">
        <ele>1628</ele>
        <time>2022-07-28T12:41:03Z</time>
      </trkpt>
      <trkpt lat="45.68936" lon="6.45681">
        <ele>1628</ele>
        <time>2022-07-28T12:41:04Z</time>
      </trkpt>
      <trkpt lat="45.68936" lon="6.45679">
        <ele>1628</ele>
        <time>2022-07-28T12:41:05Z</time>
      </trkpt>
      <trkpt lat="45.68935" lon="6.45678">
        <ele>1628</ele>
        <time>2022-07-28T12:41:06Z</time>
      </trkpt>
      <trkpt lat="45.68934" lon="6.45677">
        <ele>1627</ele>
        <time>2022-07-28T12:41:07Z</time>
      </trkpt>
      <trkpt lat="45.68933" lon="6.45674">
        <ele>1627</ele>
        <time>2022-07-28T12:41:20Z</time>
      </trkpt>
      <trkpt lat="45.68932" lon="6.45673">
        <ele>1627</ele>
        <time>2022-07-28T12:41:21Z</time>
      </trkpt>
      <trkpt lat="45.68932" lon="6.45671">
        <ele>1626</ele>
        <time>2022-07-28T12:41:22Z</time>
      </trkpt>
      <trkpt lat="45.68931" lon="6.4567">
        <ele>1626</ele>
        <time>2022-07-28T12:41:23Z</time>
      </trkpt>
      <trkpt lat="45.68931" lon="6.45669">
        <ele>1626</ele>
        <time>2022-07-28T12:41:24Z</time>
      </trkpt>
      <trkpt lat="45.68931" lon="6.45668">
        <ele>1626</ele>
        <time>2022-07-28T12:41:25Z</time>
      </trkpt>
      <trkpt lat="45.6893" lon="6.45667">
        <ele>1626</ele>
        <time>2022-07-28T12:41:26Z</time>
      </trkpt>
      <trkpt lat="45.6893" lon="6.45665">
        <ele>1625</ele>
        <time>2022-07-28T12:41:27Z</time>
      </trkpt>
      <trkpt lat="45.6893" lon="6.45664">
        <ele>1625</ele>
        <time>2022-07-28T12:41:28Z</time>
      </trkpt>
      <trkpt lat="45.6893" lon="6.45663">
        <ele>1625</ele>
        <time>2022-07-28T12:41:29Z</time>
      </trkpt>
      <trkpt lat="45.6893" lon="6.45661">
        <ele>1625</ele>
        <time>2022-07-28T12:41:30Z</time>
      </trkpt>
      <trkpt lat="45.6893" lon="6.4566">
        <ele>1625</ele>
        <time>2022-07-28T12:41:31Z</time>
      </trkpt>
      <trkpt lat="45.68929" lon="6.45659">
        <ele>1624</ele>
        <time>2022-07-28T12:41:32Z</time>
      </trkpt>
      <trkpt lat="45.68929" lon="6.45658">
        <ele>1624</ele>
        <time>2022-07-28T12:41:33Z</time>
      </trkpt>
      <trkpt lat="45.68928" lon="6.45657">
        <ele>1623</ele>
        <time>2022-07-28T12:41:34Z</time>
      </trkpt>
      <trkpt lat="45.68928" lon="6.45655">
        <ele>1623</ele>
        <time>2022-07-28T12:41:35Z</time>
      </trkpt>
      <trkpt lat="45.68927" lon="6.45654">
        <ele>1623</ele>
        <time>2022-07-28T12:41:36Z</time>
      </trkpt>
      <trkpt lat="45.68927" lon="6.45653">
        <ele>1622</ele>
        <time>2022-07-28T12:41:37Z</time>
      </trkpt>
      <trkpt lat="45.68927" lon="6.45651">
        <ele>1622</ele>
        <time>2022-07-28T12:41:38Z</time>
      </trkpt>
      <trkpt lat="45.68926" lon="6.4565">
        <ele>1621</ele>
        <time>2022-07-28T12:41:39Z</time>
      </trkpt>
      <trkpt lat="45.68926" lon="6.45648">
        <ele>1621</ele>
        <time>2022-07-28T12:41:40Z</time>
      </trkpt>
      <trkpt lat="45.68925" lon="6.45647">
        <ele>1621</ele>
        <time>2022-07-28T12:41:41Z</time>
      </trkpt>
      <trkpt lat="45.68925" lon="6.45646">
        <ele>1620</ele>
        <time>2022-07-28T12:41:42Z</time>
      </trkpt>
      <trkpt lat="45.68925" lon="6.45644">
        <ele>1620</ele>
        <time>2022-07-28T12:41:43Z</time>
      </trkpt>
      <trkpt lat="45.68924" lon="6.45643">
        <ele>1620</ele>
        <time>2022-07-28T12:41:44Z</time>
      </trkpt>
      <trkpt lat="45.68923" lon="6.45642">
        <ele>1620</ele>
        <time>2022-07-28T12:41:45Z</time>
      </trkpt>
      <trkpt lat="45.68922" lon="6.45641">
        <ele>1620</ele>
        <time>2022-07-28T12:41:46Z</time>
      </trkpt>
      <trkpt lat="45.68921" lon="6.4564">
        <ele>1619</ele>
        <time>2022-07-28T12:41:47Z</time>
      </trkpt>
      <trkpt lat="45.6892" lon="6.45639">
        <ele>1619</ele>
        <time>2022-07-28T12:41:48Z</time>
      </trkpt>
      <trkpt lat="45.68919" lon="6.45638">
        <ele>1618</ele>
        <time>2022-07-28T12:41:49Z</time>
      </trkpt>
      <trkpt lat="45.68918" lon="6.45637">
        <ele>1618</ele>
        <time>2022-07-28T12:41:50Z</time>
      </trkpt>
      <trkpt lat="45.68918" lon="6.45636">
        <ele>1618</ele>
        <time>2022-07-28T12:41:51Z</time>
      </trkpt>
      <trkpt lat="45.68917" lon="6.45635">
        <ele>1617</ele>
        <time>2022-07-28T12:41:52Z</time>
      </trkpt>
      <trkpt lat="45.68916" lon="6.45633">
        <ele>1617</ele>
        <time>2022-07-28T12:41:53Z</time>
      </trkpt>
      <trkpt lat="45.68916" lon="6.45632">
        <ele>1617</ele>
        <time>2022-07-28T12:41:54Z</time>
      </trkpt>
      <trkpt lat="45.68915" lon="6.4563">
        <ele>1617</ele>
        <time>2022-07-28T12:41:55Z</time>
      </trkpt>
      <trkpt lat="45.68915" lon="6.45628">
        <ele>1617</ele>
        <time>2022-07-28T12:41:56Z</time>
      </trkpt>
      <trkpt lat="45.68915" lon="6.45627">
        <ele>1617</ele>
        <time>2022-07-28T12:41:57Z</time>
      </trkpt>
      <trkpt lat="45.68914" lon="6.45625">
        <ele>1617</ele>
        <time>2022-07-28T12:41:58Z</time>
      </trkpt>
      <trkpt lat="45.68914" lon="6.45624">
        <ele>1617</ele>
        <time>2022-07-28T12:41:59Z</time>
      </trkpt>
      <trkpt lat="45.68914" lon="6.45622">
        <ele>1617</ele>
        <time>2022-07-28T12:42:00Z</time>
      </trkpt>
      <trkpt lat="45.68913" lon="6.45621">
        <ele>1617</ele>
        <time>2022-07-28T12:42:01Z</time>
      </trkpt>
      <trkpt lat="45.68913" lon="6.4562">
        <ele>1616</ele>
        <time>2022-07-28T12:42:02Z</time>
      </trkpt>
      <trkpt lat="45.68913" lon="6.45619">
        <ele>1616</ele>
        <time>2022-07-28T12:42:19Z</time>
      </trkpt>
      <trkpt lat="45.68912" lon="6.45618">
        <ele>1616</ele>
        <time>2022-07-28T12:42:20Z</time>
      </trkpt>
      <trkpt lat="45.68912" lon="6.45617">
        <ele>1616</ele>
        <time>2022-07-28T12:42:21Z</time>
      </trkpt>
      <trkpt lat="45.68912" lon="6.45617">
        <ele>1615</ele>
        <time>2022-07-28T12:42:22Z</time>
      </trkpt>
      <trkpt lat="45.68912" lon="6.45616">
        <ele>1615</ele>
        <time>2022-07-28T12:42:23Z</time>
      </trkpt>
      <trkpt lat="45.68912" lon="6.45615">
        <ele>1615</ele>
        <time>2022-07-28T12:43:03Z</time>
      </trkpt>
      <trkpt lat="45.68912" lon="6.45615">
        <ele>1615</ele>
        <time>2022-07-28T12:43:04Z</time>
      </trkpt>
      <trkpt lat="45.68913" lon="6.45615">
        <ele>1615</ele>
        <time>2022-07-28T12:43:05Z</time>
      </trkpt>
      <trkpt lat="45.68913" lon="6.45615">
        <ele>1615</ele>
        <time>2022-07-28T12:43:06Z</time>
      </trkpt>
      <trkpt lat="45.68914" lon="6.45615">
        <ele>1614</ele>
        <time>2022-07-28T12:43:07Z</time>
      </trkpt>
      <trkpt lat="45.68915" lon="6.45615">
        <ele>1614</ele>
        <time>2022-07-28T12:43:08Z</time>
      </trkpt>
      <trkpt lat="45.68916" lon="6.45615">
        <ele>1614</ele>
        <time>2022-07-28T12:43:09Z</time>
      </trkpt>
      <trkpt lat="45.68918" lon="6.45615">
        <ele>1614</ele>
        <time>2022-07-28T12:43:10Z</time>
      </trkpt>
      <trkpt lat="45.68919" lon="6.45615">
        <ele>1614</ele>
        <time>2022-07-28T12:43:11Z</time>
      </trkpt>
      <trkpt lat="45.6892" lon="6.45615">
        <ele>1614</ele>
        <time>2022-07-28T12:43:12Z</time>
      </trkpt>
      <trkpt lat="45.68922" lon="6.45616">
        <ele>1614</ele>
        <time>2022-07-28T12:43:13Z</time>
      </trkpt>
      <trkpt lat="45.68923" lon="6.45616">
        <ele>1614</ele>
        <time>2022-07-28T12:43:14Z</time>
      </trkpt>
      <trkpt lat="45.68924" lon="6.45616">
        <ele>1614</ele>
        <time>2022-07-28T12:43:15Z</time>
      </trkpt>
      <trkpt lat="45.68926" lon="6.45616">
        <ele>1614</ele>
        <time>2022-07-28T12:43:16Z</time>
      </trkpt>
      <trkpt lat="45.68927" lon="6.45616">
        <ele>1613</ele>
        <time>2022-07-28T12:43:17Z</time>
      </trkpt>
      <trkpt lat="45.68928" lon="6.45616">
        <ele>1613</ele>
        <time>2022-07-28T12:43:18Z</time>
      </trkpt>
      <trkpt lat="45.6893" lon="6.45616">
        <ele>1612</ele>
        <time>2022-07-28T12:43:19Z</time>
      </trkpt>
      <trkpt lat="45.68931" lon="6.45616">
        <ele>1612</ele>
        <time>2022-07-28T12:43:20Z</time>
      </trkpt>
      <trkpt lat="45.68933" lon="6.45616">
        <ele>1612</ele>
        <time>2022-07-28T12:43:21Z</time>
      </trkpt>
      <trkpt lat="45.68934" lon="6.45616">
        <ele>1611</ele>
        <time>2022-07-28T12:43:22Z</time>
      </trkpt>
      <trkpt lat="45.68936" lon="6.45616">
        <ele>1611</ele>
        <time>2022-07-28T12:43:23Z</time>
      </trkpt>
      <trkpt lat="45.68937" lon="6.45616">
        <ele>1611</ele>
        <time>2022-07-28T12:43:24Z</time>
      </trkpt>
      <trkpt lat="45.68938" lon="6.45616">
        <ele>1611</ele>
        <time>2022-07-28T12:43:25Z</time>
      </trkpt>
      <trkpt lat="45.6894" lon="6.45616">
        <ele>1611</ele>
        <time>2022-07-28T12:43:26Z</time>
      </trkpt>
      <trkpt lat="45.68941" lon="6.45616">
        <ele>1611</ele>
        <time>2022-07-28T12:43:27Z</time>
      </trkpt>
      <trkpt lat="45.68942" lon="6.45616">
        <ele>1611</ele>
        <time>2022-07-28T12:43:28Z</time>
      </trkpt>
      <trkpt lat="45.68943" lon="6.45616">
        <ele>1611</ele>
        <time>2022-07-28T12:43:29Z</time>
      </trkpt>
      <trkpt lat="45.68945" lon="6.45617">
        <ele>1611</ele>
        <time>2022-07-28T12:43:30Z</time>
      </trkpt>
      <trkpt lat="45.68946" lon="6.45617">
        <ele>1611</ele>
        <time>2022-07-28T12:43:31Z</time>
      </trkpt>
      <trkpt lat="45.68947" lon="6.45618">
        <ele>1610</ele>
        <time>2022-07-28T12:43:32Z</time>
      </trkpt>
      <trkpt lat="45.68948" lon="6.45618">
        <ele>1610</ele>
        <time>2022-07-28T12:43:33Z</time>
      </trkpt>
      <trkpt lat="45.68949" lon="6.45618">
        <ele>1610</ele>
        <time>2022-07-28T12:43:34Z</time>
      </trkpt>
      <trkpt lat="45.6895" lon="6.45619">
        <ele>1610</ele>
        <time>2022-07-28T12:43:35Z</time>
      </trkpt>
      <trkpt lat="45.68951" lon="6.45619">
        <ele>1610</ele>
        <time>2022-07-28T12:43:36Z</time>
      </trkpt>
      <trkpt lat="45.68952" lon="6.4562">
        <ele>1609</ele>
        <time>2022-07-28T12:43:37Z</time>
      </trkpt>
      <trkpt lat="45.68953" lon="6.45621">
        <ele>1609</ele>
        <time>2022-07-28T12:43:38Z</time>
      </trkpt>
      <trkpt lat="45.68954" lon="6.45621">
        <ele>1609</ele>
        <time>2022-07-28T12:43:39Z</time>
      </trkpt>
      <trkpt lat="45.68955" lon="6.45622">
        <ele>1609</ele>
        <time>2022-07-28T12:43:40Z</time>
      </trkpt>
      <trkpt lat="45.68956" lon="6.45623">
        <ele>1609</ele>
        <time>2022-07-28T12:43:41Z</time>
      </trkpt>
      <trkpt lat="45.68957" lon="6.45623">
        <ele>1608</ele>
        <time>2022-07-28T12:43:42Z</time>
      </trkpt>
      <trkpt lat="45.68958" lon="6.45624">
        <ele>1608</ele>
        <time>2022-07-28T12:43:43Z</time>
      </trkpt>
      <trkpt lat="45.68959" lon="6.45625">
        <ele>1608</ele>
        <time>2022-07-28T12:43:44Z</time>
      </trkpt>
      <trkpt lat="45.6896" lon="6.45626">
        <ele>1608</ele>
        <time>2022-07-28T12:43:45Z</time>
      </trkpt>
      <trkpt lat="45.68961" lon="6.45626">
        <ele>1608</ele>
        <time>2022-07-28T12:43:46Z</time>
      </trkpt>
      <trkpt lat="45.68962" lon="6.45627">
        <ele>1607</ele>
        <time>2022-07-28T12:43:47Z</time>
      </trkpt>
      <trkpt lat="45.68963" lon="6.45628">
        <ele>1607</ele>
        <time>2022-07-28T12:43:48Z</time>
      </trkpt>
      <trkpt lat="45.68964" lon="6.45629">
        <ele>1607</ele>
        <time>2022-07-28T12:43:49Z</time>
      </trkpt>
      <trkpt lat="45.68965" lon="6.45629">
        <ele>1607</ele>
        <time>2022-07-28T12:43:50Z</time>
      </trkpt>
      <trkpt lat="45.68966" lon="6.4563">
        <ele>1607</ele>
        <time>2022-07-28T12:43:51Z</time>
      </trkpt>
      <trkpt lat="45.68967" lon="6.4563">
        <ele>1606</ele>
        <time>2022-07-28T12:43:52Z</time>
      </trkpt>
      <trkpt lat="45.68968" lon="6.4563">
        <ele>1606</ele>
        <time>2022-07-28T12:43:53Z</time>
      </trkpt>
      <trkpt lat="45.68969" lon="6.45631">
        <ele>1606</ele>
        <time>2022-07-28T12:43:54Z</time>
      </trkpt>
      <trkpt lat="45.68971" lon="6.45631">
        <ele>1606</ele>
        <time>2022-07-28T12:43:55Z</time>
      </trkpt>
      <trkpt lat="45.68972" lon="6.45631">
        <ele>1606</ele>
        <time>2022-07-28T12:43:56Z</time>
      </trkpt>
      <trkpt lat="45.68973" lon="6.45632">
        <ele>1605</ele>
        <time>2022-07-28T12:43:57Z</time>
      </trkpt>
      <trkpt lat="45.68974" lon="6.45632">
        <ele>1605</ele>
        <time>2022-07-28T12:43:58Z</time>
      </trkpt>
      <trkpt lat="45.68975" lon="6.45633">
        <ele>1605</ele>
        <time>2022-07-28T12:43:59Z</time>
      </trkpt>
      <trkpt lat="45.68976" lon="6.45633">
        <ele>1605</ele>
        <time>2022-07-28T12:44:00Z</time>
      </trkpt>
      <trkpt lat="45.68977" lon="6.45634">
        <ele>1605</ele>
        <time>2022-07-28T12:44:01Z</time>
      </trkpt>
      <trkpt lat="45.68978" lon="6.45634">
        <ele>1604</ele>
        <time>2022-07-28T12:44:02Z</time>
      </trkpt>
      <trkpt lat="45.6898" lon="6.45635">
        <ele>1604</ele>
        <time>2022-07-28T12:44:03Z</time>
      </trkpt>
      <trkpt lat="45.68981" lon="6.45636">
        <ele>1604</ele>
        <time>2022-07-28T12:44:04Z</time>
      </trkpt>
      <trkpt lat="45.68982" lon="6.45636">
        <ele>1604</ele>
        <time>2022-07-28T12:44:05Z</time>
      </trkpt>
      <trkpt lat="45.68983" lon="6.45637">
        <ele>1604</ele>
        <time>2022-07-28T12:44:06Z</time>
      </trkpt>
      <trkpt lat="45.68984" lon="6.45638">
        <ele>1603</ele>
        <time>2022-07-28T12:44:07Z</time>
      </trkpt>
      <trkpt lat="45.68985" lon="6.45638">
        <ele>1603</ele>
        <time>2022-07-28T12:44:08Z</time>
      </trkpt>
      <trkpt lat="45.68986" lon="6.45639">
        <ele>1603</ele>
        <time>2022-07-28T12:44:09Z</time>
      </trkpt>
      <trkpt lat="45.68987" lon="6.45639">
        <ele>1603</ele>
        <time>2022-07-28T12:44:10Z</time>
      </trkpt>
      <trkpt lat="45.68988" lon="6.4564">
        <ele>1603</ele>
        <time>2022-07-28T12:44:11Z</time>
      </trkpt>
      <trkpt lat="45.68989" lon="6.45641">
        <ele>1603</ele>
        <time>2022-07-28T12:44:12Z</time>
      </trkpt>
      <trkpt lat="45.6899" lon="6.45641">
        <ele>1603</ele>
        <time>2022-07-28T12:44:13Z</time>
      </trkpt>
      <trkpt lat="45.68992" lon="6.45642">
        <ele>1603</ele>
        <time>2022-07-28T12:44:14Z</time>
      </trkpt>
      <trkpt lat="45.68993" lon="6.45643">
        <ele>1603</ele>
        <time>2022-07-28T12:44:15Z</time>
      </trkpt>
      <trkpt lat="45.68994" lon="6.45644">
        <ele>1603</ele>
        <time>2022-07-28T12:44:16Z</time>
      </trkpt>
      <trkpt lat="45.68995" lon="6.45644">
        <ele>1602</ele>
        <time>2022-07-28T12:44:17Z</time>
      </trkpt>
      <trkpt lat="45.68997" lon="6.45645">
        <ele>1602</ele>
        <time>2022-07-28T12:44:18Z</time>
      </trkpt>
      <trkpt lat="45.68998" lon="6.45646">
        <ele>1602</ele>
        <time>2022-07-28T12:44:19Z</time>
      </trkpt>
      <trkpt lat="45.68999" lon="6.45646">
        <ele>1602</ele>
        <time>2022-07-28T12:44:20Z</time>
      </trkpt>
      <trkpt lat="45.69" lon="6.45647">
        <ele>1602</ele>
        <time>2022-07-28T12:44:21Z</time>
      </trkpt>
      <trkpt lat="45.69001" lon="6.45647">
        <ele>1601</ele>
        <time>2022-07-28T12:44:22Z</time>
      </trkpt>
      <trkpt lat="45.69002" lon="6.45648">
        <ele>1601</ele>
        <time>2022-07-28T12:44:23Z</time>
      </trkpt>
      <trkpt lat="45.69004" lon="6.45648">
        <ele>1601</ele>
        <time>2022-07-28T12:44:24Z</time>
      </trkpt>
      <trkpt lat="45.69005" lon="6.45649">
        <ele>1601</ele>
        <time>2022-07-28T12:44:25Z</time>
      </trkpt>
      <trkpt lat="45.69006" lon="6.45649">
        <ele>1601</ele>
        <time>2022-07-28T12:44:26Z</time>
      </trkpt>
      <trkpt lat="45.69007" lon="6.45649">
        <ele>1601</ele>
        <time>2022-07-28T12:44:27Z</time>
      </trkpt>
      <trkpt lat="45.69008" lon="6.45649">
        <ele>1601</ele>
        <time>2022-07-28T12:44:28Z</time>
      </trkpt>
      <trkpt lat="45.69009" lon="6.4565">
        <ele>1601</ele>
        <time>2022-07-28T12:44:29Z</time>
      </trkpt>
      <trkpt lat="45.69011" lon="6.4565">
        <ele>1601</ele>
        <time>2022-07-28T12:44:30Z</time>
      </trkpt>
      <trkpt lat="45.69012" lon="6.4565">
        <ele>1601</ele>
        <time>2022-07-28T12:44:31Z</time>
      </trkpt>
      <trkpt lat="45.69013" lon="6.4565">
        <ele>1600</ele>
        <time>2022-07-28T12:44:32Z</time>
      </trkpt>
      <trkpt lat="45.69014" lon="6.4565">
        <ele>1600</ele>
        <time>2022-07-28T12:44:33Z</time>
      </trkpt>
      <trkpt lat="45.69016" lon="6.45651">
        <ele>1600</ele>
        <time>2022-07-28T12:44:34Z</time>
      </trkpt>
      <trkpt lat="45.69017" lon="6.45651">
        <ele>1600</ele>
        <time>2022-07-28T12:44:35Z</time>
      </trkpt>
      <trkpt lat="45.69018" lon="6.45652">
        <ele>1600</ele>
        <time>2022-07-28T12:44:36Z</time>
      </trkpt>
      <trkpt lat="45.69019" lon="6.45652">
        <ele>1600</ele>
        <time>2022-07-28T12:44:37Z</time>
      </trkpt>
      <trkpt lat="45.6902" lon="6.45652">
        <ele>1600</ele>
        <time>2022-07-28T12:44:38Z</time>
      </trkpt>
      <trkpt lat="45.69021" lon="6.45653">
        <ele>1600</ele>
        <time>2022-07-28T12:44:39Z</time>
      </trkpt>
      <trkpt lat="45.69023" lon="6.45653">
        <ele>1600</ele>
        <time>2022-07-28T12:44:40Z</time>
      </trkpt>
      <trkpt lat="45.69024" lon="6.45654">
        <ele>1600</ele>
        <time>2022-07-28T12:44:41Z</time>
      </trkpt>
      <trkpt lat="45.69025" lon="6.45654">
        <ele>1599</ele>
        <time>2022-07-28T12:44:42Z</time>
      </trkpt>
      <trkpt lat="45.69026" lon="6.45655">
        <ele>1599</ele>
        <time>2022-07-28T12:44:43Z</time>
      </trkpt>
      <trkpt lat="45.69027" lon="6.45655">
        <ele>1599</ele>
        <time>2022-07-28T12:44:44Z</time>
      </trkpt>
      <trkpt lat="45.69028" lon="6.45656">
        <ele>1599</ele>
        <time>2022-07-28T12:44:45Z</time>
      </trkpt>
      <trkpt lat="45.69029" lon="6.45656">
        <ele>1599</ele>
        <time>2022-07-28T12:44:46Z</time>
      </trkpt>
      <trkpt lat="45.6903" lon="6.45657">
        <ele>1598</ele>
        <time>2022-07-28T12:44:47Z</time>
      </trkpt>
      <trkpt lat="45.69031" lon="6.45658">
        <ele>1598</ele>
        <time>2022-07-28T12:44:48Z</time>
      </trkpt>
      <trkpt lat="45.69032" lon="6.45658">
        <ele>1598</ele>
        <time>2022-07-28T12:44:49Z</time>
      </trkpt>
      <trkpt lat="45.69033" lon="6.45659">
        <ele>1598</ele>
        <time>2022-07-28T12:44:50Z</time>
      </trkpt>
      <trkpt lat="45.69034" lon="6.4566">
        <ele>1598</ele>
        <time>2022-07-28T12:44:51Z</time>
      </trkpt>
      <trkpt lat="45.69035" lon="6.4566">
        <ele>1598</ele>
        <time>2022-07-28T12:44:52Z</time>
      </trkpt>
      <trkpt lat="45.69036" lon="6.45661">
        <ele>1598</ele>
        <time>2022-07-28T12:44:53Z</time>
      </trkpt>
      <trkpt lat="45.69037" lon="6.45661">
        <ele>1598</ele>
        <time>2022-07-28T12:44:54Z</time>
      </trkpt>
      <trkpt lat="45.69038" lon="6.45662">
        <ele>1598</ele>
        <time>2022-07-28T12:44:55Z</time>
      </trkpt>
      <trkpt lat="45.69039" lon="6.45662">
        <ele>1598</ele>
        <time>2022-07-28T12:44:56Z</time>
      </trkpt>
      <trkpt lat="45.6904" lon="6.45662">
        <ele>1597</ele>
        <time>2022-07-28T12:44:57Z</time>
      </trkpt>
      <trkpt lat="45.69041" lon="6.45663">
        <ele>1597</ele>
        <time>2022-07-28T12:44:58Z</time>
      </trkpt>
      <trkpt lat="45.69042" lon="6.45663">
        <ele>1596</ele>
        <time>2022-07-28T12:44:59Z</time>
      </trkpt>
      <trkpt lat="45.69043" lon="6.45664">
        <ele>1596</ele>
        <time>2022-07-28T12:45:00Z</time>
      </trkpt>
      <trkpt lat="45.69044" lon="6.45664">
        <ele>1596</ele>
        <time>2022-07-28T12:45:01Z</time>
      </trkpt>
      <trkpt lat="45.69045" lon="6.45665">
        <ele>1596</ele>
        <time>2022-07-28T12:45:02Z</time>
      </trkpt>
      <trkpt lat="45.69046" lon="6.45665">
        <ele>1596</ele>
        <time>2022-07-28T12:45:03Z</time>
      </trkpt>
      <trkpt lat="45.69047" lon="6.45666">
        <ele>1596</ele>
        <time>2022-07-28T12:45:04Z</time>
      </trkpt>
      <trkpt lat="45.69048" lon="6.45667">
        <ele>1596</ele>
        <time>2022-07-28T12:45:05Z</time>
      </trkpt>
      <trkpt lat="45.6905" lon="6.45667">
        <ele>1596</ele>
        <time>2022-07-28T12:45:06Z</time>
      </trkpt>
      <trkpt lat="45.69051" lon="6.45668">
        <ele>1595</ele>
        <time>2022-07-28T12:45:07Z</time>
      </trkpt>
      <trkpt lat="45.69052" lon="6.45668">
        <ele>1595</ele>
        <time>2022-07-28T12:45:08Z</time>
      </trkpt>
      <trkpt lat="45.69053" lon="6.45669">
        <ele>1595</ele>
        <time>2022-07-28T12:45:09Z</time>
      </trkpt>
      <trkpt lat="45.69054" lon="6.4567">
        <ele>1595</ele>
        <time>2022-07-28T12:45:10Z</time>
      </trkpt>
      <trkpt lat="45.69055" lon="6.4567">
        <ele>1595</ele>
        <time>2022-07-28T12:45:11Z</time>
      </trkpt>
      <trkpt lat="45.69057" lon="6.45671">
        <ele>1594</ele>
        <time>2022-07-28T12:45:12Z</time>
      </trkpt>
      <trkpt lat="45.69058" lon="6.45672">
        <ele>1594</ele>
        <time>2022-07-28T12:45:13Z</time>
      </trkpt>
      <trkpt lat="45.69059" lon="6.45672">
        <ele>1594</ele>
        <time>2022-07-28T12:45:14Z</time>
      </trkpt>
      <trkpt lat="45.6906" lon="6.45673">
        <ele>1594</ele>
        <time>2022-07-28T12:45:15Z</time>
      </trkpt>
      <trkpt lat="45.69061" lon="6.45673">
        <ele>1594</ele>
        <time>2022-07-28T12:45:16Z</time>
      </trkpt>
      <trkpt lat="45.69062" lon="6.45674">
        <ele>1594</ele>
        <time>2022-07-28T12:45:17Z</time>
      </trkpt>
      <trkpt lat="45.69063" lon="6.45674">
        <ele>1594</ele>
        <time>2022-07-28T12:45:18Z</time>
      </trkpt>
      <trkpt lat="45.69064" lon="6.45675">
        <ele>1594</ele>
        <time>2022-07-28T12:45:19Z</time>
      </trkpt>
      <trkpt lat="45.69066" lon="6.45675">
        <ele>1594</ele>
        <time>2022-07-28T12:45:20Z</time>
      </trkpt>
      <trkpt lat="45.69067" lon="6.45675">
        <ele>1594</ele>
        <time>2022-07-28T12:45:21Z</time>
      </trkpt>
      <trkpt lat="45.69068" lon="6.45675">
        <ele>1593</ele>
        <time>2022-07-28T12:45:22Z</time>
      </trkpt>
      <trkpt lat="45.69069" lon="6.45676">
        <ele>1593</ele>
        <time>2022-07-28T12:45:23Z</time>
      </trkpt>
      <trkpt lat="45.6907" lon="6.45676">
        <ele>1593</ele>
        <time>2022-07-28T12:45:24Z</time>
      </trkpt>
      <trkpt lat="45.69071" lon="6.45676">
        <ele>1593</ele>
        <time>2022-07-28T12:45:25Z</time>
      </trkpt>
      <trkpt lat="45.69072" lon="6.45676">
        <ele>1593</ele>
        <time>2022-07-28T12:45:26Z</time>
      </trkpt>
      <trkpt lat="45.69074" lon="6.45676">
        <ele>1593</ele>
        <time>2022-07-28T12:45:27Z</time>
      </trkpt>
      <trkpt lat="45.69075" lon="6.45676">
        <ele>1593</ele>
        <time>2022-07-28T12:45:28Z</time>
      </trkpt>
      <trkpt lat="45.69076" lon="6.45676">
        <ele>1593</ele>
        <time>2022-07-28T12:45:29Z</time>
      </trkpt>
      <trkpt lat="45.69077" lon="6.45676">
        <ele>1593</ele>
        <time>2022-07-28T12:45:30Z</time>
      </trkpt>
      <trkpt lat="45.69078" lon="6.45676">
        <ele>1593</ele>
        <time>2022-07-28T12:45:31Z</time>
      </trkpt>
      <trkpt lat="45.69079" lon="6.45677">
        <ele>1592</ele>
        <time>2022-07-28T12:45:32Z</time>
      </trkpt>
      <trkpt lat="45.6908" lon="6.45677">
        <ele>1592</ele>
        <time>2022-07-28T12:45:33Z</time>
      </trkpt>
      <trkpt lat="45.69081" lon="6.45677">
        <ele>1592</ele>
        <time>2022-07-28T12:45:34Z</time>
      </trkpt>
      <trkpt lat="45.69082" lon="6.45677">
        <ele>1592</ele>
        <time>2022-07-28T12:45:35Z</time>
      </trkpt>
      <trkpt lat="45.69083" lon="6.45678">
        <ele>1592</ele>
        <time>2022-07-28T12:45:36Z</time>
      </trkpt>
      <trkpt lat="45.69084" lon="6.45678">
        <ele>1591</ele>
        <time>2022-07-28T12:45:37Z</time>
      </trkpt>
      <trkpt lat="45.69085" lon="6.45678">
        <ele>1591</ele>
        <time>2022-07-28T12:45:38Z</time>
      </trkpt>
      <trkpt lat="45.69086" lon="6.45679">
        <ele>1591</ele>
        <time>2022-07-28T12:45:39Z</time>
      </trkpt>
      <trkpt lat="45.69087" lon="6.45679">
        <ele>1591</ele>
        <time>2022-07-28T12:45:40Z</time>
      </trkpt>
      <trkpt lat="45.69087" lon="6.4568">
        <ele>1591</ele>
        <time>2022-07-28T12:45:41Z</time>
      </trkpt>
      <trkpt lat="45.69088" lon="6.4568">
        <ele>1591</ele>
        <time>2022-07-28T12:45:42Z</time>
      </trkpt>
      <trkpt lat="45.69089" lon="6.45681">
        <ele>1591</ele>
        <time>2022-07-28T12:45:43Z</time>
      </trkpt>
      <trkpt lat="45.69091" lon="6.45681">
        <ele>1591</ele>
        <time>2022-07-28T12:45:44Z</time>
      </trkpt>
      <trkpt lat="45.69092" lon="6.45682">
        <ele>1591</ele>
        <time>2022-07-28T12:45:45Z</time>
      </trkpt>
      <trkpt lat="45.69093" lon="6.45682">
        <ele>1591</ele>
        <time>2022-07-28T12:45:46Z</time>
      </trkpt>
      <trkpt lat="45.69094" lon="6.45682">
        <ele>1591</ele>
        <time>2022-07-28T12:45:47Z</time>
      </trkpt>
      <trkpt lat="45.69095" lon="6.45682">
        <ele>1591</ele>
        <time>2022-07-28T12:45:48Z</time>
      </trkpt>
      <trkpt lat="45.69096" lon="6.45682">
        <ele>1591</ele>
        <time>2022-07-28T12:45:49Z</time>
      </trkpt>
      <trkpt lat="45.69097" lon="6.45682">
        <ele>1591</ele>
        <time>2022-07-28T12:45:50Z</time>
      </trkpt>
      <trkpt lat="45.69098" lon="6.45683">
        <ele>1591</ele>
        <time>2022-07-28T12:45:51Z</time>
      </trkpt>
      <trkpt lat="45.69099" lon="6.45683">
        <ele>1590</ele>
        <time>2022-07-28T12:45:52Z</time>
      </trkpt>
      <trkpt lat="45.691" lon="6.45684">
        <ele>1590</ele>
        <time>2022-07-28T12:45:53Z</time>
      </trkpt>
      <trkpt lat="45.69101" lon="6.45684">
        <ele>1590</ele>
        <time>2022-07-28T12:45:54Z</time>
      </trkpt>
      <trkpt lat="45.69102" lon="6.45685">
        <ele>1590</ele>
        <time>2022-07-28T12:45:55Z</time>
      </trkpt>
      <trkpt lat="45.69103" lon="6.45685">
        <ele>1590</ele>
        <time>2022-07-28T12:45:56Z</time>
      </trkpt>
      <trkpt lat="45.69104" lon="6.45685">
        <ele>1590</ele>
        <time>2022-07-28T12:45:57Z</time>
      </trkpt>
      <trkpt lat="45.69105" lon="6.45686">
        <ele>1590</ele>
        <time>2022-07-28T12:45:58Z</time>
      </trkpt>
      <trkpt lat="45.69106" lon="6.45686">
        <ele>1590</ele>
        <time>2022-07-28T12:45:59Z</time>
      </trkpt>
      <trkpt lat="45.69107" lon="6.45686">
        <ele>1590</ele>
        <time>2022-07-28T12:46:00Z</time>
      </trkpt>
      <trkpt lat="45.69108" lon="6.45686">
        <ele>1590</ele>
        <time>2022-07-28T12:46:01Z</time>
      </trkpt>
      <trkpt lat="45.69109" lon="6.45687">
        <ele>1589</ele>
        <time>2022-07-28T12:46:02Z</time>
      </trkpt>
      <trkpt lat="45.6911" lon="6.45687">
        <ele>1589</ele>
        <time>2022-07-28T12:46:03Z</time>
      </trkpt>
      <trkpt lat="45.69111" lon="6.45687">
        <ele>1589</ele>
        <time>2022-07-28T12:46:04Z</time>
      </trkpt>
      <trkpt lat="45.69111" lon="6.45687">
        <ele>1589</ele>
        <time>2022-07-28T12:46:05Z</time>
      </trkpt>
      <trkpt lat="45.69112" lon="6.45687">
        <ele>1589</ele>
        <time>2022-07-28T12:46:06Z</time>
      </trkpt>
      <trkpt lat="45.69113" lon="6.45687">
        <ele>1588</ele>
        <time>2022-07-28T12:46:07Z</time>
      </trkpt>
      <trkpt lat="45.69114" lon="6.45687">
        <ele>1588</ele>
        <time>2022-07-28T12:46:08Z</time>
      </trkpt>
      <trkpt lat="45.69115" lon="6.45687">
        <ele>1588</ele>
        <time>2022-07-28T12:46:09Z</time>
      </trkpt>
      <trkpt lat="45.69116" lon="6.45687">
        <ele>1588</ele>
        <time>2022-07-28T12:46:10Z</time>
      </trkpt>
      <trkpt lat="45.69116" lon="6.45687">
        <ele>1588</ele>
        <time>2022-07-28T12:46:11Z</time>
      </trkpt>
      <trkpt lat="45.69117" lon="6.45687">
        <ele>1588</ele>
        <time>2022-07-28T12:46:12Z</time>
      </trkpt>
      <trkpt lat="45.69118" lon="6.45687">
        <ele>1588</ele>
        <time>2022-07-28T12:46:13Z</time>
      </trkpt>
      <trkpt lat="45.69118" lon="6.45687">
        <ele>1588</ele>
        <time>2022-07-28T12:46:14Z</time>
      </trkpt>
      <trkpt lat="45.69119" lon="6.45687">
        <ele>1588</ele>
        <time>2022-07-28T12:46:15Z</time>
      </trkpt>
      <trkpt lat="45.6912" lon="6.45687">
        <ele>1588</ele>
        <time>2022-07-28T12:46:16Z</time>
      </trkpt>
      <trkpt lat="45.69121" lon="6.45687">
        <ele>1587</ele>
        <time>2022-07-28T12:46:17Z</time>
      </trkpt>
      <trkpt lat="45.69122" lon="6.45687">
        <ele>1587</ele>
        <time>2022-07-28T12:46:18Z</time>
      </trkpt>
      <trkpt lat="45.69123" lon="6.45687">
        <ele>1587</ele>
        <time>2022-07-28T12:46:19Z</time>
      </trkpt>
      <trkpt lat="45.69124" lon="6.45687">
        <ele>1587</ele>
        <time>2022-07-28T12:46:20Z</time>
      </trkpt>
      <trkpt lat="45.69125" lon="6.45688">
        <ele>1587</ele>
        <time>2022-07-28T12:46:21Z</time>
      </trkpt>
      <trkpt lat="45.69126" lon="6.45688">
        <ele>1586</ele>
        <time>2022-07-28T12:46:22Z</time>
      </trkpt>
      <trkpt lat="45.69127" lon="6.45688">
        <ele>1586</ele>
        <time>2022-07-28T12:46:23Z</time>
      </trkpt>
      <trkpt lat="45.69128" lon="6.45688">
        <ele>1586</ele>
        <time>2022-07-28T12:46:24Z</time>
      </trkpt>
      <trkpt lat="45.69129" lon="6.45688">
        <ele>1586</ele>
        <time>2022-07-28T12:46:25Z</time>
      </trkpt>
      <trkpt lat="45.69131" lon="6.45688">
        <ele>1586</ele>
        <time>2022-07-28T12:46:26Z</time>
      </trkpt>
      <trkpt lat="45.69132" lon="6.45688">
        <ele>1585</ele>
        <time>2022-07-28T12:46:27Z</time>
      </trkpt>
      <trkpt lat="45.69133" lon="6.45688">
        <ele>1585</ele>
        <time>2022-07-28T12:46:28Z</time>
      </trkpt>
      <trkpt lat="45.69134" lon="6.45688">
        <ele>1585</ele>
        <time>2022-07-28T12:46:29Z</time>
      </trkpt>
      <trkpt lat="45.69136" lon="6.45688">
        <ele>1585</ele>
        <time>2022-07-28T12:46:30Z</time>
      </trkpt>
      <trkpt lat="45.69137" lon="6.45688">
        <ele>1585</ele>
        <time>2022-07-28T12:46:31Z</time>
      </trkpt>
      <trkpt lat="45.69138" lon="6.45687">
        <ele>1584</ele>
        <time>2022-07-28T12:46:48Z</time>
      </trkpt>
      <trkpt lat="45.69138" lon="6.45687">
        <ele>1584</ele>
        <time>2022-07-28T12:46:49Z</time>
      </trkpt>
      <trkpt lat="45.69139" lon="6.45686">
        <ele>1584</ele>
        <time>2022-07-28T12:46:50Z</time>
      </trkpt>
      <trkpt lat="45.6914" lon="6.45686">
        <ele>1584</ele>
        <time>2022-07-28T12:46:51Z</time>
      </trkpt>
      <trkpt lat="45.6914" lon="6.45685">
        <ele>1583</ele>
        <time>2022-07-28T12:46:52Z</time>
      </trkpt>
      <trkpt lat="45.69141" lon="6.45685">
        <ele>1583</ele>
        <time>2022-07-28T12:46:53Z</time>
      </trkpt>
      <trkpt lat="45.69142" lon="6.45684">
        <ele>1583</ele>
        <time>2022-07-28T12:46:54Z</time>
      </trkpt>
      <trkpt lat="45.69143" lon="6.45684">
        <ele>1583</ele>
        <time>2022-07-28T12:46:55Z</time>
      </trkpt>
      <trkpt lat="45.69144" lon="6.45683">
        <ele>1583</ele>
        <time>2022-07-28T12:46:56Z</time>
      </trkpt>
      <trkpt lat="45.69145" lon="6.45683">
        <ele>1582</ele>
        <time>2022-07-28T12:46:57Z</time>
      </trkpt>
      <trkpt lat="45.69146" lon="6.45683">
        <ele>1582</ele>
        <time>2022-07-28T12:46:58Z</time>
      </trkpt>
      <trkpt lat="45.69148" lon="6.45683">
        <ele>1582</ele>
        <time>2022-07-28T12:46:59Z</time>
      </trkpt>
      <trkpt lat="45.69149" lon="6.45683">
        <ele>1582</ele>
        <time>2022-07-28T12:47:00Z</time>
      </trkpt>
      <trkpt lat="45.6915" lon="6.45683">
        <ele>1582</ele>
        <time>2022-07-28T12:47:01Z</time>
      </trkpt>
      <trkpt lat="45.69151" lon="6.45682">
        <ele>1581</ele>
        <time>2022-07-28T12:47:02Z</time>
      </trkpt>
      <trkpt lat="45.69152" lon="6.45682">
        <ele>1581</ele>
        <time>2022-07-28T12:47:03Z</time>
      </trkpt>
      <trkpt lat="45.69153" lon="6.45682">
        <ele>1581</ele>
        <time>2022-07-28T12:47:04Z</time>
      </trkpt>
      <trkpt lat="45.69154" lon="6.45682">
        <ele>1581</ele>
        <time>2022-07-28T12:47:05Z</time>
      </trkpt>
      <trkpt lat="45.69155" lon="6.45682">
        <ele>1581</ele>
        <time>2022-07-28T12:47:06Z</time>
      </trkpt>
      <trkpt lat="45.69156" lon="6.45681">
        <ele>1580</ele>
        <time>2022-07-28T12:47:07Z</time>
      </trkpt>
      <trkpt lat="45.69157" lon="6.45681">
        <ele>1580</ele>
        <time>2022-07-28T12:47:08Z</time>
      </trkpt>
      <trkpt lat="45.69158" lon="6.45681">
        <ele>1580</ele>
        <time>2022-07-28T12:47:09Z</time>
      </trkpt>
      <trkpt lat="45.69159" lon="6.45681">
        <ele>1580</ele>
        <time>2022-07-28T12:47:10Z</time>
      </trkpt>
      <trkpt lat="45.6916" lon="6.4568">
        <ele>1580</ele>
        <time>2022-07-28T12:47:11Z</time>
      </trkpt>
      <trkpt lat="45.69161" lon="6.4568">
        <ele>1579</ele>
        <time>2022-07-28T12:47:12Z</time>
      </trkpt>
      <trkpt lat="45.69163" lon="6.45679">
        <ele>1579</ele>
        <time>2022-07-28T12:47:13Z</time>
      </trkpt>
      <trkpt lat="45.69164" lon="6.45679">
        <ele>1579</ele>
        <time>2022-07-28T12:47:14Z</time>
      </trkpt>
      <trkpt lat="45.69165" lon="6.45679">
        <ele>1579</ele>
        <time>2022-07-28T12:47:15Z</time>
      </trkpt>
      <trkpt lat="45.69166" lon="6.45678">
        <ele>1579</ele>
        <time>2022-07-28T12:47:16Z</time>
      </trkpt>
      <trkpt lat="45.69167" lon="6.45678">
        <ele>1579</ele>
        <time>2022-07-28T12:47:17Z</time>
      </trkpt>
      <trkpt lat="45.69168" lon="6.45678">
        <ele>1579</ele>
        <time>2022-07-28T12:47:18Z</time>
      </trkpt>
      <trkpt lat="45.69169" lon="6.45678">
        <ele>1579</ele>
        <time>2022-07-28T12:47:19Z</time>
      </trkpt>
      <trkpt lat="45.6917" lon="6.45678">
        <ele>1579</ele>
        <time>2022-07-28T12:47:20Z</time>
      </trkpt>
      <trkpt lat="45.69171" lon="6.45678">
        <ele>1579</ele>
        <time>2022-07-28T12:47:21Z</time>
      </trkpt>
      <trkpt lat="45.69173" lon="6.45678">
        <ele>1578</ele>
        <time>2022-07-28T12:47:22Z</time>
      </trkpt>
      <trkpt lat="45.69174" lon="6.45677">
        <ele>1578</ele>
        <time>2022-07-28T12:47:23Z</time>
      </trkpt>
      <trkpt lat="45.69175" lon="6.45677">
        <ele>1578</ele>
        <time>2022-07-28T12:47:24Z</time>
      </trkpt>
      <trkpt lat="45.69177" lon="6.45676">
        <ele>1578</ele>
        <time>2022-07-28T12:47:25Z</time>
      </trkpt>
      <trkpt lat="45.69179" lon="6.45676">
        <ele>1578</ele>
        <time>2022-07-28T12:47:26Z</time>
      </trkpt>
      <trkpt lat="45.6918" lon="6.45675">
        <ele>1577</ele>
        <time>2022-07-28T12:47:27Z</time>
      </trkpt>
      <trkpt lat="45.69182" lon="6.45675">
        <ele>1577</ele>
        <time>2022-07-28T12:47:28Z</time>
      </trkpt>
      <trkpt lat="45.69183" lon="6.45674">
        <ele>1577</ele>
        <time>2022-07-28T12:47:29Z</time>
      </trkpt>
      <trkpt lat="45.69185" lon="6.45674">
        <ele>1577</ele>
        <time>2022-07-28T12:47:30Z</time>
      </trkpt>
      <trkpt lat="45.69186" lon="6.45673">
        <ele>1577</ele>
        <time>2022-07-28T12:47:31Z</time>
      </trkpt>
      <trkpt lat="45.69187" lon="6.45672">
        <ele>1576</ele>
        <time>2022-07-28T12:47:32Z</time>
      </trkpt>
      <trkpt lat="45.69189" lon="6.45671">
        <ele>1576</ele>
        <time>2022-07-28T12:47:33Z</time>
      </trkpt>
      <trkpt lat="45.6919" lon="6.4567">
        <ele>1576</ele>
        <time>2022-07-28T12:47:34Z</time>
      </trkpt>
      <trkpt lat="45.69191" lon="6.45669">
        <ele>1576</ele>
        <time>2022-07-28T12:47:35Z</time>
      </trkpt>
      <trkpt lat="45.69192" lon="6.45668">
        <ele>1576</ele>
        <time>2022-07-28T12:47:36Z</time>
      </trkpt>
      <trkpt lat="45.69194" lon="6.45667">
        <ele>1575</ele>
        <time>2022-07-28T12:47:37Z</time>
      </trkpt>
      <trkpt lat="45.69195" lon="6.45666">
        <ele>1575</ele>
        <time>2022-07-28T12:47:38Z</time>
      </trkpt>
      <trkpt lat="45.69196" lon="6.45665">
        <ele>1575</ele>
        <time>2022-07-28T12:47:39Z</time>
      </trkpt>
      <trkpt lat="45.69198" lon="6.45664">
        <ele>1575</ele>
        <time>2022-07-28T12:47:40Z</time>
      </trkpt>
      <trkpt lat="45.69199" lon="6.45663">
        <ele>1575</ele>
        <time>2022-07-28T12:47:41Z</time>
      </trkpt>
      <trkpt lat="45.69201" lon="6.45662">
        <ele>1574</ele>
        <time>2022-07-28T12:47:42Z</time>
      </trkpt>
      <trkpt lat="45.69202" lon="6.45661">
        <ele>1574</ele>
        <time>2022-07-28T12:47:43Z</time>
      </trkpt>
      <trkpt lat="45.69203" lon="6.4566">
        <ele>1574</ele>
        <time>2022-07-28T12:47:44Z</time>
      </trkpt>
      <trkpt lat="45.69205" lon="6.45659">
        <ele>1574</ele>
        <time>2022-07-28T12:47:45Z</time>
      </trkpt>
      <trkpt lat="45.69206" lon="6.45658">
        <ele>1574</ele>
        <time>2022-07-28T12:47:46Z</time>
      </trkpt>
      <trkpt lat="45.69207" lon="6.45657">
        <ele>1573</ele>
        <time>2022-07-28T12:47:47Z</time>
      </trkpt>
      <trkpt lat="45.69208" lon="6.45656">
        <ele>1573</ele>
        <time>2022-07-28T12:47:48Z</time>
      </trkpt>
      <trkpt lat="45.6921" lon="6.45656">
        <ele>1573</ele>
        <time>2022-07-28T12:47:49Z</time>
      </trkpt>
      <trkpt lat="45.69211" lon="6.45655">
        <ele>1573</ele>
        <time>2022-07-28T12:47:50Z</time>
      </trkpt>
      <trkpt lat="45.69212" lon="6.45654">
        <ele>1573</ele>
        <time>2022-07-28T12:47:51Z</time>
      </trkpt>
      <trkpt lat="45.69214" lon="6.45653">
        <ele>1572</ele>
        <time>2022-07-28T12:47:52Z</time>
      </trkpt>
      <trkpt lat="45.69215" lon="6.45653">
        <ele>1572</ele>
        <time>2022-07-28T12:47:53Z</time>
      </trkpt>
      <trkpt lat="45.69216" lon="6.45652">
        <ele>1572</ele>
        <time>2022-07-28T12:47:54Z</time>
      </trkpt>
      <trkpt lat="45.69218" lon="6.45652">
        <ele>1572</ele>
        <time>2022-07-28T12:47:55Z</time>
      </trkpt>
      <trkpt lat="45.69219" lon="6.45652">
        <ele>1572</ele>
        <time>2022-07-28T12:47:56Z</time>
      </trkpt>
      <trkpt lat="45.6922" lon="6.45651">
        <ele>1572</ele>
        <time>2022-07-28T12:47:57Z</time>
      </trkpt>
      <trkpt lat="45.69221" lon="6.45651">
        <ele>1572</ele>
        <time>2022-07-28T12:47:58Z</time>
      </trkpt>
      <trkpt lat="45.69223" lon="6.45651">
        <ele>1572</ele>
        <time>2022-07-28T12:47:59Z</time>
      </trkpt>
      <trkpt lat="45.69224" lon="6.45651">
        <ele>1572</ele>
        <time>2022-07-28T12:48:00Z</time>
      </trkpt>
      <trkpt lat="45.69224" lon="6.45652">
        <ele>1572</ele>
        <time>2022-07-28T12:48:01Z</time>
      </trkpt>
      <trkpt lat="45.69225" lon="6.45652">
        <ele>1572</ele>
        <time>2022-07-28T12:48:02Z</time>
      </trkpt>
      <trkpt lat="45.69225" lon="6.45652">
        <ele>1572</ele>
        <time>2022-07-28T12:48:03Z</time>
      </trkpt>
      <trkpt lat="45.69226" lon="6.45653">
        <ele>1572</ele>
        <time>2022-07-28T12:48:04Z</time>
      </trkpt>
      <trkpt lat="45.69226" lon="6.45653">
        <ele>1572</ele>
        <time>2022-07-28T12:48:05Z</time>
      </trkpt>
      <trkpt lat="45.69226" lon="6.45653">
        <ele>1572</ele>
        <time>2022-07-28T12:48:06Z</time>
      </trkpt>
      <trkpt lat="45.69226" lon="6.45653">
        <ele>1571</ele>
        <time>2022-07-28T12:48:07Z</time>
      </trkpt>
      <trkpt lat="45.69227" lon="6.45653">
        <ele>1571</ele>
        <time>2022-07-28T12:48:08Z</time>
      </trkpt>
      <trkpt lat="45.69227" lon="6.45653">
        <ele>1571</ele>
        <time>2022-07-28T12:48:09Z</time>
      </trkpt>
      <trkpt lat="45.69228" lon="6.45652">
        <ele>1571</ele>
        <time>2022-07-28T12:48:10Z</time>
      </trkpt>
      <trkpt lat="45.69229" lon="6.45651">
        <ele>1571</ele>
        <time>2022-07-28T12:48:11Z</time>
      </trkpt>
      <trkpt lat="45.6923" lon="6.45651">
        <ele>1570</ele>
        <time>2022-07-28T12:48:12Z</time>
      </trkpt>
      <trkpt lat="45.69232" lon="6.4565">
        <ele>1570</ele>
        <time>2022-07-28T12:48:13Z</time>
      </trkpt>
      <trkpt lat="45.69233" lon="6.4565">
        <ele>1570</ele>
        <time>2022-07-28T12:48:14Z</time>
      </trkpt>
      <trkpt lat="45.69234" lon="6.45649">
        <ele>1570</ele>
        <time>2022-07-28T12:48:15Z</time>
      </trkpt>
      <trkpt lat="45.69235" lon="6.45649">
        <ele>1570</ele>
        <time>2022-07-28T12:48:16Z</time>
      </trkpt>
      <trkpt lat="45.69236" lon="6.45649">
        <ele>1570</ele>
        <time>2022-07-28T12:48:17Z</time>
      </trkpt>
      <trkpt lat="45.69237" lon="6.45648">
        <ele>1570</ele>
        <time>2022-07-28T12:48:18Z</time>
      </trkpt>
      <trkpt lat="45.69238" lon="6.45648">
        <ele>1570</ele>
        <time>2022-07-28T12:48:19Z</time>
      </trkpt>
      <trkpt lat="45.69239" lon="6.45647">
        <ele>1570</ele>
        <time>2022-07-28T12:48:20Z</time>
      </trkpt>
      <trkpt lat="45.69239" lon="6.45647">
        <ele>1570</ele>
        <time>2022-07-28T12:48:21Z</time>
      </trkpt>
      <trkpt lat="45.6924" lon="6.45647">
        <ele>1570</ele>
        <time>2022-07-28T12:48:22Z</time>
      </trkpt>
      <trkpt lat="45.69241" lon="6.45646">
        <ele>1570</ele>
        <time>2022-07-28T12:48:23Z</time>
      </trkpt>
      <trkpt lat="45.69242" lon="6.45646">
        <ele>1570</ele>
        <time>2022-07-28T12:48:24Z</time>
      </trkpt>
      <trkpt lat="45.69242" lon="6.45647">
        <ele>1570</ele>
        <time>2022-07-28T12:48:25Z</time>
      </trkpt>
      <trkpt lat="45.69243" lon="6.45647">
        <ele>1570</ele>
        <time>2022-07-28T12:48:26Z</time>
      </trkpt>
      <trkpt lat="45.69244" lon="6.45647">
        <ele>1569</ele>
        <time>2022-07-28T12:48:27Z</time>
      </trkpt>
      <trkpt lat="45.69245" lon="6.45647">
        <ele>1568</ele>
        <time>2022-07-28T12:48:51Z</time>
      </trkpt>
      <trkpt lat="45.69245" lon="6.45647">
        <ele>1568</ele>
        <time>2022-07-28T12:48:52Z</time>
      </trkpt>
      <trkpt lat="45.69246" lon="6.45647">
        <ele>1568</ele>
        <time>2022-07-28T12:48:53Z</time>
      </trkpt>
      <trkpt lat="45.69246" lon="6.45646">
        <ele>1568</ele>
        <time>2022-07-28T12:48:54Z</time>
      </trkpt>
      <trkpt lat="45.69246" lon="6.45645">
        <ele>1568</ele>
        <time>2022-07-28T12:48:55Z</time>
      </trkpt>
      <trkpt lat="45.69245" lon="6.45644">
        <ele>1568</ele>
        <time>2022-07-28T12:48:56Z</time>
      </trkpt>
      <trkpt lat="45.69245" lon="6.45643">
        <ele>1567</ele>
        <time>2022-07-28T12:48:57Z</time>
      </trkpt>
      <trkpt lat="45.69244" lon="6.45642">
        <ele>1567</ele>
        <time>2022-07-28T12:48:58Z</time>
      </trkpt>
      <trkpt lat="45.69244" lon="6.45641">
        <ele>1566</ele>
        <time>2022-07-28T12:48:59Z</time>
      </trkpt>
      <trkpt lat="45.69245" lon="6.4564">
        <ele>1566</ele>
        <time>2022-07-28T12:49:00Z</time>
      </trkpt>
      <trkpt lat="45.69245" lon="6.45639">
        <ele>1566</ele>
        <time>2022-07-28T12:49:01Z</time>
      </trkpt>
      <trkpt lat="45.69246" lon="6.45639">
        <ele>1565</ele>
        <time>2022-07-28T12:49:02Z</time>
      </trkpt>
      <trkpt lat="45.69247" lon="6.45638">
        <ele>1565</ele>
        <time>2022-07-28T12:49:03Z</time>
      </trkpt>
      <trkpt lat="45.69247" lon="6.45637">
        <ele>1565</ele>
        <time>2022-07-28T12:49:04Z</time>
      </trkpt>
      <trkpt lat="45.69247" lon="6.45637">
        <ele>1565</ele>
        <time>2022-07-28T12:49:05Z</time>
      </trkpt>
      <trkpt lat="45.69247" lon="6.45636">
        <ele>1565</ele>
        <time>2022-07-28T12:49:06Z</time>
      </trkpt>
      <trkpt lat="45.69247" lon="6.45636">
        <ele>1564</ele>
        <time>2022-07-28T12:49:07Z</time>
      </trkpt>
      <trkpt lat="45.69247" lon="6.45635">
        <ele>1564</ele>
        <time>2022-07-28T12:49:08Z</time>
      </trkpt>
      <trkpt lat="45.69246" lon="6.45634">
        <ele>1564</ele>
        <time>2022-07-28T12:49:09Z</time>
      </trkpt>
      <trkpt lat="45.69246" lon="6.45633">
        <ele>1564</ele>
        <time>2022-07-28T12:49:10Z</time>
      </trkpt>
      <trkpt lat="45.69247" lon="6.45631">
        <ele>1564</ele>
        <time>2022-07-28T12:49:11Z</time>
      </trkpt>
      <trkpt lat="45.69247" lon="6.4563">
        <ele>1563</ele>
        <time>2022-07-28T12:49:12Z</time>
      </trkpt>
      <trkpt lat="45.69248" lon="6.45629">
        <ele>1563</ele>
        <time>2022-07-28T12:49:13Z</time>
      </trkpt>
      <trkpt lat="45.69248" lon="6.45627">
        <ele>1563</ele>
        <time>2022-07-28T12:49:14Z</time>
      </trkpt>
      <trkpt lat="45.69249" lon="6.45626">
        <ele>1563</ele>
        <time>2022-07-28T12:49:15Z</time>
      </trkpt>
      <trkpt lat="45.6925" lon="6.45625">
        <ele>1563</ele>
        <time>2022-07-28T12:49:16Z</time>
      </trkpt>
      <trkpt lat="45.69251" lon="6.45624">
        <ele>1562</ele>
        <time>2022-07-28T12:49:17Z</time>
      </trkpt>
      <trkpt lat="45.69252" lon="6.45623">
        <ele>1562</ele>
        <time>2022-07-28T12:49:18Z</time>
      </trkpt>
      <trkpt lat="45.69253" lon="6.45622">
        <ele>1562</ele>
        <time>2022-07-28T12:49:19Z</time>
      </trkpt>
      <trkpt lat="45.69254" lon="6.45622">
        <ele>1562</ele>
        <time>2022-07-28T12:49:20Z</time>
      </trkpt>
      <trkpt lat="45.69254" lon="6.45621">
        <ele>1562</ele>
        <time>2022-07-28T12:49:21Z</time>
      </trkpt>
      <trkpt lat="45.69255" lon="6.45621">
        <ele>1561</ele>
        <time>2022-07-28T12:49:22Z</time>
      </trkpt>
      <trkpt lat="45.69256" lon="6.4562">
        <ele>1561</ele>
        <time>2022-07-28T12:49:23Z</time>
      </trkpt>
      <trkpt lat="45.69257" lon="6.45619">
        <ele>1560</ele>
        <time>2022-07-28T12:49:24Z</time>
      </trkpt>
      <trkpt lat="45.69258" lon="6.45619">
        <ele>1560</ele>
        <time>2022-07-28T12:49:25Z</time>
      </trkpt>
      <trkpt lat="45.69259" lon="6.45618">
        <ele>1560</ele>
        <time>2022-07-28T12:49:26Z</time>
      </trkpt>
      <trkpt lat="45.6926" lon="6.45617">
        <ele>1559</ele>
        <time>2022-07-28T12:49:27Z</time>
      </trkpt>
      <trkpt lat="45.6926" lon="6.45617">
        <ele>1559</ele>
        <time>2022-07-28T12:49:28Z</time>
      </trkpt>
      <trkpt lat="45.69261" lon="6.45617">
        <ele>1559</ele>
        <time>2022-07-28T12:49:29Z</time>
      </trkpt>
      <trkpt lat="45.6926" lon="6.45616">
        <ele>1559</ele>
        <time>2022-07-28T12:49:30Z</time>
      </trkpt>
      <trkpt lat="45.6926" lon="6.45616">
        <ele>1559</ele>
        <time>2022-07-28T12:49:31Z</time>
      </trkpt>
      <trkpt lat="45.69259" lon="6.45615">
        <ele>1558</ele>
        <time>2022-07-28T12:49:32Z</time>
      </trkpt>
      <trkpt lat="45.69258" lon="6.45615">
        <ele>1558</ele>
        <time>2022-07-28T12:49:33Z</time>
      </trkpt>
      <trkpt lat="45.69256" lon="6.45614">
        <ele>1558</ele>
        <time>2022-07-28T12:49:34Z</time>
      </trkpt>
      <trkpt lat="45.69255" lon="6.45614">
        <ele>1558</ele>
        <time>2022-07-28T12:49:35Z</time>
      </trkpt>
      <trkpt lat="45.69253" lon="6.45613">
        <ele>1558</ele>
        <time>2022-07-28T12:49:36Z</time>
      </trkpt>
      <trkpt lat="45.69252" lon="6.45612">
        <ele>1557</ele>
        <time>2022-07-28T12:49:37Z</time>
      </trkpt>
      <trkpt lat="45.69251" lon="6.45611">
        <ele>1557</ele>
        <time>2022-07-28T12:49:38Z</time>
      </trkpt>
      <trkpt lat="45.69249" lon="6.4561">
        <ele>1556</ele>
        <time>2022-07-28T12:49:39Z</time>
      </trkpt>
      <trkpt lat="45.69249" lon="6.45608">
        <ele>1556</ele>
        <time>2022-07-28T12:49:40Z</time>
      </trkpt>
      <trkpt lat="45.69248" lon="6.45607">
        <ele>1556</ele>
        <time>2022-07-28T12:49:41Z</time>
      </trkpt>
      <trkpt lat="45.69248" lon="6.45606">
        <ele>1555</ele>
        <time>2022-07-28T12:49:42Z</time>
      </trkpt>
      <trkpt lat="45.69247" lon="6.45604">
        <ele>1555</ele>
        <time>2022-07-28T12:49:43Z</time>
      </trkpt>
      <trkpt lat="45.69247" lon="6.45603">
        <ele>1555</ele>
        <time>2022-07-28T12:49:44Z</time>
      </trkpt>
      <trkpt lat="45.69246" lon="6.45602">
        <ele>1555</ele>
        <time>2022-07-28T12:49:45Z</time>
      </trkpt>
      <trkpt lat="45.69246" lon="6.456">
        <ele>1555</ele>
        <time>2022-07-28T12:49:46Z</time>
      </trkpt>
      <trkpt lat="45.69245" lon="6.45599">
        <ele>1554</ele>
        <time>2022-07-28T12:49:47Z</time>
      </trkpt>
      <trkpt lat="45.69245" lon="6.45597">
        <ele>1554</ele>
        <time>2022-07-28T12:49:48Z</time>
      </trkpt>
      <trkpt lat="45.69245" lon="6.45595">
        <ele>1554</ele>
        <time>2022-07-28T12:49:49Z</time>
      </trkpt>
      <trkpt lat="45.69245" lon="6.45594">
        <ele>1554</ele>
        <time>2022-07-28T12:49:50Z</time>
      </trkpt>
      <trkpt lat="45.69246" lon="6.45593">
        <ele>1554</ele>
        <time>2022-07-28T12:49:51Z</time>
      </trkpt>
      <trkpt lat="45.69246" lon="6.45593">
        <ele>1553</ele>
        <time>2022-07-28T12:49:52Z</time>
      </trkpt>
      <trkpt lat="45.69247" lon="6.45592">
        <ele>1553</ele>
        <time>2022-07-28T12:49:53Z</time>
      </trkpt>
      <trkpt lat="45.69248" lon="6.45592">
        <ele>1553</ele>
        <time>2022-07-28T12:49:54Z</time>
      </trkpt>
      <trkpt lat="45.69249" lon="6.45591">
        <ele>1553</ele>
        <time>2022-07-28T12:49:55Z</time>
      </trkpt>
      <trkpt lat="45.69249" lon="6.45591">
        <ele>1553</ele>
        <time>2022-07-28T12:49:56Z</time>
      </trkpt>
      <trkpt lat="45.6925" lon="6.45591">
        <ele>1552</ele>
        <time>2022-07-28T12:49:57Z</time>
      </trkpt>
      <trkpt lat="45.69251" lon="6.45591">
        <ele>1552</ele>
        <time>2022-07-28T12:49:58Z</time>
      </trkpt>
      <trkpt lat="45.69252" lon="6.45591">
        <ele>1551</ele>
        <time>2022-07-28T12:49:59Z</time>
      </trkpt>
      <trkpt lat="45.69252" lon="6.45591">
        <ele>1551</ele>
        <time>2022-07-28T12:50:00Z</time>
      </trkpt>
      <trkpt lat="45.69253" lon="6.45591">
        <ele>1551</ele>
        <time>2022-07-28T12:50:01Z</time>
      </trkpt>
      <trkpt lat="45.69254" lon="6.45591">
        <ele>1550</ele>
        <time>2022-07-28T12:50:02Z</time>
      </trkpt>
      <trkpt lat="45.69254" lon="6.45591">
        <ele>1550</ele>
        <time>2022-07-28T12:50:03Z</time>
      </trkpt>
      <trkpt lat="45.69255" lon="6.45591">
        <ele>1550</ele>
        <time>2022-07-28T12:50:04Z</time>
      </trkpt>
      <trkpt lat="45.69255" lon="6.45591">
        <ele>1550</ele>
        <time>2022-07-28T12:50:05Z</time>
      </trkpt>
      <trkpt lat="45.69256" lon="6.45591">
        <ele>1550</ele>
        <time>2022-07-28T12:50:06Z</time>
      </trkpt>
      <trkpt lat="45.69257" lon="6.45591">
        <ele>1549</ele>
        <time>2022-07-28T12:50:07Z</time>
      </trkpt>
      <trkpt lat="45.69257" lon="6.45591">
        <ele>1549</ele>
        <time>2022-07-28T12:50:08Z</time>
      </trkpt>
      <trkpt lat="45.69258" lon="6.45591">
        <ele>1549</ele>
        <time>2022-07-28T12:50:09Z</time>
      </trkpt>
      <trkpt lat="45.69258" lon="6.45591">
        <ele>1549</ele>
        <time>2022-07-28T12:50:10Z</time>
      </trkpt>
      <trkpt lat="45.69259" lon="6.45591">
        <ele>1549</ele>
        <time>2022-07-28T12:50:11Z</time>
      </trkpt>
      <trkpt lat="45.69259" lon="6.4559">
        <ele>1548</ele>
        <time>2022-07-28T12:50:12Z</time>
      </trkpt>
      <trkpt lat="45.6926" lon="6.4559">
        <ele>1548</ele>
        <time>2022-07-28T12:50:13Z</time>
      </trkpt>
      <trkpt lat="45.6926" lon="6.4559">
        <ele>1548</ele>
        <time>2022-07-28T12:50:14Z</time>
      </trkpt>
      <trkpt lat="45.69261" lon="6.4559">
        <ele>1548</ele>
        <time>2022-07-28T12:50:15Z</time>
      </trkpt>
      <trkpt lat="45.69261" lon="6.4559">
        <ele>1548</ele>
        <time>2022-07-28T12:50:16Z</time>
      </trkpt>
      <trkpt lat="45.69262" lon="6.45589">
        <ele>1547</ele>
        <time>2022-07-28T12:50:17Z</time>
      </trkpt>
      <trkpt lat="45.69262" lon="6.45589">
        <ele>1547</ele>
        <time>2022-07-28T12:50:18Z</time>
      </trkpt>
      <trkpt lat="45.69263" lon="6.45589">
        <ele>1547</ele>
        <time>2022-07-28T12:50:19Z</time>
      </trkpt>
      <trkpt lat="45.69263" lon="6.45588">
        <ele>1547</ele>
        <time>2022-07-28T12:50:20Z</time>
      </trkpt>
      <trkpt lat="45.69264" lon="6.45588">
        <ele>1547</ele>
        <time>2022-07-28T12:50:21Z</time>
      </trkpt>
      <trkpt lat="45.69264" lon="6.45587">
        <ele>1546</ele>
        <time>2022-07-28T12:50:22Z</time>
      </trkpt>
      <trkpt lat="45.69266" lon="6.45586">
        <ele>1543</ele>
        <time>2022-07-28T12:50:51Z</time>
      </trkpt>
      <trkpt lat="45.69267" lon="6.45586">
        <ele>1543</ele>
        <time>2022-07-28T12:50:52Z</time>
      </trkpt>
      <trkpt lat="45.69268" lon="6.45585">
        <ele>1543</ele>
        <time>2022-07-28T12:50:53Z</time>
      </trkpt>
      <trkpt lat="45.69268" lon="6.45585">
        <ele>1543</ele>
        <time>2022-07-28T12:50:54Z</time>
      </trkpt>
      <trkpt lat="45.69269" lon="6.45584">
        <ele>1543</ele>
        <time>2022-07-28T12:50:55Z</time>
      </trkpt>
      <trkpt lat="45.6927" lon="6.45584">
        <ele>1543</ele>
        <time>2022-07-28T12:50:56Z</time>
      </trkpt>
      <trkpt lat="45.69272" lon="6.45583">
        <ele>1542</ele>
        <time>2022-07-28T12:50:57Z</time>
      </trkpt>
      <trkpt lat="45.69273" lon="6.45583">
        <ele>1542</ele>
        <time>2022-07-28T12:50:58Z</time>
      </trkpt>
      <trkpt lat="45.69274" lon="6.45582">
        <ele>1541</ele>
        <time>2022-07-28T12:50:59Z</time>
      </trkpt>
      <trkpt lat="45.69275" lon="6.45581">
        <ele>1541</ele>
        <time>2022-07-28T12:51:00Z</time>
      </trkpt>
      <trkpt lat="45.69276" lon="6.45581">
        <ele>1541</ele>
        <time>2022-07-28T12:51:01Z</time>
      </trkpt>
      <trkpt lat="45.69277" lon="6.4558">
        <ele>1540</ele>
        <time>2022-07-28T12:51:02Z</time>
      </trkpt>
      <trkpt lat="45.69278" lon="6.45579">
        <ele>1540</ele>
        <time>2022-07-28T12:51:03Z</time>
      </trkpt>
      <trkpt lat="45.69279" lon="6.45578">
        <ele>1539</ele>
        <time>2022-07-28T12:51:04Z</time>
      </trkpt>
      <trkpt lat="45.6928" lon="6.45577">
        <ele>1539</ele>
        <time>2022-07-28T12:51:05Z</time>
      </trkpt>
      <trkpt lat="45.69281" lon="6.45576">
        <ele>1539</ele>
        <time>2022-07-28T12:51:06Z</time>
      </trkpt>
      <trkpt lat="45.69282" lon="6.45576">
        <ele>1538</ele>
        <time>2022-07-28T12:51:07Z</time>
      </trkpt>
      <trkpt lat="45.69283" lon="6.45575">
        <ele>1538</ele>
        <time>2022-07-28T12:51:08Z</time>
      </trkpt>
      <trkpt lat="45.69284" lon="6.45574">
        <ele>1538</ele>
        <time>2022-07-28T12:51:09Z</time>
      </trkpt>
      <trkpt lat="45.69285" lon="6.45574">
        <ele>1538</ele>
        <time>2022-07-28T12:51:10Z</time>
      </trkpt>
      <trkpt lat="45.69285" lon="6.45573">
        <ele>1538</ele>
        <time>2022-07-28T12:51:11Z</time>
      </trkpt>
      <trkpt lat="45.69286" lon="6.45573">
        <ele>1537</ele>
        <time>2022-07-28T12:51:12Z</time>
      </trkpt>
      <trkpt lat="45.69287" lon="6.45572">
        <ele>1537</ele>
        <time>2022-07-28T12:51:13Z</time>
      </trkpt>
      <trkpt lat="45.69288" lon="6.45571">
        <ele>1536</ele>
        <time>2022-07-28T12:51:14Z</time>
      </trkpt>
      <trkpt lat="45.69288" lon="6.4557">
        <ele>1536</ele>
        <time>2022-07-28T12:51:15Z</time>
      </trkpt>
      <trkpt lat="45.69289" lon="6.4557">
        <ele>1536</ele>
        <time>2022-07-28T12:51:16Z</time>
      </trkpt>
      <trkpt lat="45.6929" lon="6.45569">
        <ele>1535</ele>
        <time>2022-07-28T12:51:17Z</time>
      </trkpt>
      <trkpt lat="45.69291" lon="6.45569">
        <ele>1535</ele>
        <time>2022-07-28T12:51:18Z</time>
      </trkpt>
      <trkpt lat="45.69292" lon="6.45568">
        <ele>1535</ele>
        <time>2022-07-28T12:51:19Z</time>
      </trkpt>
      <trkpt lat="45.69293" lon="6.45567">
        <ele>1535</ele>
        <time>2022-07-28T12:51:20Z</time>
      </trkpt>
      <trkpt lat="45.69294" lon="6.45566">
        <ele>1535</ele>
        <time>2022-07-28T12:51:21Z</time>
      </trkpt>
      <trkpt lat="45.69294" lon="6.45565">
        <ele>1534</ele>
        <time>2022-07-28T12:51:22Z</time>
      </trkpt>
      <trkpt lat="45.69295" lon="6.45564">
        <ele>1534</ele>
        <time>2022-07-28T12:51:23Z</time>
      </trkpt>
      <trkpt lat="45.69296" lon="6.45562">
        <ele>1533</ele>
        <time>2022-07-28T12:51:24Z</time>
      </trkpt>
      <trkpt lat="45.69297" lon="6.45561">
        <ele>1533</ele>
        <time>2022-07-28T12:51:25Z</time>
      </trkpt>
      <trkpt lat="45.69298" lon="6.45559">
        <ele>1533</ele>
        <time>2022-07-28T12:51:26Z</time>
      </trkpt>
      <trkpt lat="45.69298" lon="6.45558">
        <ele>1532</ele>
        <time>2022-07-28T12:51:27Z</time>
      </trkpt>
      <trkpt lat="45.69299" lon="6.45557">
        <ele>1532</ele>
        <time>2022-07-28T12:51:28Z</time>
      </trkpt>
      <trkpt lat="45.693" lon="6.45556">
        <ele>1531</ele>
        <time>2022-07-28T12:51:29Z</time>
      </trkpt>
      <trkpt lat="45.693" lon="6.45555">
        <ele>1531</ele>
        <time>2022-07-28T12:51:30Z</time>
      </trkpt>
      <trkpt lat="45.69301" lon="6.45554">
        <ele>1531</ele>
        <time>2022-07-28T12:51:31Z</time>
      </trkpt>
      <trkpt lat="45.69302" lon="6.45553">
        <ele>1530</ele>
        <time>2022-07-28T12:51:32Z</time>
      </trkpt>
      <trkpt lat="45.69302" lon="6.45552">
        <ele>1530</ele>
        <time>2022-07-28T12:51:33Z</time>
      </trkpt>
      <trkpt lat="45.69303" lon="6.45551">
        <ele>1530</ele>
        <time>2022-07-28T12:51:34Z</time>
      </trkpt>
      <trkpt lat="45.69304" lon="6.4555">
        <ele>1530</ele>
        <time>2022-07-28T12:51:35Z</time>
      </trkpt>
      <trkpt lat="45.69305" lon="6.45549">
        <ele>1530</ele>
        <time>2022-07-28T12:51:36Z</time>
      </trkpt>
      <trkpt lat="45.69306" lon="6.45548">
        <ele>1529</ele>
        <time>2022-07-28T12:51:37Z</time>
      </trkpt>
      <trkpt lat="45.69307" lon="6.45547">
        <ele>1529</ele>
        <time>2022-07-28T12:51:38Z</time>
      </trkpt>
      <trkpt lat="45.69308" lon="6.45546">
        <ele>1528</ele>
        <time>2022-07-28T12:51:39Z</time>
      </trkpt>
      <trkpt lat="45.69309" lon="6.45545">
        <ele>1528</ele>
        <time>2022-07-28T12:51:40Z</time>
      </trkpt>
      <trkpt lat="45.6931" lon="6.45544">
        <ele>1528</ele>
        <time>2022-07-28T12:51:41Z</time>
      </trkpt>
      <trkpt lat="45.69311" lon="6.45543">
        <ele>1527</ele>
        <time>2022-07-28T12:51:42Z</time>
      </trkpt>
      <trkpt lat="45.69313" lon="6.45542">
        <ele>1527</ele>
        <time>2022-07-28T12:51:43Z</time>
      </trkpt>
      <trkpt lat="45.69314" lon="6.45542">
        <ele>1527</ele>
        <time>2022-07-28T12:51:44Z</time>
      </trkpt>
      <trkpt lat="45.69315" lon="6.45541">
        <ele>1527</ele>
        <time>2022-07-28T12:51:45Z</time>
      </trkpt>
      <trkpt lat="45.69316" lon="6.4554">
        <ele>1527</ele>
        <time>2022-07-28T12:51:46Z</time>
      </trkpt>
      <trkpt lat="45.69318" lon="6.45539">
        <ele>1526</ele>
        <time>2022-07-28T12:51:47Z</time>
      </trkpt>
      <trkpt lat="45.69319" lon="6.45538">
        <ele>1526</ele>
        <time>2022-07-28T12:51:48Z</time>
      </trkpt>
      <trkpt lat="45.6932" lon="6.45537">
        <ele>1525</ele>
        <time>2022-07-28T12:51:49Z</time>
      </trkpt>
      <trkpt lat="45.69321" lon="6.45536">
        <ele>1525</ele>
        <time>2022-07-28T12:51:50Z</time>
      </trkpt>
      <trkpt lat="45.69322" lon="6.45535">
        <ele>1525</ele>
        <time>2022-07-28T12:51:51Z</time>
      </trkpt>
      <trkpt lat="45.69323" lon="6.45534">
        <ele>1524</ele>
        <time>2022-07-28T12:51:52Z</time>
      </trkpt>
      <trkpt lat="45.69324" lon="6.45534">
        <ele>1524</ele>
        <time>2022-07-28T12:51:53Z</time>
      </trkpt>
      <trkpt lat="45.69325" lon="6.45533">
        <ele>1523</ele>
        <time>2022-07-28T12:51:54Z</time>
      </trkpt>
      <trkpt lat="45.69326" lon="6.45532">
        <ele>1523</ele>
        <time>2022-07-28T12:51:55Z</time>
      </trkpt>
      <trkpt lat="45.69327" lon="6.45532">
        <ele>1523</ele>
        <time>2022-07-28T12:51:56Z</time>
      </trkpt>
      <trkpt lat="45.69328" lon="6.45531">
        <ele>1522</ele>
        <time>2022-07-28T12:51:57Z</time>
      </trkpt>
      <trkpt lat="45.69329" lon="6.4553">
        <ele>1522</ele>
        <time>2022-07-28T12:51:58Z</time>
      </trkpt>
      <trkpt lat="45.6933" lon="6.4553">
        <ele>1522</ele>
        <time>2022-07-28T12:51:59Z</time>
      </trkpt>
      <trkpt lat="45.6933" lon="6.45529">
        <ele>1522</ele>
        <time>2022-07-28T12:52:00Z</time>
      </trkpt>
      <trkpt lat="45.69331" lon="6.45528">
        <ele>1522</ele>
        <time>2022-07-28T12:52:01Z</time>
      </trkpt>
      <trkpt lat="45.69332" lon="6.45528">
        <ele>1521</ele>
        <time>2022-07-28T12:52:02Z</time>
      </trkpt>
      <trkpt lat="45.69333" lon="6.45527">
        <ele>1521</ele>
        <time>2022-07-28T12:52:03Z</time>
      </trkpt>
      <trkpt lat="45.69334" lon="6.45527">
        <ele>1520</ele>
        <time>2022-07-28T12:52:04Z</time>
      </trkpt>
      <trkpt lat="45.69335" lon="6.45526">
        <ele>1520</ele>
        <time>2022-07-28T12:52:05Z</time>
      </trkpt>
      <trkpt lat="45.69336" lon="6.45526">
        <ele>1520</ele>
        <time>2022-07-28T12:52:06Z</time>
      </trkpt>
      <trkpt lat="45.69337" lon="6.45525">
        <ele>1519</ele>
        <time>2022-07-28T12:52:07Z</time>
      </trkpt>
      <trkpt lat="45.69338" lon="6.45525">
        <ele>1519</ele>
        <time>2022-07-28T12:52:08Z</time>
      </trkpt>
      <trkpt lat="45.69339" lon="6.45525">
        <ele>1519</ele>
        <time>2022-07-28T12:52:09Z</time>
      </trkpt>
      <trkpt lat="45.6934" lon="6.45524">
        <ele>1519</ele>
        <time>2022-07-28T12:52:10Z</time>
      </trkpt>
      <trkpt lat="45.6934" lon="6.45524">
        <ele>1519</ele>
        <time>2022-07-28T12:52:11Z</time>
      </trkpt>
      <trkpt lat="45.69341" lon="6.45523">
        <ele>1518</ele>
        <time>2022-07-28T12:52:12Z</time>
      </trkpt>
      <trkpt lat="45.69342" lon="6.45522">
        <ele>1518</ele>
        <time>2022-07-28T12:52:13Z</time>
      </trkpt>
      <trkpt lat="45.69343" lon="6.45522">
        <ele>1517</ele>
        <time>2022-07-28T12:52:14Z</time>
      </trkpt>
      <trkpt lat="45.69344" lon="6.45521">
        <ele>1517</ele>
        <time>2022-07-28T12:52:15Z</time>
      </trkpt>
      <trkpt lat="45.69347" lon="6.45521">
        <ele>1515</ele>
        <time>2022-07-28T12:52:28Z</time>
      </trkpt>
      <trkpt lat="45.69348" lon="6.4552">
        <ele>1515</ele>
        <time>2022-07-28T12:52:29Z</time>
      </trkpt>
      <trkpt lat="45.69349" lon="6.4552">
        <ele>1515</ele>
        <time>2022-07-28T12:52:30Z</time>
      </trkpt>
      <trkpt lat="45.6935" lon="6.4552">
        <ele>1515</ele>
        <time>2022-07-28T12:52:31Z</time>
      </trkpt>
      <trkpt lat="45.6935" lon="6.45519">
        <ele>1514</ele>
        <time>2022-07-28T12:52:32Z</time>
      </trkpt>
      <trkpt lat="45.69351" lon="6.45519">
        <ele>1514</ele>
        <time>2022-07-28T12:52:33Z</time>
      </trkpt>
      <trkpt lat="45.69352" lon="6.45518">
        <ele>1513</ele>
        <time>2022-07-28T12:52:34Z</time>
      </trkpt>
      <trkpt lat="45.69352" lon="6.45517">
        <ele>1513</ele>
        <time>2022-07-28T12:52:35Z</time>
      </trkpt>
      <trkpt lat="45.69353" lon="6.45517">
        <ele>1513</ele>
        <time>2022-07-28T12:52:36Z</time>
      </trkpt>
      <trkpt lat="45.69354" lon="6.45516">
        <ele>1512</ele>
        <time>2022-07-28T12:52:37Z</time>
      </trkpt>
      <trkpt lat="45.69354" lon="6.45515">
        <ele>1512</ele>
        <time>2022-07-28T12:52:38Z</time>
      </trkpt>
      <trkpt lat="45.69355" lon="6.45514">
        <ele>1512</ele>
        <time>2022-07-28T12:52:39Z</time>
      </trkpt>
      <trkpt lat="45.69356" lon="6.45513">
        <ele>1512</ele>
        <time>2022-07-28T12:52:40Z</time>
      </trkpt>
      <trkpt lat="45.69357" lon="6.45512">
        <ele>1512</ele>
        <time>2022-07-28T12:52:41Z</time>
      </trkpt>
      <trkpt lat="45.69358" lon="6.45512">
        <ele>1511</ele>
        <time>2022-07-28T12:52:42Z</time>
      </trkpt>
      <trkpt lat="45.69358" lon="6.45511">
        <ele>1511</ele>
        <time>2022-07-28T12:52:43Z</time>
      </trkpt>
      <trkpt lat="45.69359" lon="6.45511">
        <ele>1511</ele>
        <time>2022-07-28T12:52:44Z</time>
      </trkpt>
      <trkpt lat="45.6936" lon="6.45511">
        <ele>1511</ele>
        <time>2022-07-28T12:52:45Z</time>
      </trkpt>
      <trkpt lat="45.6936" lon="6.4551">
        <ele>1511</ele>
        <time>2022-07-28T12:52:46Z</time>
      </trkpt>
      <trkpt lat="45.69361" lon="6.4551">
        <ele>1510</ele>
        <time>2022-07-28T12:52:47Z</time>
      </trkpt>
      <trkpt lat="45.69361" lon="6.45509">
        <ele>1510</ele>
        <time>2022-07-28T12:52:48Z</time>
      </trkpt>
      <trkpt lat="45.69362" lon="6.45508">
        <ele>1510</ele>
        <time>2022-07-28T12:52:49Z</time>
      </trkpt>
      <trkpt lat="45.69363" lon="6.45508">
        <ele>1510</ele>
        <time>2022-07-28T12:52:50Z</time>
      </trkpt>
      <trkpt lat="45.69364" lon="6.45507">
        <ele>1510</ele>
        <time>2022-07-28T12:52:51Z</time>
      </trkpt>
      <trkpt lat="45.69364" lon="6.45507">
        <ele>1509</ele>
        <time>2022-07-28T12:52:52Z</time>
      </trkpt>
      <trkpt lat="45.69365" lon="6.45506">
        <ele>1509</ele>
        <time>2022-07-28T12:52:53Z</time>
      </trkpt>
      <trkpt lat="45.69366" lon="6.45506">
        <ele>1509</ele>
        <time>2022-07-28T12:52:54Z</time>
      </trkpt>
      <trkpt lat="45.69367" lon="6.45505">
        <ele>1509</ele>
        <time>2022-07-28T12:52:55Z</time>
      </trkpt>
      <trkpt lat="45.69368" lon="6.45505">
        <ele>1509</ele>
        <time>2022-07-28T12:52:56Z</time>
      </trkpt>
      <trkpt lat="45.69369" lon="6.45504">
        <ele>1508</ele>
        <time>2022-07-28T12:52:57Z</time>
      </trkpt>
      <trkpt lat="45.6937" lon="6.45504">
        <ele>1508</ele>
        <time>2022-07-28T12:52:58Z</time>
      </trkpt>
      <trkpt lat="45.6937" lon="6.45503">
        <ele>1508</ele>
        <time>2022-07-28T12:52:59Z</time>
      </trkpt>
      <trkpt lat="45.69371" lon="6.45503">
        <ele>1508</ele>
        <time>2022-07-28T12:53:00Z</time>
      </trkpt>
      <trkpt lat="45.69372" lon="6.45502">
        <ele>1508</ele>
        <time>2022-07-28T12:53:01Z</time>
      </trkpt>
      <trkpt lat="45.69373" lon="6.45502">
        <ele>1508</ele>
        <time>2022-07-28T12:53:02Z</time>
      </trkpt>
      <trkpt lat="45.69374" lon="6.45501">
        <ele>1508</ele>
        <time>2022-07-28T12:53:03Z</time>
      </trkpt>
      <trkpt lat="45.69375" lon="6.45501">
        <ele>1508</ele>
        <time>2022-07-28T12:53:04Z</time>
      </trkpt>
      <trkpt lat="45.69376" lon="6.45501">
        <ele>1508</ele>
        <time>2022-07-28T12:53:05Z</time>
      </trkpt>
      <trkpt lat="45.69377" lon="6.455">
        <ele>1508</ele>
        <time>2022-07-28T12:53:06Z</time>
      </trkpt>
      <trkpt lat="45.69378" lon="6.45499">
        <ele>1507</ele>
        <time>2022-07-28T12:53:07Z</time>
      </trkpt>
      <trkpt lat="45.69379" lon="6.45499">
        <ele>1507</ele>
        <time>2022-07-28T12:53:08Z</time>
      </trkpt>
      <trkpt lat="45.6938" lon="6.45498">
        <ele>1507</ele>
        <time>2022-07-28T12:53:09Z</time>
      </trkpt>
      <trkpt lat="45.69381" lon="6.45497">
        <ele>1507</ele>
        <time>2022-07-28T12:53:10Z</time>
      </trkpt>
      <trkpt lat="45.69382" lon="6.45496">
        <ele>1507</ele>
        <time>2022-07-28T12:53:11Z</time>
      </trkpt>
      <trkpt lat="45.69383" lon="6.45495">
        <ele>1506</ele>
        <time>2022-07-28T12:53:12Z</time>
      </trkpt>
      <trkpt lat="45.69384" lon="6.45494">
        <ele>1506</ele>
        <time>2022-07-28T12:53:13Z</time>
      </trkpt>
      <trkpt lat="45.69385" lon="6.45493">
        <ele>1506</ele>
        <time>2022-07-28T12:53:14Z</time>
      </trkpt>
      <trkpt lat="45.69386" lon="6.45493">
        <ele>1506</ele>
        <time>2022-07-28T12:53:15Z</time>
      </trkpt>
      <trkpt lat="45.69387" lon="6.45492">
        <ele>1506</ele>
        <time>2022-07-28T12:53:16Z</time>
      </trkpt>
      <trkpt lat="45.69388" lon="6.45492">
        <ele>1505</ele>
        <time>2022-07-28T12:53:17Z</time>
      </trkpt>
      <trkpt lat="45.69389" lon="6.45491">
        <ele>1505</ele>
        <time>2022-07-28T12:53:18Z</time>
      </trkpt>
      <trkpt lat="45.69389" lon="6.4549">
        <ele>1505</ele>
        <time>2022-07-28T12:53:19Z</time>
      </trkpt>
      <trkpt lat="45.6939" lon="6.4549">
        <ele>1505</ele>
        <time>2022-07-28T12:53:20Z</time>
      </trkpt>
      <trkpt lat="45.69391" lon="6.45489">
        <ele>1505</ele>
        <time>2022-07-28T12:53:21Z</time>
      </trkpt>
      <trkpt lat="45.69392" lon="6.45489">
        <ele>1504</ele>
        <time>2022-07-28T12:53:22Z</time>
      </trkpt>
      <trkpt lat="45.69392" lon="6.45488">
        <ele>1504</ele>
        <time>2022-07-28T12:53:23Z</time>
      </trkpt>
      <trkpt lat="45.69393" lon="6.45488">
        <ele>1504</ele>
        <time>2022-07-28T12:53:24Z</time>
      </trkpt>
      <trkpt lat="45.69394" lon="6.45487">
        <ele>1504</ele>
        <time>2022-07-28T12:53:25Z</time>
      </trkpt>
      <trkpt lat="45.69395" lon="6.45487">
        <ele>1504</ele>
        <time>2022-07-28T12:53:26Z</time>
      </trkpt>
      <trkpt lat="45.69396" lon="6.45487">
        <ele>1503</ele>
        <time>2022-07-28T12:53:27Z</time>
      </trkpt>
      <trkpt lat="45.69397" lon="6.45486">
        <ele>1503</ele>
        <time>2022-07-28T12:53:28Z</time>
      </trkpt>
      <trkpt lat="45.69398" lon="6.45486">
        <ele>1503</ele>
        <time>2022-07-28T12:53:29Z</time>
      </trkpt>
      <trkpt lat="45.69399" lon="6.45485">
        <ele>1503</ele>
        <time>2022-07-28T12:53:30Z</time>
      </trkpt>
      <trkpt lat="45.694" lon="6.45485">
        <ele>1503</ele>
        <time>2022-07-28T12:53:31Z</time>
      </trkpt>
      <trkpt lat="45.69401" lon="6.45485">
        <ele>1502</ele>
        <time>2022-07-28T12:53:32Z</time>
      </trkpt>
      <trkpt lat="45.69401" lon="6.45484">
        <ele>1502</ele>
        <time>2022-07-28T12:53:33Z</time>
      </trkpt>
      <trkpt lat="45.69402" lon="6.45484">
        <ele>1502</ele>
        <time>2022-07-28T12:53:34Z</time>
      </trkpt>
      <trkpt lat="45.69403" lon="6.45483">
        <ele>1502</ele>
        <time>2022-07-28T12:53:35Z</time>
      </trkpt>
      <trkpt lat="45.69404" lon="6.45482">
        <ele>1502</ele>
        <time>2022-07-28T12:53:36Z</time>
      </trkpt>
      <trkpt lat="45.69405" lon="6.45482">
        <ele>1501</ele>
        <time>2022-07-28T12:53:37Z</time>
      </trkpt>
      <trkpt lat="45.69405" lon="6.45481">
        <ele>1501</ele>
        <time>2022-07-28T12:53:38Z</time>
      </trkpt>
      <trkpt lat="45.69406" lon="6.4548">
        <ele>1501</ele>
        <time>2022-07-28T12:53:39Z</time>
      </trkpt>
      <trkpt lat="45.69407" lon="6.45479">
        <ele>1501</ele>
        <time>2022-07-28T12:53:40Z</time>
      </trkpt>
      <trkpt lat="45.69408" lon="6.45478">
        <ele>1501</ele>
        <time>2022-07-28T12:53:41Z</time>
      </trkpt>
      <trkpt lat="45.69409" lon="6.45477">
        <ele>1500</ele>
        <time>2022-07-28T12:53:42Z</time>
      </trkpt>
      <trkpt lat="45.6941" lon="6.45476">
        <ele>1500</ele>
        <time>2022-07-28T12:53:43Z</time>
      </trkpt>
      <trkpt lat="45.69411" lon="6.45476">
        <ele>1500</ele>
        <time>2022-07-28T12:53:44Z</time>
      </trkpt>
      <trkpt lat="45.69412" lon="6.45475">
        <ele>1500</ele>
        <time>2022-07-28T12:53:45Z</time>
      </trkpt>
      <trkpt lat="45.69413" lon="6.45475">
        <ele>1500</ele>
        <time>2022-07-28T12:53:46Z</time>
      </trkpt>
      <trkpt lat="45.69413" lon="6.45475">
        <ele>1499</ele>
        <time>2022-07-28T12:53:47Z</time>
      </trkpt>
      <trkpt lat="45.69414" lon="6.45474">
        <ele>1499</ele>
        <time>2022-07-28T12:53:48Z</time>
      </trkpt>
      <trkpt lat="45.69415" lon="6.45474">
        <ele>1498</ele>
        <time>2022-07-28T12:53:49Z</time>
      </trkpt>
      <trkpt lat="45.69416" lon="6.45474">
        <ele>1498</ele>
        <time>2022-07-28T12:53:50Z</time>
      </trkpt>
      <trkpt lat="45.69417" lon="6.45474">
        <ele>1498</ele>
        <time>2022-07-28T12:53:51Z</time>
      </trkpt>
      <trkpt lat="45.69417" lon="6.45473">
        <ele>1498</ele>
        <time>2022-07-28T12:53:52Z</time>
      </trkpt>
      <trkpt lat="45.69418" lon="6.45473">
        <ele>1498</ele>
        <time>2022-07-28T12:53:53Z</time>
      </trkpt>
      <trkpt lat="45.69418" lon="6.45473">
        <ele>1498</ele>
        <time>2022-07-28T12:53:54Z</time>
      </trkpt>
      <trkpt lat="45.69419" lon="6.45473">
        <ele>1498</ele>
        <time>2022-07-28T12:53:55Z</time>
      </trkpt>
      <trkpt lat="45.69419" lon="6.45473">
        <ele>1498</ele>
        <time>2022-07-28T12:53:56Z</time>
      </trkpt>
      <trkpt lat="45.6942" lon="6.45473">
        <ele>1497</ele>
        <time>2022-07-28T12:53:57Z</time>
      </trkpt>
      <trkpt lat="45.69421" lon="6.45472">
        <ele>1497</ele>
        <time>2022-07-28T12:53:58Z</time>
      </trkpt>
      <trkpt lat="45.69421" lon="6.45472">
        <ele>1497</ele>
        <time>2022-07-28T12:53:59Z</time>
      </trkpt>
      <trkpt lat="45.69422" lon="6.45471">
        <ele>1497</ele>
        <time>2022-07-28T12:54:00Z</time>
      </trkpt>
      <trkpt lat="45.69423" lon="6.45471">
        <ele>1497</ele>
        <time>2022-07-28T12:54:01Z</time>
      </trkpt>
      <trkpt lat="45.69424" lon="6.4547">
        <ele>1496</ele>
        <time>2022-07-28T12:54:02Z</time>
      </trkpt>
      <trkpt lat="45.69424" lon="6.4547">
        <ele>1496</ele>
        <time>2022-07-28T12:54:03Z</time>
      </trkpt>
      <trkpt lat="45.69425" lon="6.45469">
        <ele>1496</ele>
        <time>2022-07-28T12:54:04Z</time>
      </trkpt>
      <trkpt lat="45.69426" lon="6.45469">
        <ele>1496</ele>
        <time>2022-07-28T12:54:05Z</time>
      </trkpt>
      <trkpt lat="45.69427" lon="6.45468">
        <ele>1496</ele>
        <time>2022-07-28T12:54:06Z</time>
      </trkpt>
      <trkpt lat="45.69428" lon="6.45468">
        <ele>1495</ele>
        <time>2022-07-28T12:54:07Z</time>
      </trkpt>
      <trkpt lat="45.69429" lon="6.45468">
        <ele>1495</ele>
        <time>2022-07-28T12:54:08Z</time>
      </trkpt>
      <trkpt lat="45.6943" lon="6.45468">
        <ele>1495</ele>
        <time>2022-07-28T12:54:09Z</time>
      </trkpt>
      <trkpt lat="45.6943" lon="6.45468">
        <ele>1495</ele>
        <time>2022-07-28T12:54:10Z</time>
      </trkpt>
      <trkpt lat="45.69431" lon="6.45467">
        <ele>1495</ele>
        <time>2022-07-28T12:54:11Z</time>
      </trkpt>
      <trkpt lat="45.69432" lon="6.45467">
        <ele>1494</ele>
        <time>2022-07-28T12:54:12Z</time>
      </trkpt>
      <trkpt lat="45.69434" lon="6.45466">
        <ele>1494</ele>
        <time>2022-07-28T12:54:13Z</time>
      </trkpt>
      <trkpt lat="45.69435" lon="6.45465">
        <ele>1494</ele>
        <time>2022-07-28T12:54:14Z</time>
      </trkpt>
      <trkpt lat="45.69436" lon="6.45465">
        <ele>1494</ele>
        <time>2022-07-28T12:54:15Z</time>
      </trkpt>
      <trkpt lat="45.69437" lon="6.45464">
        <ele>1494</ele>
        <time>2022-07-28T12:54:16Z</time>
      </trkpt>
      <trkpt lat="45.69439" lon="6.45463">
        <ele>1493</ele>
        <time>2022-07-28T12:54:17Z</time>
      </trkpt>
      <trkpt lat="45.6944" lon="6.45462">
        <ele>1493</ele>
        <time>2022-07-28T12:54:18Z</time>
      </trkpt>
      <trkpt lat="45.69441" lon="6.45462">
        <ele>1493</ele>
        <time>2022-07-28T12:54:19Z</time>
      </trkpt>
      <trkpt lat="45.69443" lon="6.45461">
        <ele>1493</ele>
        <time>2022-07-28T12:54:20Z</time>
      </trkpt>
      <trkpt lat="45.69444" lon="6.4546">
        <ele>1493</ele>
        <time>2022-07-28T12:54:21Z</time>
      </trkpt>
      <trkpt lat="45.69445" lon="6.45459">
        <ele>1492</ele>
        <time>2022-07-28T12:54:22Z</time>
      </trkpt>
      <trkpt lat="45.69446" lon="6.45459">
        <ele>1492</ele>
        <time>2022-07-28T12:54:23Z</time>
      </trkpt>
      <trkpt lat="45.69448" lon="6.45458">
        <ele>1492</ele>
        <time>2022-07-28T12:54:24Z</time>
      </trkpt>
      <trkpt lat="45.69449" lon="6.45457">
        <ele>1492</ele>
        <time>2022-07-28T12:54:25Z</time>
      </trkpt>
      <trkpt lat="45.6945" lon="6.45456">
        <ele>1492</ele>
        <time>2022-07-28T12:54:26Z</time>
      </trkpt>
      <trkpt lat="45.69452" lon="6.45455">
        <ele>1492</ele>
        <time>2022-07-28T12:54:27Z</time>
      </trkpt>
      <trkpt lat="45.69453" lon="6.45454">
        <ele>1492</ele>
        <time>2022-07-28T12:54:28Z</time>
      </trkpt>
      <trkpt lat="45.69455" lon="6.45453">
        <ele>1492</ele>
        <time>2022-07-28T12:54:29Z</time>
      </trkpt>
      <trkpt lat="45.69456" lon="6.45452">
        <ele>1492</ele>
        <time>2022-07-28T12:54:30Z</time>
      </trkpt>
      <trkpt lat="45.69458" lon="6.45451">
        <ele>1492</ele>
        <time>2022-07-28T12:54:31Z</time>
      </trkpt>
      <trkpt lat="45.69459" lon="6.4545">
        <ele>1491</ele>
        <time>2022-07-28T12:54:32Z</time>
      </trkpt>
      <trkpt lat="45.69461" lon="6.45449">
        <ele>1491</ele>
        <time>2022-07-28T12:54:33Z</time>
      </trkpt>
      <trkpt lat="45.69462" lon="6.45448">
        <ele>1491</ele>
        <time>2022-07-28T12:54:34Z</time>
      </trkpt>
      <trkpt lat="45.69463" lon="6.45447">
        <ele>1491</ele>
        <time>2022-07-28T12:54:35Z</time>
      </trkpt>
      <trkpt lat="45.69464" lon="6.45446">
        <ele>1491</ele>
        <time>2022-07-28T12:54:36Z</time>
      </trkpt>
      <trkpt lat="45.69465" lon="6.45445">
        <ele>1491</ele>
        <time>2022-07-28T12:54:37Z</time>
      </trkpt>
      <trkpt lat="45.69466" lon="6.45444">
        <ele>1491</ele>
        <time>2022-07-28T12:54:38Z</time>
      </trkpt>
      <trkpt lat="45.69467" lon="6.45443">
        <ele>1491</ele>
        <time>2022-07-28T12:54:39Z</time>
      </trkpt>
      <trkpt lat="45.69468" lon="6.45442">
        <ele>1491</ele>
        <time>2022-07-28T12:54:40Z</time>
      </trkpt>
      <trkpt lat="45.69469" lon="6.45441">
        <ele>1491</ele>
        <time>2022-07-28T12:54:41Z</time>
      </trkpt>
      <trkpt lat="45.69471" lon="6.45441">
        <ele>1490</ele>
        <time>2022-07-28T12:54:42Z</time>
      </trkpt>
      <trkpt lat="45.69472" lon="6.4544">
        <ele>1490</ele>
        <time>2022-07-28T12:54:43Z</time>
      </trkpt>
      <trkpt lat="45.69473" lon="6.4544">
        <ele>1490</ele>
        <time>2022-07-28T12:54:44Z</time>
      </trkpt>
      <trkpt lat="45.69474" lon="6.45439">
        <ele>1490</ele>
        <time>2022-07-28T12:54:45Z</time>
      </trkpt>
      <trkpt lat="45.69475" lon="6.45438">
        <ele>1490</ele>
        <time>2022-07-28T12:54:46Z</time>
      </trkpt>
      <trkpt lat="45.69476" lon="6.45437">
        <ele>1489</ele>
        <time>2022-07-28T12:54:47Z</time>
      </trkpt>
      <trkpt lat="45.69477" lon="6.45436">
        <ele>1489</ele>
        <time>2022-07-28T12:54:48Z</time>
      </trkpt>
      <trkpt lat="45.69478" lon="6.45436">
        <ele>1489</ele>
        <time>2022-07-28T12:54:49Z</time>
      </trkpt>
      <trkpt lat="45.69478" lon="6.45435">
        <ele>1489</ele>
        <time>2022-07-28T12:54:50Z</time>
      </trkpt>
      <trkpt lat="45.69479" lon="6.45434">
        <ele>1489</ele>
        <time>2022-07-28T12:54:51Z</time>
      </trkpt>
      <trkpt lat="45.6948" lon="6.45433">
        <ele>1488</ele>
        <time>2022-07-28T12:54:52Z</time>
      </trkpt>
      <trkpt lat="45.69481" lon="6.45433">
        <ele>1488</ele>
        <time>2022-07-28T12:54:53Z</time>
      </trkpt>
      <trkpt lat="45.69482" lon="6.45433">
        <ele>1488</ele>
        <time>2022-07-28T12:54:54Z</time>
      </trkpt>
      <trkpt lat="45.69483" lon="6.45432">
        <ele>1488</ele>
        <time>2022-07-28T12:54:55Z</time>
      </trkpt>
      <trkpt lat="45.69484" lon="6.45432">
        <ele>1488</ele>
        <time>2022-07-28T12:54:56Z</time>
      </trkpt>
      <trkpt lat="45.69485" lon="6.45431">
        <ele>1487</ele>
        <time>2022-07-28T12:54:57Z</time>
      </trkpt>
      <trkpt lat="45.69486" lon="6.4543">
        <ele>1487</ele>
        <time>2022-07-28T12:54:58Z</time>
      </trkpt>
      <trkpt lat="45.69487" lon="6.4543">
        <ele>1486</ele>
        <time>2022-07-28T12:54:59Z</time>
      </trkpt>
      <trkpt lat="45.69488" lon="6.45429">
        <ele>1486</ele>
        <time>2022-07-28T12:55:00Z</time>
      </trkpt>
      <trkpt lat="45.6949" lon="6.45428">
        <ele>1486</ele>
        <time>2022-07-28T12:55:01Z</time>
      </trkpt>
      <trkpt lat="45.69491" lon="6.45427">
        <ele>1485</ele>
        <time>2022-07-28T12:55:02Z</time>
      </trkpt>
      <trkpt lat="45.69492" lon="6.45427">
        <ele>1485</ele>
        <time>2022-07-28T12:55:03Z</time>
      </trkpt>
      <trkpt lat="45.69493" lon="6.45426">
        <ele>1485</ele>
        <time>2022-07-28T12:55:04Z</time>
      </trkpt>
      <trkpt lat="45.69494" lon="6.45426">
        <ele>1485</ele>
        <time>2022-07-28T12:55:05Z</time>
      </trkpt>
      <trkpt lat="45.69495" lon="6.45425">
        <ele>1485</ele>
        <time>2022-07-28T12:55:06Z</time>
      </trkpt>
      <trkpt lat="45.69496" lon="6.45424">
        <ele>1484</ele>
        <time>2022-07-28T12:55:07Z</time>
      </trkpt>
      <trkpt lat="45.69497" lon="6.45424">
        <ele>1484</ele>
        <time>2022-07-28T12:55:08Z</time>
      </trkpt>
      <trkpt lat="45.69498" lon="6.45423">
        <ele>1484</ele>
        <time>2022-07-28T12:55:09Z</time>
      </trkpt>
      <trkpt lat="45.69499" lon="6.45422">
        <ele>1484</ele>
        <time>2022-07-28T12:55:10Z</time>
      </trkpt>
      <trkpt lat="45.69501" lon="6.45421">
        <ele>1484</ele>
        <time>2022-07-28T12:55:11Z</time>
      </trkpt>
      <trkpt lat="45.69502" lon="6.4542">
        <ele>1484</ele>
        <time>2022-07-28T12:55:12Z</time>
      </trkpt>
      <trkpt lat="45.69503" lon="6.4542">
        <ele>1484</ele>
        <time>2022-07-28T12:55:13Z</time>
      </trkpt>
      <trkpt lat="45.69504" lon="6.45419">
        <ele>1484</ele>
        <time>2022-07-28T12:55:14Z</time>
      </trkpt>
      <trkpt lat="45.69505" lon="6.45418">
        <ele>1484</ele>
        <time>2022-07-28T12:55:15Z</time>
      </trkpt>
      <trkpt lat="45.69506" lon="6.45417">
        <ele>1484</ele>
        <time>2022-07-28T12:55:16Z</time>
      </trkpt>
      <trkpt lat="45.69507" lon="6.45415">
        <ele>1483</ele>
        <time>2022-07-28T12:55:17Z</time>
      </trkpt>
      <trkpt lat="45.69507" lon="6.45414">
        <ele>1483</ele>
        <time>2022-07-28T12:55:18Z</time>
      </trkpt>
      <trkpt lat="45.69508" lon="6.45413">
        <ele>1483</ele>
        <time>2022-07-28T12:55:19Z</time>
      </trkpt>
      <trkpt lat="45.69509" lon="6.45412">
        <ele>1483</ele>
        <time>2022-07-28T12:55:20Z</time>
      </trkpt>
      <trkpt lat="45.6951" lon="6.45411">
        <ele>1483</ele>
        <time>2022-07-28T12:55:21Z</time>
      </trkpt>
      <trkpt lat="45.69511" lon="6.4541">
        <ele>1483</ele>
        <time>2022-07-28T12:55:22Z</time>
      </trkpt>
      <trkpt lat="45.69511" lon="6.45409">
        <ele>1483</ele>
        <time>2022-07-28T12:55:23Z</time>
      </trkpt>
      <trkpt lat="45.69513" lon="6.45409">
        <ele>1483</ele>
        <time>2022-07-28T12:55:37Z</time>
      </trkpt>
      <trkpt lat="45.69513" lon="6.45408">
        <ele>1483</ele>
        <time>2022-07-28T12:55:38Z</time>
      </trkpt>
      <trkpt lat="45.69514" lon="6.45408">
        <ele>1483</ele>
        <time>2022-07-28T12:55:39Z</time>
      </trkpt>
      <trkpt lat="45.69515" lon="6.45407">
        <ele>1483</ele>
        <time>2022-07-28T12:55:40Z</time>
      </trkpt>
      <trkpt lat="45.69516" lon="6.45407">
        <ele>1483</ele>
        <time>2022-07-28T12:55:41Z</time>
      </trkpt>
      <trkpt lat="45.69516" lon="6.45406">
        <ele>1482</ele>
        <time>2022-07-28T12:55:42Z</time>
      </trkpt>
      <trkpt lat="45.69517" lon="6.45405">
        <ele>1482</ele>
        <time>2022-07-28T12:55:43Z</time>
      </trkpt>
      <trkpt lat="45.69518" lon="6.45404">
        <ele>1482</ele>
        <time>2022-07-28T12:55:44Z</time>
      </trkpt>
      <trkpt lat="45.69519" lon="6.45402">
        <ele>1482</ele>
        <time>2022-07-28T12:55:45Z</time>
      </trkpt>
      <trkpt lat="45.69519" lon="6.45401">
        <ele>1482</ele>
        <time>2022-07-28T12:55:46Z</time>
      </trkpt>
      <trkpt lat="45.6952" lon="6.45401">
        <ele>1481</ele>
        <time>2022-07-28T12:55:47Z</time>
      </trkpt>
      <trkpt lat="45.69521" lon="6.454">
        <ele>1481</ele>
        <time>2022-07-28T12:55:48Z</time>
      </trkpt>
      <trkpt lat="45.69522" lon="6.45399">
        <ele>1481</ele>
        <time>2022-07-28T12:55:49Z</time>
      </trkpt>
      <trkpt lat="45.69523" lon="6.45399">
        <ele>1481</ele>
        <time>2022-07-28T12:55:50Z</time>
      </trkpt>
      <trkpt lat="45.69523" lon="6.45399">
        <ele>1481</ele>
        <time>2022-07-28T12:55:51Z</time>
      </trkpt>
      <trkpt lat="45.69524" lon="6.45398">
        <ele>1481</ele>
        <time>2022-07-28T12:55:52Z</time>
      </trkpt>
      <trkpt lat="45.69525" lon="6.45398">
        <ele>1481</ele>
        <time>2022-07-28T12:55:53Z</time>
      </trkpt>
      <trkpt lat="45.69526" lon="6.45398">
        <ele>1481</ele>
        <time>2022-07-28T12:55:54Z</time>
      </trkpt>
      <trkpt lat="45.69527" lon="6.45397">
        <ele>1481</ele>
        <time>2022-07-28T12:55:55Z</time>
      </trkpt>
      <trkpt lat="45.69528" lon="6.45397">
        <ele>1481</ele>
        <time>2022-07-28T12:55:56Z</time>
      </trkpt>
      <trkpt lat="45.69529" lon="6.45396">
        <ele>1480</ele>
        <time>2022-07-28T12:55:57Z</time>
      </trkpt>
      <trkpt lat="45.69529" lon="6.45396">
        <ele>1480</ele>
        <time>2022-07-28T12:55:58Z</time>
      </trkpt>
      <trkpt lat="45.6953" lon="6.45395">
        <ele>1480</ele>
        <time>2022-07-28T12:55:59Z</time>
      </trkpt>
      <trkpt lat="45.69531" lon="6.45395">
        <ele>1480</ele>
        <time>2022-07-28T12:56:00Z</time>
      </trkpt>
      <trkpt lat="45.69532" lon="6.45394">
        <ele>1480</ele>
        <time>2022-07-28T12:56:01Z</time>
      </trkpt>
      <trkpt lat="45.69532" lon="6.45394">
        <ele>1479</ele>
        <time>2022-07-28T12:56:02Z</time>
      </trkpt>
      <trkpt lat="45.69533" lon="6.45394">
        <ele>1479</ele>
        <time>2022-07-28T12:56:03Z</time>
      </trkpt>
      <trkpt lat="45.69534" lon="6.45393">
        <ele>1479</ele>
        <time>2022-07-28T12:56:04Z</time>
      </trkpt>
      <trkpt lat="45.69535" lon="6.45393">
        <ele>1479</ele>
        <time>2022-07-28T12:56:05Z</time>
      </trkpt>
      <trkpt lat="45.69536" lon="6.45392">
        <ele>1479</ele>
        <time>2022-07-28T12:56:06Z</time>
      </trkpt>
      <trkpt lat="45.69537" lon="6.45392">
        <ele>1478</ele>
        <time>2022-07-28T12:56:07Z</time>
      </trkpt>
      <trkpt lat="45.69539" lon="6.45392">
        <ele>1478</ele>
        <time>2022-07-28T12:56:08Z</time>
      </trkpt>
      <trkpt lat="45.6954" lon="6.45391">
        <ele>1478</ele>
        <time>2022-07-28T12:56:09Z</time>
      </trkpt>
      <trkpt lat="45.69541" lon="6.4539">
        <ele>1478</ele>
        <time>2022-07-28T12:56:10Z</time>
      </trkpt>
      <trkpt lat="45.69542" lon="6.4539">
        <ele>1478</ele>
        <time>2022-07-28T12:56:11Z</time>
      </trkpt>
      <trkpt lat="45.69544" lon="6.45389">
        <ele>1477</ele>
        <time>2022-07-28T12:56:12Z</time>
      </trkpt>
      <trkpt lat="45.69545" lon="6.45388">
        <ele>1477</ele>
        <time>2022-07-28T12:56:13Z</time>
      </trkpt>
      <trkpt lat="45.69547" lon="6.45387">
        <ele>1477</ele>
        <time>2022-07-28T12:56:14Z</time>
      </trkpt>
      <trkpt lat="45.69548" lon="6.45386">
        <ele>1477</ele>
        <time>2022-07-28T12:56:15Z</time>
      </trkpt>
      <trkpt lat="45.69549" lon="6.45385">
        <ele>1477</ele>
        <time>2022-07-28T12:56:16Z</time>
      </trkpt>
      <trkpt lat="45.6955" lon="6.45384">
        <ele>1476</ele>
        <time>2022-07-28T12:56:17Z</time>
      </trkpt>
      <trkpt lat="45.69551" lon="6.45383">
        <ele>1476</ele>
        <time>2022-07-28T12:56:18Z</time>
      </trkpt>
      <trkpt lat="45.69552" lon="6.45382">
        <ele>1475</ele>
        <time>2022-07-28T12:56:19Z</time>
      </trkpt>
      <trkpt lat="45.69553" lon="6.45382">
        <ele>1475</ele>
        <time>2022-07-28T12:56:20Z</time>
      </trkpt>
      <trkpt lat="45.69554" lon="6.45381">
        <ele>1475</ele>
        <time>2022-07-28T12:56:21Z</time>
      </trkpt>
      <trkpt lat="45.69555" lon="6.45381">
        <ele>1474</ele>
        <time>2022-07-28T12:56:22Z</time>
      </trkpt>
      <trkpt lat="45.69556" lon="6.4538">
        <ele>1474</ele>
        <time>2022-07-28T12:56:23Z</time>
      </trkpt>
      <trkpt lat="45.69557" lon="6.4538">
        <ele>1474</ele>
        <time>2022-07-28T12:56:24Z</time>
      </trkpt>
      <trkpt lat="45.69558" lon="6.45379">
        <ele>1474</ele>
        <time>2022-07-28T12:56:25Z</time>
      </trkpt>
      <trkpt lat="45.69559" lon="6.45379">
        <ele>1474</ele>
        <time>2022-07-28T12:56:26Z</time>
      </trkpt>
      <trkpt lat="45.69559" lon="6.45379">
        <ele>1473</ele>
        <time>2022-07-28T12:56:27Z</time>
      </trkpt>
      <trkpt lat="45.6956" lon="6.45378">
        <ele>1473</ele>
        <time>2022-07-28T12:56:28Z</time>
      </trkpt>
      <trkpt lat="45.69561" lon="6.45377">
        <ele>1473</ele>
        <time>2022-07-28T12:56:29Z</time>
      </trkpt>
      <trkpt lat="45.69562" lon="6.45377">
        <ele>1473</ele>
        <time>2022-07-28T12:56:30Z</time>
      </trkpt>
      <trkpt lat="45.69562" lon="6.45376">
        <ele>1473</ele>
        <time>2022-07-28T12:56:31Z</time>
      </trkpt>
      <trkpt lat="45.69563" lon="6.45376">
        <ele>1472</ele>
        <time>2022-07-28T12:56:32Z</time>
      </trkpt>
      <trkpt lat="45.69563" lon="6.45376">
        <ele>1472</ele>
        <time>2022-07-28T12:56:33Z</time>
      </trkpt>
      <trkpt lat="45.69563" lon="6.45376">
        <ele>1472</ele>
        <time>2022-07-28T12:56:34Z</time>
      </trkpt>
      <trkpt lat="45.69564" lon="6.45375">
        <ele>1472</ele>
        <time>2022-07-28T12:56:35Z</time>
      </trkpt>
      <trkpt lat="45.69564" lon="6.45375">
        <ele>1472</ele>
        <time>2022-07-28T12:56:36Z</time>
      </trkpt>
      <trkpt lat="45.69564" lon="6.45374">
        <ele>1471</ele>
        <time>2022-07-28T12:56:37Z</time>
      </trkpt>
      <trkpt lat="45.69565" lon="6.45373">
        <ele>1471</ele>
        <time>2022-07-28T12:56:38Z</time>
      </trkpt>
      <trkpt lat="45.69565" lon="6.45373">
        <ele>1471</ele>
        <time>2022-07-28T12:56:39Z</time>
      </trkpt>
      <trkpt lat="45.69566" lon="6.45372">
        <ele>1471</ele>
        <time>2022-07-28T12:56:40Z</time>
      </trkpt>
      <trkpt lat="45.69566" lon="6.45372">
        <ele>1471</ele>
        <time>2022-07-28T12:56:41Z</time>
      </trkpt>
      <trkpt lat="45.69566" lon="6.45372">
        <ele>1470</ele>
        <time>2022-07-28T12:56:42Z</time>
      </trkpt>
      <trkpt lat="45.69567" lon="6.45371">
        <ele>1470</ele>
        <time>2022-07-28T12:56:43Z</time>
      </trkpt>
      <trkpt lat="45.69567" lon="6.45371">
        <ele>1470</ele>
        <time>2022-07-28T12:56:44Z</time>
      </trkpt>
      <trkpt lat="45.69567" lon="6.45371">
        <ele>1470</ele>
        <time>2022-07-28T12:56:45Z</time>
      </trkpt>
      <trkpt lat="45.69568" lon="6.4537">
        <ele>1470</ele>
        <time>2022-07-28T12:56:46Z</time>
      </trkpt>
      <trkpt lat="45.69568" lon="6.4537">
        <ele>1470</ele>
        <time>2022-07-28T12:56:47Z</time>
      </trkpt>
      <trkpt lat="45.69569" lon="6.45369">
        <ele>1470</ele>
        <time>2022-07-28T12:56:48Z</time>
      </trkpt>
      <trkpt lat="45.69569" lon="6.45368">
        <ele>1470</ele>
        <time>2022-07-28T12:56:49Z</time>
      </trkpt>
      <trkpt lat="45.6957" lon="6.45367">
        <ele>1470</ele>
        <time>2022-07-28T12:56:50Z</time>
      </trkpt>
      <trkpt lat="45.69571" lon="6.45366">
        <ele>1470</ele>
        <time>2022-07-28T12:56:51Z</time>
      </trkpt>
      <trkpt lat="45.69571" lon="6.45366">
        <ele>1469</ele>
        <time>2022-07-28T12:56:52Z</time>
      </trkpt>
      <trkpt lat="45.69572" lon="6.45365">
        <ele>1469</ele>
        <time>2022-07-28T12:56:53Z</time>
      </trkpt>
      <trkpt lat="45.69573" lon="6.45365">
        <ele>1469</ele>
        <time>2022-07-28T12:56:54Z</time>
      </trkpt>
      <trkpt lat="45.69575" lon="6.45364">
        <ele>1469</ele>
        <time>2022-07-28T12:56:55Z</time>
      </trkpt>
      <trkpt lat="45.69576" lon="6.45364">
        <ele>1469</ele>
        <time>2022-07-28T12:56:56Z</time>
      </trkpt>
      <trkpt lat="45.69577" lon="6.45363">
        <ele>1469</ele>
        <time>2022-07-28T12:56:57Z</time>
      </trkpt>
      <trkpt lat="45.69578" lon="6.45362">
        <ele>1469</ele>
        <time>2022-07-28T12:56:58Z</time>
      </trkpt>
      <trkpt lat="45.69579" lon="6.45362">
        <ele>1469</ele>
        <time>2022-07-28T12:56:59Z</time>
      </trkpt>
      <trkpt lat="45.6958" lon="6.45361">
        <ele>1469</ele>
        <time>2022-07-28T12:57:00Z</time>
      </trkpt>
      <trkpt lat="45.69582" lon="6.4536">
        <ele>1469</ele>
        <time>2022-07-28T12:57:01Z</time>
      </trkpt>
      <trkpt lat="45.69583" lon="6.45359">
        <ele>1468</ele>
        <time>2022-07-28T12:57:02Z</time>
      </trkpt>
      <trkpt lat="45.69584" lon="6.45359">
        <ele>1468</ele>
        <time>2022-07-28T12:57:03Z</time>
      </trkpt>
      <trkpt lat="45.69585" lon="6.45359">
        <ele>1468</ele>
        <time>2022-07-28T12:57:04Z</time>
      </trkpt>
      <trkpt lat="45.69586" lon="6.45358">
        <ele>1468</ele>
        <time>2022-07-28T12:57:05Z</time>
      </trkpt>
      <trkpt lat="45.69587" lon="6.45357">
        <ele>1468</ele>
        <time>2022-07-28T12:57:06Z</time>
      </trkpt>
      <trkpt lat="45.69589" lon="6.45357">
        <ele>1467</ele>
        <time>2022-07-28T12:57:07Z</time>
      </trkpt>
      <trkpt lat="45.6959" lon="6.45356">
        <ele>1467</ele>
        <time>2022-07-28T12:57:08Z</time>
      </trkpt>
      <trkpt lat="45.69591" lon="6.45355">
        <ele>1467</ele>
        <time>2022-07-28T12:57:09Z</time>
      </trkpt>
      <trkpt lat="45.69593" lon="6.45355">
        <ele>1467</ele>
        <time>2022-07-28T12:57:10Z</time>
      </trkpt>
      <trkpt lat="45.69594" lon="6.45354">
        <ele>1467</ele>
        <time>2022-07-28T12:57:11Z</time>
      </trkpt>
      <trkpt lat="45.69595" lon="6.45354">
        <ele>1467</ele>
        <time>2022-07-28T12:57:12Z</time>
      </trkpt>
      <trkpt lat="45.69597" lon="6.45353">
        <ele>1467</ele>
        <time>2022-07-28T12:57:13Z</time>
      </trkpt>
      <trkpt lat="45.69598" lon="6.45353">
        <ele>1467</ele>
        <time>2022-07-28T12:57:14Z</time>
      </trkpt>
      <trkpt lat="45.69599" lon="6.45353">
        <ele>1467</ele>
        <time>2022-07-28T12:57:15Z</time>
      </trkpt>
      <trkpt lat="45.69601" lon="6.45352">
        <ele>1467</ele>
        <time>2022-07-28T12:57:16Z</time>
      </trkpt>
      <trkpt lat="45.69602" lon="6.45352">
        <ele>1467</ele>
        <time>2022-07-28T12:57:17Z</time>
      </trkpt>
      <trkpt lat="45.69603" lon="6.45351">
        <ele>1467</ele>
        <time>2022-07-28T12:57:18Z</time>
      </trkpt>
      <trkpt lat="45.69605" lon="6.45351">
        <ele>1467</ele>
        <time>2022-07-28T12:57:19Z</time>
      </trkpt>
      <trkpt lat="45.69606" lon="6.45351">
        <ele>1467</ele>
        <time>2022-07-28T12:57:20Z</time>
      </trkpt>
      <trkpt lat="45.69608" lon="6.45351">
        <ele>1467</ele>
        <time>2022-07-28T12:57:21Z</time>
      </trkpt>
      <trkpt lat="45.69609" lon="6.45351">
        <ele>1466</ele>
        <time>2022-07-28T12:57:22Z</time>
      </trkpt>
      <trkpt lat="45.69611" lon="6.4535">
        <ele>1466</ele>
        <time>2022-07-28T12:57:23Z</time>
      </trkpt>
      <trkpt lat="45.69612" lon="6.4535">
        <ele>1466</ele>
        <time>2022-07-28T12:57:24Z</time>
      </trkpt>
      <trkpt lat="45.69613" lon="6.4535">
        <ele>1466</ele>
        <time>2022-07-28T12:57:25Z</time>
      </trkpt>
      <trkpt lat="45.69615" lon="6.45349">
        <ele>1466</ele>
        <time>2022-07-28T12:57:26Z</time>
      </trkpt>
      <trkpt lat="45.69616" lon="6.45349">
        <ele>1466</ele>
        <time>2022-07-28T12:57:27Z</time>
      </trkpt>
      <trkpt lat="45.69617" lon="6.45349">
        <ele>1466</ele>
        <time>2022-07-28T12:57:28Z</time>
      </trkpt>
      <trkpt lat="45.69618" lon="6.45348">
        <ele>1466</ele>
        <time>2022-07-28T12:57:29Z</time>
      </trkpt>
      <trkpt lat="45.6962" lon="6.45348">
        <ele>1466</ele>
        <time>2022-07-28T12:57:30Z</time>
      </trkpt>
      <trkpt lat="45.69621" lon="6.45348">
        <ele>1466</ele>
        <time>2022-07-28T12:57:31Z</time>
      </trkpt>
      <trkpt lat="45.69622" lon="6.45348">
        <ele>1465</ele>
        <time>2022-07-28T12:57:32Z</time>
      </trkpt>
      <trkpt lat="45.69623" lon="6.45347">
        <ele>1465</ele>
        <time>2022-07-28T12:57:33Z</time>
      </trkpt>
      <trkpt lat="45.69624" lon="6.45347">
        <ele>1465</ele>
        <time>2022-07-28T12:57:34Z</time>
      </trkpt>
      <trkpt lat="45.69626" lon="6.45347">
        <ele>1465</ele>
        <time>2022-07-28T12:57:35Z</time>
      </trkpt>
      <trkpt lat="45.69627" lon="6.45348">
        <ele>1465</ele>
        <time>2022-07-28T12:57:36Z</time>
      </trkpt>
      <trkpt lat="45.69628" lon="6.45348">
        <ele>1464</ele>
        <time>2022-07-28T12:57:37Z</time>
      </trkpt>
      <trkpt lat="45.6963" lon="6.45348">
        <ele>1464</ele>
        <time>2022-07-28T12:57:38Z</time>
      </trkpt>
      <trkpt lat="45.69631" lon="6.45347">
        <ele>1464</ele>
        <time>2022-07-28T12:57:39Z</time>
      </trkpt>
      <trkpt lat="45.69632" lon="6.45347">
        <ele>1464</ele>
        <time>2022-07-28T12:57:40Z</time>
      </trkpt>
      <trkpt lat="45.69634" lon="6.45347">
        <ele>1464</ele>
        <time>2022-07-28T12:57:41Z</time>
      </trkpt>
      <trkpt lat="45.69635" lon="6.45347">
        <ele>1464</ele>
        <time>2022-07-28T12:57:42Z</time>
      </trkpt>
      <trkpt lat="45.69636" lon="6.45347">
        <ele>1464</ele>
        <time>2022-07-28T12:57:43Z</time>
      </trkpt>
      <trkpt lat="45.69637" lon="6.45346">
        <ele>1464</ele>
        <time>2022-07-28T12:57:44Z</time>
      </trkpt>
      <trkpt lat="45.69639" lon="6.45346">
        <ele>1464</ele>
        <time>2022-07-28T12:57:45Z</time>
      </trkpt>
      <trkpt lat="45.6964" lon="6.45346">
        <ele>1464</ele>
        <time>2022-07-28T12:57:46Z</time>
      </trkpt>
      <trkpt lat="45.69641" lon="6.45346">
        <ele>1463</ele>
        <time>2022-07-28T12:57:47Z</time>
      </trkpt>
      <trkpt lat="45.69643" lon="6.45346">
        <ele>1463</ele>
        <time>2022-07-28T12:57:48Z</time>
      </trkpt>
      <trkpt lat="45.69644" lon="6.45346">
        <ele>1463</ele>
        <time>2022-07-28T12:57:49Z</time>
      </trkpt>
      <trkpt lat="45.69645" lon="6.45346">
        <ele>1463</ele>
        <time>2022-07-28T12:57:50Z</time>
      </trkpt>
      <trkpt lat="45.69647" lon="6.45346">
        <ele>1463</ele>
        <time>2022-07-28T12:57:51Z</time>
      </trkpt>
      <trkpt lat="45.69648" lon="6.45345">
        <ele>1463</ele>
        <time>2022-07-28T12:57:52Z</time>
      </trkpt>
      <trkpt lat="45.69649" lon="6.45345">
        <ele>1463</ele>
        <time>2022-07-28T12:57:53Z</time>
      </trkpt>
      <trkpt lat="45.6965" lon="6.45345">
        <ele>1463</ele>
        <time>2022-07-28T12:57:54Z</time>
      </trkpt>
      <trkpt lat="45.69651" lon="6.45346">
        <ele>1463</ele>
        <time>2022-07-28T12:57:55Z</time>
      </trkpt>
      <trkpt lat="45.69653" lon="6.45346">
        <ele>1463</ele>
        <time>2022-07-28T12:57:56Z</time>
      </trkpt>
      <trkpt lat="45.69654" lon="6.45346">
        <ele>1462</ele>
        <time>2022-07-28T12:57:57Z</time>
      </trkpt>
      <trkpt lat="45.69655" lon="6.45346">
        <ele>1462</ele>
        <time>2022-07-28T12:57:58Z</time>
      </trkpt>
      <trkpt lat="45.69656" lon="6.45346">
        <ele>1462</ele>
        <time>2022-07-28T12:57:59Z</time>
      </trkpt>
      <trkpt lat="45.69657" lon="6.45346">
        <ele>1462</ele>
        <time>2022-07-28T12:58:00Z</time>
      </trkpt>
      <trkpt lat="45.69658" lon="6.45346">
        <ele>1462</ele>
        <time>2022-07-28T12:58:01Z</time>
      </trkpt>
      <trkpt lat="45.6966" lon="6.45346">
        <ele>1462</ele>
        <time>2022-07-28T12:58:02Z</time>
      </trkpt>
      <trkpt lat="45.69661" lon="6.45346">
        <ele>1462</ele>
        <time>2022-07-28T12:58:03Z</time>
      </trkpt>
      <trkpt lat="45.69662" lon="6.45347">
        <ele>1462</ele>
        <time>2022-07-28T12:58:04Z</time>
      </trkpt>
      <trkpt lat="45.69663" lon="6.45347">
        <ele>1462</ele>
        <time>2022-07-28T12:58:05Z</time>
      </trkpt>
      <trkpt lat="45.69664" lon="6.45347">
        <ele>1462</ele>
        <time>2022-07-28T12:58:06Z</time>
      </trkpt>
      <trkpt lat="45.69666" lon="6.45348">
        <ele>1461</ele>
        <time>2022-07-28T12:58:07Z</time>
      </trkpt>
      <trkpt lat="45.69667" lon="6.45348">
        <ele>1461</ele>
        <time>2022-07-28T12:58:08Z</time>
      </trkpt>
      <trkpt lat="45.69668" lon="6.45348">
        <ele>1461</ele>
        <time>2022-07-28T12:58:09Z</time>
      </trkpt>
      <trkpt lat="45.69669" lon="6.45348">
        <ele>1461</ele>
        <time>2022-07-28T12:58:10Z</time>
      </trkpt>
      <trkpt lat="45.6967" lon="6.45348">
        <ele>1461</ele>
        <time>2022-07-28T12:58:11Z</time>
      </trkpt>
      <trkpt lat="45.69672" lon="6.45348">
        <ele>1461</ele>
        <time>2022-07-28T12:58:12Z</time>
      </trkpt>
      <trkpt lat="45.69673" lon="6.45348">
        <ele>1461</ele>
        <time>2022-07-28T12:58:13Z</time>
      </trkpt>
      <trkpt lat="45.69674" lon="6.45349">
        <ele>1461</ele>
        <time>2022-07-28T12:58:14Z</time>
      </trkpt>
      <trkpt lat="45.69675" lon="6.45349">
        <ele>1461</ele>
        <time>2022-07-28T12:58:15Z</time>
      </trkpt>
      <trkpt lat="45.69677" lon="6.45349">
        <ele>1461</ele>
        <time>2022-07-28T12:58:16Z</time>
      </trkpt>
      <trkpt lat="45.69678" lon="6.45349">
        <ele>1460</ele>
        <time>2022-07-28T12:58:17Z</time>
      </trkpt>
      <trkpt lat="45.69679" lon="6.45349">
        <ele>1460</ele>
        <time>2022-07-28T12:58:18Z</time>
      </trkpt>
      <trkpt lat="45.69681" lon="6.45349">
        <ele>1459</ele>
        <time>2022-07-28T12:58:19Z</time>
      </trkpt>
      <trkpt lat="45.69682" lon="6.4535">
        <ele>1459</ele>
        <time>2022-07-28T12:58:20Z</time>
      </trkpt>
      <trkpt lat="45.69683" lon="6.4535">
        <ele>1459</ele>
        <time>2022-07-28T12:58:21Z</time>
      </trkpt>
      <trkpt lat="45.69684" lon="6.4535">
        <ele>1459</ele>
        <time>2022-07-28T12:58:22Z</time>
      </trkpt>
      <trkpt lat="45.69685" lon="6.4535">
        <ele>1459</ele>
        <time>2022-07-28T12:58:23Z</time>
      </trkpt>
      <trkpt lat="45.69686" lon="6.4535">
        <ele>1459</ele>
        <time>2022-07-28T12:58:24Z</time>
      </trkpt>
      <trkpt lat="45.69688" lon="6.45351">
        <ele>1459</ele>
        <time>2022-07-28T12:58:25Z</time>
      </trkpt>
      <trkpt lat="45.69689" lon="6.45351">
        <ele>1459</ele>
        <time>2022-07-28T12:58:26Z</time>
      </trkpt>
      <trkpt lat="45.6969" lon="6.45352">
        <ele>1459</ele>
        <time>2022-07-28T12:58:27Z</time>
      </trkpt>
      <trkpt lat="45.69692" lon="6.45353">
        <ele>1459</ele>
        <time>2022-07-28T12:58:28Z</time>
      </trkpt>
      <trkpt lat="45.69693" lon="6.45353">
        <ele>1459</ele>
        <time>2022-07-28T12:58:29Z</time>
      </trkpt>
      <trkpt lat="45.69694" lon="6.45354">
        <ele>1459</ele>
        <time>2022-07-28T12:58:30Z</time>
      </trkpt>
      <trkpt lat="45.69695" lon="6.45354">
        <ele>1459</ele>
        <time>2022-07-28T12:58:31Z</time>
      </trkpt>
      <trkpt lat="45.69697" lon="6.45354">
        <ele>1458</ele>
        <time>2022-07-28T12:58:32Z</time>
      </trkpt>
      <trkpt lat="45.69698" lon="6.45354">
        <ele>1458</ele>
        <time>2022-07-28T12:58:38Z</time>
      </trkpt>
      <trkpt lat="45.69698" lon="6.45354">
        <ele>1458</ele>
        <time>2022-07-28T12:58:39Z</time>
      </trkpt>
      <trkpt lat="45.69698" lon="6.45353">
        <ele>1458</ele>
        <time>2022-07-28T12:58:40Z</time>
      </trkpt>
      <trkpt lat="45.69697" lon="6.45353">
        <ele>1458</ele>
        <time>2022-07-28T12:58:41Z</time>
      </trkpt>
      <trkpt lat="45.69697" lon="6.45353">
        <ele>1457</ele>
        <time>2022-07-28T12:58:42Z</time>
      </trkpt>
      <trkpt lat="45.69696" lon="6.45352">
        <ele>1457</ele>
        <time>2022-07-28T12:58:43Z</time>
      </trkpt>
      <trkpt lat="45.69696" lon="6.45352">
        <ele>1457</ele>
        <time>2022-07-28T12:58:44Z</time>
      </trkpt>
      <trkpt lat="45.69695" lon="6.45351">
        <ele>1457</ele>
        <time>2022-07-28T12:58:45Z</time>
      </trkpt>
      <trkpt lat="45.69694" lon="6.45351">
        <ele>1457</ele>
        <time>2022-07-28T12:58:46Z</time>
      </trkpt>
      <trkpt lat="45.69693" lon="6.4535">
        <ele>1456</ele>
        <time>2022-07-28T12:58:47Z</time>
      </trkpt>
      <trkpt lat="45.69693" lon="6.45349">
        <ele>1456</ele>
        <time>2022-07-28T12:58:48Z</time>
      </trkpt>
      <trkpt lat="45.69692" lon="6.45349">
        <ele>1456</ele>
        <time>2022-07-28T12:58:49Z</time>
      </trkpt>
      <trkpt lat="45.69691" lon="6.45348">
        <ele>1456</ele>
        <time>2022-07-28T12:58:50Z</time>
      </trkpt>
      <trkpt lat="45.6969" lon="6.45347">
        <ele>1456</ele>
        <time>2022-07-28T12:58:51Z</time>
      </trkpt>
      <trkpt lat="45.69689" lon="6.45347">
        <ele>1455</ele>
        <time>2022-07-28T12:58:52Z</time>
      </trkpt>
      <trkpt lat="45.69689" lon="6.45346">
        <ele>1455</ele>
        <time>2022-07-28T12:58:53Z</time>
      </trkpt>
      <trkpt lat="45.69688" lon="6.45345">
        <ele>1454</ele>
        <time>2022-07-28T12:58:54Z</time>
      </trkpt>
      <trkpt lat="45.69687" lon="6.45345">
        <ele>1454</ele>
        <time>2022-07-28T12:58:55Z</time>
      </trkpt>
      <trkpt lat="45.69686" lon="6.45344">
        <ele>1454</ele>
        <time>2022-07-28T12:58:56Z</time>
      </trkpt>
      <trkpt lat="45.69685" lon="6.45343">
        <ele>1453</ele>
        <time>2022-07-28T12:58:57Z</time>
      </trkpt>
      <trkpt lat="45.69684" lon="6.45343">
        <ele>1453</ele>
        <time>2022-07-28T12:58:58Z</time>
      </trkpt>
      <trkpt lat="45.69684" lon="6.45342">
        <ele>1453</ele>
        <time>2022-07-28T12:58:59Z</time>
      </trkpt>
      <trkpt lat="45.69683" lon="6.45341">
        <ele>1453</ele>
        <time>2022-07-28T12:59:00Z</time>
      </trkpt>
      <trkpt lat="45.69683" lon="6.45341">
        <ele>1453</ele>
        <time>2022-07-28T12:59:01Z</time>
      </trkpt>
      <trkpt lat="45.69682" lon="6.4534">
        <ele>1452</ele>
        <time>2022-07-28T12:59:02Z</time>
      </trkpt>
      <trkpt lat="45.69682" lon="6.4534">
        <ele>1452</ele>
        <time>2022-07-28T12:59:03Z</time>
      </trkpt>
      <trkpt lat="45.69681" lon="6.45339">
        <ele>1452</ele>
        <time>2022-07-28T12:59:04Z</time>
      </trkpt>
      <trkpt lat="45.69681" lon="6.45339">
        <ele>1452</ele>
        <time>2022-07-28T12:59:05Z</time>
      </trkpt>
      <trkpt lat="45.6968" lon="6.45338">
        <ele>1452</ele>
        <time>2022-07-28T12:59:06Z</time>
      </trkpt>
      <trkpt lat="45.6968" lon="6.45338">
        <ele>1451</ele>
        <time>2022-07-28T12:59:07Z</time>
      </trkpt>
      <trkpt lat="45.69679" lon="6.45337">
        <ele>1451</ele>
        <time>2022-07-28T12:59:08Z</time>
      </trkpt>
      <trkpt lat="45.69679" lon="6.45336">
        <ele>1451</ele>
        <time>2022-07-28T12:59:09Z</time>
      </trkpt>
      <trkpt lat="45.69678" lon="6.45335">
        <ele>1451</ele>
        <time>2022-07-28T12:59:10Z</time>
      </trkpt>
      <trkpt lat="45.69678" lon="6.45334">
        <ele>1451</ele>
        <time>2022-07-28T12:59:11Z</time>
      </trkpt>
      <trkpt lat="45.69677" lon="6.45333">
        <ele>1450</ele>
        <time>2022-07-28T12:59:12Z</time>
      </trkpt>
      <trkpt lat="45.69677" lon="6.45332">
        <ele>1450</ele>
        <time>2022-07-28T12:59:13Z</time>
      </trkpt>
      <trkpt lat="45.69676" lon="6.45331">
        <ele>1450</ele>
        <time>2022-07-28T12:59:14Z</time>
      </trkpt>
      <trkpt lat="45.69675" lon="6.4533">
        <ele>1450</ele>
        <time>2022-07-28T12:59:15Z</time>
      </trkpt>
      <trkpt lat="45.69675" lon="6.45329">
        <ele>1450</ele>
        <time>2022-07-28T12:59:16Z</time>
      </trkpt>
      <trkpt lat="45.69674" lon="6.45328">
        <ele>1449</ele>
        <time>2022-07-28T12:59:17Z</time>
      </trkpt>
      <trkpt lat="45.69673" lon="6.45327">
        <ele>1449</ele>
        <time>2022-07-28T12:59:18Z</time>
      </trkpt>
      <trkpt lat="45.69673" lon="6.45326">
        <ele>1448</ele>
        <time>2022-07-28T12:59:19Z</time>
      </trkpt>
      <trkpt lat="45.69672" lon="6.45325">
        <ele>1448</ele>
        <time>2022-07-28T12:59:20Z</time>
      </trkpt>
      <trkpt lat="45.69672" lon="6.45324">
        <ele>1448</ele>
        <time>2022-07-28T12:59:21Z</time>
      </trkpt>
      <trkpt lat="45.69671" lon="6.45323">
        <ele>1447</ele>
        <time>2022-07-28T12:59:22Z</time>
      </trkpt>
      <trkpt lat="45.69671" lon="6.45322">
        <ele>1447</ele>
        <time>2022-07-28T12:59:23Z</time>
      </trkpt>
      <trkpt lat="45.69672" lon="6.45322">
        <ele>1447</ele>
        <time>2022-07-28T12:59:24Z</time>
      </trkpt>
      <trkpt lat="45.69672" lon="6.45321">
        <ele>1447</ele>
        <time>2022-07-28T12:59:25Z</time>
      </trkpt>
      <trkpt lat="45.69672" lon="6.4532">
        <ele>1447</ele>
        <time>2022-07-28T12:59:26Z</time>
      </trkpt>
      <trkpt lat="45.69673" lon="6.45319">
        <ele>1446</ele>
        <time>2022-07-28T12:59:27Z</time>
      </trkpt>
      <trkpt lat="45.69674" lon="6.45319">
        <ele>1446</ele>
        <time>2022-07-28T12:59:28Z</time>
      </trkpt>
      <trkpt lat="45.69674" lon="6.45318">
        <ele>1446</ele>
        <time>2022-07-28T12:59:29Z</time>
      </trkpt>
      <trkpt lat="45.69674" lon="6.45318">
        <ele>1446</ele>
        <time>2022-07-28T12:59:30Z</time>
      </trkpt>
      <trkpt lat="45.69675" lon="6.45317">
        <ele>1446</ele>
        <time>2022-07-28T12:59:31Z</time>
      </trkpt>
      <trkpt lat="45.69676" lon="6.45317">
        <ele>1445</ele>
        <time>2022-07-28T12:59:32Z</time>
      </trkpt>
      <trkpt lat="45.69677" lon="6.45316">
        <ele>1445</ele>
        <time>2022-07-28T12:59:33Z</time>
      </trkpt>
      <trkpt lat="45.69678" lon="6.45316">
        <ele>1445</ele>
        <time>2022-07-28T12:59:34Z</time>
      </trkpt>
      <trkpt lat="45.69679" lon="6.45315">
        <ele>1445</ele>
        <time>2022-07-28T12:59:35Z</time>
      </trkpt>
      <trkpt lat="45.6968" lon="6.45315">
        <ele>1445</ele>
        <time>2022-07-28T12:59:36Z</time>
      </trkpt>
      <trkpt lat="45.69681" lon="6.45314">
        <ele>1444</ele>
        <time>2022-07-28T12:59:37Z</time>
      </trkpt>
      <trkpt lat="45.69682" lon="6.45314">
        <ele>1444</ele>
        <time>2022-07-28T12:59:38Z</time>
      </trkpt>
      <trkpt lat="45.69683" lon="6.45313">
        <ele>1444</ele>
        <time>2022-07-28T12:59:39Z</time>
      </trkpt>
      <trkpt lat="45.69684" lon="6.45312">
        <ele>1444</ele>
        <time>2022-07-28T12:59:40Z</time>
      </trkpt>
      <trkpt lat="45.69685" lon="6.45312">
        <ele>1444</ele>
        <time>2022-07-28T12:59:41Z</time>
      </trkpt>
      <trkpt lat="45.69686" lon="6.45311">
        <ele>1443</ele>
        <time>2022-07-28T12:59:42Z</time>
      </trkpt>
      <trkpt lat="45.69687" lon="6.45311">
        <ele>1443</ele>
        <time>2022-07-28T12:59:43Z</time>
      </trkpt>
      <trkpt lat="45.69688" lon="6.4531">
        <ele>1443</ele>
        <time>2022-07-28T12:59:44Z</time>
      </trkpt>
      <trkpt lat="45.69689" lon="6.45309">
        <ele>1443</ele>
        <time>2022-07-28T12:59:45Z</time>
      </trkpt>
      <trkpt lat="45.6969" lon="6.45309">
        <ele>1443</ele>
        <time>2022-07-28T12:59:46Z</time>
      </trkpt>
      <trkpt lat="45.69691" lon="6.45308">
        <ele>1442</ele>
        <time>2022-07-28T12:59:47Z</time>
      </trkpt>
      <trkpt lat="45.69691" lon="6.45308">
        <ele>1442</ele>
        <time>2022-07-28T12:59:48Z</time>
      </trkpt>
      <trkpt lat="45.69692" lon="6.45307">
        <ele>1442</ele>
        <time>2022-07-28T12:59:49Z</time>
      </trkpt>
      <trkpt lat="45.69693" lon="6.45306">
        <ele>1442</ele>
        <time>2022-07-28T12:59:50Z</time>
      </trkpt>
      <trkpt lat="45.69694" lon="6.45306">
        <ele>1442</ele>
        <time>2022-07-28T12:59:51Z</time>
      </trkpt>
      <trkpt lat="45.69694" lon="6.45305">
        <ele>1441</ele>
        <time>2022-07-28T12:59:52Z</time>
      </trkpt>
      <trkpt lat="45.69695" lon="6.45305">
        <ele>1441</ele>
        <time>2022-07-28T12:59:53Z</time>
      </trkpt>
      <trkpt lat="45.69696" lon="6.45304">
        <ele>1441</ele>
        <time>2022-07-28T12:59:54Z</time>
      </trkpt>
      <trkpt lat="45.69697" lon="6.45304">
        <ele>1441</ele>
        <time>2022-07-28T12:59:55Z</time>
      </trkpt>
      <trkpt lat="45.69697" lon="6.45303">
        <ele>1441</ele>
        <time>2022-07-28T12:59:56Z</time>
      </trkpt>
      <trkpt lat="45.69698" lon="6.45302">
        <ele>1440</ele>
        <time>2022-07-28T12:59:57Z</time>
      </trkpt>
      <trkpt lat="45.69699" lon="6.45301">
        <ele>1440</ele>
        <time>2022-07-28T12:59:58Z</time>
      </trkpt>
      <trkpt lat="45.697" lon="6.453">
        <ele>1440</ele>
        <time>2022-07-28T12:59:59Z</time>
      </trkpt>
      <trkpt lat="45.69701" lon="6.453">
        <ele>1440</ele>
        <time>2022-07-28T13:00:00Z</time>
      </trkpt>
      <trkpt lat="45.69702" lon="6.45299">
        <ele>1440</ele>
        <time>2022-07-28T13:00:01Z</time>
      </trkpt>
      <trkpt lat="45.69703" lon="6.45298">
        <ele>1439</ele>
        <time>2022-07-28T13:00:02Z</time>
      </trkpt>
      <trkpt lat="45.69704" lon="6.45298">
        <ele>1439</ele>
        <time>2022-07-28T13:00:03Z</time>
      </trkpt>
      <trkpt lat="45.69705" lon="6.45298">
        <ele>1439</ele>
        <time>2022-07-28T13:00:04Z</time>
      </trkpt>
      <trkpt lat="45.69707" lon="6.45297">
        <ele>1439</ele>
        <time>2022-07-28T13:00:05Z</time>
      </trkpt>
      <trkpt lat="45.69708" lon="6.45297">
        <ele>1439</ele>
        <time>2022-07-28T13:00:06Z</time>
      </trkpt>
      <trkpt lat="45.69709" lon="6.45296">
        <ele>1438</ele>
        <time>2022-07-28T13:00:07Z</time>
      </trkpt>
      <trkpt lat="45.6971" lon="6.45295">
        <ele>1438</ele>
        <time>2022-07-28T13:00:08Z</time>
      </trkpt>
      <trkpt lat="45.69711" lon="6.45295">
        <ele>1438</ele>
        <time>2022-07-28T13:00:09Z</time>
      </trkpt>
      <trkpt lat="45.69712" lon="6.45294">
        <ele>1438</ele>
        <time>2022-07-28T13:00:10Z</time>
      </trkpt>
      <trkpt lat="45.69713" lon="6.45294">
        <ele>1438</ele>
        <time>2022-07-28T13:00:11Z</time>
      </trkpt>
      <trkpt lat="45.69715" lon="6.45294">
        <ele>1437</ele>
        <time>2022-07-28T13:00:12Z</time>
      </trkpt>
      <trkpt lat="45.69716" lon="6.45293">
        <ele>1437</ele>
        <time>2022-07-28T13:00:13Z</time>
      </trkpt>
      <trkpt lat="45.69717" lon="6.45293">
        <ele>1437</ele>
        <time>2022-07-28T13:00:14Z</time>
      </trkpt>
      <trkpt lat="45.69718" lon="6.45293">
        <ele>1437</ele>
        <time>2022-07-28T13:00:15Z</time>
      </trkpt>
      <trkpt lat="45.69719" lon="6.45292">
        <ele>1437</ele>
        <time>2022-07-28T13:00:16Z</time>
      </trkpt>
      <trkpt lat="45.6972" lon="6.45292">
        <ele>1436</ele>
        <time>2022-07-28T13:00:17Z</time>
      </trkpt>
      <trkpt lat="45.69721" lon="6.45292">
        <ele>1436</ele>
        <time>2022-07-28T13:00:18Z</time>
      </trkpt>
      <trkpt lat="45.69723" lon="6.45291">
        <ele>1436</ele>
        <time>2022-07-28T13:00:19Z</time>
      </trkpt>
      <trkpt lat="45.69724" lon="6.45291">
        <ele>1436</ele>
        <time>2022-07-28T13:00:20Z</time>
      </trkpt>
      <trkpt lat="45.69725" lon="6.45291">
        <ele>1436</ele>
        <time>2022-07-28T13:00:21Z</time>
      </trkpt>
      <trkpt lat="45.69726" lon="6.4529">
        <ele>1436</ele>
        <time>2022-07-28T13:00:22Z</time>
      </trkpt>
      <trkpt lat="45.69727" lon="6.4529">
        <ele>1436</ele>
        <time>2022-07-28T13:00:23Z</time>
      </trkpt>
      <trkpt lat="45.69729" lon="6.4529">
        <ele>1436</ele>
        <time>2022-07-28T13:00:24Z</time>
      </trkpt>
      <trkpt lat="45.6973" lon="6.4529">
        <ele>1436</ele>
        <time>2022-07-28T13:00:25Z</time>
      </trkpt>
      <trkpt lat="45.69731" lon="6.4529">
        <ele>1436</ele>
        <time>2022-07-28T13:00:26Z</time>
      </trkpt>
      <trkpt lat="45.69732" lon="6.4529">
        <ele>1435</ele>
        <time>2022-07-28T13:00:27Z</time>
      </trkpt>
      <trkpt lat="45.69734" lon="6.45289">
        <ele>1435</ele>
        <time>2022-07-28T13:00:28Z</time>
      </trkpt>
      <trkpt lat="45.69735" lon="6.45289">
        <ele>1435</ele>
        <time>2022-07-28T13:00:29Z</time>
      </trkpt>
      <trkpt lat="45.69737" lon="6.45288">
        <ele>1435</ele>
        <time>2022-07-28T13:00:30Z</time>
      </trkpt>
      <trkpt lat="45.69738" lon="6.45288">
        <ele>1435</ele>
        <time>2022-07-28T13:00:31Z</time>
      </trkpt>
      <trkpt lat="45.69739" lon="6.45288">
        <ele>1434</ele>
        <time>2022-07-28T13:00:32Z</time>
      </trkpt>
      <trkpt lat="45.69741" lon="6.45288">
        <ele>1434</ele>
        <time>2022-07-28T13:00:33Z</time>
      </trkpt>
      <trkpt lat="45.69742" lon="6.45288">
        <ele>1434</ele>
        <time>2022-07-28T13:00:34Z</time>
      </trkpt>
      <trkpt lat="45.69743" lon="6.45288">
        <ele>1434</ele>
        <time>2022-07-28T13:00:35Z</time>
      </trkpt>
      <trkpt lat="45.69744" lon="6.45288">
        <ele>1434</ele>
        <time>2022-07-28T13:00:36Z</time>
      </trkpt>
      <trkpt lat="45.69746" lon="6.45288">
        <ele>1433</ele>
        <time>2022-07-28T13:00:37Z</time>
      </trkpt>
      <trkpt lat="45.69747" lon="6.45288">
        <ele>1433</ele>
        <time>2022-07-28T13:00:38Z</time>
      </trkpt>
      <trkpt lat="45.69748" lon="6.45288">
        <ele>1433</ele>
        <time>2022-07-28T13:00:39Z</time>
      </trkpt>
      <trkpt lat="45.69749" lon="6.45289">
        <ele>1433</ele>
        <time>2022-07-28T13:00:40Z</time>
      </trkpt>
      <trkpt lat="45.6975" lon="6.45289">
        <ele>1433</ele>
        <time>2022-07-28T13:00:41Z</time>
      </trkpt>
      <trkpt lat="45.69751" lon="6.4529">
        <ele>1432</ele>
        <time>2022-07-28T13:00:42Z</time>
      </trkpt>
      <trkpt lat="45.69752" lon="6.45291">
        <ele>1432</ele>
        <time>2022-07-28T13:00:43Z</time>
      </trkpt>
      <trkpt lat="45.69753" lon="6.45291">
        <ele>1431</ele>
        <time>2022-07-28T13:00:44Z</time>
      </trkpt>
      <trkpt lat="45.69754" lon="6.45292">
        <ele>1431</ele>
        <time>2022-07-28T13:00:45Z</time>
      </trkpt>
      <trkpt lat="45.69755" lon="6.45292">
        <ele>1431</ele>
        <time>2022-07-28T13:00:46Z</time>
      </trkpt>
      <trkpt lat="45.69756" lon="6.45293">
        <ele>1430</ele>
        <time>2022-07-28T13:00:47Z</time>
      </trkpt>
      <trkpt lat="45.69757" lon="6.45294">
        <ele>1430</ele>
        <time>2022-07-28T13:00:48Z</time>
      </trkpt>
      <trkpt lat="45.69758" lon="6.45295">
        <ele>1430</ele>
        <time>2022-07-28T13:00:49Z</time>
      </trkpt>
      <trkpt lat="45.69759" lon="6.45295">
        <ele>1430</ele>
        <time>2022-07-28T13:00:50Z</time>
      </trkpt>
      <trkpt lat="45.6976" lon="6.45296">
        <ele>1430</ele>
        <time>2022-07-28T13:00:51Z</time>
      </trkpt>
      <trkpt lat="45.69761" lon="6.45297">
        <ele>1430</ele>
        <time>2022-07-28T13:00:52Z</time>
      </trkpt>
      <trkpt lat="45.69762" lon="6.45298">
        <ele>1430</ele>
        <time>2022-07-28T13:00:53Z</time>
      </trkpt>
      <trkpt lat="45.69762" lon="6.45298">
        <ele>1430</ele>
        <time>2022-07-28T13:00:54Z</time>
      </trkpt>
      <trkpt lat="45.69763" lon="6.45299">
        <ele>1430</ele>
        <time>2022-07-28T13:00:55Z</time>
      </trkpt>
      <trkpt lat="45.69764" lon="6.45299">
        <ele>1430</ele>
        <time>2022-07-28T13:00:56Z</time>
      </trkpt>
      <trkpt lat="45.69765" lon="6.453">
        <ele>1429</ele>
        <time>2022-07-28T13:00:57Z</time>
      </trkpt>
      <trkpt lat="45.69766" lon="6.45301">
        <ele>1429</ele>
        <time>2022-07-28T13:00:58Z</time>
      </trkpt>
      <trkpt lat="45.69767" lon="6.45301">
        <ele>1429</ele>
        <time>2022-07-28T13:00:59Z</time>
      </trkpt>
      <trkpt lat="45.69768" lon="6.45301">
        <ele>1429</ele>
        <time>2022-07-28T13:01:00Z</time>
      </trkpt>
      <trkpt lat="45.69768" lon="6.45302">
        <ele>1429</ele>
        <time>2022-07-28T13:01:01Z</time>
      </trkpt>
      <trkpt lat="45.69769" lon="6.45302">
        <ele>1428</ele>
        <time>2022-07-28T13:01:02Z</time>
      </trkpt>
      <trkpt lat="45.6977" lon="6.45303">
        <ele>1428</ele>
        <time>2022-07-28T13:01:03Z</time>
      </trkpt>
      <trkpt lat="45.69771" lon="6.45303">
        <ele>1428</ele>
        <time>2022-07-28T13:01:04Z</time>
      </trkpt>
      <trkpt lat="45.69771" lon="6.45304">
        <ele>1428</ele>
        <time>2022-07-28T13:01:05Z</time>
      </trkpt>
      <trkpt lat="45.69772" lon="6.45305">
        <ele>1428</ele>
        <time>2022-07-28T13:01:06Z</time>
      </trkpt>
      <trkpt lat="45.69773" lon="6.45306">
        <ele>1427</ele>
        <time>2022-07-28T13:01:07Z</time>
      </trkpt>
      <trkpt lat="45.69773" lon="6.45307">
        <ele>1427</ele>
        <time>2022-07-28T13:01:08Z</time>
      </trkpt>
      <trkpt lat="45.69774" lon="6.45307">
        <ele>1427</ele>
        <time>2022-07-28T13:01:09Z</time>
      </trkpt>
      <trkpt lat="45.69775" lon="6.45308">
        <ele>1427</ele>
        <time>2022-07-28T13:01:10Z</time>
      </trkpt>
      <trkpt lat="45.69775" lon="6.45308">
        <ele>1427</ele>
        <time>2022-07-28T13:01:11Z</time>
      </trkpt>
      <trkpt lat="45.69776" lon="6.45309">
        <ele>1426</ele>
        <time>2022-07-28T13:01:12Z</time>
      </trkpt>
      <trkpt lat="45.69777" lon="6.4531">
        <ele>1426</ele>
        <time>2022-07-28T13:01:13Z</time>
      </trkpt>
      <trkpt lat="45.69778" lon="6.45311">
        <ele>1426</ele>
        <time>2022-07-28T13:01:14Z</time>
      </trkpt>
      <trkpt lat="45.69779" lon="6.45311">
        <ele>1426</ele>
        <time>2022-07-28T13:01:15Z</time>
      </trkpt>
      <trkpt lat="45.69781" lon="6.45312">
        <ele>1426</ele>
        <time>2022-07-28T13:01:16Z</time>
      </trkpt>
      <trkpt lat="45.69782" lon="6.45313">
        <ele>1425</ele>
        <time>2022-07-28T13:01:17Z</time>
      </trkpt>
      <trkpt lat="45.69783" lon="6.45314">
        <ele>1425</ele>
        <time>2022-07-28T13:01:18Z</time>
      </trkpt>
      <trkpt lat="45.69784" lon="6.45315">
        <ele>1425</ele>
        <time>2022-07-28T13:01:19Z</time>
      </trkpt>
      <trkpt lat="45.69785" lon="6.45316">
        <ele>1425</ele>
        <time>2022-07-28T13:01:20Z</time>
      </trkpt>
      <trkpt lat="45.69786" lon="6.45317">
        <ele>1425</ele>
        <time>2022-07-28T13:01:21Z</time>
      </trkpt>
      <trkpt lat="45.69787" lon="6.45318">
        <ele>1424</ele>
        <time>2022-07-28T13:01:22Z</time>
      </trkpt>
      <trkpt lat="45.69788" lon="6.45319">
        <ele>1424</ele>
        <time>2022-07-28T13:01:23Z</time>
      </trkpt>
      <trkpt lat="45.6979" lon="6.4532">
        <ele>1424</ele>
        <time>2022-07-28T13:01:24Z</time>
      </trkpt>
      <trkpt lat="45.69791" lon="6.45321">
        <ele>1424</ele>
        <time>2022-07-28T13:01:25Z</time>
      </trkpt>
      <trkpt lat="45.69792" lon="6.45323">
        <ele>1424</ele>
        <time>2022-07-28T13:01:26Z</time>
      </trkpt>
      <trkpt lat="45.69793" lon="6.45323">
        <ele>1423</ele>
        <time>2022-07-28T13:01:27Z</time>
      </trkpt>
      <trkpt lat="45.69794" lon="6.45324">
        <ele>1423</ele>
        <time>2022-07-28T13:01:28Z</time>
      </trkpt>
      <trkpt lat="45.69795" lon="6.45325">
        <ele>1423</ele>
        <time>2022-07-28T13:01:29Z</time>
      </trkpt>
      <trkpt lat="45.69796" lon="6.45325">
        <ele>1423</ele>
        <time>2022-07-28T13:01:30Z</time>
      </trkpt>
      <trkpt lat="45.69797" lon="6.45325">
        <ele>1423</ele>
        <time>2022-07-28T13:01:31Z</time>
      </trkpt>
      <trkpt lat="45.69798" lon="6.45325">
        <ele>1422</ele>
        <time>2022-07-28T13:01:32Z</time>
      </trkpt>
      <trkpt lat="45.69799" lon="6.45325">
        <ele>1422</ele>
        <time>2022-07-28T13:01:33Z</time>
      </trkpt>
      <trkpt lat="45.698" lon="6.45325">
        <ele>1422</ele>
        <time>2022-07-28T13:01:34Z</time>
      </trkpt>
      <trkpt lat="45.69801" lon="6.45326">
        <ele>1422</ele>
        <time>2022-07-28T13:01:35Z</time>
      </trkpt>
      <trkpt lat="45.69802" lon="6.45327">
        <ele>1422</ele>
        <time>2022-07-28T13:01:36Z</time>
      </trkpt>
      <trkpt lat="45.69802" lon="6.45329">
        <ele>1421</ele>
        <time>2022-07-28T13:01:37Z</time>
      </trkpt>
      <trkpt lat="45.69803" lon="6.4533">
        <ele>1421</ele>
        <time>2022-07-28T13:01:38Z</time>
      </trkpt>
      <trkpt lat="45.69804" lon="6.45331">
        <ele>1420</ele>
        <time>2022-07-28T13:01:39Z</time>
      </trkpt>
      <trkpt lat="45.69804" lon="6.45332">
        <ele>1420</ele>
        <time>2022-07-28T13:01:40Z</time>
      </trkpt>
      <trkpt lat="45.69805" lon="6.45333">
        <ele>1420</ele>
        <time>2022-07-28T13:01:41Z</time>
      </trkpt>
      <trkpt lat="45.69806" lon="6.45334">
        <ele>1419</ele>
        <time>2022-07-28T13:01:42Z</time>
      </trkpt>
      <trkpt lat="45.69806" lon="6.45333">
        <ele>1419</ele>
        <time>2022-07-28T13:01:43Z</time>
      </trkpt>
      <trkpt lat="45.69807" lon="6.45333">
        <ele>1419</ele>
        <time>2022-07-28T13:01:44Z</time>
      </trkpt>
      <trkpt lat="45.69807" lon="6.45332">
        <ele>1419</ele>
        <time>2022-07-28T13:01:45Z</time>
      </trkpt>
      <trkpt lat="45.69807" lon="6.45331">
        <ele>1419</ele>
        <time>2022-07-28T13:01:46Z</time>
      </trkpt>
      <trkpt lat="45.69807" lon="6.4533">
        <ele>1418</ele>
        <time>2022-07-28T13:01:47Z</time>
      </trkpt>
      <trkpt lat="45.69807" lon="6.45329">
        <ele>1418</ele>
        <time>2022-07-28T13:01:48Z</time>
      </trkpt>
      <trkpt lat="45.69806" lon="6.45327">
        <ele>1418</ele>
        <time>2022-07-28T13:01:49Z</time>
      </trkpt>
      <trkpt lat="45.69806" lon="6.45326">
        <ele>1418</ele>
        <time>2022-07-28T13:01:50Z</time>
      </trkpt>
      <trkpt lat="45.69806" lon="6.45325">
        <ele>1418</ele>
        <time>2022-07-28T13:01:51Z</time>
      </trkpt>
      <trkpt lat="45.69806" lon="6.45324">
        <ele>1417</ele>
        <time>2022-07-28T13:01:52Z</time>
      </trkpt>
      <trkpt lat="45.69806" lon="6.45323">
        <ele>1417</ele>
        <time>2022-07-28T13:01:53Z</time>
      </trkpt>
      <trkpt lat="45.69806" lon="6.45322">
        <ele>1417</ele>
        <time>2022-07-28T13:01:54Z</time>
      </trkpt>
      <trkpt lat="45.69806" lon="6.45321">
        <ele>1417</ele>
        <time>2022-07-28T13:01:55Z</time>
      </trkpt>
      <trkpt lat="45.69805" lon="6.4532">
        <ele>1417</ele>
        <time>2022-07-28T13:01:56Z</time>
      </trkpt>
      <trkpt lat="45.69805" lon="6.45319">
        <ele>1416</ele>
        <time>2022-07-28T13:01:57Z</time>
      </trkpt>
      <trkpt lat="45.69804" lon="6.45318">
        <ele>1416</ele>
        <time>2022-07-28T13:01:58Z</time>
      </trkpt>
      <trkpt lat="45.69804" lon="6.45317">
        <ele>1416</ele>
        <time>2022-07-28T13:01:59Z</time>
      </trkpt>
      <trkpt lat="45.69803" lon="6.45316">
        <ele>1416</ele>
        <time>2022-07-28T13:02:00Z</time>
      </trkpt>
      <trkpt lat="45.69803" lon="6.45315">
        <ele>1416</ele>
        <time>2022-07-28T13:02:01Z</time>
      </trkpt>
      <trkpt lat="45.69803" lon="6.45314">
        <ele>1415</ele>
        <time>2022-07-28T13:02:02Z</time>
      </trkpt>
      <trkpt lat="45.69802" lon="6.45313">
        <ele>1415</ele>
        <time>2022-07-28T13:02:03Z</time>
      </trkpt>
      <trkpt lat="45.69802" lon="6.45312">
        <ele>1415</ele>
        <time>2022-07-28T13:02:04Z</time>
      </trkpt>
      <trkpt lat="45.69802" lon="6.4531">
        <ele>1415</ele>
        <time>2022-07-28T13:02:05Z</time>
      </trkpt>
      <trkpt lat="45.69802" lon="6.45309">
        <ele>1415</ele>
        <time>2022-07-28T13:02:06Z</time>
      </trkpt>
      <trkpt lat="45.69801" lon="6.45308">
        <ele>1414</ele>
        <time>2022-07-28T13:02:07Z</time>
      </trkpt>
      <trkpt lat="45.69801" lon="6.45307">
        <ele>1414</ele>
        <time>2022-07-28T13:02:08Z</time>
      </trkpt>
      <trkpt lat="45.69801" lon="6.45306">
        <ele>1414</ele>
        <time>2022-07-28T13:02:09Z</time>
      </trkpt>
      <trkpt lat="45.698" lon="6.45306">
        <ele>1414</ele>
        <time>2022-07-28T13:02:10Z</time>
      </trkpt>
      <trkpt lat="45.698" lon="6.45305">
        <ele>1414</ele>
        <time>2022-07-28T13:02:11Z</time>
      </trkpt>
      <trkpt lat="45.69799" lon="6.45304">
        <ele>1413</ele>
        <time>2022-07-28T13:02:12Z</time>
      </trkpt>
      <trkpt lat="45.69799" lon="6.45303">
        <ele>1413</ele>
        <time>2022-07-28T13:02:13Z</time>
      </trkpt>
      <trkpt lat="45.69799" lon="6.45303">
        <ele>1413</ele>
        <time>2022-07-28T13:02:14Z</time>
      </trkpt>
      <trkpt lat="45.69798" lon="6.45302">
        <ele>1413</ele>
        <time>2022-07-28T13:02:15Z</time>
      </trkpt>
      <trkpt lat="45.69798" lon="6.45301">
        <ele>1413</ele>
        <time>2022-07-28T13:02:16Z</time>
      </trkpt>
      <trkpt lat="45.69798" lon="6.453">
        <ele>1412</ele>
        <time>2022-07-28T13:02:17Z</time>
      </trkpt>
      <trkpt lat="45.69797" lon="6.45299">
        <ele>1412</ele>
        <time>2022-07-28T13:02:18Z</time>
      </trkpt>
      <trkpt lat="45.69797" lon="6.45297">
        <ele>1412</ele>
        <time>2022-07-28T13:02:19Z</time>
      </trkpt>
      <trkpt lat="45.69797" lon="6.45296">
        <ele>1412</ele>
        <time>2022-07-28T13:02:20Z</time>
      </trkpt>
      <trkpt lat="45.69797" lon="6.45294">
        <ele>1412</ele>
        <time>2022-07-28T13:02:21Z</time>
      </trkpt>
      <trkpt lat="45.69797" lon="6.45293">
        <ele>1411</ele>
        <time>2022-07-28T13:02:22Z</time>
      </trkpt>
      <trkpt lat="45.69797" lon="6.45291">
        <ele>1411</ele>
        <time>2022-07-28T13:02:23Z</time>
      </trkpt>
      <trkpt lat="45.69797" lon="6.4529">
        <ele>1411</ele>
        <time>2022-07-28T13:02:24Z</time>
      </trkpt>
      <trkpt lat="45.69796" lon="6.45288">
        <ele>1411</ele>
        <time>2022-07-28T13:02:25Z</time>
      </trkpt>
      <trkpt lat="45.69796" lon="6.45287">
        <ele>1411</ele>
        <time>2022-07-28T13:02:26Z</time>
      </trkpt>
      <trkpt lat="45.69796" lon="6.45285">
        <ele>1410</ele>
        <time>2022-07-28T13:02:27Z</time>
      </trkpt>
      <trkpt lat="45.69796" lon="6.45283">
        <ele>1410</ele>
        <time>2022-07-28T13:02:28Z</time>
      </trkpt>
      <trkpt lat="45.69796" lon="6.45282">
        <ele>1409</ele>
        <time>2022-07-28T13:02:29Z</time>
      </trkpt>
      <trkpt lat="45.69796" lon="6.4528">
        <ele>1409</ele>
        <time>2022-07-28T13:02:30Z</time>
      </trkpt>
      <trkpt lat="45.69796" lon="6.45279">
        <ele>1409</ele>
        <time>2022-07-28T13:02:31Z</time>
      </trkpt>
      <trkpt lat="45.69796" lon="6.45277">
        <ele>1408</ele>
        <time>2022-07-28T13:02:32Z</time>
      </trkpt>
      <trkpt lat="45.69797" lon="6.45276">
        <ele>1408</ele>
        <time>2022-07-28T13:02:33Z</time>
      </trkpt>
      <trkpt lat="45.69797" lon="6.45274">
        <ele>1408</ele>
        <time>2022-07-28T13:02:34Z</time>
      </trkpt>
      <trkpt lat="45.69798" lon="6.45273">
        <ele>1408</ele>
        <time>2022-07-28T13:02:35Z</time>
      </trkpt>
      <trkpt lat="45.69799" lon="6.45271">
        <ele>1408</ele>
        <time>2022-07-28T13:02:36Z</time>
      </trkpt>
      <trkpt lat="45.698" lon="6.4527">
        <ele>1407</ele>
        <time>2022-07-28T13:02:37Z</time>
      </trkpt>
      <trkpt lat="45.69801" lon="6.45269">
        <ele>1407</ele>
        <time>2022-07-28T13:02:38Z</time>
      </trkpt>
      <trkpt lat="45.69802" lon="6.45269">
        <ele>1407</ele>
        <time>2022-07-28T13:02:39Z</time>
      </trkpt>
      <trkpt lat="45.69803" lon="6.45269">
        <ele>1407</ele>
        <time>2022-07-28T13:02:40Z</time>
      </trkpt>
      <trkpt lat="45.69804" lon="6.45269">
        <ele>1407</ele>
        <time>2022-07-28T13:02:41Z</time>
      </trkpt>
      <trkpt lat="45.69804" lon="6.45269">
        <ele>1406</ele>
        <time>2022-07-28T13:02:42Z</time>
      </trkpt>
      <trkpt lat="45.69805" lon="6.45269">
        <ele>1405</ele>
        <time>2022-07-28T13:02:43Z</time>
      </trkpt>
      <trkpt lat="45.69806" lon="6.4527">
        <ele>1405</ele>
        <time>2022-07-28T13:02:44Z</time>
      </trkpt>
      <trkpt lat="45.69807" lon="6.4527">
        <ele>1404</ele>
        <time>2022-07-28T13:02:45Z</time>
      </trkpt>
      <trkpt lat="45.69807" lon="6.45271">
        <ele>1404</ele>
        <time>2022-07-28T13:02:46Z</time>
      </trkpt>
      <trkpt lat="45.69808" lon="6.45271">
        <ele>1403</ele>
        <time>2022-07-28T13:02:47Z</time>
      </trkpt>
      <trkpt lat="45.69809" lon="6.45272">
        <ele>1403</ele>
        <time>2022-07-28T13:02:48Z</time>
      </trkpt>
      <trkpt lat="45.6981" lon="6.45272">
        <ele>1403</ele>
        <time>2022-07-28T13:02:49Z</time>
      </trkpt>
      <trkpt lat="45.6981" lon="6.45273">
        <ele>1403</ele>
        <time>2022-07-28T13:02:50Z</time>
      </trkpt>
      <trkpt lat="45.69811" lon="6.45273">
        <ele>1403</ele>
        <time>2022-07-28T13:02:51Z</time>
      </trkpt>
      <trkpt lat="45.69812" lon="6.45274">
        <ele>1402</ele>
        <time>2022-07-28T13:02:52Z</time>
      </trkpt>
      <trkpt lat="45.69813" lon="6.45274">
        <ele>1402</ele>
        <time>2022-07-28T13:02:53Z</time>
      </trkpt>
      <trkpt lat="45.69814" lon="6.45275">
        <ele>1402</ele>
        <time>2022-07-28T13:02:54Z</time>
      </trkpt>
      <trkpt lat="45.69815" lon="6.45275">
        <ele>1402</ele>
        <time>2022-07-28T13:02:55Z</time>
      </trkpt>
      <trkpt lat="45.69816" lon="6.45275">
        <ele>1402</ele>
        <time>2022-07-28T13:02:56Z</time>
      </trkpt>
      <trkpt lat="45.69817" lon="6.45276">
        <ele>1401</ele>
        <time>2022-07-28T13:02:57Z</time>
      </trkpt>
      <trkpt lat="45.69818" lon="6.45276">
        <ele>1401</ele>
        <time>2022-07-28T13:02:58Z</time>
      </trkpt>
      <trkpt lat="45.6982" lon="6.45277">
        <ele>1401</ele>
        <time>2022-07-28T13:02:59Z</time>
      </trkpt>
      <trkpt lat="45.69821" lon="6.45277">
        <ele>1401</ele>
        <time>2022-07-28T13:03:00Z</time>
      </trkpt>
      <trkpt lat="45.69822" lon="6.45278">
        <ele>1401</ele>
        <time>2022-07-28T13:03:01Z</time>
      </trkpt>
      <trkpt lat="45.69823" lon="6.45278">
        <ele>1401</ele>
        <time>2022-07-28T13:03:02Z</time>
      </trkpt>
      <trkpt lat="45.69824" lon="6.45279">
        <ele>1401</ele>
        <time>2022-07-28T13:03:03Z</time>
      </trkpt>
      <trkpt lat="45.69825" lon="6.4528">
        <ele>1401</ele>
        <time>2022-07-28T13:03:04Z</time>
      </trkpt>
      <trkpt lat="45.69826" lon="6.4528">
        <ele>1401</ele>
        <time>2022-07-28T13:03:05Z</time>
      </trkpt>
      <trkpt lat="45.69827" lon="6.45281">
        <ele>1401</ele>
        <time>2022-07-28T13:03:06Z</time>
      </trkpt>
      <trkpt lat="45.69828" lon="6.45281">
        <ele>1400</ele>
        <time>2022-07-28T13:03:07Z</time>
      </trkpt>
      <trkpt lat="45.69829" lon="6.45282">
        <ele>1400</ele>
        <time>2022-07-28T13:03:08Z</time>
      </trkpt>
      <trkpt lat="45.6983" lon="6.45282">
        <ele>1400</ele>
        <time>2022-07-28T13:03:09Z</time>
      </trkpt>
      <trkpt lat="45.69831" lon="6.45283">
        <ele>1400</ele>
        <time>2022-07-28T13:03:10Z</time>
      </trkpt>
      <trkpt lat="45.69832" lon="6.45283">
        <ele>1400</ele>
        <time>2022-07-28T13:03:11Z</time>
      </trkpt>
      <trkpt lat="45.69833" lon="6.45284">
        <ele>1399</ele>
        <time>2022-07-28T13:03:12Z</time>
      </trkpt>
      <trkpt lat="45.69834" lon="6.45284">
        <ele>1399</ele>
        <time>2022-07-28T13:03:13Z</time>
      </trkpt>
      <trkpt lat="45.69836" lon="6.45285">
        <ele>1399</ele>
        <time>2022-07-28T13:03:14Z</time>
      </trkpt>
      <trkpt lat="45.69837" lon="6.45285">
        <ele>1399</ele>
        <time>2022-07-28T13:03:15Z</time>
      </trkpt>
      <trkpt lat="45.69838" lon="6.45285">
        <ele>1399</ele>
        <time>2022-07-28T13:03:16Z</time>
      </trkpt>
      <trkpt lat="45.69839" lon="6.45286">
        <ele>1398</ele>
        <time>2022-07-28T13:03:17Z</time>
      </trkpt>
      <trkpt lat="45.6984" lon="6.45286">
        <ele>1398</ele>
        <time>2022-07-28T13:03:18Z</time>
      </trkpt>
      <trkpt lat="45.69841" lon="6.45287">
        <ele>1398</ele>
        <time>2022-07-28T13:03:19Z</time>
      </trkpt>
      <trkpt lat="45.69842" lon="6.45288">
        <ele>1398</ele>
        <time>2022-07-28T13:03:20Z</time>
      </trkpt>
      <trkpt lat="45.69843" lon="6.45288">
        <ele>1398</ele>
        <time>2022-07-28T13:03:21Z</time>
      </trkpt>
      <trkpt lat="45.69843" lon="6.45289">
        <ele>1397</ele>
        <time>2022-07-28T13:03:22Z</time>
      </trkpt>
      <trkpt lat="45.69845" lon="6.45288">
        <ele>1397</ele>
        <time>2022-07-28T13:03:23Z</time>
      </trkpt>
      <trkpt lat="45.69846" lon="6.45288">
        <ele>1397</ele>
        <time>2022-07-28T13:03:24Z</time>
      </trkpt>
      <trkpt lat="45.69847" lon="6.45288">
        <ele>1397</ele>
        <time>2022-07-28T13:03:25Z</time>
      </trkpt>
      <trkpt lat="45.69848" lon="6.45288">
        <ele>1397</ele>
        <time>2022-07-28T13:03:26Z</time>
      </trkpt>
      <trkpt lat="45.69849" lon="6.45289">
        <ele>1396</ele>
        <time>2022-07-28T13:03:27Z</time>
      </trkpt>
      <trkpt lat="45.6985" lon="6.45289">
        <ele>1396</ele>
        <time>2022-07-28T13:03:28Z</time>
      </trkpt>
      <trkpt lat="45.69852" lon="6.4529">
        <ele>1396</ele>
        <time>2022-07-28T13:03:29Z</time>
      </trkpt>
      <trkpt lat="45.69853" lon="6.4529">
        <ele>1396</ele>
        <time>2022-07-28T13:03:30Z</time>
      </trkpt>
      <trkpt lat="45.69854" lon="6.4529">
        <ele>1396</ele>
        <time>2022-07-28T13:03:31Z</time>
      </trkpt>
      <trkpt lat="45.69855" lon="6.45291">
        <ele>1395</ele>
        <time>2022-07-28T13:03:32Z</time>
      </trkpt>
      <trkpt lat="45.69856" lon="6.45291">
        <ele>1395</ele>
        <time>2022-07-28T13:03:33Z</time>
      </trkpt>
      <trkpt lat="45.69857" lon="6.45291">
        <ele>1395</ele>
        <time>2022-07-28T13:03:34Z</time>
      </trkpt>
      <trkpt lat="45.69858" lon="6.45291">
        <ele>1395</ele>
        <time>2022-07-28T13:03:35Z</time>
      </trkpt>
      <trkpt lat="45.69859" lon="6.45291">
        <ele>1395</ele>
        <time>2022-07-28T13:03:36Z</time>
      </trkpt>
      <trkpt lat="45.6986" lon="6.45291">
        <ele>1394</ele>
        <time>2022-07-28T13:03:37Z</time>
      </trkpt>
      <trkpt lat="45.69861" lon="6.45292">
        <ele>1394</ele>
        <time>2022-07-28T13:03:38Z</time>
      </trkpt>
      <trkpt lat="45.69862" lon="6.45292">
        <ele>1394</ele>
        <time>2022-07-28T13:03:39Z</time>
      </trkpt>
      <trkpt lat="45.69863" lon="6.45293">
        <ele>1394</ele>
        <time>2022-07-28T13:03:40Z</time>
      </trkpt>
      <trkpt lat="45.69864" lon="6.45294">
        <ele>1394</ele>
        <time>2022-07-28T13:03:41Z</time>
      </trkpt>
      <trkpt lat="45.69865" lon="6.45294">
        <ele>1393</ele>
        <time>2022-07-28T13:03:42Z</time>
      </trkpt>
      <trkpt lat="45.69866" lon="6.45295">
        <ele>1393</ele>
        <time>2022-07-28T13:03:43Z</time>
      </trkpt>
      <trkpt lat="45.69867" lon="6.45295">
        <ele>1393</ele>
        <time>2022-07-28T13:03:44Z</time>
      </trkpt>
      <trkpt lat="45.69868" lon="6.45296">
        <ele>1393</ele>
        <time>2022-07-28T13:03:45Z</time>
      </trkpt>
      <trkpt lat="45.69869" lon="6.45297">
        <ele>1393</ele>
        <time>2022-07-28T13:03:46Z</time>
      </trkpt>
      <trkpt lat="45.6987" lon="6.45297">
        <ele>1392</ele>
        <time>2022-07-28T13:03:47Z</time>
      </trkpt>
      <trkpt lat="45.69871" lon="6.45298">
        <ele>1392</ele>
        <time>2022-07-28T13:03:48Z</time>
      </trkpt>
      <trkpt lat="45.69872" lon="6.45299">
        <ele>1392</ele>
        <time>2022-07-28T13:03:49Z</time>
      </trkpt>
      <trkpt lat="45.69873" lon="6.45299">
        <ele>1392</ele>
        <time>2022-07-28T13:03:50Z</time>
      </trkpt>
      <trkpt lat="45.69874" lon="6.453">
        <ele>1392</ele>
        <time>2022-07-28T13:03:51Z</time>
      </trkpt>
      <trkpt lat="45.69875" lon="6.453">
        <ele>1391</ele>
        <time>2022-07-28T13:03:52Z</time>
      </trkpt>
      <trkpt lat="45.69875" lon="6.45301">
        <ele>1391</ele>
        <time>2022-07-28T13:03:53Z</time>
      </trkpt>
      <trkpt lat="45.69876" lon="6.45301">
        <ele>1391</ele>
        <time>2022-07-28T13:03:54Z</time>
      </trkpt>
      <trkpt lat="45.69877" lon="6.45301">
        <ele>1391</ele>
        <time>2022-07-28T13:03:55Z</time>
      </trkpt>
      <trkpt lat="45.69878" lon="6.45302">
        <ele>1391</ele>
        <time>2022-07-28T13:03:56Z</time>
      </trkpt>
      <trkpt lat="45.69878" lon="6.45302">
        <ele>1390</ele>
        <time>2022-07-28T13:03:57Z</time>
      </trkpt>
      <trkpt lat="45.69879" lon="6.45302">
        <ele>1390</ele>
        <time>2022-07-28T13:03:58Z</time>
      </trkpt>
      <trkpt lat="45.6988" lon="6.45302">
        <ele>1389</ele>
        <time>2022-07-28T13:03:59Z</time>
      </trkpt>
      <trkpt lat="45.69881" lon="6.45302">
        <ele>1389</ele>
        <time>2022-07-28T13:04:00Z</time>
      </trkpt>
      <trkpt lat="45.69882" lon="6.45302">
        <ele>1389</ele>
        <time>2022-07-28T13:04:01Z</time>
      </trkpt>
      <trkpt lat="45.69883" lon="6.45302">
        <ele>1388</ele>
        <time>2022-07-28T13:04:02Z</time>
      </trkpt>
      <trkpt lat="45.69883" lon="6.45302">
        <ele>1388</ele>
        <time>2022-07-28T13:04:03Z</time>
      </trkpt>
      <trkpt lat="45.69884" lon="6.45302">
        <ele>1388</ele>
        <time>2022-07-28T13:04:04Z</time>
      </trkpt>
      <trkpt lat="45.69885" lon="6.45302">
        <ele>1388</ele>
        <time>2022-07-28T13:04:05Z</time>
      </trkpt>
      <trkpt lat="45.69886" lon="6.45302">
        <ele>1388</ele>
        <time>2022-07-28T13:04:06Z</time>
      </trkpt>
      <trkpt lat="45.69887" lon="6.45302">
        <ele>1387</ele>
        <time>2022-07-28T13:04:07Z</time>
      </trkpt>
      <trkpt lat="45.69887" lon="6.45301">
        <ele>1387</ele>
        <time>2022-07-28T13:04:08Z</time>
      </trkpt>
      <trkpt lat="45.69888" lon="6.45301">
        <ele>1387</ele>
        <time>2022-07-28T13:04:09Z</time>
      </trkpt>
      <trkpt lat="45.69889" lon="6.453">
        <ele>1387</ele>
        <time>2022-07-28T13:04:10Z</time>
      </trkpt>
      <trkpt lat="45.69889" lon="6.453">
        <ele>1387</ele>
        <time>2022-07-28T13:04:11Z</time>
      </trkpt>
      <trkpt lat="45.6989" lon="6.45299">
        <ele>1386</ele>
        <time>2022-07-28T13:04:12Z</time>
      </trkpt>
      <trkpt lat="45.6989" lon="6.45298">
        <ele>1386</ele>
        <time>2022-07-28T13:04:13Z</time>
      </trkpt>
      <trkpt lat="45.6989" lon="6.45297">
        <ele>1386</ele>
        <time>2022-07-28T13:04:14Z</time>
      </trkpt>
      <trkpt lat="45.69891" lon="6.45297">
        <ele>1386</ele>
        <time>2022-07-28T13:04:15Z</time>
      </trkpt>
      <trkpt lat="45.69891" lon="6.45296">
        <ele>1386</ele>
        <time>2022-07-28T13:04:16Z</time>
      </trkpt>
      <trkpt lat="45.69892" lon="6.45295">
        <ele>1385</ele>
        <time>2022-07-28T13:04:17Z</time>
      </trkpt>
      <trkpt lat="45.69892" lon="6.45294">
        <ele>1385</ele>
        <time>2022-07-28T13:04:18Z</time>
      </trkpt>
      <trkpt lat="45.69892" lon="6.45294">
        <ele>1384</ele>
        <time>2022-07-28T13:04:19Z</time>
      </trkpt>
      <trkpt lat="45.69892" lon="6.45293">
        <ele>1384</ele>
        <time>2022-07-28T13:04:20Z</time>
      </trkpt>
      <trkpt lat="45.69892" lon="6.45292">
        <ele>1384</ele>
        <time>2022-07-28T13:04:21Z</time>
      </trkpt>
      <trkpt lat="45.69893" lon="6.45291">
        <ele>1383</ele>
        <time>2022-07-28T13:04:22Z</time>
      </trkpt>
      <trkpt lat="45.69893" lon="6.4529">
        <ele>1383</ele>
        <time>2022-07-28T13:04:23Z</time>
      </trkpt>
      <trkpt lat="45.69894" lon="6.45289">
        <ele>1383</ele>
        <time>2022-07-28T13:04:24Z</time>
      </trkpt>
      <trkpt lat="45.69895" lon="6.45289">
        <ele>1383</ele>
        <time>2022-07-28T13:04:25Z</time>
      </trkpt>
      <trkpt lat="45.69896" lon="6.45288">
        <ele>1383</ele>
        <time>2022-07-28T13:04:26Z</time>
      </trkpt>
      <trkpt lat="45.69897" lon="6.45288">
        <ele>1382</ele>
        <time>2022-07-28T13:04:27Z</time>
      </trkpt>
      <trkpt lat="45.69898" lon="6.45287">
        <ele>1382</ele>
        <time>2022-07-28T13:04:28Z</time>
      </trkpt>
      <trkpt lat="45.69899" lon="6.45287">
        <ele>1381</ele>
        <time>2022-07-28T13:04:29Z</time>
      </trkpt>
      <trkpt lat="45.69901" lon="6.45287">
        <ele>1381</ele>
        <time>2022-07-28T13:04:30Z</time>
      </trkpt>
      <trkpt lat="45.69902" lon="6.45286">
        <ele>1381</ele>
        <time>2022-07-28T13:04:31Z</time>
      </trkpt>
      <trkpt lat="45.69903" lon="6.45286">
        <ele>1380</ele>
        <time>2022-07-28T13:04:32Z</time>
      </trkpt>
      <trkpt lat="45.69904" lon="6.45286">
        <ele>1380</ele>
        <time>2022-07-28T13:04:33Z</time>
      </trkpt>
      <trkpt lat="45.69905" lon="6.45286">
        <ele>1380</ele>
        <time>2022-07-28T13:04:34Z</time>
      </trkpt>
      <trkpt lat="45.69905" lon="6.45286">
        <ele>1380</ele>
        <time>2022-07-28T13:04:35Z</time>
      </trkpt>
      <trkpt lat="45.69906" lon="6.45286">
        <ele>1380</ele>
        <time>2022-07-28T13:04:36Z</time>
      </trkpt>
      <trkpt lat="45.69907" lon="6.45286">
        <ele>1379</ele>
        <time>2022-07-28T13:04:37Z</time>
      </trkpt>
      <trkpt lat="45.69908" lon="6.45287">
        <ele>1378</ele>
        <time>2022-07-28T13:04:38Z</time>
      </trkpt>
      <trkpt lat="45.69908" lon="6.45287">
        <ele>1378</ele>
        <time>2022-07-28T13:04:39Z</time>
      </trkpt>
      <trkpt lat="45.69909" lon="6.45288">
        <ele>1377</ele>
        <time>2022-07-28T13:04:40Z</time>
      </trkpt>
      <trkpt lat="45.6991" lon="6.45288">
        <ele>1377</ele>
        <time>2022-07-28T13:04:41Z</time>
      </trkpt>
      <trkpt lat="45.69911" lon="6.45288">
        <ele>1376</ele>
        <time>2022-07-28T13:04:42Z</time>
      </trkpt>
      <trkpt lat="45.69912" lon="6.45287">
        <ele>1376</ele>
        <time>2022-07-28T13:04:43Z</time>
      </trkpt>
      <trkpt lat="45.69913" lon="6.45287">
        <ele>1376</ele>
        <time>2022-07-28T13:04:44Z</time>
      </trkpt>
      <trkpt lat="45.69914" lon="6.45286">
        <ele>1376</ele>
        <time>2022-07-28T13:04:45Z</time>
      </trkpt>
      <trkpt lat="45.69915" lon="6.45285">
        <ele>1376</ele>
        <time>2022-07-28T13:04:46Z</time>
      </trkpt>
      <trkpt lat="45.69915" lon="6.45283">
        <ele>1375</ele>
        <time>2022-07-28T13:04:47Z</time>
      </trkpt>
      <trkpt lat="45.69916" lon="6.45282">
        <ele>1375</ele>
        <time>2022-07-28T13:04:48Z</time>
      </trkpt>
      <trkpt lat="45.69916" lon="6.4528">
        <ele>1375</ele>
        <time>2022-07-28T13:04:49Z</time>
      </trkpt>
      <trkpt lat="45.69917" lon="6.45279">
        <ele>1375</ele>
        <time>2022-07-28T13:04:50Z</time>
      </trkpt>
      <trkpt lat="45.69917" lon="6.45277">
        <ele>1375</ele>
        <time>2022-07-28T13:04:51Z</time>
      </trkpt>
      <trkpt lat="45.69918" lon="6.45276">
        <ele>1374</ele>
        <time>2022-07-28T13:04:52Z</time>
      </trkpt>
      <trkpt lat="45.69918" lon="6.45274">
        <ele>1374</ele>
        <time>2022-07-28T13:04:53Z</time>
      </trkpt>
      <trkpt lat="45.69919" lon="6.45273">
        <ele>1373</ele>
        <time>2022-07-28T13:04:54Z</time>
      </trkpt>
      <trkpt lat="45.69919" lon="6.45272">
        <ele>1373</ele>
        <time>2022-07-28T13:04:55Z</time>
      </trkpt>
      <trkpt lat="45.6992" lon="6.4527">
        <ele>1373</ele>
        <time>2022-07-28T13:04:56Z</time>
      </trkpt>
      <trkpt lat="45.69921" lon="6.45269">
        <ele>1372</ele>
        <time>2022-07-28T13:04:57Z</time>
      </trkpt>
      <trkpt lat="45.69921" lon="6.45268">
        <ele>1372</ele>
        <time>2022-07-28T13:04:58Z</time>
      </trkpt>
      <trkpt lat="45.69922" lon="6.45267">
        <ele>1372</ele>
        <time>2022-07-28T13:04:59Z</time>
      </trkpt>
      <trkpt lat="45.69923" lon="6.45267">
        <ele>1372</ele>
        <time>2022-07-28T13:05:00Z</time>
      </trkpt>
      <trkpt lat="45.69924" lon="6.45266">
        <ele>1372</ele>
        <time>2022-07-28T13:05:01Z</time>
      </trkpt>
      <trkpt lat="45.69925" lon="6.45266">
        <ele>1371</ele>
        <time>2022-07-28T13:05:02Z</time>
      </trkpt>
      <trkpt lat="45.69926" lon="6.45266">
        <ele>1371</ele>
        <time>2022-07-28T13:05:03Z</time>
      </trkpt>
      <trkpt lat="45.69927" lon="6.45265">
        <ele>1371</ele>
        <time>2022-07-28T13:05:04Z</time>
      </trkpt>
      <trkpt lat="45.69928" lon="6.45265">
        <ele>1371</ele>
        <time>2022-07-28T13:05:05Z</time>
      </trkpt>
      <trkpt lat="45.69929" lon="6.45265">
        <ele>1371</ele>
        <time>2022-07-28T13:05:06Z</time>
      </trkpt>
      <trkpt lat="45.6993" lon="6.45266">
        <ele>1370</ele>
        <time>2022-07-28T13:05:07Z</time>
      </trkpt>
      <trkpt lat="45.6993" lon="6.45266">
        <ele>1370</ele>
        <time>2022-07-28T13:05:08Z</time>
      </trkpt>
      <trkpt lat="45.69931" lon="6.45267">
        <ele>1370</ele>
        <time>2022-07-28T13:05:09Z</time>
      </trkpt>
      <trkpt lat="45.69932" lon="6.45267">
        <ele>1370</ele>
        <time>2022-07-28T13:05:10Z</time>
      </trkpt>
      <trkpt lat="45.69932" lon="6.45268">
        <ele>1370</ele>
        <time>2022-07-28T13:05:11Z</time>
      </trkpt>
      <trkpt lat="45.69933" lon="6.45269">
        <ele>1369</ele>
        <time>2022-07-28T13:05:12Z</time>
      </trkpt>
      <trkpt lat="45.69933" lon="6.4527">
        <ele>1369</ele>
        <time>2022-07-28T13:05:13Z</time>
      </trkpt>
      <trkpt lat="45.69933" lon="6.45271">
        <ele>1369</ele>
        <time>2022-07-28T13:05:14Z</time>
      </trkpt>
      <trkpt lat="45.69934" lon="6.45272">
        <ele>1369</ele>
        <time>2022-07-28T13:05:15Z</time>
      </trkpt>
      <trkpt lat="45.69934" lon="6.45273">
        <ele>1369</ele>
        <time>2022-07-28T13:05:16Z</time>
      </trkpt>
      <trkpt lat="45.69935" lon="6.45274">
        <ele>1368</ele>
        <time>2022-07-28T13:05:17Z</time>
      </trkpt>
      <trkpt lat="45.69935" lon="6.45274">
        <ele>1368</ele>
        <time>2022-07-28T13:05:18Z</time>
      </trkpt>
      <trkpt lat="45.69936" lon="6.45275">
        <ele>1368</ele>
        <time>2022-07-28T13:05:19Z</time>
      </trkpt>
      <trkpt lat="45.69937" lon="6.45275">
        <ele>1368</ele>
        <time>2022-07-28T13:05:20Z</time>
      </trkpt>
      <trkpt lat="45.69937" lon="6.45275">
        <ele>1368</ele>
        <time>2022-07-28T13:05:21Z</time>
      </trkpt>
      <trkpt lat="45.69938" lon="6.45276">
        <ele>1367</ele>
        <time>2022-07-28T13:05:22Z</time>
      </trkpt>
      <trkpt lat="45.69938" lon="6.45276">
        <ele>1367</ele>
        <time>2022-07-28T13:05:23Z</time>
      </trkpt>
      <trkpt lat="45.69939" lon="6.45277">
        <ele>1367</ele>
        <time>2022-07-28T13:05:24Z</time>
      </trkpt>
      <trkpt lat="45.69939" lon="6.45278">
        <ele>1367</ele>
        <time>2022-07-28T13:05:25Z</time>
      </trkpt>
      <trkpt lat="45.6994" lon="6.45279">
        <ele>1367</ele>
        <time>2022-07-28T13:05:26Z</time>
      </trkpt>
      <trkpt lat="45.6994" lon="6.45279">
        <ele>1366</ele>
        <time>2022-07-28T13:05:27Z</time>
      </trkpt>
      <trkpt lat="45.69941" lon="6.4528">
        <ele>1366</ele>
        <time>2022-07-28T13:05:28Z</time>
      </trkpt>
      <trkpt lat="45.69941" lon="6.4528">
        <ele>1366</ele>
        <time>2022-07-28T13:05:29Z</time>
      </trkpt>
      <trkpt lat="45.69942" lon="6.45279">
        <ele>1366</ele>
        <time>2022-07-28T13:05:30Z</time>
      </trkpt>
      <trkpt lat="45.69942" lon="6.45279">
        <ele>1366</ele>
        <time>2022-07-28T13:05:31Z</time>
      </trkpt>
      <trkpt lat="45.69942" lon="6.45279">
        <ele>1365</ele>
        <time>2022-07-28T13:05:32Z</time>
      </trkpt>
      <trkpt lat="45.69942" lon="6.45278">
        <ele>1365</ele>
        <time>2022-07-28T13:05:33Z</time>
      </trkpt>
      <trkpt lat="45.69943" lon="6.45278">
        <ele>1364</ele>
        <time>2022-07-28T13:05:34Z</time>
      </trkpt>
      <trkpt lat="45.69943" lon="6.45277">
        <ele>1364</ele>
        <time>2022-07-28T13:05:35Z</time>
      </trkpt>
      <trkpt lat="45.69944" lon="6.45276">
        <ele>1364</ele>
        <time>2022-07-28T13:05:36Z</time>
      </trkpt>
      <trkpt lat="45.69944" lon="6.45275">
        <ele>1363</ele>
        <time>2022-07-28T13:05:37Z</time>
      </trkpt>
      <trkpt lat="45.69945" lon="6.45275">
        <ele>1363</ele>
        <time>2022-07-28T13:05:38Z</time>
      </trkpt>
      <trkpt lat="45.69945" lon="6.45274">
        <ele>1363</ele>
        <time>2022-07-28T13:05:39Z</time>
      </trkpt>
      <trkpt lat="45.69946" lon="6.45273">
        <ele>1363</ele>
        <time>2022-07-28T13:05:40Z</time>
      </trkpt>
      <trkpt lat="45.69946" lon="6.45273">
        <ele>1363</ele>
        <time>2022-07-28T13:05:41Z</time>
      </trkpt>
      <trkpt lat="45.69946" lon="6.45272">
        <ele>1362</ele>
        <time>2022-07-28T13:05:42Z</time>
      </trkpt>
      <trkpt lat="45.69947" lon="6.45271">
        <ele>1362</ele>
        <time>2022-07-28T13:05:43Z</time>
      </trkpt>
      <trkpt lat="45.69947" lon="6.4527">
        <ele>1362</ele>
        <time>2022-07-28T13:05:44Z</time>
      </trkpt>
      <trkpt lat="45.69947" lon="6.45269">
        <ele>1362</ele>
        <time>2022-07-28T13:05:45Z</time>
      </trkpt>
      <trkpt lat="45.69947" lon="6.45268">
        <ele>1362</ele>
        <time>2022-07-28T13:05:46Z</time>
      </trkpt>
      <trkpt lat="45.69947" lon="6.45268">
        <ele>1361</ele>
        <time>2022-07-28T13:05:47Z</time>
      </trkpt>
      <trkpt lat="45.69947" lon="6.45267">
        <ele>1361</ele>
        <time>2022-07-28T13:05:48Z</time>
      </trkpt>
      <trkpt lat="45.69947" lon="6.45267">
        <ele>1361</ele>
        <time>2022-07-28T13:05:49Z</time>
      </trkpt>
      <trkpt lat="45.69948" lon="6.45266">
        <ele>1361</ele>
        <time>2022-07-28T13:05:50Z</time>
      </trkpt>
      <trkpt lat="45.69948" lon="6.45265">
        <ele>1361</ele>
        <time>2022-07-28T13:05:51Z</time>
      </trkpt>
      <trkpt lat="45.69948" lon="6.45266">
        <ele>1360</ele>
        <time>2022-07-28T13:05:52Z</time>
      </trkpt>
      <trkpt lat="45.69949" lon="6.45266">
        <ele>1360</ele>
        <time>2022-07-28T13:05:53Z</time>
      </trkpt>
      <trkpt lat="45.69949" lon="6.45266">
        <ele>1360</ele>
        <time>2022-07-28T13:05:54Z</time>
      </trkpt>
      <trkpt lat="45.6995" lon="6.45267">
        <ele>1360</ele>
        <time>2022-07-28T13:05:55Z</time>
      </trkpt>
      <trkpt lat="45.6995" lon="6.45268">
        <ele>1360</ele>
        <time>2022-07-28T13:05:56Z</time>
      </trkpt>
      <trkpt lat="45.69951" lon="6.45269">
        <ele>1359</ele>
        <time>2022-07-28T13:05:57Z</time>
      </trkpt>
      <trkpt lat="45.69951" lon="6.4527">
        <ele>1359</ele>
        <time>2022-07-28T13:05:58Z</time>
      </trkpt>
      <trkpt lat="45.69951" lon="6.45271">
        <ele>1359</ele>
        <time>2022-07-28T13:05:59Z</time>
      </trkpt>
      <trkpt lat="45.69952" lon="6.45272">
        <ele>1359</ele>
        <time>2022-07-28T13:06:00Z</time>
      </trkpt>
      <trkpt lat="45.69952" lon="6.45273">
        <ele>1359</ele>
        <time>2022-07-28T13:06:01Z</time>
      </trkpt>
      <trkpt lat="45.69953" lon="6.45275">
        <ele>1358</ele>
        <time>2022-07-28T13:06:02Z</time>
      </trkpt>
      <trkpt lat="45.69953" lon="6.45276">
        <ele>1358</ele>
        <time>2022-07-28T13:06:03Z</time>
      </trkpt>
      <trkpt lat="45.69954" lon="6.45277">
        <ele>1357</ele>
        <time>2022-07-28T13:06:04Z</time>
      </trkpt>
      <trkpt lat="45.69955" lon="6.45279">
        <ele>1357</ele>
        <time>2022-07-28T13:06:05Z</time>
      </trkpt>
      <trkpt lat="45.69956" lon="6.4528">
        <ele>1357</ele>
        <time>2022-07-28T13:06:06Z</time>
      </trkpt>
      <trkpt lat="45.69956" lon="6.45281">
        <ele>1356</ele>
        <time>2022-07-28T13:06:07Z</time>
      </trkpt>
      <trkpt lat="45.69957" lon="6.45281">
        <ele>1356</ele>
        <time>2022-07-28T13:06:08Z</time>
      </trkpt>
      <trkpt lat="45.69958" lon="6.45282">
        <ele>1356</ele>
        <time>2022-07-28T13:06:09Z</time>
      </trkpt>
      <trkpt lat="45.69959" lon="6.45283">
        <ele>1356</ele>
        <time>2022-07-28T13:06:10Z</time>
      </trkpt>
      <trkpt lat="45.69959" lon="6.45284">
        <ele>1356</ele>
        <time>2022-07-28T13:06:11Z</time>
      </trkpt>
      <trkpt lat="45.6996" lon="6.45285">
        <ele>1355</ele>
        <time>2022-07-28T13:06:12Z</time>
      </trkpt>
      <trkpt lat="45.6996" lon="6.45286">
        <ele>1355</ele>
        <time>2022-07-28T13:06:13Z</time>
      </trkpt>
      <trkpt lat="45.69961" lon="6.45287">
        <ele>1355</ele>
        <time>2022-07-28T13:06:14Z</time>
      </trkpt>
      <trkpt lat="45.69961" lon="6.45288">
        <ele>1355</ele>
        <time>2022-07-28T13:06:15Z</time>
      </trkpt>
      <trkpt lat="45.69962" lon="6.45289">
        <ele>1355</ele>
        <time>2022-07-28T13:06:16Z</time>
      </trkpt>
      <trkpt lat="45.69963" lon="6.4529">
        <ele>1354</ele>
        <time>2022-07-28T13:06:17Z</time>
      </trkpt>
      <trkpt lat="45.69963" lon="6.45291">
        <ele>1354</ele>
        <time>2022-07-28T13:06:18Z</time>
      </trkpt>
      <trkpt lat="45.69964" lon="6.45292">
        <ele>1354</ele>
        <time>2022-07-28T13:06:19Z</time>
      </trkpt>
      <trkpt lat="45.69965" lon="6.45293">
        <ele>1354</ele>
        <time>2022-07-28T13:06:20Z</time>
      </trkpt>
      <trkpt lat="45.69965" lon="6.45293">
        <ele>1354</ele>
        <time>2022-07-28T13:06:21Z</time>
      </trkpt>
      <trkpt lat="45.69966" lon="6.45294">
        <ele>1353</ele>
        <time>2022-07-28T13:06:22Z</time>
      </trkpt>
      <trkpt lat="45.69967" lon="6.45294">
        <ele>1353</ele>
        <time>2022-07-28T13:06:23Z</time>
      </trkpt>
      <trkpt lat="45.69968" lon="6.45294">
        <ele>1352</ele>
        <time>2022-07-28T13:06:24Z</time>
      </trkpt>
      <trkpt lat="45.69968" lon="6.45294">
        <ele>1352</ele>
        <time>2022-07-28T13:06:25Z</time>
      </trkpt>
      <trkpt lat="45.69969" lon="6.45294">
        <ele>1352</ele>
        <time>2022-07-28T13:06:26Z</time>
      </trkpt>
      <trkpt lat="45.6997" lon="6.45294">
        <ele>1351</ele>
        <time>2022-07-28T13:06:27Z</time>
      </trkpt>
      <trkpt lat="45.6997" lon="6.45294">
        <ele>1351</ele>
        <time>2022-07-28T13:06:28Z</time>
      </trkpt>
      <trkpt lat="45.69971" lon="6.45294">
        <ele>1351</ele>
        <time>2022-07-28T13:06:29Z</time>
      </trkpt>
      <trkpt lat="45.69972" lon="6.45295">
        <ele>1351</ele>
        <time>2022-07-28T13:06:30Z</time>
      </trkpt>
      <trkpt lat="45.69972" lon="6.45295">
        <ele>1351</ele>
        <time>2022-07-28T13:06:31Z</time>
      </trkpt>
      <trkpt lat="45.69973" lon="6.45296">
        <ele>1350</ele>
        <time>2022-07-28T13:06:32Z</time>
      </trkpt>
      <trkpt lat="45.69974" lon="6.45296">
        <ele>1350</ele>
        <time>2022-07-28T13:06:33Z</time>
      </trkpt>
      <trkpt lat="45.69975" lon="6.45297">
        <ele>1349</ele>
        <time>2022-07-28T13:06:34Z</time>
      </trkpt>
      <trkpt lat="45.69976" lon="6.45298">
        <ele>1349</ele>
        <time>2022-07-28T13:06:35Z</time>
      </trkpt>
      <trkpt lat="45.69977" lon="6.45299">
        <ele>1349</ele>
        <time>2022-07-28T13:06:36Z</time>
      </trkpt>
      <trkpt lat="45.69978" lon="6.453">
        <ele>1348</ele>
        <time>2022-07-28T13:06:37Z</time>
      </trkpt>
      <trkpt lat="45.69979" lon="6.45301">
        <ele>1348</ele>
        <time>2022-07-28T13:06:38Z</time>
      </trkpt>
      <trkpt lat="45.6998" lon="6.45302">
        <ele>1348</ele>
        <time>2022-07-28T13:06:39Z</time>
      </trkpt>
      <trkpt lat="45.69981" lon="6.45302">
        <ele>1348</ele>
        <time>2022-07-28T13:06:40Z</time>
      </trkpt>
      <trkpt lat="45.69982" lon="6.45303">
        <ele>1348</ele>
        <time>2022-07-28T13:06:41Z</time>
      </trkpt>
      <trkpt lat="45.69983" lon="6.45304">
        <ele>1347</ele>
        <time>2022-07-28T13:06:42Z</time>
      </trkpt>
      <trkpt lat="45.69984" lon="6.45305">
        <ele>1347</ele>
        <time>2022-07-28T13:06:43Z</time>
      </trkpt>
      <trkpt lat="45.69985" lon="6.45305">
        <ele>1347</ele>
        <time>2022-07-28T13:06:44Z</time>
      </trkpt>
      <trkpt lat="45.69986" lon="6.45306">
        <ele>1347</ele>
        <time>2022-07-28T13:06:45Z</time>
      </trkpt>
      <trkpt lat="45.69987" lon="6.45307">
        <ele>1347</ele>
        <time>2022-07-28T13:06:46Z</time>
      </trkpt>
      <trkpt lat="45.69988" lon="6.45308">
        <ele>1346</ele>
        <time>2022-07-28T13:06:47Z</time>
      </trkpt>
      <trkpt lat="45.69989" lon="6.45308">
        <ele>1346</ele>
        <time>2022-07-28T13:06:48Z</time>
      </trkpt>
      <trkpt lat="45.6999" lon="6.45308">
        <ele>1345</ele>
        <time>2022-07-28T13:06:49Z</time>
      </trkpt>
      <trkpt lat="45.69991" lon="6.45308">
        <ele>1345</ele>
        <time>2022-07-28T13:06:50Z</time>
      </trkpt>
      <trkpt lat="45.69991" lon="6.45309">
        <ele>1345</ele>
        <time>2022-07-28T13:06:51Z</time>
      </trkpt>
      <trkpt lat="45.69992" lon="6.45309">
        <ele>1344</ele>
        <time>2022-07-28T13:06:52Z</time>
      </trkpt>
      <trkpt lat="45.69993" lon="6.45309">
        <ele>1344</ele>
        <time>2022-07-28T13:06:53Z</time>
      </trkpt>
      <trkpt lat="45.69994" lon="6.45309">
        <ele>1344</ele>
        <time>2022-07-28T13:06:54Z</time>
      </trkpt>
      <trkpt lat="45.69995" lon="6.4531">
        <ele>1344</ele>
        <time>2022-07-28T13:06:55Z</time>
      </trkpt>
      <trkpt lat="45.69996" lon="6.4531">
        <ele>1344</ele>
        <time>2022-07-28T13:06:56Z</time>
      </trkpt>
      <trkpt lat="45.69997" lon="6.4531">
        <ele>1343</ele>
        <time>2022-07-28T13:06:57Z</time>
      </trkpt>
      <trkpt lat="45.69998" lon="6.4531">
        <ele>1343</ele>
        <time>2022-07-28T13:06:58Z</time>
      </trkpt>
      <trkpt lat="45.69999" lon="6.4531">
        <ele>1342</ele>
        <time>2022-07-28T13:06:59Z</time>
      </trkpt>
      <trkpt lat="45.7" lon="6.4531">
        <ele>1342</ele>
        <time>2022-07-28T13:07:00Z</time>
      </trkpt>
      <trkpt lat="45.70002" lon="6.4531">
        <ele>1342</ele>
        <time>2022-07-28T13:07:01Z</time>
      </trkpt>
      <trkpt lat="45.70003" lon="6.4531">
        <ele>1341</ele>
        <time>2022-07-28T13:07:02Z</time>
      </trkpt>
      <trkpt lat="45.70004" lon="6.4531">
        <ele>1341</ele>
        <time>2022-07-28T13:07:03Z</time>
      </trkpt>
      <trkpt lat="45.70005" lon="6.4531">
        <ele>1341</ele>
        <time>2022-07-28T13:07:04Z</time>
      </trkpt>
      <trkpt lat="45.70006" lon="6.4531">
        <ele>1341</ele>
        <time>2022-07-28T13:07:05Z</time>
      </trkpt>
      <trkpt lat="45.70007" lon="6.4531">
        <ele>1341</ele>
        <time>2022-07-28T13:07:06Z</time>
      </trkpt>
      <trkpt lat="45.70008" lon="6.45311">
        <ele>1340</ele>
        <time>2022-07-28T13:07:07Z</time>
      </trkpt>
      <trkpt lat="45.70009" lon="6.45311">
        <ele>1340</ele>
        <time>2022-07-28T13:07:08Z</time>
      </trkpt>
      <trkpt lat="45.7001" lon="6.45311">
        <ele>1339</ele>
        <time>2022-07-28T13:07:09Z</time>
      </trkpt>
      <trkpt lat="45.7001" lon="6.45311">
        <ele>1339</ele>
        <time>2022-07-28T13:07:10Z</time>
      </trkpt>
      <trkpt lat="45.70011" lon="6.45311">
        <ele>1339</ele>
        <time>2022-07-28T13:07:11Z</time>
      </trkpt>
      <trkpt lat="45.70012" lon="6.45312">
        <ele>1338</ele>
        <time>2022-07-28T13:07:12Z</time>
      </trkpt>
      <trkpt lat="45.70013" lon="6.45312">
        <ele>1338</ele>
        <time>2022-07-28T13:07:13Z</time>
      </trkpt>
      <trkpt lat="45.70014" lon="6.45312">
        <ele>1338</ele>
        <time>2022-07-28T13:07:14Z</time>
      </trkpt>
      <trkpt lat="45.70014" lon="6.45312">
        <ele>1338</ele>
        <time>2022-07-28T13:07:15Z</time>
      </trkpt>
      <trkpt lat="45.70015" lon="6.45312">
        <ele>1338</ele>
        <time>2022-07-28T13:07:16Z</time>
      </trkpt>
      <trkpt lat="45.70016" lon="6.45312">
        <ele>1337</ele>
        <time>2022-07-28T13:07:17Z</time>
      </trkpt>
      <trkpt lat="45.70017" lon="6.45312">
        <ele>1337</ele>
        <time>2022-07-28T13:07:18Z</time>
      </trkpt>
      <trkpt lat="45.70018" lon="6.45312">
        <ele>1337</ele>
        <time>2022-07-28T13:07:19Z</time>
      </trkpt>
      <trkpt lat="45.70018" lon="6.45313">
        <ele>1337</ele>
        <time>2022-07-28T13:07:20Z</time>
      </trkpt>
      <trkpt lat="45.70019" lon="6.45313">
        <ele>1337</ele>
        <time>2022-07-28T13:07:21Z</time>
      </trkpt>
      <trkpt lat="45.7002" lon="6.45313">
        <ele>1336</ele>
        <time>2022-07-28T13:07:22Z</time>
      </trkpt>
      <trkpt lat="45.70021" lon="6.45313">
        <ele>1336</ele>
        <time>2022-07-28T13:07:23Z</time>
      </trkpt>
      <trkpt lat="45.70022" lon="6.45313">
        <ele>1335</ele>
        <time>2022-07-28T13:07:24Z</time>
      </trkpt>
      <trkpt lat="45.70023" lon="6.45314">
        <ele>1335</ele>
        <time>2022-07-28T13:07:25Z</time>
      </trkpt>
      <trkpt lat="45.70024" lon="6.45314">
        <ele>1335</ele>
        <time>2022-07-28T13:07:26Z</time>
      </trkpt>
      <trkpt lat="45.70024" lon="6.45314">
        <ele>1334</ele>
        <time>2022-07-28T13:07:27Z</time>
      </trkpt>
      <trkpt lat="45.70025" lon="6.45314">
        <ele>1334</ele>
        <time>2022-07-28T13:07:28Z</time>
      </trkpt>
      <trkpt lat="45.70026" lon="6.45314">
        <ele>1334</ele>
        <time>2022-07-28T13:07:29Z</time>
      </trkpt>
      <trkpt lat="45.70027" lon="6.45314">
        <ele>1334</ele>
        <time>2022-07-28T13:07:30Z</time>
      </trkpt>
      <trkpt lat="45.70028" lon="6.45314">
        <ele>1334</ele>
        <time>2022-07-28T13:07:31Z</time>
      </trkpt>
      <trkpt lat="45.70029" lon="6.45313">
        <ele>1333</ele>
        <time>2022-07-28T13:07:32Z</time>
      </trkpt>
      <trkpt lat="45.70029" lon="6.45313">
        <ele>1333</ele>
        <time>2022-07-28T13:07:33Z</time>
      </trkpt>
      <trkpt lat="45.7003" lon="6.45313">
        <ele>1333</ele>
        <time>2022-07-28T13:07:34Z</time>
      </trkpt>
      <trkpt lat="45.70031" lon="6.45313">
        <ele>1333</ele>
        <time>2022-07-28T13:07:35Z</time>
      </trkpt>
      <trkpt lat="45.70032" lon="6.45313">
        <ele>1333</ele>
        <time>2022-07-28T13:07:36Z</time>
      </trkpt>
      <trkpt lat="45.70033" lon="6.45313">
        <ele>1332</ele>
        <time>2022-07-28T13:07:37Z</time>
      </trkpt>
      <trkpt lat="45.70034" lon="6.45314">
        <ele>1332</ele>
        <time>2022-07-28T13:07:38Z</time>
      </trkpt>
      <trkpt lat="45.70035" lon="6.45314">
        <ele>1331</ele>
        <time>2022-07-28T13:07:39Z</time>
      </trkpt>
      <trkpt lat="45.70037" lon="6.45315">
        <ele>1331</ele>
        <time>2022-07-28T13:07:40Z</time>
      </trkpt>
      <trkpt lat="45.70038" lon="6.45315">
        <ele>1331</ele>
        <time>2022-07-28T13:07:41Z</time>
      </trkpt>
      <trkpt lat="45.70039" lon="6.45316">
        <ele>1330</ele>
        <time>2022-07-28T13:07:42Z</time>
      </trkpt>
      <trkpt lat="45.7004" lon="6.45316">
        <ele>1330</ele>
        <time>2022-07-28T13:07:43Z</time>
      </trkpt>
      <trkpt lat="45.70041" lon="6.45317">
        <ele>1330</ele>
        <time>2022-07-28T13:07:44Z</time>
      </trkpt>
      <trkpt lat="45.70042" lon="6.45317">
        <ele>1330</ele>
        <time>2022-07-28T13:07:45Z</time>
      </trkpt>
      <trkpt lat="45.70043" lon="6.45318">
        <ele>1330</ele>
        <time>2022-07-28T13:07:46Z</time>
      </trkpt>
      <trkpt lat="45.70044" lon="6.45318">
        <ele>1329</ele>
        <time>2022-07-28T13:07:47Z</time>
      </trkpt>
      <trkpt lat="45.70045" lon="6.45318">
        <ele>1329</ele>
        <time>2022-07-28T13:07:48Z</time>
      </trkpt>
      <trkpt lat="45.70046" lon="6.45318">
        <ele>1329</ele>
        <time>2022-07-28T13:07:49Z</time>
      </trkpt>
      <trkpt lat="45.70048" lon="6.45318">
        <ele>1329</ele>
        <time>2022-07-28T13:07:50Z</time>
      </trkpt>
      <trkpt lat="45.70049" lon="6.45318">
        <ele>1329</ele>
        <time>2022-07-28T13:07:51Z</time>
      </trkpt>
      <trkpt lat="45.7005" lon="6.45318">
        <ele>1328</ele>
        <time>2022-07-28T13:07:52Z</time>
      </trkpt>
      <trkpt lat="45.70051" lon="6.45318">
        <ele>1328</ele>
        <time>2022-07-28T13:07:53Z</time>
      </trkpt>
      <trkpt lat="45.70052" lon="6.45318">
        <ele>1328</ele>
        <time>2022-07-28T13:07:54Z</time>
      </trkpt>
      <trkpt lat="45.70053" lon="6.45318">
        <ele>1328</ele>
        <time>2022-07-28T13:07:55Z</time>
      </trkpt>
      <trkpt lat="45.70054" lon="6.45318">
        <ele>1328</ele>
        <time>2022-07-28T13:07:56Z</time>
      </trkpt>
      <trkpt lat="45.70056" lon="6.45317">
        <ele>1327</ele>
        <time>2022-07-28T13:07:57Z</time>
      </trkpt>
      <trkpt lat="45.70057" lon="6.45317">
        <ele>1327</ele>
        <time>2022-07-28T13:07:58Z</time>
      </trkpt>
      <trkpt lat="45.70058" lon="6.45317">
        <ele>1327</ele>
        <time>2022-07-28T13:07:59Z</time>
      </trkpt>
      <trkpt lat="45.70059" lon="6.45316">
        <ele>1327</ele>
        <time>2022-07-28T13:08:00Z</time>
      </trkpt>
      <trkpt lat="45.7006" lon="6.45316">
        <ele>1327</ele>
        <time>2022-07-28T13:08:01Z</time>
      </trkpt>
      <trkpt lat="45.70061" lon="6.45316">
        <ele>1326</ele>
        <time>2022-07-28T13:08:02Z</time>
      </trkpt>
      <trkpt lat="45.70062" lon="6.45316">
        <ele>1326</ele>
        <time>2022-07-28T13:08:03Z</time>
      </trkpt>
      <trkpt lat="45.70063" lon="6.45317">
        <ele>1326</ele>
        <time>2022-07-28T13:08:04Z</time>
      </trkpt>
      <trkpt lat="45.70064" lon="6.45317">
        <ele>1326</ele>
        <time>2022-07-28T13:08:05Z</time>
      </trkpt>
      <trkpt lat="45.70065" lon="6.45317">
        <ele>1326</ele>
        <time>2022-07-28T13:08:06Z</time>
      </trkpt>
      <trkpt lat="45.70067" lon="6.45317">
        <ele>1326</ele>
        <time>2022-07-28T13:08:07Z</time>
      </trkpt>
      <trkpt lat="45.70068" lon="6.45318">
        <ele>1326</ele>
        <time>2022-07-28T13:08:08Z</time>
      </trkpt>
      <trkpt lat="45.70069" lon="6.45318">
        <ele>1326</ele>
        <time>2022-07-28T13:08:09Z</time>
      </trkpt>
      <trkpt lat="45.7007" lon="6.45319">
        <ele>1326</ele>
        <time>2022-07-28T13:08:10Z</time>
      </trkpt>
      <trkpt lat="45.70071" lon="6.45319">
        <ele>1326</ele>
        <time>2022-07-28T13:08:11Z</time>
      </trkpt>
      <trkpt lat="45.70072" lon="6.45319">
        <ele>1325</ele>
        <time>2022-07-28T13:08:12Z</time>
      </trkpt>
      <trkpt lat="45.70073" lon="6.4532">
        <ele>1325</ele>
        <time>2022-07-28T13:08:13Z</time>
      </trkpt>
      <trkpt lat="45.70074" lon="6.4532">
        <ele>1325</ele>
        <time>2022-07-28T13:08:14Z</time>
      </trkpt>
      <trkpt lat="45.70075" lon="6.4532">
        <ele>1325</ele>
        <time>2022-07-28T13:08:15Z</time>
      </trkpt>
      <trkpt lat="45.70076" lon="6.45319">
        <ele>1325</ele>
        <time>2022-07-28T13:08:16Z</time>
      </trkpt>
      <trkpt lat="45.70077" lon="6.45319">
        <ele>1324</ele>
        <time>2022-07-28T13:08:17Z</time>
      </trkpt>
      <trkpt lat="45.70078" lon="6.45319">
        <ele>1324</ele>
        <time>2022-07-28T13:08:18Z</time>
      </trkpt>
      <trkpt lat="45.70079" lon="6.45319">
        <ele>1324</ele>
        <time>2022-07-28T13:08:19Z</time>
      </trkpt>
      <trkpt lat="45.7008" lon="6.45319">
        <ele>1324</ele>
        <time>2022-07-28T13:08:20Z</time>
      </trkpt>
      <trkpt lat="45.70081" lon="6.45319">
        <ele>1324</ele>
        <time>2022-07-28T13:08:21Z</time>
      </trkpt>
      <trkpt lat="45.70082" lon="6.4532">
        <ele>1323</ele>
        <time>2022-07-28T13:08:22Z</time>
      </trkpt>
      <trkpt lat="45.70083" lon="6.4532">
        <ele>1323</ele>
        <time>2022-07-28T13:08:23Z</time>
      </trkpt>
      <trkpt lat="45.70083" lon="6.4532">
        <ele>1322</ele>
        <time>2022-07-28T13:08:24Z</time>
      </trkpt>
      <trkpt lat="45.70084" lon="6.4532">
        <ele>1322</ele>
        <time>2022-07-28T13:08:25Z</time>
      </trkpt>
      <trkpt lat="45.70085" lon="6.45321">
        <ele>1322</ele>
        <time>2022-07-28T13:08:26Z</time>
      </trkpt>
      <trkpt lat="45.70086" lon="6.45321">
        <ele>1321</ele>
        <time>2022-07-28T13:08:27Z</time>
      </trkpt>
      <trkpt lat="45.70087" lon="6.45321">
        <ele>1321</ele>
        <time>2022-07-28T13:08:28Z</time>
      </trkpt>
      <trkpt lat="45.70088" lon="6.45321">
        <ele>1321</ele>
        <time>2022-07-28T13:08:29Z</time>
      </trkpt>
      <trkpt lat="45.70088" lon="6.45321">
        <ele>1321</ele>
        <time>2022-07-28T13:08:30Z</time>
      </trkpt>
      <trkpt lat="45.70089" lon="6.45321">
        <ele>1321</ele>
        <time>2022-07-28T13:08:31Z</time>
      </trkpt>
      <trkpt lat="45.7009" lon="6.45321">
        <ele>1320</ele>
        <time>2022-07-28T13:08:32Z</time>
      </trkpt>
      <trkpt lat="45.70091" lon="6.45321">
        <ele>1320</ele>
        <time>2022-07-28T13:08:33Z</time>
      </trkpt>
      <trkpt lat="45.70092" lon="6.45322">
        <ele>1320</ele>
        <time>2022-07-28T13:08:34Z</time>
      </trkpt>
      <trkpt lat="45.70093" lon="6.45322">
        <ele>1320</ele>
        <time>2022-07-28T13:08:35Z</time>
      </trkpt>
      <trkpt lat="45.70094" lon="6.45322">
        <ele>1320</ele>
        <time>2022-07-28T13:08:36Z</time>
      </trkpt>
      <trkpt lat="45.70095" lon="6.45322">
        <ele>1319</ele>
        <time>2022-07-28T13:08:37Z</time>
      </trkpt>
      <trkpt lat="45.70096" lon="6.45322">
        <ele>1319</ele>
        <time>2022-07-28T13:08:38Z</time>
      </trkpt>
      <trkpt lat="45.70097" lon="6.45322">
        <ele>1319</ele>
        <time>2022-07-28T13:08:39Z</time>
      </trkpt>
      <trkpt lat="45.70098" lon="6.45323">
        <ele>1319</ele>
        <time>2022-07-28T13:08:40Z</time>
      </trkpt>
      <trkpt lat="45.70099" lon="6.45323">
        <ele>1319</ele>
        <time>2022-07-28T13:08:41Z</time>
      </trkpt>
      <trkpt lat="45.701" lon="6.45323">
        <ele>1318</ele>
        <time>2022-07-28T13:08:42Z</time>
      </trkpt>
      <trkpt lat="45.70101" lon="6.45323">
        <ele>1318</ele>
        <time>2022-07-28T13:08:43Z</time>
      </trkpt>
      <trkpt lat="45.70102" lon="6.45323">
        <ele>1318</ele>
        <time>2022-07-28T13:08:44Z</time>
      </trkpt>
      <trkpt lat="45.70103" lon="6.45323">
        <ele>1318</ele>
        <time>2022-07-28T13:08:45Z</time>
      </trkpt>
      <trkpt lat="45.70104" lon="6.45323">
        <ele>1318</ele>
        <time>2022-07-28T13:08:46Z</time>
      </trkpt>
      <trkpt lat="45.70105" lon="6.45323">
        <ele>1317</ele>
        <time>2022-07-28T13:08:47Z</time>
      </trkpt>
      <trkpt lat="45.70106" lon="6.45323">
        <ele>1317</ele>
        <time>2022-07-28T13:08:48Z</time>
      </trkpt>
      <trkpt lat="45.70107" lon="6.45323">
        <ele>1316</ele>
        <time>2022-07-28T13:08:49Z</time>
      </trkpt>
      <trkpt lat="45.70108" lon="6.45324">
        <ele>1316</ele>
        <time>2022-07-28T13:08:50Z</time>
      </trkpt>
      <trkpt lat="45.70109" lon="6.45324">
        <ele>1316</ele>
        <time>2022-07-28T13:08:51Z</time>
      </trkpt>
      <trkpt lat="45.7011" lon="6.45324">
        <ele>1315</ele>
        <time>2022-07-28T13:08:52Z</time>
      </trkpt>
      <trkpt lat="45.70111" lon="6.45324">
        <ele>1315</ele>
        <time>2022-07-28T13:08:53Z</time>
      </trkpt>
      <trkpt lat="45.70112" lon="6.45324">
        <ele>1314</ele>
        <time>2022-07-28T13:08:54Z</time>
      </trkpt>
      <trkpt lat="45.70113" lon="6.45324">
        <ele>1314</ele>
        <time>2022-07-28T13:08:55Z</time>
      </trkpt>
      <trkpt lat="45.70114" lon="6.45324">
        <ele>1314</ele>
        <time>2022-07-28T13:08:56Z</time>
      </trkpt>
      <trkpt lat="45.70115" lon="6.45325">
        <ele>1313</ele>
        <time>2022-07-28T13:08:57Z</time>
      </trkpt>
      <trkpt lat="45.70116" lon="6.45324">
        <ele>1313</ele>
        <time>2022-07-28T13:08:58Z</time>
      </trkpt>
      <trkpt lat="45.70117" lon="6.45324">
        <ele>1312</ele>
        <time>2022-07-28T13:08:59Z</time>
      </trkpt>
      <trkpt lat="45.70118" lon="6.45324">
        <ele>1312</ele>
        <time>2022-07-28T13:09:00Z</time>
      </trkpt>
      <trkpt lat="45.70119" lon="6.45323">
        <ele>1312</ele>
        <time>2022-07-28T13:09:01Z</time>
      </trkpt>
      <trkpt lat="45.7012" lon="6.45323">
        <ele>1311</ele>
        <time>2022-07-28T13:09:02Z</time>
      </trkpt>
      <trkpt lat="45.70121" lon="6.45323">
        <ele>1311</ele>
        <time>2022-07-28T13:09:03Z</time>
      </trkpt>
      <trkpt lat="45.70122" lon="6.45322">
        <ele>1311</ele>
        <time>2022-07-28T13:09:04Z</time>
      </trkpt>
      <trkpt lat="45.70123" lon="6.45322">
        <ele>1311</ele>
        <time>2022-07-28T13:09:05Z</time>
      </trkpt>
      <trkpt lat="45.70124" lon="6.45321">
        <ele>1311</ele>
        <time>2022-07-28T13:09:06Z</time>
      </trkpt>
      <trkpt lat="45.70125" lon="6.4532">
        <ele>1310</ele>
        <time>2022-07-28T13:09:07Z</time>
      </trkpt>
      <trkpt lat="45.70126" lon="6.4532">
        <ele>1310</ele>
        <time>2022-07-28T13:09:08Z</time>
      </trkpt>
      <trkpt lat="45.70127" lon="6.45319">
        <ele>1309</ele>
        <time>2022-07-28T13:09:09Z</time>
      </trkpt>
      <trkpt lat="45.70128" lon="6.45319">
        <ele>1309</ele>
        <time>2022-07-28T13:09:10Z</time>
      </trkpt>
      <trkpt lat="45.70129" lon="6.45319">
        <ele>1309</ele>
        <time>2022-07-28T13:09:11Z</time>
      </trkpt>
      <trkpt lat="45.7013" lon="6.45319">
        <ele>1308</ele>
        <time>2022-07-28T13:09:12Z</time>
      </trkpt>
      <trkpt lat="45.70131" lon="6.45319">
        <ele>1308</ele>
        <time>2022-07-28T13:09:13Z</time>
      </trkpt>
      <trkpt lat="45.70132" lon="6.45319">
        <ele>1308</ele>
        <time>2022-07-28T13:09:14Z</time>
      </trkpt>
      <trkpt lat="45.70133" lon="6.45319">
        <ele>1308</ele>
        <time>2022-07-28T13:09:15Z</time>
      </trkpt>
      <trkpt lat="45.70133" lon="6.45319">
        <ele>1308</ele>
        <time>2022-07-28T13:09:16Z</time>
      </trkpt>
      <trkpt lat="45.70134" lon="6.45319">
        <ele>1307</ele>
        <time>2022-07-28T13:09:17Z</time>
      </trkpt>
      <trkpt lat="45.70135" lon="6.45319">
        <ele>1307</ele>
        <time>2022-07-28T13:09:18Z</time>
      </trkpt>
      <trkpt lat="45.70136" lon="6.4532">
        <ele>1307</ele>
        <time>2022-07-28T13:09:19Z</time>
      </trkpt>
      <trkpt lat="45.70136" lon="6.4532">
        <ele>1307</ele>
        <time>2022-07-28T13:09:20Z</time>
      </trkpt>
      <trkpt lat="45.70136" lon="6.45321">
        <ele>1307</ele>
        <time>2022-07-28T13:09:21Z</time>
      </trkpt>
      <trkpt lat="45.70137" lon="6.45321">
        <ele>1306</ele>
        <time>2022-07-28T13:09:22Z</time>
      </trkpt>
      <trkpt lat="45.70137" lon="6.45322">
        <ele>1306</ele>
        <time>2022-07-28T13:09:23Z</time>
      </trkpt>
      <trkpt lat="45.70138" lon="6.45323">
        <ele>1306</ele>
        <time>2022-07-28T13:09:24Z</time>
      </trkpt>
      <trkpt lat="45.70139" lon="6.45323">
        <ele>1306</ele>
        <time>2022-07-28T13:09:25Z</time>
      </trkpt>
      <trkpt lat="45.7014" lon="6.45324">
        <ele>1306</ele>
        <time>2022-07-28T13:09:26Z</time>
      </trkpt>
      <trkpt lat="45.70141" lon="6.45324">
        <ele>1305</ele>
        <time>2022-07-28T13:09:27Z</time>
      </trkpt>
      <trkpt lat="45.70142" lon="6.45324">
        <ele>1305</ele>
        <time>2022-07-28T13:09:28Z</time>
      </trkpt>
      <trkpt lat="45.70143" lon="6.45324">
        <ele>1305</ele>
        <time>2022-07-28T13:09:29Z</time>
      </trkpt>
      <trkpt lat="45.70144" lon="6.45324">
        <ele>1305</ele>
        <time>2022-07-28T13:09:30Z</time>
      </trkpt>
      <trkpt lat="45.70145" lon="6.45324">
        <ele>1305</ele>
        <time>2022-07-28T13:09:31Z</time>
      </trkpt>
      <trkpt lat="45.70146" lon="6.45324">
        <ele>1304</ele>
        <time>2022-07-28T13:09:32Z</time>
      </trkpt>
      <trkpt lat="45.70147" lon="6.45324">
        <ele>1304</ele>
        <time>2022-07-28T13:09:33Z</time>
      </trkpt>
      <trkpt lat="45.70148" lon="6.45324">
        <ele>1303</ele>
        <time>2022-07-28T13:09:34Z</time>
      </trkpt>
      <trkpt lat="45.70149" lon="6.45324">
        <ele>1303</ele>
        <time>2022-07-28T13:09:35Z</time>
      </trkpt>
      <trkpt lat="45.70149" lon="6.45324">
        <ele>1303</ele>
        <time>2022-07-28T13:09:36Z</time>
      </trkpt>
      <trkpt lat="45.7015" lon="6.45324">
        <ele>1302</ele>
        <time>2022-07-28T13:09:37Z</time>
      </trkpt>
      <trkpt lat="45.70151" lon="6.45324">
        <ele>1302</ele>
        <time>2022-07-28T13:09:38Z</time>
      </trkpt>
      <trkpt lat="45.70152" lon="6.45324">
        <ele>1302</ele>
        <time>2022-07-28T13:09:39Z</time>
      </trkpt>
      <trkpt lat="45.70153" lon="6.45324">
        <ele>1302</ele>
        <time>2022-07-28T13:09:40Z</time>
      </trkpt>
      <trkpt lat="45.70153" lon="6.45324">
        <ele>1302</ele>
        <time>2022-07-28T13:09:41Z</time>
      </trkpt>
      <trkpt lat="45.70154" lon="6.45324">
        <ele>1301</ele>
        <time>2022-07-28T13:09:42Z</time>
      </trkpt>
      <trkpt lat="45.70155" lon="6.45324">
        <ele>1301</ele>
        <time>2022-07-28T13:09:43Z</time>
      </trkpt>
      <trkpt lat="45.70155" lon="6.45324">
        <ele>1300</ele>
        <time>2022-07-28T13:09:44Z</time>
      </trkpt>
      <trkpt lat="45.70156" lon="6.45324">
        <ele>1300</ele>
        <time>2022-07-28T13:09:45Z</time>
      </trkpt>
      <trkpt lat="45.70157" lon="6.45325">
        <ele>1300</ele>
        <time>2022-07-28T13:09:46Z</time>
      </trkpt>
      <trkpt lat="45.70158" lon="6.45325">
        <ele>1299</ele>
        <time>2022-07-28T13:09:47Z</time>
      </trkpt>
      <trkpt lat="45.70159" lon="6.45326">
        <ele>1299</ele>
        <time>2022-07-28T13:09:48Z</time>
      </trkpt>
      <trkpt lat="45.7016" lon="6.45326">
        <ele>1299</ele>
        <time>2022-07-28T13:09:49Z</time>
      </trkpt>
      <trkpt lat="45.70161" lon="6.45327">
        <ele>1299</ele>
        <time>2022-07-28T13:09:50Z</time>
      </trkpt>
      <trkpt lat="45.70163" lon="6.45327">
        <ele>1299</ele>
        <time>2022-07-28T13:09:51Z</time>
      </trkpt>
      <trkpt lat="45.70164" lon="6.45328">
        <ele>1298</ele>
        <time>2022-07-28T13:09:52Z</time>
      </trkpt>
      <trkpt lat="45.70165" lon="6.45328">
        <ele>1298</ele>
        <time>2022-07-28T13:09:53Z</time>
      </trkpt>
      <trkpt lat="45.70166" lon="6.45329">
        <ele>1297</ele>
        <time>2022-07-28T13:09:54Z</time>
      </trkpt>
      <trkpt lat="45.70167" lon="6.4533">
        <ele>1297</ele>
        <time>2022-07-28T13:09:55Z</time>
      </trkpt>
      <trkpt lat="45.70168" lon="6.45331">
        <ele>1297</ele>
        <time>2022-07-28T13:09:56Z</time>
      </trkpt>
      <trkpt lat="45.7017" lon="6.45331">
        <ele>1296</ele>
        <time>2022-07-28T13:09:57Z</time>
      </trkpt>
      <trkpt lat="45.70171" lon="6.45332">
        <ele>1295</ele>
        <time>2022-07-28T13:09:58Z</time>
      </trkpt>
      <trkpt lat="45.70172" lon="6.45333">
        <ele>1295</ele>
        <time>2022-07-28T13:09:59Z</time>
      </trkpt>
      <trkpt lat="45.70173" lon="6.45334">
        <ele>1294</ele>
        <time>2022-07-28T13:10:00Z</time>
      </trkpt>
      <trkpt lat="45.70174" lon="6.45335">
        <ele>1294</ele>
        <time>2022-07-28T13:10:01Z</time>
      </trkpt>
      <trkpt lat="45.70176" lon="6.45336">
        <ele>1293</ele>
        <time>2022-07-28T13:10:02Z</time>
      </trkpt>
      <trkpt lat="45.70177" lon="6.45336">
        <ele>1293</ele>
        <time>2022-07-28T13:10:03Z</time>
      </trkpt>
      <trkpt lat="45.70178" lon="6.45337">
        <ele>1293</ele>
        <time>2022-07-28T13:10:04Z</time>
      </trkpt>
      <trkpt lat="45.70178" lon="6.45338">
        <ele>1293</ele>
        <time>2022-07-28T13:10:05Z</time>
      </trkpt>
      <trkpt lat="45.70179" lon="6.45339">
        <ele>1293</ele>
        <time>2022-07-28T13:10:06Z</time>
      </trkpt>
      <trkpt lat="45.7018" lon="6.4534">
        <ele>1292</ele>
        <time>2022-07-28T13:10:07Z</time>
      </trkpt>
      <trkpt lat="45.70181" lon="6.45341">
        <ele>1292</ele>
        <time>2022-07-28T13:10:08Z</time>
      </trkpt>
      <trkpt lat="45.70182" lon="6.45342">
        <ele>1291</ele>
        <time>2022-07-28T13:10:09Z</time>
      </trkpt>
      <trkpt lat="45.70183" lon="6.45343">
        <ele>1291</ele>
        <time>2022-07-28T13:10:10Z</time>
      </trkpt>
      <trkpt lat="45.70184" lon="6.45344">
        <ele>1291</ele>
        <time>2022-07-28T13:10:11Z</time>
      </trkpt>
      <trkpt lat="45.70185" lon="6.45345">
        <ele>1290</ele>
        <time>2022-07-28T13:10:12Z</time>
      </trkpt>
      <trkpt lat="45.70186" lon="6.45346">
        <ele>1290</ele>
        <time>2022-07-28T13:10:13Z</time>
      </trkpt>
      <trkpt lat="45.70187" lon="6.45347">
        <ele>1290</ele>
        <time>2022-07-28T13:10:14Z</time>
      </trkpt>
      <trkpt lat="45.70188" lon="6.45349">
        <ele>1290</ele>
        <time>2022-07-28T13:10:15Z</time>
      </trkpt>
      <trkpt lat="45.70189" lon="6.4535">
        <ele>1290</ele>
        <time>2022-07-28T13:10:16Z</time>
      </trkpt>
      <trkpt lat="45.7019" lon="6.45351">
        <ele>1289</ele>
        <time>2022-07-28T13:10:17Z</time>
      </trkpt>
      <trkpt lat="45.70191" lon="6.45352">
        <ele>1289</ele>
        <time>2022-07-28T13:10:18Z</time>
      </trkpt>
      <trkpt lat="45.70192" lon="6.45353">
        <ele>1288</ele>
        <time>2022-07-28T13:10:19Z</time>
      </trkpt>
      <trkpt lat="45.70193" lon="6.45354">
        <ele>1288</ele>
        <time>2022-07-28T13:10:20Z</time>
      </trkpt>
      <trkpt lat="45.70194" lon="6.45356">
        <ele>1288</ele>
        <time>2022-07-28T13:10:21Z</time>
      </trkpt>
      <trkpt lat="45.70194" lon="6.45357">
        <ele>1287</ele>
        <time>2022-07-28T13:10:22Z</time>
      </trkpt>
      <trkpt lat="45.70193" lon="6.45359">
        <ele>1285</ele>
        <time>2022-07-28T13:11:13Z</time>
      </trkpt>
      <trkpt lat="45.70193" lon="6.45359">
        <ele>1285</ele>
        <time>2022-07-28T13:11:14Z</time>
      </trkpt>
      <trkpt lat="45.70193" lon="6.4536">
        <ele>1285</ele>
        <time>2022-07-28T13:11:15Z</time>
      </trkpt>
      <trkpt lat="45.70193" lon="6.45361">
        <ele>1285</ele>
        <time>2022-07-28T13:11:16Z</time>
      </trkpt>
      <trkpt lat="45.70193" lon="6.45362">
        <ele>1285</ele>
        <time>2022-07-28T13:11:17Z</time>
      </trkpt>
      <trkpt lat="45.70194" lon="6.45363">
        <ele>1285</ele>
        <time>2022-07-28T13:11:18Z</time>
      </trkpt>
      <trkpt lat="45.70194" lon="6.45364">
        <ele>1285</ele>
        <time>2022-07-28T13:11:19Z</time>
      </trkpt>
      <trkpt lat="45.70195" lon="6.45365">
        <ele>1285</ele>
        <time>2022-07-28T13:11:20Z</time>
      </trkpt>
      <trkpt lat="45.70196" lon="6.45367">
        <ele>1285</ele>
        <time>2022-07-28T13:11:21Z</time>
      </trkpt>
      <trkpt lat="45.70197" lon="6.45368">
        <ele>1284</ele>
        <time>2022-07-28T13:11:22Z</time>
      </trkpt>
      <trkpt lat="45.70198" lon="6.45369">
        <ele>1284</ele>
        <time>2022-07-28T13:11:23Z</time>
      </trkpt>
      <trkpt lat="45.70198" lon="6.4537">
        <ele>1284</ele>
        <time>2022-07-28T13:11:24Z</time>
      </trkpt>
      <trkpt lat="45.70199" lon="6.45371">
        <ele>1284</ele>
        <time>2022-07-28T13:11:25Z</time>
      </trkpt>
      <trkpt lat="45.702" lon="6.45372">
        <ele>1284</ele>
        <time>2022-07-28T13:11:26Z</time>
      </trkpt>
      <trkpt lat="45.70201" lon="6.45373">
        <ele>1283</ele>
        <time>2022-07-28T13:11:27Z</time>
      </trkpt>
      <trkpt lat="45.70201" lon="6.45374">
        <ele>1283</ele>
        <time>2022-07-28T13:11:28Z</time>
      </trkpt>
      <trkpt lat="45.70202" lon="6.45374">
        <ele>1283</ele>
        <time>2022-07-28T13:11:29Z</time>
      </trkpt>
      <trkpt lat="45.70203" lon="6.45375">
        <ele>1283</ele>
        <time>2022-07-28T13:11:30Z</time>
      </trkpt>
      <trkpt lat="45.70204" lon="6.45376">
        <ele>1283</ele>
        <time>2022-07-28T13:11:31Z</time>
      </trkpt>
      <trkpt lat="45.70204" lon="6.45377">
        <ele>1282</ele>
        <time>2022-07-28T13:11:32Z</time>
      </trkpt>
      <trkpt lat="45.70205" lon="6.45378">
        <ele>1282</ele>
        <time>2022-07-28T13:11:33Z</time>
      </trkpt>
      <trkpt lat="45.70206" lon="6.45379">
        <ele>1282</ele>
        <time>2022-07-28T13:11:34Z</time>
      </trkpt>
      <trkpt lat="45.70206" lon="6.45379">
        <ele>1282</ele>
        <time>2022-07-28T13:11:35Z</time>
      </trkpt>
      <trkpt lat="45.70207" lon="6.4538">
        <ele>1282</ele>
        <time>2022-07-28T13:11:36Z</time>
      </trkpt>
      <trkpt lat="45.70208" lon="6.45381">
        <ele>1281</ele>
        <time>2022-07-28T13:11:37Z</time>
      </trkpt>
      <trkpt lat="45.70208" lon="6.45382">
        <ele>1281</ele>
        <time>2022-07-28T13:11:38Z</time>
      </trkpt>
      <trkpt lat="45.70209" lon="6.45383">
        <ele>1281</ele>
        <time>2022-07-28T13:11:39Z</time>
      </trkpt>
      <trkpt lat="45.7021" lon="6.45384">
        <ele>1281</ele>
        <time>2022-07-28T13:11:40Z</time>
      </trkpt>
      <trkpt lat="45.7021" lon="6.45384">
        <ele>1281</ele>
        <time>2022-07-28T13:11:41Z</time>
      </trkpt>
      <trkpt lat="45.7021" lon="6.45386">
        <ele>1279</ele>
        <time>2022-07-28T13:12:03Z</time>
      </trkpt>
      <trkpt lat="45.7021" lon="6.45387">
        <ele>1279</ele>
        <time>2022-07-28T13:12:04Z</time>
      </trkpt>
      <trkpt lat="45.7021" lon="6.45387">
        <ele>1279</ele>
        <time>2022-07-28T13:12:05Z</time>
      </trkpt>
      <trkpt lat="45.70211" lon="6.45388">
        <ele>1279</ele>
        <time>2022-07-28T13:12:06Z</time>
      </trkpt>
      <trkpt lat="45.70211" lon="6.45389">
        <ele>1278</ele>
        <time>2022-07-28T13:12:07Z</time>
      </trkpt>
      <trkpt lat="45.70211" lon="6.45391">
        <ele>1278</ele>
        <time>2022-07-28T13:12:08Z</time>
      </trkpt>
      <trkpt lat="45.70212" lon="6.45392">
        <ele>1278</ele>
        <time>2022-07-28T13:12:09Z</time>
      </trkpt>
      <trkpt lat="45.70212" lon="6.45393">
        <ele>1278</ele>
        <time>2022-07-28T13:12:10Z</time>
      </trkpt>
      <trkpt lat="45.70213" lon="6.45394">
        <ele>1278</ele>
        <time>2022-07-28T13:12:11Z</time>
      </trkpt>
      <trkpt lat="45.70214" lon="6.45395">
        <ele>1277</ele>
        <time>2022-07-28T13:12:12Z</time>
      </trkpt>
      <trkpt lat="45.70214" lon="6.45395">
        <ele>1277</ele>
        <time>2022-07-28T13:12:13Z</time>
      </trkpt>
      <trkpt lat="45.70215" lon="6.45396">
        <ele>1277</ele>
        <time>2022-07-28T13:12:14Z</time>
      </trkpt>
      <trkpt lat="45.70216" lon="6.45396">
        <ele>1277</ele>
        <time>2022-07-28T13:12:15Z</time>
      </trkpt>
      <trkpt lat="45.70217" lon="6.45396">
        <ele>1277</ele>
        <time>2022-07-28T13:12:16Z</time>
      </trkpt>
      <trkpt lat="45.70217" lon="6.45396">
        <ele>1276</ele>
        <time>2022-07-28T13:12:17Z</time>
      </trkpt>
      <trkpt lat="45.70218" lon="6.45396">
        <ele>1276</ele>
        <time>2022-07-28T13:12:18Z</time>
      </trkpt>
      <trkpt lat="45.70219" lon="6.45396">
        <ele>1276</ele>
        <time>2022-07-28T13:12:19Z</time>
      </trkpt>
      <trkpt lat="45.70219" lon="6.45396">
        <ele>1276</ele>
        <time>2022-07-28T13:12:20Z</time>
      </trkpt>
      <trkpt lat="45.7022" lon="6.45396">
        <ele>1276</ele>
        <time>2022-07-28T13:12:21Z</time>
      </trkpt>
      <trkpt lat="45.7022" lon="6.45396">
        <ele>1275</ele>
        <time>2022-07-28T13:12:22Z</time>
      </trkpt>
      <trkpt lat="45.70221" lon="6.45396">
        <ele>1275</ele>
        <time>2022-07-28T13:12:23Z</time>
      </trkpt>
      <trkpt lat="45.70221" lon="6.45396">
        <ele>1275</ele>
        <time>2022-07-28T13:12:24Z</time>
      </trkpt>
      <trkpt lat="45.70222" lon="6.45395">
        <ele>1275</ele>
        <time>2022-07-28T13:12:25Z</time>
      </trkpt>
      <trkpt lat="45.70222" lon="6.45395">
        <ele>1275</ele>
        <time>2022-07-28T13:12:26Z</time>
      </trkpt>
      <trkpt lat="45.70223" lon="6.45394">
        <ele>1274</ele>
        <time>2022-07-28T13:12:27Z</time>
      </trkpt>
      <trkpt lat="45.70224" lon="6.45394">
        <ele>1274</ele>
        <time>2022-07-28T13:12:28Z</time>
      </trkpt>
      <trkpt lat="45.70224" lon="6.45393">
        <ele>1273</ele>
        <time>2022-07-28T13:12:29Z</time>
      </trkpt>
      <trkpt lat="45.70225" lon="6.45392">
        <ele>1273</ele>
        <time>2022-07-28T13:12:30Z</time>
      </trkpt>
      <trkpt lat="45.70226" lon="6.45391">
        <ele>1273</ele>
        <time>2022-07-28T13:12:31Z</time>
      </trkpt>
      <trkpt lat="45.70227" lon="6.4539">
        <ele>1272</ele>
        <time>2022-07-28T13:12:32Z</time>
      </trkpt>
      <trkpt lat="45.70228" lon="6.4539">
        <ele>1272</ele>
        <time>2022-07-28T13:12:33Z</time>
      </trkpt>
      <trkpt lat="45.70229" lon="6.45389">
        <ele>1272</ele>
        <time>2022-07-28T13:12:34Z</time>
      </trkpt>
      <trkpt lat="45.7023" lon="6.45389">
        <ele>1272</ele>
        <time>2022-07-28T13:12:35Z</time>
      </trkpt>
      <trkpt lat="45.70231" lon="6.45388">
        <ele>1272</ele>
        <time>2022-07-28T13:12:36Z</time>
      </trkpt>
      <trkpt lat="45.70232" lon="6.45388">
        <ele>1271</ele>
        <time>2022-07-28T13:12:37Z</time>
      </trkpt>
      <trkpt lat="45.70233" lon="6.45388">
        <ele>1271</ele>
        <time>2022-07-28T13:12:38Z</time>
      </trkpt>
      <trkpt lat="45.70233" lon="6.45387">
        <ele>1270</ele>
        <time>2022-07-28T13:12:39Z</time>
      </trkpt>
      <trkpt lat="45.70234" lon="6.45387">
        <ele>1270</ele>
        <time>2022-07-28T13:12:40Z</time>
      </trkpt>
      <trkpt lat="45.70235" lon="6.45386">
        <ele>1270</ele>
        <time>2022-07-28T13:12:41Z</time>
      </trkpt>
      <trkpt lat="45.70235" lon="6.45386">
        <ele>1269</ele>
        <time>2022-07-28T13:12:42Z</time>
      </trkpt>
      <trkpt lat="45.70236" lon="6.45385">
        <ele>1268</ele>
        <time>2022-07-28T13:12:43Z</time>
      </trkpt>
      <trkpt lat="45.70237" lon="6.45384">
        <ele>1268</ele>
        <time>2022-07-28T13:12:44Z</time>
      </trkpt>
      <trkpt lat="45.70237" lon="6.45383">
        <ele>1267</ele>
        <time>2022-07-28T13:12:45Z</time>
      </trkpt>
      <trkpt lat="45.70237" lon="6.45383">
        <ele>1267</ele>
        <time>2022-07-28T13:12:46Z</time>
      </trkpt>
      <trkpt lat="45.70238" lon="6.45382">
        <ele>1266</ele>
        <time>2022-07-28T13:12:47Z</time>
      </trkpt>
      <trkpt lat="45.70238" lon="6.45381">
        <ele>1266</ele>
        <time>2022-07-28T13:12:48Z</time>
      </trkpt>
      <trkpt lat="45.70238" lon="6.4538">
        <ele>1266</ele>
        <time>2022-07-28T13:12:49Z</time>
      </trkpt>
      <trkpt lat="45.70238" lon="6.45377">
        <ele>1263</ele>
        <time>2022-07-28T13:13:23Z</time>
      </trkpt>
      <trkpt lat="45.70238" lon="6.45376">
        <ele>1263</ele>
        <time>2022-07-28T13:13:24Z</time>
      </trkpt>
      <trkpt lat="45.70238" lon="6.45375">
        <ele>1263</ele>
        <time>2022-07-28T13:13:25Z</time>
      </trkpt>
      <trkpt lat="45.70238" lon="6.45374">
        <ele>1263</ele>
        <time>2022-07-28T13:13:26Z</time>
      </trkpt>
      <trkpt lat="45.70239" lon="6.45373">
        <ele>1262</ele>
        <time>2022-07-28T13:13:27Z</time>
      </trkpt>
      <trkpt lat="45.70239" lon="6.45372">
        <ele>1262</ele>
        <time>2022-07-28T13:13:28Z</time>
      </trkpt>
      <trkpt lat="45.70239" lon="6.45371">
        <ele>1262</ele>
        <time>2022-07-28T13:13:29Z</time>
      </trkpt>
      <trkpt lat="45.7024" lon="6.4537">
        <ele>1262</ele>
        <time>2022-07-28T13:13:30Z</time>
      </trkpt>
      <trkpt lat="45.7024" lon="6.45369">
        <ele>1262</ele>
        <time>2022-07-28T13:13:31Z</time>
      </trkpt>
      <trkpt lat="45.70241" lon="6.45368">
        <ele>1261</ele>
        <time>2022-07-28T13:13:32Z</time>
      </trkpt>
      <trkpt lat="45.70241" lon="6.45367">
        <ele>1261</ele>
        <time>2022-07-28T13:13:33Z</time>
      </trkpt>
      <trkpt lat="45.70242" lon="6.45367">
        <ele>1261</ele>
        <time>2022-07-28T13:13:34Z</time>
      </trkpt>
      <trkpt lat="45.70242" lon="6.45366">
        <ele>1261</ele>
        <time>2022-07-28T13:13:35Z</time>
      </trkpt>
      <trkpt lat="45.70243" lon="6.45365">
        <ele>1261</ele>
        <time>2022-07-28T13:13:36Z</time>
      </trkpt>
      <trkpt lat="45.70244" lon="6.45365">
        <ele>1260</ele>
        <time>2022-07-28T13:13:37Z</time>
      </trkpt>
      <trkpt lat="45.70244" lon="6.45364">
        <ele>1260</ele>
        <time>2022-07-28T13:13:38Z</time>
      </trkpt>
      <trkpt lat="45.70244" lon="6.45364">
        <ele>1260</ele>
        <time>2022-07-28T13:13:39Z</time>
      </trkpt>
      <trkpt lat="45.70244" lon="6.45363">
        <ele>1260</ele>
        <time>2022-07-28T13:13:40Z</time>
      </trkpt>
      <trkpt lat="45.70244" lon="6.45363">
        <ele>1260</ele>
        <time>2022-07-28T13:13:41Z</time>
      </trkpt>
      <trkpt lat="45.70245" lon="6.45362">
        <ele>1259</ele>
        <time>2022-07-28T13:13:42Z</time>
      </trkpt>
      <trkpt lat="45.70245" lon="6.45361">
        <ele>1259</ele>
        <time>2022-07-28T13:13:43Z</time>
      </trkpt>
      <trkpt lat="45.70245" lon="6.4536">
        <ele>1259</ele>
        <time>2022-07-28T13:13:44Z</time>
      </trkpt>
      <trkpt lat="45.70245" lon="6.4536">
        <ele>1259</ele>
        <time>2022-07-28T13:13:45Z</time>
      </trkpt>
      <trkpt lat="45.70246" lon="6.45359">
        <ele>1259</ele>
        <time>2022-07-28T13:13:46Z</time>
      </trkpt>
      <trkpt lat="45.70246" lon="6.45358">
        <ele>1258</ele>
        <time>2022-07-28T13:13:47Z</time>
      </trkpt>
      <trkpt lat="45.70246" lon="6.45357">
        <ele>1258</ele>
        <time>2022-07-28T13:13:48Z</time>
      </trkpt>
      <trkpt lat="45.70247" lon="6.45356">
        <ele>1258</ele>
        <time>2022-07-28T13:13:49Z</time>
      </trkpt>
      <trkpt lat="45.70247" lon="6.45355">
        <ele>1258</ele>
        <time>2022-07-28T13:13:50Z</time>
      </trkpt>
      <trkpt lat="45.70247" lon="6.45354">
        <ele>1258</ele>
        <time>2022-07-28T13:13:51Z</time>
      </trkpt>
      <trkpt lat="45.70247" lon="6.45353">
        <ele>1257</ele>
        <time>2022-07-28T13:13:52Z</time>
      </trkpt>
      <trkpt lat="45.70248" lon="6.45352">
        <ele>1257</ele>
        <time>2022-07-28T13:13:53Z</time>
      </trkpt>
      <trkpt lat="45.70248" lon="6.45351">
        <ele>1257</ele>
        <time>2022-07-28T13:13:54Z</time>
      </trkpt>
      <trkpt lat="45.70248" lon="6.4535">
        <ele>1257</ele>
        <time>2022-07-28T13:13:55Z</time>
      </trkpt>
      <trkpt lat="45.70249" lon="6.45349">
        <ele>1257</ele>
        <time>2022-07-28T13:13:56Z</time>
      </trkpt>
      <trkpt lat="45.70249" lon="6.45349">
        <ele>1256</ele>
        <time>2022-07-28T13:13:57Z</time>
      </trkpt>
      <trkpt lat="45.70249" lon="6.45348">
        <ele>1256</ele>
        <time>2022-07-28T13:13:58Z</time>
      </trkpt>
      <trkpt lat="45.70249" lon="6.45347">
        <ele>1256</ele>
        <time>2022-07-28T13:13:59Z</time>
      </trkpt>
      <trkpt lat="45.70249" lon="6.45346">
        <ele>1256</ele>
        <time>2022-07-28T13:14:00Z</time>
      </trkpt>
      <trkpt lat="45.70248" lon="6.45346">
        <ele>1256</ele>
        <time>2022-07-28T13:14:01Z</time>
      </trkpt>
      <trkpt lat="45.70248" lon="6.45345">
        <ele>1255</ele>
        <time>2022-07-28T13:14:02Z</time>
      </trkpt>
      <trkpt lat="45.70248" lon="6.45344">
        <ele>1255</ele>
        <time>2022-07-28T13:14:03Z</time>
      </trkpt>
      <trkpt lat="45.70248" lon="6.45343">
        <ele>1255</ele>
        <time>2022-07-28T13:14:04Z</time>
      </trkpt>
      <trkpt lat="45.70249" lon="6.45341">
        <ele>1255</ele>
        <time>2022-07-28T13:14:14Z</time>
      </trkpt>
      <trkpt lat="45.70249" lon="6.4534">
        <ele>1255</ele>
        <time>2022-07-28T13:14:15Z</time>
      </trkpt>
      <trkpt lat="45.70249" lon="6.45339">
        <ele>1255</ele>
        <time>2022-07-28T13:14:16Z</time>
      </trkpt>
      <trkpt lat="45.7025" lon="6.45339">
        <ele>1254</ele>
        <time>2022-07-28T13:14:17Z</time>
      </trkpt>
      <trkpt lat="45.7025" lon="6.45338">
        <ele>1254</ele>
        <time>2022-07-28T13:14:18Z</time>
      </trkpt>
      <trkpt lat="45.7025" lon="6.45337">
        <ele>1254</ele>
        <time>2022-07-28T13:14:19Z</time>
      </trkpt>
      <trkpt lat="45.7025" lon="6.45336">
        <ele>1254</ele>
        <time>2022-07-28T13:14:20Z</time>
      </trkpt>
      <trkpt lat="45.70251" lon="6.45335">
        <ele>1254</ele>
        <time>2022-07-28T13:14:21Z</time>
      </trkpt>
      <trkpt lat="45.70251" lon="6.45333">
        <ele>1253</ele>
        <time>2022-07-28T13:14:22Z</time>
      </trkpt>
      <trkpt lat="45.70251" lon="6.45332">
        <ele>1253</ele>
        <time>2022-07-28T13:14:23Z</time>
      </trkpt>
      <trkpt lat="45.70252" lon="6.45331">
        <ele>1253</ele>
        <time>2022-07-28T13:14:24Z</time>
      </trkpt>
      <trkpt lat="45.70253" lon="6.4533">
        <ele>1253</ele>
        <time>2022-07-28T13:14:25Z</time>
      </trkpt>
      <trkpt lat="45.70253" lon="6.45329">
        <ele>1253</ele>
        <time>2022-07-28T13:14:26Z</time>
      </trkpt>
      <trkpt lat="45.70254" lon="6.45327">
        <ele>1252</ele>
        <time>2022-07-28T13:14:27Z</time>
      </trkpt>
      <trkpt lat="45.70254" lon="6.45326">
        <ele>1252</ele>
        <time>2022-07-28T13:14:28Z</time>
      </trkpt>
      <trkpt lat="45.70255" lon="6.45325">
        <ele>1252</ele>
        <time>2022-07-28T13:14:29Z</time>
      </trkpt>
      <trkpt lat="45.70256" lon="6.45323">
        <ele>1252</ele>
        <time>2022-07-28T13:14:30Z</time>
      </trkpt>
      <trkpt lat="45.70256" lon="6.45322">
        <ele>1252</ele>
        <time>2022-07-28T13:14:31Z</time>
      </trkpt>
      <trkpt lat="45.70256" lon="6.4532">
        <ele>1251</ele>
        <time>2022-07-28T13:14:32Z</time>
      </trkpt>
      <trkpt lat="45.70256" lon="6.45319">
        <ele>1251</ele>
        <time>2022-07-28T13:14:33Z</time>
      </trkpt>
      <trkpt lat="45.70256" lon="6.45317">
        <ele>1251</ele>
        <time>2022-07-28T13:14:34Z</time>
      </trkpt>
      <trkpt lat="45.70257" lon="6.45316">
        <ele>1251</ele>
        <time>2022-07-28T13:14:35Z</time>
      </trkpt>
      <trkpt lat="45.70257" lon="6.45314">
        <ele>1251</ele>
        <time>2022-07-28T13:14:36Z</time>
      </trkpt>
      <trkpt lat="45.70257" lon="6.45313">
        <ele>1250</ele>
        <time>2022-07-28T13:14:37Z</time>
      </trkpt>
      <trkpt lat="45.70258" lon="6.45312">
        <ele>1250</ele>
        <time>2022-07-28T13:14:38Z</time>
      </trkpt>
      <trkpt lat="45.70259" lon="6.45312">
        <ele>1250</ele>
        <time>2022-07-28T13:14:39Z</time>
      </trkpt>
      <trkpt lat="45.70259" lon="6.45311">
        <ele>1250</ele>
        <time>2022-07-28T13:14:40Z</time>
      </trkpt>
      <trkpt lat="45.7026" lon="6.45311">
        <ele>1250</ele>
        <time>2022-07-28T13:14:41Z</time>
      </trkpt>
      <trkpt lat="45.70261" lon="6.45311">
        <ele>1249</ele>
        <time>2022-07-28T13:14:42Z</time>
      </trkpt>
      <trkpt lat="45.70262" lon="6.45312">
        <ele>1249</ele>
        <time>2022-07-28T13:14:43Z</time>
      </trkpt>
      <trkpt lat="45.70263" lon="6.45312">
        <ele>1249</ele>
        <time>2022-07-28T13:14:44Z</time>
      </trkpt>
      <trkpt lat="45.70265" lon="6.45312">
        <ele>1249</ele>
        <time>2022-07-28T13:14:45Z</time>
      </trkpt>
      <trkpt lat="45.70266" lon="6.45313">
        <ele>1249</ele>
        <time>2022-07-28T13:14:46Z</time>
      </trkpt>
      <trkpt lat="45.70267" lon="6.45313">
        <ele>1248</ele>
        <time>2022-07-28T13:14:47Z</time>
      </trkpt>
      <trkpt lat="45.70268" lon="6.45312">
        <ele>1248</ele>
        <time>2022-07-28T13:14:48Z</time>
      </trkpt>
      <trkpt lat="45.70269" lon="6.45312">
        <ele>1248</ele>
        <time>2022-07-28T13:14:49Z</time>
      </trkpt>
      <trkpt lat="45.7027" lon="6.45312">
        <ele>1248</ele>
        <time>2022-07-28T13:14:50Z</time>
      </trkpt>
      <trkpt lat="45.70271" lon="6.45312">
        <ele>1248</ele>
        <time>2022-07-28T13:14:51Z</time>
      </trkpt>
      <trkpt lat="45.70272" lon="6.45312">
        <ele>1247</ele>
        <time>2022-07-28T13:14:52Z</time>
      </trkpt>
      <trkpt lat="45.70273" lon="6.45311">
        <ele>1247</ele>
        <time>2022-07-28T13:14:53Z</time>
      </trkpt>
      <trkpt lat="45.70274" lon="6.45311">
        <ele>1247</ele>
        <time>2022-07-28T13:14:54Z</time>
      </trkpt>
      <trkpt lat="45.70275" lon="6.45311">
        <ele>1247</ele>
        <time>2022-07-28T13:14:55Z</time>
      </trkpt>
      <trkpt lat="45.70276" lon="6.45311">
        <ele>1247</ele>
        <time>2022-07-28T13:14:56Z</time>
      </trkpt>
      <trkpt lat="45.70277" lon="6.45311">
        <ele>1246</ele>
        <time>2022-07-28T13:14:57Z</time>
      </trkpt>
      <trkpt lat="45.70277" lon="6.4531">
        <ele>1246</ele>
        <time>2022-07-28T13:14:58Z</time>
      </trkpt>
      <trkpt lat="45.70278" lon="6.45311">
        <ele>1245</ele>
        <time>2022-07-28T13:14:59Z</time>
      </trkpt>
      <trkpt lat="45.70279" lon="6.45311">
        <ele>1245</ele>
        <time>2022-07-28T13:15:00Z</time>
      </trkpt>
      <trkpt lat="45.7028" lon="6.45311">
        <ele>1245</ele>
        <time>2022-07-28T13:15:01Z</time>
      </trkpt>
      <trkpt lat="45.70281" lon="6.45311">
        <ele>1244</ele>
        <time>2022-07-28T13:15:02Z</time>
      </trkpt>
      <trkpt lat="45.70282" lon="6.45312">
        <ele>1244</ele>
        <time>2022-07-28T13:15:03Z</time>
      </trkpt>
      <trkpt lat="45.70283" lon="6.45312">
        <ele>1244</ele>
        <time>2022-07-28T13:15:04Z</time>
      </trkpt>
      <trkpt lat="45.70285" lon="6.45314">
        <ele>1244</ele>
        <time>2022-07-28T13:15:05Z</time>
      </trkpt>
      <trkpt lat="45.70286" lon="6.45315">
        <ele>1244</ele>
        <time>2022-07-28T13:15:06Z</time>
      </trkpt>
      <trkpt lat="45.70287" lon="6.45316">
        <ele>1243</ele>
        <time>2022-07-28T13:15:07Z</time>
      </trkpt>
      <trkpt lat="45.70289" lon="6.45317">
        <ele>1243</ele>
        <time>2022-07-28T13:15:08Z</time>
      </trkpt>
      <trkpt lat="45.7029" lon="6.45318">
        <ele>1242</ele>
        <time>2022-07-28T13:15:09Z</time>
      </trkpt>
      <trkpt lat="45.70291" lon="6.45319">
        <ele>1242</ele>
        <time>2022-07-28T13:15:10Z</time>
      </trkpt>
      <trkpt lat="45.70292" lon="6.4532">
        <ele>1242</ele>
        <time>2022-07-28T13:15:11Z</time>
      </trkpt>
      <trkpt lat="45.70293" lon="6.45321">
        <ele>1241</ele>
        <time>2022-07-28T13:15:12Z</time>
      </trkpt>
      <trkpt lat="45.70294" lon="6.45322">
        <ele>1241</ele>
        <time>2022-07-28T13:15:13Z</time>
      </trkpt>
      <trkpt lat="45.70295" lon="6.45323">
        <ele>1240</ele>
        <time>2022-07-28T13:15:14Z</time>
      </trkpt>
      <trkpt lat="45.70296" lon="6.45324">
        <ele>1240</ele>
        <time>2022-07-28T13:15:15Z</time>
      </trkpt>
      <trkpt lat="45.70297" lon="6.45325">
        <ele>1240</ele>
        <time>2022-07-28T13:15:16Z</time>
      </trkpt>
      <trkpt lat="45.70298" lon="6.45325">
        <ele>1239</ele>
        <time>2022-07-28T13:15:17Z</time>
      </trkpt>
      <trkpt lat="45.70299" lon="6.45325">
        <ele>1239</ele>
        <time>2022-07-28T13:15:18Z</time>
      </trkpt>
      <trkpt lat="45.703" lon="6.45325">
        <ele>1238</ele>
        <time>2022-07-28T13:15:19Z</time>
      </trkpt>
      <trkpt lat="45.703" lon="6.45325">
        <ele>1238</ele>
        <time>2022-07-28T13:15:20Z</time>
      </trkpt>
      <trkpt lat="45.70301" lon="6.45324">
        <ele>1238</ele>
        <time>2022-07-28T13:15:21Z</time>
      </trkpt>
      <trkpt lat="45.70302" lon="6.45323">
        <ele>1237</ele>
        <time>2022-07-28T13:15:22Z</time>
      </trkpt>
      <trkpt lat="45.70303" lon="6.45322">
        <ele>1237</ele>
        <time>2022-07-28T13:15:23Z</time>
      </trkpt>
      <trkpt lat="45.70304" lon="6.45321">
        <ele>1237</ele>
        <time>2022-07-28T13:15:24Z</time>
      </trkpt>
      <trkpt lat="45.70305" lon="6.4532">
        <ele>1237</ele>
        <time>2022-07-28T13:15:25Z</time>
      </trkpt>
      <trkpt lat="45.70306" lon="6.45319">
        <ele>1237</ele>
        <time>2022-07-28T13:15:26Z</time>
      </trkpt>
      <trkpt lat="45.70307" lon="6.45318">
        <ele>1236</ele>
        <time>2022-07-28T13:15:27Z</time>
      </trkpt>
      <trkpt lat="45.70308" lon="6.45317">
        <ele>1236</ele>
        <time>2022-07-28T13:15:28Z</time>
      </trkpt>
      <trkpt lat="45.70309" lon="6.45316">
        <ele>1236</ele>
        <time>2022-07-28T13:15:29Z</time>
      </trkpt>
      <trkpt lat="45.7031" lon="6.45315">
        <ele>1236</ele>
        <time>2022-07-28T13:15:30Z</time>
      </trkpt>
      <trkpt lat="45.70311" lon="6.45313">
        <ele>1236</ele>
        <time>2022-07-28T13:15:31Z</time>
      </trkpt>
      <trkpt lat="45.70312" lon="6.45312">
        <ele>1235</ele>
        <time>2022-07-28T13:15:32Z</time>
      </trkpt>
      <trkpt lat="45.70312" lon="6.4531">
        <ele>1235</ele>
        <time>2022-07-28T13:15:33Z</time>
      </trkpt>
      <trkpt lat="45.70313" lon="6.45309">
        <ele>1234</ele>
        <time>2022-07-28T13:15:34Z</time>
      </trkpt>
      <trkpt lat="45.70313" lon="6.45307">
        <ele>1234</ele>
        <time>2022-07-28T13:15:35Z</time>
      </trkpt>
      <trkpt lat="45.70313" lon="6.45306">
        <ele>1234</ele>
        <time>2022-07-28T13:15:36Z</time>
      </trkpt>
      <trkpt lat="45.70313" lon="6.45304">
        <ele>1233</ele>
        <time>2022-07-28T13:15:37Z</time>
      </trkpt>
      <trkpt lat="45.70313" lon="6.45303">
        <ele>1233</ele>
        <time>2022-07-28T13:15:38Z</time>
      </trkpt>
      <trkpt lat="45.70313" lon="6.45301">
        <ele>1233</ele>
        <time>2022-07-28T13:15:39Z</time>
      </trkpt>
      <trkpt lat="45.70313" lon="6.453">
        <ele>1233</ele>
        <time>2022-07-28T13:15:40Z</time>
      </trkpt>
      <trkpt lat="45.70313" lon="6.45297">
        <ele>1232</ele>
        <time>2022-07-28T13:15:47Z</time>
      </trkpt>
      <trkpt lat="45.70313" lon="6.45297">
        <ele>1232</ele>
        <time>2022-07-28T13:15:48Z</time>
      </trkpt>
      <trkpt lat="45.70313" lon="6.45297">
        <ele>1232</ele>
        <time>2022-07-28T13:15:49Z</time>
      </trkpt>
      <trkpt lat="45.70314" lon="6.45297">
        <ele>1232</ele>
        <time>2022-07-28T13:15:50Z</time>
      </trkpt>
      <trkpt lat="45.70314" lon="6.45297">
        <ele>1232</ele>
        <time>2022-07-28T13:15:51Z</time>
      </trkpt>
      <trkpt lat="45.70315" lon="6.45298">
        <ele>1232</ele>
        <time>2022-07-28T13:15:52Z</time>
      </trkpt>
      <trkpt lat="45.70316" lon="6.45299">
        <ele>1232</ele>
        <time>2022-07-28T13:15:53Z</time>
      </trkpt>
      <trkpt lat="45.70317" lon="6.453">
        <ele>1232</ele>
        <time>2022-07-28T13:15:54Z</time>
      </trkpt>
      <trkpt lat="45.70318" lon="6.45301">
        <ele>1232</ele>
        <time>2022-07-28T13:15:55Z</time>
      </trkpt>
      <trkpt lat="45.70319" lon="6.45302">
        <ele>1232</ele>
        <time>2022-07-28T13:15:56Z</time>
      </trkpt>
      <trkpt lat="45.7032" lon="6.45303">
        <ele>1231</ele>
        <time>2022-07-28T13:15:57Z</time>
      </trkpt>
      <trkpt lat="45.70321" lon="6.45304">
        <ele>1231</ele>
        <time>2022-07-28T13:15:58Z</time>
      </trkpt>
      <trkpt lat="45.70322" lon="6.45305">
        <ele>1231</ele>
        <time>2022-07-28T13:15:59Z</time>
      </trkpt>
      <trkpt lat="45.70322" lon="6.45307">
        <ele>1231</ele>
        <time>2022-07-28T13:16:00Z</time>
      </trkpt>
      <trkpt lat="45.70323" lon="6.45309">
        <ele>1231</ele>
        <time>2022-07-28T13:16:01Z</time>
      </trkpt>
      <trkpt lat="45.70323" lon="6.4531">
        <ele>1231</ele>
        <time>2022-07-28T13:16:02Z</time>
      </trkpt>
      <trkpt lat="45.70323" lon="6.45312">
        <ele>1231</ele>
        <time>2022-07-28T13:16:03Z</time>
      </trkpt>
      <trkpt lat="45.70324" lon="6.45313">
        <ele>1231</ele>
        <time>2022-07-28T13:16:04Z</time>
      </trkpt>
      <trkpt lat="45.70324" lon="6.45315">
        <ele>1231</ele>
        <time>2022-07-28T13:16:05Z</time>
      </trkpt>
      <trkpt lat="45.70325" lon="6.45316">
        <ele>1231</ele>
        <time>2022-07-28T13:16:06Z</time>
      </trkpt>
      <trkpt lat="45.70325" lon="6.45318">
        <ele>1231</ele>
        <time>2022-07-28T13:16:07Z</time>
      </trkpt>
      <trkpt lat="45.70326" lon="6.45319">
        <ele>1231</ele>
        <time>2022-07-28T13:16:08Z</time>
      </trkpt>
      <trkpt lat="45.70326" lon="6.4532">
        <ele>1231</ele>
        <time>2022-07-28T13:16:09Z</time>
      </trkpt>
      <trkpt lat="45.70327" lon="6.45322">
        <ele>1231</ele>
        <time>2022-07-28T13:16:10Z</time>
      </trkpt>
      <trkpt lat="45.70328" lon="6.45323">
        <ele>1231</ele>
        <time>2022-07-28T13:16:11Z</time>
      </trkpt>
      <trkpt lat="45.70328" lon="6.45325">
        <ele>1230</ele>
        <time>2022-07-28T13:16:12Z</time>
      </trkpt>
      <trkpt lat="45.70328" lon="6.45326">
        <ele>1230</ele>
        <time>2022-07-28T13:16:13Z</time>
      </trkpt>
      <trkpt lat="45.70329" lon="6.45328">
        <ele>1230</ele>
        <time>2022-07-28T13:16:14Z</time>
      </trkpt>
      <trkpt lat="45.70329" lon="6.45329">
        <ele>1230</ele>
        <time>2022-07-28T13:16:15Z</time>
      </trkpt>
      <trkpt lat="45.70329" lon="6.45331">
        <ele>1230</ele>
        <time>2022-07-28T13:16:16Z</time>
      </trkpt>
      <trkpt lat="45.7033" lon="6.45332">
        <ele>1230</ele>
        <time>2022-07-28T13:16:17Z</time>
      </trkpt>
      <trkpt lat="45.7033" lon="6.45334">
        <ele>1230</ele>
        <time>2022-07-28T13:16:18Z</time>
      </trkpt>
      <trkpt lat="45.7033" lon="6.45335">
        <ele>1230</ele>
        <time>2022-07-28T13:16:19Z</time>
      </trkpt>
      <trkpt lat="45.7033" lon="6.45336">
        <ele>1230</ele>
        <time>2022-07-28T13:16:20Z</time>
      </trkpt>
      <trkpt lat="45.7033" lon="6.45336">
        <ele>1230</ele>
        <time>2022-07-28T13:16:21Z</time>
      </trkpt>
      <trkpt lat="45.70331" lon="6.45337">
        <ele>1230</ele>
        <time>2022-07-28T13:16:22Z</time>
      </trkpt>
      <trkpt lat="45.70331" lon="6.45338">
        <ele>1230</ele>
        <time>2022-07-28T13:16:23Z</time>
      </trkpt>
      <trkpt lat="45.70331" lon="6.45338">
        <ele>1230</ele>
        <time>2022-07-28T13:16:24Z</time>
      </trkpt>
      <trkpt lat="45.70332" lon="6.45339">
        <ele>1230</ele>
        <time>2022-07-28T13:16:25Z</time>
      </trkpt>
      <trkpt lat="45.70332" lon="6.45339">
        <ele>1230</ele>
        <time>2022-07-28T13:16:26Z</time>
      </trkpt>
      <trkpt lat="45.70333" lon="6.4534">
        <ele>1229</ele>
        <time>2022-07-28T13:16:27Z</time>
      </trkpt>
      <trkpt lat="45.70334" lon="6.4534">
        <ele>1229</ele>
        <time>2022-07-28T13:16:28Z</time>
      </trkpt>
      <trkpt lat="45.70335" lon="6.45341">
        <ele>1229</ele>
        <time>2022-07-28T13:16:29Z</time>
      </trkpt>
      <trkpt lat="45.70335" lon="6.45341">
        <ele>1229</ele>
        <time>2022-07-28T13:16:30Z</time>
      </trkpt>
      <trkpt lat="45.70336" lon="6.45342">
        <ele>1229</ele>
        <time>2022-07-28T13:16:31Z</time>
      </trkpt>
      <trkpt lat="45.70336" lon="6.45343">
        <ele>1228</ele>
        <time>2022-07-28T13:16:32Z</time>
      </trkpt>
      <trkpt lat="45.70337" lon="6.45344">
        <ele>1228</ele>
        <time>2022-07-28T13:16:33Z</time>
      </trkpt>
      <trkpt lat="45.70337" lon="6.45345">
        <ele>1228</ele>
        <time>2022-07-28T13:16:34Z</time>
      </trkpt>
      <trkpt lat="45.70337" lon="6.45346">
        <ele>1228</ele>
        <time>2022-07-28T13:16:35Z</time>
      </trkpt>
      <trkpt lat="45.70337" lon="6.45346">
        <ele>1228</ele>
        <time>2022-07-28T13:16:36Z</time>
      </trkpt>
      <trkpt lat="45.70338" lon="6.45347">
        <ele>1227</ele>
        <time>2022-07-28T13:16:37Z</time>
      </trkpt>
      <trkpt lat="45.70338" lon="6.45348">
        <ele>1227</ele>
        <time>2022-07-28T13:16:38Z</time>
      </trkpt>
      <trkpt lat="45.70338" lon="6.45349">
        <ele>1226</ele>
        <time>2022-07-28T13:16:39Z</time>
      </trkpt>
      <trkpt lat="45.70338" lon="6.4535">
        <ele>1226</ele>
        <time>2022-07-28T13:16:40Z</time>
      </trkpt>
      <trkpt lat="45.70338" lon="6.45351">
        <ele>1226</ele>
        <time>2022-07-28T13:16:41Z</time>
      </trkpt>
      <trkpt lat="45.70338" lon="6.45351">
        <ele>1225</ele>
        <time>2022-07-28T13:16:42Z</time>
      </trkpt>
      <trkpt lat="45.70339" lon="6.45352">
        <ele>1225</ele>
        <time>2022-07-28T13:16:43Z</time>
      </trkpt>
      <trkpt lat="45.70339" lon="6.45353">
        <ele>1225</ele>
        <time>2022-07-28T13:16:44Z</time>
      </trkpt>
      <trkpt lat="45.7034" lon="6.45354">
        <ele>1225</ele>
        <time>2022-07-28T13:16:45Z</time>
      </trkpt>
      <trkpt lat="45.7034" lon="6.45355">
        <ele>1225</ele>
        <time>2022-07-28T13:16:46Z</time>
      </trkpt>
      <trkpt lat="45.70341" lon="6.45356">
        <ele>1224</ele>
        <time>2022-07-28T13:16:47Z</time>
      </trkpt>
      <trkpt lat="45.70341" lon="6.45357">
        <ele>1224</ele>
        <time>2022-07-28T13:16:48Z</time>
      </trkpt>
      <trkpt lat="45.70343" lon="6.45358">
        <ele>1222</ele>
        <time>2022-07-28T13:16:58Z</time>
      </trkpt>
      <trkpt lat="45.70343" lon="6.45359">
        <ele>1222</ele>
        <time>2022-07-28T13:16:59Z</time>
      </trkpt>
      <trkpt lat="45.70344" lon="6.45359">
        <ele>1222</ele>
        <time>2022-07-28T13:17:00Z</time>
      </trkpt>
      <trkpt lat="45.70345" lon="6.45359">
        <ele>1222</ele>
        <time>2022-07-28T13:17:01Z</time>
      </trkpt>
      <trkpt lat="45.70345" lon="6.45359">
        <ele>1221</ele>
        <time>2022-07-28T13:17:02Z</time>
      </trkpt>
      <trkpt lat="45.70346" lon="6.45358">
        <ele>1221</ele>
        <time>2022-07-28T13:17:03Z</time>
      </trkpt>
      <trkpt lat="45.70347" lon="6.45357">
        <ele>1221</ele>
        <time>2022-07-28T13:17:04Z</time>
      </trkpt>
      <trkpt lat="45.70348" lon="6.45356">
        <ele>1221</ele>
        <time>2022-07-28T13:17:05Z</time>
      </trkpt>
      <trkpt lat="45.70349" lon="6.45355">
        <ele>1221</ele>
        <time>2022-07-28T13:17:06Z</time>
      </trkpt>
      <trkpt lat="45.7035" lon="6.45355">
        <ele>1220</ele>
        <time>2022-07-28T13:17:07Z</time>
      </trkpt>
      <trkpt lat="45.70351" lon="6.45354">
        <ele>1220</ele>
        <time>2022-07-28T13:17:08Z</time>
      </trkpt>
      <trkpt lat="45.70352" lon="6.45354">
        <ele>1220</ele>
        <time>2022-07-28T13:17:09Z</time>
      </trkpt>
      <trkpt lat="45.70353" lon="6.45354">
        <ele>1220</ele>
        <time>2022-07-28T13:17:10Z</time>
      </trkpt>
      <trkpt lat="45.70354" lon="6.45355">
        <ele>1220</ele>
        <time>2022-07-28T13:17:11Z</time>
      </trkpt>
      <trkpt lat="45.70355" lon="6.45355">
        <ele>1219</ele>
        <time>2022-07-28T13:17:12Z</time>
      </trkpt>
      <trkpt lat="45.70356" lon="6.45356">
        <ele>1219</ele>
        <time>2022-07-28T13:17:13Z</time>
      </trkpt>
      <trkpt lat="45.70357" lon="6.45357">
        <ele>1219</ele>
        <time>2022-07-28T13:17:14Z</time>
      </trkpt>
      <trkpt lat="45.70357" lon="6.45358">
        <ele>1219</ele>
        <time>2022-07-28T13:17:15Z</time>
      </trkpt>
      <trkpt lat="45.70358" lon="6.45359">
        <ele>1219</ele>
        <time>2022-07-28T13:17:16Z</time>
      </trkpt>
      <trkpt lat="45.70358" lon="6.4536">
        <ele>1218</ele>
        <time>2022-07-28T13:17:17Z</time>
      </trkpt>
      <trkpt lat="45.70358" lon="6.45361">
        <ele>1218</ele>
        <time>2022-07-28T13:17:18Z</time>
      </trkpt>
      <trkpt lat="45.70359" lon="6.45363">
        <ele>1218</ele>
        <time>2022-07-28T13:17:19Z</time>
      </trkpt>
      <trkpt lat="45.70359" lon="6.45364">
        <ele>1218</ele>
        <time>2022-07-28T13:17:20Z</time>
      </trkpt>
      <trkpt lat="45.7036" lon="6.45365">
        <ele>1218</ele>
        <time>2022-07-28T13:17:21Z</time>
      </trkpt>
      <trkpt lat="45.7036" lon="6.45367">
        <ele>1217</ele>
        <time>2022-07-28T13:17:22Z</time>
      </trkpt>
      <trkpt lat="45.7036" lon="6.45368">
        <ele>1217</ele>
        <time>2022-07-28T13:17:23Z</time>
      </trkpt>
      <trkpt lat="45.70361" lon="6.45369">
        <ele>1217</ele>
        <time>2022-07-28T13:17:24Z</time>
      </trkpt>
      <trkpt lat="45.70361" lon="6.4537">
        <ele>1217</ele>
        <time>2022-07-28T13:17:25Z</time>
      </trkpt>
      <trkpt lat="45.70362" lon="6.45371">
        <ele>1217</ele>
        <time>2022-07-28T13:17:26Z</time>
      </trkpt>
      <trkpt lat="45.70362" lon="6.45372">
        <ele>1216</ele>
        <time>2022-07-28T13:17:27Z</time>
      </trkpt>
      <trkpt lat="45.70363" lon="6.45373">
        <ele>1216</ele>
        <time>2022-07-28T13:17:28Z</time>
      </trkpt>
      <trkpt lat="45.70363" lon="6.45374">
        <ele>1216</ele>
        <time>2022-07-28T13:17:29Z</time>
      </trkpt>
      <trkpt lat="45.70364" lon="6.45375">
        <ele>1216</ele>
        <time>2022-07-28T13:17:30Z</time>
      </trkpt>
      <trkpt lat="45.70365" lon="6.45376">
        <ele>1216</ele>
        <time>2022-07-28T13:17:31Z</time>
      </trkpt>
      <trkpt lat="45.70365" lon="6.45377">
        <ele>1215</ele>
        <time>2022-07-28T13:17:32Z</time>
      </trkpt>
      <trkpt lat="45.70366" lon="6.45378">
        <ele>1215</ele>
        <time>2022-07-28T13:17:33Z</time>
      </trkpt>
      <trkpt lat="45.70366" lon="6.45379">
        <ele>1215</ele>
        <time>2022-07-28T13:17:34Z</time>
      </trkpt>
      <trkpt lat="45.70367" lon="6.45381">
        <ele>1215</ele>
        <time>2022-07-28T13:17:35Z</time>
      </trkpt>
      <trkpt lat="45.70367" lon="6.45382">
        <ele>1215</ele>
        <time>2022-07-28T13:17:36Z</time>
      </trkpt>
      <trkpt lat="45.70367" lon="6.45383">
        <ele>1214</ele>
        <time>2022-07-28T13:17:37Z</time>
      </trkpt>
      <trkpt lat="45.70367" lon="6.45384">
        <ele>1214</ele>
        <time>2022-07-28T13:17:38Z</time>
      </trkpt>
      <trkpt lat="45.70367" lon="6.45385">
        <ele>1214</ele>
        <time>2022-07-28T13:17:39Z</time>
      </trkpt>
      <trkpt lat="45.70367" lon="6.45386">
        <ele>1214</ele>
        <time>2022-07-28T13:17:40Z</time>
      </trkpt>
      <trkpt lat="45.70367" lon="6.45388">
        <ele>1214</ele>
        <time>2022-07-28T13:17:41Z</time>
      </trkpt>
      <trkpt lat="45.70368" lon="6.45389">
        <ele>1213</ele>
        <time>2022-07-28T13:17:42Z</time>
      </trkpt>
      <trkpt lat="45.70368" lon="6.4539">
        <ele>1213</ele>
        <time>2022-07-28T13:17:43Z</time>
      </trkpt>
      <trkpt lat="45.70368" lon="6.45391">
        <ele>1212</ele>
        <time>2022-07-28T13:17:44Z</time>
      </trkpt>
      <trkpt lat="45.70368" lon="6.45392">
        <ele>1212</ele>
        <time>2022-07-28T13:17:45Z</time>
      </trkpt>
      <trkpt lat="45.70368" lon="6.45394">
        <ele>1212</ele>
        <time>2022-07-28T13:17:46Z</time>
      </trkpt>
      <trkpt lat="45.70368" lon="6.45395">
        <ele>1211</ele>
        <time>2022-07-28T13:17:47Z</time>
      </trkpt>
      <trkpt lat="45.70368" lon="6.45396">
        <ele>1211</ele>
        <time>2022-07-28T13:17:48Z</time>
      </trkpt>
      <trkpt lat="45.70368" lon="6.45398">
        <ele>1210</ele>
        <time>2022-07-28T13:17:49Z</time>
      </trkpt>
      <trkpt lat="45.70369" lon="6.45399">
        <ele>1210</ele>
        <time>2022-07-28T13:17:50Z</time>
      </trkpt>
      <trkpt lat="45.70369" lon="6.45401">
        <ele>1210</ele>
        <time>2022-07-28T13:17:51Z</time>
      </trkpt>
      <trkpt lat="45.70369" lon="6.45402">
        <ele>1209</ele>
        <time>2022-07-28T13:17:52Z</time>
      </trkpt>
      <trkpt lat="45.7037" lon="6.45403">
        <ele>1209</ele>
        <time>2022-07-28T13:17:53Z</time>
      </trkpt>
      <trkpt lat="45.7037" lon="6.45404">
        <ele>1209</ele>
        <time>2022-07-28T13:17:54Z</time>
      </trkpt>
      <trkpt lat="45.7037" lon="6.45405">
        <ele>1209</ele>
        <time>2022-07-28T13:17:55Z</time>
      </trkpt>
      <trkpt lat="45.70371" lon="6.45406">
        <ele>1209</ele>
        <time>2022-07-28T13:17:56Z</time>
      </trkpt>
      <trkpt lat="45.70371" lon="6.45406">
        <ele>1208</ele>
        <time>2022-07-28T13:17:57Z</time>
      </trkpt>
      <trkpt lat="45.70372" lon="6.45406">
        <ele>1208</ele>
        <time>2022-07-28T13:17:58Z</time>
      </trkpt>
      <trkpt lat="45.70373" lon="6.45406">
        <ele>1208</ele>
        <time>2022-07-28T13:17:59Z</time>
      </trkpt>
      <trkpt lat="45.70373" lon="6.45406">
        <ele>1208</ele>
        <time>2022-07-28T13:18:00Z</time>
      </trkpt>
      <trkpt lat="45.70374" lon="6.45406">
        <ele>1208</ele>
        <time>2022-07-28T13:18:01Z</time>
      </trkpt>
      <trkpt lat="45.70374" lon="6.45406">
        <ele>1207</ele>
        <time>2022-07-28T13:18:02Z</time>
      </trkpt>
      <trkpt lat="45.70375" lon="6.45406">
        <ele>1207</ele>
        <time>2022-07-28T13:18:03Z</time>
      </trkpt>
      <trkpt lat="45.70376" lon="6.45406">
        <ele>1207</ele>
        <time>2022-07-28T13:18:04Z</time>
      </trkpt>
      <trkpt lat="45.70377" lon="6.45407">
        <ele>1207</ele>
        <time>2022-07-28T13:18:05Z</time>
      </trkpt>
      <trkpt lat="45.70378" lon="6.45407">
        <ele>1207</ele>
        <time>2022-07-28T13:18:06Z</time>
      </trkpt>
      <trkpt lat="45.70378" lon="6.45408">
        <ele>1206</ele>
        <time>2022-07-28T13:18:07Z</time>
      </trkpt>
      <trkpt lat="45.70379" lon="6.45408">
        <ele>1206</ele>
        <time>2022-07-28T13:18:08Z</time>
      </trkpt>
      <trkpt lat="45.7038" lon="6.45409">
        <ele>1206</ele>
        <time>2022-07-28T13:18:09Z</time>
      </trkpt>
      <trkpt lat="45.70381" lon="6.45409">
        <ele>1206</ele>
        <time>2022-07-28T13:18:10Z</time>
      </trkpt>
      <trkpt lat="45.70382" lon="6.4541">
        <ele>1206</ele>
        <time>2022-07-28T13:18:11Z</time>
      </trkpt>
      <trkpt lat="45.70382" lon="6.4541">
        <ele>1205</ele>
        <time>2022-07-28T13:18:12Z</time>
      </trkpt>
      <trkpt lat="45.70383" lon="6.45411">
        <ele>1205</ele>
        <time>2022-07-28T13:18:13Z</time>
      </trkpt>
      <trkpt lat="45.70384" lon="6.45412">
        <ele>1204</ele>
        <time>2022-07-28T13:18:14Z</time>
      </trkpt>
      <trkpt lat="45.70385" lon="6.45413">
        <ele>1204</ele>
        <time>2022-07-28T13:18:15Z</time>
      </trkpt>
      <trkpt lat="45.70386" lon="6.45413">
        <ele>1204</ele>
        <time>2022-07-28T13:18:16Z</time>
      </trkpt>
      <trkpt lat="45.70388" lon="6.45414">
        <ele>1203</ele>
        <time>2022-07-28T13:18:17Z</time>
      </trkpt>
      <trkpt lat="45.70389" lon="6.45415">
        <ele>1203</ele>
        <time>2022-07-28T13:18:18Z</time>
      </trkpt>
      <trkpt lat="45.70389" lon="6.45416">
        <ele>1203</ele>
        <time>2022-07-28T13:18:19Z</time>
      </trkpt>
      <trkpt lat="45.7039" lon="6.45416">
        <ele>1203</ele>
        <time>2022-07-28T13:18:20Z</time>
      </trkpt>
      <trkpt lat="45.70391" lon="6.45417">
        <ele>1203</ele>
        <time>2022-07-28T13:18:21Z</time>
      </trkpt>
      <trkpt lat="45.70392" lon="6.45417">
        <ele>1202</ele>
        <time>2022-07-28T13:18:22Z</time>
      </trkpt>
      <trkpt lat="45.70392" lon="6.45417">
        <ele>1202</ele>
        <time>2022-07-28T13:18:23Z</time>
      </trkpt>
      <trkpt lat="45.70393" lon="6.45418">
        <ele>1202</ele>
        <time>2022-07-28T13:18:24Z</time>
      </trkpt>
      <trkpt lat="45.70394" lon="6.45418">
        <ele>1202</ele>
        <time>2022-07-28T13:18:25Z</time>
      </trkpt>
      <trkpt lat="45.70395" lon="6.45419">
        <ele>1202</ele>
        <time>2022-07-28T13:18:26Z</time>
      </trkpt>
      <trkpt lat="45.70396" lon="6.45419">
        <ele>1201</ele>
        <time>2022-07-28T13:18:27Z</time>
      </trkpt>
      <trkpt lat="45.70397" lon="6.4542">
        <ele>1201</ele>
        <time>2022-07-28T13:18:28Z</time>
      </trkpt>
      <trkpt lat="45.70397" lon="6.45421">
        <ele>1201</ele>
        <time>2022-07-28T13:18:29Z</time>
      </trkpt>
      <trkpt lat="45.70398" lon="6.45422">
        <ele>1201</ele>
        <time>2022-07-28T13:18:30Z</time>
      </trkpt>
      <trkpt lat="45.70399" lon="6.45423">
        <ele>1201</ele>
        <time>2022-07-28T13:18:31Z</time>
      </trkpt>
      <trkpt lat="45.704" lon="6.45424">
        <ele>1200</ele>
        <time>2022-07-28T13:18:32Z</time>
      </trkpt>
      <trkpt lat="45.704" lon="6.45425">
        <ele>1200</ele>
        <time>2022-07-28T13:18:33Z</time>
      </trkpt>
      <trkpt lat="45.70401" lon="6.45426">
        <ele>1200</ele>
        <time>2022-07-28T13:18:34Z</time>
      </trkpt>
      <trkpt lat="45.70402" lon="6.45427">
        <ele>1200</ele>
        <time>2022-07-28T13:18:35Z</time>
      </trkpt>
      <trkpt lat="45.70402" lon="6.45428">
        <ele>1200</ele>
        <time>2022-07-28T13:18:36Z</time>
      </trkpt>
      <trkpt lat="45.70403" lon="6.45428">
        <ele>1199</ele>
        <time>2022-07-28T13:18:37Z</time>
      </trkpt>
      <trkpt lat="45.70404" lon="6.45429">
        <ele>1199</ele>
        <time>2022-07-28T13:18:38Z</time>
      </trkpt>
      <trkpt lat="45.70405" lon="6.45429">
        <ele>1199</ele>
        <time>2022-07-28T13:18:39Z</time>
      </trkpt>
      <trkpt lat="45.70406" lon="6.4543">
        <ele>1199</ele>
        <time>2022-07-28T13:18:40Z</time>
      </trkpt>
      <trkpt lat="45.70407" lon="6.4543">
        <ele>1199</ele>
        <time>2022-07-28T13:18:41Z</time>
      </trkpt>
      <trkpt lat="45.70408" lon="6.45431">
        <ele>1198</ele>
        <time>2022-07-28T13:18:42Z</time>
      </trkpt>
      <trkpt lat="45.70409" lon="6.45431">
        <ele>1198</ele>
        <time>2022-07-28T13:18:43Z</time>
      </trkpt>
      <trkpt lat="45.7041" lon="6.45432">
        <ele>1198</ele>
        <time>2022-07-28T13:18:44Z</time>
      </trkpt>
      <trkpt lat="45.70411" lon="6.45433">
        <ele>1198</ele>
        <time>2022-07-28T13:18:45Z</time>
      </trkpt>
      <trkpt lat="45.70412" lon="6.45433">
        <ele>1198</ele>
        <time>2022-07-28T13:18:46Z</time>
      </trkpt>
      <trkpt lat="45.70413" lon="6.45434">
        <ele>1197</ele>
        <time>2022-07-28T13:18:47Z</time>
      </trkpt>
      <trkpt lat="45.70414" lon="6.45434">
        <ele>1197</ele>
        <time>2022-07-28T13:18:48Z</time>
      </trkpt>
      <trkpt lat="45.70415" lon="6.45435">
        <ele>1197</ele>
        <time>2022-07-28T13:18:49Z</time>
      </trkpt>
      <trkpt lat="45.70415" lon="6.45435">
        <ele>1197</ele>
        <time>2022-07-28T13:18:50Z</time>
      </trkpt>
      <trkpt lat="45.70416" lon="6.45435">
        <ele>1197</ele>
        <time>2022-07-28T13:18:51Z</time>
      </trkpt>
      <trkpt lat="45.70417" lon="6.45436">
        <ele>1196</ele>
        <time>2022-07-28T13:18:52Z</time>
      </trkpt>
      <trkpt lat="45.70418" lon="6.45436">
        <ele>1196</ele>
        <time>2022-07-28T13:18:53Z</time>
      </trkpt>
      <trkpt lat="45.70419" lon="6.45437">
        <ele>1196</ele>
        <time>2022-07-28T13:18:54Z</time>
      </trkpt>
      <trkpt lat="45.7042" lon="6.45437">
        <ele>1196</ele>
        <time>2022-07-28T13:18:55Z</time>
      </trkpt>
      <trkpt lat="45.70421" lon="6.45438">
        <ele>1196</ele>
        <time>2022-07-28T13:18:56Z</time>
      </trkpt>
      <trkpt lat="45.70422" lon="6.45438">
        <ele>1195</ele>
        <time>2022-07-28T13:18:57Z</time>
      </trkpt>
      <trkpt lat="45.70423" lon="6.45439">
        <ele>1195</ele>
        <time>2022-07-28T13:18:58Z</time>
      </trkpt>
      <trkpt lat="45.70424" lon="6.45439">
        <ele>1195</ele>
        <time>2022-07-28T13:18:59Z</time>
      </trkpt>
      <trkpt lat="45.70425" lon="6.45439">
        <ele>1195</ele>
        <time>2022-07-28T13:19:00Z</time>
      </trkpt>
      <trkpt lat="45.70426" lon="6.45439">
        <ele>1195</ele>
        <time>2022-07-28T13:19:01Z</time>
      </trkpt>
      <trkpt lat="45.70427" lon="6.45439">
        <ele>1194</ele>
        <time>2022-07-28T13:19:02Z</time>
      </trkpt>
      <trkpt lat="45.70428" lon="6.4544">
        <ele>1194</ele>
        <time>2022-07-28T13:19:03Z</time>
      </trkpt>
      <trkpt lat="45.7043" lon="6.4544">
        <ele>1194</ele>
        <time>2022-07-28T13:19:04Z</time>
      </trkpt>
      <trkpt lat="45.70431" lon="6.4544">
        <ele>1194</ele>
        <time>2022-07-28T13:19:05Z</time>
      </trkpt>
      <trkpt lat="45.70432" lon="6.45441">
        <ele>1194</ele>
        <time>2022-07-28T13:19:06Z</time>
      </trkpt>
      <trkpt lat="45.70434" lon="6.45441">
        <ele>1193</ele>
        <time>2022-07-28T13:19:07Z</time>
      </trkpt>
      <trkpt lat="45.70435" lon="6.45441">
        <ele>1193</ele>
        <time>2022-07-28T13:19:08Z</time>
      </trkpt>
      <trkpt lat="45.70436" lon="6.45442">
        <ele>1193</ele>
        <time>2022-07-28T13:19:09Z</time>
      </trkpt>
      <trkpt lat="45.70437" lon="6.45443">
        <ele>1193</ele>
        <time>2022-07-28T13:19:10Z</time>
      </trkpt>
      <trkpt lat="45.70438" lon="6.45443">
        <ele>1193</ele>
        <time>2022-07-28T13:19:11Z</time>
      </trkpt>
      <trkpt lat="45.70439" lon="6.45444">
        <ele>1193</ele>
        <time>2022-07-28T13:19:12Z</time>
      </trkpt>
      <trkpt lat="45.7044" lon="6.45444">
        <ele>1193</ele>
        <time>2022-07-28T13:19:13Z</time>
      </trkpt>
      <trkpt lat="45.70441" lon="6.45445">
        <ele>1193</ele>
        <time>2022-07-28T13:19:14Z</time>
      </trkpt>
      <trkpt lat="45.70442" lon="6.45445">
        <ele>1193</ele>
        <time>2022-07-28T13:19:15Z</time>
      </trkpt>
      <trkpt lat="45.70443" lon="6.45446">
        <ele>1193</ele>
        <time>2022-07-28T13:19:16Z</time>
      </trkpt>
      <trkpt lat="45.70444" lon="6.45446">
        <ele>1192</ele>
        <time>2022-07-28T13:19:17Z</time>
      </trkpt>
      <trkpt lat="45.70445" lon="6.45447">
        <ele>1192</ele>
        <time>2022-07-28T13:19:18Z</time>
      </trkpt>
      <trkpt lat="45.70446" lon="6.45447">
        <ele>1192</ele>
        <time>2022-07-28T13:19:19Z</time>
      </trkpt>
      <trkpt lat="45.70447" lon="6.45447">
        <ele>1192</ele>
        <time>2022-07-28T13:19:20Z</time>
      </trkpt>
      <trkpt lat="45.70449" lon="6.45448">
        <ele>1192</ele>
        <time>2022-07-28T13:19:21Z</time>
      </trkpt>
      <trkpt lat="45.7045" lon="6.45448">
        <ele>1191</ele>
        <time>2022-07-28T13:19:22Z</time>
      </trkpt>
      <trkpt lat="45.70451" lon="6.45449">
        <ele>1191</ele>
        <time>2022-07-28T13:19:23Z</time>
      </trkpt>
      <trkpt lat="45.70452" lon="6.45449">
        <ele>1191</ele>
        <time>2022-07-28T13:19:24Z</time>
      </trkpt>
      <trkpt lat="45.70453" lon="6.45449">
        <ele>1191</ele>
        <time>2022-07-28T13:19:25Z</time>
      </trkpt>
      <trkpt lat="45.70454" lon="6.4545">
        <ele>1191</ele>
        <time>2022-07-28T13:19:26Z</time>
      </trkpt>
      <trkpt lat="45.70456" lon="6.4545">
        <ele>1190</ele>
        <time>2022-07-28T13:19:27Z</time>
      </trkpt>
      <trkpt lat="45.70457" lon="6.4545">
        <ele>1190</ele>
        <time>2022-07-28T13:19:28Z</time>
      </trkpt>
      <trkpt lat="45.70458" lon="6.45451">
        <ele>1190</ele>
        <time>2022-07-28T13:19:29Z</time>
      </trkpt>
      <trkpt lat="45.70459" lon="6.45451">
        <ele>1190</ele>
        <time>2022-07-28T13:19:30Z</time>
      </trkpt>
      <trkpt lat="45.7046" lon="6.45451">
        <ele>1190</ele>
        <time>2022-07-28T13:19:31Z</time>
      </trkpt>
      <trkpt lat="45.70462" lon="6.45452">
        <ele>1189</ele>
        <time>2022-07-28T13:19:32Z</time>
      </trkpt>
      <trkpt lat="45.70463" lon="6.45452">
        <ele>1189</ele>
        <time>2022-07-28T13:19:33Z</time>
      </trkpt>
      <trkpt lat="45.70464" lon="6.45452">
        <ele>1189</ele>
        <time>2022-07-28T13:19:34Z</time>
      </trkpt>
      <trkpt lat="45.70465" lon="6.45453">
        <ele>1189</ele>
        <time>2022-07-28T13:19:35Z</time>
      </trkpt>
      <trkpt lat="45.70466" lon="6.45453">
        <ele>1189</ele>
        <time>2022-07-28T13:19:36Z</time>
      </trkpt>
      <trkpt lat="45.70467" lon="6.45454">
        <ele>1189</ele>
        <time>2022-07-28T13:19:37Z</time>
      </trkpt>
      <trkpt lat="45.70468" lon="6.45454">
        <ele>1189</ele>
        <time>2022-07-28T13:19:38Z</time>
      </trkpt>
      <trkpt lat="45.70469" lon="6.45455">
        <ele>1189</ele>
        <time>2022-07-28T13:19:39Z</time>
      </trkpt>
      <trkpt lat="45.7047" lon="6.45455">
        <ele>1189</ele>
        <time>2022-07-28T13:19:40Z</time>
      </trkpt>
      <trkpt lat="45.70471" lon="6.45456">
        <ele>1189</ele>
        <time>2022-07-28T13:19:41Z</time>
      </trkpt>
      <trkpt lat="45.70472" lon="6.45456">
        <ele>1188</ele>
        <time>2022-07-28T13:19:42Z</time>
      </trkpt>
      <trkpt lat="45.70473" lon="6.45457">
        <ele>1188</ele>
        <time>2022-07-28T13:19:43Z</time>
      </trkpt>
      <trkpt lat="45.70473" lon="6.45458">
        <ele>1188</ele>
        <time>2022-07-28T13:19:44Z</time>
      </trkpt>
      <trkpt lat="45.70474" lon="6.45458">
        <ele>1188</ele>
        <time>2022-07-28T13:19:45Z</time>
      </trkpt>
      <trkpt lat="45.70475" lon="6.45459">
        <ele>1188</ele>
        <time>2022-07-28T13:19:46Z</time>
      </trkpt>
      <trkpt lat="45.70476" lon="6.45459">
        <ele>1187</ele>
        <time>2022-07-28T13:19:47Z</time>
      </trkpt>
      <trkpt lat="45.70477" lon="6.4546">
        <ele>1187</ele>
        <time>2022-07-28T13:19:48Z</time>
      </trkpt>
      <trkpt lat="45.70478" lon="6.45461">
        <ele>1187</ele>
        <time>2022-07-28T13:19:49Z</time>
      </trkpt>
      <trkpt lat="45.70479" lon="6.45461">
        <ele>1187</ele>
        <time>2022-07-28T13:19:50Z</time>
      </trkpt>
      <trkpt lat="45.7048" lon="6.45462">
        <ele>1187</ele>
        <time>2022-07-28T13:19:51Z</time>
      </trkpt>
      <trkpt lat="45.70481" lon="6.45462">
        <ele>1186</ele>
        <time>2022-07-28T13:19:52Z</time>
      </trkpt>
      <trkpt lat="45.70482" lon="6.45463">
        <ele>1186</ele>
        <time>2022-07-28T13:19:53Z</time>
      </trkpt>
      <trkpt lat="45.70483" lon="6.45464">
        <ele>1185</ele>
        <time>2022-07-28T13:19:54Z</time>
      </trkpt>
      <trkpt lat="45.70484" lon="6.45464">
        <ele>1185</ele>
        <time>2022-07-28T13:19:55Z</time>
      </trkpt>
      <trkpt lat="45.70485" lon="6.45465">
        <ele>1185</ele>
        <time>2022-07-28T13:19:56Z</time>
      </trkpt>
      <trkpt lat="45.70485" lon="6.45465">
        <ele>1184</ele>
        <time>2022-07-28T13:19:57Z</time>
      </trkpt>
      <trkpt lat="45.70486" lon="6.45466">
        <ele>1184</ele>
        <time>2022-07-28T13:19:58Z</time>
      </trkpt>
      <trkpt lat="45.70487" lon="6.45467">
        <ele>1184</ele>
        <time>2022-07-28T13:19:59Z</time>
      </trkpt>
      <trkpt lat="45.70488" lon="6.45468">
        <ele>1184</ele>
        <time>2022-07-28T13:20:00Z</time>
      </trkpt>
      <trkpt lat="45.70489" lon="6.45468">
        <ele>1184</ele>
        <time>2022-07-28T13:20:01Z</time>
      </trkpt>
      <trkpt lat="45.70491" lon="6.45469">
        <ele>1183</ele>
        <time>2022-07-28T13:20:02Z</time>
      </trkpt>
      <trkpt lat="45.70492" lon="6.4547">
        <ele>1183</ele>
        <time>2022-07-28T13:20:03Z</time>
      </trkpt>
      <trkpt lat="45.70493" lon="6.4547">
        <ele>1183</ele>
        <time>2022-07-28T13:20:04Z</time>
      </trkpt>
      <trkpt lat="45.70494" lon="6.45471">
        <ele>1183</ele>
        <time>2022-07-28T13:20:05Z</time>
      </trkpt>
      <trkpt lat="45.70495" lon="6.45472">
        <ele>1183</ele>
        <time>2022-07-28T13:20:06Z</time>
      </trkpt>
      <trkpt lat="45.70497" lon="6.45472">
        <ele>1182</ele>
        <time>2022-07-28T13:20:07Z</time>
      </trkpt>
      <trkpt lat="45.70498" lon="6.45473">
        <ele>1182</ele>
        <time>2022-07-28T13:20:08Z</time>
      </trkpt>
      <trkpt lat="45.70499" lon="6.45473">
        <ele>1181</ele>
        <time>2022-07-28T13:20:09Z</time>
      </trkpt>
      <trkpt lat="45.705" lon="6.45474">
        <ele>1181</ele>
        <time>2022-07-28T13:20:10Z</time>
      </trkpt>
      <trkpt lat="45.70502" lon="6.45475">
        <ele>1181</ele>
        <time>2022-07-28T13:20:11Z</time>
      </trkpt>
      <trkpt lat="45.70503" lon="6.45475">
        <ele>1181</ele>
        <time>2022-07-28T13:20:12Z</time>
      </trkpt>
      <trkpt lat="45.70504" lon="6.45476">
        <ele>1181</ele>
        <time>2022-07-28T13:20:13Z</time>
      </trkpt>
      <trkpt lat="45.70505" lon="6.45477">
        <ele>1181</ele>
        <time>2022-07-28T13:20:14Z</time>
      </trkpt>
      <trkpt lat="45.70506" lon="6.45477">
        <ele>1181</ele>
        <time>2022-07-28T13:20:15Z</time>
      </trkpt>
      <trkpt lat="45.70507" lon="6.45478">
        <ele>1181</ele>
        <time>2022-07-28T13:20:16Z</time>
      </trkpt>
      <trkpt lat="45.70508" lon="6.45479">
        <ele>1180</ele>
        <time>2022-07-28T13:20:17Z</time>
      </trkpt>
      <trkpt lat="45.70509" lon="6.4548">
        <ele>1180</ele>
        <time>2022-07-28T13:20:18Z</time>
      </trkpt>
      <trkpt lat="45.7051" lon="6.45481">
        <ele>1180</ele>
        <time>2022-07-28T13:20:19Z</time>
      </trkpt>
      <trkpt lat="45.70511" lon="6.45483">
        <ele>1180</ele>
        <time>2022-07-28T13:20:20Z</time>
      </trkpt>
      <trkpt lat="45.70512" lon="6.45484">
        <ele>1180</ele>
        <time>2022-07-28T13:20:21Z</time>
      </trkpt>
      <trkpt lat="45.70513" lon="6.45485">
        <ele>1179</ele>
        <time>2022-07-28T13:20:22Z</time>
      </trkpt>
      <trkpt lat="45.70514" lon="6.45487">
        <ele>1179</ele>
        <time>2022-07-28T13:20:23Z</time>
      </trkpt>
      <trkpt lat="45.70515" lon="6.45488">
        <ele>1179</ele>
        <time>2022-07-28T13:20:24Z</time>
      </trkpt>
      <trkpt lat="45.70516" lon="6.45489">
        <ele>1179</ele>
        <time>2022-07-28T13:20:25Z</time>
      </trkpt>
      <trkpt lat="45.70516" lon="6.4549">
        <ele>1179</ele>
        <time>2022-07-28T13:20:26Z</time>
      </trkpt>
      <trkpt lat="45.70517" lon="6.45492">
        <ele>1178</ele>
        <time>2022-07-28T13:20:27Z</time>
      </trkpt>
      <trkpt lat="45.70518" lon="6.45493">
        <ele>1178</ele>
        <time>2022-07-28T13:20:28Z</time>
      </trkpt>
      <trkpt lat="45.70519" lon="6.45494">
        <ele>1178</ele>
        <time>2022-07-28T13:20:29Z</time>
      </trkpt>
      <trkpt lat="45.7052" lon="6.45495">
        <ele>1178</ele>
        <time>2022-07-28T13:20:30Z</time>
      </trkpt>
      <trkpt lat="45.70521" lon="6.45496">
        <ele>1178</ele>
        <time>2022-07-28T13:20:31Z</time>
      </trkpt>
      <trkpt lat="45.70521" lon="6.45498">
        <ele>1177</ele>
        <time>2022-07-28T13:20:32Z</time>
      </trkpt>
      <trkpt lat="45.70522" lon="6.45499">
        <ele>1177</ele>
        <time>2022-07-28T13:20:33Z</time>
      </trkpt>
      <trkpt lat="45.70523" lon="6.455">
        <ele>1177</ele>
        <time>2022-07-28T13:20:34Z</time>
      </trkpt>
      <trkpt lat="45.70524" lon="6.45501">
        <ele>1177</ele>
        <time>2022-07-28T13:20:35Z</time>
      </trkpt>
      <trkpt lat="45.70525" lon="6.45503">
        <ele>1177</ele>
        <time>2022-07-28T13:20:36Z</time>
      </trkpt>
      <trkpt lat="45.70526" lon="6.45504">
        <ele>1177</ele>
        <time>2022-07-28T13:20:37Z</time>
      </trkpt>
      <trkpt lat="45.70527" lon="6.45505">
        <ele>1177</ele>
        <time>2022-07-28T13:20:38Z</time>
      </trkpt>
      <trkpt lat="45.70528" lon="6.45506">
        <ele>1177</ele>
        <time>2022-07-28T13:20:39Z</time>
      </trkpt>
      <trkpt lat="45.70529" lon="6.45507">
        <ele>1177</ele>
        <time>2022-07-28T13:20:40Z</time>
      </trkpt>
      <trkpt lat="45.7053" lon="6.45507">
        <ele>1177</ele>
        <time>2022-07-28T13:20:41Z</time>
      </trkpt>
      <trkpt lat="45.70531" lon="6.45508">
        <ele>1176</ele>
        <time>2022-07-28T13:20:42Z</time>
      </trkpt>
      <trkpt lat="45.70532" lon="6.45508">
        <ele>1176</ele>
        <time>2022-07-28T13:20:43Z</time>
      </trkpt>
      <trkpt lat="45.70533" lon="6.45509">
        <ele>1176</ele>
        <time>2022-07-28T13:20:44Z</time>
      </trkpt>
      <trkpt lat="45.70533" lon="6.45509">
        <ele>1176</ele>
        <time>2022-07-28T13:20:45Z</time>
      </trkpt>
      <trkpt lat="45.70533" lon="6.45509">
        <ele>1176</ele>
        <time>2022-07-28T13:20:46Z</time>
      </trkpt>
      <trkpt lat="45.70534" lon="6.45509">
        <ele>1176</ele>
        <time>2022-07-28T13:20:47Z</time>
      </trkpt>
      <trkpt lat="45.70534" lon="6.45509">
        <ele>1176</ele>
        <time>2022-07-28T13:20:48Z</time>
      </trkpt>
      <trkpt lat="45.70534" lon="6.45509">
        <ele>1176</ele>
        <time>2022-07-28T13:20:49Z</time>
      </trkpt>
      <trkpt lat="45.70535" lon="6.45509">
        <ele>1176</ele>
        <time>2022-07-28T13:20:50Z</time>
      </trkpt>
      <trkpt lat="45.70536" lon="6.4551">
        <ele>1176</ele>
        <time>2022-07-28T13:20:51Z</time>
      </trkpt>
      <trkpt lat="45.70536" lon="6.4551">
        <ele>1175</ele>
        <time>2022-07-28T13:20:52Z</time>
      </trkpt>
      <trkpt lat="45.70537" lon="6.45511">
        <ele>1175</ele>
        <time>2022-07-28T13:20:53Z</time>
      </trkpt>
      <trkpt lat="45.70538" lon="6.45511">
        <ele>1175</ele>
        <time>2022-07-28T13:20:54Z</time>
      </trkpt>
      <trkpt lat="45.70539" lon="6.45512">
        <ele>1175</ele>
        <time>2022-07-28T13:20:55Z</time>
      </trkpt>
      <trkpt lat="45.7054" lon="6.45513">
        <ele>1175</ele>
        <time>2022-07-28T13:20:56Z</time>
      </trkpt>
      <trkpt lat="45.70541" lon="6.45514">
        <ele>1174</ele>
        <time>2022-07-28T13:20:57Z</time>
      </trkpt>
      <trkpt lat="45.70541" lon="6.45515">
        <ele>1174</ele>
        <time>2022-07-28T13:20:58Z</time>
      </trkpt>
      <trkpt lat="45.70542" lon="6.45515">
        <ele>1174</ele>
        <time>2022-07-28T13:20:59Z</time>
      </trkpt>
      <trkpt lat="45.70543" lon="6.45516">
        <ele>1174</ele>
        <time>2022-07-28T13:21:00Z</time>
      </trkpt>
      <trkpt lat="45.70544" lon="6.45517">
        <ele>1174</ele>
        <time>2022-07-28T13:21:01Z</time>
      </trkpt>
      <trkpt lat="45.70545" lon="6.45518">
        <ele>1173</ele>
        <time>2022-07-28T13:21:02Z</time>
      </trkpt>
      <trkpt lat="45.70545" lon="6.45519">
        <ele>1173</ele>
        <time>2022-07-28T13:21:03Z</time>
      </trkpt>
      <trkpt lat="45.70546" lon="6.4552">
        <ele>1173</ele>
        <time>2022-07-28T13:21:04Z</time>
      </trkpt>
      <trkpt lat="45.70547" lon="6.4552">
        <ele>1173</ele>
        <time>2022-07-28T13:21:05Z</time>
      </trkpt>
      <trkpt lat="45.70548" lon="6.45521">
        <ele>1173</ele>
        <time>2022-07-28T13:21:06Z</time>
      </trkpt>
      <trkpt lat="45.70548" lon="6.45521">
        <ele>1172</ele>
        <time>2022-07-28T13:21:07Z</time>
      </trkpt>
      <trkpt lat="45.70549" lon="6.45522">
        <ele>1172</ele>
        <time>2022-07-28T13:21:08Z</time>
      </trkpt>
      <trkpt lat="45.7055" lon="6.45523">
        <ele>1172</ele>
        <time>2022-07-28T13:21:09Z</time>
      </trkpt>
      <trkpt lat="45.70551" lon="6.45523">
        <ele>1172</ele>
        <time>2022-07-28T13:21:10Z</time>
      </trkpt>
      <trkpt lat="45.70551" lon="6.45525">
        <ele>1172</ele>
        <time>2022-07-28T13:21:11Z</time>
      </trkpt>
      <trkpt lat="45.70552" lon="6.45526">
        <ele>1171</ele>
        <time>2022-07-28T13:21:12Z</time>
      </trkpt>
      <trkpt lat="45.70553" lon="6.45527">
        <ele>1171</ele>
        <time>2022-07-28T13:21:13Z</time>
      </trkpt>
      <trkpt lat="45.70554" lon="6.45528">
        <ele>1171</ele>
        <time>2022-07-28T13:21:14Z</time>
      </trkpt>
      <trkpt lat="45.70554" lon="6.45529">
        <ele>1171</ele>
        <time>2022-07-28T13:21:15Z</time>
      </trkpt>
      <trkpt lat="45.70555" lon="6.4553">
        <ele>1171</ele>
        <time>2022-07-28T13:21:16Z</time>
      </trkpt>
      <trkpt lat="45.70556" lon="6.45531">
        <ele>1170</ele>
        <time>2022-07-28T13:21:17Z</time>
      </trkpt>
      <trkpt lat="45.70557" lon="6.45533">
        <ele>1170</ele>
        <time>2022-07-28T13:21:18Z</time>
      </trkpt>
      <trkpt lat="45.70557" lon="6.45534">
        <ele>1169</ele>
        <time>2022-07-28T13:21:19Z</time>
      </trkpt>
      <trkpt lat="45.70558" lon="6.45535">
        <ele>1169</ele>
        <time>2022-07-28T13:21:20Z</time>
      </trkpt>
      <trkpt lat="45.70559" lon="6.45536">
        <ele>1169</ele>
        <time>2022-07-28T13:21:21Z</time>
      </trkpt>
      <trkpt lat="45.7056" lon="6.45537">
        <ele>1168</ele>
        <time>2022-07-28T13:21:22Z</time>
      </trkpt>
      <trkpt lat="45.7056" lon="6.45538">
        <ele>1168</ele>
        <time>2022-07-28T13:21:23Z</time>
      </trkpt>
      <trkpt lat="45.70561" lon="6.45539">
        <ele>1168</ele>
        <time>2022-07-28T13:21:24Z</time>
      </trkpt>
      <trkpt lat="45.70562" lon="6.45539">
        <ele>1168</ele>
        <time>2022-07-28T13:21:25Z</time>
      </trkpt>
      <trkpt lat="45.70563" lon="6.45539">
        <ele>1168</ele>
        <time>2022-07-28T13:21:26Z</time>
      </trkpt>
      <trkpt lat="45.70564" lon="6.45539">
        <ele>1167</ele>
        <time>2022-07-28T13:21:27Z</time>
      </trkpt>
      <trkpt lat="45.70565" lon="6.45539">
        <ele>1167</ele>
        <time>2022-07-28T13:21:28Z</time>
      </trkpt>
      <trkpt lat="45.70565" lon="6.45539">
        <ele>1167</ele>
        <time>2022-07-28T13:21:29Z</time>
      </trkpt>
      <trkpt lat="45.70566" lon="6.45539">
        <ele>1167</ele>
        <time>2022-07-28T13:21:30Z</time>
      </trkpt>
      <trkpt lat="45.70567" lon="6.45539">
        <ele>1167</ele>
        <time>2022-07-28T13:21:31Z</time>
      </trkpt>
      <trkpt lat="45.70568" lon="6.45539">
        <ele>1166</ele>
        <time>2022-07-28T13:21:32Z</time>
      </trkpt>
      <trkpt lat="45.70568" lon="6.45539">
        <ele>1166</ele>
        <time>2022-07-28T13:21:33Z</time>
      </trkpt>
      <trkpt lat="45.70569" lon="6.45539">
        <ele>1165</ele>
        <time>2022-07-28T13:21:34Z</time>
      </trkpt>
      <trkpt lat="45.7057" lon="6.45539">
        <ele>1165</ele>
        <time>2022-07-28T13:21:35Z</time>
      </trkpt>
      <trkpt lat="45.70571" lon="6.45539">
        <ele>1165</ele>
        <time>2022-07-28T13:21:36Z</time>
      </trkpt>
      <trkpt lat="45.70572" lon="6.45538">
        <ele>1164</ele>
        <time>2022-07-28T13:21:37Z</time>
      </trkpt>
      <trkpt lat="45.70573" lon="6.45538">
        <ele>1164</ele>
        <time>2022-07-28T13:21:38Z</time>
      </trkpt>
      <trkpt lat="45.70574" lon="6.45538">
        <ele>1164</ele>
        <time>2022-07-28T13:21:39Z</time>
      </trkpt>
      <trkpt lat="45.70575" lon="6.45538">
        <ele>1164</ele>
        <time>2022-07-28T13:21:40Z</time>
      </trkpt>
      <trkpt lat="45.70576" lon="6.45539">
        <ele>1164</ele>
        <time>2022-07-28T13:21:41Z</time>
      </trkpt>
      <trkpt lat="45.70577" lon="6.45539">
        <ele>1163</ele>
        <time>2022-07-28T13:21:42Z</time>
      </trkpt>
      <trkpt lat="45.70578" lon="6.45539">
        <ele>1163</ele>
        <time>2022-07-28T13:21:43Z</time>
      </trkpt>
      <trkpt lat="45.70579" lon="6.45539">
        <ele>1163</ele>
        <time>2022-07-28T13:21:44Z</time>
      </trkpt>
      <trkpt lat="45.7058" lon="6.4554">
        <ele>1163</ele>
        <time>2022-07-28T13:21:45Z</time>
      </trkpt>
      <trkpt lat="45.7058" lon="6.4554">
        <ele>1163</ele>
        <time>2022-07-28T13:21:46Z</time>
      </trkpt>
      <trkpt lat="45.70581" lon="6.4554">
        <ele>1162</ele>
        <time>2022-07-28T13:21:47Z</time>
      </trkpt>
      <trkpt lat="45.70582" lon="6.4554">
        <ele>1162</ele>
        <time>2022-07-28T13:21:48Z</time>
      </trkpt>
      <trkpt lat="45.70583" lon="6.4554">
        <ele>1162</ele>
        <time>2022-07-28T13:21:49Z</time>
      </trkpt>
      <trkpt lat="45.70584" lon="6.4554">
        <ele>1162</ele>
        <time>2022-07-28T13:21:50Z</time>
      </trkpt>
      <trkpt lat="45.70585" lon="6.4554">
        <ele>1162</ele>
        <time>2022-07-28T13:21:51Z</time>
      </trkpt>
      <trkpt lat="45.70586" lon="6.4554">
        <ele>1161</ele>
        <time>2022-07-28T13:21:52Z</time>
      </trkpt>
      <trkpt lat="45.70587" lon="6.4554">
        <ele>1161</ele>
        <time>2022-07-28T13:21:53Z</time>
      </trkpt>
      <trkpt lat="45.70588" lon="6.45541">
        <ele>1161</ele>
        <time>2022-07-28T13:21:54Z</time>
      </trkpt>
      <trkpt lat="45.70588" lon="6.45541">
        <ele>1161</ele>
        <time>2022-07-28T13:21:55Z</time>
      </trkpt>
      <trkpt lat="45.70589" lon="6.45541">
        <ele>1161</ele>
        <time>2022-07-28T13:21:56Z</time>
      </trkpt>
      <trkpt lat="45.7059" lon="6.45541">
        <ele>1160</ele>
        <time>2022-07-28T13:21:57Z</time>
      </trkpt>
      <trkpt lat="45.7059" lon="6.45542">
        <ele>1160</ele>
        <time>2022-07-28T13:21:58Z</time>
      </trkpt>
      <trkpt lat="45.70591" lon="6.45542">
        <ele>1160</ele>
        <time>2022-07-28T13:21:59Z</time>
      </trkpt>
      <trkpt lat="45.70592" lon="6.45542">
        <ele>1160</ele>
        <time>2022-07-28T13:22:00Z</time>
      </trkpt>
      <trkpt lat="45.70592" lon="6.45542">
        <ele>1160</ele>
        <time>2022-07-28T13:22:01Z</time>
      </trkpt>
      <trkpt lat="45.70593" lon="6.45542">
        <ele>1159</ele>
        <time>2022-07-28T13:22:02Z</time>
      </trkpt>
      <trkpt lat="45.70594" lon="6.45543">
        <ele>1159</ele>
        <time>2022-07-28T13:22:03Z</time>
      </trkpt>
      <trkpt lat="45.70594" lon="6.45543">
        <ele>1158</ele>
        <time>2022-07-28T13:22:04Z</time>
      </trkpt>
      <trkpt lat="45.70595" lon="6.45543">
        <ele>1158</ele>
        <time>2022-07-28T13:22:05Z</time>
      </trkpt>
      <trkpt lat="45.70596" lon="6.45543">
        <ele>1158</ele>
        <time>2022-07-28T13:22:06Z</time>
      </trkpt>
      <trkpt lat="45.70597" lon="6.45544">
        <ele>1157</ele>
        <time>2022-07-28T13:22:07Z</time>
      </trkpt>
      <trkpt lat="45.70597" lon="6.45544">
        <ele>1157</ele>
        <time>2022-07-28T13:22:08Z</time>
      </trkpt>
      <trkpt lat="45.70598" lon="6.45544">
        <ele>1156</ele>
        <time>2022-07-28T13:22:09Z</time>
      </trkpt>
      <trkpt lat="45.70599" lon="6.45544">
        <ele>1156</ele>
        <time>2022-07-28T13:22:10Z</time>
      </trkpt>
      <trkpt lat="45.706" lon="6.45544">
        <ele>1156</ele>
        <time>2022-07-28T13:22:11Z</time>
      </trkpt>
      <trkpt lat="45.706" lon="6.45544">
        <ele>1155</ele>
        <time>2022-07-28T13:22:12Z</time>
      </trkpt>
      <trkpt lat="45.70601" lon="6.45545">
        <ele>1155</ele>
        <time>2022-07-28T13:22:13Z</time>
      </trkpt>
      <trkpt lat="45.70602" lon="6.45545">
        <ele>1155</ele>
        <time>2022-07-28T13:22:14Z</time>
      </trkpt>
      <trkpt lat="45.70603" lon="6.45545">
        <ele>1155</ele>
        <time>2022-07-28T13:22:15Z</time>
      </trkpt>
      <trkpt lat="45.70603" lon="6.45545">
        <ele>1155</ele>
        <time>2022-07-28T13:22:16Z</time>
      </trkpt>
      <trkpt lat="45.70604" lon="6.45546">
        <ele>1154</ele>
        <time>2022-07-28T13:22:17Z</time>
      </trkpt>
      <trkpt lat="45.70605" lon="6.45546">
        <ele>1154</ele>
        <time>2022-07-28T13:22:18Z</time>
      </trkpt>
      <trkpt lat="45.70606" lon="6.45546">
        <ele>1154</ele>
        <time>2022-07-28T13:22:19Z</time>
      </trkpt>
      <trkpt lat="45.70607" lon="6.45546">
        <ele>1154</ele>
        <time>2022-07-28T13:22:20Z</time>
      </trkpt>
      <trkpt lat="45.70607" lon="6.45547">
        <ele>1154</ele>
        <time>2022-07-28T13:22:21Z</time>
      </trkpt>
      <trkpt lat="45.70608" lon="6.45547">
        <ele>1153</ele>
        <time>2022-07-28T13:22:22Z</time>
      </trkpt>
      <trkpt lat="45.70609" lon="6.45547">
        <ele>1153</ele>
        <time>2022-07-28T13:22:23Z</time>
      </trkpt>
      <trkpt lat="45.70609" lon="6.45548">
        <ele>1152</ele>
        <time>2022-07-28T13:22:24Z</time>
      </trkpt>
      <trkpt lat="45.7061" lon="6.45548">
        <ele>1152</ele>
        <time>2022-07-28T13:22:25Z</time>
      </trkpt>
      <trkpt lat="45.7061" lon="6.45549">
        <ele>1151</ele>
        <time>2022-07-28T13:22:34Z</time>
      </trkpt>
      <trkpt lat="45.70611" lon="6.4555">
        <ele>1151</ele>
        <time>2022-07-28T13:22:35Z</time>
      </trkpt>
      <trkpt lat="45.70611" lon="6.4555">
        <ele>1151</ele>
        <time>2022-07-28T13:22:36Z</time>
      </trkpt>
      <trkpt lat="45.70612" lon="6.45551">
        <ele>1150</ele>
        <time>2022-07-28T13:22:37Z</time>
      </trkpt>
      <trkpt lat="45.70612" lon="6.45551">
        <ele>1150</ele>
        <time>2022-07-28T13:22:38Z</time>
      </trkpt>
      <trkpt lat="45.70613" lon="6.45552">
        <ele>1150</ele>
        <time>2022-07-28T13:22:39Z</time>
      </trkpt>
      <trkpt lat="45.70614" lon="6.45553">
        <ele>1150</ele>
        <time>2022-07-28T13:22:40Z</time>
      </trkpt>
      <trkpt lat="45.70615" lon="6.45554">
        <ele>1150</ele>
        <time>2022-07-28T13:22:41Z</time>
      </trkpt>
      <trkpt lat="45.70615" lon="6.45554">
        <ele>1149</ele>
        <time>2022-07-28T13:22:42Z</time>
      </trkpt>
      <trkpt lat="45.70616" lon="6.45555">
        <ele>1149</ele>
        <time>2022-07-28T13:22:43Z</time>
      </trkpt>
      <trkpt lat="45.70617" lon="6.45556">
        <ele>1149</ele>
        <time>2022-07-28T13:22:44Z</time>
      </trkpt>
      <trkpt lat="45.70618" lon="6.45557">
        <ele>1149</ele>
        <time>2022-07-28T13:22:45Z</time>
      </trkpt>
      <trkpt lat="45.70619" lon="6.45557">
        <ele>1149</ele>
        <time>2022-07-28T13:22:46Z</time>
      </trkpt>
      <trkpt lat="45.7062" lon="6.45558">
        <ele>1148</ele>
        <time>2022-07-28T13:22:47Z</time>
      </trkpt>
      <trkpt lat="45.70621" lon="6.45559">
        <ele>1148</ele>
        <time>2022-07-28T13:22:48Z</time>
      </trkpt>
      <trkpt lat="45.70622" lon="6.45559">
        <ele>1147</ele>
        <time>2022-07-28T13:22:49Z</time>
      </trkpt>
      <trkpt lat="45.70623" lon="6.4556">
        <ele>1147</ele>
        <time>2022-07-28T13:22:50Z</time>
      </trkpt>
      <trkpt lat="45.70624" lon="6.45561">
        <ele>1147</ele>
        <time>2022-07-28T13:22:51Z</time>
      </trkpt>
      <trkpt lat="45.70625" lon="6.45562">
        <ele>1146</ele>
        <time>2022-07-28T13:22:52Z</time>
      </trkpt>
      <trkpt lat="45.70626" lon="6.45563">
        <ele>1146</ele>
        <time>2022-07-28T13:22:53Z</time>
      </trkpt>
      <trkpt lat="45.70626" lon="6.45564">
        <ele>1146</ele>
        <time>2022-07-28T13:22:54Z</time>
      </trkpt>
      <trkpt lat="45.70627" lon="6.45565">
        <ele>1146</ele>
        <time>2022-07-28T13:22:55Z</time>
      </trkpt>
      <trkpt lat="45.70628" lon="6.45566">
        <ele>1146</ele>
        <time>2022-07-28T13:22:56Z</time>
      </trkpt>
      <trkpt lat="45.70629" lon="6.45567">
        <ele>1145</ele>
        <time>2022-07-28T13:22:57Z</time>
      </trkpt>
      <trkpt lat="45.7063" lon="6.45568">
        <ele>1145</ele>
        <time>2022-07-28T13:22:58Z</time>
      </trkpt>
      <trkpt lat="45.70631" lon="6.45569">
        <ele>1145</ele>
        <time>2022-07-28T13:22:59Z</time>
      </trkpt>
      <trkpt lat="45.70632" lon="6.4557">
        <ele>1145</ele>
        <time>2022-07-28T13:23:00Z</time>
      </trkpt>
      <trkpt lat="45.70632" lon="6.45571">
        <ele>1145</ele>
        <time>2022-07-28T13:23:01Z</time>
      </trkpt>
      <trkpt lat="45.70633" lon="6.45571">
        <ele>1144</ele>
        <time>2022-07-28T13:23:02Z</time>
      </trkpt>
      <trkpt lat="45.70634" lon="6.45572">
        <ele>1144</ele>
        <time>2022-07-28T13:23:03Z</time>
      </trkpt>
      <trkpt lat="45.70634" lon="6.45573">
        <ele>1143</ele>
        <time>2022-07-28T13:23:04Z</time>
      </trkpt>
      <trkpt lat="45.70635" lon="6.45574">
        <ele>1143</ele>
        <time>2022-07-28T13:23:05Z</time>
      </trkpt>
      <trkpt lat="45.70635" lon="6.45575">
        <ele>1143</ele>
        <time>2022-07-28T13:23:06Z</time>
      </trkpt>
      <trkpt lat="45.70636" lon="6.45576">
        <ele>1143</ele>
        <time>2022-07-28T13:23:07Z</time>
      </trkpt>
      <trkpt lat="45.70636" lon="6.45576">
        <ele>1143</ele>
        <time>2022-07-28T13:23:08Z</time>
      </trkpt>
      <trkpt lat="45.70636" lon="6.45577">
        <ele>1143</ele>
        <time>2022-07-28T13:23:09Z</time>
      </trkpt>
      <trkpt lat="45.70637" lon="6.45578">
        <ele>1143</ele>
        <time>2022-07-28T13:23:10Z</time>
      </trkpt>
      <trkpt lat="45.70637" lon="6.4558">
        <ele>1140</ele>
        <time>2022-07-28T13:23:50Z</time>
      </trkpt>
      <trkpt lat="45.70637" lon="6.4558">
        <ele>1140</ele>
        <time>2022-07-28T13:23:51Z</time>
      </trkpt>
      <trkpt lat="45.70637" lon="6.45581">
        <ele>1140</ele>
        <time>2022-07-28T13:23:52Z</time>
      </trkpt>
      <trkpt lat="45.70637" lon="6.45582">
        <ele>1140</ele>
        <time>2022-07-28T13:23:53Z</time>
      </trkpt>
      <trkpt lat="45.70637" lon="6.45583">
        <ele>1140</ele>
        <time>2022-07-28T13:23:54Z</time>
      </trkpt>
      <trkpt lat="45.70636" lon="6.45584">
        <ele>1140</ele>
        <time>2022-07-28T13:23:55Z</time>
      </trkpt>
      <trkpt lat="45.70636" lon="6.45585">
        <ele>1140</ele>
        <time>2022-07-28T13:23:56Z</time>
      </trkpt>
      <trkpt lat="45.70636" lon="6.45586">
        <ele>1139</ele>
        <time>2022-07-28T13:23:57Z</time>
      </trkpt>
      <trkpt lat="45.70635" lon="6.45587">
        <ele>1139</ele>
        <time>2022-07-28T13:23:58Z</time>
      </trkpt>
      <trkpt lat="45.70635" lon="6.45588">
        <ele>1139</ele>
        <time>2022-07-28T13:23:59Z</time>
      </trkpt>
      <trkpt lat="45.70635" lon="6.4559">
        <ele>1139</ele>
        <time>2022-07-28T13:24:00Z</time>
      </trkpt>
      <trkpt lat="45.70635" lon="6.45591">
        <ele>1139</ele>
        <time>2022-07-28T13:24:01Z</time>
      </trkpt>
      <trkpt lat="45.70634" lon="6.45592">
        <ele>1138</ele>
        <time>2022-07-28T13:24:02Z</time>
      </trkpt>
      <trkpt lat="45.70634" lon="6.45593">
        <ele>1138</ele>
        <time>2022-07-28T13:24:03Z</time>
      </trkpt>
      <trkpt lat="45.70634" lon="6.45594">
        <ele>1137</ele>
        <time>2022-07-28T13:24:04Z</time>
      </trkpt>
      <trkpt lat="45.70634" lon="6.45596">
        <ele>1137</ele>
        <time>2022-07-28T13:24:05Z</time>
      </trkpt>
      <trkpt lat="45.70634" lon="6.45597">
        <ele>1137</ele>
        <time>2022-07-28T13:24:06Z</time>
      </trkpt>
      <trkpt lat="45.70634" lon="6.45599">
        <ele>1136</ele>
        <time>2022-07-28T13:24:07Z</time>
      </trkpt>
      <trkpt lat="45.70634" lon="6.456">
        <ele>1136</ele>
        <time>2022-07-28T13:24:08Z</time>
      </trkpt>
      <trkpt lat="45.70633" lon="6.45602">
        <ele>1136</ele>
        <time>2022-07-28T13:24:09Z</time>
      </trkpt>
      <trkpt lat="45.70633" lon="6.45603">
        <ele>1136</ele>
        <time>2022-07-28T13:24:10Z</time>
      </trkpt>
      <trkpt lat="45.70633" lon="6.45604">
        <ele>1136</ele>
        <time>2022-07-28T13:24:11Z</time>
      </trkpt>
      <trkpt lat="45.70633" lon="6.45606">
        <ele>1135</ele>
        <time>2022-07-28T13:24:12Z</time>
      </trkpt>
      <trkpt lat="45.70633" lon="6.45607">
        <ele>1135</ele>
        <time>2022-07-28T13:24:13Z</time>
      </trkpt>
      <trkpt lat="45.70633" lon="6.45608">
        <ele>1135</ele>
        <time>2022-07-28T13:24:14Z</time>
      </trkpt>
      <trkpt lat="45.70633" lon="6.45609">
        <ele>1135</ele>
        <time>2022-07-28T13:24:15Z</time>
      </trkpt>
      <trkpt lat="45.70632" lon="6.45611">
        <ele>1135</ele>
        <time>2022-07-28T13:24:16Z</time>
      </trkpt>
      <trkpt lat="45.70632" lon="6.45612">
        <ele>1134</ele>
        <time>2022-07-28T13:24:17Z</time>
      </trkpt>
      <trkpt lat="45.70631" lon="6.45613">
        <ele>1134</ele>
        <time>2022-07-28T13:24:18Z</time>
      </trkpt>
      <trkpt lat="45.70631" lon="6.45613">
        <ele>1133</ele>
        <time>2022-07-28T13:24:19Z</time>
      </trkpt>
      <trkpt lat="45.7063" lon="6.45614">
        <ele>1133</ele>
        <time>2022-07-28T13:24:20Z</time>
      </trkpt>
      <trkpt lat="45.70629" lon="6.45614">
        <ele>1133</ele>
        <time>2022-07-28T13:24:21Z</time>
      </trkpt>
      <trkpt lat="45.70628" lon="6.45615">
        <ele>1132</ele>
        <time>2022-07-28T13:24:22Z</time>
      </trkpt>
      <trkpt lat="45.70627" lon="6.45615">
        <ele>1132</ele>
        <time>2022-07-28T13:24:23Z</time>
      </trkpt>
      <trkpt lat="45.70626" lon="6.45616">
        <ele>1132</ele>
        <time>2022-07-28T13:24:24Z</time>
      </trkpt>
      <trkpt lat="45.70625" lon="6.45616">
        <ele>1132</ele>
        <time>2022-07-28T13:24:25Z</time>
      </trkpt>
      <trkpt lat="45.70623" lon="6.45617">
        <ele>1132</ele>
        <time>2022-07-28T13:24:26Z</time>
      </trkpt>
      <trkpt lat="45.70622" lon="6.45617">
        <ele>1131</ele>
        <time>2022-07-28T13:24:27Z</time>
      </trkpt>
      <trkpt lat="45.70621" lon="6.45618">
        <ele>1130</ele>
        <time>2022-07-28T13:24:28Z</time>
      </trkpt>
      <trkpt lat="45.7062" lon="6.45619">
        <ele>1130</ele>
        <time>2022-07-28T13:24:29Z</time>
      </trkpt>
      <trkpt lat="45.70619" lon="6.45621">
        <ele>1129</ele>
        <time>2022-07-28T13:24:30Z</time>
      </trkpt>
      <trkpt lat="45.70618" lon="6.45622">
        <ele>1129</ele>
        <time>2022-07-28T13:24:31Z</time>
      </trkpt>
      <trkpt lat="45.70617" lon="6.45624">
        <ele>1128</ele>
        <time>2022-07-28T13:24:32Z</time>
      </trkpt>
      <trkpt lat="45.70617" lon="6.45625">
        <ele>1128</ele>
        <time>2022-07-28T13:24:33Z</time>
      </trkpt>
      <trkpt lat="45.70616" lon="6.45627">
        <ele>1127</ele>
        <time>2022-07-28T13:24:34Z</time>
      </trkpt>
      <trkpt lat="45.70615" lon="6.45629">
        <ele>1127</ele>
        <time>2022-07-28T13:24:35Z</time>
      </trkpt>
      <trkpt lat="45.70614" lon="6.45631">
        <ele>1127</ele>
        <time>2022-07-28T13:24:36Z</time>
      </trkpt>
      <trkpt lat="45.70614" lon="6.45632">
        <ele>1126</ele>
        <time>2022-07-28T13:24:37Z</time>
      </trkpt>
      <trkpt lat="45.70613" lon="6.45634">
        <ele>1126</ele>
        <time>2022-07-28T13:24:38Z</time>
      </trkpt>
      <trkpt lat="45.70613" lon="6.45636">
        <ele>1126</ele>
        <time>2022-07-28T13:24:39Z</time>
      </trkpt>
      <trkpt lat="45.70612" lon="6.45637">
        <ele>1126</ele>
        <time>2022-07-28T13:24:40Z</time>
      </trkpt>
      <trkpt lat="45.70611" lon="6.45639">
        <ele>1126</ele>
        <time>2022-07-28T13:24:41Z</time>
      </trkpt>
      <trkpt lat="45.70611" lon="6.4564">
        <ele>1125</ele>
        <time>2022-07-28T13:24:42Z</time>
      </trkpt>
      <trkpt lat="45.7061" lon="6.45643">
        <ele>1125</ele>
        <time>2022-07-28T13:24:43Z</time>
      </trkpt>
      <trkpt lat="45.70609" lon="6.45645">
        <ele>1125</ele>
        <time>2022-07-28T13:24:44Z</time>
      </trkpt>
      <trkpt lat="45.70608" lon="6.45647">
        <ele>1125</ele>
        <time>2022-07-28T13:24:45Z</time>
      </trkpt>
      <trkpt lat="45.70607" lon="6.45649">
        <ele>1125</ele>
        <time>2022-07-28T13:24:46Z</time>
      </trkpt>
      <trkpt lat="45.70606" lon="6.45651">
        <ele>1124</ele>
        <time>2022-07-28T13:24:47Z</time>
      </trkpt>
      <trkpt lat="45.70605" lon="6.45653">
        <ele>1124</ele>
        <time>2022-07-28T13:24:48Z</time>
      </trkpt>
      <trkpt lat="45.70605" lon="6.45656">
        <ele>1123</ele>
        <time>2022-07-28T13:24:49Z</time>
      </trkpt>
      <trkpt lat="45.70604" lon="6.45658">
        <ele>1123</ele>
        <time>2022-07-28T13:24:50Z</time>
      </trkpt>
      <trkpt lat="45.70603" lon="6.4566">
        <ele>1123</ele>
        <time>2022-07-28T13:24:51Z</time>
      </trkpt>
      <trkpt lat="45.70602" lon="6.45662">
        <ele>1122</ele>
        <time>2022-07-28T13:24:52Z</time>
      </trkpt>
      <trkpt lat="45.70602" lon="6.45664">
        <ele>1122</ele>
        <time>2022-07-28T13:24:53Z</time>
      </trkpt>
      <trkpt lat="45.70601" lon="6.45666">
        <ele>1122</ele>
        <time>2022-07-28T13:24:54Z</time>
      </trkpt>
      <trkpt lat="45.70601" lon="6.45668">
        <ele>1122</ele>
        <time>2022-07-28T13:24:55Z</time>
      </trkpt>
      <trkpt lat="45.706" lon="6.4567">
        <ele>1122</ele>
        <time>2022-07-28T13:24:56Z</time>
      </trkpt>
      <trkpt lat="45.706" lon="6.45672">
        <ele>1122</ele>
        <time>2022-07-28T13:24:57Z</time>
      </trkpt>
      <trkpt lat="45.706" lon="6.45674">
        <ele>1122</ele>
        <time>2022-07-28T13:24:58Z</time>
      </trkpt>
      <trkpt lat="45.70599" lon="6.45676">
        <ele>1122</ele>
        <time>2022-07-28T13:24:59Z</time>
      </trkpt>
      <trkpt lat="45.70599" lon="6.45678">
        <ele>1122</ele>
        <time>2022-07-28T13:25:00Z</time>
      </trkpt>
      <trkpt lat="45.70599" lon="6.4568">
        <ele>1122</ele>
        <time>2022-07-28T13:25:01Z</time>
      </trkpt>
      <trkpt lat="45.70598" lon="6.45682">
        <ele>1121</ele>
        <time>2022-07-28T13:25:02Z</time>
      </trkpt>
      <trkpt lat="45.70598" lon="6.45683">
        <ele>1121</ele>
        <time>2022-07-28T13:25:03Z</time>
      </trkpt>
      <trkpt lat="45.70599" lon="6.45685">
        <ele>1120</ele>
        <time>2022-07-28T13:25:04Z</time>
      </trkpt>
      <trkpt lat="45.70599" lon="6.45686">
        <ele>1120</ele>
        <time>2022-07-28T13:25:05Z</time>
      </trkpt>
      <trkpt lat="45.706" lon="6.45687">
        <ele>1120</ele>
        <time>2022-07-28T13:25:06Z</time>
      </trkpt>
      <trkpt lat="45.706" lon="6.45689">
        <ele>1119</ele>
        <time>2022-07-28T13:25:07Z</time>
      </trkpt>
      <trkpt lat="45.70601" lon="6.4569">
        <ele>1119</ele>
        <time>2022-07-28T13:25:08Z</time>
      </trkpt>
      <trkpt lat="45.70602" lon="6.45691">
        <ele>1119</ele>
        <time>2022-07-28T13:25:09Z</time>
      </trkpt>
      <trkpt lat="45.70603" lon="6.45692">
        <ele>1119</ele>
        <time>2022-07-28T13:25:10Z</time>
      </trkpt>
      <trkpt lat="45.70604" lon="6.45693">
        <ele>1119</ele>
        <time>2022-07-28T13:25:11Z</time>
      </trkpt>
      <trkpt lat="45.70605" lon="6.45694">
        <ele>1118</ele>
        <time>2022-07-28T13:25:12Z</time>
      </trkpt>
      <trkpt lat="45.70606" lon="6.45694">
        <ele>1118</ele>
        <time>2022-07-28T13:25:13Z</time>
      </trkpt>
      <trkpt lat="45.70607" lon="6.45695">
        <ele>1117</ele>
        <time>2022-07-28T13:25:14Z</time>
      </trkpt>
      <trkpt lat="45.70608" lon="6.45695">
        <ele>1117</ele>
        <time>2022-07-28T13:25:15Z</time>
      </trkpt>
      <trkpt lat="45.70609" lon="6.45695">
        <ele>1117</ele>
        <time>2022-07-28T13:25:16Z</time>
      </trkpt>
      <trkpt lat="45.7061" lon="6.45696">
        <ele>1116</ele>
        <time>2022-07-28T13:25:17Z</time>
      </trkpt>
      <trkpt lat="45.70611" lon="6.45696">
        <ele>1116</ele>
        <time>2022-07-28T13:25:18Z</time>
      </trkpt>
      <trkpt lat="45.70612" lon="6.45697">
        <ele>1116</ele>
        <time>2022-07-28T13:25:19Z</time>
      </trkpt>
      <trkpt lat="45.70612" lon="6.45699">
        <ele>1116</ele>
        <time>2022-07-28T13:25:20Z</time>
      </trkpt>
      <trkpt lat="45.70613" lon="6.457">
        <ele>1116</ele>
        <time>2022-07-28T13:25:21Z</time>
      </trkpt>
      <trkpt lat="45.70613" lon="6.45702">
        <ele>1115</ele>
        <time>2022-07-28T13:25:22Z</time>
      </trkpt>
      <trkpt lat="45.70613" lon="6.45704">
        <ele>1115</ele>
        <time>2022-07-28T13:25:23Z</time>
      </trkpt>
      <trkpt lat="45.70613" lon="6.45705">
        <ele>1115</ele>
        <time>2022-07-28T13:25:24Z</time>
      </trkpt>
      <trkpt lat="45.70613" lon="6.45707">
        <ele>1115</ele>
        <time>2022-07-28T13:25:25Z</time>
      </trkpt>
      <trkpt lat="45.70613" lon="6.4571">
        <ele>1115</ele>
        <time>2022-07-28T13:25:26Z</time>
      </trkpt>
      <trkpt lat="45.70613" lon="6.45712">
        <ele>1114</ele>
        <time>2022-07-28T13:25:27Z</time>
      </trkpt>
      <trkpt lat="45.70613" lon="6.45714">
        <ele>1114</ele>
        <time>2022-07-28T13:25:28Z</time>
      </trkpt>
      <trkpt lat="45.70613" lon="6.45715">
        <ele>1113</ele>
        <time>2022-07-28T13:25:29Z</time>
      </trkpt>
      <trkpt lat="45.70612" lon="6.45717">
        <ele>1113</ele>
        <time>2022-07-28T13:25:30Z</time>
      </trkpt>
      <trkpt lat="45.70613" lon="6.45719">
        <ele>1113</ele>
        <time>2022-07-28T13:25:31Z</time>
      </trkpt>
      <trkpt lat="45.70613" lon="6.45721">
        <ele>1112</ele>
        <time>2022-07-28T13:25:32Z</time>
      </trkpt>
      <trkpt lat="45.70614" lon="6.45722">
        <ele>1112</ele>
        <time>2022-07-28T13:25:33Z</time>
      </trkpt>
      <trkpt lat="45.70615" lon="6.45724">
        <ele>1112</ele>
        <time>2022-07-28T13:25:34Z</time>
      </trkpt>
      <trkpt lat="45.70616" lon="6.45725">
        <ele>1112</ele>
        <time>2022-07-28T13:25:35Z</time>
      </trkpt>
      <trkpt lat="45.70617" lon="6.45726">
        <ele>1112</ele>
        <time>2022-07-28T13:25:36Z</time>
      </trkpt>
      <trkpt lat="45.70618" lon="6.45727">
        <ele>1111</ele>
        <time>2022-07-28T13:25:37Z</time>
      </trkpt>
      <trkpt lat="45.70619" lon="6.45728">
        <ele>1111</ele>
        <time>2022-07-28T13:25:38Z</time>
      </trkpt>
      <trkpt lat="45.7062" lon="6.45728">
        <ele>1111</ele>
        <time>2022-07-28T13:25:39Z</time>
      </trkpt>
      <trkpt lat="45.70622" lon="6.45728">
        <ele>1111</ele>
        <time>2022-07-28T13:25:40Z</time>
      </trkpt>
      <trkpt lat="45.70623" lon="6.45728">
        <ele>1111</ele>
        <time>2022-07-28T13:25:41Z</time>
      </trkpt>
      <trkpt lat="45.70624" lon="6.45729">
        <ele>1110</ele>
        <time>2022-07-28T13:25:42Z</time>
      </trkpt>
      <trkpt lat="45.70625" lon="6.45729">
        <ele>1110</ele>
        <time>2022-07-28T13:25:43Z</time>
      </trkpt>
      <trkpt lat="45.70626" lon="6.45729">
        <ele>1109</ele>
        <time>2022-07-28T13:25:44Z</time>
      </trkpt>
      <trkpt lat="45.70627" lon="6.45729">
        <ele>1109</ele>
        <time>2022-07-28T13:25:45Z</time>
      </trkpt>
      <trkpt lat="45.70628" lon="6.45729">
        <ele>1109</ele>
        <time>2022-07-28T13:25:46Z</time>
      </trkpt>
      <trkpt lat="45.70629" lon="6.45729">
        <ele>1108</ele>
        <time>2022-07-28T13:25:47Z</time>
      </trkpt>
      <trkpt lat="45.70631" lon="6.45729">
        <ele>1108</ele>
        <time>2022-07-28T13:25:48Z</time>
      </trkpt>
      <trkpt lat="45.70632" lon="6.45728">
        <ele>1108</ele>
        <time>2022-07-28T13:25:49Z</time>
      </trkpt>
      <trkpt lat="45.70633" lon="6.45728">
        <ele>1108</ele>
        <time>2022-07-28T13:25:50Z</time>
      </trkpt>
      <trkpt lat="45.70634" lon="6.45728">
        <ele>1108</ele>
        <time>2022-07-28T13:25:51Z</time>
      </trkpt>
      <trkpt lat="45.70635" lon="6.45728">
        <ele>1107</ele>
        <time>2022-07-28T13:25:52Z</time>
      </trkpt>
      <trkpt lat="45.70636" lon="6.45729">
        <ele>1107</ele>
        <time>2022-07-28T13:25:53Z</time>
      </trkpt>
      <trkpt lat="45.70637" lon="6.45729">
        <ele>1106</ele>
        <time>2022-07-28T13:25:54Z</time>
      </trkpt>
      <trkpt lat="45.70638" lon="6.4573">
        <ele>1106</ele>
        <time>2022-07-28T13:25:55Z</time>
      </trkpt>
      <trkpt lat="45.7064" lon="6.4573">
        <ele>1106</ele>
        <time>2022-07-28T13:25:56Z</time>
      </trkpt>
      <trkpt lat="45.70641" lon="6.45731">
        <ele>1105</ele>
        <time>2022-07-28T13:25:57Z</time>
      </trkpt>
      <trkpt lat="45.70642" lon="6.45732">
        <ele>1105</ele>
        <time>2022-07-28T13:25:58Z</time>
      </trkpt>
      <trkpt lat="45.70643" lon="6.45733">
        <ele>1105</ele>
        <time>2022-07-28T13:25:59Z</time>
      </trkpt>
      <trkpt lat="45.70644" lon="6.45734">
        <ele>1105</ele>
        <time>2022-07-28T13:26:00Z</time>
      </trkpt>
      <trkpt lat="45.70645" lon="6.45735">
        <ele>1105</ele>
        <time>2022-07-28T13:26:01Z</time>
      </trkpt>
      <trkpt lat="45.70645" lon="6.45736">
        <ele>1104</ele>
        <time>2022-07-28T13:26:02Z</time>
      </trkpt>
      <trkpt lat="45.70646" lon="6.45737">
        <ele>1103</ele>
        <time>2022-07-28T13:26:03Z</time>
      </trkpt>
      <trkpt lat="45.70647" lon="6.45738">
        <ele>1103</ele>
        <time>2022-07-28T13:26:04Z</time>
      </trkpt>
      <trkpt lat="45.70648" lon="6.45739">
        <ele>1102</ele>
        <time>2022-07-28T13:26:05Z</time>
      </trkpt>
      <trkpt lat="45.70648" lon="6.4574">
        <ele>1102</ele>
        <time>2022-07-28T13:26:06Z</time>
      </trkpt>
      <trkpt lat="45.70649" lon="6.45742">
        <ele>1101</ele>
        <time>2022-07-28T13:26:07Z</time>
      </trkpt>
      <trkpt lat="45.7065" lon="6.45743">
        <ele>1101</ele>
        <time>2022-07-28T13:26:08Z</time>
      </trkpt>
      <trkpt lat="45.7065" lon="6.45744">
        <ele>1101</ele>
        <time>2022-07-28T13:26:09Z</time>
      </trkpt>
      <trkpt lat="45.70651" lon="6.45745">
        <ele>1101</ele>
        <time>2022-07-28T13:26:10Z</time>
      </trkpt>
      <trkpt lat="45.70651" lon="6.45746">
        <ele>1101</ele>
        <time>2022-07-28T13:26:11Z</time>
      </trkpt>
      <trkpt lat="45.70652" lon="6.45747">
        <ele>1100</ele>
        <time>2022-07-28T13:26:12Z</time>
      </trkpt>
      <trkpt lat="45.70653" lon="6.45748">
        <ele>1100</ele>
        <time>2022-07-28T13:26:13Z</time>
      </trkpt>
      <trkpt lat="45.70654" lon="6.45749">
        <ele>1099</ele>
        <time>2022-07-28T13:26:14Z</time>
      </trkpt>
      <trkpt lat="45.70654" lon="6.4575">
        <ele>1099</ele>
        <time>2022-07-28T13:26:15Z</time>
      </trkpt>
      <trkpt lat="45.70655" lon="6.45751">
        <ele>1099</ele>
        <time>2022-07-28T13:26:16Z</time>
      </trkpt>
      <trkpt lat="45.70655" lon="6.45753">
        <ele>1097</ele>
        <time>2022-07-28T13:26:37Z</time>
      </trkpt>
      <trkpt lat="45.70655" lon="6.45754">
        <ele>1097</ele>
        <time>2022-07-28T13:26:38Z</time>
      </trkpt>
      <trkpt lat="45.70655" lon="6.45755">
        <ele>1097</ele>
        <time>2022-07-28T13:26:39Z</time>
      </trkpt>
      <trkpt lat="45.70654" lon="6.45756">
        <ele>1097</ele>
        <time>2022-07-28T13:26:40Z</time>
      </trkpt>
      <trkpt lat="45.70654" lon="6.45757">
        <ele>1097</ele>
        <time>2022-07-28T13:26:41Z</time>
      </trkpt>
      <trkpt lat="45.70654" lon="6.45759">
        <ele>1096</ele>
        <time>2022-07-28T13:26:42Z</time>
      </trkpt>
      <trkpt lat="45.70653" lon="6.4576">
        <ele>1096</ele>
        <time>2022-07-28T13:26:43Z</time>
      </trkpt>
      <trkpt lat="45.70653" lon="6.45762">
        <ele>1096</ele>
        <time>2022-07-28T13:26:44Z</time>
      </trkpt>
      <trkpt lat="45.70652" lon="6.45763">
        <ele>1096</ele>
        <time>2022-07-28T13:26:45Z</time>
      </trkpt>
      <trkpt lat="45.70652" lon="6.45764">
        <ele>1096</ele>
        <time>2022-07-28T13:26:46Z</time>
      </trkpt>
      <trkpt lat="45.70652" lon="6.45765">
        <ele>1095</ele>
        <time>2022-07-28T13:26:47Z</time>
      </trkpt>
      <trkpt lat="45.70652" lon="6.45766">
        <ele>1095</ele>
        <time>2022-07-28T13:26:48Z</time>
      </trkpt>
      <trkpt lat="45.70653" lon="6.45767">
        <ele>1095</ele>
        <time>2022-07-28T13:26:49Z</time>
      </trkpt>
      <trkpt lat="45.70653" lon="6.45768">
        <ele>1095</ele>
        <time>2022-07-28T13:26:50Z</time>
      </trkpt>
      <trkpt lat="45.70653" lon="6.45768">
        <ele>1095</ele>
        <time>2022-07-28T13:26:51Z</time>
      </trkpt>
      <trkpt lat="45.70653" lon="6.45768">
        <ele>1094</ele>
        <time>2022-07-28T13:26:52Z</time>
      </trkpt>
      <trkpt lat="45.70653" lon="6.45769">
        <ele>1094</ele>
        <time>2022-07-28T13:26:53Z</time>
      </trkpt>
      <trkpt lat="45.70653" lon="6.45769">
        <ele>1094</ele>
        <time>2022-07-28T13:26:54Z</time>
      </trkpt>
      <trkpt lat="45.70654" lon="6.45769">
        <ele>1094</ele>
        <time>2022-07-28T13:26:55Z</time>
      </trkpt>
      <trkpt lat="45.70654" lon="6.4577">
        <ele>1094</ele>
        <time>2022-07-28T13:26:56Z</time>
      </trkpt>
      <trkpt lat="45.70654" lon="6.45771">
        <ele>1094</ele>
        <time>2022-07-28T13:26:57Z</time>
      </trkpt>
      <trkpt lat="45.70655" lon="6.45772">
        <ele>1094</ele>
        <time>2022-07-28T13:26:58Z</time>
      </trkpt>
      <trkpt lat="45.70655" lon="6.45772">
        <ele>1094</ele>
        <time>2022-07-28T13:26:59Z</time>
      </trkpt>
      <trkpt lat="45.70656" lon="6.45773">
        <ele>1094</ele>
        <time>2022-07-28T13:27:00Z</time>
      </trkpt>
      <trkpt lat="45.70656" lon="6.45774">
        <ele>1094</ele>
        <time>2022-07-28T13:27:01Z</time>
      </trkpt>
      <trkpt lat="45.70657" lon="6.45775">
        <ele>1093</ele>
        <time>2022-07-28T13:27:02Z</time>
      </trkpt>
      <trkpt lat="45.70658" lon="6.45776">
        <ele>1093</ele>
        <time>2022-07-28T13:27:03Z</time>
      </trkpt>
      <trkpt lat="45.70659" lon="6.45776">
        <ele>1092</ele>
        <time>2022-07-28T13:27:04Z</time>
      </trkpt>
      <trkpt lat="45.70659" lon="6.45777">
        <ele>1092</ele>
        <time>2022-07-28T13:27:05Z</time>
      </trkpt>
      <trkpt lat="45.7066" lon="6.45778">
        <ele>1092</ele>
        <time>2022-07-28T13:27:06Z</time>
      </trkpt>
      <trkpt lat="45.7066" lon="6.45779">
        <ele>1091</ele>
        <time>2022-07-28T13:27:07Z</time>
      </trkpt>
      <trkpt lat="45.7066" lon="6.4578">
        <ele>1091</ele>
        <time>2022-07-28T13:27:08Z</time>
      </trkpt>
      <trkpt lat="45.70661" lon="6.45781">
        <ele>1091</ele>
        <time>2022-07-28T13:27:09Z</time>
      </trkpt>
      <trkpt lat="45.70661" lon="6.45782">
        <ele>1091</ele>
        <time>2022-07-28T13:27:10Z</time>
      </trkpt>
      <trkpt lat="45.70661" lon="6.45783">
        <ele>1091</ele>
        <time>2022-07-28T13:27:11Z</time>
      </trkpt>
      <trkpt lat="45.70661" lon="6.45783">
        <ele>1090</ele>
        <time>2022-07-28T13:27:12Z</time>
      </trkpt>
      <trkpt lat="45.70661" lon="6.45784">
        <ele>1090</ele>
        <time>2022-07-28T13:27:13Z</time>
      </trkpt>
      <trkpt lat="45.70661" lon="6.45785">
        <ele>1090</ele>
        <time>2022-07-28T13:27:14Z</time>
      </trkpt>
      <trkpt lat="45.70662" lon="6.45786">
        <ele>1090</ele>
        <time>2022-07-28T13:27:15Z</time>
      </trkpt>
      <trkpt lat="45.70662" lon="6.45787">
        <ele>1090</ele>
        <time>2022-07-28T13:27:16Z</time>
      </trkpt>
      <trkpt lat="45.70662" lon="6.45788">
        <ele>1089</ele>
        <time>2022-07-28T13:27:17Z</time>
      </trkpt>
      <trkpt lat="45.70662" lon="6.45789">
        <ele>1089</ele>
        <time>2022-07-28T13:27:18Z</time>
      </trkpt>
      <trkpt lat="45.70662" lon="6.4579">
        <ele>1089</ele>
        <time>2022-07-28T13:27:19Z</time>
      </trkpt>
      <trkpt lat="45.70662" lon="6.45791">
        <ele>1089</ele>
        <time>2022-07-28T13:27:20Z</time>
      </trkpt>
      <trkpt lat="45.70662" lon="6.45792">
        <ele>1089</ele>
        <time>2022-07-28T13:27:21Z</time>
      </trkpt>
      <trkpt lat="45.70663" lon="6.45793">
        <ele>1088</ele>
        <time>2022-07-28T13:27:22Z</time>
      </trkpt>
      <trkpt lat="45.70663" lon="6.45794">
        <ele>1088</ele>
        <time>2022-07-28T13:27:23Z</time>
      </trkpt>
      <trkpt lat="45.70663" lon="6.45795">
        <ele>1087</ele>
        <time>2022-07-28T13:27:24Z</time>
      </trkpt>
      <trkpt lat="45.70664" lon="6.45796">
        <ele>1087</ele>
        <time>2022-07-28T13:27:25Z</time>
      </trkpt>
      <trkpt lat="45.70665" lon="6.45797">
        <ele>1087</ele>
        <time>2022-07-28T13:27:26Z</time>
      </trkpt>
      <trkpt lat="45.70665" lon="6.45798">
        <ele>1086</ele>
        <time>2022-07-28T13:27:27Z</time>
      </trkpt>
      <trkpt lat="45.70666" lon="6.45798">
        <ele>1086</ele>
        <time>2022-07-28T13:27:28Z</time>
      </trkpt>
      <trkpt lat="45.70667" lon="6.45799">
        <ele>1086</ele>
        <time>2022-07-28T13:27:29Z</time>
      </trkpt>
      <trkpt lat="45.70667" lon="6.458">
        <ele>1086</ele>
        <time>2022-07-28T13:27:30Z</time>
      </trkpt>
      <trkpt lat="45.70668" lon="6.45801">
        <ele>1086</ele>
        <time>2022-07-28T13:27:31Z</time>
      </trkpt>
      <trkpt lat="45.70668" lon="6.45802">
        <ele>1085</ele>
        <time>2022-07-28T13:27:32Z</time>
      </trkpt>
      <trkpt lat="45.70669" lon="6.45803">
        <ele>1085</ele>
        <time>2022-07-28T13:27:33Z</time>
      </trkpt>
      <trkpt lat="45.7067" lon="6.45804">
        <ele>1084</ele>
        <time>2022-07-28T13:27:34Z</time>
      </trkpt>
      <trkpt lat="45.7067" lon="6.45805">
        <ele>1084</ele>
        <time>2022-07-28T13:27:35Z</time>
      </trkpt>
      <trkpt lat="45.70671" lon="6.45806">
        <ele>1084</ele>
        <time>2022-07-28T13:27:36Z</time>
      </trkpt>
      <trkpt lat="45.70672" lon="6.45807">
        <ele>1083</ele>
        <time>2022-07-28T13:27:37Z</time>
      </trkpt>
      <trkpt lat="45.70673" lon="6.45807">
        <ele>1083</ele>
        <time>2022-07-28T13:27:38Z</time>
      </trkpt>
      <trkpt lat="45.70674" lon="6.45808">
        <ele>1083</ele>
        <time>2022-07-28T13:27:39Z</time>
      </trkpt>
      <trkpt lat="45.70674" lon="6.45808">
        <ele>1083</ele>
        <time>2022-07-28T13:27:40Z</time>
      </trkpt>
      <trkpt lat="45.70675" lon="6.45809">
        <ele>1083</ele>
        <time>2022-07-28T13:27:41Z</time>
      </trkpt>
      <trkpt lat="45.70676" lon="6.45809">
        <ele>1082</ele>
        <time>2022-07-28T13:27:42Z</time>
      </trkpt>
      <trkpt lat="45.70677" lon="6.45809">
        <ele>1082</ele>
        <time>2022-07-28T13:27:43Z</time>
      </trkpt>
      <trkpt lat="45.70677" lon="6.45809">
        <ele>1082</ele>
        <time>2022-07-28T13:27:44Z</time>
      </trkpt>
      <trkpt lat="45.70678" lon="6.45808">
        <ele>1082</ele>
        <time>2022-07-28T13:27:45Z</time>
      </trkpt>
      <trkpt lat="45.70679" lon="6.45808">
        <ele>1082</ele>
        <time>2022-07-28T13:27:46Z</time>
      </trkpt>
      <trkpt lat="45.7068" lon="6.45808">
        <ele>1081</ele>
        <time>2022-07-28T13:27:47Z</time>
      </trkpt>
      <trkpt lat="45.70681" lon="6.45808">
        <ele>1081</ele>
        <time>2022-07-28T13:27:48Z</time>
      </trkpt>
      <trkpt lat="45.70682" lon="6.45807">
        <ele>1080</ele>
        <time>2022-07-28T13:27:49Z</time>
      </trkpt>
      <trkpt lat="45.70683" lon="6.45807">
        <ele>1080</ele>
        <time>2022-07-28T13:27:50Z</time>
      </trkpt>
      <trkpt lat="45.70684" lon="6.45807">
        <ele>1080</ele>
        <time>2022-07-28T13:27:51Z</time>
      </trkpt>
      <trkpt lat="45.70685" lon="6.45807">
        <ele>1079</ele>
        <time>2022-07-28T13:27:52Z</time>
      </trkpt>
      <trkpt lat="45.70686" lon="6.45807">
        <ele>1079</ele>
        <time>2022-07-28T13:27:53Z</time>
      </trkpt>
      <trkpt lat="45.70687" lon="6.45807">
        <ele>1079</ele>
        <time>2022-07-28T13:27:54Z</time>
      </trkpt>
      <trkpt lat="45.70688" lon="6.45808">
        <ele>1079</ele>
        <time>2022-07-28T13:27:55Z</time>
      </trkpt>
      <trkpt lat="45.70689" lon="6.45808">
        <ele>1079</ele>
        <time>2022-07-28T13:27:56Z</time>
      </trkpt>
      <trkpt lat="45.7069" lon="6.45808">
        <ele>1078</ele>
        <time>2022-07-28T13:27:57Z</time>
      </trkpt>
      <trkpt lat="45.7069" lon="6.45808">
        <ele>1077</ele>
        <time>2022-07-28T13:27:58Z</time>
      </trkpt>
      <trkpt lat="45.70691" lon="6.45809">
        <ele>1077</ele>
        <time>2022-07-28T13:27:59Z</time>
      </trkpt>
      <trkpt lat="45.70692" lon="6.45809">
        <ele>1076</ele>
        <time>2022-07-28T13:28:00Z</time>
      </trkpt>
      <trkpt lat="45.70693" lon="6.45809">
        <ele>1076</ele>
        <time>2022-07-28T13:28:01Z</time>
      </trkpt>
      <trkpt lat="45.70694" lon="6.45809">
        <ele>1075</ele>
        <time>2022-07-28T13:28:02Z</time>
      </trkpt>
      <trkpt lat="45.70695" lon="6.4581">
        <ele>1075</ele>
        <time>2022-07-28T13:28:03Z</time>
      </trkpt>
      <trkpt lat="45.70696" lon="6.4581">
        <ele>1075</ele>
        <time>2022-07-28T13:28:04Z</time>
      </trkpt>
      <trkpt lat="45.70697" lon="6.4581">
        <ele>1075</ele>
        <time>2022-07-28T13:28:05Z</time>
      </trkpt>
      <trkpt lat="45.70698" lon="6.4581">
        <ele>1075</ele>
        <time>2022-07-28T13:28:06Z</time>
      </trkpt>
      <trkpt lat="45.70699" lon="6.4581">
        <ele>1074</ele>
        <time>2022-07-28T13:28:07Z</time>
      </trkpt>
      <trkpt lat="45.707" lon="6.4581">
        <ele>1074</ele>
        <time>2022-07-28T13:28:08Z</time>
      </trkpt>
      <trkpt lat="45.70701" lon="6.45811">
        <ele>1074</ele>
        <time>2022-07-28T13:28:09Z</time>
      </trkpt>
      <trkpt lat="45.70702" lon="6.45811">
        <ele>1074</ele>
        <time>2022-07-28T13:28:10Z</time>
      </trkpt>
      <trkpt lat="45.70703" lon="6.45811">
        <ele>1074</ele>
        <time>2022-07-28T13:28:11Z</time>
      </trkpt>
      <trkpt lat="45.70704" lon="6.45812">
        <ele>1073</ele>
        <time>2022-07-28T13:28:12Z</time>
      </trkpt>
      <trkpt lat="45.70705" lon="6.45813">
        <ele>1073</ele>
        <time>2022-07-28T13:28:13Z</time>
      </trkpt>
      <trkpt lat="45.70706" lon="6.45814">
        <ele>1072</ele>
        <time>2022-07-28T13:28:14Z</time>
      </trkpt>
      <trkpt lat="45.70707" lon="6.45815">
        <ele>1072</ele>
        <time>2022-07-28T13:28:15Z</time>
      </trkpt>
      <trkpt lat="45.70707" lon="6.45816">
        <ele>1072</ele>
        <time>2022-07-28T13:28:16Z</time>
      </trkpt>
      <trkpt lat="45.70708" lon="6.45817">
        <ele>1071</ele>
        <time>2022-07-28T13:28:17Z</time>
      </trkpt>
      <trkpt lat="45.70709" lon="6.45818">
        <ele>1071</ele>
        <time>2022-07-28T13:28:18Z</time>
      </trkpt>
      <trkpt lat="45.70709" lon="6.45818">
        <ele>1071</ele>
        <time>2022-07-28T13:28:19Z</time>
      </trkpt>
      <trkpt lat="45.7071" lon="6.45819">
        <ele>1071</ele>
        <time>2022-07-28T13:28:20Z</time>
      </trkpt>
      <trkpt lat="45.70711" lon="6.4582">
        <ele>1071</ele>
        <time>2022-07-28T13:28:21Z</time>
      </trkpt>
      <trkpt lat="45.70711" lon="6.4582">
        <ele>1070</ele>
        <time>2022-07-28T13:28:22Z</time>
      </trkpt>
      <trkpt lat="45.70712" lon="6.45821">
        <ele>1070</ele>
        <time>2022-07-28T13:28:23Z</time>
      </trkpt>
      <trkpt lat="45.70713" lon="6.45822">
        <ele>1069</ele>
        <time>2022-07-28T13:28:24Z</time>
      </trkpt>
      <trkpt lat="45.70713" lon="6.45822">
        <ele>1069</ele>
        <time>2022-07-28T13:28:25Z</time>
      </trkpt>
      <trkpt lat="45.70714" lon="6.45824">
        <ele>1069</ele>
        <time>2022-07-28T13:28:26Z</time>
      </trkpt>
      <trkpt lat="45.70714" lon="6.45825">
        <ele>1068</ele>
        <time>2022-07-28T13:28:27Z</time>
      </trkpt>
      <trkpt lat="45.70714" lon="6.45826">
        <ele>1068</ele>
        <time>2022-07-28T13:28:28Z</time>
      </trkpt>
      <trkpt lat="45.70715" lon="6.45827">
        <ele>1068</ele>
        <time>2022-07-28T13:28:29Z</time>
      </trkpt>
      <trkpt lat="45.70715" lon="6.45828">
        <ele>1068</ele>
        <time>2022-07-28T13:28:30Z</time>
      </trkpt>
      <trkpt lat="45.70715" lon="6.45829">
        <ele>1068</ele>
        <time>2022-07-28T13:28:31Z</time>
      </trkpt>
      <trkpt lat="45.70716" lon="6.4583">
        <ele>1067</ele>
        <time>2022-07-28T13:28:32Z</time>
      </trkpt>
      <trkpt lat="45.70717" lon="6.45831">
        <ele>1067</ele>
        <time>2022-07-28T13:28:33Z</time>
      </trkpt>
      <trkpt lat="45.70717" lon="6.45831">
        <ele>1066</ele>
        <time>2022-07-28T13:28:34Z</time>
      </trkpt>
      <trkpt lat="45.70718" lon="6.45832">
        <ele>1066</ele>
        <time>2022-07-28T13:28:35Z</time>
      </trkpt>
      <trkpt lat="45.70719" lon="6.45832">
        <ele>1066</ele>
        <time>2022-07-28T13:28:36Z</time>
      </trkpt>
      <trkpt lat="45.7072" lon="6.45833">
        <ele>1065</ele>
        <time>2022-07-28T13:28:37Z</time>
      </trkpt>
      <trkpt lat="45.70721" lon="6.45833">
        <ele>1065</ele>
        <time>2022-07-28T13:28:38Z</time>
      </trkpt>
      <trkpt lat="45.70722" lon="6.45833">
        <ele>1065</ele>
        <time>2022-07-28T13:28:39Z</time>
      </trkpt>
      <trkpt lat="45.70723" lon="6.45833">
        <ele>1065</ele>
        <time>2022-07-28T13:28:40Z</time>
      </trkpt>
      <trkpt lat="45.70724" lon="6.45834">
        <ele>1065</ele>
        <time>2022-07-28T13:28:41Z</time>
      </trkpt>
      <trkpt lat="45.70724" lon="6.45834">
        <ele>1064</ele>
        <time>2022-07-28T13:28:42Z</time>
      </trkpt>
      <trkpt lat="45.70725" lon="6.45834">
        <ele>1064</ele>
        <time>2022-07-28T13:28:43Z</time>
      </trkpt>
      <trkpt lat="45.70726" lon="6.45834">
        <ele>1063</ele>
        <time>2022-07-28T13:28:44Z</time>
      </trkpt>
      <trkpt lat="45.70727" lon="6.45834">
        <ele>1063</ele>
        <time>2022-07-28T13:28:45Z</time>
      </trkpt>
      <trkpt lat="45.70728" lon="6.45834">
        <ele>1063</ele>
        <time>2022-07-28T13:28:46Z</time>
      </trkpt>
      <trkpt lat="45.70729" lon="6.45834">
        <ele>1062</ele>
        <time>2022-07-28T13:28:47Z</time>
      </trkpt>
      <trkpt lat="45.7073" lon="6.45834">
        <ele>1062</ele>
        <time>2022-07-28T13:28:48Z</time>
      </trkpt>
      <trkpt lat="45.70731" lon="6.45834">
        <ele>1062</ele>
        <time>2022-07-28T13:28:49Z</time>
      </trkpt>
      <trkpt lat="45.70732" lon="6.45833">
        <ele>1062</ele>
        <time>2022-07-28T13:28:50Z</time>
      </trkpt>
      <trkpt lat="45.70733" lon="6.45833">
        <ele>1062</ele>
        <time>2022-07-28T13:28:51Z</time>
      </trkpt>
      <trkpt lat="45.70734" lon="6.45833">
        <ele>1061</ele>
        <time>2022-07-28T13:28:52Z</time>
      </trkpt>
      <trkpt lat="45.70735" lon="6.45832">
        <ele>1061</ele>
        <time>2022-07-28T13:28:53Z</time>
      </trkpt>
      <trkpt lat="45.70736" lon="6.45832">
        <ele>1061</ele>
        <time>2022-07-28T13:28:54Z</time>
      </trkpt>
      <trkpt lat="45.70737" lon="6.45831">
        <ele>1061</ele>
        <time>2022-07-28T13:28:55Z</time>
      </trkpt>
      <trkpt lat="45.70738" lon="6.4583">
        <ele>1061</ele>
        <time>2022-07-28T13:28:56Z</time>
      </trkpt>
      <trkpt lat="45.70739" lon="6.4583">
        <ele>1060</ele>
        <time>2022-07-28T13:28:57Z</time>
      </trkpt>
      <trkpt lat="45.7074" lon="6.45829">
        <ele>1060</ele>
        <time>2022-07-28T13:28:58Z</time>
      </trkpt>
      <trkpt lat="45.70741" lon="6.45828">
        <ele>1060</ele>
        <time>2022-07-28T13:28:59Z</time>
      </trkpt>
      <trkpt lat="45.70742" lon="6.45828">
        <ele>1060</ele>
        <time>2022-07-28T13:29:00Z</time>
      </trkpt>
      <trkpt lat="45.70743" lon="6.45827">
        <ele>1060</ele>
        <time>2022-07-28T13:29:01Z</time>
      </trkpt>
      <trkpt lat="45.70744" lon="6.45826">
        <ele>1059</ele>
        <time>2022-07-28T13:29:02Z</time>
      </trkpt>
      <trkpt lat="45.70745" lon="6.45826">
        <ele>1059</ele>
        <time>2022-07-28T13:29:03Z</time>
      </trkpt>
      <trkpt lat="45.70746" lon="6.45825">
        <ele>1059</ele>
        <time>2022-07-28T13:29:04Z</time>
      </trkpt>
      <trkpt lat="45.70747" lon="6.45825">
        <ele>1059</ele>
        <time>2022-07-28T13:29:05Z</time>
      </trkpt>
      <trkpt lat="45.70748" lon="6.45824">
        <ele>1059</ele>
        <time>2022-07-28T13:29:06Z</time>
      </trkpt>
      <trkpt lat="45.7075" lon="6.45824">
        <ele>1058</ele>
        <time>2022-07-28T13:29:07Z</time>
      </trkpt>
      <trkpt lat="45.7075" lon="6.45823">
        <ele>1058</ele>
        <time>2022-07-28T13:29:08Z</time>
      </trkpt>
      <trkpt lat="45.70751" lon="6.45823">
        <ele>1058</ele>
        <time>2022-07-28T13:29:09Z</time>
      </trkpt>
      <trkpt lat="45.70752" lon="6.45822">
        <ele>1058</ele>
        <time>2022-07-28T13:29:10Z</time>
      </trkpt>
      <trkpt lat="45.70753" lon="6.45821">
        <ele>1058</ele>
        <time>2022-07-28T13:29:11Z</time>
      </trkpt>
      <trkpt lat="45.70754" lon="6.4582">
        <ele>1057</ele>
        <time>2022-07-28T13:29:12Z</time>
      </trkpt>
      <trkpt lat="45.70755" lon="6.45819">
        <ele>1057</ele>
        <time>2022-07-28T13:29:13Z</time>
      </trkpt>
      <trkpt lat="45.70756" lon="6.45818">
        <ele>1057</ele>
        <time>2022-07-28T13:29:14Z</time>
      </trkpt>
      <trkpt lat="45.70757" lon="6.45817">
        <ele>1057</ele>
        <time>2022-07-28T13:29:15Z</time>
      </trkpt>
      <trkpt lat="45.70757" lon="6.45816">
        <ele>1057</ele>
        <time>2022-07-28T13:29:16Z</time>
      </trkpt>
      <trkpt lat="45.70758" lon="6.45815">
        <ele>1057</ele>
        <time>2022-07-28T13:29:17Z</time>
      </trkpt>
      <trkpt lat="45.70759" lon="6.45815">
        <ele>1057</ele>
        <time>2022-07-28T13:29:18Z</time>
      </trkpt>
      <trkpt lat="45.70759" lon="6.45814">
        <ele>1057</ele>
        <time>2022-07-28T13:29:19Z</time>
      </trkpt>
      <trkpt lat="45.7076" lon="6.45813">
        <ele>1057</ele>
        <time>2022-07-28T13:29:20Z</time>
      </trkpt>
      <trkpt lat="45.70761" lon="6.45812">
        <ele>1057</ele>
        <time>2022-07-28T13:29:21Z</time>
      </trkpt>
      <trkpt lat="45.70761" lon="6.45811">
        <ele>1056</ele>
        <time>2022-07-28T13:29:22Z</time>
      </trkpt>
      <trkpt lat="45.70762" lon="6.4581">
        <ele>1056</ele>
        <time>2022-07-28T13:29:23Z</time>
      </trkpt>
      <trkpt lat="45.70763" lon="6.45809">
        <ele>1056</ele>
        <time>2022-07-28T13:29:24Z</time>
      </trkpt>
      <trkpt lat="45.70764" lon="6.45809">
        <ele>1056</ele>
        <time>2022-07-28T13:29:25Z</time>
      </trkpt>
      <trkpt lat="45.70766" lon="6.4581">
        <ele>1054</ele>
        <time>2022-07-28T13:29:46Z</time>
      </trkpt>
      <trkpt lat="45.70766" lon="6.45811">
        <ele>1054</ele>
        <time>2022-07-28T13:29:47Z</time>
      </trkpt>
      <trkpt lat="45.70767" lon="6.45811">
        <ele>1054</ele>
        <time>2022-07-28T13:29:48Z</time>
      </trkpt>
      <trkpt lat="45.70768" lon="6.45813">
        <ele>1054</ele>
        <time>2022-07-28T13:30:30Z</time>
      </trkpt>
      <trkpt lat="45.70769" lon="6.45813">
        <ele>1054</ele>
        <time>2022-07-28T13:30:31Z</time>
      </trkpt>
      <trkpt lat="45.70769" lon="6.45814">
        <ele>1053</ele>
        <time>2022-07-28T13:30:32Z</time>
      </trkpt>
      <trkpt lat="45.7077" lon="6.45814">
        <ele>1053</ele>
        <time>2022-07-28T13:30:33Z</time>
      </trkpt>
      <trkpt lat="45.7077" lon="6.45814">
        <ele>1053</ele>
        <time>2022-07-28T13:30:34Z</time>
      </trkpt>
      <trkpt lat="45.70771" lon="6.45814">
        <ele>1053</ele>
        <time>2022-07-28T13:30:35Z</time>
      </trkpt>
      <trkpt lat="45.70772" lon="6.45814">
        <ele>1053</ele>
        <time>2022-07-28T13:30:36Z</time>
      </trkpt>
      <trkpt lat="45.70773" lon="6.45815">
        <ele>1053</ele>
        <time>2022-07-28T13:30:37Z</time>
      </trkpt>
      <trkpt lat="45.70774" lon="6.45815">
        <ele>1053</ele>
        <time>2022-07-28T13:30:38Z</time>
      </trkpt>
      <trkpt lat="45.70775" lon="6.45815">
        <ele>1053</ele>
        <time>2022-07-28T13:30:39Z</time>
      </trkpt>
      <trkpt lat="45.70776" lon="6.45816">
        <ele>1053</ele>
        <time>2022-07-28T13:30:40Z</time>
      </trkpt>
      <trkpt lat="45.70777" lon="6.45817">
        <ele>1053</ele>
        <time>2022-07-28T13:30:41Z</time>
      </trkpt>
      <trkpt lat="45.70778" lon="6.45817">
        <ele>1052</ele>
        <time>2022-07-28T13:30:42Z</time>
      </trkpt>
      <trkpt lat="45.70779" lon="6.45818">
        <ele>1052</ele>
        <time>2022-07-28T13:30:43Z</time>
      </trkpt>
      <trkpt lat="45.70779" lon="6.45819">
        <ele>1052</ele>
        <time>2022-07-28T13:30:44Z</time>
      </trkpt>
      <trkpt lat="45.7078" lon="6.4582">
        <ele>1052</ele>
        <time>2022-07-28T13:30:45Z</time>
      </trkpt>
      <trkpt lat="45.7078" lon="6.45821">
        <ele>1052</ele>
        <time>2022-07-28T13:30:46Z</time>
      </trkpt>
      <trkpt lat="45.7078" lon="6.45822">
        <ele>1051</ele>
        <time>2022-07-28T13:30:47Z</time>
      </trkpt>
      <trkpt lat="45.70781" lon="6.45823">
        <ele>1051</ele>
        <time>2022-07-28T13:30:48Z</time>
      </trkpt>
      <trkpt lat="45.7078" lon="6.45825">
        <ele>1051</ele>
        <time>2022-07-28T13:30:49Z</time>
      </trkpt>
      <trkpt lat="45.7078" lon="6.45826">
        <ele>1051</ele>
        <time>2022-07-28T13:30:50Z</time>
      </trkpt>
      <trkpt lat="45.70779" lon="6.45827">
        <ele>1051</ele>
        <time>2022-07-28T13:30:51Z</time>
      </trkpt>
      <trkpt lat="45.70779" lon="6.45828">
        <ele>1050</ele>
        <time>2022-07-28T13:30:52Z</time>
      </trkpt>
      <trkpt lat="45.70778" lon="6.4583">
        <ele>1050</ele>
        <time>2022-07-28T13:30:53Z</time>
      </trkpt>
      <trkpt lat="45.70778" lon="6.45831">
        <ele>1050</ele>
        <time>2022-07-28T13:30:54Z</time>
      </trkpt>
      <trkpt lat="45.70777" lon="6.45832">
        <ele>1050</ele>
        <time>2022-07-28T13:30:55Z</time>
      </trkpt>
      <trkpt lat="45.70777" lon="6.45834">
        <ele>1050</ele>
        <time>2022-07-28T13:30:56Z</time>
      </trkpt>
      <trkpt lat="45.70777" lon="6.45835">
        <ele>1049</ele>
        <time>2022-07-28T13:30:57Z</time>
      </trkpt>
      <trkpt lat="45.70777" lon="6.45836">
        <ele>1049</ele>
        <time>2022-07-28T13:30:58Z</time>
      </trkpt>
      <trkpt lat="45.70776" lon="6.45838">
        <ele>1048</ele>
        <time>2022-07-28T13:30:59Z</time>
      </trkpt>
      <trkpt lat="45.70776" lon="6.45839">
        <ele>1048</ele>
        <time>2022-07-28T13:31:00Z</time>
      </trkpt>
      <trkpt lat="45.70776" lon="6.45841">
        <ele>1048</ele>
        <time>2022-07-28T13:31:01Z</time>
      </trkpt>
      <trkpt lat="45.70776" lon="6.45842">
        <ele>1047</ele>
        <time>2022-07-28T13:31:02Z</time>
      </trkpt>
      <trkpt lat="45.70776" lon="6.45844">
        <ele>1047</ele>
        <time>2022-07-28T13:31:03Z</time>
      </trkpt>
      <trkpt lat="45.70775" lon="6.45845">
        <ele>1046</ele>
        <time>2022-07-28T13:31:04Z</time>
      </trkpt>
      <trkpt lat="45.70775" lon="6.45847">
        <ele>1046</ele>
        <time>2022-07-28T13:31:05Z</time>
      </trkpt>
      <trkpt lat="45.70774" lon="6.45848">
        <ele>1046</ele>
        <time>2022-07-28T13:31:06Z</time>
      </trkpt>
      <trkpt lat="45.70774" lon="6.4585">
        <ele>1045</ele>
        <time>2022-07-28T13:31:07Z</time>
      </trkpt>
      <trkpt lat="45.70773" lon="6.45851">
        <ele>1045</ele>
        <time>2022-07-28T13:31:08Z</time>
      </trkpt>
      <trkpt lat="45.70773" lon="6.45852">
        <ele>1045</ele>
        <time>2022-07-28T13:31:09Z</time>
      </trkpt>
      <trkpt lat="45.70772" lon="6.45854">
        <ele>1045</ele>
        <time>2022-07-28T13:31:10Z</time>
      </trkpt>
      <trkpt lat="45.70772" lon="6.45856">
        <ele>1045</ele>
        <time>2022-07-28T13:31:11Z</time>
      </trkpt>
      <trkpt lat="45.70771" lon="6.45857">
        <ele>1044</ele>
        <time>2022-07-28T13:31:12Z</time>
      </trkpt>
      <trkpt lat="45.70771" lon="6.45859">
        <ele>1044</ele>
        <time>2022-07-28T13:31:13Z</time>
      </trkpt>
      <trkpt lat="45.70771" lon="6.4586">
        <ele>1044</ele>
        <time>2022-07-28T13:31:14Z</time>
      </trkpt>
      <trkpt lat="45.7077" lon="6.45861">
        <ele>1044</ele>
        <time>2022-07-28T13:31:15Z</time>
      </trkpt>
      <trkpt lat="45.7077" lon="6.45862">
        <ele>1044</ele>
        <time>2022-07-28T13:31:16Z</time>
      </trkpt>
      <trkpt lat="45.7077" lon="6.45863">
        <ele>1044</ele>
        <time>2022-07-28T13:31:17Z</time>
      </trkpt>
      <trkpt lat="45.7077" lon="6.45864">
        <ele>1044</ele>
        <time>2022-07-28T13:31:18Z</time>
      </trkpt>
      <trkpt lat="45.7077" lon="6.45865">
        <ele>1044</ele>
        <time>2022-07-28T13:31:19Z</time>
      </trkpt>
      <trkpt lat="45.7077" lon="6.45867">
        <ele>1044</ele>
        <time>2022-07-28T13:31:20Z</time>
      </trkpt>
      <trkpt lat="45.7077" lon="6.45868">
        <ele>1044</ele>
        <time>2022-07-28T13:31:21Z</time>
      </trkpt>
      <trkpt lat="45.7077" lon="6.45869">
        <ele>1043</ele>
        <time>2022-07-28T13:31:22Z</time>
      </trkpt>
      <trkpt lat="45.70769" lon="6.4587">
        <ele>1043</ele>
        <time>2022-07-28T13:31:23Z</time>
      </trkpt>
      <trkpt lat="45.70769" lon="6.45871">
        <ele>1043</ele>
        <time>2022-07-28T13:31:24Z</time>
      </trkpt>
      <trkpt lat="45.70768" lon="6.45872">
        <ele>1043</ele>
        <time>2022-07-28T13:31:25Z</time>
      </trkpt>
      <trkpt lat="45.70768" lon="6.45873">
        <ele>1043</ele>
        <time>2022-07-28T13:31:26Z</time>
      </trkpt>
      <trkpt lat="45.70768" lon="6.45874">
        <ele>1042</ele>
        <time>2022-07-28T13:31:27Z</time>
      </trkpt>
      <trkpt lat="45.70767" lon="6.45875">
        <ele>1042</ele>
        <time>2022-07-28T13:31:28Z</time>
      </trkpt>
      <trkpt lat="45.70767" lon="6.45875">
        <ele>1042</ele>
        <time>2022-07-28T13:31:29Z</time>
      </trkpt>
      <trkpt lat="45.70767" lon="6.45876">
        <ele>1042</ele>
        <time>2022-07-28T13:31:30Z</time>
      </trkpt>
      <trkpt lat="45.70767" lon="6.45876">
        <ele>1042</ele>
        <time>2022-07-28T13:31:31Z</time>
      </trkpt>
      <trkpt lat="45.70766" lon="6.45877">
        <ele>1041</ele>
        <time>2022-07-28T13:31:32Z</time>
      </trkpt>
      <trkpt lat="45.70766" lon="6.45878">
        <ele>1041</ele>
        <time>2022-07-28T13:31:33Z</time>
      </trkpt>
      <trkpt lat="45.70766" lon="6.45879">
        <ele>1041</ele>
        <time>2022-07-28T13:31:34Z</time>
      </trkpt>
      <trkpt lat="45.70765" lon="6.4588">
        <ele>1041</ele>
        <time>2022-07-28T13:31:35Z</time>
      </trkpt>
      <trkpt lat="45.70765" lon="6.45881">
        <ele>1041</ele>
        <time>2022-07-28T13:31:36Z</time>
      </trkpt>
      <trkpt lat="45.70765" lon="6.45882">
        <ele>1040</ele>
        <time>2022-07-28T13:31:37Z</time>
      </trkpt>
      <trkpt lat="45.70764" lon="6.45883">
        <ele>1040</ele>
        <time>2022-07-28T13:31:38Z</time>
      </trkpt>
      <trkpt lat="45.70764" lon="6.45884">
        <ele>1040</ele>
        <time>2022-07-28T13:31:39Z</time>
      </trkpt>
      <trkpt lat="45.70764" lon="6.45885">
        <ele>1040</ele>
        <time>2022-07-28T13:31:40Z</time>
      </trkpt>
      <trkpt lat="45.70764" lon="6.45886">
        <ele>1040</ele>
        <time>2022-07-28T13:31:41Z</time>
      </trkpt>
      <trkpt lat="45.70763" lon="6.45887">
        <ele>1039</ele>
        <time>2022-07-28T13:31:42Z</time>
      </trkpt>
      <trkpt lat="45.70763" lon="6.45888">
        <ele>1039</ele>
        <time>2022-07-28T13:31:43Z</time>
      </trkpt>
      <trkpt lat="45.70763" lon="6.4589">
        <ele>1038</ele>
        <time>2022-07-28T13:31:44Z</time>
      </trkpt>
      <trkpt lat="45.70763" lon="6.45891">
        <ele>1038</ele>
        <time>2022-07-28T13:31:45Z</time>
      </trkpt>
      <trkpt lat="45.70762" lon="6.45893">
        <ele>1038</ele>
        <time>2022-07-28T13:31:46Z</time>
      </trkpt>
      <trkpt lat="45.70762" lon="6.45895">
        <ele>1037</ele>
        <time>2022-07-28T13:31:47Z</time>
      </trkpt>
      <trkpt lat="45.70762" lon="6.45896">
        <ele>1037</ele>
        <time>2022-07-28T13:31:48Z</time>
      </trkpt>
      <trkpt lat="45.70761" lon="6.45898">
        <ele>1037</ele>
        <time>2022-07-28T13:31:49Z</time>
      </trkpt>
      <trkpt lat="45.70761" lon="6.45899">
        <ele>1037</ele>
        <time>2022-07-28T13:31:50Z</time>
      </trkpt>
      <trkpt lat="45.70761" lon="6.45901">
        <ele>1037</ele>
        <time>2022-07-28T13:31:51Z</time>
      </trkpt>
      <trkpt lat="45.70761" lon="6.45902">
        <ele>1036</ele>
        <time>2022-07-28T13:31:52Z</time>
      </trkpt>
      <trkpt lat="45.7076" lon="6.45904">
        <ele>1036</ele>
        <time>2022-07-28T13:31:53Z</time>
      </trkpt>
      <trkpt lat="45.7076" lon="6.45905">
        <ele>1036</ele>
        <time>2022-07-28T13:31:54Z</time>
      </trkpt>
      <trkpt lat="45.7076" lon="6.45907">
        <ele>1036</ele>
        <time>2022-07-28T13:31:55Z</time>
      </trkpt>
      <trkpt lat="45.7076" lon="6.45908">
        <ele>1036</ele>
        <time>2022-07-28T13:31:56Z</time>
      </trkpt>
      <trkpt lat="45.7076" lon="6.4591">
        <ele>1035</ele>
        <time>2022-07-28T13:31:57Z</time>
      </trkpt>
      <trkpt lat="45.7076" lon="6.45912">
        <ele>1035</ele>
        <time>2022-07-28T13:31:58Z</time>
      </trkpt>
      <trkpt lat="45.7076" lon="6.45913">
        <ele>1035</ele>
        <time>2022-07-28T13:31:59Z</time>
      </trkpt>
      <trkpt lat="45.7076" lon="6.45915">
        <ele>1035</ele>
        <time>2022-07-28T13:32:00Z</time>
      </trkpt>
      <trkpt lat="45.70759" lon="6.45917">
        <ele>1035</ele>
        <time>2022-07-28T13:32:01Z</time>
      </trkpt>
      <trkpt lat="45.70759" lon="6.45918">
        <ele>1034</ele>
        <time>2022-07-28T13:32:02Z</time>
      </trkpt>
      <trkpt lat="45.70759" lon="6.45919">
        <ele>1034</ele>
        <time>2022-07-28T13:32:03Z</time>
      </trkpt>
      <trkpt lat="45.70759" lon="6.45921">
        <ele>1034</ele>
        <time>2022-07-28T13:32:04Z</time>
      </trkpt>
      <trkpt lat="45.70759" lon="6.45923">
        <ele>1034</ele>
        <time>2022-07-28T13:32:05Z</time>
      </trkpt>
      <trkpt lat="45.70759" lon="6.45924">
        <ele>1034</ele>
        <time>2022-07-28T13:32:06Z</time>
      </trkpt>
      <trkpt lat="45.70759" lon="6.45926">
        <ele>1033</ele>
        <time>2022-07-28T13:32:07Z</time>
      </trkpt>
      <trkpt lat="45.70759" lon="6.45927">
        <ele>1033</ele>
        <time>2022-07-28T13:32:08Z</time>
      </trkpt>
      <trkpt lat="45.70759" lon="6.45929">
        <ele>1032</ele>
        <time>2022-07-28T13:32:09Z</time>
      </trkpt>
      <trkpt lat="45.70759" lon="6.45931">
        <ele>1032</ele>
        <time>2022-07-28T13:32:10Z</time>
      </trkpt>
      <trkpt lat="45.70759" lon="6.45933">
        <ele>1032</ele>
        <time>2022-07-28T13:32:11Z</time>
      </trkpt>
      <trkpt lat="45.70759" lon="6.45935">
        <ele>1031</ele>
        <time>2022-07-28T13:32:12Z</time>
      </trkpt>
      <trkpt lat="45.70759" lon="6.45937">
        <ele>1031</ele>
        <time>2022-07-28T13:32:13Z</time>
      </trkpt>
      <trkpt lat="45.70758" lon="6.45939">
        <ele>1030</ele>
        <time>2022-07-28T13:32:14Z</time>
      </trkpt>
      <trkpt lat="45.70758" lon="6.4594">
        <ele>1030</ele>
        <time>2022-07-28T13:32:15Z</time>
      </trkpt>
      <trkpt lat="45.70757" lon="6.45942">
        <ele>1030</ele>
        <time>2022-07-28T13:32:16Z</time>
      </trkpt>
      <trkpt lat="45.70756" lon="6.45944">
        <ele>1029</ele>
        <time>2022-07-28T13:32:17Z</time>
      </trkpt>
      <trkpt lat="45.70755" lon="6.45946">
        <ele>1029</ele>
        <time>2022-07-28T13:32:18Z</time>
      </trkpt>
      <trkpt lat="45.70755" lon="6.45948">
        <ele>1029</ele>
        <time>2022-07-28T13:32:19Z</time>
      </trkpt>
      <trkpt lat="45.70754" lon="6.4595">
        <ele>1029</ele>
        <time>2022-07-28T13:32:20Z</time>
      </trkpt>
      <trkpt lat="45.70754" lon="6.45951">
        <ele>1029</ele>
        <time>2022-07-28T13:32:21Z</time>
      </trkpt>
      <trkpt lat="45.70753" lon="6.45953">
        <ele>1028</ele>
        <time>2022-07-28T13:32:22Z</time>
      </trkpt>
      <trkpt lat="45.70753" lon="6.45955">
        <ele>1028</ele>
        <time>2022-07-28T13:32:23Z</time>
      </trkpt>
      <trkpt lat="45.70752" lon="6.45956">
        <ele>1027</ele>
        <time>2022-07-28T13:32:24Z</time>
      </trkpt>
      <trkpt lat="45.70752" lon="6.45958">
        <ele>1027</ele>
        <time>2022-07-28T13:32:25Z</time>
      </trkpt>
      <trkpt lat="45.70752" lon="6.45959">
        <ele>1027</ele>
        <time>2022-07-28T13:32:26Z</time>
      </trkpt>
      <trkpt lat="45.70751" lon="6.45961">
        <ele>1026</ele>
        <time>2022-07-28T13:32:27Z</time>
      </trkpt>
      <trkpt lat="45.70751" lon="6.45962">
        <ele>1026</ele>
        <time>2022-07-28T13:32:28Z</time>
      </trkpt>
      <trkpt lat="45.70751" lon="6.45964">
        <ele>1026</ele>
        <time>2022-07-28T13:32:29Z</time>
      </trkpt>
      <trkpt lat="45.7075" lon="6.45965">
        <ele>1026</ele>
        <time>2022-07-28T13:32:30Z</time>
      </trkpt>
      <trkpt lat="45.70749" lon="6.45967">
        <ele>1026</ele>
        <time>2022-07-28T13:32:31Z</time>
      </trkpt>
      <trkpt lat="45.70749" lon="6.45969">
        <ele>1026</ele>
        <time>2022-07-28T13:32:32Z</time>
      </trkpt>
      <trkpt lat="45.70748" lon="6.4597">
        <ele>1026</ele>
        <time>2022-07-28T13:32:33Z</time>
      </trkpt>
      <trkpt lat="45.70747" lon="6.45972">
        <ele>1026</ele>
        <time>2022-07-28T13:32:34Z</time>
      </trkpt>
      <trkpt lat="45.70747" lon="6.45973">
        <ele>1026</ele>
        <time>2022-07-28T13:32:35Z</time>
      </trkpt>
      <trkpt lat="45.70746" lon="6.45974">
        <ele>1026</ele>
        <time>2022-07-28T13:32:36Z</time>
      </trkpt>
      <trkpt lat="45.70745" lon="6.45976">
        <ele>1025</ele>
        <time>2022-07-28T13:32:37Z</time>
      </trkpt>
      <trkpt lat="45.70744" lon="6.45977">
        <ele>1025</ele>
        <time>2022-07-28T13:32:38Z</time>
      </trkpt>
      <trkpt lat="45.70743" lon="6.45978">
        <ele>1025</ele>
        <time>2022-07-28T13:32:39Z</time>
      </trkpt>
      <trkpt lat="45.70742" lon="6.4598">
        <ele>1025</ele>
        <time>2022-07-28T13:32:40Z</time>
      </trkpt>
      <trkpt lat="45.70741" lon="6.45981">
        <ele>1025</ele>
        <time>2022-07-28T13:32:41Z</time>
      </trkpt>
      <trkpt lat="45.7074" lon="6.45982">
        <ele>1024</ele>
        <time>2022-07-28T13:32:42Z</time>
      </trkpt>
      <trkpt lat="45.70739" lon="6.45983">
        <ele>1024</ele>
        <time>2022-07-28T13:32:43Z</time>
      </trkpt>
      <trkpt lat="45.70738" lon="6.45984">
        <ele>1024</ele>
        <time>2022-07-28T13:32:44Z</time>
      </trkpt>
      <trkpt lat="45.70737" lon="6.45984">
        <ele>1024</ele>
        <time>2022-07-28T13:32:45Z</time>
      </trkpt>
      <trkpt lat="45.70736" lon="6.45985">
        <ele>1024</ele>
        <time>2022-07-28T13:32:46Z</time>
      </trkpt>
      <trkpt lat="45.70735" lon="6.45986">
        <ele>1023</ele>
        <time>2022-07-28T13:32:47Z</time>
      </trkpt>
      <trkpt lat="45.70734" lon="6.45986">
        <ele>1023</ele>
        <time>2022-07-28T13:32:48Z</time>
      </trkpt>
      <trkpt lat="45.70733" lon="6.45987">
        <ele>1023</ele>
        <time>2022-07-28T13:32:49Z</time>
      </trkpt>
      <trkpt lat="45.70732" lon="6.45987">
        <ele>1023</ele>
        <time>2022-07-28T13:32:50Z</time>
      </trkpt>
      <trkpt lat="45.70731" lon="6.45988">
        <ele>1023</ele>
        <time>2022-07-28T13:32:51Z</time>
      </trkpt>
      <trkpt lat="45.7073" lon="6.45988">
        <ele>1023</ele>
        <time>2022-07-28T13:32:52Z</time>
      </trkpt>
      <trkpt lat="45.70729" lon="6.45989">
        <ele>1023</ele>
        <time>2022-07-28T13:32:53Z</time>
      </trkpt>
      <trkpt lat="45.70728" lon="6.4599">
        <ele>1023</ele>
        <time>2022-07-28T13:32:54Z</time>
      </trkpt>
      <trkpt lat="45.70727" lon="6.4599">
        <ele>1023</ele>
        <time>2022-07-28T13:32:55Z</time>
      </trkpt>
      <trkpt lat="45.70726" lon="6.45991">
        <ele>1023</ele>
        <time>2022-07-28T13:32:56Z</time>
      </trkpt>
      <trkpt lat="45.70725" lon="6.45992">
        <ele>1023</ele>
        <time>2022-07-28T13:32:57Z</time>
      </trkpt>
      <trkpt lat="45.70725" lon="6.45992">
        <ele>1023</ele>
        <time>2022-07-28T13:32:58Z</time>
      </trkpt>
      <trkpt lat="45.70724" lon="6.45993">
        <ele>1023</ele>
        <time>2022-07-28T13:32:59Z</time>
      </trkpt>
      <trkpt lat="45.70724" lon="6.45994">
        <ele>1023</ele>
        <time>2022-07-28T13:33:00Z</time>
      </trkpt>
      <trkpt lat="45.70723" lon="6.45995">
        <ele>1023</ele>
        <time>2022-07-28T13:33:01Z</time>
      </trkpt>
      <trkpt lat="45.70723" lon="6.45996">
        <ele>1022</ele>
        <time>2022-07-28T13:33:02Z</time>
      </trkpt>
      <trkpt lat="45.70723" lon="6.45997">
        <ele>1022</ele>
        <time>2022-07-28T13:33:03Z</time>
      </trkpt>
      <trkpt lat="45.70723" lon="6.45999">
        <ele>1021</ele>
        <time>2022-07-28T13:33:04Z</time>
      </trkpt>
      <trkpt lat="45.70723" lon="6.46">
        <ele>1021</ele>
        <time>2022-07-28T13:33:05Z</time>
      </trkpt>
      <trkpt lat="45.70723" lon="6.46002">
        <ele>1021</ele>
        <time>2022-07-28T13:33:06Z</time>
      </trkpt>
      <trkpt lat="45.70723" lon="6.46003">
        <ele>1020</ele>
        <time>2022-07-28T13:33:07Z</time>
      </trkpt>
      <trkpt lat="45.70722" lon="6.46005">
        <ele>1020</ele>
        <time>2022-07-28T13:33:08Z</time>
      </trkpt>
      <trkpt lat="45.70722" lon="6.46007">
        <ele>1020</ele>
        <time>2022-07-28T13:33:09Z</time>
      </trkpt>
      <trkpt lat="45.70722" lon="6.46008">
        <ele>1020</ele>
        <time>2022-07-28T13:33:10Z</time>
      </trkpt>
      <trkpt lat="45.70721" lon="6.4601">
        <ele>1020</ele>
        <time>2022-07-28T13:33:11Z</time>
      </trkpt>
      <trkpt lat="45.70721" lon="6.46012">
        <ele>1019</ele>
        <time>2022-07-28T13:33:12Z</time>
      </trkpt>
      <trkpt lat="45.70721" lon="6.46014">
        <ele>1019</ele>
        <time>2022-07-28T13:33:13Z</time>
      </trkpt>
      <trkpt lat="45.70721" lon="6.46015">
        <ele>1019</ele>
        <time>2022-07-28T13:33:14Z</time>
      </trkpt>
      <trkpt lat="45.7072" lon="6.46017">
        <ele>1019</ele>
        <time>2022-07-28T13:33:15Z</time>
      </trkpt>
      <trkpt lat="45.7072" lon="6.46018">
        <ele>1019</ele>
        <time>2022-07-28T13:33:16Z</time>
      </trkpt>
      <trkpt lat="45.7072" lon="6.46019">
        <ele>1018</ele>
        <time>2022-07-28T13:33:17Z</time>
      </trkpt>
      <trkpt lat="45.7072" lon="6.46021">
        <ele>1018</ele>
        <time>2022-07-28T13:33:18Z</time>
      </trkpt>
      <trkpt lat="45.70719" lon="6.46022">
        <ele>1018</ele>
        <time>2022-07-28T13:33:19Z</time>
      </trkpt>
      <trkpt lat="45.70719" lon="6.46023">
        <ele>1018</ele>
        <time>2022-07-28T13:33:20Z</time>
      </trkpt>
      <trkpt lat="45.70719" lon="6.46024">
        <ele>1018</ele>
        <time>2022-07-28T13:33:21Z</time>
      </trkpt>
      <trkpt lat="45.70719" lon="6.46025">
        <ele>1017</ele>
        <time>2022-07-28T13:33:22Z</time>
      </trkpt>
      <trkpt lat="45.70719" lon="6.46027">
        <ele>1017</ele>
        <time>2022-07-28T13:33:23Z</time>
      </trkpt>
      <trkpt lat="45.70719" lon="6.46028">
        <ele>1016</ele>
        <time>2022-07-28T13:33:24Z</time>
      </trkpt>
      <trkpt lat="45.70719" lon="6.46029">
        <ele>1016</ele>
        <time>2022-07-28T13:33:25Z</time>
      </trkpt>
      <trkpt lat="45.70719" lon="6.4603">
        <ele>1016</ele>
        <time>2022-07-28T13:33:26Z</time>
      </trkpt>
      <trkpt lat="45.70719" lon="6.46031">
        <ele>1015</ele>
        <time>2022-07-28T13:33:27Z</time>
      </trkpt>
      <trkpt lat="45.70718" lon="6.46031">
        <ele>1015</ele>
        <time>2022-07-28T13:33:28Z</time>
      </trkpt>
      <trkpt lat="45.70718" lon="6.46032">
        <ele>1015</ele>
        <time>2022-07-28T13:33:29Z</time>
      </trkpt>
      <trkpt lat="45.70718" lon="6.46033">
        <ele>1015</ele>
        <time>2022-07-28T13:33:30Z</time>
      </trkpt>
      <trkpt lat="45.70718" lon="6.46034">
        <ele>1015</ele>
        <time>2022-07-28T13:33:31Z</time>
      </trkpt>
      <trkpt lat="45.70717" lon="6.46036">
        <ele>1014</ele>
        <time>2022-07-28T13:33:32Z</time>
      </trkpt>
      <trkpt lat="45.70717" lon="6.46037">
        <ele>1014</ele>
        <time>2022-07-28T13:33:33Z</time>
      </trkpt>
      <trkpt lat="45.70717" lon="6.46038">
        <ele>1014</ele>
        <time>2022-07-28T13:33:34Z</time>
      </trkpt>
      <trkpt lat="45.70716" lon="6.46039">
        <ele>1014</ele>
        <time>2022-07-28T13:33:35Z</time>
      </trkpt>
      <trkpt lat="45.70716" lon="6.4604">
        <ele>1014</ele>
        <time>2022-07-28T13:33:36Z</time>
      </trkpt>
      <trkpt lat="45.70716" lon="6.46041">
        <ele>1013</ele>
        <time>2022-07-28T13:33:37Z</time>
      </trkpt>
      <trkpt lat="45.70716" lon="6.46042">
        <ele>1013</ele>
        <time>2022-07-28T13:33:38Z</time>
      </trkpt>
      <trkpt lat="45.70715" lon="6.46043">
        <ele>1013</ele>
        <time>2022-07-28T13:33:39Z</time>
      </trkpt>
      <trkpt lat="45.70715" lon="6.46045">
        <ele>1013</ele>
        <time>2022-07-28T13:33:40Z</time>
      </trkpt>
      <trkpt lat="45.70715" lon="6.46046">
        <ele>1013</ele>
        <time>2022-07-28T13:33:41Z</time>
      </trkpt>
      <trkpt lat="45.70715" lon="6.46047">
        <ele>1012</ele>
        <time>2022-07-28T13:33:42Z</time>
      </trkpt>
      <trkpt lat="45.70714" lon="6.46049">
        <ele>1012</ele>
        <time>2022-07-28T13:33:43Z</time>
      </trkpt>
      <trkpt lat="45.70714" lon="6.4605">
        <ele>1011</ele>
        <time>2022-07-28T13:33:44Z</time>
      </trkpt>
      <trkpt lat="45.70714" lon="6.46051">
        <ele>1011</ele>
        <time>2022-07-28T13:33:45Z</time>
      </trkpt>
      <trkpt lat="45.70714" lon="6.46053">
        <ele>1011</ele>
        <time>2022-07-28T13:33:46Z</time>
      </trkpt>
      <trkpt lat="45.70714" lon="6.46054">
        <ele>1010</ele>
        <time>2022-07-28T13:33:47Z</time>
      </trkpt>
      <trkpt lat="45.70713" lon="6.46056">
        <ele>1010</ele>
        <time>2022-07-28T13:33:48Z</time>
      </trkpt>
      <trkpt lat="45.70713" lon="6.46057">
        <ele>1010</ele>
        <time>2022-07-28T13:33:49Z</time>
      </trkpt>
      <trkpt lat="45.70712" lon="6.46058">
        <ele>1010</ele>
        <time>2022-07-28T13:33:50Z</time>
      </trkpt>
      <trkpt lat="45.70712" lon="6.4606">
        <ele>1010</ele>
        <time>2022-07-28T13:33:51Z</time>
      </trkpt>
      <trkpt lat="45.70711" lon="6.46061">
        <ele>1009</ele>
        <time>2022-07-28T13:33:52Z</time>
      </trkpt>
      <trkpt lat="45.70711" lon="6.46062">
        <ele>1009</ele>
        <time>2022-07-28T13:33:53Z</time>
      </trkpt>
      <trkpt lat="45.7071" lon="6.46064">
        <ele>1008</ele>
        <time>2022-07-28T13:33:54Z</time>
      </trkpt>
      <trkpt lat="45.70709" lon="6.46065">
        <ele>1008</ele>
        <time>2022-07-28T13:33:55Z</time>
      </trkpt>
      <trkpt lat="45.70709" lon="6.46066">
        <ele>1008</ele>
        <time>2022-07-28T13:33:56Z</time>
      </trkpt>
      <trkpt lat="45.70708" lon="6.46067">
        <ele>1007</ele>
        <time>2022-07-28T13:33:57Z</time>
      </trkpt>
      <trkpt lat="45.70707" lon="6.46069">
        <ele>1007</ele>
        <time>2022-07-28T13:33:58Z</time>
      </trkpt>
      <trkpt lat="45.70707" lon="6.4607">
        <ele>1007</ele>
        <time>2022-07-28T13:33:59Z</time>
      </trkpt>
      <trkpt lat="45.70706" lon="6.46071">
        <ele>1007</ele>
        <time>2022-07-28T13:34:00Z</time>
      </trkpt>
      <trkpt lat="45.70705" lon="6.46073">
        <ele>1007</ele>
        <time>2022-07-28T13:34:01Z</time>
      </trkpt>
      <trkpt lat="45.70705" lon="6.46074">
        <ele>1006</ele>
        <time>2022-07-28T13:34:02Z</time>
      </trkpt>
      <trkpt lat="45.70704" lon="6.46075">
        <ele>1006</ele>
        <time>2022-07-28T13:34:03Z</time>
      </trkpt>
      <trkpt lat="45.70704" lon="6.46077">
        <ele>1005</ele>
        <time>2022-07-28T13:34:04Z</time>
      </trkpt>
      <trkpt lat="45.70703" lon="6.46078">
        <ele>1005</ele>
        <time>2022-07-28T13:34:05Z</time>
      </trkpt>
      <trkpt lat="45.70703" lon="6.4608">
        <ele>1005</ele>
        <time>2022-07-28T13:34:06Z</time>
      </trkpt>
      <trkpt lat="45.70703" lon="6.46081">
        <ele>1004</ele>
        <time>2022-07-28T13:34:07Z</time>
      </trkpt>
      <trkpt lat="45.70702" lon="6.46083">
        <ele>1004</ele>
        <time>2022-07-28T13:34:08Z</time>
      </trkpt>
      <trkpt lat="45.70702" lon="6.46084">
        <ele>1004</ele>
        <time>2022-07-28T13:34:09Z</time>
      </trkpt>
      <trkpt lat="45.70702" lon="6.46085">
        <ele>1004</ele>
        <time>2022-07-28T13:34:10Z</time>
      </trkpt>
      <trkpt lat="45.70701" lon="6.46087">
        <ele>1004</ele>
        <time>2022-07-28T13:34:11Z</time>
      </trkpt>
      <trkpt lat="45.70701" lon="6.46088">
        <ele>1003</ele>
        <time>2022-07-28T13:34:12Z</time>
      </trkpt>
      <trkpt lat="45.70701" lon="6.4609">
        <ele>1003</ele>
        <time>2022-07-28T13:34:13Z</time>
      </trkpt>
      <trkpt lat="45.70701" lon="6.46091">
        <ele>1002</ele>
        <time>2022-07-28T13:34:14Z</time>
      </trkpt>
      <trkpt lat="45.70701" lon="6.46093">
        <ele>1002</ele>
        <time>2022-07-28T13:34:15Z</time>
      </trkpt>
      <trkpt lat="45.70701" lon="6.46094">
        <ele>1002</ele>
        <time>2022-07-28T13:34:16Z</time>
      </trkpt>
      <trkpt lat="45.70701" lon="6.46095">
        <ele>1001</ele>
        <time>2022-07-28T13:34:17Z</time>
      </trkpt>
      <trkpt lat="45.70701" lon="6.46097">
        <ele>1001</ele>
        <time>2022-07-28T13:34:18Z</time>
      </trkpt>
      <trkpt lat="45.707" lon="6.46098">
        <ele>1001</ele>
        <time>2022-07-28T13:34:19Z</time>
      </trkpt>
      <trkpt lat="45.707" lon="6.461">
        <ele>1001</ele>
        <time>2022-07-28T13:34:20Z</time>
      </trkpt>
      <trkpt lat="45.707" lon="6.46101">
        <ele>1001</ele>
        <time>2022-07-28T13:34:21Z</time>
      </trkpt>
      <trkpt lat="45.70699" lon="6.46102">
        <ele>1000</ele>
        <time>2022-07-28T13:34:22Z</time>
      </trkpt>
      <trkpt lat="45.70699" lon="6.46103">
        <ele>1000</ele>
        <time>2022-07-28T13:34:23Z</time>
      </trkpt>
      <trkpt lat="45.70698" lon="6.46104">
        <ele>999</ele>
        <time>2022-07-28T13:34:24Z</time>
      </trkpt>
      <trkpt lat="45.70698" lon="6.46105">
        <ele>999</ele>
        <time>2022-07-28T13:34:25Z</time>
      </trkpt>
      <trkpt lat="45.70698" lon="6.46105">
        <ele>999</ele>
        <time>2022-07-28T13:34:26Z</time>
      </trkpt>
      <trkpt lat="45.70698" lon="6.46106">
        <ele>998</ele>
        <time>2022-07-28T13:34:27Z</time>
      </trkpt>
      <trkpt lat="45.70698" lon="6.46106">
        <ele>998</ele>
        <time>2022-07-28T13:34:28Z</time>
      </trkpt>
      <trkpt lat="45.70698" lon="6.46106">
        <ele>998</ele>
        <time>2022-07-28T13:34:29Z</time>
      </trkpt>
      <trkpt lat="45.70697" lon="6.46107">
        <ele>998</ele>
        <time>2022-07-28T13:34:30Z</time>
      </trkpt>
      <trkpt lat="45.70697" lon="6.46108">
        <ele>998</ele>
        <time>2022-07-28T13:34:31Z</time>
      </trkpt>
      <trkpt lat="45.70697" lon="6.46109">
        <ele>997</ele>
        <time>2022-07-28T13:34:32Z</time>
      </trkpt>
      <trkpt lat="45.70697" lon="6.46111">
        <ele>997</ele>
        <time>2022-07-28T13:34:33Z</time>
      </trkpt>
      <trkpt lat="45.70696" lon="6.46112">
        <ele>996</ele>
        <time>2022-07-28T13:34:34Z</time>
      </trkpt>
      <trkpt lat="45.70696" lon="6.46113">
        <ele>996</ele>
        <time>2022-07-28T13:34:35Z</time>
      </trkpt>
      <trkpt lat="45.70696" lon="6.46115">
        <ele>996</ele>
        <time>2022-07-28T13:34:36Z</time>
      </trkpt>
      <trkpt lat="45.70695" lon="6.46116">
        <ele>995</ele>
        <time>2022-07-28T13:34:37Z</time>
      </trkpt>
      <trkpt lat="45.70696" lon="6.46118">
        <ele>992</ele>
        <time>2022-07-28T13:35:47Z</time>
      </trkpt>
      <trkpt lat="45.70696" lon="6.46119">
        <ele>992</ele>
        <time>2022-07-28T13:35:48Z</time>
      </trkpt>
      <trkpt lat="45.70696" lon="6.4612">
        <ele>992</ele>
        <time>2022-07-28T13:35:49Z</time>
      </trkpt>
      <trkpt lat="45.70696" lon="6.46121">
        <ele>992</ele>
        <time>2022-07-28T13:35:50Z</time>
      </trkpt>
      <trkpt lat="45.70696" lon="6.46122">
        <ele>992</ele>
        <time>2022-07-28T13:35:51Z</time>
      </trkpt>
      <trkpt lat="45.70696" lon="6.46123">
        <ele>991</ele>
        <time>2022-07-28T13:35:52Z</time>
      </trkpt>
      <trkpt lat="45.70696" lon="6.46124">
        <ele>991</ele>
        <time>2022-07-28T13:35:53Z</time>
      </trkpt>
      <trkpt lat="45.70696" lon="6.46126">
        <ele>991</ele>
        <time>2022-07-28T13:35:54Z</time>
      </trkpt>
      <trkpt lat="45.70696" lon="6.46127">
        <ele>991</ele>
        <time>2022-07-28T13:35:55Z</time>
      </trkpt>
      <trkpt lat="45.70696" lon="6.46128">
        <ele>991</ele>
        <time>2022-07-28T13:35:56Z</time>
      </trkpt>
      <trkpt lat="45.70696" lon="6.46129">
        <ele>990</ele>
        <time>2022-07-28T13:35:57Z</time>
      </trkpt>
      <trkpt lat="45.70697" lon="6.4613">
        <ele>990</ele>
        <time>2022-07-28T13:35:58Z</time>
      </trkpt>
      <trkpt lat="45.70697" lon="6.46131">
        <ele>990</ele>
        <time>2022-07-28T13:35:59Z</time>
      </trkpt>
      <trkpt lat="45.70698" lon="6.46132">
        <ele>990</ele>
        <time>2022-07-28T13:36:00Z</time>
      </trkpt>
      <trkpt lat="45.70699" lon="6.46133">
        <ele>990</ele>
        <time>2022-07-28T13:36:01Z</time>
      </trkpt>
      <trkpt lat="45.707" lon="6.46134">
        <ele>989</ele>
        <time>2022-07-28T13:36:02Z</time>
      </trkpt>
      <trkpt lat="45.70701" lon="6.46134">
        <ele>989</ele>
        <time>2022-07-28T13:36:03Z</time>
      </trkpt>
      <trkpt lat="45.70702" lon="6.46135">
        <ele>989</ele>
        <time>2022-07-28T13:36:04Z</time>
      </trkpt>
      <trkpt lat="45.70703" lon="6.46135">
        <ele>989</ele>
        <time>2022-07-28T13:36:05Z</time>
      </trkpt>
      <trkpt lat="45.70704" lon="6.46136">
        <ele>989</ele>
        <time>2022-07-28T13:36:06Z</time>
      </trkpt>
      <trkpt lat="45.70705" lon="6.46137">
        <ele>988</ele>
        <time>2022-07-28T13:36:07Z</time>
      </trkpt>
      <trkpt lat="45.70706" lon="6.46137">
        <ele>988</ele>
        <time>2022-07-28T13:36:08Z</time>
      </trkpt>
      <trkpt lat="45.70707" lon="6.46138">
        <ele>988</ele>
        <time>2022-07-28T13:36:09Z</time>
      </trkpt>
      <trkpt lat="45.70708" lon="6.46138">
        <ele>988</ele>
        <time>2022-07-28T13:36:10Z</time>
      </trkpt>
      <trkpt lat="45.70709" lon="6.46139">
        <ele>988</ele>
        <time>2022-07-28T13:36:11Z</time>
      </trkpt>
      <trkpt lat="45.70709" lon="6.4614">
        <ele>987</ele>
        <time>2022-07-28T13:36:12Z</time>
      </trkpt>
      <trkpt lat="45.7071" lon="6.4614">
        <ele>987</ele>
        <time>2022-07-28T13:36:13Z</time>
      </trkpt>
      <trkpt lat="45.70711" lon="6.46141">
        <ele>986</ele>
        <time>2022-07-28T13:36:14Z</time>
      </trkpt>
      <trkpt lat="45.70712" lon="6.46141">
        <ele>986</ele>
        <time>2022-07-28T13:36:15Z</time>
      </trkpt>
      <trkpt lat="45.70713" lon="6.46142">
        <ele>986</ele>
        <time>2022-07-28T13:36:16Z</time>
      </trkpt>
      <trkpt lat="45.70714" lon="6.46142">
        <ele>985</ele>
        <time>2022-07-28T13:36:17Z</time>
      </trkpt>
      <trkpt lat="45.70715" lon="6.46143">
        <ele>985</ele>
        <time>2022-07-28T13:36:18Z</time>
      </trkpt>
      <trkpt lat="45.70716" lon="6.46144">
        <ele>985</ele>
        <time>2022-07-28T13:36:19Z</time>
      </trkpt>
      <trkpt lat="45.70717" lon="6.46145">
        <ele>985</ele>
        <time>2022-07-28T13:36:20Z</time>
      </trkpt>
      <trkpt lat="45.70717" lon="6.46147">
        <ele>985</ele>
        <time>2022-07-28T13:36:21Z</time>
      </trkpt>
      <trkpt lat="45.70718" lon="6.46148">
        <ele>984</ele>
        <time>2022-07-28T13:36:22Z</time>
      </trkpt>
      <trkpt lat="45.70718" lon="6.4615">
        <ele>984</ele>
        <time>2022-07-28T13:36:23Z</time>
      </trkpt>
      <trkpt lat="45.70719" lon="6.46152">
        <ele>983</ele>
        <time>2022-07-28T13:36:24Z</time>
      </trkpt>
      <trkpt lat="45.7072" lon="6.46154">
        <ele>983</ele>
        <time>2022-07-28T13:36:25Z</time>
      </trkpt>
      <trkpt lat="45.7072" lon="6.46155">
        <ele>983</ele>
        <time>2022-07-28T13:36:26Z</time>
      </trkpt>
      <trkpt lat="45.70721" lon="6.46157">
        <ele>982</ele>
        <time>2022-07-28T13:36:27Z</time>
      </trkpt>
      <trkpt lat="45.70721" lon="6.46159">
        <ele>982</ele>
        <time>2022-07-28T13:36:28Z</time>
      </trkpt>
      <trkpt lat="45.70722" lon="6.4616">
        <ele>982</ele>
        <time>2022-07-28T13:36:29Z</time>
      </trkpt>
      <trkpt lat="45.70722" lon="6.46161">
        <ele>982</ele>
        <time>2022-07-28T13:36:30Z</time>
      </trkpt>
      <trkpt lat="45.70723" lon="6.46162">
        <ele>982</ele>
        <time>2022-07-28T13:36:31Z</time>
      </trkpt>
      <trkpt lat="45.70723" lon="6.46163">
        <ele>981</ele>
        <time>2022-07-28T13:36:32Z</time>
      </trkpt>
      <trkpt lat="45.70724" lon="6.46164">
        <ele>981</ele>
        <time>2022-07-28T13:36:33Z</time>
      </trkpt>
      <trkpt lat="45.70725" lon="6.46165">
        <ele>981</ele>
        <time>2022-07-28T13:36:34Z</time>
      </trkpt>
      <trkpt lat="45.70726" lon="6.46166">
        <ele>981</ele>
        <time>2022-07-28T13:36:35Z</time>
      </trkpt>
      <trkpt lat="45.70726" lon="6.46167">
        <ele>981</ele>
        <time>2022-07-28T13:36:36Z</time>
      </trkpt>
      <trkpt lat="45.70727" lon="6.46169">
        <ele>980</ele>
        <time>2022-07-28T13:36:37Z</time>
      </trkpt>
      <trkpt lat="45.70728" lon="6.4617">
        <ele>980</ele>
        <time>2022-07-28T13:36:38Z</time>
      </trkpt>
      <trkpt lat="45.70728" lon="6.46171">
        <ele>980</ele>
        <time>2022-07-28T13:36:39Z</time>
      </trkpt>
      <trkpt lat="45.70729" lon="6.46172">
        <ele>980</ele>
        <time>2022-07-28T13:36:40Z</time>
      </trkpt>
      <trkpt lat="45.70729" lon="6.46174">
        <ele>980</ele>
        <time>2022-07-28T13:36:41Z</time>
      </trkpt>
      <trkpt lat="45.7073" lon="6.46175">
        <ele>979</ele>
        <time>2022-07-28T13:36:42Z</time>
      </trkpt>
      <trkpt lat="45.7073" lon="6.46177">
        <ele>979</ele>
        <time>2022-07-28T13:36:43Z</time>
      </trkpt>
      <trkpt lat="45.70731" lon="6.46178">
        <ele>979</ele>
        <time>2022-07-28T13:36:44Z</time>
      </trkpt>
      <trkpt lat="45.70731" lon="6.46179">
        <ele>979</ele>
        <time>2022-07-28T13:36:45Z</time>
      </trkpt>
      <trkpt lat="45.70732" lon="6.46181">
        <ele>979</ele>
        <time>2022-07-28T13:36:46Z</time>
      </trkpt>
      <trkpt lat="45.70732" lon="6.46182">
        <ele>978</ele>
        <time>2022-07-28T13:36:47Z</time>
      </trkpt>
      <trkpt lat="45.70733" lon="6.46184">
        <ele>978</ele>
        <time>2022-07-28T13:36:48Z</time>
      </trkpt>
      <trkpt lat="45.70734" lon="6.46185">
        <ele>978</ele>
        <time>2022-07-28T13:36:49Z</time>
      </trkpt>
      <trkpt lat="45.70735" lon="6.46186">
        <ele>978</ele>
        <time>2022-07-28T13:36:50Z</time>
      </trkpt>
      <trkpt lat="45.70735" lon="6.46188">
        <ele>978</ele>
        <time>2022-07-28T13:36:51Z</time>
      </trkpt>
      <trkpt lat="45.70736" lon="6.46189">
        <ele>977</ele>
        <time>2022-07-28T13:36:52Z</time>
      </trkpt>
      <trkpt lat="45.70737" lon="6.4619">
        <ele>977</ele>
        <time>2022-07-28T13:36:53Z</time>
      </trkpt>
      <trkpt lat="45.70738" lon="6.4619">
        <ele>977</ele>
        <time>2022-07-28T13:36:54Z</time>
      </trkpt>
      <trkpt lat="45.70739" lon="6.46191">
        <ele>977</ele>
        <time>2022-07-28T13:36:55Z</time>
      </trkpt>
      <trkpt lat="45.7074" lon="6.46191">
        <ele>977</ele>
        <time>2022-07-28T13:36:56Z</time>
      </trkpt>
      <trkpt lat="45.70741" lon="6.4619">
        <ele>977</ele>
        <time>2022-07-28T13:36:57Z</time>
      </trkpt>
      <trkpt lat="45.70742" lon="6.4619">
        <ele>977</ele>
        <time>2022-07-28T13:36:58Z</time>
      </trkpt>
      <trkpt lat="45.70744" lon="6.46189">
        <ele>977</ele>
        <time>2022-07-28T13:36:59Z</time>
      </trkpt>
      <trkpt lat="45.70745" lon="6.46188">
        <ele>977</ele>
        <time>2022-07-28T13:37:00Z</time>
      </trkpt>
      <trkpt lat="45.70746" lon="6.46188">
        <ele>977</ele>
        <time>2022-07-28T13:37:01Z</time>
      </trkpt>
      <trkpt lat="45.70747" lon="6.46187">
        <ele>976</ele>
        <time>2022-07-28T13:37:02Z</time>
      </trkpt>
      <trkpt lat="45.70748" lon="6.46186">
        <ele>976</ele>
        <time>2022-07-28T13:37:03Z</time>
      </trkpt>
      <trkpt lat="45.70749" lon="6.46185">
        <ele>976</ele>
        <time>2022-07-28T13:37:04Z</time>
      </trkpt>
      <trkpt lat="45.70749" lon="6.46184">
        <ele>976</ele>
        <time>2022-07-28T13:37:05Z</time>
      </trkpt>
      <trkpt lat="45.7075" lon="6.46182">
        <ele>976</ele>
        <time>2022-07-28T13:37:06Z</time>
      </trkpt>
      <trkpt lat="45.70751" lon="6.46181">
        <ele>975</ele>
        <time>2022-07-28T13:37:07Z</time>
      </trkpt>
      <trkpt lat="45.70752" lon="6.4618">
        <ele>975</ele>
        <time>2022-07-28T13:37:08Z</time>
      </trkpt>
      <trkpt lat="45.70753" lon="6.46179">
        <ele>975</ele>
        <time>2022-07-28T13:37:09Z</time>
      </trkpt>
      <trkpt lat="45.70753" lon="6.46178">
        <ele>975</ele>
        <time>2022-07-28T13:37:10Z</time>
      </trkpt>
      <trkpt lat="45.70754" lon="6.46177">
        <ele>975</ele>
        <time>2022-07-28T13:37:11Z</time>
      </trkpt>
      <trkpt lat="45.70755" lon="6.46176">
        <ele>974</ele>
        <time>2022-07-28T13:37:12Z</time>
      </trkpt>
      <trkpt lat="45.70756" lon="6.46176">
        <ele>974</ele>
        <time>2022-07-28T13:37:13Z</time>
      </trkpt>
      <trkpt lat="45.70758" lon="6.46175">
        <ele>974</ele>
        <time>2022-07-28T13:37:14Z</time>
      </trkpt>
      <trkpt lat="45.70759" lon="6.46174">
        <ele>974</ele>
        <time>2022-07-28T13:37:15Z</time>
      </trkpt>
      <trkpt lat="45.7076" lon="6.46174">
        <ele>974</ele>
        <time>2022-07-28T13:37:16Z</time>
      </trkpt>
      <trkpt lat="45.70761" lon="6.46173">
        <ele>973</ele>
        <time>2022-07-28T13:37:17Z</time>
      </trkpt>
      <trkpt lat="45.70762" lon="6.46172">
        <ele>973</ele>
        <time>2022-07-28T13:37:18Z</time>
      </trkpt>
      <trkpt lat="45.70763" lon="6.46172">
        <ele>973</ele>
        <time>2022-07-28T13:37:19Z</time>
      </trkpt>
      <trkpt lat="45.70764" lon="6.46172">
        <ele>973</ele>
        <time>2022-07-28T13:37:20Z</time>
      </trkpt>
      <trkpt lat="45.70766" lon="6.46171">
        <ele>973</ele>
        <time>2022-07-28T13:37:21Z</time>
      </trkpt>
      <trkpt lat="45.70767" lon="6.46171">
        <ele>972</ele>
        <time>2022-07-28T13:37:22Z</time>
      </trkpt>
      <trkpt lat="45.70768" lon="6.46171">
        <ele>972</ele>
        <time>2022-07-28T13:37:23Z</time>
      </trkpt>
      <trkpt lat="45.70769" lon="6.46171">
        <ele>972</ele>
        <time>2022-07-28T13:37:24Z</time>
      </trkpt>
      <trkpt lat="45.70771" lon="6.46171">
        <ele>972</ele>
        <time>2022-07-28T13:37:25Z</time>
      </trkpt>
      <trkpt lat="45.70772" lon="6.46172">
        <ele>972</ele>
        <time>2022-07-28T13:37:26Z</time>
      </trkpt>
      <trkpt lat="45.70773" lon="6.46172">
        <ele>971</ele>
        <time>2022-07-28T13:37:27Z</time>
      </trkpt>
      <trkpt lat="45.70774" lon="6.46172">
        <ele>971</ele>
        <time>2022-07-28T13:37:28Z</time>
      </trkpt>
      <trkpt lat="45.70775" lon="6.46172">
        <ele>971</ele>
        <time>2022-07-28T13:37:29Z</time>
      </trkpt>
      <trkpt lat="45.70776" lon="6.46172">
        <ele>971</ele>
        <time>2022-07-28T13:37:30Z</time>
      </trkpt>
      <trkpt lat="45.70777" lon="6.46172">
        <ele>971</ele>
        <time>2022-07-28T13:37:31Z</time>
      </trkpt>
      <trkpt lat="45.70778" lon="6.46172">
        <ele>970</ele>
        <time>2022-07-28T13:37:32Z</time>
      </trkpt>
      <trkpt lat="45.70779" lon="6.46172">
        <ele>970</ele>
        <time>2022-07-28T13:37:33Z</time>
      </trkpt>
      <trkpt lat="45.70779" lon="6.46173">
        <ele>970</ele>
        <time>2022-07-28T13:37:34Z</time>
      </trkpt>
      <trkpt lat="45.7078" lon="6.46174">
        <ele>970</ele>
        <time>2022-07-28T13:37:35Z</time>
      </trkpt>
      <trkpt lat="45.7078" lon="6.46175">
        <ele>970</ele>
        <time>2022-07-28T13:37:36Z</time>
      </trkpt>
      <trkpt lat="45.70781" lon="6.46176">
        <ele>970</ele>
        <time>2022-07-28T13:37:37Z</time>
      </trkpt>
      <trkpt lat="45.70781" lon="6.4618">
        <ele>969</ele>
        <time>2022-07-28T13:37:44Z</time>
      </trkpt>
      <trkpt lat="45.70781" lon="6.46181">
        <ele>969</ele>
        <time>2022-07-28T13:37:45Z</time>
      </trkpt>
      <trkpt lat="45.70782" lon="6.46183">
        <ele>969</ele>
        <time>2022-07-28T13:37:46Z</time>
      </trkpt>
      <trkpt lat="45.70781" lon="6.46184">
        <ele>969</ele>
        <time>2022-07-28T13:37:47Z</time>
      </trkpt>
      <trkpt lat="45.70781" lon="6.46185">
        <ele>969</ele>
        <time>2022-07-28T13:37:48Z</time>
      </trkpt>
      <trkpt lat="45.70781" lon="6.46186">
        <ele>969</ele>
        <time>2022-07-28T13:37:49Z</time>
      </trkpt>
      <trkpt lat="45.70781" lon="6.46188">
        <ele>969</ele>
        <time>2022-07-28T13:37:50Z</time>
      </trkpt>
      <trkpt lat="45.7078" lon="6.46189">
        <ele>969</ele>
        <time>2022-07-28T13:37:51Z</time>
      </trkpt>
      <trkpt lat="45.7078" lon="6.46191">
        <ele>968</ele>
        <time>2022-07-28T13:37:52Z</time>
      </trkpt>
      <trkpt lat="45.7078" lon="6.46193">
        <ele>968</ele>
        <time>2022-07-28T13:37:53Z</time>
      </trkpt>
      <trkpt lat="45.7078" lon="6.46195">
        <ele>968</ele>
        <time>2022-07-28T13:37:54Z</time>
      </trkpt>
      <trkpt lat="45.70779" lon="6.46197">
        <ele>968</ele>
        <time>2022-07-28T13:37:55Z</time>
      </trkpt>
      <trkpt lat="45.70779" lon="6.462">
        <ele>968</ele>
        <time>2022-07-28T13:37:56Z</time>
      </trkpt>
      <trkpt lat="45.70779" lon="6.46203">
        <ele>967</ele>
        <time>2022-07-28T13:37:57Z</time>
      </trkpt>
      <trkpt lat="45.70779" lon="6.46205">
        <ele>967</ele>
        <time>2022-07-28T13:37:58Z</time>
      </trkpt>
      <trkpt lat="45.70779" lon="6.46208">
        <ele>966</ele>
        <time>2022-07-28T13:37:59Z</time>
      </trkpt>
      <trkpt lat="45.70778" lon="6.46211">
        <ele>966</ele>
        <time>2022-07-28T13:38:00Z</time>
      </trkpt>
      <trkpt lat="45.70778" lon="6.46213">
        <ele>966</ele>
        <time>2022-07-28T13:38:01Z</time>
      </trkpt>
      <trkpt lat="45.70778" lon="6.46216">
        <ele>965</ele>
        <time>2022-07-28T13:38:02Z</time>
      </trkpt>
      <trkpt lat="45.70778" lon="6.46218">
        <ele>965</ele>
        <time>2022-07-28T13:38:03Z</time>
      </trkpt>
      <trkpt lat="45.70778" lon="6.4622">
        <ele>965</ele>
        <time>2022-07-28T13:38:04Z</time>
      </trkpt>
      <trkpt lat="45.70778" lon="6.46221">
        <ele>965</ele>
        <time>2022-07-28T13:38:05Z</time>
      </trkpt>
      <trkpt lat="45.70778" lon="6.46223">
        <ele>965</ele>
        <time>2022-07-28T13:38:06Z</time>
      </trkpt>
      <trkpt lat="45.70778" lon="6.46224">
        <ele>964</ele>
        <time>2022-07-28T13:38:31Z</time>
      </trkpt>
      <trkpt lat="45.70778" lon="6.46224">
        <ele>964</ele>
        <time>2022-07-28T13:38:32Z</time>
      </trkpt>
      <trkpt lat="45.70778" lon="6.46224">
        <ele>964</ele>
        <time>2022-07-28T13:38:33Z</time>
      </trkpt>
      <trkpt lat="45.70778" lon="6.46224">
        <ele>964</ele>
        <time>2022-07-28T13:38:34Z</time>
      </trkpt>
      <trkpt lat="45.70777" lon="6.46225">
        <ele>964</ele>
        <time>2022-07-28T13:38:35Z</time>
      </trkpt>
      <trkpt lat="45.70777" lon="6.46226">
        <ele>965</ele>
        <time>2022-07-28T13:38:36Z</time>
      </trkpt>
      <trkpt lat="45.70777" lon="6.46227">
        <ele>964</ele>
        <time>2022-07-28T13:38:37Z</time>
      </trkpt>
      <trkpt lat="45.70777" lon="6.46229">
        <ele>964</ele>
        <time>2022-07-28T13:38:38Z</time>
      </trkpt>
      <trkpt lat="45.70777" lon="6.4623">
        <ele>964</ele>
        <time>2022-07-28T13:38:39Z</time>
      </trkpt>
      <trkpt lat="45.70777" lon="6.46232">
        <ele>964</ele>
        <time>2022-07-28T13:38:40Z</time>
      </trkpt>
      <trkpt lat="45.70777" lon="6.46233">
        <ele>964</ele>
        <time>2022-07-28T13:38:41Z</time>
      </trkpt>
      <trkpt lat="45.70776" lon="6.46235">
        <ele>964</ele>
        <time>2022-07-28T13:38:42Z</time>
      </trkpt>
      <trkpt lat="45.70776" lon="6.46236">
        <ele>964</ele>
        <time>2022-07-28T13:38:43Z</time>
      </trkpt>
      <trkpt lat="45.70775" lon="6.46237">
        <ele>964</ele>
        <time>2022-07-28T13:38:44Z</time>
      </trkpt>
      <trkpt lat="45.70775" lon="6.46239">
        <ele>964</ele>
        <time>2022-07-28T13:38:45Z</time>
      </trkpt>
      <trkpt lat="45.70774" lon="6.4624">
        <ele>964</ele>
        <time>2022-07-28T13:38:46Z</time>
      </trkpt>
      <trkpt lat="45.70773" lon="6.46241">
        <ele>964</ele>
        <time>2022-07-28T13:38:47Z</time>
      </trkpt>
      <trkpt lat="45.70773" lon="6.46242">
        <ele>964</ele>
        <time>2022-07-28T13:38:48Z</time>
      </trkpt>
      <trkpt lat="45.70772" lon="6.46243">
        <ele>964</ele>
        <time>2022-07-28T13:38:49Z</time>
      </trkpt>
      <trkpt lat="45.70771" lon="6.46244">
        <ele>964</ele>
        <time>2022-07-28T13:38:50Z</time>
      </trkpt>
      <trkpt lat="45.70771" lon="6.46245">
        <ele>964</ele>
        <time>2022-07-28T13:38:51Z</time>
      </trkpt>
      <trkpt lat="45.7077" lon="6.46246">
        <ele>964</ele>
        <time>2022-07-28T13:38:52Z</time>
      </trkpt>
      <trkpt lat="45.7077" lon="6.46247">
        <ele>964</ele>
        <time>2022-07-28T13:38:53Z</time>
      </trkpt>
      <trkpt lat="45.70769" lon="6.46249">
        <ele>964</ele>
        <time>2022-07-28T13:39:03Z</time>
      </trkpt>
      <trkpt lat="45.70769" lon="6.4625">
        <ele>964</ele>
        <time>2022-07-28T13:39:04Z</time>
      </trkpt>
      <trkpt lat="45.70769" lon="6.4625">
        <ele>964</ele>
        <time>2022-07-28T13:39:05Z</time>
      </trkpt>
      <trkpt lat="45.70769" lon="6.4625">
        <ele>964</ele>
        <time>2022-07-28T13:39:06Z</time>
      </trkpt>
      <trkpt lat="45.70769" lon="6.46251">
        <ele>963</ele>
        <time>2022-07-28T13:39:07Z</time>
      </trkpt>
      <trkpt lat="45.70769" lon="6.46251">
        <ele>963</ele>
        <time>2022-07-28T13:39:08Z</time>
      </trkpt>
      <trkpt lat="45.70769" lon="6.46251">
        <ele>963</ele>
        <time>2022-07-28T13:39:09Z</time>
      </trkpt>
      <trkpt lat="45.70769" lon="6.46252">
        <ele>963</ele>
        <time>2022-07-28T13:39:10Z</time>
      </trkpt>
      <trkpt lat="45.70769" lon="6.46252">
        <ele>963</ele>
        <time>2022-07-28T13:39:11Z</time>
      </trkpt>
      <trkpt lat="45.70769" lon="6.46253">
        <ele>963</ele>
        <time>2022-07-28T13:39:12Z</time>
      </trkpt>
      <trkpt lat="45.70769" lon="6.46253">
        <ele>963</ele>
        <time>2022-07-28T13:39:13Z</time>
      </trkpt>
      <trkpt lat="45.70768" lon="6.46254">
        <ele>963</ele>
        <time>2022-07-28T13:39:14Z</time>
      </trkpt>
      <trkpt lat="45.70768" lon="6.46255">
        <ele>963</ele>
        <time>2022-07-28T13:39:15Z</time>
      </trkpt>
      <trkpt lat="45.70768" lon="6.46256">
        <ele>963</ele>
        <time>2022-07-28T13:39:16Z</time>
      </trkpt>
      <trkpt lat="45.70768" lon="6.46257">
        <ele>962</ele>
        <time>2022-07-28T13:39:17Z</time>
      </trkpt>
      <trkpt lat="45.70768" lon="6.46258">
        <ele>962</ele>
        <time>2022-07-28T13:39:18Z</time>
      </trkpt>
      <trkpt lat="45.70768" lon="6.46258">
        <ele>962</ele>
        <time>2022-07-28T13:39:19Z</time>
      </trkpt>
      <trkpt lat="45.70768" lon="6.46259">
        <ele>962</ele>
        <time>2022-07-28T13:39:20Z</time>
      </trkpt>
      <trkpt lat="45.70768" lon="6.4626">
        <ele>962</ele>
        <time>2022-07-28T13:39:21Z</time>
      </trkpt>
      <trkpt lat="45.70769" lon="6.46261">
        <ele>961</ele>
        <time>2022-07-28T13:39:22Z</time>
      </trkpt>
      <trkpt lat="45.70769" lon="6.46262">
        <ele>961</ele>
        <time>2022-07-28T13:39:23Z</time>
      </trkpt>
      <trkpt lat="45.7077" lon="6.46263">
        <ele>960</ele>
        <time>2022-07-28T13:39:24Z</time>
      </trkpt>
      <trkpt lat="45.70771" lon="6.46263">
        <ele>960</ele>
        <time>2022-07-28T13:39:25Z</time>
      </trkpt>
      <trkpt lat="45.70772" lon="6.46264">
        <ele>960</ele>
        <time>2022-07-28T13:39:26Z</time>
      </trkpt>
      <trkpt lat="45.70773" lon="6.46265">
        <ele>959</ele>
        <time>2022-07-28T13:39:27Z</time>
      </trkpt>
      <trkpt lat="45.70774" lon="6.46266">
        <ele>959</ele>
        <time>2022-07-28T13:39:28Z</time>
      </trkpt>
      <trkpt lat="45.70775" lon="6.46267">
        <ele>959</ele>
        <time>2022-07-28T13:39:29Z</time>
      </trkpt>
      <trkpt lat="45.70776" lon="6.46268">
        <ele>959</ele>
        <time>2022-07-28T13:39:30Z</time>
      </trkpt>
      <trkpt lat="45.70777" lon="6.46268">
        <ele>959</ele>
        <time>2022-07-28T13:39:31Z</time>
      </trkpt>
      <trkpt lat="45.70778" lon="6.46269">
        <ele>958</ele>
        <time>2022-07-28T13:39:32Z</time>
      </trkpt>
      <trkpt lat="45.70779" lon="6.4627">
        <ele>958</ele>
        <time>2022-07-28T13:39:33Z</time>
      </trkpt>
      <trkpt lat="45.7078" lon="6.46271">
        <ele>957</ele>
        <time>2022-07-28T13:39:34Z</time>
      </trkpt>
      <trkpt lat="45.70781" lon="6.46272">
        <ele>957</ele>
        <time>2022-07-28T13:39:35Z</time>
      </trkpt>
      <trkpt lat="45.70782" lon="6.46273">
        <ele>957</ele>
        <time>2022-07-28T13:39:36Z</time>
      </trkpt>
      <trkpt lat="45.70783" lon="6.46274">
        <ele>956</ele>
        <time>2022-07-28T13:39:37Z</time>
      </trkpt>
      <trkpt lat="45.70784" lon="6.46275">
        <ele>956</ele>
        <time>2022-07-28T13:39:38Z</time>
      </trkpt>
      <trkpt lat="45.70784" lon="6.46276">
        <ele>955</ele>
        <time>2022-07-28T13:39:39Z</time>
      </trkpt>
      <trkpt lat="45.70785" lon="6.46276">
        <ele>955</ele>
        <time>2022-07-28T13:39:40Z</time>
      </trkpt>
      <trkpt lat="45.70786" lon="6.46277">
        <ele>955</ele>
        <time>2022-07-28T13:39:41Z</time>
      </trkpt>
      <trkpt lat="45.70786" lon="6.46278">
        <ele>954</ele>
        <time>2022-07-28T13:39:42Z</time>
      </trkpt>
      <trkpt lat="45.70787" lon="6.46279">
        <ele>954</ele>
        <time>2022-07-28T13:39:43Z</time>
      </trkpt>
      <trkpt lat="45.70787" lon="6.46279">
        <ele>954</ele>
        <time>2022-07-28T13:39:44Z</time>
      </trkpt>
      <trkpt lat="45.70788" lon="6.4628">
        <ele>954</ele>
        <time>2022-07-28T13:39:45Z</time>
      </trkpt>
      <trkpt lat="45.70788" lon="6.4628">
        <ele>954</ele>
        <time>2022-07-28T13:39:46Z</time>
      </trkpt>
      <trkpt lat="45.70789" lon="6.46281">
        <ele>953</ele>
        <time>2022-07-28T13:39:47Z</time>
      </trkpt>
      <trkpt lat="45.70789" lon="6.46282">
        <ele>953</ele>
        <time>2022-07-28T13:39:48Z</time>
      </trkpt>
      <trkpt lat="45.7079" lon="6.46282">
        <ele>952</ele>
        <time>2022-07-28T13:39:49Z</time>
      </trkpt>
      <trkpt lat="45.70791" lon="6.46283">
        <ele>952</ele>
        <time>2022-07-28T13:39:50Z</time>
      </trkpt>
      <trkpt lat="45.70792" lon="6.46283">
        <ele>952</ele>
        <time>2022-07-28T13:39:51Z</time>
      </trkpt>
      <trkpt lat="45.70792" lon="6.46283">
        <ele>951</ele>
        <time>2022-07-28T13:39:52Z</time>
      </trkpt>
      <trkpt lat="45.70793" lon="6.46283">
        <ele>951</ele>
        <time>2022-07-28T13:39:53Z</time>
      </trkpt>
      <trkpt lat="45.70794" lon="6.46283">
        <ele>951</ele>
        <time>2022-07-28T13:39:54Z</time>
      </trkpt>
      <trkpt lat="45.70795" lon="6.46282">
        <ele>951</ele>
        <time>2022-07-28T13:39:55Z</time>
      </trkpt>
      <trkpt lat="45.70796" lon="6.46282">
        <ele>951</ele>
        <time>2022-07-28T13:39:56Z</time>
      </trkpt>
      <trkpt lat="45.70797" lon="6.46282">
        <ele>950</ele>
        <time>2022-07-28T13:39:57Z</time>
      </trkpt>
      <trkpt lat="45.70797" lon="6.46282">
        <ele>950</ele>
        <time>2022-07-28T13:39:58Z</time>
      </trkpt>
      <trkpt lat="45.70798" lon="6.46283">
        <ele>949</ele>
        <time>2022-07-28T13:39:59Z</time>
      </trkpt>
      <trkpt lat="45.70798" lon="6.46285">
        <ele>949</ele>
        <time>2022-07-28T13:40:00Z</time>
      </trkpt>
      <trkpt lat="45.70799" lon="6.46287">
        <ele>949</ele>
        <time>2022-07-28T13:40:01Z</time>
      </trkpt>
      <trkpt lat="45.70799" lon="6.46289">
        <ele>948</ele>
        <time>2022-07-28T13:40:02Z</time>
      </trkpt>
      <trkpt lat="45.70799" lon="6.46291">
        <ele>948</ele>
        <time>2022-07-28T13:40:03Z</time>
      </trkpt>
      <trkpt lat="45.70798" lon="6.46293">
        <ele>948</ele>
        <time>2022-07-28T13:40:04Z</time>
      </trkpt>
      <trkpt lat="45.70798" lon="6.46295">
        <ele>948</ele>
        <time>2022-07-28T13:40:05Z</time>
      </trkpt>
      <trkpt lat="45.70798" lon="6.46297">
        <ele>948</ele>
        <time>2022-07-28T13:40:06Z</time>
      </trkpt>
      <trkpt lat="45.70798" lon="6.463">
        <ele>947</ele>
        <time>2022-07-28T13:40:07Z</time>
      </trkpt>
      <trkpt lat="45.70797" lon="6.46301">
        <ele>947</ele>
        <time>2022-07-28T13:40:08Z</time>
      </trkpt>
      <trkpt lat="45.70797" lon="6.46303">
        <ele>947</ele>
        <time>2022-07-28T13:40:09Z</time>
      </trkpt>
      <trkpt lat="45.70797" lon="6.46305">
        <ele>947</ele>
        <time>2022-07-28T13:40:10Z</time>
      </trkpt>
      <trkpt lat="45.70797" lon="6.46307">
        <ele>947</ele>
        <time>2022-07-28T13:40:11Z</time>
      </trkpt>
      <trkpt lat="45.70797" lon="6.46308">
        <ele>946</ele>
        <time>2022-07-28T13:40:12Z</time>
      </trkpt>
      <trkpt lat="45.70797" lon="6.4631">
        <ele>946</ele>
        <time>2022-07-28T13:40:13Z</time>
      </trkpt>
      <trkpt lat="45.70798" lon="6.46312">
        <ele>946</ele>
        <time>2022-07-28T13:40:14Z</time>
      </trkpt>
      <trkpt lat="45.70798" lon="6.46314">
        <ele>946</ele>
        <time>2022-07-28T13:40:15Z</time>
      </trkpt>
      <trkpt lat="45.70798" lon="6.46315">
        <ele>946</ele>
        <time>2022-07-28T13:40:16Z</time>
      </trkpt>
      <trkpt lat="45.70798" lon="6.46317">
        <ele>946</ele>
        <time>2022-07-28T13:40:17Z</time>
      </trkpt>
      <trkpt lat="45.70798" lon="6.46319">
        <ele>946</ele>
        <time>2022-07-28T13:40:18Z</time>
      </trkpt>
      <trkpt lat="45.70798" lon="6.4632">
        <ele>946</ele>
        <time>2022-07-28T13:40:19Z</time>
      </trkpt>
      <trkpt lat="45.70798" lon="6.46322">
        <ele>946</ele>
        <time>2022-07-28T13:40:20Z</time>
      </trkpt>
      <trkpt lat="45.70799" lon="6.46324">
        <ele>946</ele>
        <time>2022-07-28T13:40:21Z</time>
      </trkpt>
      <trkpt lat="45.70799" lon="6.46326">
        <ele>945</ele>
        <time>2022-07-28T13:40:22Z</time>
      </trkpt>
      <trkpt lat="45.70799" lon="6.46327">
        <ele>945</ele>
        <time>2022-07-28T13:40:23Z</time>
      </trkpt>
      <trkpt lat="45.70799" lon="6.46329">
        <ele>945</ele>
        <time>2022-07-28T13:40:24Z</time>
      </trkpt>
      <trkpt lat="45.70799" lon="6.4633">
        <ele>945</ele>
        <time>2022-07-28T13:40:25Z</time>
      </trkpt>
      <trkpt lat="45.70799" lon="6.46332">
        <ele>945</ele>
        <time>2022-07-28T13:40:26Z</time>
      </trkpt>
      <trkpt lat="45.70799" lon="6.46334">
        <ele>945</ele>
        <time>2022-07-28T13:40:27Z</time>
      </trkpt>
      <trkpt lat="45.70799" lon="6.46335">
        <ele>945</ele>
        <time>2022-07-28T13:40:28Z</time>
      </trkpt>
      <trkpt lat="45.70799" lon="6.46337">
        <ele>945</ele>
        <time>2022-07-28T13:40:29Z</time>
      </trkpt>
      <trkpt lat="45.708" lon="6.46339">
        <ele>945</ele>
        <time>2022-07-28T13:40:30Z</time>
      </trkpt>
      <trkpt lat="45.708" lon="6.46341">
        <ele>945</ele>
        <time>2022-07-28T13:40:31Z</time>
      </trkpt>
      <trkpt lat="45.708" lon="6.46342">
        <ele>944</ele>
        <time>2022-07-28T13:40:32Z</time>
      </trkpt>
      <trkpt lat="45.708" lon="6.46344">
        <ele>944</ele>
        <time>2022-07-28T13:40:33Z</time>
      </trkpt>
      <trkpt lat="45.708" lon="6.46344">
        <ele>944</ele>
        <time>2022-07-28T13:40:34Z</time>
      </trkpt>
      <trkpt lat="45.708" lon="6.46345">
        <ele>944</ele>
        <time>2022-07-28T13:40:35Z</time>
      </trkpt>
      <trkpt lat="45.708" lon="6.46346">
        <ele>944</ele>
        <time>2022-07-28T13:40:36Z</time>
      </trkpt>
      <trkpt lat="45.708" lon="6.46347">
        <ele>944</ele>
        <time>2022-07-28T13:40:37Z</time>
      </trkpt>
      <trkpt lat="45.708" lon="6.46348">
        <ele>944</ele>
        <time>2022-07-28T13:40:38Z</time>
      </trkpt>
      <trkpt lat="45.708" lon="6.46348">
        <ele>944</ele>
        <time>2022-07-28T13:40:39Z</time>
      </trkpt>
      <trkpt lat="45.708" lon="6.4635">
        <ele>944</ele>
        <time>2022-07-28T13:40:40Z</time>
      </trkpt>
      <trkpt lat="45.70801" lon="6.46351">
        <ele>944</ele>
        <time>2022-07-28T13:40:41Z</time>
      </trkpt>
      <trkpt lat="45.70801" lon="6.46352">
        <ele>944</ele>
        <time>2022-07-28T13:40:42Z</time>
      </trkpt>
      <trkpt lat="45.70801" lon="6.46354">
        <ele>944</ele>
        <time>2022-07-28T13:40:43Z</time>
      </trkpt>
      <trkpt lat="45.70801" lon="6.46356">
        <ele>944</ele>
        <time>2022-07-28T13:40:44Z</time>
      </trkpt>
      <trkpt lat="45.708" lon="6.46358">
        <ele>944</ele>
        <time>2022-07-28T13:40:45Z</time>
      </trkpt>
      <trkpt lat="45.708" lon="6.4636">
        <ele>944</ele>
        <time>2022-07-28T13:40:46Z</time>
      </trkpt>
      <trkpt lat="45.708" lon="6.46361">
        <ele>943</ele>
        <time>2022-07-28T13:40:47Z</time>
      </trkpt>
      <trkpt lat="45.708" lon="6.46363">
        <ele>943</ele>
        <time>2022-07-28T13:40:48Z</time>
      </trkpt>
      <trkpt lat="45.70799" lon="6.46365">
        <ele>943</ele>
        <time>2022-07-28T13:40:49Z</time>
      </trkpt>
      <trkpt lat="45.70799" lon="6.46367">
        <ele>943</ele>
        <time>2022-07-28T13:40:50Z</time>
      </trkpt>
      <trkpt lat="45.70799" lon="6.46369">
        <ele>943</ele>
        <time>2022-07-28T13:40:51Z</time>
      </trkpt>
      <trkpt lat="45.70799" lon="6.4637">
        <ele>943</ele>
        <time>2022-07-28T13:40:52Z</time>
      </trkpt>
      <trkpt lat="45.70798" lon="6.46372">
        <ele>943</ele>
        <time>2022-07-28T13:40:53Z</time>
      </trkpt>
      <trkpt lat="45.70798" lon="6.46374">
        <ele>943</ele>
        <time>2022-07-28T13:40:54Z</time>
      </trkpt>
      <trkpt lat="45.70798" lon="6.46375">
        <ele>943</ele>
        <time>2022-07-28T13:40:55Z</time>
      </trkpt>
      <trkpt lat="45.70798" lon="6.46377">
        <ele>943</ele>
        <time>2022-07-28T13:40:56Z</time>
      </trkpt>
      <trkpt lat="45.70798" lon="6.46379">
        <ele>942</ele>
        <time>2022-07-28T13:40:57Z</time>
      </trkpt>
      <trkpt lat="45.70798" lon="6.4638">
        <ele>942</ele>
        <time>2022-07-28T13:40:58Z</time>
      </trkpt>
      <trkpt lat="45.70798" lon="6.46382">
        <ele>942</ele>
        <time>2022-07-28T13:40:59Z</time>
      </trkpt>
      <trkpt lat="45.70798" lon="6.46384">
        <ele>942</ele>
        <time>2022-07-28T13:41:00Z</time>
      </trkpt>
      <trkpt lat="45.70798" lon="6.46385">
        <ele>942</ele>
        <time>2022-07-28T13:41:01Z</time>
      </trkpt>
      <trkpt lat="45.70799" lon="6.46387">
        <ele>942</ele>
        <time>2022-07-28T13:41:02Z</time>
      </trkpt>
      <trkpt lat="45.70799" lon="6.46389">
        <ele>942</ele>
        <time>2022-07-28T13:41:03Z</time>
      </trkpt>
      <trkpt lat="45.70799" lon="6.4639">
        <ele>942</ele>
        <time>2022-07-28T13:41:04Z</time>
      </trkpt>
      <trkpt lat="45.70799" lon="6.46392">
        <ele>942</ele>
        <time>2022-07-28T13:41:05Z</time>
      </trkpt>
      <trkpt lat="45.70799" lon="6.46393">
        <ele>942</ele>
        <time>2022-07-28T13:41:06Z</time>
      </trkpt>
      <trkpt lat="45.70799" lon="6.46395">
        <ele>941</ele>
        <time>2022-07-28T13:41:07Z</time>
      </trkpt>
      <trkpt lat="45.70799" lon="6.46397">
        <ele>941</ele>
        <time>2022-07-28T13:41:08Z</time>
      </trkpt>
      <trkpt lat="45.70799" lon="6.46398">
        <ele>941</ele>
        <time>2022-07-28T13:41:09Z</time>
      </trkpt>
      <trkpt lat="45.70799" lon="6.464">
        <ele>941</ele>
        <time>2022-07-28T13:41:10Z</time>
      </trkpt>
      <trkpt lat="45.70799" lon="6.46402">
        <ele>941</ele>
        <time>2022-07-28T13:41:11Z</time>
      </trkpt>
      <trkpt lat="45.70798" lon="6.46403">
        <ele>941</ele>
        <time>2022-07-28T13:41:12Z</time>
      </trkpt>
      <trkpt lat="45.70798" lon="6.46405">
        <ele>941</ele>
        <time>2022-07-28T13:41:13Z</time>
      </trkpt>
      <trkpt lat="45.70798" lon="6.46406">
        <ele>941</ele>
        <time>2022-07-28T13:41:14Z</time>
      </trkpt>
      <trkpt lat="45.70798" lon="6.46407">
        <ele>941</ele>
        <time>2022-07-28T13:41:15Z</time>
      </trkpt>
      <trkpt lat="45.70798" lon="6.46409">
        <ele>941</ele>
        <time>2022-07-28T13:41:16Z</time>
      </trkpt>
      <trkpt lat="45.70797" lon="6.4641">
        <ele>940</ele>
        <time>2022-07-28T13:41:17Z</time>
      </trkpt>
      <trkpt lat="45.70797" lon="6.46412">
        <ele>940</ele>
        <time>2022-07-28T13:41:18Z</time>
      </trkpt>
      <trkpt lat="45.70797" lon="6.46413">
        <ele>939</ele>
        <time>2022-07-28T13:41:19Z</time>
      </trkpt>
      <trkpt lat="45.70797" lon="6.46415">
        <ele>939</ele>
        <time>2022-07-28T13:41:20Z</time>
      </trkpt>
      <trkpt lat="45.70797" lon="6.46417">
        <ele>939</ele>
        <time>2022-07-28T13:41:21Z</time>
      </trkpt>
      <trkpt lat="45.70797" lon="6.4642">
        <ele>939</ele>
        <time>2022-07-28T13:41:28Z</time>
      </trkpt>
      <trkpt lat="45.70797" lon="6.46421">
        <ele>939</ele>
        <time>2022-07-28T13:41:29Z</time>
      </trkpt>
      <trkpt lat="45.70798" lon="6.46422">
        <ele>939</ele>
        <time>2022-07-28T13:41:30Z</time>
      </trkpt>
      <trkpt lat="45.70798" lon="6.46423">
        <ele>939</ele>
        <time>2022-07-28T13:41:31Z</time>
      </trkpt>
      <trkpt lat="45.70798" lon="6.46424">
        <ele>938</ele>
        <time>2022-07-28T13:41:32Z</time>
      </trkpt>
      <trkpt lat="45.70798" lon="6.46425">
        <ele>938</ele>
        <time>2022-07-28T13:41:33Z</time>
      </trkpt>
      <trkpt lat="45.70799" lon="6.46427">
        <ele>938</ele>
        <time>2022-07-28T13:41:34Z</time>
      </trkpt>
      <trkpt lat="45.70799" lon="6.46428">
        <ele>938</ele>
        <time>2022-07-28T13:41:35Z</time>
      </trkpt>
      <trkpt lat="45.70799" lon="6.46429">
        <ele>938</ele>
        <time>2022-07-28T13:41:36Z</time>
      </trkpt>
      <trkpt lat="45.70799" lon="6.4643">
        <ele>937</ele>
        <time>2022-07-28T13:41:37Z</time>
      </trkpt>
      <trkpt lat="45.70799" lon="6.46431">
        <ele>937</ele>
        <time>2022-07-28T13:41:38Z</time>
      </trkpt>
      <trkpt lat="45.708" lon="6.46432">
        <ele>937</ele>
        <time>2022-07-28T13:41:39Z</time>
      </trkpt>
      <trkpt lat="45.708" lon="6.46433">
        <ele>937</ele>
        <time>2022-07-28T13:41:40Z</time>
      </trkpt>
      <trkpt lat="45.708" lon="6.46434">
        <ele>937</ele>
        <time>2022-07-28T13:41:41Z</time>
      </trkpt>
      <trkpt lat="45.708" lon="6.46435">
        <ele>936</ele>
        <time>2022-07-28T13:41:42Z</time>
      </trkpt>
      <trkpt lat="45.708" lon="6.46437">
        <ele>936</ele>
        <time>2022-07-28T13:41:43Z</time>
      </trkpt>
      <trkpt lat="45.708" lon="6.46438">
        <ele>936</ele>
        <time>2022-07-28T13:41:44Z</time>
      </trkpt>
      <trkpt lat="45.70801" lon="6.46439">
        <ele>936</ele>
        <time>2022-07-28T13:41:45Z</time>
      </trkpt>
      <trkpt lat="45.70801" lon="6.4644">
        <ele>936</ele>
        <time>2022-07-28T13:41:46Z</time>
      </trkpt>
      <trkpt lat="45.70801" lon="6.46441">
        <ele>935</ele>
        <time>2022-07-28T13:41:47Z</time>
      </trkpt>
      <trkpt lat="45.70802" lon="6.46443">
        <ele>935</ele>
        <time>2022-07-28T13:41:48Z</time>
      </trkpt>
      <trkpt lat="45.70802" lon="6.46444">
        <ele>934</ele>
        <time>2022-07-28T13:41:49Z</time>
      </trkpt>
      <trkpt lat="45.70802" lon="6.46445">
        <ele>934</ele>
        <time>2022-07-28T13:41:50Z</time>
      </trkpt>
      <trkpt lat="45.70803" lon="6.46447">
        <ele>934</ele>
        <time>2022-07-28T13:41:51Z</time>
      </trkpt>
      <trkpt lat="45.70803" lon="6.46448">
        <ele>933</ele>
        <time>2022-07-28T13:41:52Z</time>
      </trkpt>
      <trkpt lat="45.70804" lon="6.46449">
        <ele>933</ele>
        <time>2022-07-28T13:41:53Z</time>
      </trkpt>
      <trkpt lat="45.70804" lon="6.4645">
        <ele>933</ele>
        <time>2022-07-28T13:41:54Z</time>
      </trkpt>
      <trkpt lat="45.70804" lon="6.46451">
        <ele>933</ele>
        <time>2022-07-28T13:41:55Z</time>
      </trkpt>
      <trkpt lat="45.70805" lon="6.46452">
        <ele>933</ele>
        <time>2022-07-28T13:41:56Z</time>
      </trkpt>
      <trkpt lat="45.70805" lon="6.46453">
        <ele>932</ele>
        <time>2022-07-28T13:41:57Z</time>
      </trkpt>
      <trkpt lat="45.70806" lon="6.46454">
        <ele>932</ele>
        <time>2022-07-28T13:41:58Z</time>
      </trkpt>
      <trkpt lat="45.70806" lon="6.46455">
        <ele>931</ele>
        <time>2022-07-28T13:41:59Z</time>
      </trkpt>
      <trkpt lat="45.70806" lon="6.46456">
        <ele>931</ele>
        <time>2022-07-28T13:42:00Z</time>
      </trkpt>
      <trkpt lat="45.70806" lon="6.46457">
        <ele>931</ele>
        <time>2022-07-28T13:42:01Z</time>
      </trkpt>
      <trkpt lat="45.70807" lon="6.46458">
        <ele>930</ele>
        <time>2022-07-28T13:42:02Z</time>
      </trkpt>
      <trkpt lat="45.70807" lon="6.46459">
        <ele>930</ele>
        <time>2022-07-28T13:42:03Z</time>
      </trkpt>
      <trkpt lat="45.70807" lon="6.4646">
        <ele>930</ele>
        <time>2022-07-28T13:42:04Z</time>
      </trkpt>
      <trkpt lat="45.70807" lon="6.46461">
        <ele>930</ele>
        <time>2022-07-28T13:42:05Z</time>
      </trkpt>
      <trkpt lat="45.70807" lon="6.46462">
        <ele>930</ele>
        <time>2022-07-28T13:42:06Z</time>
      </trkpt>
      <trkpt lat="45.70808" lon="6.46463">
        <ele>929</ele>
        <time>2022-07-28T13:42:07Z</time>
      </trkpt>
      <trkpt lat="45.70808" lon="6.46464">
        <ele>929</ele>
        <time>2022-07-28T13:42:08Z</time>
      </trkpt>
      <trkpt lat="45.70808" lon="6.46465">
        <ele>928</ele>
        <time>2022-07-28T13:42:09Z</time>
      </trkpt>
      <trkpt lat="45.70808" lon="6.46467">
        <ele>928</ele>
        <time>2022-07-28T13:42:10Z</time>
      </trkpt>
      <trkpt lat="45.70808" lon="6.46468">
        <ele>928</ele>
        <time>2022-07-28T13:42:11Z</time>
      </trkpt>
      <trkpt lat="45.70808" lon="6.46469">
        <ele>927</ele>
        <time>2022-07-28T13:42:12Z</time>
      </trkpt>
      <trkpt lat="45.70808" lon="6.46471">
        <ele>927</ele>
        <time>2022-07-28T13:42:13Z</time>
      </trkpt>
      <trkpt lat="45.70807" lon="6.46472">
        <ele>927</ele>
        <time>2022-07-28T13:42:14Z</time>
      </trkpt>
      <trkpt lat="45.70807" lon="6.46473">
        <ele>927</ele>
        <time>2022-07-28T13:42:15Z</time>
      </trkpt>
      <trkpt lat="45.70806" lon="6.46474">
        <ele>927</ele>
        <time>2022-07-28T13:42:16Z</time>
      </trkpt>
      <trkpt lat="45.70806" lon="6.46475">
        <ele>926</ele>
        <time>2022-07-28T13:42:17Z</time>
      </trkpt>
      <trkpt lat="45.70805" lon="6.46477">
        <ele>926</ele>
        <time>2022-07-28T13:42:18Z</time>
      </trkpt>
      <trkpt lat="45.70805" lon="6.46478">
        <ele>926</ele>
        <time>2022-07-28T13:42:19Z</time>
      </trkpt>
      <trkpt lat="45.70805" lon="6.46479">
        <ele>926</ele>
        <time>2022-07-28T13:42:20Z</time>
      </trkpt>
      <trkpt lat="45.70804" lon="6.4648">
        <ele>926</ele>
        <time>2022-07-28T13:42:21Z</time>
      </trkpt>
      <trkpt lat="45.70804" lon="6.46481">
        <ele>925</ele>
        <time>2022-07-28T13:42:22Z</time>
      </trkpt>
      <trkpt lat="45.70804" lon="6.46482">
        <ele>925</ele>
        <time>2022-07-28T13:42:23Z</time>
      </trkpt>
      <trkpt lat="45.70805" lon="6.46483">
        <ele>925</ele>
        <time>2022-07-28T13:42:24Z</time>
      </trkpt>
      <trkpt lat="45.70805" lon="6.46485">
        <ele>925</ele>
        <time>2022-07-28T13:42:25Z</time>
      </trkpt>
      <trkpt lat="45.70805" lon="6.46486">
        <ele>925</ele>
        <time>2022-07-28T13:42:26Z</time>
      </trkpt>
      <trkpt lat="45.70806" lon="6.46487">
        <ele>924</ele>
        <time>2022-07-28T13:42:27Z</time>
      </trkpt>
      <trkpt lat="45.70807" lon="6.46488">
        <ele>924</ele>
        <time>2022-07-28T13:42:28Z</time>
      </trkpt>
      <trkpt lat="45.70808" lon="6.46489">
        <ele>924</ele>
        <time>2022-07-28T13:42:29Z</time>
      </trkpt>
      <trkpt lat="45.70809" lon="6.4649">
        <ele>924</ele>
        <time>2022-07-28T13:42:30Z</time>
      </trkpt>
      <trkpt lat="45.7081" lon="6.4649">
        <ele>924</ele>
        <time>2022-07-28T13:42:31Z</time>
      </trkpt>
      <trkpt lat="45.70811" lon="6.46491">
        <ele>923</ele>
        <time>2022-07-28T13:42:32Z</time>
      </trkpt>
      <trkpt lat="45.70812" lon="6.46491">
        <ele>923</ele>
        <time>2022-07-28T13:42:33Z</time>
      </trkpt>
      <trkpt lat="45.70813" lon="6.46492">
        <ele>922</ele>
        <time>2022-07-28T13:42:34Z</time>
      </trkpt>
      <trkpt lat="45.70815" lon="6.46492">
        <ele>922</ele>
        <time>2022-07-28T13:42:35Z</time>
      </trkpt>
      <trkpt lat="45.70816" lon="6.46493">
        <ele>922</ele>
        <time>2022-07-28T13:42:36Z</time>
      </trkpt>
      <trkpt lat="45.70817" lon="6.46493">
        <ele>921</ele>
        <time>2022-07-28T13:42:37Z</time>
      </trkpt>
      <trkpt lat="45.70818" lon="6.46493">
        <ele>921</ele>
        <time>2022-07-28T13:42:38Z</time>
      </trkpt>
      <trkpt lat="45.70819" lon="6.46494">
        <ele>921</ele>
        <time>2022-07-28T13:42:39Z</time>
      </trkpt>
      <trkpt lat="45.70821" lon="6.46494">
        <ele>921</ele>
        <time>2022-07-28T13:42:40Z</time>
      </trkpt>
      <trkpt lat="45.70822" lon="6.46494">
        <ele>921</ele>
        <time>2022-07-28T13:42:41Z</time>
      </trkpt>
      <trkpt lat="45.70822" lon="6.46494">
        <ele>921</ele>
        <time>2022-07-28T13:42:42Z</time>
      </trkpt>
      <trkpt lat="45.70823" lon="6.46494">
        <ele>921</ele>
        <time>2022-07-28T13:42:43Z</time>
      </trkpt>
      <trkpt lat="45.70824" lon="6.46494">
        <ele>921</ele>
        <time>2022-07-28T13:42:44Z</time>
      </trkpt>
      <trkpt lat="45.70824" lon="6.46494">
        <ele>921</ele>
        <time>2022-07-28T13:42:45Z</time>
      </trkpt>
      <trkpt lat="45.70824" lon="6.46494">
        <ele>921</ele>
        <time>2022-07-28T13:42:46Z</time>
      </trkpt>
      <trkpt lat="45.70824" lon="6.46494">
        <ele>920</ele>
        <time>2022-07-28T13:42:47Z</time>
      </trkpt>
      <trkpt lat="45.70825" lon="6.46493">
        <ele>920</ele>
        <time>2022-07-28T13:42:48Z</time>
      </trkpt>
      <trkpt lat="45.70826" lon="6.46493">
        <ele>919</ele>
        <time>2022-07-28T13:42:49Z</time>
      </trkpt>
      <trkpt lat="45.70826" lon="6.46492">
        <ele>919</ele>
        <time>2022-07-28T13:42:50Z</time>
      </trkpt>
      <trkpt lat="45.70827" lon="6.46492">
        <ele>919</ele>
        <time>2022-07-28T13:42:51Z</time>
      </trkpt>
      <trkpt lat="45.70828" lon="6.46491">
        <ele>918</ele>
        <time>2022-07-28T13:42:52Z</time>
      </trkpt>
      <trkpt lat="45.70828" lon="6.46491">
        <ele>918</ele>
        <time>2022-07-28T13:42:53Z</time>
      </trkpt>
      <trkpt lat="45.70829" lon="6.4649">
        <ele>918</ele>
        <time>2022-07-28T13:42:54Z</time>
      </trkpt>
      <trkpt lat="45.70829" lon="6.46489">
        <ele>918</ele>
        <time>2022-07-28T13:42:55Z</time>
      </trkpt>
      <trkpt lat="45.7083" lon="6.46489">
        <ele>918</ele>
        <time>2022-07-28T13:42:56Z</time>
      </trkpt>
      <trkpt lat="45.7083" lon="6.46488">
        <ele>917</ele>
        <time>2022-07-28T13:42:57Z</time>
      </trkpt>
      <trkpt lat="45.70831" lon="6.46488">
        <ele>917</ele>
        <time>2022-07-28T13:42:58Z</time>
      </trkpt>
      <trkpt lat="45.70832" lon="6.46487">
        <ele>917</ele>
        <time>2022-07-28T13:42:59Z</time>
      </trkpt>
      <trkpt lat="45.70833" lon="6.46487">
        <ele>917</ele>
        <time>2022-07-28T13:43:00Z</time>
      </trkpt>
      <trkpt lat="45.70833" lon="6.46487">
        <ele>917</ele>
        <time>2022-07-28T13:43:01Z</time>
      </trkpt>
      <trkpt lat="45.70834" lon="6.46487">
        <ele>916</ele>
        <time>2022-07-28T13:43:02Z</time>
      </trkpt>
      <trkpt lat="45.70835" lon="6.46487">
        <ele>916</ele>
        <time>2022-07-28T13:43:03Z</time>
      </trkpt>
      <trkpt lat="45.70836" lon="6.46486">
        <ele>916</ele>
        <time>2022-07-28T13:43:04Z</time>
      </trkpt>
      <trkpt lat="45.70836" lon="6.46486">
        <ele>916</ele>
        <time>2022-07-28T13:43:05Z</time>
      </trkpt>
      <trkpt lat="45.70837" lon="6.46485">
        <ele>916</ele>
        <time>2022-07-28T13:43:06Z</time>
      </trkpt>
      <trkpt lat="45.70837" lon="6.46485">
        <ele>915</ele>
        <time>2022-07-28T13:43:07Z</time>
      </trkpt>
      <trkpt lat="45.70838" lon="6.46484">
        <ele>915</ele>
        <time>2022-07-28T13:43:08Z</time>
      </trkpt>
      <trkpt lat="45.70838" lon="6.46484">
        <ele>914</ele>
        <time>2022-07-28T13:43:09Z</time>
      </trkpt>
      <trkpt lat="45.70839" lon="6.46483">
        <ele>914</ele>
        <time>2022-07-28T13:43:10Z</time>
      </trkpt>
      <trkpt lat="45.7084" lon="6.46483">
        <ele>914</ele>
        <time>2022-07-28T13:43:11Z</time>
      </trkpt>
      <trkpt lat="45.7084" lon="6.46482">
        <ele>913</ele>
        <time>2022-07-28T13:43:12Z</time>
      </trkpt>
      <trkpt lat="45.70841" lon="6.46482">
        <ele>913</ele>
        <time>2022-07-28T13:43:13Z</time>
      </trkpt>
      <trkpt lat="45.70842" lon="6.46482">
        <ele>913</ele>
        <time>2022-07-28T13:43:14Z</time>
      </trkpt>
      <trkpt lat="45.70842" lon="6.46482">
        <ele>913</ele>
        <time>2022-07-28T13:43:15Z</time>
      </trkpt>
      <trkpt lat="45.70843" lon="6.46483">
        <ele>913</ele>
        <time>2022-07-28T13:43:16Z</time>
      </trkpt>
      <trkpt lat="45.70843" lon="6.46483">
        <ele>912</ele>
        <time>2022-07-28T13:43:17Z</time>
      </trkpt>
      <trkpt lat="45.70843" lon="6.46483">
        <ele>912</ele>
        <time>2022-07-28T13:43:18Z</time>
      </trkpt>
      <trkpt lat="45.70843" lon="6.46483">
        <ele>911</ele>
        <time>2022-07-28T13:43:19Z</time>
      </trkpt>
      <trkpt lat="45.70843" lon="6.46483">
        <ele>911</ele>
        <time>2022-07-28T13:43:20Z</time>
      </trkpt>
      <trkpt lat="45.70844" lon="6.46483">
        <ele>911</ele>
        <time>2022-07-28T13:43:21Z</time>
      </trkpt>
      <trkpt lat="45.70844" lon="6.46483">
        <ele>910</ele>
        <time>2022-07-28T13:43:22Z</time>
      </trkpt>
      <trkpt lat="45.70845" lon="6.46484">
        <ele>910</ele>
        <time>2022-07-28T13:43:23Z</time>
      </trkpt>
      <trkpt lat="45.70846" lon="6.46483">
        <ele>910</ele>
        <time>2022-07-28T13:43:24Z</time>
      </trkpt>
      <trkpt lat="45.70846" lon="6.46483">
        <ele>910</ele>
        <time>2022-07-28T13:43:25Z</time>
      </trkpt>
      <trkpt lat="45.70847" lon="6.46483">
        <ele>910</ele>
        <time>2022-07-28T13:43:26Z</time>
      </trkpt>
      <trkpt lat="45.70848" lon="6.46482">
        <ele>909</ele>
        <time>2022-07-28T13:43:27Z</time>
      </trkpt>
      <trkpt lat="45.70849" lon="6.46482">
        <ele>909</ele>
        <time>2022-07-28T13:43:28Z</time>
      </trkpt>
      <trkpt lat="45.70849" lon="6.46481">
        <ele>909</ele>
        <time>2022-07-28T13:43:29Z</time>
      </trkpt>
      <trkpt lat="45.7085" lon="6.4648">
        <ele>909</ele>
        <time>2022-07-28T13:43:30Z</time>
      </trkpt>
      <trkpt lat="45.70851" lon="6.4648">
        <ele>909</ele>
        <time>2022-07-28T13:43:31Z</time>
      </trkpt>
      <trkpt lat="45.70851" lon="6.46479">
        <ele>908</ele>
        <time>2022-07-28T13:43:32Z</time>
      </trkpt>
      <trkpt lat="45.70852" lon="6.46479">
        <ele>908</ele>
        <time>2022-07-28T13:43:33Z</time>
      </trkpt>
      <trkpt lat="45.70853" lon="6.46478">
        <ele>908</ele>
        <time>2022-07-28T13:43:34Z</time>
      </trkpt>
      <trkpt lat="45.70853" lon="6.46478">
        <ele>908</ele>
        <time>2022-07-28T13:43:35Z</time>
      </trkpt>
      <trkpt lat="45.70854" lon="6.46478">
        <ele>908</ele>
        <time>2022-07-28T13:43:36Z</time>
      </trkpt>
      <trkpt lat="45.70855" lon="6.46478">
        <ele>907</ele>
        <time>2022-07-28T13:43:37Z</time>
      </trkpt>
      <trkpt lat="45.70856" lon="6.46478">
        <ele>907</ele>
        <time>2022-07-28T13:43:38Z</time>
      </trkpt>
      <trkpt lat="45.70857" lon="6.46479">
        <ele>907</ele>
        <time>2022-07-28T13:43:39Z</time>
      </trkpt>
      <trkpt lat="45.70857" lon="6.46479">
        <ele>907</ele>
        <time>2022-07-28T13:43:40Z</time>
      </trkpt>
      <trkpt lat="45.70858" lon="6.46479">
        <ele>907</ele>
        <time>2022-07-28T13:43:41Z</time>
      </trkpt>
      <trkpt lat="45.70859" lon="6.4648">
        <ele>906</ele>
        <time>2022-07-28T13:43:42Z</time>
      </trkpt>
      <trkpt lat="45.7086" lon="6.4648">
        <ele>906</ele>
        <time>2022-07-28T13:43:43Z</time>
      </trkpt>
      <trkpt lat="45.70861" lon="6.4648">
        <ele>906</ele>
        <time>2022-07-28T13:43:44Z</time>
      </trkpt>
      <trkpt lat="45.70862" lon="6.46481">
        <ele>906</ele>
        <time>2022-07-28T13:43:45Z</time>
      </trkpt>
      <trkpt lat="45.70864" lon="6.46481">
        <ele>906</ele>
        <time>2022-07-28T13:43:46Z</time>
      </trkpt>
      <trkpt lat="45.70865" lon="6.46482">
        <ele>905</ele>
        <time>2022-07-28T13:43:47Z</time>
      </trkpt>
      <trkpt lat="45.70866" lon="6.46482">
        <ele>905</ele>
        <time>2022-07-28T13:43:48Z</time>
      </trkpt>
      <trkpt lat="45.70867" lon="6.46483">
        <ele>904</ele>
        <time>2022-07-28T13:43:49Z</time>
      </trkpt>
      <trkpt lat="45.70868" lon="6.46484">
        <ele>904</ele>
        <time>2022-07-28T13:43:50Z</time>
      </trkpt>
      <trkpt lat="45.70869" lon="6.46484">
        <ele>904</ele>
        <time>2022-07-28T13:43:51Z</time>
      </trkpt>
      <trkpt lat="45.7087" lon="6.46485">
        <ele>903</ele>
        <time>2022-07-28T13:43:52Z</time>
      </trkpt>
      <trkpt lat="45.70871" lon="6.46486">
        <ele>903</ele>
        <time>2022-07-28T13:43:53Z</time>
      </trkpt>
      <trkpt lat="45.70871" lon="6.46487">
        <ele>903</ele>
        <time>2022-07-28T13:43:54Z</time>
      </trkpt>
      <trkpt lat="45.70872" lon="6.46487">
        <ele>903</ele>
        <time>2022-07-28T13:43:55Z</time>
      </trkpt>
      <trkpt lat="45.70873" lon="6.46487">
        <ele>903</ele>
        <time>2022-07-28T13:43:56Z</time>
      </trkpt>
      <trkpt lat="45.70873" lon="6.46488">
        <ele>902</ele>
        <time>2022-07-28T13:43:57Z</time>
      </trkpt>
      <trkpt lat="45.70874" lon="6.46488">
        <ele>902</ele>
        <time>2022-07-28T13:43:58Z</time>
      </trkpt>
      <trkpt lat="45.70875" lon="6.46489">
        <ele>902</ele>
        <time>2022-07-28T13:43:59Z</time>
      </trkpt>
      <trkpt lat="45.70875" lon="6.46489">
        <ele>902</ele>
        <time>2022-07-28T13:44:00Z</time>
      </trkpt>
      <trkpt lat="45.70876" lon="6.46489">
        <ele>902</ele>
        <time>2022-07-28T13:44:01Z</time>
      </trkpt>
      <trkpt lat="45.70876" lon="6.4649">
        <ele>901</ele>
        <time>2022-07-28T13:44:02Z</time>
      </trkpt>
      <trkpt lat="45.70877" lon="6.4649">
        <ele>901</ele>
        <time>2022-07-28T13:44:03Z</time>
      </trkpt>
      <trkpt lat="45.70878" lon="6.4649">
        <ele>900</ele>
        <time>2022-07-28T13:44:04Z</time>
      </trkpt>
      <trkpt lat="45.70878" lon="6.46491">
        <ele>900</ele>
        <time>2022-07-28T13:44:05Z</time>
      </trkpt>
      <trkpt lat="45.70879" lon="6.46491">
        <ele>900</ele>
        <time>2022-07-28T13:44:06Z</time>
      </trkpt>
      <trkpt lat="45.70879" lon="6.46491">
        <ele>899</ele>
        <time>2022-07-28T13:44:07Z</time>
      </trkpt>
      <trkpt lat="45.7088" lon="6.46491">
        <ele>899</ele>
        <time>2022-07-28T13:44:08Z</time>
      </trkpt>
      <trkpt lat="45.70881" lon="6.46492">
        <ele>899</ele>
        <time>2022-07-28T13:44:09Z</time>
      </trkpt>
      <trkpt lat="45.70881" lon="6.46493">
        <ele>897</ele>
        <time>2022-07-28T13:44:28Z</time>
      </trkpt>
      <trkpt lat="45.70881" lon="6.46493">
        <ele>897</ele>
        <time>2022-07-28T13:44:29Z</time>
      </trkpt>
      <trkpt lat="45.70881" lon="6.46493">
        <ele>897</ele>
        <time>2022-07-28T13:44:30Z</time>
      </trkpt>
      <trkpt lat="45.70882" lon="6.46494">
        <ele>897</ele>
        <time>2022-07-28T13:44:31Z</time>
      </trkpt>
      <trkpt lat="45.70882" lon="6.46494">
        <ele>896</ele>
        <time>2022-07-28T13:44:32Z</time>
      </trkpt>
      <trkpt lat="45.70883" lon="6.46495">
        <ele>896</ele>
        <time>2022-07-28T13:44:33Z</time>
      </trkpt>
      <trkpt lat="45.70883" lon="6.46495">
        <ele>896</ele>
        <time>2022-07-28T13:44:34Z</time>
      </trkpt>
      <trkpt lat="45.70884" lon="6.46496">
        <ele>896</ele>
        <time>2022-07-28T13:44:35Z</time>
      </trkpt>
      <trkpt lat="45.70885" lon="6.46496">
        <ele>896</ele>
        <time>2022-07-28T13:44:36Z</time>
      </trkpt>
      <trkpt lat="45.70885" lon="6.46496">
        <ele>896</ele>
        <time>2022-07-28T13:44:37Z</time>
      </trkpt>
      <trkpt lat="45.70886" lon="6.46497">
        <ele>896</ele>
        <time>2022-07-28T13:44:38Z</time>
      </trkpt>
      <trkpt lat="45.70887" lon="6.46497">
        <ele>896</ele>
        <time>2022-07-28T13:44:39Z</time>
      </trkpt>
      <trkpt lat="45.70888" lon="6.46498">
        <ele>896</ele>
        <time>2022-07-28T13:44:40Z</time>
      </trkpt>
      <trkpt lat="45.70889" lon="6.46499">
        <ele>896</ele>
        <time>2022-07-28T13:44:41Z</time>
      </trkpt>
      <trkpt lat="45.70889" lon="6.46499">
        <ele>895</ele>
        <time>2022-07-28T13:44:42Z</time>
      </trkpt>
      <trkpt lat="45.7089" lon="6.465">
        <ele>895</ele>
        <time>2022-07-28T13:44:43Z</time>
      </trkpt>
      <trkpt lat="45.70891" lon="6.46501">
        <ele>895</ele>
        <time>2022-07-28T13:44:44Z</time>
      </trkpt>
      <trkpt lat="45.70892" lon="6.46502">
        <ele>895</ele>
        <time>2022-07-28T13:44:45Z</time>
      </trkpt>
      <trkpt lat="45.70892" lon="6.46503">
        <ele>895</ele>
        <time>2022-07-28T13:44:46Z</time>
      </trkpt>
      <trkpt lat="45.70893" lon="6.46504">
        <ele>894</ele>
        <time>2022-07-28T13:44:47Z</time>
      </trkpt>
      <trkpt lat="45.70894" lon="6.46505">
        <ele>894</ele>
        <time>2022-07-28T13:44:48Z</time>
      </trkpt>
      <trkpt lat="45.70894" lon="6.46505">
        <ele>894</ele>
        <time>2022-07-28T13:44:49Z</time>
      </trkpt>
      <trkpt lat="45.70895" lon="6.46506">
        <ele>894</ele>
        <time>2022-07-28T13:44:50Z</time>
      </trkpt>
      <trkpt lat="45.70895" lon="6.46506">
        <ele>894</ele>
        <time>2022-07-28T13:44:51Z</time>
      </trkpt>
      <trkpt lat="45.70896" lon="6.46507">
        <ele>893</ele>
        <time>2022-07-28T13:44:52Z</time>
      </trkpt>
      <trkpt lat="45.70897" lon="6.46507">
        <ele>893</ele>
        <time>2022-07-28T13:44:53Z</time>
      </trkpt>
      <trkpt lat="45.70897" lon="6.46507">
        <ele>893</ele>
        <time>2022-07-28T13:44:54Z</time>
      </trkpt>
      <trkpt lat="45.70897" lon="6.46507">
        <ele>893</ele>
        <time>2022-07-28T13:44:55Z</time>
      </trkpt>
      <trkpt lat="45.70898" lon="6.46508">
        <ele>893</ele>
        <time>2022-07-28T13:44:56Z</time>
      </trkpt>
      <trkpt lat="45.70898" lon="6.46508">
        <ele>892</ele>
        <time>2022-07-28T13:44:57Z</time>
      </trkpt>
      <trkpt lat="45.70898" lon="6.46508">
        <ele>892</ele>
        <time>2022-07-28T13:44:58Z</time>
      </trkpt>
      <trkpt lat="45.70899" lon="6.46508">
        <ele>892</ele>
        <time>2022-07-28T13:44:59Z</time>
      </trkpt>
      <trkpt lat="45.709" lon="6.46508">
        <ele>892</ele>
        <time>2022-07-28T13:45:00Z</time>
      </trkpt>
      <trkpt lat="45.709" lon="6.46508">
        <ele>892</ele>
        <time>2022-07-28T13:45:01Z</time>
      </trkpt>
      <trkpt lat="45.70901" lon="6.46508">
        <ele>891</ele>
        <time>2022-07-28T13:45:02Z</time>
      </trkpt>
      <trkpt lat="45.70902" lon="6.46508">
        <ele>891</ele>
        <time>2022-07-28T13:45:03Z</time>
      </trkpt>
      <trkpt lat="45.70903" lon="6.46509">
        <ele>891</ele>
        <time>2022-07-28T13:45:04Z</time>
      </trkpt>
      <trkpt lat="45.70904" lon="6.46509">
        <ele>891</ele>
        <time>2022-07-28T13:45:05Z</time>
      </trkpt>
      <trkpt lat="45.70905" lon="6.46509">
        <ele>891</ele>
        <time>2022-07-28T13:45:06Z</time>
      </trkpt>
      <trkpt lat="45.70905" lon="6.4651">
        <ele>890</ele>
        <time>2022-07-28T13:45:07Z</time>
      </trkpt>
      <trkpt lat="45.70906" lon="6.4651">
        <ele>890</ele>
        <time>2022-07-28T13:45:08Z</time>
      </trkpt>
      <trkpt lat="45.70907" lon="6.46511">
        <ele>890</ele>
        <time>2022-07-28T13:45:09Z</time>
      </trkpt>
      <trkpt lat="45.70908" lon="6.46511">
        <ele>890</ele>
        <time>2022-07-28T13:45:10Z</time>
      </trkpt>
      <trkpt lat="45.70908" lon="6.46512">
        <ele>890</ele>
        <time>2022-07-28T13:45:11Z</time>
      </trkpt>
      <trkpt lat="45.70909" lon="6.46512">
        <ele>889</ele>
        <time>2022-07-28T13:45:12Z</time>
      </trkpt>
      <trkpt lat="45.7091" lon="6.46513">
        <ele>889</ele>
        <time>2022-07-28T13:45:13Z</time>
      </trkpt>
      <trkpt lat="45.7091" lon="6.46513">
        <ele>889</ele>
        <time>2022-07-28T13:45:14Z</time>
      </trkpt>
      <trkpt lat="45.70911" lon="6.46514">
        <ele>889</ele>
        <time>2022-07-28T13:45:15Z</time>
      </trkpt>
      <trkpt lat="45.70912" lon="6.46514">
        <ele>889</ele>
        <time>2022-07-28T13:45:16Z</time>
      </trkpt>
      <trkpt lat="45.70913" lon="6.46515">
        <ele>888</ele>
        <time>2022-07-28T13:45:17Z</time>
      </trkpt>
      <trkpt lat="45.70913" lon="6.46515">
        <ele>888</ele>
        <time>2022-07-28T13:45:18Z</time>
      </trkpt>
      <trkpt lat="45.70914" lon="6.46515">
        <ele>888</ele>
        <time>2022-07-28T13:45:19Z</time>
      </trkpt>
      <trkpt lat="45.70915" lon="6.46516">
        <ele>888</ele>
        <time>2022-07-28T13:45:20Z</time>
      </trkpt>
      <trkpt lat="45.70915" lon="6.46516">
        <ele>888</ele>
        <time>2022-07-28T13:45:21Z</time>
      </trkpt>
      <trkpt lat="45.70916" lon="6.46516">
        <ele>887</ele>
        <time>2022-07-28T13:45:22Z</time>
      </trkpt>
      <trkpt lat="45.70917" lon="6.46517">
        <ele>887</ele>
        <time>2022-07-28T13:45:23Z</time>
      </trkpt>
      <trkpt lat="45.70918" lon="6.46517">
        <ele>886</ele>
        <time>2022-07-28T13:45:24Z</time>
      </trkpt>
      <trkpt lat="45.70919" lon="6.46518">
        <ele>886</ele>
        <time>2022-07-28T13:45:25Z</time>
      </trkpt>
      <trkpt lat="45.70919" lon="6.46518">
        <ele>886</ele>
        <time>2022-07-28T13:45:26Z</time>
      </trkpt>
      <trkpt lat="45.7092" lon="6.46519">
        <ele>885</ele>
        <time>2022-07-28T13:45:27Z</time>
      </trkpt>
      <trkpt lat="45.70921" lon="6.46519">
        <ele>885</ele>
        <time>2022-07-28T13:45:28Z</time>
      </trkpt>
      <trkpt lat="45.70923" lon="6.4652">
        <ele>883</ele>
        <time>2022-07-28T13:45:35Z</time>
      </trkpt>
      <trkpt lat="45.70923" lon="6.4652">
        <ele>883</ele>
        <time>2022-07-28T13:45:36Z</time>
      </trkpt>
      <trkpt lat="45.70924" lon="6.4652">
        <ele>882</ele>
        <time>2022-07-28T13:45:37Z</time>
      </trkpt>
      <trkpt lat="45.70924" lon="6.46521">
        <ele>882</ele>
        <time>2022-07-28T13:45:38Z</time>
      </trkpt>
      <trkpt lat="45.70925" lon="6.46521">
        <ele>882</ele>
        <time>2022-07-28T13:45:39Z</time>
      </trkpt>
      <trkpt lat="45.70925" lon="6.46521">
        <ele>882</ele>
        <time>2022-07-28T13:45:40Z</time>
      </trkpt>
      <trkpt lat="45.70926" lon="6.46521">
        <ele>882</ele>
        <time>2022-07-28T13:45:41Z</time>
      </trkpt>
      <trkpt lat="45.70927" lon="6.46521">
        <ele>881</ele>
        <time>2022-07-28T13:45:42Z</time>
      </trkpt>
      <trkpt lat="45.70928" lon="6.46522">
        <ele>881</ele>
        <time>2022-07-28T13:45:43Z</time>
      </trkpt>
      <trkpt lat="45.70928" lon="6.46522">
        <ele>881</ele>
        <time>2022-07-28T13:45:44Z</time>
      </trkpt>
      <trkpt lat="45.70929" lon="6.46522">
        <ele>881</ele>
        <time>2022-07-28T13:45:45Z</time>
      </trkpt>
      <trkpt lat="45.70929" lon="6.46521">
        <ele>881</ele>
        <time>2022-07-28T13:45:46Z</time>
      </trkpt>
      <trkpt lat="45.7093" lon="6.46521">
        <ele>880</ele>
        <time>2022-07-28T13:45:47Z</time>
      </trkpt>
      <trkpt lat="45.70931" lon="6.46521">
        <ele>880</ele>
        <time>2022-07-28T13:45:48Z</time>
      </trkpt>
      <trkpt lat="45.70931" lon="6.46521">
        <ele>880</ele>
        <time>2022-07-28T13:45:49Z</time>
      </trkpt>
      <trkpt lat="45.70932" lon="6.46521">
        <ele>880</ele>
        <time>2022-07-28T13:45:50Z</time>
      </trkpt>
      <trkpt lat="45.70933" lon="6.46521">
        <ele>880</ele>
        <time>2022-07-28T13:45:51Z</time>
      </trkpt>
      <trkpt lat="45.70934" lon="6.46522">
        <ele>880</ele>
        <time>2022-07-28T13:45:52Z</time>
      </trkpt>
      <trkpt lat="45.70934" lon="6.46522">
        <ele>880</ele>
        <time>2022-07-28T13:45:53Z</time>
      </trkpt>
      <trkpt lat="45.70935" lon="6.46522">
        <ele>880</ele>
        <time>2022-07-28T13:45:54Z</time>
      </trkpt>
      <trkpt lat="45.70936" lon="6.46523">
        <ele>880</ele>
        <time>2022-07-28T13:45:55Z</time>
      </trkpt>
      <trkpt lat="45.70936" lon="6.46523">
        <ele>880</ele>
        <time>2022-07-28T13:45:56Z</time>
      </trkpt>
      <trkpt lat="45.70936" lon="6.46523">
        <ele>879</ele>
        <time>2022-07-28T13:45:57Z</time>
      </trkpt>
      <trkpt lat="45.70936" lon="6.46523">
        <ele>879</ele>
        <time>2022-07-28T13:45:58Z</time>
      </trkpt>
      <trkpt lat="45.70937" lon="6.46523">
        <ele>879</ele>
        <time>2022-07-28T13:45:59Z</time>
      </trkpt>
      <trkpt lat="45.70937" lon="6.46523">
        <ele>879</ele>
        <time>2022-07-28T13:46:00Z</time>
      </trkpt>
      <trkpt lat="45.70938" lon="6.46523">
        <ele>879</ele>
        <time>2022-07-28T13:46:01Z</time>
      </trkpt>
      <trkpt lat="45.70939" lon="6.46523">
        <ele>878</ele>
        <time>2022-07-28T13:46:02Z</time>
      </trkpt>
      <trkpt lat="45.70939" lon="6.46523">
        <ele>878</ele>
        <time>2022-07-28T13:46:03Z</time>
      </trkpt>
      <trkpt lat="45.7094" lon="6.46523">
        <ele>877</ele>
        <time>2022-07-28T13:46:04Z</time>
      </trkpt>
      <trkpt lat="45.70941" lon="6.46523">
        <ele>877</ele>
        <time>2022-07-28T13:46:05Z</time>
      </trkpt>
      <trkpt lat="45.70942" lon="6.46523">
        <ele>877</ele>
        <time>2022-07-28T13:46:06Z</time>
      </trkpt>
      <trkpt lat="45.70943" lon="6.46524">
        <ele>876</ele>
        <time>2022-07-28T13:46:07Z</time>
      </trkpt>
      <trkpt lat="45.70944" lon="6.46524">
        <ele>876</ele>
        <time>2022-07-28T13:46:08Z</time>
      </trkpt>
      <trkpt lat="45.70945" lon="6.46524">
        <ele>876</ele>
        <time>2022-07-28T13:46:09Z</time>
      </trkpt>
      <trkpt lat="45.70946" lon="6.46524">
        <ele>876</ele>
        <time>2022-07-28T13:46:10Z</time>
      </trkpt>
      <trkpt lat="45.70947" lon="6.46525">
        <ele>876</ele>
        <time>2022-07-28T13:46:11Z</time>
      </trkpt>
      <trkpt lat="45.70948" lon="6.46525">
        <ele>876</ele>
        <time>2022-07-28T13:46:12Z</time>
      </trkpt>
      <trkpt lat="45.70949" lon="6.46525">
        <ele>876</ele>
        <time>2022-07-28T13:46:13Z</time>
      </trkpt>
      <trkpt lat="45.70949" lon="6.46525">
        <ele>876</ele>
        <time>2022-07-28T13:46:14Z</time>
      </trkpt>
      <trkpt lat="45.7095" lon="6.46525">
        <ele>876</ele>
        <time>2022-07-28T13:46:15Z</time>
      </trkpt>
      <trkpt lat="45.70951" lon="6.46524">
        <ele>876</ele>
        <time>2022-07-28T13:46:16Z</time>
      </trkpt>
      <trkpt lat="45.70951" lon="6.46524">
        <ele>875</ele>
        <time>2022-07-28T13:46:17Z</time>
      </trkpt>
      <trkpt lat="45.70952" lon="6.46525">
        <ele>875</ele>
        <time>2022-07-28T13:46:18Z</time>
      </trkpt>
      <trkpt lat="45.70953" lon="6.46525">
        <ele>875</ele>
        <time>2022-07-28T13:46:19Z</time>
      </trkpt>
      <trkpt lat="45.70954" lon="6.46525">
        <ele>875</ele>
        <time>2022-07-28T13:46:20Z</time>
      </trkpt>
      <trkpt lat="45.70954" lon="6.46525">
        <ele>875</ele>
        <time>2022-07-28T13:46:21Z</time>
      </trkpt>
      <trkpt lat="45.70955" lon="6.46526">
        <ele>874</ele>
        <time>2022-07-28T13:46:22Z</time>
      </trkpt>
      <trkpt lat="45.70955" lon="6.46526">
        <ele>874</ele>
        <time>2022-07-28T13:46:23Z</time>
      </trkpt>
      <trkpt lat="45.70956" lon="6.46528">
        <ele>874</ele>
        <time>2022-07-28T13:46:24Z</time>
      </trkpt>
      <trkpt lat="45.70956" lon="6.46529">
        <ele>874</ele>
        <time>2022-07-28T13:46:25Z</time>
      </trkpt>
      <trkpt lat="45.70955" lon="6.4653">
        <ele>874</ele>
        <time>2022-07-28T13:46:26Z</time>
      </trkpt>
      <trkpt lat="45.70955" lon="6.46531">
        <ele>873</ele>
        <time>2022-07-28T13:46:27Z</time>
      </trkpt>
      <trkpt lat="45.70955" lon="6.46533">
        <ele>873</ele>
        <time>2022-07-28T13:46:28Z</time>
      </trkpt>
      <trkpt lat="45.70954" lon="6.46534">
        <ele>873</ele>
        <time>2022-07-28T13:46:29Z</time>
      </trkpt>
      <trkpt lat="45.70954" lon="6.46536">
        <ele>873</ele>
        <time>2022-07-28T13:46:30Z</time>
      </trkpt>
      <trkpt lat="45.70953" lon="6.46538">
        <ele>873</ele>
        <time>2022-07-28T13:46:31Z</time>
      </trkpt>
      <trkpt lat="45.70952" lon="6.46539">
        <ele>872</ele>
        <time>2022-07-28T13:46:32Z</time>
      </trkpt>
      <trkpt lat="45.70952" lon="6.46541">
        <ele>872</ele>
        <time>2022-07-28T13:46:33Z</time>
      </trkpt>
      <trkpt lat="45.70951" lon="6.46542">
        <ele>872</ele>
        <time>2022-07-28T13:46:34Z</time>
      </trkpt>
      <trkpt lat="45.7095" lon="6.46544">
        <ele>872</ele>
        <time>2022-07-28T13:46:35Z</time>
      </trkpt>
      <trkpt lat="45.70949" lon="6.46545">
        <ele>872</ele>
        <time>2022-07-28T13:46:36Z</time>
      </trkpt>
      <trkpt lat="45.70949" lon="6.46546">
        <ele>871</ele>
        <time>2022-07-28T13:46:37Z</time>
      </trkpt>
      <trkpt lat="45.70948" lon="6.46548">
        <ele>871</ele>
        <time>2022-07-28T13:46:38Z</time>
      </trkpt>
      <trkpt lat="45.70947" lon="6.46549">
        <ele>871</ele>
        <time>2022-07-28T13:46:39Z</time>
      </trkpt>
      <trkpt lat="45.70947" lon="6.4655">
        <ele>871</ele>
        <time>2022-07-28T13:46:40Z</time>
      </trkpt>
      <trkpt lat="45.70946" lon="6.46551">
        <ele>871</ele>
        <time>2022-07-28T13:46:41Z</time>
      </trkpt>
      <trkpt lat="45.70946" lon="6.46552">
        <ele>871</ele>
        <time>2022-07-28T13:46:42Z</time>
      </trkpt>
      <trkpt lat="45.70946" lon="6.46552">
        <ele>871</ele>
        <time>2022-07-28T13:46:43Z</time>
      </trkpt>
      <trkpt lat="45.70945" lon="6.46553">
        <ele>871</ele>
        <time>2022-07-28T13:46:44Z</time>
      </trkpt>
      <trkpt lat="45.70945" lon="6.46554">
        <ele>871</ele>
        <time>2022-07-28T13:46:45Z</time>
      </trkpt>
      <trkpt lat="45.70945" lon="6.46554">
        <ele>871</ele>
        <time>2022-07-28T13:46:46Z</time>
      </trkpt>
      <trkpt lat="45.70946" lon="6.46556">
        <ele>869</ele>
        <time>2022-07-28T13:46:58Z</time>
      </trkpt>
      <trkpt lat="45.70947" lon="6.46556">
        <ele>869</ele>
        <time>2022-07-28T13:46:59Z</time>
      </trkpt>
      <trkpt lat="45.70948" lon="6.46556">
        <ele>869</ele>
        <time>2022-07-28T13:47:00Z</time>
      </trkpt>
      <trkpt lat="45.70949" lon="6.46556">
        <ele>869</ele>
        <time>2022-07-28T13:47:01Z</time>
      </trkpt>
      <trkpt lat="45.7095" lon="6.46557">
        <ele>868</ele>
        <time>2022-07-28T13:47:02Z</time>
      </trkpt>
      <trkpt lat="45.70951" lon="6.46557">
        <ele>868</ele>
        <time>2022-07-28T13:47:03Z</time>
      </trkpt>
      <trkpt lat="45.70952" lon="6.46557">
        <ele>868</ele>
        <time>2022-07-28T13:47:04Z</time>
      </trkpt>
      <trkpt lat="45.70953" lon="6.46557">
        <ele>868</ele>
        <time>2022-07-28T13:47:05Z</time>
      </trkpt>
      <trkpt lat="45.70955" lon="6.46557">
        <ele>868</ele>
        <time>2022-07-28T13:47:06Z</time>
      </trkpt>
      <trkpt lat="45.70956" lon="6.46557">
        <ele>867</ele>
        <time>2022-07-28T13:47:07Z</time>
      </trkpt>
      <trkpt lat="45.70958" lon="6.46557">
        <ele>867</ele>
        <time>2022-07-28T13:47:08Z</time>
      </trkpt>
      <trkpt lat="45.70959" lon="6.46558">
        <ele>867</ele>
        <time>2022-07-28T13:47:09Z</time>
      </trkpt>
      <trkpt lat="45.7096" lon="6.46558">
        <ele>867</ele>
        <time>2022-07-28T13:47:10Z</time>
      </trkpt>
      <trkpt lat="45.70961" lon="6.46558">
        <ele>867</ele>
        <time>2022-07-28T13:47:11Z</time>
      </trkpt>
      <trkpt lat="45.70963" lon="6.46558">
        <ele>867</ele>
        <time>2022-07-28T13:47:12Z</time>
      </trkpt>
      <trkpt lat="45.70963" lon="6.46558">
        <ele>867</ele>
        <time>2022-07-28T13:47:13Z</time>
      </trkpt>
      <trkpt lat="45.70964" lon="6.46557">
        <ele>867</ele>
        <time>2022-07-28T13:47:14Z</time>
      </trkpt>
      <trkpt lat="45.70965" lon="6.46557">
        <ele>867</ele>
        <time>2022-07-28T13:47:15Z</time>
      </trkpt>
      <trkpt lat="45.70965" lon="6.46557">
        <ele>867</ele>
        <time>2022-07-28T13:47:16Z</time>
      </trkpt>
      <trkpt lat="45.70967" lon="6.46557">
        <ele>866</ele>
        <time>2022-07-28T13:47:22Z</time>
      </trkpt>
      <trkpt lat="45.70967" lon="6.46558">
        <ele>866</ele>
        <time>2022-07-28T13:47:23Z</time>
      </trkpt>
      <trkpt lat="45.70968" lon="6.46558">
        <ele>866</ele>
        <time>2022-07-28T13:47:24Z</time>
      </trkpt>
      <trkpt lat="45.70969" lon="6.46558">
        <ele>866</ele>
        <time>2022-07-28T13:47:25Z</time>
      </trkpt>
      <trkpt lat="45.70969" lon="6.46558">
        <ele>866</ele>
        <time>2022-07-28T13:47:26Z</time>
      </trkpt>
      <trkpt lat="45.7097" lon="6.46558">
        <ele>865</ele>
        <time>2022-07-28T13:47:27Z</time>
      </trkpt>
      <trkpt lat="45.70971" lon="6.46558">
        <ele>865</ele>
        <time>2022-07-28T13:47:28Z</time>
      </trkpt>
      <trkpt lat="45.70972" lon="6.46558">
        <ele>865</ele>
        <time>2022-07-28T13:47:29Z</time>
      </trkpt>
      <trkpt lat="45.70973" lon="6.46558">
        <ele>865</ele>
        <time>2022-07-28T13:47:30Z</time>
      </trkpt>
      <trkpt lat="45.70974" lon="6.46557">
        <ele>865</ele>
        <time>2022-07-28T13:47:31Z</time>
      </trkpt>
      <trkpt lat="45.70975" lon="6.46556">
        <ele>865</ele>
        <time>2022-07-28T13:47:32Z</time>
      </trkpt>
      <trkpt lat="45.70976" lon="6.46556">
        <ele>865</ele>
        <time>2022-07-28T13:47:33Z</time>
      </trkpt>
      <trkpt lat="45.70977" lon="6.46555">
        <ele>865</ele>
        <time>2022-07-28T13:47:34Z</time>
      </trkpt>
      <trkpt lat="45.70978" lon="6.46554">
        <ele>865</ele>
        <time>2022-07-28T13:47:35Z</time>
      </trkpt>
      <trkpt lat="45.70979" lon="6.46554">
        <ele>865</ele>
        <time>2022-07-28T13:47:36Z</time>
      </trkpt>
      <trkpt lat="45.7098" lon="6.46553">
        <ele>865</ele>
        <time>2022-07-28T13:47:37Z</time>
      </trkpt>
      <trkpt lat="45.70981" lon="6.46552">
        <ele>865</ele>
        <time>2022-07-28T13:47:38Z</time>
      </trkpt>
      <trkpt lat="45.70982" lon="6.46551">
        <ele>865</ele>
        <time>2022-07-28T13:47:39Z</time>
      </trkpt>
      <trkpt lat="45.70983" lon="6.4655">
        <ele>865</ele>
        <time>2022-07-28T13:47:40Z</time>
      </trkpt>
      <trkpt lat="45.70984" lon="6.46549">
        <ele>865</ele>
        <time>2022-07-28T13:47:41Z</time>
      </trkpt>
      <trkpt lat="45.70985" lon="6.46548">
        <ele>864</ele>
        <time>2022-07-28T13:47:42Z</time>
      </trkpt>
      <trkpt lat="45.70986" lon="6.46547">
        <ele>864</ele>
        <time>2022-07-28T13:47:43Z</time>
      </trkpt>
      <trkpt lat="45.70987" lon="6.46545">
        <ele>864</ele>
        <time>2022-07-28T13:47:44Z</time>
      </trkpt>
      <trkpt lat="45.70988" lon="6.46544">
        <ele>864</ele>
        <time>2022-07-28T13:47:45Z</time>
      </trkpt>
      <trkpt lat="45.70989" lon="6.46543">
        <ele>864</ele>
        <time>2022-07-28T13:47:46Z</time>
      </trkpt>
      <trkpt lat="45.7099" lon="6.46543">
        <ele>863</ele>
        <time>2022-07-28T13:47:47Z</time>
      </trkpt>
      <trkpt lat="45.70991" lon="6.46542">
        <ele>863</ele>
        <time>2022-07-28T13:47:48Z</time>
      </trkpt>
      <trkpt lat="45.70992" lon="6.46543">
        <ele>863</ele>
        <time>2022-07-28T13:47:49Z</time>
      </trkpt>
      <trkpt lat="45.70993" lon="6.46544">
        <ele>863</ele>
        <time>2022-07-28T13:47:50Z</time>
      </trkpt>
      <trkpt lat="45.70993" lon="6.46545">
        <ele>863</ele>
        <time>2022-07-28T13:47:51Z</time>
      </trkpt>
      <trkpt lat="45.70993" lon="6.46547">
        <ele>863</ele>
        <time>2022-07-28T13:47:52Z</time>
      </trkpt>
      <trkpt lat="45.70994" lon="6.46548">
        <ele>863</ele>
        <time>2022-07-28T13:47:53Z</time>
      </trkpt>
      <trkpt lat="45.70994" lon="6.4655">
        <ele>863</ele>
        <time>2022-07-28T13:47:54Z</time>
      </trkpt>
      <trkpt lat="45.70995" lon="6.46551">
        <ele>863</ele>
        <time>2022-07-28T13:47:55Z</time>
      </trkpt>
      <trkpt lat="45.70995" lon="6.46552">
        <ele>863</ele>
        <time>2022-07-28T13:47:56Z</time>
      </trkpt>
      <trkpt lat="45.70996" lon="6.46552">
        <ele>862</ele>
        <time>2022-07-28T13:47:57Z</time>
      </trkpt>
      <trkpt lat="45.70996" lon="6.46553">
        <ele>862</ele>
        <time>2022-07-28T13:47:58Z</time>
      </trkpt>
      <trkpt lat="45.70996" lon="6.46553">
        <ele>862</ele>
        <time>2022-07-28T13:47:59Z</time>
      </trkpt>
      <trkpt lat="45.70996" lon="6.46553">
        <ele>862</ele>
        <time>2022-07-28T13:48:00Z</time>
      </trkpt>
      <trkpt lat="45.70996" lon="6.46553">
        <ele>862</ele>
        <time>2022-07-28T13:48:01Z</time>
      </trkpt>
      <trkpt lat="45.70996" lon="6.46554">
        <ele>861</ele>
        <time>2022-07-28T13:48:02Z</time>
      </trkpt>
      <trkpt lat="45.70996" lon="6.46555">
        <ele>861</ele>
        <time>2022-07-28T13:48:03Z</time>
      </trkpt>
      <trkpt lat="45.70996" lon="6.46555">
        <ele>861</ele>
        <time>2022-07-28T13:48:04Z</time>
      </trkpt>
      <trkpt lat="45.70996" lon="6.46556">
        <ele>861</ele>
        <time>2022-07-28T13:48:05Z</time>
      </trkpt>
      <trkpt lat="45.70996" lon="6.46557">
        <ele>861</ele>
        <time>2022-07-28T13:48:06Z</time>
      </trkpt>
      <trkpt lat="45.70995" lon="6.46558">
        <ele>860</ele>
        <time>2022-07-28T13:48:07Z</time>
      </trkpt>
      <trkpt lat="45.70995" lon="6.46559">
        <ele>860</ele>
        <time>2022-07-28T13:48:08Z</time>
      </trkpt>
      <trkpt lat="45.70995" lon="6.4656">
        <ele>860</ele>
        <time>2022-07-28T13:48:09Z</time>
      </trkpt>
      <trkpt lat="45.70995" lon="6.46561">
        <ele>860</ele>
        <time>2022-07-28T13:48:10Z</time>
      </trkpt>
      <trkpt lat="45.70995" lon="6.46563">
        <ele>860</ele>
        <time>2022-07-28T13:48:11Z</time>
      </trkpt>
      <trkpt lat="45.70995" lon="6.46564">
        <ele>859</ele>
        <time>2022-07-28T13:48:12Z</time>
      </trkpt>
      <trkpt lat="45.70995" lon="6.46565">
        <ele>858</ele>
        <time>2022-07-28T13:48:13Z</time>
      </trkpt>
      <trkpt lat="45.70996" lon="6.46567">
        <ele>858</ele>
        <time>2022-07-28T13:48:14Z</time>
      </trkpt>
      <trkpt lat="45.70996" lon="6.46568">
        <ele>857</ele>
        <time>2022-07-28T13:48:15Z</time>
      </trkpt>
      <trkpt lat="45.70996" lon="6.46569">
        <ele>857</ele>
        <time>2022-07-28T13:48:16Z</time>
      </trkpt>
      <trkpt lat="45.70996" lon="6.4657">
        <ele>856</ele>
        <time>2022-07-28T13:48:17Z</time>
      </trkpt>
      <trkpt lat="45.70997" lon="6.46571">
        <ele>856</ele>
        <time>2022-07-28T13:48:18Z</time>
      </trkpt>
      <trkpt lat="45.70997" lon="6.46572">
        <ele>856</ele>
        <time>2022-07-28T13:48:19Z</time>
      </trkpt>
      <trkpt lat="45.70997" lon="6.46574">
        <ele>854</ele>
        <time>2022-07-28T13:48:28Z</time>
      </trkpt>
      <trkpt lat="45.70997" lon="6.46575">
        <ele>854</ele>
        <time>2022-07-28T13:48:29Z</time>
      </trkpt>
      <trkpt lat="45.70997" lon="6.46576">
        <ele>854</ele>
        <time>2022-07-28T13:48:30Z</time>
      </trkpt>
      <trkpt lat="45.70998" lon="6.46577">
        <ele>854</ele>
        <time>2022-07-28T13:48:31Z</time>
      </trkpt>
      <trkpt lat="45.70998" lon="6.46577">
        <ele>853</ele>
        <time>2022-07-28T13:48:32Z</time>
      </trkpt>
      <trkpt lat="45.70998" lon="6.46577">
        <ele>853</ele>
        <time>2022-07-28T13:48:33Z</time>
      </trkpt>
      <trkpt lat="45.70999" lon="6.46578">
        <ele>853</ele>
        <time>2022-07-28T13:48:34Z</time>
      </trkpt>
      <trkpt lat="45.71" lon="6.46578">
        <ele>853</ele>
        <time>2022-07-28T13:48:35Z</time>
      </trkpt>
      <trkpt lat="45.71" lon="6.46578">
        <ele>853</ele>
        <time>2022-07-28T13:48:36Z</time>
      </trkpt>
      <trkpt lat="45.71001" lon="6.46578">
        <ele>852</ele>
        <time>2022-07-28T13:48:37Z</time>
      </trkpt>
      <trkpt lat="45.71002" lon="6.46578">
        <ele>852</ele>
        <time>2022-07-28T13:48:38Z</time>
      </trkpt>
      <trkpt lat="45.71002" lon="6.46579">
        <ele>852</ele>
        <time>2022-07-28T13:48:39Z</time>
      </trkpt>
      <trkpt lat="45.71003" lon="6.46579">
        <ele>852</ele>
        <time>2022-07-28T13:48:40Z</time>
      </trkpt>
      <trkpt lat="45.71003" lon="6.46579">
        <ele>852</ele>
        <time>2022-07-28T13:48:41Z</time>
      </trkpt>
      <trkpt lat="45.71004" lon="6.46579">
        <ele>851</ele>
        <time>2022-07-28T13:48:42Z</time>
      </trkpt>
      <trkpt lat="45.71004" lon="6.46579">
        <ele>851</ele>
        <time>2022-07-28T13:48:43Z</time>
      </trkpt>
      <trkpt lat="45.71005" lon="6.46579">
        <ele>851</ele>
        <time>2022-07-28T13:48:44Z</time>
      </trkpt>
      <trkpt lat="45.71006" lon="6.46579">
        <ele>851</ele>
        <time>2022-07-28T13:48:45Z</time>
      </trkpt>
      <trkpt lat="45.71007" lon="6.46579">
        <ele>851</ele>
        <time>2022-07-28T13:48:46Z</time>
      </trkpt>
      <trkpt lat="45.71008" lon="6.46579">
        <ele>850</ele>
        <time>2022-07-28T13:48:47Z</time>
      </trkpt>
      <trkpt lat="45.71008" lon="6.46579">
        <ele>850</ele>
        <time>2022-07-28T13:48:48Z</time>
      </trkpt>
      <trkpt lat="45.71009" lon="6.46579">
        <ele>850</ele>
        <time>2022-07-28T13:48:49Z</time>
      </trkpt>
      <trkpt lat="45.7101" lon="6.46579">
        <ele>850</ele>
        <time>2022-07-28T13:48:50Z</time>
      </trkpt>
      <trkpt lat="45.7101" lon="6.46579">
        <ele>850</ele>
        <time>2022-07-28T13:48:51Z</time>
      </trkpt>
      <trkpt lat="45.71011" lon="6.4658">
        <ele>849</ele>
        <time>2022-07-28T13:48:52Z</time>
      </trkpt>
      <trkpt lat="45.71012" lon="6.4658">
        <ele>849</ele>
        <time>2022-07-28T13:48:53Z</time>
      </trkpt>
      <trkpt lat="45.71013" lon="6.46581">
        <ele>849</ele>
        <time>2022-07-28T13:48:54Z</time>
      </trkpt>
      <trkpt lat="45.71013" lon="6.46581">
        <ele>849</ele>
        <time>2022-07-28T13:48:55Z</time>
      </trkpt>
      <trkpt lat="45.71014" lon="6.46582">
        <ele>849</ele>
        <time>2022-07-28T13:48:56Z</time>
      </trkpt>
      <trkpt lat="45.71015" lon="6.46582">
        <ele>848</ele>
        <time>2022-07-28T13:48:57Z</time>
      </trkpt>
      <trkpt lat="45.71015" lon="6.46583">
        <ele>848</ele>
        <time>2022-07-28T13:48:58Z</time>
      </trkpt>
      <trkpt lat="45.71016" lon="6.46584">
        <ele>848</ele>
        <time>2022-07-28T13:48:59Z</time>
      </trkpt>
      <trkpt lat="45.71016" lon="6.46584">
        <ele>848</ele>
        <time>2022-07-28T13:49:00Z</time>
      </trkpt>
      <trkpt lat="45.71017" lon="6.46585">
        <ele>848</ele>
        <time>2022-07-28T13:49:01Z</time>
      </trkpt>
      <trkpt lat="45.71018" lon="6.46585">
        <ele>847</ele>
        <time>2022-07-28T13:49:02Z</time>
      </trkpt>
      <trkpt lat="45.71018" lon="6.46586">
        <ele>847</ele>
        <time>2022-07-28T13:49:03Z</time>
      </trkpt>
      <trkpt lat="45.71018" lon="6.46586">
        <ele>847</ele>
        <time>2022-07-28T13:49:04Z</time>
      </trkpt>
      <trkpt lat="45.71018" lon="6.46586">
        <ele>847</ele>
        <time>2022-07-28T13:49:05Z</time>
      </trkpt>
      <trkpt lat="45.71018" lon="6.46587">
        <ele>847</ele>
        <time>2022-07-28T13:49:06Z</time>
      </trkpt>
      <trkpt lat="45.71018" lon="6.46587">
        <ele>846</ele>
        <time>2022-07-28T13:49:07Z</time>
      </trkpt>
      <trkpt lat="45.71018" lon="6.46587">
        <ele>846</ele>
        <time>2022-07-28T13:49:08Z</time>
      </trkpt>
      <trkpt lat="45.71018" lon="6.46588">
        <ele>846</ele>
        <time>2022-07-28T13:49:09Z</time>
      </trkpt>
      <trkpt lat="45.71018" lon="6.46589">
        <ele>846</ele>
        <time>2022-07-28T13:49:10Z</time>
      </trkpt>
      <trkpt lat="45.71019" lon="6.4659">
        <ele>846</ele>
        <time>2022-07-28T13:49:11Z</time>
      </trkpt>
      <trkpt lat="45.71019" lon="6.4659">
        <ele>845</ele>
        <time>2022-07-28T13:49:12Z</time>
      </trkpt>
      <trkpt lat="45.7102" lon="6.46591">
        <ele>845</ele>
        <time>2022-07-28T13:49:13Z</time>
      </trkpt>
      <trkpt lat="45.7102" lon="6.46592">
        <ele>845</ele>
        <time>2022-07-28T13:49:14Z</time>
      </trkpt>
      <trkpt lat="45.71021" lon="6.46593">
        <ele>845</ele>
        <time>2022-07-28T13:49:15Z</time>
      </trkpt>
      <trkpt lat="45.71021" lon="6.46593">
        <ele>845</ele>
        <time>2022-07-28T13:49:16Z</time>
      </trkpt>
      <trkpt lat="45.71022" lon="6.46594">
        <ele>844</ele>
        <time>2022-07-28T13:49:17Z</time>
      </trkpt>
      <trkpt lat="45.71022" lon="6.46594">
        <ele>844</ele>
        <time>2022-07-28T13:49:18Z</time>
      </trkpt>
      <trkpt lat="45.71023" lon="6.46595">
        <ele>844</ele>
        <time>2022-07-28T13:49:19Z</time>
      </trkpt>
      <trkpt lat="45.71023" lon="6.46596">
        <ele>844</ele>
        <time>2022-07-28T13:49:20Z</time>
      </trkpt>
      <trkpt lat="45.71023" lon="6.46596">
        <ele>844</ele>
        <time>2022-07-28T13:49:21Z</time>
      </trkpt>
      <trkpt lat="45.71023" lon="6.46597">
        <ele>843</ele>
        <time>2022-07-28T13:49:22Z</time>
      </trkpt>
      <trkpt lat="45.71023" lon="6.46598">
        <ele>843</ele>
        <time>2022-07-28T13:49:23Z</time>
      </trkpt>
      <trkpt lat="45.71023" lon="6.46599">
        <ele>843</ele>
        <time>2022-07-28T13:49:24Z</time>
      </trkpt>
      <trkpt lat="45.71023" lon="6.466">
        <ele>843</ele>
        <time>2022-07-28T13:49:25Z</time>
      </trkpt>
      <trkpt lat="45.71023" lon="6.46602">
        <ele>843</ele>
        <time>2022-07-28T13:49:26Z</time>
      </trkpt>
      <trkpt lat="45.71023" lon="6.46603">
        <ele>842</ele>
        <time>2022-07-28T13:49:27Z</time>
      </trkpt>
      <trkpt lat="45.71023" lon="6.46604">
        <ele>842</ele>
        <time>2022-07-28T13:49:28Z</time>
      </trkpt>
      <trkpt lat="45.71023" lon="6.46606">
        <ele>842</ele>
        <time>2022-07-28T13:49:29Z</time>
      </trkpt>
      <trkpt lat="45.71023" lon="6.46607">
        <ele>842</ele>
        <time>2022-07-28T13:49:30Z</time>
      </trkpt>
      <trkpt lat="45.71022" lon="6.46608">
        <ele>842</ele>
        <time>2022-07-28T13:49:31Z</time>
      </trkpt>
      <trkpt lat="45.71023" lon="6.46609">
        <ele>841</ele>
        <time>2022-07-28T13:49:32Z</time>
      </trkpt>
      <trkpt lat="45.71023" lon="6.4661">
        <ele>841</ele>
        <time>2022-07-28T13:49:33Z</time>
      </trkpt>
      <trkpt lat="45.71023" lon="6.46611">
        <ele>841</ele>
        <time>2022-07-28T13:49:34Z</time>
      </trkpt>
      <trkpt lat="45.71023" lon="6.46612">
        <ele>841</ele>
        <time>2022-07-28T13:49:35Z</time>
      </trkpt>
      <trkpt lat="45.71023" lon="6.46612">
        <ele>841</ele>
        <time>2022-07-28T13:49:36Z</time>
      </trkpt>
      <trkpt lat="45.71023" lon="6.46613">
        <ele>840</ele>
        <time>2022-07-28T13:49:37Z</time>
      </trkpt>
      <trkpt lat="45.71023" lon="6.46614">
        <ele>840</ele>
        <time>2022-07-28T13:49:38Z</time>
      </trkpt>
      <trkpt lat="45.71023" lon="6.46615">
        <ele>840</ele>
        <time>2022-07-28T13:49:39Z</time>
      </trkpt>
      <trkpt lat="45.71023" lon="6.46617">
        <ele>840</ele>
        <time>2022-07-28T13:49:40Z</time>
      </trkpt>
      <trkpt lat="45.71023" lon="6.46618">
        <ele>840</ele>
        <time>2022-07-28T13:49:41Z</time>
      </trkpt>
      <trkpt lat="45.71022" lon="6.4662">
        <ele>839</ele>
        <time>2022-07-28T13:49:42Z</time>
      </trkpt>
      <trkpt lat="45.71022" lon="6.46621">
        <ele>839</ele>
        <time>2022-07-28T13:49:43Z</time>
      </trkpt>
      <trkpt lat="45.71021" lon="6.46623">
        <ele>839</ele>
        <time>2022-07-28T13:49:44Z</time>
      </trkpt>
      <trkpt lat="45.7102" lon="6.46624">
        <ele>839</ele>
        <time>2022-07-28T13:49:45Z</time>
      </trkpt>
      <trkpt lat="45.71019" lon="6.46626">
        <ele>839</ele>
        <time>2022-07-28T13:49:46Z</time>
      </trkpt>
      <trkpt lat="45.71019" lon="6.46627">
        <ele>838</ele>
        <time>2022-07-28T13:49:47Z</time>
      </trkpt>
      <trkpt lat="45.71018" lon="6.46628">
        <ele>838</ele>
        <time>2022-07-28T13:49:48Z</time>
      </trkpt>
      <trkpt lat="45.71018" lon="6.4663">
        <ele>838</ele>
        <time>2022-07-28T13:49:49Z</time>
      </trkpt>
      <trkpt lat="45.71017" lon="6.46631">
        <ele>838</ele>
        <time>2022-07-28T13:49:50Z</time>
      </trkpt>
      <trkpt lat="45.71016" lon="6.46633">
        <ele>838</ele>
        <time>2022-07-28T13:49:51Z</time>
      </trkpt>
      <trkpt lat="45.71016" lon="6.46634">
        <ele>838</ele>
        <time>2022-07-28T13:49:52Z</time>
      </trkpt>
      <trkpt lat="45.71015" lon="6.46636">
        <ele>838</ele>
        <time>2022-07-28T13:49:53Z</time>
      </trkpt>
      <trkpt lat="45.71015" lon="6.46637">
        <ele>838</ele>
        <time>2022-07-28T13:49:54Z</time>
      </trkpt>
      <trkpt lat="45.71014" lon="6.46639">
        <ele>838</ele>
        <time>2022-07-28T13:49:55Z</time>
      </trkpt>
      <trkpt lat="45.71013" lon="6.4664">
        <ele>838</ele>
        <time>2022-07-28T13:49:56Z</time>
      </trkpt>
      <trkpt lat="45.71013" lon="6.46642">
        <ele>838</ele>
        <time>2022-07-28T13:49:57Z</time>
      </trkpt>
      <trkpt lat="45.71012" lon="6.46644">
        <ele>838</ele>
        <time>2022-07-28T13:49:58Z</time>
      </trkpt>
      <trkpt lat="45.71011" lon="6.46645">
        <ele>838</ele>
        <time>2022-07-28T13:49:59Z</time>
      </trkpt>
      <trkpt lat="45.71011" lon="6.46647">
        <ele>838</ele>
        <time>2022-07-28T13:50:00Z</time>
      </trkpt>
      <trkpt lat="45.7101" lon="6.46648">
        <ele>838</ele>
        <time>2022-07-28T13:50:01Z</time>
      </trkpt>
      <trkpt lat="45.7101" lon="6.4665">
        <ele>837</ele>
        <time>2022-07-28T13:50:02Z</time>
      </trkpt>
      <trkpt lat="45.71009" lon="6.46651">
        <ele>837</ele>
        <time>2022-07-28T13:50:03Z</time>
      </trkpt>
      <trkpt lat="45.71008" lon="6.46653">
        <ele>837</ele>
        <time>2022-07-28T13:50:04Z</time>
      </trkpt>
      <trkpt lat="45.71008" lon="6.46654">
        <ele>837</ele>
        <time>2022-07-28T13:50:05Z</time>
      </trkpt>
      <trkpt lat="45.71007" lon="6.46655">
        <ele>837</ele>
        <time>2022-07-28T13:50:06Z</time>
      </trkpt>
      <trkpt lat="45.71006" lon="6.46657">
        <ele>837</ele>
        <time>2022-07-28T13:50:07Z</time>
      </trkpt>
      <trkpt lat="45.71005" lon="6.46658">
        <ele>837</ele>
        <time>2022-07-28T13:50:08Z</time>
      </trkpt>
      <trkpt lat="45.71005" lon="6.46659">
        <ele>837</ele>
        <time>2022-07-28T13:50:09Z</time>
      </trkpt>
      <trkpt lat="45.71004" lon="6.4666">
        <ele>837</ele>
        <time>2022-07-28T13:50:10Z</time>
      </trkpt>
      <trkpt lat="45.71003" lon="6.46662">
        <ele>837</ele>
        <time>2022-07-28T13:50:11Z</time>
      </trkpt>
      <trkpt lat="45.71003" lon="6.46663">
        <ele>836</ele>
        <time>2022-07-28T13:50:12Z</time>
      </trkpt>
      <trkpt lat="45.71002" lon="6.46664">
        <ele>836</ele>
        <time>2022-07-28T13:50:13Z</time>
      </trkpt>
      <trkpt lat="45.71001" lon="6.46665">
        <ele>836</ele>
        <time>2022-07-28T13:50:14Z</time>
      </trkpt>
      <trkpt lat="45.71001" lon="6.46666">
        <ele>836</ele>
        <time>2022-07-28T13:50:15Z</time>
      </trkpt>
      <trkpt lat="45.71" lon="6.46667">
        <ele>836</ele>
        <time>2022-07-28T13:50:16Z</time>
      </trkpt>
      <trkpt lat="45.70999" lon="6.46668">
        <ele>836</ele>
        <time>2022-07-28T13:50:17Z</time>
      </trkpt>
      <trkpt lat="45.70998" lon="6.46669">
        <ele>836</ele>
        <time>2022-07-28T13:50:18Z</time>
      </trkpt>
      <trkpt lat="45.70997" lon="6.4667">
        <ele>836</ele>
        <time>2022-07-28T13:50:19Z</time>
      </trkpt>
      <trkpt lat="45.70997" lon="6.46671">
        <ele>836</ele>
        <time>2022-07-28T13:50:20Z</time>
      </trkpt>
      <trkpt lat="45.70996" lon="6.46672">
        <ele>836</ele>
        <time>2022-07-28T13:50:21Z</time>
      </trkpt>
      <trkpt lat="45.70995" lon="6.46673">
        <ele>836</ele>
        <time>2022-07-28T13:50:22Z</time>
      </trkpt>
      <trkpt lat="45.70994" lon="6.46674">
        <ele>836</ele>
        <time>2022-07-28T13:50:23Z</time>
      </trkpt>
      <trkpt lat="45.70994" lon="6.46675">
        <ele>836</ele>
        <time>2022-07-28T13:50:24Z</time>
      </trkpt>
      <trkpt lat="45.70993" lon="6.46676">
        <ele>836</ele>
        <time>2022-07-28T13:50:25Z</time>
      </trkpt>
      <trkpt lat="45.70992" lon="6.46677">
        <ele>836</ele>
        <time>2022-07-28T13:50:26Z</time>
      </trkpt>
      <trkpt lat="45.70992" lon="6.46678">
        <ele>835</ele>
        <time>2022-07-28T13:50:27Z</time>
      </trkpt>
      <trkpt lat="45.70991" lon="6.4668">
        <ele>835</ele>
        <time>2022-07-28T13:50:28Z</time>
      </trkpt>
      <trkpt lat="45.7099" lon="6.46681">
        <ele>835</ele>
        <time>2022-07-28T13:50:29Z</time>
      </trkpt>
      <trkpt lat="45.70989" lon="6.46682">
        <ele>835</ele>
        <time>2022-07-28T13:50:30Z</time>
      </trkpt>
      <trkpt lat="45.70988" lon="6.46683">
        <ele>835</ele>
        <time>2022-07-28T13:50:31Z</time>
      </trkpt>
      <trkpt lat="45.70987" lon="6.46685">
        <ele>835</ele>
        <time>2022-07-28T13:50:32Z</time>
      </trkpt>
      <trkpt lat="45.70986" lon="6.46686">
        <ele>835</ele>
        <time>2022-07-28T13:50:33Z</time>
      </trkpt>
      <trkpt lat="45.70985" lon="6.46687">
        <ele>835</ele>
        <time>2022-07-28T13:50:34Z</time>
      </trkpt>
      <trkpt lat="45.70984" lon="6.46688">
        <ele>835</ele>
        <time>2022-07-28T13:50:35Z</time>
      </trkpt>
      <trkpt lat="45.70983" lon="6.46689">
        <ele>835</ele>
        <time>2022-07-28T13:50:36Z</time>
      </trkpt>
      <trkpt lat="45.70982" lon="6.4669">
        <ele>834</ele>
        <time>2022-07-28T13:50:37Z</time>
      </trkpt>
      <trkpt lat="45.70981" lon="6.46691">
        <ele>834</ele>
        <time>2022-07-28T13:50:38Z</time>
      </trkpt>
      <trkpt lat="45.7098" lon="6.46693">
        <ele>834</ele>
        <time>2022-07-28T13:50:39Z</time>
      </trkpt>
      <trkpt lat="45.70979" lon="6.46694">
        <ele>834</ele>
        <time>2022-07-28T13:50:40Z</time>
      </trkpt>
      <trkpt lat="45.70978" lon="6.46695">
        <ele>834</ele>
        <time>2022-07-28T13:50:41Z</time>
      </trkpt>
      <trkpt lat="45.70978" lon="6.46696">
        <ele>833</ele>
        <time>2022-07-28T13:50:42Z</time>
      </trkpt>
      <trkpt lat="45.70977" lon="6.46697">
        <ele>833</ele>
        <time>2022-07-28T13:50:43Z</time>
      </trkpt>
      <trkpt lat="45.70976" lon="6.46698">
        <ele>833</ele>
        <time>2022-07-28T13:50:44Z</time>
      </trkpt>
      <trkpt lat="45.70976" lon="6.467">
        <ele>833</ele>
        <time>2022-07-28T13:50:45Z</time>
      </trkpt>
      <trkpt lat="45.70975" lon="6.46701">
        <ele>833</ele>
        <time>2022-07-28T13:50:46Z</time>
      </trkpt>
      <trkpt lat="45.70974" lon="6.46702">
        <ele>833</ele>
        <time>2022-07-28T13:50:47Z</time>
      </trkpt>
      <trkpt lat="45.70974" lon="6.46703">
        <ele>833</ele>
        <time>2022-07-28T13:50:48Z</time>
      </trkpt>
      <trkpt lat="45.70973" lon="6.46704">
        <ele>833</ele>
        <time>2022-07-28T13:50:49Z</time>
      </trkpt>
      <trkpt lat="45.70972" lon="6.46705">
        <ele>833</ele>
        <time>2022-07-28T13:50:50Z</time>
      </trkpt>
      <trkpt lat="45.70971" lon="6.46707">
        <ele>833</ele>
        <time>2022-07-28T13:50:51Z</time>
      </trkpt>
      <trkpt lat="45.7097" lon="6.46708">
        <ele>832</ele>
        <time>2022-07-28T13:50:52Z</time>
      </trkpt>
      <trkpt lat="45.7097" lon="6.46709">
        <ele>832</ele>
        <time>2022-07-28T13:50:53Z</time>
      </trkpt>
      <trkpt lat="45.70969" lon="6.4671">
        <ele>832</ele>
        <time>2022-07-28T13:50:54Z</time>
      </trkpt>
      <trkpt lat="45.70968" lon="6.46711">
        <ele>832</ele>
        <time>2022-07-28T13:50:55Z</time>
      </trkpt>
      <trkpt lat="45.70967" lon="6.46712">
        <ele>832</ele>
        <time>2022-07-28T13:50:56Z</time>
      </trkpt>
      <trkpt lat="45.70966" lon="6.46713">
        <ele>832</ele>
        <time>2022-07-28T13:50:57Z</time>
      </trkpt>
      <trkpt lat="45.70965" lon="6.46714">
        <ele>832</ele>
        <time>2022-07-28T13:50:58Z</time>
      </trkpt>
      <trkpt lat="45.70964" lon="6.46715">
        <ele>832</ele>
        <time>2022-07-28T13:50:59Z</time>
      </trkpt>
      <trkpt lat="45.70963" lon="6.46716">
        <ele>832</ele>
        <time>2022-07-28T13:51:00Z</time>
      </trkpt>
      <trkpt lat="45.70963" lon="6.46717">
        <ele>832</ele>
        <time>2022-07-28T13:51:01Z</time>
      </trkpt>
      <trkpt lat="45.70962" lon="6.46718">
        <ele>831</ele>
        <time>2022-07-28T13:51:02Z</time>
      </trkpt>
      <trkpt lat="45.70961" lon="6.46719">
        <ele>831</ele>
        <time>2022-07-28T13:51:03Z</time>
      </trkpt>
      <trkpt lat="45.7096" lon="6.4672">
        <ele>831</ele>
        <time>2022-07-28T13:51:04Z</time>
      </trkpt>
      <trkpt lat="45.70959" lon="6.46722">
        <ele>831</ele>
        <time>2022-07-28T13:51:05Z</time>
      </trkpt>
      <trkpt lat="45.70959" lon="6.46723">
        <ele>831</ele>
        <time>2022-07-28T13:51:06Z</time>
      </trkpt>
      <trkpt lat="45.70958" lon="6.46724">
        <ele>831</ele>
        <time>2022-07-28T13:51:07Z</time>
      </trkpt>
      <trkpt lat="45.70957" lon="6.46725">
        <ele>831</ele>
        <time>2022-07-28T13:51:08Z</time>
      </trkpt>
      <trkpt lat="45.70956" lon="6.46726">
        <ele>831</ele>
        <time>2022-07-28T13:51:09Z</time>
      </trkpt>
      <trkpt lat="45.70956" lon="6.46727">
        <ele>831</ele>
        <time>2022-07-28T13:51:10Z</time>
      </trkpt>
      <trkpt lat="45.70955" lon="6.46728">
        <ele>831</ele>
        <time>2022-07-28T13:51:11Z</time>
      </trkpt>
      <trkpt lat="45.70954" lon="6.4673">
        <ele>830</ele>
        <time>2022-07-28T13:51:12Z</time>
      </trkpt>
      <trkpt lat="45.70953" lon="6.46731">
        <ele>830</ele>
        <time>2022-07-28T13:51:13Z</time>
      </trkpt>
      <trkpt lat="45.70952" lon="6.46732">
        <ele>829</ele>
        <time>2022-07-28T13:51:14Z</time>
      </trkpt>
      <trkpt lat="45.70952" lon="6.46733">
        <ele>829</ele>
        <time>2022-07-28T13:51:15Z</time>
      </trkpt>
      <trkpt lat="45.70951" lon="6.46734">
        <ele>829</ele>
        <time>2022-07-28T13:51:16Z</time>
      </trkpt>
      <trkpt lat="45.7095" lon="6.46735">
        <ele>829</ele>
        <time>2022-07-28T13:51:17Z</time>
      </trkpt>
      <trkpt lat="45.70949" lon="6.46737">
        <ele>829</ele>
        <time>2022-07-28T13:51:18Z</time>
      </trkpt>
      <trkpt lat="45.70948" lon="6.46738">
        <ele>829</ele>
        <time>2022-07-28T13:51:19Z</time>
      </trkpt>
      <trkpt lat="45.70947" lon="6.46739">
        <ele>829</ele>
        <time>2022-07-28T13:51:20Z</time>
      </trkpt>
      <trkpt lat="45.70947" lon="6.4674">
        <ele>829</ele>
        <time>2022-07-28T13:51:21Z</time>
      </trkpt>
      <trkpt lat="45.70946" lon="6.46741">
        <ele>828</ele>
        <time>2022-07-28T13:51:22Z</time>
      </trkpt>
      <trkpt lat="45.70945" lon="6.46742">
        <ele>828</ele>
        <time>2022-07-28T13:51:23Z</time>
      </trkpt>
      <trkpt lat="45.70944" lon="6.46743">
        <ele>828</ele>
        <time>2022-07-28T13:51:24Z</time>
      </trkpt>
      <trkpt lat="45.70943" lon="6.46744">
        <ele>828</ele>
        <time>2022-07-28T13:51:25Z</time>
      </trkpt>
      <trkpt lat="45.70942" lon="6.46745">
        <ele>828</ele>
        <time>2022-07-28T13:51:26Z</time>
      </trkpt>
      <trkpt lat="45.70942" lon="6.46747">
        <ele>828</ele>
        <time>2022-07-28T13:51:27Z</time>
      </trkpt>
      <trkpt lat="45.70941" lon="6.46748">
        <ele>828</ele>
        <time>2022-07-28T13:51:28Z</time>
      </trkpt>
      <trkpt lat="45.7094" lon="6.46749">
        <ele>828</ele>
        <time>2022-07-28T13:51:29Z</time>
      </trkpt>
      <trkpt lat="45.70939" lon="6.46751">
        <ele>828</ele>
        <time>2022-07-28T13:51:30Z</time>
      </trkpt>
      <trkpt lat="45.70939" lon="6.46752">
        <ele>828</ele>
        <time>2022-07-28T13:51:31Z</time>
      </trkpt>
      <trkpt lat="45.70938" lon="6.46753">
        <ele>827</ele>
        <time>2022-07-28T13:51:32Z</time>
      </trkpt>
      <trkpt lat="45.70937" lon="6.46754">
        <ele>827</ele>
        <time>2022-07-28T13:51:33Z</time>
      </trkpt>
      <trkpt lat="45.70937" lon="6.46756">
        <ele>827</ele>
        <time>2022-07-28T13:51:34Z</time>
      </trkpt>
      <trkpt lat="45.70936" lon="6.46757">
        <ele>827</ele>
        <time>2022-07-28T13:51:35Z</time>
      </trkpt>
      <trkpt lat="45.70936" lon="6.46758">
        <ele>827</ele>
        <time>2022-07-28T13:51:36Z</time>
      </trkpt>
      <trkpt lat="45.70935" lon="6.4676">
        <ele>827</ele>
        <time>2022-07-28T13:51:37Z</time>
      </trkpt>
      <trkpt lat="45.70934" lon="6.46761">
        <ele>827</ele>
        <time>2022-07-28T13:51:38Z</time>
      </trkpt>
      <trkpt lat="45.70934" lon="6.46762">
        <ele>827</ele>
        <time>2022-07-28T13:51:39Z</time>
      </trkpt>
      <trkpt lat="45.70933" lon="6.46764">
        <ele>827</ele>
        <time>2022-07-28T13:51:40Z</time>
      </trkpt>
      <trkpt lat="45.70932" lon="6.46765">
        <ele>827</ele>
        <time>2022-07-28T13:51:41Z</time>
      </trkpt>
      <trkpt lat="45.70932" lon="6.46767">
        <ele>826</ele>
        <time>2022-07-28T13:51:42Z</time>
      </trkpt>
      <trkpt lat="45.70931" lon="6.46768">
        <ele>826</ele>
        <time>2022-07-28T13:51:43Z</time>
      </trkpt>
      <trkpt lat="45.70931" lon="6.4677">
        <ele>826</ele>
        <time>2022-07-28T13:51:44Z</time>
      </trkpt>
      <trkpt lat="45.7093" lon="6.46771">
        <ele>826</ele>
        <time>2022-07-28T13:51:45Z</time>
      </trkpt>
      <trkpt lat="45.70929" lon="6.46773">
        <ele>826</ele>
        <time>2022-07-28T13:51:46Z</time>
      </trkpt>
      <trkpt lat="45.70929" lon="6.46774">
        <ele>826</ele>
        <time>2022-07-28T13:51:47Z</time>
      </trkpt>
      <trkpt lat="45.70928" lon="6.46776">
        <ele>826</ele>
        <time>2022-07-28T13:51:48Z</time>
      </trkpt>
      <trkpt lat="45.70928" lon="6.46778">
        <ele>826</ele>
        <time>2022-07-28T13:51:49Z</time>
      </trkpt>
      <trkpt lat="45.70927" lon="6.46779">
        <ele>826</ele>
        <time>2022-07-28T13:51:50Z</time>
      </trkpt>
      <trkpt lat="45.70927" lon="6.4678">
        <ele>826</ele>
        <time>2022-07-28T13:51:51Z</time>
      </trkpt>
      <trkpt lat="45.70927" lon="6.46782">
        <ele>825</ele>
        <time>2022-07-28T13:51:52Z</time>
      </trkpt>
      <trkpt lat="45.70927" lon="6.46783">
        <ele>825</ele>
        <time>2022-07-28T13:51:53Z</time>
      </trkpt>
      <trkpt lat="45.70927" lon="6.46784">
        <ele>825</ele>
        <time>2022-07-28T13:51:54Z</time>
      </trkpt>
      <trkpt lat="45.70927" lon="6.46786">
        <ele>825</ele>
        <time>2022-07-28T13:51:55Z</time>
      </trkpt>
      <trkpt lat="45.70927" lon="6.46787">
        <ele>825</ele>
        <time>2022-07-28T13:51:56Z</time>
      </trkpt>
      <trkpt lat="45.70927" lon="6.46789">
        <ele>825</ele>
        <time>2022-07-28T13:51:57Z</time>
      </trkpt>
      <trkpt lat="45.70927" lon="6.4679">
        <ele>825</ele>
        <time>2022-07-28T13:51:58Z</time>
      </trkpt>
      <trkpt lat="45.70926" lon="6.46791">
        <ele>825</ele>
        <time>2022-07-28T13:51:59Z</time>
      </trkpt>
      <trkpt lat="45.70926" lon="6.46793">
        <ele>825</ele>
        <time>2022-07-28T13:52:00Z</time>
      </trkpt>
      <trkpt lat="45.70925" lon="6.46794">
        <ele>825</ele>
        <time>2022-07-28T13:52:01Z</time>
      </trkpt>
      <trkpt lat="45.70924" lon="6.46796">
        <ele>824</ele>
        <time>2022-07-28T13:52:02Z</time>
      </trkpt>
      <trkpt lat="45.70924" lon="6.46797">
        <ele>824</ele>
        <time>2022-07-28T13:52:03Z</time>
      </trkpt>
      <trkpt lat="45.70923" lon="6.46799">
        <ele>824</ele>
        <time>2022-07-28T13:52:04Z</time>
      </trkpt>
      <trkpt lat="45.70922" lon="6.46801">
        <ele>824</ele>
        <time>2022-07-28T13:52:05Z</time>
      </trkpt>
      <trkpt lat="45.70922" lon="6.46802">
        <ele>824</ele>
        <time>2022-07-28T13:52:06Z</time>
      </trkpt>
      <trkpt lat="45.70921" lon="6.46804">
        <ele>824</ele>
        <time>2022-07-28T13:52:07Z</time>
      </trkpt>
      <trkpt lat="45.70921" lon="6.46806">
        <ele>824</ele>
        <time>2022-07-28T13:52:08Z</time>
      </trkpt>
      <trkpt lat="45.7092" lon="6.46807">
        <ele>824</ele>
        <time>2022-07-28T13:52:09Z</time>
      </trkpt>
      <trkpt lat="45.7092" lon="6.46809">
        <ele>824</ele>
        <time>2022-07-28T13:52:10Z</time>
      </trkpt>
      <trkpt lat="45.7092" lon="6.46811">
        <ele>824</ele>
        <time>2022-07-28T13:52:11Z</time>
      </trkpt>
      <trkpt lat="45.70919" lon="6.46812">
        <ele>824</ele>
        <time>2022-07-28T13:52:12Z</time>
      </trkpt>
      <trkpt lat="45.70919" lon="6.46814">
        <ele>824</ele>
        <time>2022-07-28T13:52:13Z</time>
      </trkpt>
      <trkpt lat="45.70918" lon="6.46816">
        <ele>824</ele>
        <time>2022-07-28T13:52:14Z</time>
      </trkpt>
      <trkpt lat="45.70918" lon="6.46817">
        <ele>824</ele>
        <time>2022-07-28T13:52:15Z</time>
      </trkpt>
      <trkpt lat="45.70918" lon="6.46819">
        <ele>824</ele>
        <time>2022-07-28T13:52:16Z</time>
      </trkpt>
      <trkpt lat="45.70917" lon="6.46821">
        <ele>823</ele>
        <time>2022-07-28T13:52:17Z</time>
      </trkpt>
      <trkpt lat="45.70917" lon="6.46822">
        <ele>823</ele>
        <time>2022-07-28T13:52:18Z</time>
      </trkpt>
      <trkpt lat="45.70916" lon="6.46824">
        <ele>823</ele>
        <time>2022-07-28T13:52:19Z</time>
      </trkpt>
      <trkpt lat="45.70916" lon="6.46825">
        <ele>823</ele>
        <time>2022-07-28T13:52:20Z</time>
      </trkpt>
      <trkpt lat="45.70915" lon="6.46827">
        <ele>823</ele>
        <time>2022-07-28T13:52:21Z</time>
      </trkpt>
      <trkpt lat="45.70915" lon="6.46828">
        <ele>823</ele>
        <time>2022-07-28T13:52:22Z</time>
      </trkpt>
      <trkpt lat="45.70914" lon="6.4683">
        <ele>823</ele>
        <time>2022-07-28T13:52:23Z</time>
      </trkpt>
      <trkpt lat="45.70914" lon="6.46831">
        <ele>823</ele>
        <time>2022-07-28T13:52:24Z</time>
      </trkpt>
      <trkpt lat="45.70914" lon="6.46833">
        <ele>823</ele>
        <time>2022-07-28T13:52:25Z</time>
      </trkpt>
      <trkpt lat="45.70913" lon="6.46834">
        <ele>823</ele>
        <time>2022-07-28T13:52:26Z</time>
      </trkpt>
      <trkpt lat="45.70913" lon="6.46836">
        <ele>822</ele>
        <time>2022-07-28T13:52:27Z</time>
      </trkpt>
      <trkpt lat="45.70913" lon="6.46837">
        <ele>822</ele>
        <time>2022-07-28T13:52:28Z</time>
      </trkpt>
      <trkpt lat="45.70913" lon="6.46839">
        <ele>822</ele>
        <time>2022-07-28T13:52:29Z</time>
      </trkpt>
      <trkpt lat="45.70912" lon="6.4684">
        <ele>822</ele>
        <time>2022-07-28T13:52:30Z</time>
      </trkpt>
      <trkpt lat="45.70912" lon="6.46841">
        <ele>822</ele>
        <time>2022-07-28T13:52:31Z</time>
      </trkpt>
      <trkpt lat="45.70912" lon="6.46843">
        <ele>822</ele>
        <time>2022-07-28T13:52:32Z</time>
      </trkpt>
      <trkpt lat="45.70912" lon="6.46844">
        <ele>822</ele>
        <time>2022-07-28T13:52:33Z</time>
      </trkpt>
      <trkpt lat="45.70911" lon="6.46846">
        <ele>822</ele>
        <time>2022-07-28T13:52:34Z</time>
      </trkpt>
      <trkpt lat="45.70911" lon="6.46847">
        <ele>822</ele>
        <time>2022-07-28T13:52:35Z</time>
      </trkpt>
      <trkpt lat="45.70911" lon="6.46849">
        <ele>822</ele>
        <time>2022-07-28T13:52:36Z</time>
      </trkpt>
      <trkpt lat="45.7091" lon="6.4685">
        <ele>821</ele>
        <time>2022-07-28T13:52:37Z</time>
      </trkpt>
      <trkpt lat="45.7091" lon="6.46852">
        <ele>821</ele>
        <time>2022-07-28T13:52:38Z</time>
      </trkpt>
      <trkpt lat="45.70909" lon="6.46853">
        <ele>821</ele>
        <time>2022-07-28T13:52:39Z</time>
      </trkpt>
      <trkpt lat="45.70908" lon="6.46855">
        <ele>821</ele>
        <time>2022-07-28T13:52:40Z</time>
      </trkpt>
      <trkpt lat="45.70908" lon="6.46856">
        <ele>821</ele>
        <time>2022-07-28T13:52:41Z</time>
      </trkpt>
      <trkpt lat="45.70907" lon="6.46858">
        <ele>821</ele>
        <time>2022-07-28T13:52:42Z</time>
      </trkpt>
      <trkpt lat="45.70906" lon="6.46859">
        <ele>821</ele>
        <time>2022-07-28T13:52:43Z</time>
      </trkpt>
      <trkpt lat="45.70905" lon="6.46861">
        <ele>821</ele>
        <time>2022-07-28T13:52:44Z</time>
      </trkpt>
      <trkpt lat="45.70904" lon="6.46862">
        <ele>821</ele>
        <time>2022-07-28T13:52:45Z</time>
      </trkpt>
      <trkpt lat="45.70903" lon="6.46863">
        <ele>821</ele>
        <time>2022-07-28T13:52:46Z</time>
      </trkpt>
      <trkpt lat="45.70903" lon="6.46865">
        <ele>820</ele>
        <time>2022-07-28T13:52:47Z</time>
      </trkpt>
      <trkpt lat="45.70902" lon="6.46866">
        <ele>820</ele>
        <time>2022-07-28T13:52:48Z</time>
      </trkpt>
      <trkpt lat="45.70901" lon="6.46867">
        <ele>820</ele>
        <time>2022-07-28T13:52:49Z</time>
      </trkpt>
      <trkpt lat="45.70901" lon="6.46869">
        <ele>820</ele>
        <time>2022-07-28T13:52:50Z</time>
      </trkpt>
      <trkpt lat="45.709" lon="6.4687">
        <ele>820</ele>
        <time>2022-07-28T13:52:51Z</time>
      </trkpt>
      <trkpt lat="45.709" lon="6.46871">
        <ele>820</ele>
        <time>2022-07-28T13:52:52Z</time>
      </trkpt>
      <trkpt lat="45.70899" lon="6.46873">
        <ele>820</ele>
        <time>2022-07-28T13:52:53Z</time>
      </trkpt>
      <trkpt lat="45.70898" lon="6.46874">
        <ele>820</ele>
        <time>2022-07-28T13:52:54Z</time>
      </trkpt>
      <trkpt lat="45.70897" lon="6.46875">
        <ele>820</ele>
        <time>2022-07-28T13:52:55Z</time>
      </trkpt>
      <trkpt lat="45.70897" lon="6.46876">
        <ele>820</ele>
        <time>2022-07-28T13:52:56Z</time>
      </trkpt>
      <trkpt lat="45.70896" lon="6.46877">
        <ele>820</ele>
        <time>2022-07-28T13:52:57Z</time>
      </trkpt>
      <trkpt lat="45.70895" lon="6.46879">
        <ele>820</ele>
        <time>2022-07-28T13:52:58Z</time>
      </trkpt>
      <trkpt lat="45.70894" lon="6.4688">
        <ele>820</ele>
        <time>2022-07-28T13:52:59Z</time>
      </trkpt>
      <trkpt lat="45.70893" lon="6.46881">
        <ele>820</ele>
        <time>2022-07-28T13:53:00Z</time>
      </trkpt>
      <trkpt lat="45.70892" lon="6.46882">
        <ele>820</ele>
        <time>2022-07-28T13:53:01Z</time>
      </trkpt>
      <trkpt lat="45.70891" lon="6.46882">
        <ele>819</ele>
        <time>2022-07-28T13:53:02Z</time>
      </trkpt>
      <trkpt lat="45.7089" lon="6.46883">
        <ele>819</ele>
        <time>2022-07-28T13:53:03Z</time>
      </trkpt>
      <trkpt lat="45.70889" lon="6.46885">
        <ele>819</ele>
        <time>2022-07-28T13:53:04Z</time>
      </trkpt>
      <trkpt lat="45.70889" lon="6.46886">
        <ele>819</ele>
        <time>2022-07-28T13:53:05Z</time>
      </trkpt>
      <trkpt lat="45.70888" lon="6.46887">
        <ele>819</ele>
        <time>2022-07-28T13:53:06Z</time>
      </trkpt>
      <trkpt lat="45.70887" lon="6.46889">
        <ele>818</ele>
        <time>2022-07-28T13:53:07Z</time>
      </trkpt>
      <trkpt lat="45.70886" lon="6.4689">
        <ele>818</ele>
        <time>2022-07-28T13:53:08Z</time>
      </trkpt>
      <trkpt lat="45.70885" lon="6.46891">
        <ele>818</ele>
        <time>2022-07-28T13:53:09Z</time>
      </trkpt>
      <trkpt lat="45.70884" lon="6.46893">
        <ele>818</ele>
        <time>2022-07-28T13:53:10Z</time>
      </trkpt>
      <trkpt lat="45.70883" lon="6.46894">
        <ele>818</ele>
        <time>2022-07-28T13:53:11Z</time>
      </trkpt>
      <trkpt lat="45.70882" lon="6.46896">
        <ele>817</ele>
        <time>2022-07-28T13:53:12Z</time>
      </trkpt>
      <trkpt lat="45.70881" lon="6.46897">
        <ele>817</ele>
        <time>2022-07-28T13:53:13Z</time>
      </trkpt>
      <trkpt lat="45.70881" lon="6.46898">
        <ele>817</ele>
        <time>2022-07-28T13:53:14Z</time>
      </trkpt>
      <trkpt lat="45.7088" lon="6.469">
        <ele>817</ele>
        <time>2022-07-28T13:53:15Z</time>
      </trkpt>
      <trkpt lat="45.7088" lon="6.46901">
        <ele>817</ele>
        <time>2022-07-28T13:53:16Z</time>
      </trkpt>
      <trkpt lat="45.70879" lon="6.46903">
        <ele>816</ele>
        <time>2022-07-28T13:53:17Z</time>
      </trkpt>
      <trkpt lat="45.70879" lon="6.46904">
        <ele>816</ele>
        <time>2022-07-28T13:53:18Z</time>
      </trkpt>
      <trkpt lat="45.70879" lon="6.46906">
        <ele>816</ele>
        <time>2022-07-28T13:53:19Z</time>
      </trkpt>
      <trkpt lat="45.70879" lon="6.46907">
        <ele>816</ele>
        <time>2022-07-28T13:53:20Z</time>
      </trkpt>
      <trkpt lat="45.70879" lon="6.46909">
        <ele>816</ele>
        <time>2022-07-28T13:53:21Z</time>
      </trkpt>
      <trkpt lat="45.70879" lon="6.4691">
        <ele>816</ele>
        <time>2022-07-28T13:53:22Z</time>
      </trkpt>
      <trkpt lat="45.70879" lon="6.46912">
        <ele>816</ele>
        <time>2022-07-28T13:53:23Z</time>
      </trkpt>
      <trkpt lat="45.70879" lon="6.46913">
        <ele>816</ele>
        <time>2022-07-28T13:53:24Z</time>
      </trkpt>
      <trkpt lat="45.7088" lon="6.46914">
        <ele>816</ele>
        <time>2022-07-28T13:53:25Z</time>
      </trkpt>
      <trkpt lat="45.7088" lon="6.46914">
        <ele>816</ele>
        <time>2022-07-28T13:53:26Z</time>
      </trkpt>
      <trkpt lat="45.70881" lon="6.46915">
        <ele>815</ele>
        <time>2022-07-28T13:53:27Z</time>
      </trkpt>
      <trkpt lat="45.70882" lon="6.46915">
        <ele>815</ele>
        <time>2022-07-28T13:53:28Z</time>
      </trkpt>
      <trkpt lat="45.70882" lon="6.46915">
        <ele>815</ele>
        <time>2022-07-28T13:53:29Z</time>
      </trkpt>
      <trkpt lat="45.70884" lon="6.46915">
        <ele>815</ele>
        <time>2022-07-28T13:53:30Z</time>
      </trkpt>
      <trkpt lat="45.70885" lon="6.46915">
        <ele>815</ele>
        <time>2022-07-28T13:53:31Z</time>
      </trkpt>
      <trkpt lat="45.70886" lon="6.46915">
        <ele>815</ele>
        <time>2022-07-28T13:53:32Z</time>
      </trkpt>
      <trkpt lat="45.70887" lon="6.46915">
        <ele>815</ele>
        <time>2022-07-28T13:53:33Z</time>
      </trkpt>
      <trkpt lat="45.70888" lon="6.46916">
        <ele>815</ele>
        <time>2022-07-28T13:53:34Z</time>
      </trkpt>
      <trkpt lat="45.7089" lon="6.46916">
        <ele>815</ele>
        <time>2022-07-28T13:53:35Z</time>
      </trkpt>
      <trkpt lat="45.70891" lon="6.46916">
        <ele>815</ele>
        <time>2022-07-28T13:53:36Z</time>
      </trkpt>
      <trkpt lat="45.70892" lon="6.46916">
        <ele>814</ele>
        <time>2022-07-28T13:53:37Z</time>
      </trkpt>
      <trkpt lat="45.70893" lon="6.46915">
        <ele>814</ele>
        <time>2022-07-28T13:53:38Z</time>
      </trkpt>
      <trkpt lat="45.70894" lon="6.46915">
        <ele>814</ele>
        <time>2022-07-28T13:53:39Z</time>
      </trkpt>
      <trkpt lat="45.70894" lon="6.46915">
        <ele>814</ele>
        <time>2022-07-28T13:53:40Z</time>
      </trkpt>
      <trkpt lat="45.70895" lon="6.46915">
        <ele>814</ele>
        <time>2022-07-28T13:53:41Z</time>
      </trkpt>
      <trkpt lat="45.70896" lon="6.46915">
        <ele>814</ele>
        <time>2022-07-28T13:53:42Z</time>
      </trkpt>
      <trkpt lat="45.70897" lon="6.46914">
        <ele>814</ele>
        <time>2022-07-28T13:53:43Z</time>
      </trkpt>
      <trkpt lat="45.70898" lon="6.46914">
        <ele>814</ele>
        <time>2022-07-28T13:53:44Z</time>
      </trkpt>
      <trkpt lat="45.70898" lon="6.46914">
        <ele>814</ele>
        <time>2022-07-28T13:53:45Z</time>
      </trkpt>
      <trkpt lat="45.70899" lon="6.46913">
        <ele>814</ele>
        <time>2022-07-28T13:53:46Z</time>
      </trkpt>
      <trkpt lat="45.709" lon="6.46912">
        <ele>813</ele>
        <time>2022-07-28T13:53:47Z</time>
      </trkpt>
      <trkpt lat="45.70901" lon="6.46912">
        <ele>813</ele>
        <time>2022-07-28T13:53:48Z</time>
      </trkpt>
      <trkpt lat="45.70903" lon="6.46911">
        <ele>813</ele>
        <time>2022-07-28T13:53:49Z</time>
      </trkpt>
      <trkpt lat="45.70904" lon="6.46911">
        <ele>813</ele>
        <time>2022-07-28T13:53:50Z</time>
      </trkpt>
      <trkpt lat="45.70904" lon="6.46911">
        <ele>813</ele>
        <time>2022-07-28T13:53:51Z</time>
      </trkpt>
      <trkpt lat="45.70907" lon="6.46912">
        <ele>813</ele>
        <time>2022-07-28T13:54:04Z</time>
      </trkpt>
      <trkpt lat="45.70908" lon="6.46912">
        <ele>813</ele>
        <time>2022-07-28T13:54:05Z</time>
      </trkpt>
      <trkpt lat="45.70909" lon="6.46912">
        <ele>813</ele>
        <time>2022-07-28T13:54:06Z</time>
      </trkpt>
      <trkpt lat="45.70909" lon="6.46912">
        <ele>812</ele>
        <time>2022-07-28T13:54:07Z</time>
      </trkpt>
      <trkpt lat="45.7091" lon="6.46912">
        <ele>812</ele>
        <time>2022-07-28T13:54:08Z</time>
      </trkpt>
      <trkpt lat="45.70911" lon="6.46912">
        <ele>812</ele>
        <time>2022-07-28T13:54:09Z</time>
      </trkpt>
      <trkpt lat="45.70912" lon="6.46912">
        <ele>812</ele>
        <time>2022-07-28T13:54:10Z</time>
      </trkpt>
      <trkpt lat="45.70913" lon="6.46911">
        <ele>812</ele>
        <time>2022-07-28T13:54:11Z</time>
      </trkpt>
      <trkpt lat="45.70915" lon="6.46911">
        <ele>812</ele>
        <time>2022-07-28T13:54:12Z</time>
      </trkpt>
      <trkpt lat="45.70916" lon="6.4691">
        <ele>812</ele>
        <time>2022-07-28T13:54:13Z</time>
      </trkpt>
      <trkpt lat="45.70917" lon="6.4691">
        <ele>812</ele>
        <time>2022-07-28T13:54:14Z</time>
      </trkpt>
      <trkpt lat="45.70918" lon="6.46909">
        <ele>812</ele>
        <time>2022-07-28T13:54:15Z</time>
      </trkpt>
      <trkpt lat="45.7092" lon="6.46909">
        <ele>812</ele>
        <time>2022-07-28T13:54:16Z</time>
      </trkpt>
      <trkpt lat="45.70921" lon="6.46909">
        <ele>812</ele>
        <time>2022-07-28T13:54:17Z</time>
      </trkpt>
      <trkpt lat="45.70922" lon="6.46908">
        <ele>812</ele>
        <time>2022-07-28T13:54:18Z</time>
      </trkpt>
      <trkpt lat="45.70923" lon="6.46908">
        <ele>812</ele>
        <time>2022-07-28T13:54:19Z</time>
      </trkpt>
      <trkpt lat="45.70924" lon="6.46908">
        <ele>812</ele>
        <time>2022-07-28T13:54:20Z</time>
      </trkpt>
      <trkpt lat="45.70926" lon="6.46908">
        <ele>812</ele>
        <time>2022-07-28T13:54:21Z</time>
      </trkpt>
      <trkpt lat="45.70927" lon="6.46909">
        <ele>812</ele>
        <time>2022-07-28T13:54:22Z</time>
      </trkpt>
      <trkpt lat="45.70928" lon="6.46909">
        <ele>812</ele>
        <time>2022-07-28T13:54:23Z</time>
      </trkpt>
      <trkpt lat="45.70929" lon="6.4691">
        <ele>812</ele>
        <time>2022-07-28T13:54:24Z</time>
      </trkpt>
      <trkpt lat="45.70931" lon="6.4691">
        <ele>812</ele>
        <time>2022-07-28T13:54:25Z</time>
      </trkpt>
      <trkpt lat="45.70932" lon="6.4691">
        <ele>812</ele>
        <time>2022-07-28T13:54:26Z</time>
      </trkpt>
      <trkpt lat="45.70933" lon="6.4691">
        <ele>811</ele>
        <time>2022-07-28T13:54:27Z</time>
      </trkpt>
      <trkpt lat="45.70934" lon="6.46911">
        <ele>811</ele>
        <time>2022-07-28T13:54:28Z</time>
      </trkpt>
      <trkpt lat="45.70935" lon="6.46911">
        <ele>811</ele>
        <time>2022-07-28T13:54:29Z</time>
      </trkpt>
      <trkpt lat="45.70936" lon="6.46911">
        <ele>811</ele>
        <time>2022-07-28T13:54:30Z</time>
      </trkpt>
      <trkpt lat="45.70937" lon="6.4691">
        <ele>811</ele>
        <time>2022-07-28T13:54:31Z</time>
      </trkpt>
      <trkpt lat="45.70938" lon="6.4691">
        <ele>811</ele>
        <time>2022-07-28T13:54:32Z</time>
      </trkpt>
      <trkpt lat="45.70939" lon="6.4691">
        <ele>811</ele>
        <time>2022-07-28T13:54:33Z</time>
      </trkpt>
      <trkpt lat="45.70939" lon="6.4691">
        <ele>811</ele>
        <time>2022-07-28T13:54:34Z</time>
      </trkpt>
      <trkpt lat="45.70939" lon="6.46909">
        <ele>811</ele>
        <time>2022-07-28T13:54:35Z</time>
      </trkpt>
      <trkpt lat="45.7094" lon="6.46909">
        <ele>811</ele>
        <time>2022-07-28T13:54:36Z</time>
      </trkpt>
      <trkpt lat="45.7094" lon="6.46908">
        <ele>810</ele>
        <time>2022-07-28T13:54:37Z</time>
      </trkpt>
      <trkpt lat="45.7094" lon="6.46908">
        <ele>810</ele>
        <time>2022-07-28T13:54:38Z</time>
      </trkpt>
      <trkpt lat="45.70941" lon="6.46908">
        <ele>810</ele>
        <time>2022-07-28T13:54:39Z</time>
      </trkpt>
      <trkpt lat="45.70941" lon="6.46908">
        <ele>810</ele>
        <time>2022-07-28T13:54:40Z</time>
      </trkpt>
      <trkpt lat="45.70942" lon="6.46909">
        <ele>810</ele>
        <time>2022-07-28T13:54:41Z</time>
      </trkpt>
      <trkpt lat="45.70943" lon="6.4691">
        <ele>810</ele>
        <time>2022-07-28T13:54:42Z</time>
      </trkpt>
      <trkpt lat="45.70943" lon="6.4691">
        <ele>810</ele>
        <time>2022-07-28T13:54:43Z</time>
      </trkpt>
      <trkpt lat="45.70944" lon="6.46912">
        <ele>810</ele>
        <time>2022-07-28T13:54:44Z</time>
      </trkpt>
      <trkpt lat="45.70945" lon="6.46913">
        <ele>810</ele>
        <time>2022-07-28T13:54:45Z</time>
      </trkpt>
      <trkpt lat="45.70946" lon="6.46914">
        <ele>810</ele>
        <time>2022-07-28T13:54:46Z</time>
      </trkpt>
      <trkpt lat="45.70946" lon="6.46914">
        <ele>810</ele>
        <time>2022-07-28T13:54:47Z</time>
      </trkpt>
      <trkpt lat="45.70947" lon="6.46915">
        <ele>810</ele>
        <time>2022-07-28T13:54:48Z</time>
      </trkpt>
      <trkpt lat="45.70948" lon="6.46916">
        <ele>810</ele>
        <time>2022-07-28T13:54:49Z</time>
      </trkpt>
      <trkpt lat="45.70949" lon="6.46917">
        <ele>810</ele>
        <time>2022-07-28T13:54:50Z</time>
      </trkpt>
      <trkpt lat="45.70949" lon="6.46918">
        <ele>810</ele>
        <time>2022-07-28T13:54:51Z</time>
      </trkpt>
      <trkpt lat="45.7095" lon="6.46919">
        <ele>810</ele>
        <time>2022-07-28T13:54:52Z</time>
      </trkpt>
      <trkpt lat="45.7095" lon="6.4692">
        <ele>810</ele>
        <time>2022-07-28T13:54:53Z</time>
      </trkpt>
      <trkpt lat="45.7095" lon="6.46921">
        <ele>810</ele>
        <time>2022-07-28T13:54:54Z</time>
      </trkpt>
      <trkpt lat="45.70951" lon="6.46922">
        <ele>810</ele>
        <time>2022-07-28T13:54:55Z</time>
      </trkpt>
      <trkpt lat="45.70951" lon="6.46923">
        <ele>810</ele>
        <time>2022-07-28T13:54:56Z</time>
      </trkpt>
      <trkpt lat="45.70952" lon="6.46924">
        <ele>809</ele>
        <time>2022-07-28T13:54:57Z</time>
      </trkpt>
      <trkpt lat="45.70952" lon="6.46925">
        <ele>809</ele>
        <time>2022-07-28T13:54:58Z</time>
      </trkpt>
      <trkpt lat="45.70952" lon="6.46925">
        <ele>809</ele>
        <time>2022-07-28T13:54:59Z</time>
      </trkpt>
      <trkpt lat="45.70953" lon="6.46926">
        <ele>809</ele>
        <time>2022-07-28T13:55:00Z</time>
      </trkpt>
      <trkpt lat="45.70953" lon="6.46926">
        <ele>809</ele>
        <time>2022-07-28T13:55:01Z</time>
      </trkpt>
      <trkpt lat="45.70954" lon="6.46927">
        <ele>809</ele>
        <time>2022-07-28T13:55:02Z</time>
      </trkpt>
      <trkpt lat="45.70955" lon="6.46927">
        <ele>809</ele>
        <time>2022-07-28T13:55:03Z</time>
      </trkpt>
      <trkpt lat="45.70956" lon="6.46928">
        <ele>809</ele>
        <time>2022-07-28T13:55:04Z</time>
      </trkpt>
      <trkpt lat="45.70957" lon="6.46929">
        <ele>809</ele>
        <time>2022-07-28T13:55:05Z</time>
      </trkpt>
      <trkpt lat="45.70958" lon="6.4693">
        <ele>809</ele>
        <time>2022-07-28T13:55:06Z</time>
      </trkpt>
      <trkpt lat="45.70959" lon="6.4693">
        <ele>809</ele>
        <time>2022-07-28T13:55:07Z</time>
      </trkpt>
      <trkpt lat="45.7096" lon="6.46931">
        <ele>809</ele>
        <time>2022-07-28T13:55:08Z</time>
      </trkpt>
      <trkpt lat="45.70961" lon="6.46932">
        <ele>809</ele>
        <time>2022-07-28T13:55:09Z</time>
      </trkpt>
      <trkpt lat="45.70962" lon="6.46932">
        <ele>809</ele>
        <time>2022-07-28T13:55:10Z</time>
      </trkpt>
      <trkpt lat="45.70963" lon="6.46932">
        <ele>809</ele>
        <time>2022-07-28T13:55:11Z</time>
      </trkpt>
      <trkpt lat="45.70964" lon="6.46932">
        <ele>808</ele>
        <time>2022-07-28T13:55:12Z</time>
      </trkpt>
      <trkpt lat="45.70966" lon="6.46932">
        <ele>808</ele>
        <time>2022-07-28T13:55:13Z</time>
      </trkpt>
      <trkpt lat="45.70967" lon="6.46932">
        <ele>808</ele>
        <time>2022-07-28T13:55:14Z</time>
      </trkpt>
      <trkpt lat="45.70968" lon="6.46932">
        <ele>808</ele>
        <time>2022-07-28T13:55:15Z</time>
      </trkpt>
      <trkpt lat="45.70969" lon="6.46931">
        <ele>808</ele>
        <time>2022-07-28T13:55:16Z</time>
      </trkpt>
      <trkpt lat="45.7097" lon="6.46931">
        <ele>808</ele>
        <time>2022-07-28T13:55:17Z</time>
      </trkpt>
      <trkpt lat="45.70971" lon="6.4693">
        <ele>808</ele>
        <time>2022-07-28T13:55:18Z</time>
      </trkpt>
      <trkpt lat="45.70972" lon="6.46929">
        <ele>808</ele>
        <time>2022-07-28T13:55:19Z</time>
      </trkpt>
      <trkpt lat="45.70972" lon="6.46929">
        <ele>808</ele>
        <time>2022-07-28T13:55:20Z</time>
      </trkpt>
      <trkpt lat="45.70973" lon="6.46928">
        <ele>808</ele>
        <time>2022-07-28T13:55:21Z</time>
      </trkpt>
      <trkpt lat="45.70974" lon="6.46927">
        <ele>807</ele>
        <time>2022-07-28T13:55:22Z</time>
      </trkpt>
      <trkpt lat="45.70975" lon="6.46926">
        <ele>807</ele>
        <time>2022-07-28T13:55:23Z</time>
      </trkpt>
      <trkpt lat="45.70976" lon="6.46925">
        <ele>807</ele>
        <time>2022-07-28T13:55:24Z</time>
      </trkpt>
      <trkpt lat="45.70977" lon="6.46924">
        <ele>807</ele>
        <time>2022-07-28T13:55:25Z</time>
      </trkpt>
      <trkpt lat="45.70978" lon="6.46923">
        <ele>807</ele>
        <time>2022-07-28T13:55:26Z</time>
      </trkpt>
      <trkpt lat="45.70979" lon="6.46922">
        <ele>807</ele>
        <time>2022-07-28T13:55:27Z</time>
      </trkpt>
      <trkpt lat="45.7098" lon="6.4692">
        <ele>807</ele>
        <time>2022-07-28T13:55:28Z</time>
      </trkpt>
      <trkpt lat="45.70981" lon="6.46919">
        <ele>807</ele>
        <time>2022-07-28T13:55:29Z</time>
      </trkpt>
      <trkpt lat="45.70981" lon="6.46918">
        <ele>807</ele>
        <time>2022-07-28T13:55:30Z</time>
      </trkpt>
      <trkpt lat="45.70982" lon="6.46917">
        <ele>807</ele>
        <time>2022-07-28T13:55:31Z</time>
      </trkpt>
      <trkpt lat="45.70983" lon="6.46916">
        <ele>806</ele>
        <time>2022-07-28T13:55:32Z</time>
      </trkpt>
      <trkpt lat="45.70983" lon="6.46915">
        <ele>806</ele>
        <time>2022-07-28T13:55:33Z</time>
      </trkpt>
      <trkpt lat="45.70984" lon="6.46913">
        <ele>806</ele>
        <time>2022-07-28T13:55:34Z</time>
      </trkpt>
      <trkpt lat="45.70985" lon="6.46912">
        <ele>806</ele>
        <time>2022-07-28T13:55:35Z</time>
      </trkpt>
      <trkpt lat="45.70986" lon="6.46911">
        <ele>806</ele>
        <time>2022-07-28T13:55:36Z</time>
      </trkpt>
      <trkpt lat="45.70986" lon="6.4691">
        <ele>806</ele>
        <time>2022-07-28T13:55:37Z</time>
      </trkpt>
      <trkpt lat="45.70987" lon="6.46909">
        <ele>806</ele>
        <time>2022-07-28T13:55:38Z</time>
      </trkpt>
      <trkpt lat="45.70988" lon="6.46907">
        <ele>806</ele>
        <time>2022-07-28T13:55:39Z</time>
      </trkpt>
      <trkpt lat="45.70989" lon="6.46906">
        <ele>806</ele>
        <time>2022-07-28T13:55:40Z</time>
      </trkpt>
      <trkpt lat="45.70989" lon="6.46905">
        <ele>806</ele>
        <time>2022-07-28T13:55:41Z</time>
      </trkpt>
      <trkpt lat="45.7099" lon="6.46904">
        <ele>805</ele>
        <time>2022-07-28T13:55:42Z</time>
      </trkpt>
      <trkpt lat="45.70991" lon="6.46903">
        <ele>805</ele>
        <time>2022-07-28T13:55:43Z</time>
      </trkpt>
      <trkpt lat="45.70992" lon="6.46902">
        <ele>805</ele>
        <time>2022-07-28T13:55:44Z</time>
      </trkpt>
      <trkpt lat="45.70993" lon="6.46901">
        <ele>805</ele>
        <time>2022-07-28T13:55:45Z</time>
      </trkpt>
      <trkpt lat="45.70993" lon="6.469">
        <ele>805</ele>
        <time>2022-07-28T13:55:46Z</time>
      </trkpt>
      <trkpt lat="45.70994" lon="6.46899">
        <ele>804</ele>
        <time>2022-07-28T13:55:47Z</time>
      </trkpt>
      <trkpt lat="45.70995" lon="6.46897">
        <ele>804</ele>
        <time>2022-07-28T13:55:48Z</time>
      </trkpt>
      <trkpt lat="45.70996" lon="6.46896">
        <ele>804</ele>
        <time>2022-07-28T13:55:49Z</time>
      </trkpt>
      <trkpt lat="45.70996" lon="6.46895">
        <ele>804</ele>
        <time>2022-07-28T13:55:50Z</time>
      </trkpt>
      <trkpt lat="45.70997" lon="6.46894">
        <ele>804</ele>
        <time>2022-07-28T13:55:51Z</time>
      </trkpt>
      <trkpt lat="45.70998" lon="6.46893">
        <ele>804</ele>
        <time>2022-07-28T13:55:52Z</time>
      </trkpt>
      <trkpt lat="45.70999" lon="6.46892">
        <ele>804</ele>
        <time>2022-07-28T13:55:53Z</time>
      </trkpt>
      <trkpt lat="45.70999" lon="6.46891">
        <ele>804</ele>
        <time>2022-07-28T13:55:54Z</time>
      </trkpt>
      <trkpt lat="45.71" lon="6.4689">
        <ele>804</ele>
        <time>2022-07-28T13:55:55Z</time>
      </trkpt>
      <trkpt lat="45.71001" lon="6.46889">
        <ele>804</ele>
        <time>2022-07-28T13:55:56Z</time>
      </trkpt>
      <trkpt lat="45.71002" lon="6.46887">
        <ele>804</ele>
        <time>2022-07-28T13:55:57Z</time>
      </trkpt>
      <trkpt lat="45.71003" lon="6.46886">
        <ele>804</ele>
        <time>2022-07-28T13:55:58Z</time>
      </trkpt>
      <trkpt lat="45.71004" lon="6.46885">
        <ele>804</ele>
        <time>2022-07-28T13:55:59Z</time>
      </trkpt>
      <trkpt lat="45.71005" lon="6.46884">
        <ele>804</ele>
        <time>2022-07-28T13:56:00Z</time>
      </trkpt>
      <trkpt lat="45.71006" lon="6.46883">
        <ele>804</ele>
        <time>2022-07-28T13:56:01Z</time>
      </trkpt>
      <trkpt lat="45.71007" lon="6.46882">
        <ele>803</ele>
        <time>2022-07-28T13:56:02Z</time>
      </trkpt>
      <trkpt lat="45.71008" lon="6.46881">
        <ele>803</ele>
        <time>2022-07-28T13:56:03Z</time>
      </trkpt>
      <trkpt lat="45.71009" lon="6.4688">
        <ele>802</ele>
        <time>2022-07-28T13:56:04Z</time>
      </trkpt>
      <trkpt lat="45.7101" lon="6.46879">
        <ele>802</ele>
        <time>2022-07-28T13:56:05Z</time>
      </trkpt>
      <trkpt lat="45.71011" lon="6.46878">
        <ele>802</ele>
        <time>2022-07-28T13:56:06Z</time>
      </trkpt>
      <trkpt lat="45.71012" lon="6.46877">
        <ele>802</ele>
        <time>2022-07-28T13:56:07Z</time>
      </trkpt>
      <trkpt lat="45.71013" lon="6.46876">
        <ele>802</ele>
        <time>2022-07-28T13:56:08Z</time>
      </trkpt>
      <trkpt lat="45.71014" lon="6.46876">
        <ele>802</ele>
        <time>2022-07-28T13:56:09Z</time>
      </trkpt>
      <trkpt lat="45.71015" lon="6.46875">
        <ele>802</ele>
        <time>2022-07-28T13:56:10Z</time>
      </trkpt>
      <trkpt lat="45.71016" lon="6.46874">
        <ele>802</ele>
        <time>2022-07-28T13:56:11Z</time>
      </trkpt>
      <trkpt lat="45.71017" lon="6.46873">
        <ele>801</ele>
        <time>2022-07-28T13:56:12Z</time>
      </trkpt>
      <trkpt lat="45.71018" lon="6.46872">
        <ele>801</ele>
        <time>2022-07-28T13:56:13Z</time>
      </trkpt>
      <trkpt lat="45.7102" lon="6.46872">
        <ele>801</ele>
        <time>2022-07-28T13:56:14Z</time>
      </trkpt>
      <trkpt lat="45.71021" lon="6.46871">
        <ele>801</ele>
        <time>2022-07-28T13:56:15Z</time>
      </trkpt>
      <trkpt lat="45.71022" lon="6.4687">
        <ele>801</ele>
        <time>2022-07-28T13:56:16Z</time>
      </trkpt>
      <trkpt lat="45.71023" lon="6.46869">
        <ele>801</ele>
        <time>2022-07-28T13:56:17Z</time>
      </trkpt>
      <trkpt lat="45.71024" lon="6.46868">
        <ele>801</ele>
        <time>2022-07-28T13:56:18Z</time>
      </trkpt>
      <trkpt lat="45.71025" lon="6.46867">
        <ele>801</ele>
        <time>2022-07-28T13:56:19Z</time>
      </trkpt>
      <trkpt lat="45.71026" lon="6.46866">
        <ele>801</ele>
        <time>2022-07-28T13:56:20Z</time>
      </trkpt>
      <trkpt lat="45.71027" lon="6.46865">
        <ele>801</ele>
        <time>2022-07-28T13:56:21Z</time>
      </trkpt>
      <trkpt lat="45.71028" lon="6.46864">
        <ele>801</ele>
        <time>2022-07-28T13:56:22Z</time>
      </trkpt>
      <trkpt lat="45.71029" lon="6.46864">
        <ele>801</ele>
        <time>2022-07-28T13:56:23Z</time>
      </trkpt>
      <trkpt lat="45.7103" lon="6.46863">
        <ele>801</ele>
        <time>2022-07-28T13:56:24Z</time>
      </trkpt>
      <trkpt lat="45.71031" lon="6.46862">
        <ele>801</ele>
        <time>2022-07-28T13:56:25Z</time>
      </trkpt>
      <trkpt lat="45.71032" lon="6.46862">
        <ele>801</ele>
        <time>2022-07-28T13:56:26Z</time>
      </trkpt>
      <trkpt lat="45.71033" lon="6.46861">
        <ele>800</ele>
        <time>2022-07-28T13:56:27Z</time>
      </trkpt>
      <trkpt lat="45.71034" lon="6.4686">
        <ele>800</ele>
        <time>2022-07-28T13:56:28Z</time>
      </trkpt>
      <trkpt lat="45.71035" lon="6.46859">
        <ele>800</ele>
        <time>2022-07-28T13:56:29Z</time>
      </trkpt>
      <trkpt lat="45.71036" lon="6.46859">
        <ele>800</ele>
        <time>2022-07-28T13:56:30Z</time>
      </trkpt>
      <trkpt lat="45.71037" lon="6.46858">
        <ele>800</ele>
        <time>2022-07-28T13:56:31Z</time>
      </trkpt>
      <trkpt lat="45.71038" lon="6.46857">
        <ele>800</ele>
        <time>2022-07-28T13:56:32Z</time>
      </trkpt>
      <trkpt lat="45.71039" lon="6.46856">
        <ele>800</ele>
        <time>2022-07-28T13:56:33Z</time>
      </trkpt>
      <trkpt lat="45.7104" lon="6.46856">
        <ele>800</ele>
        <time>2022-07-28T13:56:34Z</time>
      </trkpt>
      <trkpt lat="45.71041" lon="6.46855">
        <ele>800</ele>
        <time>2022-07-28T13:56:35Z</time>
      </trkpt>
      <trkpt lat="45.71042" lon="6.46854">
        <ele>800</ele>
        <time>2022-07-28T13:56:36Z</time>
      </trkpt>
      <trkpt lat="45.71043" lon="6.46853">
        <ele>799</ele>
        <time>2022-07-28T13:56:37Z</time>
      </trkpt>
      <trkpt lat="45.71044" lon="6.46852">
        <ele>799</ele>
        <time>2022-07-28T13:56:38Z</time>
      </trkpt>
      <trkpt lat="45.71045" lon="6.4685">
        <ele>799</ele>
        <time>2022-07-28T13:56:39Z</time>
      </trkpt>
      <trkpt lat="45.71046" lon="6.46849">
        <ele>799</ele>
        <time>2022-07-28T13:56:40Z</time>
      </trkpt>
      <trkpt lat="45.71047" lon="6.46848">
        <ele>799</ele>
        <time>2022-07-28T13:56:41Z</time>
      </trkpt>
      <trkpt lat="45.71047" lon="6.46847">
        <ele>798</ele>
        <time>2022-07-28T13:56:42Z</time>
      </trkpt>
      <trkpt lat="45.71048" lon="6.46846">
        <ele>798</ele>
        <time>2022-07-28T13:56:43Z</time>
      </trkpt>
      <trkpt lat="45.71049" lon="6.46844">
        <ele>798</ele>
        <time>2022-07-28T13:56:44Z</time>
      </trkpt>
      <trkpt lat="45.7105" lon="6.46843">
        <ele>798</ele>
        <time>2022-07-28T13:56:45Z</time>
      </trkpt>
      <trkpt lat="45.7105" lon="6.46841">
        <ele>798</ele>
        <time>2022-07-28T13:56:46Z</time>
      </trkpt>
      <trkpt lat="45.71051" lon="6.4684">
        <ele>798</ele>
        <time>2022-07-28T13:56:47Z</time>
      </trkpt>
      <trkpt lat="45.71052" lon="6.46838">
        <ele>798</ele>
        <time>2022-07-28T13:56:48Z</time>
      </trkpt>
      <trkpt lat="45.71052" lon="6.46837">
        <ele>798</ele>
        <time>2022-07-28T13:56:49Z</time>
      </trkpt>
      <trkpt lat="45.71053" lon="6.46835">
        <ele>798</ele>
        <time>2022-07-28T13:56:50Z</time>
      </trkpt>
      <trkpt lat="45.71054" lon="6.46834">
        <ele>798</ele>
        <time>2022-07-28T13:56:51Z</time>
      </trkpt>
      <trkpt lat="45.71054" lon="6.46832">
        <ele>797</ele>
        <time>2022-07-28T13:56:52Z</time>
      </trkpt>
      <trkpt lat="45.71055" lon="6.46831">
        <ele>797</ele>
        <time>2022-07-28T13:56:53Z</time>
      </trkpt>
      <trkpt lat="45.71056" lon="6.46829">
        <ele>797</ele>
        <time>2022-07-28T13:56:54Z</time>
      </trkpt>
      <trkpt lat="45.71057" lon="6.46827">
        <ele>797</ele>
        <time>2022-07-28T13:56:55Z</time>
      </trkpt>
      <trkpt lat="45.71057" lon="6.46826">
        <ele>797</ele>
        <time>2022-07-28T13:56:56Z</time>
      </trkpt>
      <trkpt lat="45.71058" lon="6.46824">
        <ele>797</ele>
        <time>2022-07-28T13:56:57Z</time>
      </trkpt>
      <trkpt lat="45.71058" lon="6.46823">
        <ele>797</ele>
        <time>2022-07-28T13:56:58Z</time>
      </trkpt>
      <trkpt lat="45.71059" lon="6.46822">
        <ele>797</ele>
        <time>2022-07-28T13:56:59Z</time>
      </trkpt>
      <trkpt lat="45.7106" lon="6.4682">
        <ele>797</ele>
        <time>2022-07-28T13:57:00Z</time>
      </trkpt>
      <trkpt lat="45.7106" lon="6.46819">
        <ele>797</ele>
        <time>2022-07-28T13:57:01Z</time>
      </trkpt>
      <trkpt lat="45.71061" lon="6.46817">
        <ele>796</ele>
        <time>2022-07-28T13:57:02Z</time>
      </trkpt>
      <trkpt lat="45.71062" lon="6.46816">
        <ele>796</ele>
        <time>2022-07-28T13:57:03Z</time>
      </trkpt>
      <trkpt lat="45.71062" lon="6.46815">
        <ele>796</ele>
        <time>2022-07-28T13:57:04Z</time>
      </trkpt>
      <trkpt lat="45.71063" lon="6.46813">
        <ele>796</ele>
        <time>2022-07-28T13:57:05Z</time>
      </trkpt>
      <trkpt lat="45.71064" lon="6.46812">
        <ele>796</ele>
        <time>2022-07-28T13:57:06Z</time>
      </trkpt>
      <trkpt lat="45.71064" lon="6.46811">
        <ele>795</ele>
        <time>2022-07-28T13:57:07Z</time>
      </trkpt>
      <trkpt lat="45.71065" lon="6.4681">
        <ele>795</ele>
        <time>2022-07-28T13:57:08Z</time>
      </trkpt>
      <trkpt lat="45.71066" lon="6.46808">
        <ele>795</ele>
        <time>2022-07-28T13:57:09Z</time>
      </trkpt>
      <trkpt lat="45.71067" lon="6.46807">
        <ele>795</ele>
        <time>2022-07-28T13:57:10Z</time>
      </trkpt>
      <trkpt lat="45.71067" lon="6.46806">
        <ele>795</ele>
        <time>2022-07-28T13:57:11Z</time>
      </trkpt>
      <trkpt lat="45.71068" lon="6.46805">
        <ele>795</ele>
        <time>2022-07-28T13:57:12Z</time>
      </trkpt>
      <trkpt lat="45.71069" lon="6.46804">
        <ele>795</ele>
        <time>2022-07-28T13:57:13Z</time>
      </trkpt>
      <trkpt lat="45.7107" lon="6.46802">
        <ele>795</ele>
        <time>2022-07-28T13:57:14Z</time>
      </trkpt>
      <trkpt lat="45.7107" lon="6.46801">
        <ele>795</ele>
        <time>2022-07-28T13:57:15Z</time>
      </trkpt>
      <trkpt lat="45.71071" lon="6.468">
        <ele>795</ele>
        <time>2022-07-28T13:57:16Z</time>
      </trkpt>
      <trkpt lat="45.71072" lon="6.46798">
        <ele>794</ele>
        <time>2022-07-28T13:57:17Z</time>
      </trkpt>
      <trkpt lat="45.71072" lon="6.46797">
        <ele>794</ele>
        <time>2022-07-28T13:57:18Z</time>
      </trkpt>
      <trkpt lat="45.71073" lon="6.46796">
        <ele>794</ele>
        <time>2022-07-28T13:57:19Z</time>
      </trkpt>
      <trkpt lat="45.71074" lon="6.46794">
        <ele>794</ele>
        <time>2022-07-28T13:57:20Z</time>
      </trkpt>
      <trkpt lat="45.71075" lon="6.46793">
        <ele>794</ele>
        <time>2022-07-28T13:57:21Z</time>
      </trkpt>
      <trkpt lat="45.71075" lon="6.46792">
        <ele>794</ele>
        <time>2022-07-28T13:57:22Z</time>
      </trkpt>
      <trkpt lat="45.71076" lon="6.46791">
        <ele>794</ele>
        <time>2022-07-28T13:57:23Z</time>
      </trkpt>
      <trkpt lat="45.71077" lon="6.4679">
        <ele>794</ele>
        <time>2022-07-28T13:57:24Z</time>
      </trkpt>
      <trkpt lat="45.71078" lon="6.46789">
        <ele>794</ele>
        <time>2022-07-28T13:57:25Z</time>
      </trkpt>
      <trkpt lat="45.71079" lon="6.46787">
        <ele>794</ele>
        <time>2022-07-28T13:57:26Z</time>
      </trkpt>
      <trkpt lat="45.7108" lon="6.46786">
        <ele>793</ele>
        <time>2022-07-28T13:57:27Z</time>
      </trkpt>
      <trkpt lat="45.7108" lon="6.46785">
        <ele>793</ele>
        <time>2022-07-28T13:57:28Z</time>
      </trkpt>
      <trkpt lat="45.71081" lon="6.46784">
        <ele>793</ele>
        <time>2022-07-28T13:57:29Z</time>
      </trkpt>
      <trkpt lat="45.71082" lon="6.46783">
        <ele>793</ele>
        <time>2022-07-28T13:57:30Z</time>
      </trkpt>
      <trkpt lat="45.71083" lon="6.46782">
        <ele>793</ele>
        <time>2022-07-28T13:57:31Z</time>
      </trkpt>
      <trkpt lat="45.71083" lon="6.46781">
        <ele>793</ele>
        <time>2022-07-28T13:57:32Z</time>
      </trkpt>
      <trkpt lat="45.71084" lon="6.4678">
        <ele>793</ele>
        <time>2022-07-28T13:57:33Z</time>
      </trkpt>
      <trkpt lat="45.71085" lon="6.46779">
        <ele>793</ele>
        <time>2022-07-28T13:57:34Z</time>
      </trkpt>
      <trkpt lat="45.71086" lon="6.46778">
        <ele>793</ele>
        <time>2022-07-28T13:57:35Z</time>
      </trkpt>
      <trkpt lat="45.71086" lon="6.46777">
        <ele>793</ele>
        <time>2022-07-28T13:57:36Z</time>
      </trkpt>
      <trkpt lat="45.71087" lon="6.46776">
        <ele>792</ele>
        <time>2022-07-28T13:57:37Z</time>
      </trkpt>
      <trkpt lat="45.71088" lon="6.46774">
        <ele>792</ele>
        <time>2022-07-28T13:57:38Z</time>
      </trkpt>
      <trkpt lat="45.71089" lon="6.46773">
        <ele>792</ele>
        <time>2022-07-28T13:57:39Z</time>
      </trkpt>
      <trkpt lat="45.71089" lon="6.46771">
        <ele>792</ele>
        <time>2022-07-28T13:57:40Z</time>
      </trkpt>
      <trkpt lat="45.7109" lon="6.4677">
        <ele>792</ele>
        <time>2022-07-28T13:57:41Z</time>
      </trkpt>
      <trkpt lat="45.71091" lon="6.46768">
        <ele>792</ele>
        <time>2022-07-28T13:57:42Z</time>
      </trkpt>
      <trkpt lat="45.71091" lon="6.46767">
        <ele>792</ele>
        <time>2022-07-28T13:57:43Z</time>
      </trkpt>
      <trkpt lat="45.71092" lon="6.46765">
        <ele>792</ele>
        <time>2022-07-28T13:57:44Z</time>
      </trkpt>
      <trkpt lat="45.71092" lon="6.46764">
        <ele>792</ele>
        <time>2022-07-28T13:57:45Z</time>
      </trkpt>
      <trkpt lat="45.71093" lon="6.46763">
        <ele>792</ele>
        <time>2022-07-28T13:57:46Z</time>
      </trkpt>
      <trkpt lat="45.71094" lon="6.46761">
        <ele>791</ele>
        <time>2022-07-28T13:57:47Z</time>
      </trkpt>
      <trkpt lat="45.71094" lon="6.4676">
        <ele>791</ele>
        <time>2022-07-28T13:57:48Z</time>
      </trkpt>
      <trkpt lat="45.71095" lon="6.46759">
        <ele>791</ele>
        <time>2022-07-28T13:57:49Z</time>
      </trkpt>
      <trkpt lat="45.71096" lon="6.46757">
        <ele>791</ele>
        <time>2022-07-28T13:57:50Z</time>
      </trkpt>
      <trkpt lat="45.71096" lon="6.46756">
        <ele>791</ele>
        <time>2022-07-28T13:57:51Z</time>
      </trkpt>
      <trkpt lat="45.71097" lon="6.46755">
        <ele>791</ele>
        <time>2022-07-28T13:57:52Z</time>
      </trkpt>
      <trkpt lat="45.71097" lon="6.46753">
        <ele>791</ele>
        <time>2022-07-28T13:57:53Z</time>
      </trkpt>
      <trkpt lat="45.71098" lon="6.46752">
        <ele>791</ele>
        <time>2022-07-28T13:57:54Z</time>
      </trkpt>
      <trkpt lat="45.71098" lon="6.46751">
        <ele>791</ele>
        <time>2022-07-28T13:57:55Z</time>
      </trkpt>
      <trkpt lat="45.71099" lon="6.46749">
        <ele>791</ele>
        <time>2022-07-28T13:57:56Z</time>
      </trkpt>
      <trkpt lat="45.71099" lon="6.46748">
        <ele>790</ele>
        <time>2022-07-28T13:57:57Z</time>
      </trkpt>
      <trkpt lat="45.711" lon="6.46746">
        <ele>790</ele>
        <time>2022-07-28T13:57:58Z</time>
      </trkpt>
      <trkpt lat="45.711" lon="6.46745">
        <ele>790</ele>
        <time>2022-07-28T13:57:59Z</time>
      </trkpt>
      <trkpt lat="45.71101" lon="6.46743">
        <ele>790</ele>
        <time>2022-07-28T13:58:00Z</time>
      </trkpt>
      <trkpt lat="45.71101" lon="6.46742">
        <ele>790</ele>
        <time>2022-07-28T13:58:01Z</time>
      </trkpt>
      <trkpt lat="45.71102" lon="6.4674">
        <ele>790</ele>
        <time>2022-07-28T13:58:02Z</time>
      </trkpt>
      <trkpt lat="45.71103" lon="6.46739">
        <ele>790</ele>
        <time>2022-07-28T13:58:03Z</time>
      </trkpt>
      <trkpt lat="45.71103" lon="6.46737">
        <ele>790</ele>
        <time>2022-07-28T13:58:04Z</time>
      </trkpt>
      <trkpt lat="45.71104" lon="6.46736">
        <ele>790</ele>
        <time>2022-07-28T13:58:05Z</time>
      </trkpt>
      <trkpt lat="45.71105" lon="6.46735">
        <ele>790</ele>
        <time>2022-07-28T13:58:06Z</time>
      </trkpt>
      <trkpt lat="45.71106" lon="6.46734">
        <ele>790</ele>
        <time>2022-07-28T13:58:07Z</time>
      </trkpt>
      <trkpt lat="45.71107" lon="6.46733">
        <ele>790</ele>
        <time>2022-07-28T13:58:08Z</time>
      </trkpt>
      <trkpt lat="45.71108" lon="6.46732">
        <ele>790</ele>
        <time>2022-07-28T13:58:09Z</time>
      </trkpt>
      <trkpt lat="45.71109" lon="6.46731">
        <ele>790</ele>
        <time>2022-07-28T13:58:10Z</time>
      </trkpt>
      <trkpt lat="45.7111" lon="6.4673">
        <ele>790</ele>
        <time>2022-07-28T13:58:11Z</time>
      </trkpt>
      <trkpt lat="45.71111" lon="6.46729">
        <ele>790</ele>
        <time>2022-07-28T13:58:12Z</time>
      </trkpt>
      <trkpt lat="45.71112" lon="6.46728">
        <ele>790</ele>
        <time>2022-07-28T13:58:13Z</time>
      </trkpt>
      <trkpt lat="45.71112" lon="6.46728">
        <ele>790</ele>
        <time>2022-07-28T13:58:14Z</time>
      </trkpt>
      <trkpt lat="45.71113" lon="6.46727">
        <ele>790</ele>
        <time>2022-07-28T13:58:15Z</time>
      </trkpt>
      <trkpt lat="45.71114" lon="6.46726">
        <ele>790</ele>
        <time>2022-07-28T13:58:16Z</time>
      </trkpt>
      <trkpt lat="45.71115" lon="6.46725">
        <ele>790</ele>
        <time>2022-07-28T13:58:17Z</time>
      </trkpt>
      <trkpt lat="45.71116" lon="6.46725">
        <ele>790</ele>
        <time>2022-07-28T13:58:18Z</time>
      </trkpt>
      <trkpt lat="45.71117" lon="6.46724">
        <ele>790</ele>
        <time>2022-07-28T13:58:19Z</time>
      </trkpt>
      <trkpt lat="45.71117" lon="6.46723">
        <ele>790</ele>
        <time>2022-07-28T13:58:20Z</time>
      </trkpt>
      <trkpt lat="45.71118" lon="6.46721">
        <ele>790</ele>
        <time>2022-07-28T13:58:21Z</time>
      </trkpt>
      <trkpt lat="45.71118" lon="6.4672">
        <ele>790</ele>
        <time>2022-07-28T13:58:22Z</time>
      </trkpt>
      <trkpt lat="45.71119" lon="6.46719">
        <ele>790</ele>
        <time>2022-07-28T13:58:23Z</time>
      </trkpt>
      <trkpt lat="45.7112" lon="6.46718">
        <ele>790</ele>
        <time>2022-07-28T13:58:24Z</time>
      </trkpt>
      <trkpt lat="45.7112" lon="6.46716">
        <ele>790</ele>
        <time>2022-07-28T13:58:25Z</time>
      </trkpt>
      <trkpt lat="45.71121" lon="6.46715">
        <ele>790</ele>
        <time>2022-07-28T13:58:26Z</time>
      </trkpt>
      <trkpt lat="45.71122" lon="6.46714">
        <ele>789</ele>
        <time>2022-07-28T13:58:27Z</time>
      </trkpt>
      <trkpt lat="45.71122" lon="6.46712">
        <ele>789</ele>
        <time>2022-07-28T13:58:28Z</time>
      </trkpt>
      <trkpt lat="45.71123" lon="6.46711">
        <ele>789</ele>
        <time>2022-07-28T13:58:29Z</time>
      </trkpt>
      <trkpt lat="45.71123" lon="6.4671">
        <ele>789</ele>
        <time>2022-07-28T13:58:30Z</time>
      </trkpt>
      <trkpt lat="45.71124" lon="6.46708">
        <ele>789</ele>
        <time>2022-07-28T13:58:31Z</time>
      </trkpt>
      <trkpt lat="45.71124" lon="6.46707">
        <ele>788</ele>
        <time>2022-07-28T13:58:32Z</time>
      </trkpt>
      <trkpt lat="45.71125" lon="6.46705">
        <ele>788</ele>
        <time>2022-07-28T13:58:33Z</time>
      </trkpt>
      <trkpt lat="45.71125" lon="6.46704">
        <ele>788</ele>
        <time>2022-07-28T13:58:34Z</time>
      </trkpt>
      <trkpt lat="45.71125" lon="6.46703">
        <ele>788</ele>
        <time>2022-07-28T13:58:35Z</time>
      </trkpt>
      <trkpt lat="45.71125" lon="6.46701">
        <ele>788</ele>
        <time>2022-07-28T13:58:36Z</time>
      </trkpt>
      <trkpt lat="45.71126" lon="6.467">
        <ele>787</ele>
        <time>2022-07-28T13:58:37Z</time>
      </trkpt>
      <trkpt lat="45.71127" lon="6.46696">
        <ele>785</ele>
        <time>2022-07-28T14:00:12Z</time>
      </trkpt>
      <trkpt lat="45.71127" lon="6.46694">
        <ele>785</ele>
        <time>2022-07-28T14:00:13Z</time>
      </trkpt>
      <trkpt lat="45.71128" lon="6.46692">
        <ele>785</ele>
        <time>2022-07-28T14:00:14Z</time>
      </trkpt>
      <trkpt lat="45.71128" lon="6.4669">
        <ele>785</ele>
        <time>2022-07-28T14:00:15Z</time>
      </trkpt>
      <trkpt lat="45.71129" lon="6.46689">
        <ele>785</ele>
        <time>2022-07-28T14:00:16Z</time>
      </trkpt>
      <trkpt lat="45.7113" lon="6.46685">
        <ele>784</ele>
        <time>2022-07-28T14:03:32Z</time>
      </trkpt>
      <trkpt lat="45.71131" lon="6.46684">
        <ele>784</ele>
        <time>2022-07-28T14:03:33Z</time>
      </trkpt>
      <trkpt lat="45.71131" lon="6.46682">
        <ele>784</ele>
        <time>2022-07-28T14:03:34Z</time>
      </trkpt>
      <trkpt lat="45.71132" lon="6.46681">
        <ele>784</ele>
        <time>2022-07-28T14:03:35Z</time>
      </trkpt>
      <trkpt lat="45.71132" lon="6.4668">
        <ele>784</ele>
        <time>2022-07-28T14:03:36Z</time>
      </trkpt>
      <trkpt lat="45.71133" lon="6.46678">
        <ele>782</ele>
        <time>2022-07-28T14:03:44Z</time>
      </trkpt>
      <trkpt lat="45.71133" lon="6.46676">
        <ele>782</ele>
        <time>2022-07-28T14:03:45Z</time>
      </trkpt>
      <trkpt lat="45.71134" lon="6.46675">
        <ele>782</ele>
        <time>2022-07-28T14:03:46Z</time>
      </trkpt>
      <trkpt lat="45.71134" lon="6.46675">
        <ele>781</ele>
        <time>2022-07-28T14:03:47Z</time>
      </trkpt>
      <trkpt lat="45.71135" lon="6.46674">
        <ele>781</ele>
        <time>2022-07-28T14:03:48Z</time>
      </trkpt>
      <trkpt lat="45.71135" lon="6.46674">
        <ele>781</ele>
        <time>2022-07-28T14:03:49Z</time>
      </trkpt>
      <trkpt lat="45.71136" lon="6.46673">
        <ele>781</ele>
        <time>2022-07-28T14:03:50Z</time>
      </trkpt>
      <trkpt lat="45.71137" lon="6.46674">
        <ele>781</ele>
        <time>2022-07-28T14:03:51Z</time>
      </trkpt>
      <trkpt lat="45.71138" lon="6.46674">
        <ele>780</ele>
        <time>2022-07-28T14:03:52Z</time>
      </trkpt>
      <trkpt lat="45.71138" lon="6.46675">
        <ele>780</ele>
        <time>2022-07-28T14:03:53Z</time>
      </trkpt>
      <trkpt lat="45.71139" lon="6.46676">
        <ele>780</ele>
        <time>2022-07-28T14:03:54Z</time>
      </trkpt>
      <trkpt lat="45.7114" lon="6.46677">
        <ele>780</ele>
        <time>2022-07-28T14:03:55Z</time>
      </trkpt>
      <trkpt lat="45.71141" lon="6.46678">
        <ele>780</ele>
        <time>2022-07-28T14:03:56Z</time>
      </trkpt>
      <trkpt lat="45.71141" lon="6.46679">
        <ele>779</ele>
        <time>2022-07-28T14:03:57Z</time>
      </trkpt>
      <trkpt lat="45.71142" lon="6.46681">
        <ele>779</ele>
        <time>2022-07-28T14:03:58Z</time>
      </trkpt>
      <trkpt lat="45.71143" lon="6.46682">
        <ele>779</ele>
        <time>2022-07-28T14:03:59Z</time>
      </trkpt>
      <trkpt lat="45.71143" lon="6.46684">
        <ele>779</ele>
        <time>2022-07-28T14:04:00Z</time>
      </trkpt>
      <trkpt lat="45.71144" lon="6.46685">
        <ele>779</ele>
        <time>2022-07-28T14:04:01Z</time>
      </trkpt>
      <trkpt lat="45.71145" lon="6.46687">
        <ele>778</ele>
        <time>2022-07-28T14:04:02Z</time>
      </trkpt>
      <trkpt lat="45.71145" lon="6.46688">
        <ele>778</ele>
        <time>2022-07-28T14:04:03Z</time>
      </trkpt>
      <trkpt lat="45.71146" lon="6.4669">
        <ele>777</ele>
        <time>2022-07-28T14:04:04Z</time>
      </trkpt>
      <trkpt lat="45.71146" lon="6.46691">
        <ele>777</ele>
        <time>2022-07-28T14:04:05Z</time>
      </trkpt>
      <trkpt lat="45.71147" lon="6.46692">
        <ele>777</ele>
        <time>2022-07-28T14:04:06Z</time>
      </trkpt>
      <trkpt lat="45.71147" lon="6.46694">
        <ele>776</ele>
        <time>2022-07-28T14:04:07Z</time>
      </trkpt>
      <trkpt lat="45.71148" lon="6.46695">
        <ele>776</ele>
        <time>2022-07-28T14:04:08Z</time>
      </trkpt>
      <trkpt lat="45.71148" lon="6.46697">
        <ele>776</ele>
        <time>2022-07-28T14:04:09Z</time>
      </trkpt>
      <trkpt lat="45.71149" lon="6.46698">
        <ele>776</ele>
        <time>2022-07-28T14:04:10Z</time>
      </trkpt>
      <trkpt lat="45.7115" lon="6.46699">
        <ele>776</ele>
        <time>2022-07-28T14:04:11Z</time>
      </trkpt>
      <trkpt lat="45.71151" lon="6.46701">
        <ele>775</ele>
        <time>2022-07-28T14:04:12Z</time>
      </trkpt>
      <trkpt lat="45.71151" lon="6.46702">
        <ele>774</ele>
        <time>2022-07-28T14:04:13Z</time>
      </trkpt>
      <trkpt lat="45.71152" lon="6.46703">
        <ele>774</ele>
        <time>2022-07-28T14:04:14Z</time>
      </trkpt>
      <trkpt lat="45.71152" lon="6.46704">
        <ele>773</ele>
        <time>2022-07-28T14:04:15Z</time>
      </trkpt>
      <trkpt lat="45.71153" lon="6.46705">
        <ele>773</ele>
        <time>2022-07-28T14:04:16Z</time>
      </trkpt>
      <trkpt lat="45.71154" lon="6.46706">
        <ele>772</ele>
        <time>2022-07-28T14:04:17Z</time>
      </trkpt>
      <trkpt lat="45.71154" lon="6.46707">
        <ele>772</ele>
        <time>2022-07-28T14:04:18Z</time>
      </trkpt>
      <trkpt lat="45.71155" lon="6.46708">
        <ele>772</ele>
        <time>2022-07-28T14:04:19Z</time>
      </trkpt>
      <trkpt lat="45.71156" lon="6.46709">
        <ele>772</ele>
        <time>2022-07-28T14:04:20Z</time>
      </trkpt>
      <trkpt lat="45.71156" lon="6.4671">
        <ele>772</ele>
        <time>2022-07-28T14:04:21Z</time>
      </trkpt>
      <trkpt lat="45.71156" lon="6.46711">
        <ele>771</ele>
        <time>2022-07-28T14:04:22Z</time>
      </trkpt>
      <trkpt lat="45.71157" lon="6.46711">
        <ele>771</ele>
        <time>2022-07-28T14:04:23Z</time>
      </trkpt>
      <trkpt lat="45.71157" lon="6.46712">
        <ele>771</ele>
        <time>2022-07-28T14:04:24Z</time>
      </trkpt>
      <trkpt lat="45.71157" lon="6.46712">
        <ele>771</ele>
        <time>2022-07-28T14:04:25Z</time>
      </trkpt>
      <trkpt lat="45.71157" lon="6.46713">
        <ele>771</ele>
        <time>2022-07-28T14:04:26Z</time>
      </trkpt>
      <trkpt lat="45.71158" lon="6.46714">
        <ele>770</ele>
        <time>2022-07-28T14:04:27Z</time>
      </trkpt>
      <trkpt lat="45.71158" lon="6.46714">
        <ele>770</ele>
        <time>2022-07-28T14:04:28Z</time>
      </trkpt>
      <trkpt lat="45.71159" lon="6.46714">
        <ele>769</ele>
        <time>2022-07-28T14:04:29Z</time>
      </trkpt>
      <trkpt lat="45.71159" lon="6.46714">
        <ele>769</ele>
        <time>2022-07-28T14:04:30Z</time>
      </trkpt>
      <trkpt lat="45.71159" lon="6.46714">
        <ele>769</ele>
        <time>2022-07-28T14:04:31Z</time>
      </trkpt>
      <trkpt lat="45.7116" lon="6.46714">
        <ele>768</ele>
        <time>2022-07-28T14:04:32Z</time>
      </trkpt>
      <trkpt lat="45.7116" lon="6.46713">
        <ele>768</ele>
        <time>2022-07-28T14:04:33Z</time>
      </trkpt>
      <trkpt lat="45.7116" lon="6.46712">
        <ele>768</ele>
        <time>2022-07-28T14:04:34Z</time>
      </trkpt>
      <trkpt lat="45.7116" lon="6.46711">
        <ele>768</ele>
        <time>2022-07-28T14:04:35Z</time>
      </trkpt>
      <trkpt lat="45.71161" lon="6.4671">
        <ele>768</ele>
        <time>2022-07-28T14:04:36Z</time>
      </trkpt>
      <trkpt lat="45.71161" lon="6.46709">
        <ele>767</ele>
        <time>2022-07-28T14:04:37Z</time>
      </trkpt>
      <trkpt lat="45.71161" lon="6.46708">
        <ele>767</ele>
        <time>2022-07-28T14:04:38Z</time>
      </trkpt>
      <trkpt lat="45.71161" lon="6.46706">
        <ele>767</ele>
        <time>2022-07-28T14:04:39Z</time>
      </trkpt>
      <trkpt lat="45.71161" lon="6.46705">
        <ele>767</ele>
        <time>2022-07-28T14:04:40Z</time>
      </trkpt>
      <trkpt lat="45.71161" lon="6.46704">
        <ele>767</ele>
        <time>2022-07-28T14:04:41Z</time>
      </trkpt>
      <trkpt lat="45.7116" lon="6.46703">
        <ele>766</ele>
        <time>2022-07-28T14:04:42Z</time>
      </trkpt>
      <trkpt lat="45.7116" lon="6.46703">
        <ele>766</ele>
        <time>2022-07-28T14:04:43Z</time>
      </trkpt>
      <trkpt lat="45.7116" lon="6.46702">
        <ele>765</ele>
        <time>2022-07-28T14:04:44Z</time>
      </trkpt>
      <trkpt lat="45.7116" lon="6.46702">
        <ele>765</ele>
        <time>2022-07-28T14:04:45Z</time>
      </trkpt>
      <trkpt lat="45.71159" lon="6.46701">
        <ele>765</ele>
        <time>2022-07-28T14:04:46Z</time>
      </trkpt>
      <trkpt lat="45.71159" lon="6.467">
        <ele>764</ele>
        <time>2022-07-28T14:04:47Z</time>
      </trkpt>
      <trkpt lat="45.71158" lon="6.46699">
        <ele>764</ele>
        <time>2022-07-28T14:04:48Z</time>
      </trkpt>
      <trkpt lat="45.71158" lon="6.46698">
        <ele>764</ele>
        <time>2022-07-28T14:04:49Z</time>
      </trkpt>
      <trkpt lat="45.71158" lon="6.46697">
        <ele>764</ele>
        <time>2022-07-28T14:04:50Z</time>
      </trkpt>
      <trkpt lat="45.71158" lon="6.46697">
        <ele>764</ele>
        <time>2022-07-28T14:04:51Z</time>
      </trkpt>
      <trkpt lat="45.71158" lon="6.46696">
        <ele>763</ele>
        <time>2022-07-28T14:04:52Z</time>
      </trkpt>
      <trkpt lat="45.71158" lon="6.46695">
        <ele>763</ele>
        <time>2022-07-28T14:04:53Z</time>
      </trkpt>
      <trkpt lat="45.71158" lon="6.46694">
        <ele>763</ele>
        <time>2022-07-28T14:04:54Z</time>
      </trkpt>
      <trkpt lat="45.71158" lon="6.46694">
        <ele>763</ele>
        <time>2022-07-28T14:04:55Z</time>
      </trkpt>
      <trkpt lat="45.71159" lon="6.46693">
        <ele>763</ele>
        <time>2022-07-28T14:04:56Z</time>
      </trkpt>
      <trkpt lat="45.71159" lon="6.46692">
        <ele>762</ele>
        <time>2022-07-28T14:04:57Z</time>
      </trkpt>
      <trkpt lat="45.71159" lon="6.46691">
        <ele>762</ele>
        <time>2022-07-28T14:04:58Z</time>
      </trkpt>
      <trkpt lat="45.71159" lon="6.46691">
        <ele>762</ele>
        <time>2022-07-28T14:04:59Z</time>
      </trkpt>
      <trkpt lat="45.7116" lon="6.4669">
        <ele>762</ele>
        <time>2022-07-28T14:05:00Z</time>
      </trkpt>
      <trkpt lat="45.7116" lon="6.46689">
        <ele>762</ele>
        <time>2022-07-28T14:05:01Z</time>
      </trkpt>
      <trkpt lat="45.7116" lon="6.46688">
        <ele>761</ele>
        <time>2022-07-28T14:05:02Z</time>
      </trkpt>
      <trkpt lat="45.71161" lon="6.46687">
        <ele>761</ele>
        <time>2022-07-28T14:05:03Z</time>
      </trkpt>
      <trkpt lat="45.7116" lon="6.46684">
        <ele>758</ele>
        <time>2022-07-28T14:05:20Z</time>
      </trkpt>
      <trkpt lat="45.7116" lon="6.46682">
        <ele>758</ele>
        <time>2022-07-28T14:05:21Z</time>
      </trkpt>
      <trkpt lat="45.7116" lon="6.46679">
        <ele>757</ele>
        <time>2022-07-28T14:05:22Z</time>
      </trkpt>
      <trkpt lat="45.71159" lon="6.46678">
        <ele>757</ele>
        <time>2022-07-28T14:05:23Z</time>
      </trkpt>
      <trkpt lat="45.71159" lon="6.46676">
        <ele>757</ele>
        <time>2022-07-28T14:05:24Z</time>
      </trkpt>
      <trkpt lat="45.7116" lon="6.46675">
        <ele>757</ele>
        <time>2022-07-28T14:05:25Z</time>
      </trkpt>
      <trkpt lat="45.7116" lon="6.46674">
        <ele>757</ele>
        <time>2022-07-28T14:05:26Z</time>
      </trkpt>
      <trkpt lat="45.7116" lon="6.46673">
        <ele>756</ele>
        <time>2022-07-28T14:05:27Z</time>
      </trkpt>
      <trkpt lat="45.7116" lon="6.46672">
        <ele>756</ele>
        <time>2022-07-28T14:05:28Z</time>
      </trkpt>
      <trkpt lat="45.7116" lon="6.46671">
        <ele>756</ele>
        <time>2022-07-28T14:05:29Z</time>
      </trkpt>
      <trkpt lat="45.71161" lon="6.46669">
        <ele>756</ele>
        <time>2022-07-28T14:05:30Z</time>
      </trkpt>
      <trkpt lat="45.71161" lon="6.46668">
        <ele>756</ele>
        <time>2022-07-28T14:05:31Z</time>
      </trkpt>
      <trkpt lat="45.71161" lon="6.46667">
        <ele>755</ele>
        <time>2022-07-28T14:05:32Z</time>
      </trkpt>
      <trkpt lat="45.71161" lon="6.46666">
        <ele>755</ele>
        <time>2022-07-28T14:05:33Z</time>
      </trkpt>
      <trkpt lat="45.71161" lon="6.46665">
        <ele>755</ele>
        <time>2022-07-28T14:05:34Z</time>
      </trkpt>
      <trkpt lat="45.71161" lon="6.46664">
        <ele>755</ele>
        <time>2022-07-28T14:05:35Z</time>
      </trkpt>
      <trkpt lat="45.71161" lon="6.46663">
        <ele>755</ele>
        <time>2022-07-28T14:05:36Z</time>
      </trkpt>
      <trkpt lat="45.71161" lon="6.46662">
        <ele>754</ele>
        <time>2022-07-28T14:05:37Z</time>
      </trkpt>
      <trkpt lat="45.71161" lon="6.46661">
        <ele>754</ele>
        <time>2022-07-28T14:05:38Z</time>
      </trkpt>
      <trkpt lat="45.71161" lon="6.4666">
        <ele>754</ele>
        <time>2022-07-28T14:05:39Z</time>
      </trkpt>
      <trkpt lat="45.71161" lon="6.4666">
        <ele>754</ele>
        <time>2022-07-28T14:05:40Z</time>
      </trkpt>
      <trkpt lat="45.71162" lon="6.46659">
        <ele>754</ele>
        <time>2022-07-28T14:05:41Z</time>
      </trkpt>
      <trkpt lat="45.71162" lon="6.46659">
        <ele>753</ele>
        <time>2022-07-28T14:05:42Z</time>
      </trkpt>
      <trkpt lat="45.71162" lon="6.46658">
        <ele>753</ele>
        <time>2022-07-28T14:05:43Z</time>
      </trkpt>
      <trkpt lat="45.71163" lon="6.46658">
        <ele>753</ele>
        <time>2022-07-28T14:05:44Z</time>
      </trkpt>
      <trkpt lat="45.71163" lon="6.46657">
        <ele>753</ele>
        <time>2022-07-28T14:05:45Z</time>
      </trkpt>
      <trkpt lat="45.71163" lon="6.46657">
        <ele>753</ele>
        <time>2022-07-28T14:05:46Z</time>
      </trkpt>
      <trkpt lat="45.71164" lon="6.46656">
        <ele>752</ele>
        <time>2022-07-28T14:05:47Z</time>
      </trkpt>
      <trkpt lat="45.71164" lon="6.46656">
        <ele>752</ele>
        <time>2022-07-28T14:05:48Z</time>
      </trkpt>
      <trkpt lat="45.71165" lon="6.46656">
        <ele>752</ele>
        <time>2022-07-28T14:05:49Z</time>
      </trkpt>
      <trkpt lat="45.71165" lon="6.46655">
        <ele>752</ele>
        <time>2022-07-28T14:05:50Z</time>
      </trkpt>
      <trkpt lat="45.71166" lon="6.46655">
        <ele>752</ele>
        <time>2022-07-28T14:05:51Z</time>
      </trkpt>
      <trkpt lat="45.71167" lon="6.46654">
        <ele>751</ele>
        <time>2022-07-28T14:05:52Z</time>
      </trkpt>
      <trkpt lat="45.71167" lon="6.46654">
        <ele>751</ele>
        <time>2022-07-28T14:05:53Z</time>
      </trkpt>
      <trkpt lat="45.71168" lon="6.46653">
        <ele>751</ele>
        <time>2022-07-28T14:05:54Z</time>
      </trkpt>
      <trkpt lat="45.71168" lon="6.46652">
        <ele>751</ele>
        <time>2022-07-28T14:05:55Z</time>
      </trkpt>
      <trkpt lat="45.71169" lon="6.46651">
        <ele>751</ele>
        <time>2022-07-28T14:05:56Z</time>
      </trkpt>
      <trkpt lat="45.71169" lon="6.46651">
        <ele>750</ele>
        <time>2022-07-28T14:05:57Z</time>
      </trkpt>
      <trkpt lat="45.7117" lon="6.4665">
        <ele>750</ele>
        <time>2022-07-28T14:05:58Z</time>
      </trkpt>
      <trkpt lat="45.7117" lon="6.46649">
        <ele>750</ele>
        <time>2022-07-28T14:05:59Z</time>
      </trkpt>
      <trkpt lat="45.71171" lon="6.46649">
        <ele>750</ele>
        <time>2022-07-28T14:06:00Z</time>
      </trkpt>
      <trkpt lat="45.71172" lon="6.46648">
        <ele>750</ele>
        <time>2022-07-28T14:06:01Z</time>
      </trkpt>
      <trkpt lat="45.71173" lon="6.46648">
        <ele>749</ele>
        <time>2022-07-28T14:06:02Z</time>
      </trkpt>
      <trkpt lat="45.71173" lon="6.46647">
        <ele>749</ele>
        <time>2022-07-28T14:06:03Z</time>
      </trkpt>
      <trkpt lat="45.71174" lon="6.46647">
        <ele>749</ele>
        <time>2022-07-28T14:06:04Z</time>
      </trkpt>
      <trkpt lat="45.71175" lon="6.46646">
        <ele>749</ele>
        <time>2022-07-28T14:06:05Z</time>
      </trkpt>
      <trkpt lat="45.71176" lon="6.46646">
        <ele>749</ele>
        <time>2022-07-28T14:06:06Z</time>
      </trkpt>
      <trkpt lat="45.71177" lon="6.46646">
        <ele>748</ele>
        <time>2022-07-28T14:06:07Z</time>
      </trkpt>
      <trkpt lat="45.71178" lon="6.46646">
        <ele>748</ele>
        <time>2022-07-28T14:06:08Z</time>
      </trkpt>
      <trkpt lat="45.71179" lon="6.46645">
        <ele>747</ele>
        <time>2022-07-28T14:06:09Z</time>
      </trkpt>
      <trkpt lat="45.7118" lon="6.46645">
        <ele>747</ele>
        <time>2022-07-28T14:06:10Z</time>
      </trkpt>
      <trkpt lat="45.7118" lon="6.46644">
        <ele>747</ele>
        <time>2022-07-28T14:06:11Z</time>
      </trkpt>
      <trkpt lat="45.71181" lon="6.46644">
        <ele>746</ele>
        <time>2022-07-28T14:06:12Z</time>
      </trkpt>
      <trkpt lat="45.71181" lon="6.46643">
        <ele>745</ele>
        <time>2022-07-28T14:06:21Z</time>
      </trkpt>
      <trkpt lat="45.71181" lon="6.46642">
        <ele>745</ele>
        <time>2022-07-28T14:06:22Z</time>
      </trkpt>
      <trkpt lat="45.71181" lon="6.46641">
        <ele>745</ele>
        <time>2022-07-28T14:06:23Z</time>
      </trkpt>
      <trkpt lat="45.71182" lon="6.4664">
        <ele>745</ele>
        <time>2022-07-28T14:06:24Z</time>
      </trkpt>
      <trkpt lat="45.71182" lon="6.4664">
        <ele>745</ele>
        <time>2022-07-28T14:06:25Z</time>
      </trkpt>
      <trkpt lat="45.71182" lon="6.46638">
        <ele>743</ele>
        <time>2022-07-28T14:06:35Z</time>
      </trkpt>
      <trkpt lat="45.71183" lon="6.46637">
        <ele>743</ele>
        <time>2022-07-28T14:06:36Z</time>
      </trkpt>
      <trkpt lat="45.71183" lon="6.46636">
        <ele>742</ele>
        <time>2022-07-28T14:06:37Z</time>
      </trkpt>
      <trkpt lat="45.71183" lon="6.46636">
        <ele>742</ele>
        <time>2022-07-28T14:06:38Z</time>
      </trkpt>
      <trkpt lat="45.71184" lon="6.46637">
        <ele>742</ele>
        <time>2022-07-28T14:06:39Z</time>
      </trkpt>
      <trkpt lat="45.71184" lon="6.46637">
        <ele>742</ele>
        <time>2022-07-28T14:06:40Z</time>
      </trkpt>
      <trkpt lat="45.71185" lon="6.46638">
        <ele>742</ele>
        <time>2022-07-28T14:06:41Z</time>
      </trkpt>
      <trkpt lat="45.71185" lon="6.46639">
        <ele>741</ele>
        <time>2022-07-28T14:06:42Z</time>
      </trkpt>
      <trkpt lat="45.71186" lon="6.4664">
        <ele>741</ele>
        <time>2022-07-28T14:06:43Z</time>
      </trkpt>
      <trkpt lat="45.71186" lon="6.46641">
        <ele>741</ele>
        <time>2022-07-28T14:06:44Z</time>
      </trkpt>
      <trkpt lat="45.71186" lon="6.46642">
        <ele>741</ele>
        <time>2022-07-28T14:06:45Z</time>
      </trkpt>
      <trkpt lat="45.71187" lon="6.46643">
        <ele>741</ele>
        <time>2022-07-28T14:06:46Z</time>
      </trkpt>
      <trkpt lat="45.71187" lon="6.46645">
        <ele>740</ele>
        <time>2022-07-28T14:06:47Z</time>
      </trkpt>
      <trkpt lat="45.71188" lon="6.46646">
        <ele>740</ele>
        <time>2022-07-28T14:06:48Z</time>
      </trkpt>
      <trkpt lat="45.71188" lon="6.46648">
        <ele>740</ele>
        <time>2022-07-28T14:06:49Z</time>
      </trkpt>
      <trkpt lat="45.71189" lon="6.46649">
        <ele>740</ele>
        <time>2022-07-28T14:06:50Z</time>
      </trkpt>
      <trkpt lat="45.71189" lon="6.46651">
        <ele>740</ele>
        <time>2022-07-28T14:06:51Z</time>
      </trkpt>
      <trkpt lat="45.7119" lon="6.46652">
        <ele>739</ele>
        <time>2022-07-28T14:06:52Z</time>
      </trkpt>
      <trkpt lat="45.7119" lon="6.46653">
        <ele>739</ele>
        <time>2022-07-28T14:06:53Z</time>
      </trkpt>
      <trkpt lat="45.71191" lon="6.46653">
        <ele>739</ele>
        <time>2022-07-28T14:06:54Z</time>
      </trkpt>
      <trkpt lat="45.71191" lon="6.46653">
        <ele>739</ele>
        <time>2022-07-28T14:06:55Z</time>
      </trkpt>
      <trkpt lat="45.71193" lon="6.46651">
        <ele>737</ele>
        <time>2022-07-28T14:07:04Z</time>
      </trkpt>
      <trkpt lat="45.71193" lon="6.46649">
        <ele>737</ele>
        <time>2022-07-28T14:07:05Z</time>
      </trkpt>
      <trkpt lat="45.71194" lon="6.46648">
        <ele>737</ele>
        <time>2022-07-28T14:07:06Z</time>
      </trkpt>
      <trkpt lat="45.71194" lon="6.46648">
        <ele>736</ele>
        <time>2022-07-28T14:07:07Z</time>
      </trkpt>
      <trkpt lat="45.71195" lon="6.46647">
        <ele>736</ele>
        <time>2022-07-28T14:07:08Z</time>
      </trkpt>
      <trkpt lat="45.71195" lon="6.46647">
        <ele>736</ele>
        <time>2022-07-28T14:07:09Z</time>
      </trkpt>
      <trkpt lat="45.71196" lon="6.46647">
        <ele>736</ele>
        <time>2022-07-28T14:07:10Z</time>
      </trkpt>
      <trkpt lat="45.71197" lon="6.46647">
        <ele>736</ele>
        <time>2022-07-28T14:07:11Z</time>
      </trkpt>
      <trkpt lat="45.71197" lon="6.46648">
        <ele>736</ele>
        <time>2022-07-28T14:07:12Z</time>
      </trkpt>
      <trkpt lat="45.71198" lon="6.46648">
        <ele>736</ele>
        <time>2022-07-28T14:07:13Z</time>
      </trkpt>
      <trkpt lat="45.71199" lon="6.46649">
        <ele>736</ele>
        <time>2022-07-28T14:07:14Z</time>
      </trkpt>
      <trkpt lat="45.712" lon="6.4665">
        <ele>736</ele>
        <time>2022-07-28T14:07:15Z</time>
      </trkpt>
      <trkpt lat="45.712" lon="6.46652">
        <ele>736</ele>
        <time>2022-07-28T14:07:16Z</time>
      </trkpt>
      <trkpt lat="45.71201" lon="6.46653">
        <ele>735</ele>
        <time>2022-07-28T14:07:17Z</time>
      </trkpt>
      <trkpt lat="45.71202" lon="6.46655">
        <ele>735</ele>
        <time>2022-07-28T14:07:18Z</time>
      </trkpt>
      <trkpt lat="45.71203" lon="6.46656">
        <ele>735</ele>
        <time>2022-07-28T14:07:19Z</time>
      </trkpt>
      <trkpt lat="45.71203" lon="6.46658">
        <ele>735</ele>
        <time>2022-07-28T14:07:20Z</time>
      </trkpt>
      <trkpt lat="45.71204" lon="6.4666">
        <ele>735</ele>
        <time>2022-07-28T14:07:21Z</time>
      </trkpt>
      <trkpt lat="45.71204" lon="6.46661">
        <ele>734</ele>
        <time>2022-07-28T14:07:22Z</time>
      </trkpt>
      <trkpt lat="45.71205" lon="6.46663">
        <ele>734</ele>
        <time>2022-07-28T14:07:23Z</time>
      </trkpt>
      <trkpt lat="45.71205" lon="6.46664">
        <ele>734</ele>
        <time>2022-07-28T14:07:24Z</time>
      </trkpt>
      <trkpt lat="45.71206" lon="6.46665">
        <ele>734</ele>
        <time>2022-07-28T14:07:25Z</time>
      </trkpt>
      <trkpt lat="45.71207" lon="6.46667">
        <ele>734</ele>
        <time>2022-07-28T14:07:26Z</time>
      </trkpt>
      <trkpt lat="45.71209" lon="6.46669">
        <ele>732</ele>
        <time>2022-07-28T14:07:33Z</time>
      </trkpt>
      <trkpt lat="45.7121" lon="6.46669">
        <ele>732</ele>
        <time>2022-07-28T14:07:34Z</time>
      </trkpt>
      <trkpt lat="45.71211" lon="6.46669">
        <ele>732</ele>
        <time>2022-07-28T14:07:35Z</time>
      </trkpt>
      <trkpt lat="45.71212" lon="6.4667">
        <ele>732</ele>
        <time>2022-07-28T14:07:36Z</time>
      </trkpt>
      <trkpt lat="45.71212" lon="6.4667">
        <ele>731</ele>
        <time>2022-07-28T14:07:37Z</time>
      </trkpt>
      <trkpt lat="45.71213" lon="6.46669">
        <ele>731</ele>
        <time>2022-07-28T14:07:38Z</time>
      </trkpt>
      <trkpt lat="45.71214" lon="6.46669">
        <ele>731</ele>
        <time>2022-07-28T14:07:39Z</time>
      </trkpt>
      <trkpt lat="45.71214" lon="6.46669">
        <ele>731</ele>
        <time>2022-07-28T14:07:40Z</time>
      </trkpt>
      <trkpt lat="45.71215" lon="6.46668">
        <ele>731</ele>
        <time>2022-07-28T14:07:41Z</time>
      </trkpt>
      <trkpt lat="45.71217" lon="6.46667">
        <ele>728</ele>
        <time>2022-07-28T14:07:53Z</time>
      </trkpt>
      <trkpt lat="45.71218" lon="6.46666">
        <ele>728</ele>
        <time>2022-07-28T14:07:54Z</time>
      </trkpt>
      <trkpt lat="45.71219" lon="6.46665">
        <ele>728</ele>
        <time>2022-07-28T14:07:55Z</time>
      </trkpt>
      <trkpt lat="45.7122" lon="6.46665">
        <ele>728</ele>
        <time>2022-07-28T14:07:56Z</time>
      </trkpt>
      <trkpt lat="45.71221" lon="6.46664">
        <ele>727</ele>
        <time>2022-07-28T14:07:57Z</time>
      </trkpt>
      <trkpt lat="45.71221" lon="6.46664">
        <ele>727</ele>
        <time>2022-07-28T14:07:58Z</time>
      </trkpt>
      <trkpt lat="45.71222" lon="6.46664">
        <ele>727</ele>
        <time>2022-07-28T14:07:59Z</time>
      </trkpt>
      <trkpt lat="45.71222" lon="6.46664">
        <ele>727</ele>
        <time>2022-07-28T14:08:00Z</time>
      </trkpt>
      <trkpt lat="45.71223" lon="6.46664">
        <ele>727</ele>
        <time>2022-07-28T14:08:01Z</time>
      </trkpt>
      <trkpt lat="45.71224" lon="6.46664">
        <ele>726</ele>
        <time>2022-07-28T14:08:02Z</time>
      </trkpt>
      <trkpt lat="45.71224" lon="6.46664">
        <ele>726</ele>
        <time>2022-07-28T14:08:03Z</time>
      </trkpt>
      <trkpt lat="45.71225" lon="6.46663">
        <ele>726</ele>
        <time>2022-07-28T14:08:04Z</time>
      </trkpt>
      <trkpt lat="45.71226" lon="6.46663">
        <ele>726</ele>
        <time>2022-07-28T14:08:05Z</time>
      </trkpt>
      <trkpt lat="45.71227" lon="6.46664">
        <ele>726</ele>
        <time>2022-07-28T14:08:06Z</time>
      </trkpt>
      <trkpt lat="45.71228" lon="6.46664">
        <ele>725</ele>
        <time>2022-07-28T14:08:07Z</time>
      </trkpt>
      <trkpt lat="45.71229" lon="6.46664">
        <ele>725</ele>
        <time>2022-07-28T14:08:08Z</time>
      </trkpt>
      <trkpt lat="45.71229" lon="6.46665">
        <ele>725</ele>
        <time>2022-07-28T14:08:09Z</time>
      </trkpt>
      <trkpt lat="45.7123" lon="6.46666">
        <ele>725</ele>
        <time>2022-07-28T14:08:10Z</time>
      </trkpt>
      <trkpt lat="45.7123" lon="6.46667">
        <ele>725</ele>
        <time>2022-07-28T14:08:11Z</time>
      </trkpt>
      <trkpt lat="45.71231" lon="6.46668">
        <ele>724</ele>
        <time>2022-07-28T14:08:12Z</time>
      </trkpt>
      <trkpt lat="45.71231" lon="6.46669">
        <ele>724</ele>
        <time>2022-07-28T14:08:13Z</time>
      </trkpt>
      <trkpt lat="45.71231" lon="6.46669">
        <ele>724</ele>
        <time>2022-07-28T14:08:14Z</time>
      </trkpt>
      <trkpt lat="45.71232" lon="6.4667">
        <ele>724</ele>
        <time>2022-07-28T14:08:15Z</time>
      </trkpt>
      <trkpt lat="45.71232" lon="6.46671">
        <ele>724</ele>
        <time>2022-07-28T14:08:16Z</time>
      </trkpt>
      <trkpt lat="45.71232" lon="6.46672">
        <ele>723</ele>
        <time>2022-07-28T14:08:17Z</time>
      </trkpt>
      <trkpt lat="45.71232" lon="6.46673">
        <ele>723</ele>
        <time>2022-07-28T14:08:18Z</time>
      </trkpt>
      <trkpt lat="45.71232" lon="6.46673">
        <ele>723</ele>
        <time>2022-07-28T14:08:19Z</time>
      </trkpt>
      <trkpt lat="45.71232" lon="6.46673">
        <ele>723</ele>
        <time>2022-07-28T14:08:20Z</time>
      </trkpt>
      <trkpt lat="45.71232" lon="6.46674">
        <ele>723</ele>
        <time>2022-07-28T14:08:21Z</time>
      </trkpt>
      <trkpt lat="45.71232" lon="6.46674">
        <ele>723</ele>
        <time>2022-07-28T14:08:22Z</time>
      </trkpt>
      <trkpt lat="45.71232" lon="6.46675">
        <ele>723</ele>
        <time>2022-07-28T14:08:23Z</time>
      </trkpt>
      <trkpt lat="45.71232" lon="6.46676">
        <ele>723</ele>
        <time>2022-07-28T14:08:24Z</time>
      </trkpt>
      <trkpt lat="45.71233" lon="6.46677">
        <ele>723</ele>
        <time>2022-07-28T14:08:25Z</time>
      </trkpt>
      <trkpt lat="45.71233" lon="6.46678">
        <ele>723</ele>
        <time>2022-07-28T14:08:26Z</time>
      </trkpt>
      <trkpt lat="45.71233" lon="6.46679">
        <ele>722</ele>
        <time>2022-07-28T14:08:27Z</time>
      </trkpt>
      <trkpt lat="45.71233" lon="6.4668">
        <ele>722</ele>
        <time>2022-07-28T14:08:28Z</time>
      </trkpt>
      <trkpt lat="45.71234" lon="6.46681">
        <ele>722</ele>
        <time>2022-07-28T14:08:29Z</time>
      </trkpt>
      <trkpt lat="45.71234" lon="6.46682">
        <ele>722</ele>
        <time>2022-07-28T14:08:30Z</time>
      </trkpt>
      <trkpt lat="45.71235" lon="6.46683">
        <ele>719</ele>
        <time>2022-07-28T14:08:50Z</time>
      </trkpt>
      <trkpt lat="45.71236" lon="6.46683">
        <ele>719</ele>
        <time>2022-07-28T14:08:51Z</time>
      </trkpt>
      <trkpt lat="45.71237" lon="6.46683">
        <ele>718</ele>
        <time>2022-07-28T14:08:52Z</time>
      </trkpt>
      <trkpt lat="45.71237" lon="6.46682">
        <ele>718</ele>
        <time>2022-07-28T14:08:53Z</time>
      </trkpt>
      <trkpt lat="45.71237" lon="6.46682">
        <ele>718</ele>
        <time>2022-07-28T14:08:54Z</time>
      </trkpt>
      <trkpt lat="45.71238" lon="6.46681">
        <ele>718</ele>
        <time>2022-07-28T14:08:55Z</time>
      </trkpt>
      <trkpt lat="45.71238" lon="6.4668">
        <ele>718</ele>
        <time>2022-07-28T14:08:56Z</time>
      </trkpt>
      <trkpt lat="45.71239" lon="6.4668">
        <ele>717</ele>
        <time>2022-07-28T14:08:57Z</time>
      </trkpt>
      <trkpt lat="45.71239" lon="6.46679">
        <ele>717</ele>
        <time>2022-07-28T14:08:58Z</time>
      </trkpt>
      <trkpt lat="45.7124" lon="6.46678">
        <ele>717</ele>
        <time>2022-07-28T14:08:59Z</time>
      </trkpt>
      <trkpt lat="45.7124" lon="6.46677">
        <ele>717</ele>
        <time>2022-07-28T14:09:00Z</time>
      </trkpt>
      <trkpt lat="45.71241" lon="6.46677">
        <ele>717</ele>
        <time>2022-07-28T14:09:01Z</time>
      </trkpt>
      <trkpt lat="45.71241" lon="6.46676">
        <ele>716</ele>
        <time>2022-07-28T14:09:02Z</time>
      </trkpt>
      <trkpt lat="45.71242" lon="6.46677">
        <ele>716</ele>
        <time>2022-07-28T14:09:03Z</time>
      </trkpt>
      <trkpt lat="45.71243" lon="6.46677">
        <ele>716</ele>
        <time>2022-07-28T14:09:04Z</time>
      </trkpt>
      <trkpt lat="45.71244" lon="6.46677">
        <ele>716</ele>
        <time>2022-07-28T14:09:05Z</time>
      </trkpt>
      <trkpt lat="45.71244" lon="6.46678">
        <ele>716</ele>
        <time>2022-07-28T14:09:06Z</time>
      </trkpt>
      <trkpt lat="45.71245" lon="6.46679">
        <ele>715</ele>
        <time>2022-07-28T14:09:07Z</time>
      </trkpt>
      <trkpt lat="45.71246" lon="6.4668">
        <ele>715</ele>
        <time>2022-07-28T14:09:08Z</time>
      </trkpt>
      <trkpt lat="45.71247" lon="6.46681">
        <ele>715</ele>
        <time>2022-07-28T14:09:09Z</time>
      </trkpt>
      <trkpt lat="45.71247" lon="6.46682">
        <ele>715</ele>
        <time>2022-07-28T14:09:10Z</time>
      </trkpt>
      <trkpt lat="45.71248" lon="6.46684">
        <ele>715</ele>
        <time>2022-07-28T14:09:11Z</time>
      </trkpt>
      <trkpt lat="45.71248" lon="6.46685">
        <ele>714</ele>
        <time>2022-07-28T14:09:12Z</time>
      </trkpt>
      <trkpt lat="45.71248" lon="6.46686">
        <ele>714</ele>
        <time>2022-07-28T14:09:13Z</time>
      </trkpt>
      <trkpt lat="45.71249" lon="6.46688">
        <ele>714</ele>
        <time>2022-07-28T14:09:14Z</time>
      </trkpt>
      <trkpt lat="45.71249" lon="6.46689">
        <ele>714</ele>
        <time>2022-07-28T14:09:15Z</time>
      </trkpt>
      <trkpt lat="45.71249" lon="6.46691">
        <ele>714</ele>
        <time>2022-07-28T14:09:16Z</time>
      </trkpt>
      <trkpt lat="45.71249" lon="6.46692">
        <ele>713</ele>
        <time>2022-07-28T14:09:17Z</time>
      </trkpt>
      <trkpt lat="45.71249" lon="6.46693">
        <ele>713</ele>
        <time>2022-07-28T14:09:18Z</time>
      </trkpt>
      <trkpt lat="45.71249" lon="6.46695">
        <ele>713</ele>
        <time>2022-07-28T14:09:19Z</time>
      </trkpt>
      <trkpt lat="45.7125" lon="6.46696">
        <ele>713</ele>
        <time>2022-07-28T14:09:20Z</time>
      </trkpt>
      <trkpt lat="45.7125" lon="6.46698">
        <ele>713</ele>
        <time>2022-07-28T14:09:21Z</time>
      </trkpt>
      <trkpt lat="45.7125" lon="6.46699">
        <ele>712</ele>
        <time>2022-07-28T14:09:22Z</time>
      </trkpt>
      <trkpt lat="45.7125" lon="6.46701">
        <ele>712</ele>
        <time>2022-07-28T14:09:23Z</time>
      </trkpt>
      <trkpt lat="45.7125" lon="6.46702">
        <ele>712</ele>
        <time>2022-07-28T14:09:24Z</time>
      </trkpt>
      <trkpt lat="45.7125" lon="6.46704">
        <ele>712</ele>
        <time>2022-07-28T14:09:25Z</time>
      </trkpt>
      <trkpt lat="45.7125" lon="6.46705">
        <ele>712</ele>
        <time>2022-07-28T14:09:26Z</time>
      </trkpt>
      <trkpt lat="45.7125" lon="6.46707">
        <ele>712</ele>
        <time>2022-07-28T14:09:27Z</time>
      </trkpt>
      <trkpt lat="45.7125" lon="6.46708">
        <ele>712</ele>
        <time>2022-07-28T14:09:28Z</time>
      </trkpt>
      <trkpt lat="45.7125" lon="6.46709">
        <ele>712</ele>
        <time>2022-07-28T14:09:29Z</time>
      </trkpt>
      <trkpt lat="45.71249" lon="6.46711">
        <ele>712</ele>
        <time>2022-07-28T14:09:30Z</time>
      </trkpt>
      <trkpt lat="45.71249" lon="6.46712">
        <ele>712</ele>
        <time>2022-07-28T14:09:31Z</time>
      </trkpt>
      <trkpt lat="45.71249" lon="6.46713">
        <ele>711</ele>
        <time>2022-07-28T14:09:32Z</time>
      </trkpt>
      <trkpt lat="45.71248" lon="6.46714">
        <ele>711</ele>
        <time>2022-07-28T14:09:33Z</time>
      </trkpt>
      <trkpt lat="45.71248" lon="6.46716">
        <ele>711</ele>
        <time>2022-07-28T14:09:34Z</time>
      </trkpt>
      <trkpt lat="45.71248" lon="6.46717">
        <ele>711</ele>
        <time>2022-07-28T14:09:35Z</time>
      </trkpt>
      <trkpt lat="45.71247" lon="6.46718">
        <ele>711</ele>
        <time>2022-07-28T14:09:36Z</time>
      </trkpt>
      <trkpt lat="45.71247" lon="6.46719">
        <ele>710</ele>
        <time>2022-07-28T14:09:37Z</time>
      </trkpt>
      <trkpt lat="45.71247" lon="6.4672">
        <ele>710</ele>
        <time>2022-07-28T14:09:38Z</time>
      </trkpt>
      <trkpt lat="45.71247" lon="6.46721">
        <ele>710</ele>
        <time>2022-07-28T14:09:39Z</time>
      </trkpt>
      <trkpt lat="45.71247" lon="6.46723">
        <ele>710</ele>
        <time>2022-07-28T14:09:40Z</time>
      </trkpt>
      <trkpt lat="45.71247" lon="6.46724">
        <ele>710</ele>
        <time>2022-07-28T14:09:41Z</time>
      </trkpt>
      <trkpt lat="45.71247" lon="6.46725">
        <ele>709</ele>
        <time>2022-07-28T14:09:42Z</time>
      </trkpt>
      <trkpt lat="45.71247" lon="6.46725">
        <ele>709</ele>
        <time>2022-07-28T14:09:43Z</time>
      </trkpt>
      <trkpt lat="45.71248" lon="6.46726">
        <ele>709</ele>
        <time>2022-07-28T14:09:44Z</time>
      </trkpt>
      <trkpt lat="45.71248" lon="6.46727">
        <ele>709</ele>
        <time>2022-07-28T14:09:45Z</time>
      </trkpt>
      <trkpt lat="45.71248" lon="6.46728">
        <ele>709</ele>
        <time>2022-07-28T14:09:46Z</time>
      </trkpt>
      <trkpt lat="45.71248" lon="6.46729">
        <ele>708</ele>
        <time>2022-07-28T14:09:47Z</time>
      </trkpt>
      <trkpt lat="45.71248" lon="6.4673">
        <ele>708</ele>
        <time>2022-07-28T14:09:48Z</time>
      </trkpt>
      <trkpt lat="45.71248" lon="6.46731">
        <ele>708</ele>
        <time>2022-07-28T14:09:49Z</time>
      </trkpt>
      <trkpt lat="45.71249" lon="6.46732">
        <ele>708</ele>
        <time>2022-07-28T14:09:50Z</time>
      </trkpt>
      <trkpt lat="45.71249" lon="6.46732">
        <ele>708</ele>
        <time>2022-07-28T14:09:51Z</time>
      </trkpt>
      <trkpt lat="45.7125" lon="6.46732">
        <ele>707</ele>
        <time>2022-07-28T14:09:52Z</time>
      </trkpt>
      <trkpt lat="45.7125" lon="6.46732">
        <ele>707</ele>
        <time>2022-07-28T14:09:53Z</time>
      </trkpt>
      <trkpt lat="45.7125" lon="6.46733">
        <ele>707</ele>
        <time>2022-07-28T14:09:54Z</time>
      </trkpt>
      <trkpt lat="45.71251" lon="6.46733">
        <ele>707</ele>
        <time>2022-07-28T14:09:55Z</time>
      </trkpt>
      <trkpt lat="45.71251" lon="6.46732">
        <ele>707</ele>
        <time>2022-07-28T14:09:56Z</time>
      </trkpt>
      <trkpt lat="45.71252" lon="6.46732">
        <ele>706</ele>
        <time>2022-07-28T14:09:57Z</time>
      </trkpt>
      <trkpt lat="45.71252" lon="6.46731">
        <ele>706</ele>
        <time>2022-07-28T14:09:58Z</time>
      </trkpt>
      <trkpt lat="45.71253" lon="6.4673">
        <ele>706</ele>
        <time>2022-07-28T14:09:59Z</time>
      </trkpt>
      <trkpt lat="45.71253" lon="6.46729">
        <ele>706</ele>
        <time>2022-07-28T14:10:00Z</time>
      </trkpt>
      <trkpt lat="45.71253" lon="6.46728">
        <ele>706</ele>
        <time>2022-07-28T14:10:01Z</time>
      </trkpt>
      <trkpt lat="45.71254" lon="6.46727">
        <ele>706</ele>
        <time>2022-07-28T14:10:02Z</time>
      </trkpt>
      <trkpt lat="45.71254" lon="6.46726">
        <ele>706</ele>
        <time>2022-07-28T14:10:03Z</time>
      </trkpt>
      <trkpt lat="45.71254" lon="6.46726">
        <ele>706</ele>
        <time>2022-07-28T14:10:04Z</time>
      </trkpt>
      <trkpt lat="45.71254" lon="6.46725">
        <ele>706</ele>
        <time>2022-07-28T14:10:05Z</time>
      </trkpt>
      <trkpt lat="45.71255" lon="6.46724">
        <ele>706</ele>
        <time>2022-07-28T14:10:06Z</time>
      </trkpt>
      <trkpt lat="45.71255" lon="6.46724">
        <ele>705</ele>
        <time>2022-07-28T14:10:07Z</time>
      </trkpt>
      <trkpt lat="45.71256" lon="6.46724">
        <ele>705</ele>
        <time>2022-07-28T14:10:08Z</time>
      </trkpt>
      <trkpt lat="45.71256" lon="6.46723">
        <ele>705</ele>
        <time>2022-07-28T14:10:09Z</time>
      </trkpt>
      <trkpt lat="45.71256" lon="6.46724">
        <ele>705</ele>
        <time>2022-07-28T14:10:10Z</time>
      </trkpt>
      <trkpt lat="45.71257" lon="6.46724">
        <ele>705</ele>
        <time>2022-07-28T14:10:11Z</time>
      </trkpt>
      <trkpt lat="45.71257" lon="6.46725">
        <ele>705</ele>
        <time>2022-07-28T14:10:12Z</time>
      </trkpt>
      <trkpt lat="45.71258" lon="6.46725">
        <ele>705</ele>
        <time>2022-07-28T14:10:13Z</time>
      </trkpt>
      <trkpt lat="45.71258" lon="6.46726">
        <ele>705</ele>
        <time>2022-07-28T14:10:14Z</time>
      </trkpt>
      <trkpt lat="45.71258" lon="6.46727">
        <ele>705</ele>
        <time>2022-07-28T14:10:15Z</time>
      </trkpt>
      <trkpt lat="45.71258" lon="6.46728">
        <ele>705</ele>
        <time>2022-07-28T14:10:16Z</time>
      </trkpt>
      <trkpt lat="45.71258" lon="6.46729">
        <ele>704</ele>
        <time>2022-07-28T14:10:17Z</time>
      </trkpt>
      <trkpt lat="45.71258" lon="6.4673">
        <ele>704</ele>
        <time>2022-07-28T14:10:18Z</time>
      </trkpt>
      <trkpt lat="45.71259" lon="6.46731">
        <ele>704</ele>
        <time>2022-07-28T14:10:19Z</time>
      </trkpt>
      <trkpt lat="45.71259" lon="6.46733">
        <ele>704</ele>
        <time>2022-07-28T14:10:20Z</time>
      </trkpt>
      <trkpt lat="45.7126" lon="6.46734">
        <ele>704</ele>
        <time>2022-07-28T14:10:21Z</time>
      </trkpt>
      <trkpt lat="45.7126" lon="6.46735">
        <ele>703</ele>
        <time>2022-07-28T14:10:22Z</time>
      </trkpt>
      <trkpt lat="45.71261" lon="6.46736">
        <ele>703</ele>
        <time>2022-07-28T14:10:23Z</time>
      </trkpt>
      <trkpt lat="45.71262" lon="6.46737">
        <ele>703</ele>
        <time>2022-07-28T14:10:24Z</time>
      </trkpt>
      <trkpt lat="45.71262" lon="6.46738">
        <ele>703</ele>
        <time>2022-07-28T14:10:25Z</time>
      </trkpt>
      <trkpt lat="45.71263" lon="6.46738">
        <ele>703</ele>
        <time>2022-07-28T14:10:26Z</time>
      </trkpt>
      <trkpt lat="45.71264" lon="6.46739">
        <ele>702</ele>
        <time>2022-07-28T14:10:27Z</time>
      </trkpt>
      <trkpt lat="45.71265" lon="6.46739">
        <ele>702</ele>
        <time>2022-07-28T14:10:28Z</time>
      </trkpt>
      <trkpt lat="45.71266" lon="6.46739">
        <ele>702</ele>
        <time>2022-07-28T14:10:29Z</time>
      </trkpt>
      <trkpt lat="45.71266" lon="6.4674">
        <ele>702</ele>
        <time>2022-07-28T14:10:30Z</time>
      </trkpt>
      <trkpt lat="45.71267" lon="6.4674">
        <ele>702</ele>
        <time>2022-07-28T14:10:31Z</time>
      </trkpt>
      <trkpt lat="45.71268" lon="6.4674">
        <ele>701</ele>
        <time>2022-07-28T14:10:32Z</time>
      </trkpt>
      <trkpt lat="45.71269" lon="6.4674">
        <ele>701</ele>
        <time>2022-07-28T14:10:33Z</time>
      </trkpt>
      <trkpt lat="45.71271" lon="6.4674">
        <ele>699</ele>
        <time>2022-07-28T14:10:47Z</time>
      </trkpt>
      <trkpt lat="45.71272" lon="6.4674">
        <ele>699</ele>
        <time>2022-07-28T14:10:48Z</time>
      </trkpt>
      <trkpt lat="45.71272" lon="6.4674">
        <ele>699</ele>
        <time>2022-07-28T14:10:49Z</time>
      </trkpt>
      <trkpt lat="45.71273" lon="6.4674">
        <ele>699</ele>
        <time>2022-07-28T14:10:50Z</time>
      </trkpt>
      <trkpt lat="45.71273" lon="6.4674">
        <ele>699</ele>
        <time>2022-07-28T14:10:51Z</time>
      </trkpt>
      <trkpt lat="45.71273" lon="6.4674">
        <ele>698</ele>
        <time>2022-07-28T14:10:52Z</time>
      </trkpt>
      <trkpt lat="45.71274" lon="6.4674">
        <ele>698</ele>
        <time>2022-07-28T14:10:53Z</time>
      </trkpt>
      <trkpt lat="45.71274" lon="6.4674">
        <ele>698</ele>
        <time>2022-07-28T14:10:54Z</time>
      </trkpt>
      <trkpt lat="45.71275" lon="6.4674">
        <ele>698</ele>
        <time>2022-07-28T14:10:55Z</time>
      </trkpt>
      <trkpt lat="45.71276" lon="6.4674">
        <ele>698</ele>
        <time>2022-07-28T14:10:56Z</time>
      </trkpt>
      <trkpt lat="45.71276" lon="6.4674">
        <ele>698</ele>
        <time>2022-07-28T14:10:57Z</time>
      </trkpt>
      <trkpt lat="45.71277" lon="6.46739">
        <ele>698</ele>
        <time>2022-07-28T14:10:58Z</time>
      </trkpt>
      <trkpt lat="45.71277" lon="6.46739">
        <ele>698</ele>
        <time>2022-07-28T14:10:59Z</time>
      </trkpt>
      <trkpt lat="45.71278" lon="6.46739">
        <ele>698</ele>
        <time>2022-07-28T14:11:00Z</time>
      </trkpt>
      <trkpt lat="45.71278" lon="6.46739">
        <ele>698</ele>
        <time>2022-07-28T14:11:01Z</time>
      </trkpt>
      <trkpt lat="45.71278" lon="6.46739">
        <ele>698</ele>
        <time>2022-07-28T14:11:02Z</time>
      </trkpt>
      <trkpt lat="45.71278" lon="6.46738">
        <ele>698</ele>
        <time>2022-07-28T14:11:03Z</time>
      </trkpt>
      <trkpt lat="45.71279" lon="6.46738">
        <ele>698</ele>
        <time>2022-07-28T14:11:04Z</time>
      </trkpt>
      <trkpt lat="45.71279" lon="6.46737">
        <ele>698</ele>
        <time>2022-07-28T14:11:05Z</time>
      </trkpt>
      <trkpt lat="45.7128" lon="6.46737">
        <ele>698</ele>
        <time>2022-07-28T14:11:06Z</time>
      </trkpt>
      <trkpt lat="45.71281" lon="6.46735">
        <ele>697</ele>
        <time>2022-07-28T14:11:12Z</time>
      </trkpt>
      <trkpt lat="45.71281" lon="6.46734">
        <ele>697</ele>
        <time>2022-07-28T14:11:13Z</time>
      </trkpt>
      <trkpt lat="45.71282" lon="6.46733">
        <ele>697</ele>
        <time>2022-07-28T14:11:14Z</time>
      </trkpt>
      <trkpt lat="45.71282" lon="6.46732">
        <ele>697</ele>
        <time>2022-07-28T14:11:15Z</time>
      </trkpt>
      <trkpt lat="45.71282" lon="6.46731">
        <ele>697</ele>
        <time>2022-07-28T14:11:16Z</time>
      </trkpt>
      <trkpt lat="45.71283" lon="6.4673">
        <ele>696</ele>
        <time>2022-07-28T14:11:17Z</time>
      </trkpt>
      <trkpt lat="45.71283" lon="6.46729">
        <ele>696</ele>
        <time>2022-07-28T14:11:18Z</time>
      </trkpt>
      <trkpt lat="45.71284" lon="6.46728">
        <ele>696</ele>
        <time>2022-07-28T14:11:19Z</time>
      </trkpt>
      <trkpt lat="45.71284" lon="6.46726">
        <ele>696</ele>
        <time>2022-07-28T14:11:20Z</time>
      </trkpt>
      <trkpt lat="45.71285" lon="6.46726">
        <ele>696</ele>
        <time>2022-07-28T14:11:21Z</time>
      </trkpt>
      <trkpt lat="45.71285" lon="6.46725">
        <ele>696</ele>
        <time>2022-07-28T14:11:22Z</time>
      </trkpt>
      <trkpt lat="45.71286" lon="6.46724">
        <ele>696</ele>
        <time>2022-07-28T14:11:23Z</time>
      </trkpt>
      <trkpt lat="45.71286" lon="6.46723">
        <ele>696</ele>
        <time>2022-07-28T14:11:24Z</time>
      </trkpt>
      <trkpt lat="45.71287" lon="6.46722">
        <ele>696</ele>
        <time>2022-07-28T14:11:25Z</time>
      </trkpt>
      <trkpt lat="45.71288" lon="6.46721">
        <ele>696</ele>
        <time>2022-07-28T14:11:26Z</time>
      </trkpt>
      <trkpt lat="45.71288" lon="6.4672">
        <ele>695</ele>
        <time>2022-07-28T14:11:27Z</time>
      </trkpt>
      <trkpt lat="45.71289" lon="6.46719">
        <ele>695</ele>
        <time>2022-07-28T14:11:28Z</time>
      </trkpt>
      <trkpt lat="45.71289" lon="6.46718">
        <ele>695</ele>
        <time>2022-07-28T14:11:29Z</time>
      </trkpt>
      <trkpt lat="45.7129" lon="6.46717">
        <ele>695</ele>
        <time>2022-07-28T14:11:30Z</time>
      </trkpt>
      <trkpt lat="45.7129" lon="6.46716">
        <ele>695</ele>
        <time>2022-07-28T14:11:31Z</time>
      </trkpt>
      <trkpt lat="45.71291" lon="6.46715">
        <ele>694</ele>
        <time>2022-07-28T14:11:32Z</time>
      </trkpt>
      <trkpt lat="45.71292" lon="6.46714">
        <ele>693</ele>
        <time>2022-07-28T14:11:33Z</time>
      </trkpt>
      <trkpt lat="45.71293" lon="6.46713">
        <ele>693</ele>
        <time>2022-07-28T14:11:34Z</time>
      </trkpt>
      <trkpt lat="45.71294" lon="6.46713">
        <ele>692</ele>
        <time>2022-07-28T14:11:35Z</time>
      </trkpt>
      <trkpt lat="45.71295" lon="6.46712">
        <ele>692</ele>
        <time>2022-07-28T14:11:36Z</time>
      </trkpt>
      <trkpt lat="45.71296" lon="6.46711">
        <ele>691</ele>
        <time>2022-07-28T14:11:37Z</time>
      </trkpt>
      <trkpt lat="45.71297" lon="6.4671">
        <ele>691</ele>
        <time>2022-07-28T14:11:38Z</time>
      </trkpt>
      <trkpt lat="45.71298" lon="6.4671">
        <ele>691</ele>
        <time>2022-07-28T14:11:39Z</time>
      </trkpt>
      <trkpt lat="45.71299" lon="6.46709">
        <ele>691</ele>
        <time>2022-07-28T14:11:40Z</time>
      </trkpt>
      <trkpt lat="45.713" lon="6.46708">
        <ele>691</ele>
        <time>2022-07-28T14:11:41Z</time>
      </trkpt>
      <trkpt lat="45.71301" lon="6.46708">
        <ele>690</ele>
        <time>2022-07-28T14:11:42Z</time>
      </trkpt>
      <trkpt lat="45.71302" lon="6.46707">
        <ele>690</ele>
        <time>2022-07-28T14:11:43Z</time>
      </trkpt>
      <trkpt lat="45.71302" lon="6.46706">
        <ele>690</ele>
        <time>2022-07-28T14:11:44Z</time>
      </trkpt>
      <trkpt lat="45.71303" lon="6.46705">
        <ele>690</ele>
        <time>2022-07-28T14:11:45Z</time>
      </trkpt>
      <trkpt lat="45.71304" lon="6.46704">
        <ele>690</ele>
        <time>2022-07-28T14:11:46Z</time>
      </trkpt>
      <trkpt lat="45.71305" lon="6.46703">
        <ele>689</ele>
        <time>2022-07-28T14:11:47Z</time>
      </trkpt>
      <trkpt lat="45.71306" lon="6.46702">
        <ele>689</ele>
        <time>2022-07-28T14:11:48Z</time>
      </trkpt>
      <trkpt lat="45.71307" lon="6.46701">
        <ele>688</ele>
        <time>2022-07-28T14:11:49Z</time>
      </trkpt>
      <trkpt lat="45.71308" lon="6.467">
        <ele>688</ele>
        <time>2022-07-28T14:11:50Z</time>
      </trkpt>
      <trkpt lat="45.71309" lon="6.46699">
        <ele>688</ele>
        <time>2022-07-28T14:11:51Z</time>
      </trkpt>
      <trkpt lat="45.7131" lon="6.46697">
        <ele>687</ele>
        <time>2022-07-28T14:11:52Z</time>
      </trkpt>
      <trkpt lat="45.71312" lon="6.46696">
        <ele>687</ele>
        <time>2022-07-28T14:11:53Z</time>
      </trkpt>
      <trkpt lat="45.71313" lon="6.46695">
        <ele>687</ele>
        <time>2022-07-28T14:11:54Z</time>
      </trkpt>
      <trkpt lat="45.71313" lon="6.46693">
        <ele>687</ele>
        <time>2022-07-28T14:11:55Z</time>
      </trkpt>
      <trkpt lat="45.71314" lon="6.46692">
        <ele>687</ele>
        <time>2022-07-28T14:11:56Z</time>
      </trkpt>
      <trkpt lat="45.71315" lon="6.4669">
        <ele>686</ele>
        <time>2022-07-28T14:11:57Z</time>
      </trkpt>
      <trkpt lat="45.71316" lon="6.46689">
        <ele>686</ele>
        <time>2022-07-28T14:11:58Z</time>
      </trkpt>
      <trkpt lat="45.71316" lon="6.46687">
        <ele>686</ele>
        <time>2022-07-28T14:11:59Z</time>
      </trkpt>
      <trkpt lat="45.71317" lon="6.46686">
        <ele>686</ele>
        <time>2022-07-28T14:12:00Z</time>
      </trkpt>
      <trkpt lat="45.71318" lon="6.46685">
        <ele>686</ele>
        <time>2022-07-28T14:12:01Z</time>
      </trkpt>
      <trkpt lat="45.71318" lon="6.46684">
        <ele>686</ele>
        <time>2022-07-28T14:12:02Z</time>
      </trkpt>
      <trkpt lat="45.71319" lon="6.46683">
        <ele>686</ele>
        <time>2022-07-28T14:12:03Z</time>
      </trkpt>
      <trkpt lat="45.71319" lon="6.46683">
        <ele>686</ele>
        <time>2022-07-28T14:12:04Z</time>
      </trkpt>
      <trkpt lat="45.71319" lon="6.46683">
        <ele>686</ele>
        <time>2022-07-28T14:12:05Z</time>
      </trkpt>
      <trkpt lat="45.71319" lon="6.46682">
        <ele>686</ele>
        <time>2022-07-28T14:12:06Z</time>
      </trkpt>
      <trkpt lat="45.7132" lon="6.46681">
        <ele>685</ele>
        <time>2022-07-28T14:12:07Z</time>
      </trkpt>
      <trkpt lat="45.71321" lon="6.4668">
        <ele>685</ele>
        <time>2022-07-28T14:12:08Z</time>
      </trkpt>
      <trkpt lat="45.71321" lon="6.46679">
        <ele>685</ele>
        <time>2022-07-28T14:12:09Z</time>
      </trkpt>
      <trkpt lat="45.71322" lon="6.46678">
        <ele>685</ele>
        <time>2022-07-28T14:12:10Z</time>
      </trkpt>
      <trkpt lat="45.71322" lon="6.46677">
        <ele>685</ele>
        <time>2022-07-28T14:12:11Z</time>
      </trkpt>
      <trkpt lat="45.71323" lon="6.46676">
        <ele>685</ele>
        <time>2022-07-28T14:12:12Z</time>
      </trkpt>
      <trkpt lat="45.71324" lon="6.46674">
        <ele>685</ele>
        <time>2022-07-28T14:12:13Z</time>
      </trkpt>
      <trkpt lat="45.71324" lon="6.46673">
        <ele>685</ele>
        <time>2022-07-28T14:12:14Z</time>
      </trkpt>
      <trkpt lat="45.71325" lon="6.46672">
        <ele>685</ele>
        <time>2022-07-28T14:12:15Z</time>
      </trkpt>
      <trkpt lat="45.71325" lon="6.4667">
        <ele>685</ele>
        <time>2022-07-28T14:12:16Z</time>
      </trkpt>
      <trkpt lat="45.71326" lon="6.4667">
        <ele>685</ele>
        <time>2022-07-28T14:12:17Z</time>
      </trkpt>
      <trkpt lat="45.71327" lon="6.46669">
        <ele>685</ele>
        <time>2022-07-28T14:12:18Z</time>
      </trkpt>
      <trkpt lat="45.71327" lon="6.46668">
        <ele>685</ele>
        <time>2022-07-28T14:12:19Z</time>
      </trkpt>
      <trkpt lat="45.71328" lon="6.46667">
        <ele>685</ele>
        <time>2022-07-28T14:12:20Z</time>
      </trkpt>
      <trkpt lat="45.71328" lon="6.46666">
        <ele>685</ele>
        <time>2022-07-28T14:12:26Z</time>
      </trkpt>
      <trkpt lat="45.71329" lon="6.46666">
        <ele>684</ele>
        <time>2022-07-28T14:12:27Z</time>
      </trkpt>
      <trkpt lat="45.71329" lon="6.46665">
        <ele>684</ele>
        <time>2022-07-28T14:12:28Z</time>
      </trkpt>
      <trkpt lat="45.71329" lon="6.46664">
        <ele>684</ele>
        <time>2022-07-28T14:12:29Z</time>
      </trkpt>
      <trkpt lat="45.7133" lon="6.46663">
        <ele>684</ele>
        <time>2022-07-28T14:12:30Z</time>
      </trkpt>
      <trkpt lat="45.7133" lon="6.46661">
        <ele>684</ele>
        <time>2022-07-28T14:12:31Z</time>
      </trkpt>
      <trkpt lat="45.71331" lon="6.4666">
        <ele>684</ele>
        <time>2022-07-28T14:12:32Z</time>
      </trkpt>
      <trkpt lat="45.71331" lon="6.46659">
        <ele>684</ele>
        <time>2022-07-28T14:12:33Z</time>
      </trkpt>
      <trkpt lat="45.71332" lon="6.46657">
        <ele>684</ele>
        <time>2022-07-28T14:12:34Z</time>
      </trkpt>
      <trkpt lat="45.71332" lon="6.46656">
        <ele>684</ele>
        <time>2022-07-28T14:12:35Z</time>
      </trkpt>
      <trkpt lat="45.71333" lon="6.46655">
        <ele>684</ele>
        <time>2022-07-28T14:12:36Z</time>
      </trkpt>
      <trkpt lat="45.71333" lon="6.46654">
        <ele>683</ele>
        <time>2022-07-28T14:12:37Z</time>
      </trkpt>
      <trkpt lat="45.71334" lon="6.46652">
        <ele>683</ele>
        <time>2022-07-28T14:12:38Z</time>
      </trkpt>
      <trkpt lat="45.71334" lon="6.46651">
        <ele>683</ele>
        <time>2022-07-28T14:12:39Z</time>
      </trkpt>
      <trkpt lat="45.71335" lon="6.4665">
        <ele>683</ele>
        <time>2022-07-28T14:12:40Z</time>
      </trkpt>
      <trkpt lat="45.71335" lon="6.46649">
        <ele>683</ele>
        <time>2022-07-28T14:12:41Z</time>
      </trkpt>
      <trkpt lat="45.71336" lon="6.46648">
        <ele>683</ele>
        <time>2022-07-28T14:12:42Z</time>
      </trkpt>
      <trkpt lat="45.71337" lon="6.46647">
        <ele>683</ele>
        <time>2022-07-28T14:12:43Z</time>
      </trkpt>
      <trkpt lat="45.71337" lon="6.46646">
        <ele>683</ele>
        <time>2022-07-28T14:12:44Z</time>
      </trkpt>
      <trkpt lat="45.71338" lon="6.46645">
        <ele>683</ele>
        <time>2022-07-28T14:12:45Z</time>
      </trkpt>
      <trkpt lat="45.71339" lon="6.46643">
        <ele>683</ele>
        <time>2022-07-28T14:12:46Z</time>
      </trkpt>
      <trkpt lat="45.7134" lon="6.46643">
        <ele>682</ele>
        <time>2022-07-28T14:12:47Z</time>
      </trkpt>
      <trkpt lat="45.7134" lon="6.46642">
        <ele>682</ele>
        <time>2022-07-28T14:12:48Z</time>
      </trkpt>
      <trkpt lat="45.71341" lon="6.46641">
        <ele>682</ele>
        <time>2022-07-28T14:12:49Z</time>
      </trkpt>
      <trkpt lat="45.71342" lon="6.4664">
        <ele>682</ele>
        <time>2022-07-28T14:12:50Z</time>
      </trkpt>
      <trkpt lat="45.71342" lon="6.4664">
        <ele>682</ele>
        <time>2022-07-28T14:12:51Z</time>
      </trkpt>
      <trkpt lat="45.71343" lon="6.46639">
        <ele>681</ele>
        <time>2022-07-28T14:12:52Z</time>
      </trkpt>
      <trkpt lat="45.71344" lon="6.46638">
        <ele>681</ele>
        <time>2022-07-28T14:12:53Z</time>
      </trkpt>
      <trkpt lat="45.71344" lon="6.46638">
        <ele>681</ele>
        <time>2022-07-28T14:12:54Z</time>
      </trkpt>
      <trkpt lat="45.71345" lon="6.46637">
        <ele>681</ele>
        <time>2022-07-28T14:12:55Z</time>
      </trkpt>
      <trkpt lat="45.71346" lon="6.46637">
        <ele>681</ele>
        <time>2022-07-28T14:12:56Z</time>
      </trkpt>
      <trkpt lat="45.71347" lon="6.46636">
        <ele>681</ele>
        <time>2022-07-28T14:12:57Z</time>
      </trkpt>
      <trkpt lat="45.71348" lon="6.46635">
        <ele>681</ele>
        <time>2022-07-28T14:12:58Z</time>
      </trkpt>
      <trkpt lat="45.71348" lon="6.46635">
        <ele>681</ele>
        <time>2022-07-28T14:12:59Z</time>
      </trkpt>
      <trkpt lat="45.71348" lon="6.46634">
        <ele>681</ele>
        <time>2022-07-28T14:13:00Z</time>
      </trkpt>
      <trkpt lat="45.71348" lon="6.46633">
        <ele>681</ele>
        <time>2022-07-28T14:13:01Z</time>
      </trkpt>
      <trkpt lat="45.71348" lon="6.46632">
        <ele>680</ele>
        <time>2022-07-28T14:13:02Z</time>
      </trkpt>
      <trkpt lat="45.71349" lon="6.46631">
        <ele>680</ele>
        <time>2022-07-28T14:13:03Z</time>
      </trkpt>
      <trkpt lat="45.71349" lon="6.46631">
        <ele>680</ele>
        <time>2022-07-28T14:13:04Z</time>
      </trkpt>
      <trkpt lat="45.71349" lon="6.4663">
        <ele>680</ele>
        <time>2022-07-28T14:13:05Z</time>
      </trkpt>
      <trkpt lat="45.7135" lon="6.46629">
        <ele>680</ele>
        <time>2022-07-28T14:13:06Z</time>
      </trkpt>
      <trkpt lat="45.7135" lon="6.46628">
        <ele>679</ele>
        <time>2022-07-28T14:13:07Z</time>
      </trkpt>
      <trkpt lat="45.71351" lon="6.46627">
        <ele>679</ele>
        <time>2022-07-28T14:13:08Z</time>
      </trkpt>
      <trkpt lat="45.71351" lon="6.46626">
        <ele>679</ele>
        <time>2022-07-28T14:13:09Z</time>
      </trkpt>
      <trkpt lat="45.71352" lon="6.46625">
        <ele>679</ele>
        <time>2022-07-28T14:13:10Z</time>
      </trkpt>
      <trkpt lat="45.71352" lon="6.46625">
        <ele>679</ele>
        <time>2022-07-28T14:13:11Z</time>
      </trkpt>
      <trkpt lat="45.71353" lon="6.46624">
        <ele>678</ele>
        <time>2022-07-28T14:13:12Z</time>
      </trkpt>
      <trkpt lat="45.71354" lon="6.46623">
        <ele>678</ele>
        <time>2022-07-28T14:13:13Z</time>
      </trkpt>
      <trkpt lat="45.71354" lon="6.46623">
        <ele>678</ele>
        <time>2022-07-28T14:13:14Z</time>
      </trkpt>
      <trkpt lat="45.71355" lon="6.46622">
        <ele>678</ele>
        <time>2022-07-28T14:13:15Z</time>
      </trkpt>
      <trkpt lat="45.71356" lon="6.46621">
        <ele>678</ele>
        <time>2022-07-28T14:13:16Z</time>
      </trkpt>
      <trkpt lat="45.71356" lon="6.46621">
        <ele>677</ele>
        <time>2022-07-28T14:13:17Z</time>
      </trkpt>
      <trkpt lat="45.71357" lon="6.4662">
        <ele>677</ele>
        <time>2022-07-28T14:13:18Z</time>
      </trkpt>
      <trkpt lat="45.71358" lon="6.4662">
        <ele>676</ele>
        <time>2022-07-28T14:13:19Z</time>
      </trkpt>
      <trkpt lat="45.71359" lon="6.46619">
        <ele>676</ele>
        <time>2022-07-28T14:13:20Z</time>
      </trkpt>
      <trkpt lat="45.71359" lon="6.46618">
        <ele>676</ele>
        <time>2022-07-28T14:13:21Z</time>
      </trkpt>
      <trkpt lat="45.7136" lon="6.46617">
        <ele>675</ele>
        <time>2022-07-28T14:13:22Z</time>
      </trkpt>
      <trkpt lat="45.71361" lon="6.46616">
        <ele>675</ele>
        <time>2022-07-28T14:13:23Z</time>
      </trkpt>
      <trkpt lat="45.71361" lon="6.46615">
        <ele>675</ele>
        <time>2022-07-28T14:13:24Z</time>
      </trkpt>
      <trkpt lat="45.71362" lon="6.46615">
        <ele>675</ele>
        <time>2022-07-28T14:13:25Z</time>
      </trkpt>
      <trkpt lat="45.71363" lon="6.46614">
        <ele>675</ele>
        <time>2022-07-28T14:13:26Z</time>
      </trkpt>
      <trkpt lat="45.71364" lon="6.46613">
        <ele>674</ele>
        <time>2022-07-28T14:13:27Z</time>
      </trkpt>
      <trkpt lat="45.71364" lon="6.46613">
        <ele>674</ele>
        <time>2022-07-28T14:13:28Z</time>
      </trkpt>
      <trkpt lat="45.71365" lon="6.46612">
        <ele>674</ele>
        <time>2022-07-28T14:13:29Z</time>
      </trkpt>
      <trkpt lat="45.71366" lon="6.46612">
        <ele>674</ele>
        <time>2022-07-28T14:13:30Z</time>
      </trkpt>
      <trkpt lat="45.71367" lon="6.46611">
        <ele>674</ele>
        <time>2022-07-28T14:13:31Z</time>
      </trkpt>
      <trkpt lat="45.71367" lon="6.4661">
        <ele>673</ele>
        <time>2022-07-28T14:13:32Z</time>
      </trkpt>
      <trkpt lat="45.71368" lon="6.46609">
        <ele>673</ele>
        <time>2022-07-28T14:13:33Z</time>
      </trkpt>
      <trkpt lat="45.71369" lon="6.46608">
        <ele>673</ele>
        <time>2022-07-28T14:13:34Z</time>
      </trkpt>
      <trkpt lat="45.71369" lon="6.46607">
        <ele>673</ele>
        <time>2022-07-28T14:13:35Z</time>
      </trkpt>
      <trkpt lat="45.7137" lon="6.46606">
        <ele>673</ele>
        <time>2022-07-28T14:13:36Z</time>
      </trkpt>
      <trkpt lat="45.71371" lon="6.46605">
        <ele>672</ele>
        <time>2022-07-28T14:13:37Z</time>
      </trkpt>
      <trkpt lat="45.71371" lon="6.46604">
        <ele>672</ele>
        <time>2022-07-28T14:13:38Z</time>
      </trkpt>
      <trkpt lat="45.71372" lon="6.46603">
        <ele>672</ele>
        <time>2022-07-28T14:13:39Z</time>
      </trkpt>
      <trkpt lat="45.71373" lon="6.46602">
        <ele>672</ele>
        <time>2022-07-28T14:13:40Z</time>
      </trkpt>
      <trkpt lat="45.71373" lon="6.46602">
        <ele>672</ele>
        <time>2022-07-28T14:13:41Z</time>
      </trkpt>
      <trkpt lat="45.71374" lon="6.46601">
        <ele>671</ele>
        <time>2022-07-28T14:13:42Z</time>
      </trkpt>
      <trkpt lat="45.71375" lon="6.466">
        <ele>671</ele>
        <time>2022-07-28T14:13:43Z</time>
      </trkpt>
      <trkpt lat="45.71375" lon="6.46599">
        <ele>671</ele>
        <time>2022-07-28T14:13:44Z</time>
      </trkpt>
      <trkpt lat="45.71376" lon="6.46598">
        <ele>671</ele>
        <time>2022-07-28T14:13:45Z</time>
      </trkpt>
      <trkpt lat="45.71377" lon="6.46597">
        <ele>671</ele>
        <time>2022-07-28T14:13:46Z</time>
      </trkpt>
      <trkpt lat="45.71377" lon="6.46596">
        <ele>670</ele>
        <time>2022-07-28T14:13:47Z</time>
      </trkpt>
      <trkpt lat="45.71378" lon="6.46595">
        <ele>670</ele>
        <time>2022-07-28T14:13:48Z</time>
      </trkpt>
      <trkpt lat="45.71379" lon="6.46594">
        <ele>670</ele>
        <time>2022-07-28T14:13:49Z</time>
      </trkpt>
      <trkpt lat="45.71379" lon="6.46593">
        <ele>670</ele>
        <time>2022-07-28T14:13:50Z</time>
      </trkpt>
      <trkpt lat="45.71379" lon="6.46592">
        <ele>670</ele>
        <time>2022-07-28T14:13:51Z</time>
      </trkpt>
      <trkpt lat="45.7138" lon="6.46591">
        <ele>669</ele>
        <time>2022-07-28T14:13:52Z</time>
      </trkpt>
      <trkpt lat="45.7138" lon="6.4659">
        <ele>669</ele>
        <time>2022-07-28T14:13:53Z</time>
      </trkpt>
      <trkpt lat="45.7138" lon="6.46589">
        <ele>669</ele>
        <time>2022-07-28T14:13:54Z</time>
      </trkpt>
      <trkpt lat="45.7138" lon="6.46589">
        <ele>669</ele>
        <time>2022-07-28T14:13:55Z</time>
      </trkpt>
      <trkpt lat="45.71381" lon="6.46588">
        <ele>669</ele>
        <time>2022-07-28T14:13:56Z</time>
      </trkpt>
      <trkpt lat="45.71381" lon="6.46587">
        <ele>669</ele>
        <time>2022-07-28T14:13:57Z</time>
      </trkpt>
      <trkpt lat="45.71381" lon="6.46586">
        <ele>669</ele>
        <time>2022-07-28T14:13:58Z</time>
      </trkpt>
      <trkpt lat="45.71382" lon="6.46586">
        <ele>669</ele>
        <time>2022-07-28T14:13:59Z</time>
      </trkpt>
      <trkpt lat="45.71383" lon="6.46585">
        <ele>669</ele>
        <time>2022-07-28T14:14:00Z</time>
      </trkpt>
      <trkpt lat="45.71383" lon="6.46584">
        <ele>669</ele>
        <time>2022-07-28T14:14:01Z</time>
      </trkpt>
      <trkpt lat="45.71384" lon="6.46583">
        <ele>668</ele>
        <time>2022-07-28T14:14:02Z</time>
      </trkpt>
      <trkpt lat="45.71384" lon="6.46583">
        <ele>668</ele>
        <time>2022-07-28T14:14:03Z</time>
      </trkpt>
      <trkpt lat="45.71385" lon="6.46582">
        <ele>668</ele>
        <time>2022-07-28T14:14:04Z</time>
      </trkpt>
      <trkpt lat="45.71386" lon="6.46581">
        <ele>668</ele>
        <time>2022-07-28T14:14:05Z</time>
      </trkpt>
      <trkpt lat="45.71386" lon="6.4658">
        <ele>668</ele>
        <time>2022-07-28T14:14:06Z</time>
      </trkpt>
      <trkpt lat="45.71387" lon="6.4658">
        <ele>667</ele>
        <time>2022-07-28T14:14:07Z</time>
      </trkpt>
      <trkpt lat="45.71387" lon="6.46579">
        <ele>667</ele>
        <time>2022-07-28T14:14:08Z</time>
      </trkpt>
      <trkpt lat="45.71388" lon="6.46578">
        <ele>667</ele>
        <time>2022-07-28T14:14:09Z</time>
      </trkpt>
      <trkpt lat="45.71388" lon="6.46577">
        <ele>667</ele>
        <time>2022-07-28T14:14:10Z</time>
      </trkpt>
      <trkpt lat="45.71389" lon="6.46576">
        <ele>667</ele>
        <time>2022-07-28T14:14:11Z</time>
      </trkpt>
      <trkpt lat="45.7139" lon="6.46576">
        <ele>666</ele>
        <time>2022-07-28T14:14:12Z</time>
      </trkpt>
      <trkpt lat="45.7139" lon="6.46575">
        <ele>665</ele>
        <time>2022-07-28T14:14:13Z</time>
      </trkpt>
      <trkpt lat="45.71391" lon="6.46574">
        <ele>665</ele>
        <time>2022-07-28T14:14:14Z</time>
      </trkpt>
      <trkpt lat="45.71391" lon="6.46574">
        <ele>664</ele>
        <time>2022-07-28T14:14:15Z</time>
      </trkpt>
      <trkpt lat="45.71392" lon="6.46574">
        <ele>664</ele>
        <time>2022-07-28T14:14:16Z</time>
      </trkpt>
      <trkpt lat="45.71392" lon="6.46573">
        <ele>664</ele>
        <time>2022-07-28T14:14:17Z</time>
      </trkpt>
      <trkpt lat="45.71393" lon="6.46573">
        <ele>664</ele>
        <time>2022-07-28T14:14:18Z</time>
      </trkpt>
      <trkpt lat="45.71394" lon="6.46572">
        <ele>664</ele>
        <time>2022-07-28T14:14:19Z</time>
      </trkpt>
      <trkpt lat="45.71394" lon="6.46572">
        <ele>664</ele>
        <time>2022-07-28T14:14:20Z</time>
      </trkpt>
      <trkpt lat="45.71395" lon="6.46571">
        <ele>664</ele>
        <time>2022-07-28T14:14:21Z</time>
      </trkpt>
      <trkpt lat="45.71395" lon="6.46571">
        <ele>663</ele>
        <time>2022-07-28T14:14:22Z</time>
      </trkpt>
      <trkpt lat="45.71396" lon="6.4657">
        <ele>663</ele>
        <time>2022-07-28T14:14:23Z</time>
      </trkpt>
      <trkpt lat="45.71396" lon="6.4657">
        <ele>662</ele>
        <time>2022-07-28T14:14:24Z</time>
      </trkpt>
      <trkpt lat="45.71397" lon="6.46569">
        <ele>662</ele>
        <time>2022-07-28T14:14:25Z</time>
      </trkpt>
      <trkpt lat="45.71397" lon="6.46569">
        <ele>662</ele>
        <time>2022-07-28T14:14:26Z</time>
      </trkpt>
      <trkpt lat="45.71398" lon="6.46568">
        <ele>661</ele>
        <time>2022-07-28T14:14:27Z</time>
      </trkpt>
      <trkpt lat="45.71398" lon="6.46568">
        <ele>661</ele>
        <time>2022-07-28T14:14:28Z</time>
      </trkpt>
      <trkpt lat="45.71399" lon="6.46567">
        <ele>661</ele>
        <time>2022-07-28T14:14:29Z</time>
      </trkpt>
      <trkpt lat="45.71399" lon="6.46566">
        <ele>661</ele>
        <time>2022-07-28T14:14:30Z</time>
      </trkpt>
      <trkpt lat="45.714" lon="6.46566">
        <ele>661</ele>
        <time>2022-07-28T14:14:31Z</time>
      </trkpt>
      <trkpt lat="45.714" lon="6.46565">
        <ele>660</ele>
        <time>2022-07-28T14:14:32Z</time>
      </trkpt>
      <trkpt lat="45.71401" lon="6.46564">
        <ele>660</ele>
        <time>2022-07-28T14:14:33Z</time>
      </trkpt>
      <trkpt lat="45.71401" lon="6.46564">
        <ele>660</ele>
        <time>2022-07-28T14:14:34Z</time>
      </trkpt>
      <trkpt lat="45.71402" lon="6.46563">
        <ele>660</ele>
        <time>2022-07-28T14:14:35Z</time>
      </trkpt>
      <trkpt lat="45.71402" lon="6.46562">
        <ele>660</ele>
        <time>2022-07-28T14:14:36Z</time>
      </trkpt>
      <trkpt lat="45.71403" lon="6.46562">
        <ele>659</ele>
        <time>2022-07-28T14:14:37Z</time>
      </trkpt>
      <trkpt lat="45.71403" lon="6.46561">
        <ele>659</ele>
        <time>2022-07-28T14:14:38Z</time>
      </trkpt>
      <trkpt lat="45.71403" lon="6.4656">
        <ele>659</ele>
        <time>2022-07-28T14:14:39Z</time>
      </trkpt>
      <trkpt lat="45.71404" lon="6.46559">
        <ele>659</ele>
        <time>2022-07-28T14:14:40Z</time>
      </trkpt>
      <trkpt lat="45.71404" lon="6.46558">
        <ele>659</ele>
        <time>2022-07-28T14:14:41Z</time>
      </trkpt>
      <trkpt lat="45.71405" lon="6.46557">
        <ele>658</ele>
        <time>2022-07-28T14:14:42Z</time>
      </trkpt>
      <trkpt lat="45.71405" lon="6.46556">
        <ele>658</ele>
        <time>2022-07-28T14:14:43Z</time>
      </trkpt>
      <trkpt lat="45.71406" lon="6.46555">
        <ele>658</ele>
        <time>2022-07-28T14:14:44Z</time>
      </trkpt>
      <trkpt lat="45.71406" lon="6.46553">
        <ele>658</ele>
        <time>2022-07-28T14:14:45Z</time>
      </trkpt>
      <trkpt lat="45.71406" lon="6.46552">
        <ele>658</ele>
        <time>2022-07-28T14:14:46Z</time>
      </trkpt>
      <trkpt lat="45.71407" lon="6.46551">
        <ele>657</ele>
        <time>2022-07-28T14:14:47Z</time>
      </trkpt>
      <trkpt lat="45.71407" lon="6.4655">
        <ele>657</ele>
        <time>2022-07-28T14:14:48Z</time>
      </trkpt>
      <trkpt lat="45.71407" lon="6.46549">
        <ele>657</ele>
        <time>2022-07-28T14:14:49Z</time>
      </trkpt>
      <trkpt lat="45.71408" lon="6.46548">
        <ele>657</ele>
        <time>2022-07-28T14:14:50Z</time>
      </trkpt>
      <trkpt lat="45.71408" lon="6.46546">
        <ele>657</ele>
        <time>2022-07-28T14:14:51Z</time>
      </trkpt>
      <trkpt lat="45.71408" lon="6.46545">
        <ele>656</ele>
        <time>2022-07-28T14:14:52Z</time>
      </trkpt>
      <trkpt lat="45.71409" lon="6.46544">
        <ele>656</ele>
        <time>2022-07-28T14:14:53Z</time>
      </trkpt>
      <trkpt lat="45.71409" lon="6.46543">
        <ele>656</ele>
        <time>2022-07-28T14:14:54Z</time>
      </trkpt>
      <trkpt lat="45.7141" lon="6.46542">
        <ele>656</ele>
        <time>2022-07-28T14:14:55Z</time>
      </trkpt>
      <trkpt lat="45.7141" lon="6.46541">
        <ele>656</ele>
        <time>2022-07-28T14:14:56Z</time>
      </trkpt>
      <trkpt lat="45.71411" lon="6.4654">
        <ele>655</ele>
        <time>2022-07-28T14:14:57Z</time>
      </trkpt>
      <trkpt lat="45.71411" lon="6.46538">
        <ele>655</ele>
        <time>2022-07-28T14:14:58Z</time>
      </trkpt>
      <trkpt lat="45.71412" lon="6.46537">
        <ele>655</ele>
        <time>2022-07-28T14:14:59Z</time>
      </trkpt>
      <trkpt lat="45.71412" lon="6.46536">
        <ele>655</ele>
        <time>2022-07-28T14:15:00Z</time>
      </trkpt>
      <trkpt lat="45.71412" lon="6.46535">
        <ele>655</ele>
        <time>2022-07-28T14:15:01Z</time>
      </trkpt>
      <trkpt lat="45.71413" lon="6.46534">
        <ele>654</ele>
        <time>2022-07-28T14:15:02Z</time>
      </trkpt>
      <trkpt lat="45.71413" lon="6.46533">
        <ele>654</ele>
        <time>2022-07-28T14:15:03Z</time>
      </trkpt>
      <trkpt lat="45.71413" lon="6.46532">
        <ele>654</ele>
        <time>2022-07-28T14:15:04Z</time>
      </trkpt>
      <trkpt lat="45.71414" lon="6.46531">
        <ele>654</ele>
        <time>2022-07-28T14:15:05Z</time>
      </trkpt>
      <trkpt lat="45.71414" lon="6.4653">
        <ele>654</ele>
        <time>2022-07-28T14:15:06Z</time>
      </trkpt>
      <trkpt lat="45.71415" lon="6.46528">
        <ele>653</ele>
        <time>2022-07-28T14:15:07Z</time>
      </trkpt>
      <trkpt lat="45.71415" lon="6.46528">
        <ele>653</ele>
        <time>2022-07-28T14:15:08Z</time>
      </trkpt>
      <trkpt lat="45.71415" lon="6.46527">
        <ele>653</ele>
        <time>2022-07-28T14:15:09Z</time>
      </trkpt>
      <trkpt lat="45.71416" lon="6.46526">
        <ele>653</ele>
        <time>2022-07-28T14:15:10Z</time>
      </trkpt>
      <trkpt lat="45.71416" lon="6.46525">
        <ele>653</ele>
        <time>2022-07-28T14:15:11Z</time>
      </trkpt>
      <trkpt lat="45.71416" lon="6.46524">
        <ele>652</ele>
        <time>2022-07-28T14:15:12Z</time>
      </trkpt>
      <trkpt lat="45.71416" lon="6.46523">
        <ele>652</ele>
        <time>2022-07-28T14:15:13Z</time>
      </trkpt>
      <trkpt lat="45.71417" lon="6.46522">
        <ele>652</ele>
        <time>2022-07-28T14:15:14Z</time>
      </trkpt>
      <trkpt lat="45.71417" lon="6.46521">
        <ele>652</ele>
        <time>2022-07-28T14:15:15Z</time>
      </trkpt>
      <trkpt lat="45.71417" lon="6.4652">
        <ele>652</ele>
        <time>2022-07-28T14:15:16Z</time>
      </trkpt>
      <trkpt lat="45.71418" lon="6.4652">
        <ele>651</ele>
        <time>2022-07-28T14:15:17Z</time>
      </trkpt>
      <trkpt lat="45.71418" lon="6.46519">
        <ele>651</ele>
        <time>2022-07-28T14:15:18Z</time>
      </trkpt>
      <trkpt lat="45.71419" lon="6.46518">
        <ele>651</ele>
        <time>2022-07-28T14:15:19Z</time>
      </trkpt>
      <trkpt lat="45.71419" lon="6.46518">
        <ele>651</ele>
        <time>2022-07-28T14:15:20Z</time>
      </trkpt>
      <trkpt lat="45.7142" lon="6.46517">
        <ele>651</ele>
        <time>2022-07-28T14:15:21Z</time>
      </trkpt>
      <trkpt lat="45.7142" lon="6.46517">
        <ele>650</ele>
        <time>2022-07-28T14:15:22Z</time>
      </trkpt>
      <trkpt lat="45.7142" lon="6.46516">
        <ele>650</ele>
        <time>2022-07-28T14:15:23Z</time>
      </trkpt>
      <trkpt lat="45.71421" lon="6.46515">
        <ele>650</ele>
        <time>2022-07-28T14:15:24Z</time>
      </trkpt>
      <trkpt lat="45.71421" lon="6.46515">
        <ele>650</ele>
        <time>2022-07-28T14:15:25Z</time>
      </trkpt>
      <trkpt lat="45.71422" lon="6.46514">
        <ele>650</ele>
        <time>2022-07-28T14:15:26Z</time>
      </trkpt>
      <trkpt lat="45.71422" lon="6.46514">
        <ele>650</ele>
        <time>2022-07-28T14:15:27Z</time>
      </trkpt>
      <trkpt lat="45.71423" lon="6.46514">
        <ele>650</ele>
        <time>2022-07-28T14:15:28Z</time>
      </trkpt>
      <trkpt lat="45.71423" lon="6.46513">
        <ele>650</ele>
        <time>2022-07-28T14:15:29Z</time>
      </trkpt>
      <trkpt lat="45.71423" lon="6.46513">
        <ele>650</ele>
        <time>2022-07-28T14:15:30Z</time>
      </trkpt>
      <trkpt lat="45.71424" lon="6.46513">
        <ele>650</ele>
        <time>2022-07-28T14:15:31Z</time>
      </trkpt>
      <trkpt lat="45.71424" lon="6.46512">
        <ele>649</ele>
        <time>2022-07-28T14:15:32Z</time>
      </trkpt>
      <trkpt lat="45.71424" lon="6.46511">
        <ele>649</ele>
        <time>2022-07-28T14:15:33Z</time>
      </trkpt>
      <trkpt lat="45.71424" lon="6.4651">
        <ele>649</ele>
        <time>2022-07-28T14:15:34Z</time>
      </trkpt>
      <trkpt lat="45.71424" lon="6.46509">
        <ele>649</ele>
        <time>2022-07-28T14:15:35Z</time>
      </trkpt>
      <trkpt lat="45.71424" lon="6.46508">
        <ele>649</ele>
        <time>2022-07-28T14:15:36Z</time>
      </trkpt>
      <trkpt lat="45.71424" lon="6.46507">
        <ele>648</ele>
        <time>2022-07-28T14:15:37Z</time>
      </trkpt>
      <trkpt lat="45.71424" lon="6.46506">
        <ele>648</ele>
        <time>2022-07-28T14:15:38Z</time>
      </trkpt>
      <trkpt lat="45.71424" lon="6.46506">
        <ele>648</ele>
        <time>2022-07-28T14:15:39Z</time>
      </trkpt>
      <trkpt lat="45.71424" lon="6.46506">
        <ele>648</ele>
        <time>2022-07-28T14:15:40Z</time>
      </trkpt>
      <trkpt lat="45.71424" lon="6.46506">
        <ele>648</ele>
        <time>2022-07-28T14:15:41Z</time>
      </trkpt>
      <trkpt lat="45.71424" lon="6.46505">
        <ele>647</ele>
        <time>2022-07-28T14:15:42Z</time>
      </trkpt>
      <trkpt lat="45.71424" lon="6.46504">
        <ele>647</ele>
        <time>2022-07-28T14:15:43Z</time>
      </trkpt>
      <trkpt lat="45.71423" lon="6.46503">
        <ele>647</ele>
        <time>2022-07-28T14:15:44Z</time>
      </trkpt>
      <trkpt lat="45.71423" lon="6.46503">
        <ele>647</ele>
        <time>2022-07-28T14:15:45Z</time>
      </trkpt>
      <trkpt lat="45.71423" lon="6.46502">
        <ele>647</ele>
        <time>2022-07-28T14:15:46Z</time>
      </trkpt>
      <trkpt lat="45.71423" lon="6.46501">
        <ele>646</ele>
        <time>2022-07-28T14:15:47Z</time>
      </trkpt>
      <trkpt lat="45.71423" lon="6.465">
        <ele>646</ele>
        <time>2022-07-28T14:15:48Z</time>
      </trkpt>
      <trkpt lat="45.71423" lon="6.46499">
        <ele>645</ele>
        <time>2022-07-28T14:15:49Z</time>
      </trkpt>
      <trkpt lat="45.71423" lon="6.46498">
        <ele>645</ele>
        <time>2022-07-28T14:15:50Z</time>
      </trkpt>
      <trkpt lat="45.71423" lon="6.46497">
        <ele>645</ele>
        <time>2022-07-28T14:15:51Z</time>
      </trkpt>
      <trkpt lat="45.71424" lon="6.46496">
        <ele>645</ele>
        <time>2022-07-28T14:15:52Z</time>
      </trkpt>
      <trkpt lat="45.71424" lon="6.46495">
        <ele>645</ele>
        <time>2022-07-28T14:15:53Z</time>
      </trkpt>
      <trkpt lat="45.71424" lon="6.46494">
        <ele>645</ele>
        <time>2022-07-28T14:15:54Z</time>
      </trkpt>
      <trkpt lat="45.71425" lon="6.46494">
        <ele>645</ele>
        <time>2022-07-28T14:15:55Z</time>
      </trkpt>
      <trkpt lat="45.71425" lon="6.46493">
        <ele>645</ele>
        <time>2022-07-28T14:15:56Z</time>
      </trkpt>
      <trkpt lat="45.71426" lon="6.46492">
        <ele>644</ele>
        <time>2022-07-28T14:15:57Z</time>
      </trkpt>
      <trkpt lat="45.71427" lon="6.46491">
        <ele>644</ele>
        <time>2022-07-28T14:15:58Z</time>
      </trkpt>
      <trkpt lat="45.71427" lon="6.46491">
        <ele>644</ele>
        <time>2022-07-28T14:15:59Z</time>
      </trkpt>
      <trkpt lat="45.71428" lon="6.4649">
        <ele>644</ele>
        <time>2022-07-28T14:16:00Z</time>
      </trkpt>
      <trkpt lat="45.71429" lon="6.4649">
        <ele>644</ele>
        <time>2022-07-28T14:16:01Z</time>
      </trkpt>
      <trkpt lat="45.7143" lon="6.4649">
        <ele>643</ele>
        <time>2022-07-28T14:16:02Z</time>
      </trkpt>
      <trkpt lat="45.7143" lon="6.4649">
        <ele>643</ele>
        <time>2022-07-28T14:16:03Z</time>
      </trkpt>
      <trkpt lat="45.71431" lon="6.4649">
        <ele>643</ele>
        <time>2022-07-28T14:16:04Z</time>
      </trkpt>
      <trkpt lat="45.71432" lon="6.46491">
        <ele>643</ele>
        <time>2022-07-28T14:16:05Z</time>
      </trkpt>
      <trkpt lat="45.71432" lon="6.46491">
        <ele>643</ele>
        <time>2022-07-28T14:16:06Z</time>
      </trkpt>
      <trkpt lat="45.71433" lon="6.46491">
        <ele>642</ele>
        <time>2022-07-28T14:16:07Z</time>
      </trkpt>
      <trkpt lat="45.71434" lon="6.46491">
        <ele>642</ele>
        <time>2022-07-28T14:16:08Z</time>
      </trkpt>
      <trkpt lat="45.71434" lon="6.46492">
        <ele>642</ele>
        <time>2022-07-28T14:16:09Z</time>
      </trkpt>
      <trkpt lat="45.71434" lon="6.46492">
        <ele>642</ele>
        <time>2022-07-28T14:16:10Z</time>
      </trkpt>
      <trkpt lat="45.71435" lon="6.46492">
        <ele>642</ele>
        <time>2022-07-28T14:16:11Z</time>
      </trkpt>
      <trkpt lat="45.71435" lon="6.46492">
        <ele>641</ele>
        <time>2022-07-28T14:16:12Z</time>
      </trkpt>
      <trkpt lat="45.71436" lon="6.46492">
        <ele>641</ele>
        <time>2022-07-28T14:16:13Z</time>
      </trkpt>
      <trkpt lat="45.71436" lon="6.46492">
        <ele>641</ele>
        <time>2022-07-28T14:16:14Z</time>
      </trkpt>
      <trkpt lat="45.71437" lon="6.46492">
        <ele>641</ele>
        <time>2022-07-28T14:16:15Z</time>
      </trkpt>
      <trkpt lat="45.71438" lon="6.46492">
        <ele>641</ele>
        <time>2022-07-28T14:16:16Z</time>
      </trkpt>
      <trkpt lat="45.71438" lon="6.46492">
        <ele>640</ele>
        <time>2022-07-28T14:16:17Z</time>
      </trkpt>
      <trkpt lat="45.71439" lon="6.46492">
        <ele>640</ele>
        <time>2022-07-28T14:16:18Z</time>
      </trkpt>
      <trkpt lat="45.71439" lon="6.46492">
        <ele>640</ele>
        <time>2022-07-28T14:16:19Z</time>
      </trkpt>
      <trkpt lat="45.7144" lon="6.46492">
        <ele>640</ele>
        <time>2022-07-28T14:16:20Z</time>
      </trkpt>
      <trkpt lat="45.71441" lon="6.46492">
        <ele>640</ele>
        <time>2022-07-28T14:16:21Z</time>
      </trkpt>
      <trkpt lat="45.71441" lon="6.46492">
        <ele>639</ele>
        <time>2022-07-28T14:16:22Z</time>
      </trkpt>
      <trkpt lat="45.71442" lon="6.46493">
        <ele>639</ele>
        <time>2022-07-28T14:16:23Z</time>
      </trkpt>
      <trkpt lat="45.71443" lon="6.46492">
        <ele>638</ele>
        <time>2022-07-28T14:16:24Z</time>
      </trkpt>
      <trkpt lat="45.71443" lon="6.46492">
        <ele>638</ele>
        <time>2022-07-28T14:16:25Z</time>
      </trkpt>
      <trkpt lat="45.71444" lon="6.46492">
        <ele>638</ele>
        <time>2022-07-28T14:16:26Z</time>
      </trkpt>
      <trkpt lat="45.71445" lon="6.46492">
        <ele>637</ele>
        <time>2022-07-28T14:16:27Z</time>
      </trkpt>
      <trkpt lat="45.71446" lon="6.46491">
        <ele>637</ele>
        <time>2022-07-28T14:16:28Z</time>
      </trkpt>
      <trkpt lat="45.71447" lon="6.46491">
        <ele>637</ele>
        <time>2022-07-28T14:16:29Z</time>
      </trkpt>
      <trkpt lat="45.71448" lon="6.46491">
        <ele>637</ele>
        <time>2022-07-28T14:16:30Z</time>
      </trkpt>
      <trkpt lat="45.71449" lon="6.4649">
        <ele>637</ele>
        <time>2022-07-28T14:16:31Z</time>
      </trkpt>
      <trkpt lat="45.7145" lon="6.4649">
        <ele>636</ele>
        <time>2022-07-28T14:16:32Z</time>
      </trkpt>
      <trkpt lat="45.7145" lon="6.46489">
        <ele>636</ele>
        <time>2022-07-28T14:16:33Z</time>
      </trkpt>
      <trkpt lat="45.71451" lon="6.46489">
        <ele>636</ele>
        <time>2022-07-28T14:16:34Z</time>
      </trkpt>
      <trkpt lat="45.71451" lon="6.46489">
        <ele>636</ele>
        <time>2022-07-28T14:16:35Z</time>
      </trkpt>
      <trkpt lat="45.71452" lon="6.46489">
        <ele>636</ele>
        <time>2022-07-28T14:16:36Z</time>
      </trkpt>
      <trkpt lat="45.71453" lon="6.46489">
        <ele>635</ele>
        <time>2022-07-28T14:16:37Z</time>
      </trkpt>
      <trkpt lat="45.71454" lon="6.46488">
        <ele>635</ele>
        <time>2022-07-28T14:16:38Z</time>
      </trkpt>
      <trkpt lat="45.71454" lon="6.46488">
        <ele>635</ele>
        <time>2022-07-28T14:16:39Z</time>
      </trkpt>
      <trkpt lat="45.71455" lon="6.46487">
        <ele>635</ele>
        <time>2022-07-28T14:16:40Z</time>
      </trkpt>
      <trkpt lat="45.71456" lon="6.46487">
        <ele>635</ele>
        <time>2022-07-28T14:16:41Z</time>
      </trkpt>
      <trkpt lat="45.71457" lon="6.46486">
        <ele>634</ele>
        <time>2022-07-28T14:16:42Z</time>
      </trkpt>
      <trkpt lat="45.71458" lon="6.46485">
        <ele>634</ele>
        <time>2022-07-28T14:16:43Z</time>
      </trkpt>
      <trkpt lat="45.71458" lon="6.46483">
        <ele>634</ele>
        <time>2022-07-28T14:16:44Z</time>
      </trkpt>
      <trkpt lat="45.71459" lon="6.46482">
        <ele>634</ele>
        <time>2022-07-28T14:16:45Z</time>
      </trkpt>
      <trkpt lat="45.71459" lon="6.4648">
        <ele>634</ele>
        <time>2022-07-28T14:16:46Z</time>
      </trkpt>
      <trkpt lat="45.7146" lon="6.46479">
        <ele>633</ele>
        <time>2022-07-28T14:16:47Z</time>
      </trkpt>
      <trkpt lat="45.7146" lon="6.46477">
        <ele>633</ele>
        <time>2022-07-28T14:16:48Z</time>
      </trkpt>
      <trkpt lat="45.7146" lon="6.46475">
        <ele>633</ele>
        <time>2022-07-28T14:16:49Z</time>
      </trkpt>
      <trkpt lat="45.71461" lon="6.46474">
        <ele>633</ele>
        <time>2022-07-28T14:16:50Z</time>
      </trkpt>
      <trkpt lat="45.71461" lon="6.46473">
        <ele>633</ele>
        <time>2022-07-28T14:16:51Z</time>
      </trkpt>
      <trkpt lat="45.71462" lon="6.46472">
        <ele>632</ele>
        <time>2022-07-28T14:16:52Z</time>
      </trkpt>
      <trkpt lat="45.71463" lon="6.46471">
        <ele>632</ele>
        <time>2022-07-28T14:16:53Z</time>
      </trkpt>
      <trkpt lat="45.71465" lon="6.4647">
        <ele>632</ele>
        <time>2022-07-28T14:16:54Z</time>
      </trkpt>
      <trkpt lat="45.71466" lon="6.46469">
        <ele>632</ele>
        <time>2022-07-28T14:16:55Z</time>
      </trkpt>
      <trkpt lat="45.71467" lon="6.46468">
        <ele>632</ele>
        <time>2022-07-28T14:16:56Z</time>
      </trkpt>
      <trkpt lat="45.71468" lon="6.46467">
        <ele>631</ele>
        <time>2022-07-28T14:16:57Z</time>
      </trkpt>
      <trkpt lat="45.71469" lon="6.46466">
        <ele>631</ele>
        <time>2022-07-28T14:16:58Z</time>
      </trkpt>
      <trkpt lat="45.7147" lon="6.46465">
        <ele>631</ele>
        <time>2022-07-28T14:16:59Z</time>
      </trkpt>
      <trkpt lat="45.71471" lon="6.46463">
        <ele>631</ele>
        <time>2022-07-28T14:17:00Z</time>
      </trkpt>
      <trkpt lat="45.71472" lon="6.46462">
        <ele>631</ele>
        <time>2022-07-28T14:17:01Z</time>
      </trkpt>
      <trkpt lat="45.71473" lon="6.46461">
        <ele>631</ele>
        <time>2022-07-28T14:17:02Z</time>
      </trkpt>
      <trkpt lat="45.71473" lon="6.4646">
        <ele>631</ele>
        <time>2022-07-28T14:17:03Z</time>
      </trkpt>
      <trkpt lat="45.71474" lon="6.46459">
        <ele>631</ele>
        <time>2022-07-28T14:17:04Z</time>
      </trkpt>
      <trkpt lat="45.71474" lon="6.46457">
        <ele>631</ele>
        <time>2022-07-28T14:17:05Z</time>
      </trkpt>
      <trkpt lat="45.71474" lon="6.46456">
        <ele>631</ele>
        <time>2022-07-28T14:17:06Z</time>
      </trkpt>
      <trkpt lat="45.71475" lon="6.46455">
        <ele>631</ele>
        <time>2022-07-28T14:17:07Z</time>
      </trkpt>
      <trkpt lat="45.71475" lon="6.46454">
        <ele>631</ele>
        <time>2022-07-28T14:17:08Z</time>
      </trkpt>
      <trkpt lat="45.71475" lon="6.46452">
        <ele>631</ele>
        <time>2022-07-28T14:17:09Z</time>
      </trkpt>
      <trkpt lat="45.71475" lon="6.46451">
        <ele>631</ele>
        <time>2022-07-28T14:17:10Z</time>
      </trkpt>
      <trkpt lat="45.71475" lon="6.4645">
        <ele>631</ele>
        <time>2022-07-28T14:17:11Z</time>
      </trkpt>
      <trkpt lat="45.71475" lon="6.46449">
        <ele>631</ele>
        <time>2022-07-28T14:17:12Z</time>
      </trkpt>
      <trkpt lat="45.71474" lon="6.46448">
        <ele>631</ele>
        <time>2022-07-28T14:17:13Z</time>
      </trkpt>
      <trkpt lat="45.71474" lon="6.46447">
        <ele>631</ele>
        <time>2022-07-28T14:17:14Z</time>
      </trkpt>
      <trkpt lat="45.71474" lon="6.46445">
        <ele>631</ele>
        <time>2022-07-28T14:17:15Z</time>
      </trkpt>
      <trkpt lat="45.71473" lon="6.46443">
        <ele>631</ele>
        <time>2022-07-28T14:17:22Z</time>
      </trkpt>
      <trkpt lat="45.71473" lon="6.46442">
        <ele>631</ele>
        <time>2022-07-28T14:17:23Z</time>
      </trkpt>
      <trkpt lat="45.71473" lon="6.46441">
        <ele>631</ele>
        <time>2022-07-28T14:17:24Z</time>
      </trkpt>
      <trkpt lat="45.71473" lon="6.4644">
        <ele>631</ele>
        <time>2022-07-28T14:17:25Z</time>
      </trkpt>
      <trkpt lat="45.71473" lon="6.46439">
        <ele>631</ele>
        <time>2022-07-28T14:17:26Z</time>
      </trkpt>
      <trkpt lat="45.71473" lon="6.46438">
        <ele>630</ele>
        <time>2022-07-28T14:17:27Z</time>
      </trkpt>
      <trkpt lat="45.71473" lon="6.46436">
        <ele>630</ele>
        <time>2022-07-28T14:17:28Z</time>
      </trkpt>
      <trkpt lat="45.71474" lon="6.46435">
        <ele>630</ele>
        <time>2022-07-28T14:17:29Z</time>
      </trkpt>
      <trkpt lat="45.71474" lon="6.46434">
        <ele>630</ele>
        <time>2022-07-28T14:17:30Z</time>
      </trkpt>
      <trkpt lat="45.71475" lon="6.46434">
        <ele>630</ele>
        <time>2022-07-28T14:17:31Z</time>
      </trkpt>
      <trkpt lat="45.71476" lon="6.46433">
        <ele>629</ele>
        <time>2022-07-28T14:17:32Z</time>
      </trkpt>
      <trkpt lat="45.71477" lon="6.46432">
        <ele>629</ele>
        <time>2022-07-28T14:17:33Z</time>
      </trkpt>
      <trkpt lat="45.71477" lon="6.46431">
        <ele>629</ele>
        <time>2022-07-28T14:17:34Z</time>
      </trkpt>
      <trkpt lat="45.71478" lon="6.46431">
        <ele>629</ele>
        <time>2022-07-28T14:17:35Z</time>
      </trkpt>
      <trkpt lat="45.71478" lon="6.4643">
        <ele>629</ele>
        <time>2022-07-28T14:17:36Z</time>
      </trkpt>
      <trkpt lat="45.71479" lon="6.4643">
        <ele>628</ele>
        <time>2022-07-28T14:17:37Z</time>
      </trkpt>
      <trkpt lat="45.7148" lon="6.4643">
        <ele>628</ele>
        <time>2022-07-28T14:17:38Z</time>
      </trkpt>
      <trkpt lat="45.7148" lon="6.4643">
        <ele>628</ele>
        <time>2022-07-28T14:17:39Z</time>
      </trkpt>
      <trkpt lat="45.71481" lon="6.4643">
        <ele>628</ele>
        <time>2022-07-28T14:17:40Z</time>
      </trkpt>
      <trkpt lat="45.71481" lon="6.46429">
        <ele>628</ele>
        <time>2022-07-28T14:17:41Z</time>
      </trkpt>
      <trkpt lat="45.71482" lon="6.46429">
        <ele>627</ele>
        <time>2022-07-28T14:17:42Z</time>
      </trkpt>
      <trkpt lat="45.71483" lon="6.46429">
        <ele>627</ele>
        <time>2022-07-28T14:17:43Z</time>
      </trkpt>
      <trkpt lat="45.71484" lon="6.46429">
        <ele>627</ele>
        <time>2022-07-28T14:17:44Z</time>
      </trkpt>
      <trkpt lat="45.71484" lon="6.46429">
        <ele>627</ele>
        <time>2022-07-28T14:17:45Z</time>
      </trkpt>
      <trkpt lat="45.71484" lon="6.46429">
        <ele>627</ele>
        <time>2022-07-28T14:17:46Z</time>
      </trkpt>
      <trkpt lat="45.71485" lon="6.46429">
        <ele>626</ele>
        <time>2022-07-28T14:17:47Z</time>
      </trkpt>
      <trkpt lat="45.71486" lon="6.4643">
        <ele>626</ele>
        <time>2022-07-28T14:17:48Z</time>
      </trkpt>
      <trkpt lat="45.71486" lon="6.4643">
        <ele>626</ele>
        <time>2022-07-28T14:17:49Z</time>
      </trkpt>
      <trkpt lat="45.71487" lon="6.4643">
        <ele>626</ele>
        <time>2022-07-28T14:17:50Z</time>
      </trkpt>
      <trkpt lat="45.71487" lon="6.46431">
        <ele>626</ele>
        <time>2022-07-28T14:17:51Z</time>
      </trkpt>
      <trkpt lat="45.71488" lon="6.46432">
        <ele>625</ele>
        <time>2022-07-28T14:17:52Z</time>
      </trkpt>
      <trkpt lat="45.71488" lon="6.46432">
        <ele>625</ele>
        <time>2022-07-28T14:17:53Z</time>
      </trkpt>
      <trkpt lat="45.71488" lon="6.46433">
        <ele>625</ele>
        <time>2022-07-28T14:17:54Z</time>
      </trkpt>
      <trkpt lat="45.71489" lon="6.46434">
        <ele>625</ele>
        <time>2022-07-28T14:17:55Z</time>
      </trkpt>
      <trkpt lat="45.71489" lon="6.46434">
        <ele>625</ele>
        <time>2022-07-28T14:17:56Z</time>
      </trkpt>
      <trkpt lat="45.7149" lon="6.46435">
        <ele>624</ele>
        <time>2022-07-28T14:17:57Z</time>
      </trkpt>
      <trkpt lat="45.7149" lon="6.46435">
        <ele>624</ele>
        <time>2022-07-28T14:17:58Z</time>
      </trkpt>
      <trkpt lat="45.71491" lon="6.46435">
        <ele>624</ele>
        <time>2022-07-28T14:17:59Z</time>
      </trkpt>
      <trkpt lat="45.71491" lon="6.46436">
        <ele>624</ele>
        <time>2022-07-28T14:18:00Z</time>
      </trkpt>
      <trkpt lat="45.71492" lon="6.46436">
        <ele>624</ele>
        <time>2022-07-28T14:18:01Z</time>
      </trkpt>
      <trkpt lat="45.71492" lon="6.46436">
        <ele>623</ele>
        <time>2022-07-28T14:18:02Z</time>
      </trkpt>
      <trkpt lat="45.71493" lon="6.46436">
        <ele>623</ele>
        <time>2022-07-28T14:18:03Z</time>
      </trkpt>
      <trkpt lat="45.71493" lon="6.46436">
        <ele>623</ele>
        <time>2022-07-28T14:18:04Z</time>
      </trkpt>
      <trkpt lat="45.71494" lon="6.46436">
        <ele>623</ele>
        <time>2022-07-28T14:18:05Z</time>
      </trkpt>
      <trkpt lat="45.71495" lon="6.46436">
        <ele>623</ele>
        <time>2022-07-28T14:18:06Z</time>
      </trkpt>
      <trkpt lat="45.71496" lon="6.46436">
        <ele>622</ele>
        <time>2022-07-28T14:18:07Z</time>
      </trkpt>
      <trkpt lat="45.71496" lon="6.46436">
        <ele>622</ele>
        <time>2022-07-28T14:18:08Z</time>
      </trkpt>
      <trkpt lat="45.71497" lon="6.46437">
        <ele>622</ele>
        <time>2022-07-28T14:18:09Z</time>
      </trkpt>
      <trkpt lat="45.71498" lon="6.46437">
        <ele>622</ele>
        <time>2022-07-28T14:18:10Z</time>
      </trkpt>
      <trkpt lat="45.71498" lon="6.46437">
        <ele>622</ele>
        <time>2022-07-28T14:18:11Z</time>
      </trkpt>
      <trkpt lat="45.71499" lon="6.46437">
        <ele>621</ele>
        <time>2022-07-28T14:18:12Z</time>
      </trkpt>
      <trkpt lat="45.71499" lon="6.46437">
        <ele>621</ele>
        <time>2022-07-28T14:18:13Z</time>
      </trkpt>
      <trkpt lat="45.715" lon="6.46437">
        <ele>621</ele>
        <time>2022-07-28T14:18:14Z</time>
      </trkpt>
      <trkpt lat="45.715" lon="6.46437">
        <ele>621</ele>
        <time>2022-07-28T14:18:15Z</time>
      </trkpt>
      <trkpt lat="45.71501" lon="6.46437">
        <ele>621</ele>
        <time>2022-07-28T14:18:16Z</time>
      </trkpt>
      <trkpt lat="45.71502" lon="6.46437">
        <ele>620</ele>
        <time>2022-07-28T14:18:17Z</time>
      </trkpt>
      <trkpt lat="45.71502" lon="6.46438">
        <ele>620</ele>
        <time>2022-07-28T14:18:18Z</time>
      </trkpt>
      <trkpt lat="45.71503" lon="6.46438">
        <ele>620</ele>
        <time>2022-07-28T14:18:19Z</time>
      </trkpt>
      <trkpt lat="45.71504" lon="6.46439">
        <ele>620</ele>
        <time>2022-07-28T14:18:20Z</time>
      </trkpt>
      <trkpt lat="45.71504" lon="6.4644">
        <ele>620</ele>
        <time>2022-07-28T14:18:21Z</time>
      </trkpt>
      <trkpt lat="45.71505" lon="6.46441">
        <ele>619</ele>
        <time>2022-07-28T14:18:22Z</time>
      </trkpt>
      <trkpt lat="45.71506" lon="6.46443">
        <ele>619</ele>
        <time>2022-07-28T14:18:23Z</time>
      </trkpt>
      <trkpt lat="45.71506" lon="6.46444">
        <ele>619</ele>
        <time>2022-07-28T14:18:24Z</time>
      </trkpt>
      <trkpt lat="45.71507" lon="6.46446">
        <ele>619</ele>
        <time>2022-07-28T14:18:25Z</time>
      </trkpt>
      <trkpt lat="45.71507" lon="6.46447">
        <ele>619</ele>
        <time>2022-07-28T14:18:26Z</time>
      </trkpt>
      <trkpt lat="45.71507" lon="6.46449">
        <ele>619</ele>
        <time>2022-07-28T14:18:27Z</time>
      </trkpt>
      <trkpt lat="45.71507" lon="6.46451">
        <ele>619</ele>
        <time>2022-07-28T14:18:28Z</time>
      </trkpt>
      <trkpt lat="45.71508" lon="6.46453">
        <ele>619</ele>
        <time>2022-07-28T14:18:29Z</time>
      </trkpt>
      <trkpt lat="45.71508" lon="6.46455">
        <ele>619</ele>
        <time>2022-07-28T14:18:30Z</time>
      </trkpt>
      <trkpt lat="45.71508" lon="6.46456">
        <ele>619</ele>
        <time>2022-07-28T14:18:31Z</time>
      </trkpt>
      <trkpt lat="45.71508" lon="6.46458">
        <ele>618</ele>
        <time>2022-07-28T14:18:32Z</time>
      </trkpt>
      <trkpt lat="45.71507" lon="6.46459">
        <ele>618</ele>
        <time>2022-07-28T14:18:33Z</time>
      </trkpt>
      <trkpt lat="45.71507" lon="6.46461">
        <ele>618</ele>
        <time>2022-07-28T14:18:34Z</time>
      </trkpt>
      <trkpt lat="45.71507" lon="6.46462">
        <ele>618</ele>
        <time>2022-07-28T14:18:35Z</time>
      </trkpt>
      <trkpt lat="45.71507" lon="6.46464">
        <ele>618</ele>
        <time>2022-07-28T14:18:36Z</time>
      </trkpt>
      <trkpt lat="45.71507" lon="6.46465">
        <ele>617</ele>
        <time>2022-07-28T14:18:37Z</time>
      </trkpt>
      <trkpt lat="45.71507" lon="6.46467">
        <ele>617</ele>
        <time>2022-07-28T14:18:38Z</time>
      </trkpt>
      <trkpt lat="45.71508" lon="6.46469">
        <ele>617</ele>
        <time>2022-07-28T14:18:39Z</time>
      </trkpt>
      <trkpt lat="45.71508" lon="6.4647">
        <ele>617</ele>
        <time>2022-07-28T14:18:40Z</time>
      </trkpt>
      <trkpt lat="45.71508" lon="6.46471">
        <ele>617</ele>
        <time>2022-07-28T14:18:41Z</time>
      </trkpt>
      <trkpt lat="45.71509" lon="6.46473">
        <ele>617</ele>
        <time>2022-07-28T14:18:42Z</time>
      </trkpt>
      <trkpt lat="45.7151" lon="6.46473">
        <ele>617</ele>
        <time>2022-07-28T14:18:43Z</time>
      </trkpt>
      <trkpt lat="45.7151" lon="6.46473">
        <ele>617</ele>
        <time>2022-07-28T14:18:44Z</time>
      </trkpt>
      <trkpt lat="45.71511" lon="6.46473">
        <ele>617</ele>
        <time>2022-07-28T14:18:45Z</time>
      </trkpt>
      <trkpt lat="45.71512" lon="6.46472">
        <ele>617</ele>
        <time>2022-07-28T14:18:46Z</time>
      </trkpt>
      <trkpt lat="45.71512" lon="6.46471">
        <ele>616</ele>
        <time>2022-07-28T14:18:47Z</time>
      </trkpt>
      <trkpt lat="45.71513" lon="6.46471">
        <ele>616</ele>
        <time>2022-07-28T14:18:48Z</time>
      </trkpt>
      <trkpt lat="45.71513" lon="6.46469">
        <ele>616</ele>
        <time>2022-07-28T14:18:49Z</time>
      </trkpt>
      <trkpt lat="45.71514" lon="6.46468">
        <ele>616</ele>
        <time>2022-07-28T14:18:50Z</time>
      </trkpt>
      <trkpt lat="45.71514" lon="6.46467">
        <ele>616</ele>
        <time>2022-07-28T14:18:51Z</time>
      </trkpt>
      <trkpt lat="45.71515" lon="6.46466">
        <ele>615</ele>
        <time>2022-07-28T14:18:52Z</time>
      </trkpt>
      <trkpt lat="45.71515" lon="6.46465">
        <ele>615</ele>
        <time>2022-07-28T14:18:53Z</time>
      </trkpt>
      <trkpt lat="45.71515" lon="6.46464">
        <ele>614</ele>
        <time>2022-07-28T14:18:54Z</time>
      </trkpt>
      <trkpt lat="45.71515" lon="6.46463">
        <ele>614</ele>
        <time>2022-07-28T14:18:55Z</time>
      </trkpt>
      <trkpt lat="45.71515" lon="6.46463">
        <ele>614</ele>
        <time>2022-07-28T14:18:56Z</time>
      </trkpt>
      <trkpt lat="45.71516" lon="6.46462">
        <ele>613</ele>
        <time>2022-07-28T14:18:57Z</time>
      </trkpt>
      <trkpt lat="45.71516" lon="6.46461">
        <ele>613</ele>
        <time>2022-07-28T14:18:58Z</time>
      </trkpt>
      <trkpt lat="45.71516" lon="6.46461">
        <ele>613</ele>
        <time>2022-07-28T14:18:59Z</time>
      </trkpt>
      <trkpt lat="45.71516" lon="6.4646">
        <ele>613</ele>
        <time>2022-07-28T14:19:00Z</time>
      </trkpt>
      <trkpt lat="45.71516" lon="6.46459">
        <ele>613</ele>
        <time>2022-07-28T14:19:01Z</time>
      </trkpt>
      <trkpt lat="45.71517" lon="6.46458">
        <ele>612</ele>
        <time>2022-07-28T14:19:02Z</time>
      </trkpt>
      <trkpt lat="45.71517" lon="6.46458">
        <ele>612</ele>
        <time>2022-07-28T14:19:03Z</time>
      </trkpt>
      <trkpt lat="45.71517" lon="6.46457">
        <ele>612</ele>
        <time>2022-07-28T14:19:04Z</time>
      </trkpt>
      <trkpt lat="45.71517" lon="6.46456">
        <ele>612</ele>
        <time>2022-07-28T14:19:05Z</time>
      </trkpt>
      <trkpt lat="45.71517" lon="6.46455">
        <ele>612</ele>
        <time>2022-07-28T14:19:06Z</time>
      </trkpt>
      <trkpt lat="45.71518" lon="6.46454">
        <ele>611</ele>
        <time>2022-07-28T14:19:07Z</time>
      </trkpt>
      <trkpt lat="45.71518" lon="6.46453">
        <ele>611</ele>
        <time>2022-07-28T14:19:08Z</time>
      </trkpt>
      <trkpt lat="45.71519" lon="6.46452">
        <ele>610</ele>
        <time>2022-07-28T14:19:09Z</time>
      </trkpt>
      <trkpt lat="45.7152" lon="6.46451">
        <ele>610</ele>
        <time>2022-07-28T14:19:10Z</time>
      </trkpt>
      <trkpt lat="45.71521" lon="6.4645">
        <ele>610</ele>
        <time>2022-07-28T14:19:11Z</time>
      </trkpt>
      <trkpt lat="45.71522" lon="6.46449">
        <ele>609</ele>
        <time>2022-07-28T14:19:12Z</time>
      </trkpt>
      <trkpt lat="45.71523" lon="6.46448">
        <ele>609</ele>
        <time>2022-07-28T14:19:13Z</time>
      </trkpt>
      <trkpt lat="45.71524" lon="6.46447">
        <ele>609</ele>
        <time>2022-07-28T14:19:14Z</time>
      </trkpt>
      <trkpt lat="45.71525" lon="6.46447">
        <ele>609</ele>
        <time>2022-07-28T14:19:15Z</time>
      </trkpt>
      <trkpt lat="45.71525" lon="6.46446">
        <ele>609</ele>
        <time>2022-07-28T14:19:16Z</time>
      </trkpt>
      <trkpt lat="45.71526" lon="6.46445">
        <ele>608</ele>
        <time>2022-07-28T14:19:17Z</time>
      </trkpt>
      <trkpt lat="45.71527" lon="6.46444">
        <ele>608</ele>
        <time>2022-07-28T14:19:18Z</time>
      </trkpt>
      <trkpt lat="45.71528" lon="6.46443">
        <ele>608</ele>
        <time>2022-07-28T14:19:19Z</time>
      </trkpt>
      <trkpt lat="45.71528" lon="6.46442">
        <ele>608</ele>
        <time>2022-07-28T14:19:20Z</time>
      </trkpt>
      <trkpt lat="45.71529" lon="6.46441">
        <ele>608</ele>
        <time>2022-07-28T14:19:21Z</time>
      </trkpt>
      <trkpt lat="45.7153" lon="6.4644">
        <ele>607</ele>
        <time>2022-07-28T14:19:22Z</time>
      </trkpt>
      <trkpt lat="45.71531" lon="6.46438">
        <ele>607</ele>
        <time>2022-07-28T14:19:23Z</time>
      </trkpt>
      <trkpt lat="45.71532" lon="6.46437">
        <ele>607</ele>
        <time>2022-07-28T14:19:24Z</time>
      </trkpt>
      <trkpt lat="45.71533" lon="6.46435">
        <ele>607</ele>
        <time>2022-07-28T14:19:25Z</time>
      </trkpt>
      <trkpt lat="45.71534" lon="6.46434">
        <ele>607</ele>
        <time>2022-07-28T14:19:26Z</time>
      </trkpt>
      <trkpt lat="45.71534" lon="6.46433">
        <ele>606</ele>
        <time>2022-07-28T14:19:27Z</time>
      </trkpt>
      <trkpt lat="45.71535" lon="6.46433">
        <ele>606</ele>
        <time>2022-07-28T14:19:28Z</time>
      </trkpt>
      <trkpt lat="45.71536" lon="6.46432">
        <ele>606</ele>
        <time>2022-07-28T14:19:29Z</time>
      </trkpt>
      <trkpt lat="45.71536" lon="6.46431">
        <ele>606</ele>
        <time>2022-07-28T14:19:30Z</time>
      </trkpt>
      <trkpt lat="45.71537" lon="6.46429">
        <ele>606</ele>
        <time>2022-07-28T14:19:31Z</time>
      </trkpt>
      <trkpt lat="45.71538" lon="6.46428">
        <ele>605</ele>
        <time>2022-07-28T14:19:32Z</time>
      </trkpt>
      <trkpt lat="45.71538" lon="6.46427">
        <ele>605</ele>
        <time>2022-07-28T14:19:33Z</time>
      </trkpt>
      <trkpt lat="45.71539" lon="6.46427">
        <ele>605</ele>
        <time>2022-07-28T14:19:34Z</time>
      </trkpt>
      <trkpt lat="45.7154" lon="6.46426">
        <ele>605</ele>
        <time>2022-07-28T14:19:35Z</time>
      </trkpt>
      <trkpt lat="45.7154" lon="6.46425">
        <ele>605</ele>
        <time>2022-07-28T14:19:36Z</time>
      </trkpt>
      <trkpt lat="45.71541" lon="6.46424">
        <ele>604</ele>
        <time>2022-07-28T14:19:37Z</time>
      </trkpt>
      <trkpt lat="45.71541" lon="6.46423">
        <ele>604</ele>
        <time>2022-07-28T14:19:38Z</time>
      </trkpt>
      <trkpt lat="45.71542" lon="6.46422">
        <ele>603</ele>
        <time>2022-07-28T14:19:39Z</time>
      </trkpt>
      <trkpt lat="45.71542" lon="6.46421">
        <ele>603</ele>
        <time>2022-07-28T14:19:40Z</time>
      </trkpt>
      <trkpt lat="45.71542" lon="6.46419">
        <ele>603</ele>
        <time>2022-07-28T14:19:41Z</time>
      </trkpt>
      <trkpt lat="45.71543" lon="6.46418">
        <ele>602</ele>
        <time>2022-07-28T14:19:42Z</time>
      </trkpt>
      <trkpt lat="45.71543" lon="6.46417">
        <ele>602</ele>
        <time>2022-07-28T14:19:43Z</time>
      </trkpt>
      <trkpt lat="45.71543" lon="6.46416">
        <ele>602</ele>
        <time>2022-07-28T14:19:44Z</time>
      </trkpt>
      <trkpt lat="45.71543" lon="6.46414">
        <ele>602</ele>
        <time>2022-07-28T14:19:45Z</time>
      </trkpt>
      <trkpt lat="45.71543" lon="6.46413">
        <ele>602</ele>
        <time>2022-07-28T14:19:46Z</time>
      </trkpt>
      <trkpt lat="45.71543" lon="6.46412">
        <ele>601</ele>
        <time>2022-07-28T14:19:47Z</time>
      </trkpt>
      <trkpt lat="45.71543" lon="6.46411">
        <ele>601</ele>
        <time>2022-07-28T14:19:48Z</time>
      </trkpt>
      <trkpt lat="45.71543" lon="6.4641">
        <ele>601</ele>
        <time>2022-07-28T14:19:49Z</time>
      </trkpt>
      <trkpt lat="45.71543" lon="6.46408">
        <ele>601</ele>
        <time>2022-07-28T14:19:50Z</time>
      </trkpt>
      <trkpt lat="45.71543" lon="6.46408">
        <ele>601</ele>
        <time>2022-07-28T14:19:51Z</time>
      </trkpt>
      <trkpt lat="45.71543" lon="6.46407">
        <ele>600</ele>
        <time>2022-07-28T14:19:52Z</time>
      </trkpt>
      <trkpt lat="45.71543" lon="6.46406">
        <ele>600</ele>
        <time>2022-07-28T14:19:53Z</time>
      </trkpt>
      <trkpt lat="45.71544" lon="6.46405">
        <ele>600</ele>
        <time>2022-07-28T14:19:54Z</time>
      </trkpt>
      <trkpt lat="45.71544" lon="6.46405">
        <ele>599</ele>
        <time>2022-07-28T14:20:00Z</time>
      </trkpt>
      <trkpt lat="45.71545" lon="6.46406">
        <ele>599</ele>
        <time>2022-07-28T14:20:01Z</time>
      </trkpt>
      <trkpt lat="45.71545" lon="6.46406">
        <ele>598</ele>
        <time>2022-07-28T14:20:02Z</time>
      </trkpt>
      <trkpt lat="45.71546" lon="6.46407">
        <ele>598</ele>
        <time>2022-07-28T14:20:03Z</time>
      </trkpt>
      <trkpt lat="45.71547" lon="6.46408">
        <ele>598</ele>
        <time>2022-07-28T14:20:04Z</time>
      </trkpt>
      <trkpt lat="45.71547" lon="6.46409">
        <ele>598</ele>
        <time>2022-07-28T14:20:05Z</time>
      </trkpt>
      <trkpt lat="45.71548" lon="6.46409">
        <ele>598</ele>
        <time>2022-07-28T14:20:06Z</time>
      </trkpt>
      <trkpt lat="45.71549" lon="6.4641">
        <ele>597</ele>
        <time>2022-07-28T14:20:07Z</time>
      </trkpt>
      <trkpt lat="45.7155" lon="6.46411">
        <ele>597</ele>
        <time>2022-07-28T14:20:08Z</time>
      </trkpt>
      <trkpt lat="45.7155" lon="6.46412">
        <ele>597</ele>
        <time>2022-07-28T14:20:09Z</time>
      </trkpt>
      <trkpt lat="45.71551" lon="6.46413">
        <ele>597</ele>
        <time>2022-07-28T14:20:10Z</time>
      </trkpt>
      <trkpt lat="45.71552" lon="6.46414">
        <ele>597</ele>
        <time>2022-07-28T14:20:11Z</time>
      </trkpt>
      <trkpt lat="45.71553" lon="6.46414">
        <ele>596</ele>
        <time>2022-07-28T14:20:12Z</time>
      </trkpt>
      <trkpt lat="45.71554" lon="6.46415">
        <ele>596</ele>
        <time>2022-07-28T14:20:13Z</time>
      </trkpt>
      <trkpt lat="45.71555" lon="6.46416">
        <ele>596</ele>
        <time>2022-07-28T14:20:14Z</time>
      </trkpt>
      <trkpt lat="45.71555" lon="6.46416">
        <ele>596</ele>
        <time>2022-07-28T14:20:15Z</time>
      </trkpt>
      <trkpt lat="45.71555" lon="6.46417">
        <ele>596</ele>
        <time>2022-07-28T14:20:16Z</time>
      </trkpt>
      <trkpt lat="45.71556" lon="6.46417">
        <ele>595</ele>
        <time>2022-07-28T14:20:17Z</time>
      </trkpt>
      <trkpt lat="45.71556" lon="6.46418">
        <ele>595</ele>
        <time>2022-07-28T14:20:18Z</time>
      </trkpt>
      <trkpt lat="45.71557" lon="6.46418">
        <ele>595</ele>
        <time>2022-07-28T14:20:19Z</time>
      </trkpt>
      <trkpt lat="45.71558" lon="6.46418">
        <ele>595</ele>
        <time>2022-07-28T14:20:20Z</time>
      </trkpt>
      <trkpt lat="45.71558" lon="6.46418">
        <ele>595</ele>
        <time>2022-07-28T14:20:21Z</time>
      </trkpt>
      <trkpt lat="45.71559" lon="6.46417">
        <ele>594</ele>
        <time>2022-07-28T14:20:22Z</time>
      </trkpt>
      <trkpt lat="45.71559" lon="6.46416">
        <ele>594</ele>
        <time>2022-07-28T14:20:23Z</time>
      </trkpt>
      <trkpt lat="45.7156" lon="6.46416">
        <ele>594</ele>
        <time>2022-07-28T14:20:24Z</time>
      </trkpt>
      <trkpt lat="45.7156" lon="6.46415">
        <ele>594</ele>
        <time>2022-07-28T14:20:25Z</time>
      </trkpt>
      <trkpt lat="45.7156" lon="6.46415">
        <ele>594</ele>
        <time>2022-07-28T14:20:26Z</time>
      </trkpt>
      <trkpt lat="45.7156" lon="6.46415">
        <ele>593</ele>
        <time>2022-07-28T14:20:27Z</time>
      </trkpt>
      <trkpt lat="45.7156" lon="6.46414">
        <ele>593</ele>
        <time>2022-07-28T14:20:28Z</time>
      </trkpt>
      <trkpt lat="45.71561" lon="6.46414">
        <ele>593</ele>
        <time>2022-07-28T14:20:29Z</time>
      </trkpt>
      <trkpt lat="45.71561" lon="6.46414">
        <ele>593</ele>
        <time>2022-07-28T14:20:30Z</time>
      </trkpt>
      <trkpt lat="45.71562" lon="6.46413">
        <ele>593</ele>
        <time>2022-07-28T14:20:31Z</time>
      </trkpt>
      <trkpt lat="45.71562" lon="6.46413">
        <ele>592</ele>
        <time>2022-07-28T14:20:32Z</time>
      </trkpt>
      <trkpt lat="45.71563" lon="6.46412">
        <ele>592</ele>
        <time>2022-07-28T14:20:45Z</time>
      </trkpt>
      <trkpt lat="45.71564" lon="6.46412">
        <ele>592</ele>
        <time>2022-07-28T14:20:46Z</time>
      </trkpt>
      <trkpt lat="45.71564" lon="6.46411">
        <ele>591</ele>
        <time>2022-07-28T14:20:47Z</time>
      </trkpt>
      <trkpt lat="45.71564" lon="6.46411">
        <ele>591</ele>
        <time>2022-07-28T14:20:48Z</time>
      </trkpt>
      <trkpt lat="45.71564" lon="6.4641">
        <ele>591</ele>
        <time>2022-07-28T14:20:49Z</time>
      </trkpt>
      <trkpt lat="45.71564" lon="6.46409">
        <ele>591</ele>
        <time>2022-07-28T14:20:50Z</time>
      </trkpt>
      <trkpt lat="45.71564" lon="6.46408">
        <ele>591</ele>
        <time>2022-07-28T14:20:51Z</time>
      </trkpt>
      <trkpt lat="45.71564" lon="6.46406">
        <ele>591</ele>
        <time>2022-07-28T14:20:52Z</time>
      </trkpt>
      <trkpt lat="45.71564" lon="6.46405">
        <ele>591</ele>
        <time>2022-07-28T14:20:53Z</time>
      </trkpt>
      <trkpt lat="45.71564" lon="6.46403">
        <ele>591</ele>
        <time>2022-07-28T14:20:54Z</time>
      </trkpt>
      <trkpt lat="45.71564" lon="6.46402">
        <ele>591</ele>
        <time>2022-07-28T14:20:55Z</time>
      </trkpt>
      <trkpt lat="45.71564" lon="6.464">
        <ele>591</ele>
        <time>2022-07-28T14:20:56Z</time>
      </trkpt>
      <trkpt lat="45.71564" lon="6.46398">
        <ele>590</ele>
        <time>2022-07-28T14:20:57Z</time>
      </trkpt>
      <trkpt lat="45.71564" lon="6.46396">
        <ele>590</ele>
        <time>2022-07-28T14:20:58Z</time>
      </trkpt>
      <trkpt lat="45.71564" lon="6.46394">
        <ele>590</ele>
        <time>2022-07-28T14:20:59Z</time>
      </trkpt>
      <trkpt lat="45.71565" lon="6.46393">
        <ele>590</ele>
        <time>2022-07-28T14:21:00Z</time>
      </trkpt>
      <trkpt lat="45.71565" lon="6.46391">
        <ele>590</ele>
        <time>2022-07-28T14:21:01Z</time>
      </trkpt>
      <trkpt lat="45.71565" lon="6.46389">
        <ele>589</ele>
        <time>2022-07-28T14:21:02Z</time>
      </trkpt>
      <trkpt lat="45.71565" lon="6.46387">
        <ele>589</ele>
        <time>2022-07-28T14:21:03Z</time>
      </trkpt>
      <trkpt lat="45.71566" lon="6.46386">
        <ele>589</ele>
        <time>2022-07-28T14:21:04Z</time>
      </trkpt>
      <trkpt lat="45.71566" lon="6.46384">
        <ele>589</ele>
        <time>2022-07-28T14:21:05Z</time>
      </trkpt>
      <trkpt lat="45.71566" lon="6.46382">
        <ele>589</ele>
        <time>2022-07-28T14:21:06Z</time>
      </trkpt>
      <trkpt lat="45.71566" lon="6.46381">
        <ele>588</ele>
        <time>2022-07-28T14:21:07Z</time>
      </trkpt>
      <trkpt lat="45.71566" lon="6.46379">
        <ele>588</ele>
        <time>2022-07-28T14:21:08Z</time>
      </trkpt>
      <trkpt lat="45.71566" lon="6.46378">
        <ele>588</ele>
        <time>2022-07-28T14:21:09Z</time>
      </trkpt>
      <trkpt lat="45.71566" lon="6.46376">
        <ele>588</ele>
        <time>2022-07-28T14:21:10Z</time>
      </trkpt>
      <trkpt lat="45.71566" lon="6.46375">
        <ele>588</ele>
        <time>2022-07-28T14:21:11Z</time>
      </trkpt>
      <trkpt lat="45.71565" lon="6.46373">
        <ele>588</ele>
        <time>2022-07-28T14:21:12Z</time>
      </trkpt>
      <trkpt lat="45.71565" lon="6.46372">
        <ele>588</ele>
        <time>2022-07-28T14:21:13Z</time>
      </trkpt>
      <trkpt lat="45.71565" lon="6.4637">
        <ele>588</ele>
        <time>2022-07-28T14:21:14Z</time>
      </trkpt>
      <trkpt lat="45.71564" lon="6.46369">
        <ele>588</ele>
        <time>2022-07-28T14:21:15Z</time>
      </trkpt>
      <trkpt lat="45.71564" lon="6.46367">
        <ele>588</ele>
        <time>2022-07-28T14:21:16Z</time>
      </trkpt>
      <trkpt lat="45.71563" lon="6.46365">
        <ele>587</ele>
        <time>2022-07-28T14:21:17Z</time>
      </trkpt>
      <trkpt lat="45.71563" lon="6.46363">
        <ele>587</ele>
        <time>2022-07-28T14:21:18Z</time>
      </trkpt>
      <trkpt lat="45.71562" lon="6.46362">
        <ele>587</ele>
        <time>2022-07-28T14:21:19Z</time>
      </trkpt>
      <trkpt lat="45.71562" lon="6.4636">
        <ele>587</ele>
        <time>2022-07-28T14:21:20Z</time>
      </trkpt>
      <trkpt lat="45.71561" lon="6.46358">
        <ele>587</ele>
        <time>2022-07-28T14:21:21Z</time>
      </trkpt>
      <trkpt lat="45.7156" lon="6.46357">
        <ele>586</ele>
        <time>2022-07-28T14:21:22Z</time>
      </trkpt>
      <trkpt lat="45.7156" lon="6.46355">
        <ele>586</ele>
        <time>2022-07-28T14:21:23Z</time>
      </trkpt>
      <trkpt lat="45.71559" lon="6.46353">
        <ele>586</ele>
        <time>2022-07-28T14:21:24Z</time>
      </trkpt>
      <trkpt lat="45.71559" lon="6.46352">
        <ele>586</ele>
        <time>2022-07-28T14:21:25Z</time>
      </trkpt>
      <trkpt lat="45.71558" lon="6.4635">
        <ele>586</ele>
        <time>2022-07-28T14:21:26Z</time>
      </trkpt>
      <trkpt lat="45.71558" lon="6.46348">
        <ele>586</ele>
        <time>2022-07-28T14:21:27Z</time>
      </trkpt>
      <trkpt lat="45.71557" lon="6.46346">
        <ele>586</ele>
        <time>2022-07-28T14:21:28Z</time>
      </trkpt>
      <trkpt lat="45.71557" lon="6.46345">
        <ele>586</ele>
        <time>2022-07-28T14:21:29Z</time>
      </trkpt>
      <trkpt lat="45.71556" lon="6.46343">
        <ele>586</ele>
        <time>2022-07-28T14:21:30Z</time>
      </trkpt>
      <trkpt lat="45.71556" lon="6.46341">
        <ele>586</ele>
        <time>2022-07-28T14:21:31Z</time>
      </trkpt>
      <trkpt lat="45.71555" lon="6.46339">
        <ele>585</ele>
        <time>2022-07-28T14:21:32Z</time>
      </trkpt>
      <trkpt lat="45.71555" lon="6.46338">
        <ele>585</ele>
        <time>2022-07-28T14:21:33Z</time>
      </trkpt>
      <trkpt lat="45.71554" lon="6.46336">
        <ele>585</ele>
        <time>2022-07-28T14:21:34Z</time>
      </trkpt>
      <trkpt lat="45.71554" lon="6.46334">
        <ele>585</ele>
        <time>2022-07-28T14:21:35Z</time>
      </trkpt>
      <trkpt lat="45.71553" lon="6.46333">
        <ele>585</ele>
        <time>2022-07-28T14:21:36Z</time>
      </trkpt>
      <trkpt lat="45.71553" lon="6.46331">
        <ele>585</ele>
        <time>2022-07-28T14:21:37Z</time>
      </trkpt>
      <trkpt lat="45.71552" lon="6.46329">
        <ele>585</ele>
        <time>2022-07-28T14:21:38Z</time>
      </trkpt>
      <trkpt lat="45.71552" lon="6.46328">
        <ele>585</ele>
        <time>2022-07-28T14:21:39Z</time>
      </trkpt>
      <trkpt lat="45.71551" lon="6.46327">
        <ele>585</ele>
        <time>2022-07-28T14:21:40Z</time>
      </trkpt>
      <trkpt lat="45.7155" lon="6.46325">
        <ele>585</ele>
        <time>2022-07-28T14:21:41Z</time>
      </trkpt>
      <trkpt lat="45.7155" lon="6.46324">
        <ele>585</ele>
        <time>2022-07-28T14:21:42Z</time>
      </trkpt>
      <trkpt lat="45.71549" lon="6.46322">
        <ele>585</ele>
        <time>2022-07-28T14:21:43Z</time>
      </trkpt>
      <trkpt lat="45.71548" lon="6.46321">
        <ele>585</ele>
        <time>2022-07-28T14:21:44Z</time>
      </trkpt>
      <trkpt lat="45.71548" lon="6.4632">
        <ele>585</ele>
        <time>2022-07-28T14:21:45Z</time>
      </trkpt>
      <trkpt lat="45.71547" lon="6.46318">
        <ele>585</ele>
        <time>2022-07-28T14:21:46Z</time>
      </trkpt>
      <trkpt lat="45.71547" lon="6.46317">
        <ele>584</ele>
        <time>2022-07-28T14:21:47Z</time>
      </trkpt>
      <trkpt lat="45.71546" lon="6.46315">
        <ele>584</ele>
        <time>2022-07-28T14:21:48Z</time>
      </trkpt>
      <trkpt lat="45.71546" lon="6.46314">
        <ele>583</ele>
        <time>2022-07-28T14:21:49Z</time>
      </trkpt>
      <trkpt lat="45.71545" lon="6.46312">
        <ele>583</ele>
        <time>2022-07-28T14:21:50Z</time>
      </trkpt>
      <trkpt lat="45.71545" lon="6.4631">
        <ele>583</ele>
        <time>2022-07-28T14:21:51Z</time>
      </trkpt>
      <trkpt lat="45.71544" lon="6.46309">
        <ele>583</ele>
        <time>2022-07-28T14:21:52Z</time>
      </trkpt>
      <trkpt lat="45.71543" lon="6.46307">
        <ele>583</ele>
        <time>2022-07-28T14:21:53Z</time>
      </trkpt>
      <trkpt lat="45.71543" lon="6.46306">
        <ele>583</ele>
        <time>2022-07-28T14:21:54Z</time>
      </trkpt>
      <trkpt lat="45.71542" lon="6.46304">
        <ele>583</ele>
        <time>2022-07-28T14:21:55Z</time>
      </trkpt>
      <trkpt lat="45.71541" lon="6.46303">
        <ele>583</ele>
        <time>2022-07-28T14:21:56Z</time>
      </trkpt>
      <trkpt lat="45.7154" lon="6.46301">
        <ele>583</ele>
        <time>2022-07-28T14:21:57Z</time>
      </trkpt>
      <trkpt lat="45.7154" lon="6.463">
        <ele>583</ele>
        <time>2022-07-28T14:21:58Z</time>
      </trkpt>
      <trkpt lat="45.71539" lon="6.46298">
        <ele>583</ele>
        <time>2022-07-28T14:21:59Z</time>
      </trkpt>
      <trkpt lat="45.71538" lon="6.46297">
        <ele>583</ele>
        <time>2022-07-28T14:22:00Z</time>
      </trkpt>
      <trkpt lat="45.71538" lon="6.46295">
        <ele>583</ele>
        <time>2022-07-28T14:22:01Z</time>
      </trkpt>
      <trkpt lat="45.71537" lon="6.46294">
        <ele>582</ele>
        <time>2022-07-28T14:22:02Z</time>
      </trkpt>
      <trkpt lat="45.71536" lon="6.46292">
        <ele>582</ele>
        <time>2022-07-28T14:22:03Z</time>
      </trkpt>
      <trkpt lat="45.71536" lon="6.46291">
        <ele>582</ele>
        <time>2022-07-28T14:22:04Z</time>
      </trkpt>
      <trkpt lat="45.71535" lon="6.46289">
        <ele>582</ele>
        <time>2022-07-28T14:22:05Z</time>
      </trkpt>
      <trkpt lat="45.71534" lon="6.46287">
        <ele>582</ele>
        <time>2022-07-28T14:22:06Z</time>
      </trkpt>
      <trkpt lat="45.71534" lon="6.46286">
        <ele>582</ele>
        <time>2022-07-28T14:22:07Z</time>
      </trkpt>
      <trkpt lat="45.71533" lon="6.46284">
        <ele>582</ele>
        <time>2022-07-28T14:22:08Z</time>
      </trkpt>
      <trkpt lat="45.71532" lon="6.46282">
        <ele>582</ele>
        <time>2022-07-28T14:22:09Z</time>
      </trkpt>
      <trkpt lat="45.71532" lon="6.4628">
        <ele>582</ele>
        <time>2022-07-28T14:22:10Z</time>
      </trkpt>
      <trkpt lat="45.71531" lon="6.46279">
        <ele>582</ele>
        <time>2022-07-28T14:22:11Z</time>
      </trkpt>
      <trkpt lat="45.71531" lon="6.46277">
        <ele>581</ele>
        <time>2022-07-28T14:22:12Z</time>
      </trkpt>
      <trkpt lat="45.7153" lon="6.46276">
        <ele>581</ele>
        <time>2022-07-28T14:22:13Z</time>
      </trkpt>
      <trkpt lat="45.7153" lon="6.46274">
        <ele>581</ele>
        <time>2022-07-28T14:22:14Z</time>
      </trkpt>
      <trkpt lat="45.71529" lon="6.46272">
        <ele>581</ele>
        <time>2022-07-28T14:22:15Z</time>
      </trkpt>
      <trkpt lat="45.71529" lon="6.46271">
        <ele>581</ele>
        <time>2022-07-28T14:22:16Z</time>
      </trkpt>
      <trkpt lat="45.71529" lon="6.46269">
        <ele>581</ele>
        <time>2022-07-28T14:22:17Z</time>
      </trkpt>
      <trkpt lat="45.71529" lon="6.46268">
        <ele>581</ele>
        <time>2022-07-28T14:22:18Z</time>
      </trkpt>
      <trkpt lat="45.71528" lon="6.46266">
        <ele>581</ele>
        <time>2022-07-28T14:22:19Z</time>
      </trkpt>
      <trkpt lat="45.71528" lon="6.46265">
        <ele>581</ele>
        <time>2022-07-28T14:22:20Z</time>
      </trkpt>
      <trkpt lat="45.71528" lon="6.46263">
        <ele>581</ele>
        <time>2022-07-28T14:22:21Z</time>
      </trkpt>
      <trkpt lat="45.71528" lon="6.46262">
        <ele>580</ele>
        <time>2022-07-28T14:22:22Z</time>
      </trkpt>
      <trkpt lat="45.71527" lon="6.4626">
        <ele>580</ele>
        <time>2022-07-28T14:22:23Z</time>
      </trkpt>
      <trkpt lat="45.71527" lon="6.46259">
        <ele>580</ele>
        <time>2022-07-28T14:22:24Z</time>
      </trkpt>
      <trkpt lat="45.71527" lon="6.46257">
        <ele>580</ele>
        <time>2022-07-28T14:22:25Z</time>
      </trkpt>
      <trkpt lat="45.71527" lon="6.46255">
        <ele>580</ele>
        <time>2022-07-28T14:22:26Z</time>
      </trkpt>
      <trkpt lat="45.71527" lon="6.46253">
        <ele>579</ele>
        <time>2022-07-28T14:22:27Z</time>
      </trkpt>
      <trkpt lat="45.71527" lon="6.46251">
        <ele>579</ele>
        <time>2022-07-28T14:22:28Z</time>
      </trkpt>
      <trkpt lat="45.71527" lon="6.4625">
        <ele>579</ele>
        <time>2022-07-28T14:22:29Z</time>
      </trkpt>
      <trkpt lat="45.71527" lon="6.46248">
        <ele>579</ele>
        <time>2022-07-28T14:22:30Z</time>
      </trkpt>
      <trkpt lat="45.71527" lon="6.46246">
        <ele>579</ele>
        <time>2022-07-28T14:22:31Z</time>
      </trkpt>
      <trkpt lat="45.71527" lon="6.46244">
        <ele>578</ele>
        <time>2022-07-28T14:22:32Z</time>
      </trkpt>
      <trkpt lat="45.71527" lon="6.46242">
        <ele>578</ele>
        <time>2022-07-28T14:22:33Z</time>
      </trkpt>
      <trkpt lat="45.71527" lon="6.4624">
        <ele>578</ele>
        <time>2022-07-28T14:22:34Z</time>
      </trkpt>
      <trkpt lat="45.71527" lon="6.46238">
        <ele>578</ele>
        <time>2022-07-28T14:22:35Z</time>
      </trkpt>
      <trkpt lat="45.71527" lon="6.46236">
        <ele>578</ele>
        <time>2022-07-28T14:22:36Z</time>
      </trkpt>
      <trkpt lat="45.71527" lon="6.46234">
        <ele>577</ele>
        <time>2022-07-28T14:22:37Z</time>
      </trkpt>
      <trkpt lat="45.71527" lon="6.46233">
        <ele>577</ele>
        <time>2022-07-28T14:22:38Z</time>
      </trkpt>
      <trkpt lat="45.71527" lon="6.46231">
        <ele>577</ele>
        <time>2022-07-28T14:22:39Z</time>
      </trkpt>
      <trkpt lat="45.71527" lon="6.46229">
        <ele>577</ele>
        <time>2022-07-28T14:22:40Z</time>
      </trkpt>
      <trkpt lat="45.71527" lon="6.46228">
        <ele>577</ele>
        <time>2022-07-28T14:22:41Z</time>
      </trkpt>
      <trkpt lat="45.71526" lon="6.46226">
        <ele>576</ele>
        <time>2022-07-28T14:22:42Z</time>
      </trkpt>
      <trkpt lat="45.71526" lon="6.46225">
        <ele>576</ele>
        <time>2022-07-28T14:22:43Z</time>
      </trkpt>
      <trkpt lat="45.71526" lon="6.46223">
        <ele>576</ele>
        <time>2022-07-28T14:22:44Z</time>
      </trkpt>
      <trkpt lat="45.71526" lon="6.46221">
        <ele>576</ele>
        <time>2022-07-28T14:22:45Z</time>
      </trkpt>
      <trkpt lat="45.71526" lon="6.4622">
        <ele>576</ele>
        <time>2022-07-28T14:22:46Z</time>
      </trkpt>
      <trkpt lat="45.71526" lon="6.46218">
        <ele>575</ele>
        <time>2022-07-28T14:22:47Z</time>
      </trkpt>
      <trkpt lat="45.71526" lon="6.46216">
        <ele>575</ele>
        <time>2022-07-28T14:22:48Z</time>
      </trkpt>
      <trkpt lat="45.71525" lon="6.46215">
        <ele>575</ele>
        <time>2022-07-28T14:22:49Z</time>
      </trkpt>
      <trkpt lat="45.71525" lon="6.46213">
        <ele>575</ele>
        <time>2022-07-28T14:22:50Z</time>
      </trkpt>
      <trkpt lat="45.71525" lon="6.46211">
        <ele>575</ele>
        <time>2022-07-28T14:22:51Z</time>
      </trkpt>
      <trkpt lat="45.71524" lon="6.46209">
        <ele>575</ele>
        <time>2022-07-28T14:22:52Z</time>
      </trkpt>
      <trkpt lat="45.71524" lon="6.46207">
        <ele>575</ele>
        <time>2022-07-28T14:22:53Z</time>
      </trkpt>
      <trkpt lat="45.71524" lon="6.46205">
        <ele>575</ele>
        <time>2022-07-28T14:22:54Z</time>
      </trkpt>
      <trkpt lat="45.71524" lon="6.46203">
        <ele>575</ele>
        <time>2022-07-28T14:22:55Z</time>
      </trkpt>
      <trkpt lat="45.71524" lon="6.46201">
        <ele>575</ele>
        <time>2022-07-28T14:22:56Z</time>
      </trkpt>
      <trkpt lat="45.71524" lon="6.46199">
        <ele>574</ele>
        <time>2022-07-28T14:22:57Z</time>
      </trkpt>
      <trkpt lat="45.71524" lon="6.46197">
        <ele>574</ele>
        <time>2022-07-28T14:22:58Z</time>
      </trkpt>
      <trkpt lat="45.71524" lon="6.46196">
        <ele>574</ele>
        <time>2022-07-28T14:22:59Z</time>
      </trkpt>
      <trkpt lat="45.71524" lon="6.46194">
        <ele>574</ele>
        <time>2022-07-28T14:23:00Z</time>
      </trkpt>
      <trkpt lat="45.71524" lon="6.46192">
        <ele>574</ele>
        <time>2022-07-28T14:23:01Z</time>
      </trkpt>
      <trkpt lat="45.71524" lon="6.4619">
        <ele>573</ele>
        <time>2022-07-28T14:23:02Z</time>
      </trkpt>
      <trkpt lat="45.71524" lon="6.46188">
        <ele>573</ele>
        <time>2022-07-28T14:23:03Z</time>
      </trkpt>
      <trkpt lat="45.71525" lon="6.46187">
        <ele>573</ele>
        <time>2022-07-28T14:23:04Z</time>
      </trkpt>
      <trkpt lat="45.71525" lon="6.46185">
        <ele>573</ele>
        <time>2022-07-28T14:23:05Z</time>
      </trkpt>
      <trkpt lat="45.71525" lon="6.46183">
        <ele>573</ele>
        <time>2022-07-28T14:23:06Z</time>
      </trkpt>
      <trkpt lat="45.71525" lon="6.46182">
        <ele>573</ele>
        <time>2022-07-28T14:23:07Z</time>
      </trkpt>
      <trkpt lat="45.71525" lon="6.4618">
        <ele>573</ele>
        <time>2022-07-28T14:23:08Z</time>
      </trkpt>
      <trkpt lat="45.71526" lon="6.46179">
        <ele>573</ele>
        <time>2022-07-28T14:23:09Z</time>
      </trkpt>
      <trkpt lat="45.71526" lon="6.46178">
        <ele>573</ele>
        <time>2022-07-28T14:23:10Z</time>
      </trkpt>
      <trkpt lat="45.71526" lon="6.46176">
        <ele>573</ele>
        <time>2022-07-28T14:23:11Z</time>
      </trkpt>
      <trkpt lat="45.71526" lon="6.46175">
        <ele>572</ele>
        <time>2022-07-28T14:23:12Z</time>
      </trkpt>
      <trkpt lat="45.71526" lon="6.46173">
        <ele>572</ele>
        <time>2022-07-28T14:23:13Z</time>
      </trkpt>
      <trkpt lat="45.71526" lon="6.46172">
        <ele>572</ele>
        <time>2022-07-28T14:23:14Z</time>
      </trkpt>
      <trkpt lat="45.71526" lon="6.4617">
        <ele>572</ele>
        <time>2022-07-28T14:23:15Z</time>
      </trkpt>
      <trkpt lat="45.71527" lon="6.46169">
        <ele>572</ele>
        <time>2022-07-28T14:23:16Z</time>
      </trkpt>
      <trkpt lat="45.71527" lon="6.46168">
        <ele>571</ele>
        <time>2022-07-28T14:23:17Z</time>
      </trkpt>
      <trkpt lat="45.71527" lon="6.46166">
        <ele>571</ele>
        <time>2022-07-28T14:23:18Z</time>
      </trkpt>
      <trkpt lat="45.71528" lon="6.46165">
        <ele>571</ele>
        <time>2022-07-28T14:23:19Z</time>
      </trkpt>
      <trkpt lat="45.71528" lon="6.46163">
        <ele>571</ele>
        <time>2022-07-28T14:23:20Z</time>
      </trkpt>
      <trkpt lat="45.71528" lon="6.46162">
        <ele>571</ele>
        <time>2022-07-28T14:23:21Z</time>
      </trkpt>
      <trkpt lat="45.71529" lon="6.4616">
        <ele>570</ele>
        <time>2022-07-28T14:23:22Z</time>
      </trkpt>
      <trkpt lat="45.71529" lon="6.46158">
        <ele>570</ele>
        <time>2022-07-28T14:23:23Z</time>
      </trkpt>
      <trkpt lat="45.71529" lon="6.46157">
        <ele>570</ele>
        <time>2022-07-28T14:23:24Z</time>
      </trkpt>
      <trkpt lat="45.71529" lon="6.46155">
        <ele>570</ele>
        <time>2022-07-28T14:23:25Z</time>
      </trkpt>
      <trkpt lat="45.71529" lon="6.46153">
        <ele>570</ele>
        <time>2022-07-28T14:23:26Z</time>
      </trkpt>
      <trkpt lat="45.71529" lon="6.46151">
        <ele>570</ele>
        <time>2022-07-28T14:23:27Z</time>
      </trkpt>
      <trkpt lat="45.71529" lon="6.4615">
        <ele>570</ele>
        <time>2022-07-28T14:23:28Z</time>
      </trkpt>
      <trkpt lat="45.71529" lon="6.46148">
        <ele>570</ele>
        <time>2022-07-28T14:23:29Z</time>
      </trkpt>
      <trkpt lat="45.7153" lon="6.46147">
        <ele>570</ele>
        <time>2022-07-28T14:23:30Z</time>
      </trkpt>
      <trkpt lat="45.7153" lon="6.46146">
        <ele>570</ele>
        <time>2022-07-28T14:23:31Z</time>
      </trkpt>
      <trkpt lat="45.7153" lon="6.46144">
        <ele>569</ele>
        <time>2022-07-28T14:23:32Z</time>
      </trkpt>
      <trkpt lat="45.71531" lon="6.46143">
        <ele>569</ele>
        <time>2022-07-28T14:23:33Z</time>
      </trkpt>
      <trkpt lat="45.71531" lon="6.46141">
        <ele>569</ele>
        <time>2022-07-28T14:23:34Z</time>
      </trkpt>
      <trkpt lat="45.71531" lon="6.46139">
        <ele>569</ele>
        <time>2022-07-28T14:23:35Z</time>
      </trkpt>
      <trkpt lat="45.71532" lon="6.46138">
        <ele>569</ele>
        <time>2022-07-28T14:23:36Z</time>
      </trkpt>
      <trkpt lat="45.71532" lon="6.46137">
        <ele>568</ele>
        <time>2022-07-28T14:23:37Z</time>
      </trkpt>
      <trkpt lat="45.71533" lon="6.46135">
        <ele>568</ele>
        <time>2022-07-28T14:23:38Z</time>
      </trkpt>
      <trkpt lat="45.71533" lon="6.46134">
        <ele>568</ele>
        <time>2022-07-28T14:23:39Z</time>
      </trkpt>
      <trkpt lat="45.71534" lon="6.46133">
        <ele>568</ele>
        <time>2022-07-28T14:23:40Z</time>
      </trkpt>
      <trkpt lat="45.71534" lon="6.46132">
        <ele>568</ele>
        <time>2022-07-28T14:23:41Z</time>
      </trkpt>
      <trkpt lat="45.71534" lon="6.4613">
        <ele>567</ele>
        <time>2022-07-28T14:23:42Z</time>
      </trkpt>
      <trkpt lat="45.71535" lon="6.46129">
        <ele>567</ele>
        <time>2022-07-28T14:23:43Z</time>
      </trkpt>
      <trkpt lat="45.71535" lon="6.46128">
        <ele>567</ele>
        <time>2022-07-28T14:23:44Z</time>
      </trkpt>
      <trkpt lat="45.71536" lon="6.46126">
        <ele>567</ele>
        <time>2022-07-28T14:23:45Z</time>
      </trkpt>
      <trkpt lat="45.71536" lon="6.46125">
        <ele>567</ele>
        <time>2022-07-28T14:23:46Z</time>
      </trkpt>
      <trkpt lat="45.71537" lon="6.46123">
        <ele>566</ele>
        <time>2022-07-28T14:23:47Z</time>
      </trkpt>
      <trkpt lat="45.71538" lon="6.46122">
        <ele>566</ele>
        <time>2022-07-28T14:23:48Z</time>
      </trkpt>
      <trkpt lat="45.71538" lon="6.46121">
        <ele>566</ele>
        <time>2022-07-28T14:23:49Z</time>
      </trkpt>
      <trkpt lat="45.71539" lon="6.4612">
        <ele>566</ele>
        <time>2022-07-28T14:23:50Z</time>
      </trkpt>
      <trkpt lat="45.7154" lon="6.46119">
        <ele>566</ele>
        <time>2022-07-28T14:23:51Z</time>
      </trkpt>
      <trkpt lat="45.71541" lon="6.46118">
        <ele>566</ele>
        <time>2022-07-28T14:23:52Z</time>
      </trkpt>
      <trkpt lat="45.71542" lon="6.46117">
        <ele>566</ele>
        <time>2022-07-28T14:23:53Z</time>
      </trkpt>
      <trkpt lat="45.71542" lon="6.46117">
        <ele>566</ele>
        <time>2022-07-28T14:23:54Z</time>
      </trkpt>
      <trkpt lat="45.71543" lon="6.46116">
        <ele>566</ele>
        <time>2022-07-28T14:23:55Z</time>
      </trkpt>
      <trkpt lat="45.71543" lon="6.46116">
        <ele>566</ele>
        <time>2022-07-28T14:23:56Z</time>
      </trkpt>
      <trkpt lat="45.71544" lon="6.46115">
        <ele>565</ele>
        <time>2022-07-28T14:23:57Z</time>
      </trkpt>
      <trkpt lat="45.71545" lon="6.46114">
        <ele>565</ele>
        <time>2022-07-28T14:23:58Z</time>
      </trkpt>
      <trkpt lat="45.71545" lon="6.46113">
        <ele>565</ele>
        <time>2022-07-28T14:23:59Z</time>
      </trkpt>
      <trkpt lat="45.71546" lon="6.46112">
        <ele>565</ele>
        <time>2022-07-28T14:24:00Z</time>
      </trkpt>
      <trkpt lat="45.71547" lon="6.46111">
        <ele>565</ele>
        <time>2022-07-28T14:24:01Z</time>
      </trkpt>
      <trkpt lat="45.71547" lon="6.46111">
        <ele>565</ele>
        <time>2022-07-28T14:24:02Z</time>
      </trkpt>
      <trkpt lat="45.71548" lon="6.4611">
        <ele>565</ele>
        <time>2022-07-28T14:24:03Z</time>
      </trkpt>
      <trkpt lat="45.71548" lon="6.46109">
        <ele>565</ele>
        <time>2022-07-28T14:24:04Z</time>
      </trkpt>
      <trkpt lat="45.71549" lon="6.46108">
        <ele>565</ele>
        <time>2022-07-28T14:24:05Z</time>
      </trkpt>
      <trkpt lat="45.7155" lon="6.46107">
        <ele>565</ele>
        <time>2022-07-28T14:24:06Z</time>
      </trkpt>
      <trkpt lat="45.71551" lon="6.46106">
        <ele>564</ele>
        <time>2022-07-28T14:24:07Z</time>
      </trkpt>
      <trkpt lat="45.71552" lon="6.46106">
        <ele>564</ele>
        <time>2022-07-28T14:24:08Z</time>
      </trkpt>
      <trkpt lat="45.71553" lon="6.46105">
        <ele>564</ele>
        <time>2022-07-28T14:24:09Z</time>
      </trkpt>
      <trkpt lat="45.71554" lon="6.46104">
        <ele>564</ele>
        <time>2022-07-28T14:24:10Z</time>
      </trkpt>
      <trkpt lat="45.71555" lon="6.46103">
        <ele>564</ele>
        <time>2022-07-28T14:24:11Z</time>
      </trkpt>
      <trkpt lat="45.71556" lon="6.46102">
        <ele>564</ele>
        <time>2022-07-28T14:24:12Z</time>
      </trkpt>
      <trkpt lat="45.71557" lon="6.46101">
        <ele>564</ele>
        <time>2022-07-28T14:24:13Z</time>
      </trkpt>
      <trkpt lat="45.71559" lon="6.461">
        <ele>564</ele>
        <time>2022-07-28T14:24:14Z</time>
      </trkpt>
      <trkpt lat="45.7156" lon="6.46099">
        <ele>564</ele>
        <time>2022-07-28T14:24:15Z</time>
      </trkpt>
      <trkpt lat="45.71561" lon="6.46098">
        <ele>564</ele>
        <time>2022-07-28T14:24:16Z</time>
      </trkpt>
      <trkpt lat="45.71563" lon="6.46097">
        <ele>563</ele>
        <time>2022-07-28T14:24:17Z</time>
      </trkpt>
      <trkpt lat="45.71564" lon="6.46096">
        <ele>563</ele>
        <time>2022-07-28T14:24:18Z</time>
      </trkpt>
      <trkpt lat="45.71565" lon="6.46094">
        <ele>563</ele>
        <time>2022-07-28T14:24:19Z</time>
      </trkpt>
      <trkpt lat="45.71566" lon="6.46093">
        <ele>563</ele>
        <time>2022-07-28T14:24:20Z</time>
      </trkpt>
      <trkpt lat="45.71567" lon="6.46091">
        <ele>563</ele>
        <time>2022-07-28T14:24:21Z</time>
      </trkpt>
      <trkpt lat="45.71569" lon="6.4609">
        <ele>563</ele>
        <time>2022-07-28T14:24:22Z</time>
      </trkpt>
      <trkpt lat="45.7157" lon="6.46089">
        <ele>563</ele>
        <time>2022-07-28T14:24:23Z</time>
      </trkpt>
      <trkpt lat="45.71571" lon="6.46088">
        <ele>563</ele>
        <time>2022-07-28T14:24:24Z</time>
      </trkpt>
      <trkpt lat="45.71572" lon="6.46086">
        <ele>563</ele>
        <time>2022-07-28T14:24:25Z</time>
      </trkpt>
      <trkpt lat="45.71573" lon="6.46085">
        <ele>563</ele>
        <time>2022-07-28T14:24:26Z</time>
      </trkpt>
      <trkpt lat="45.71574" lon="6.46084">
        <ele>563</ele>
        <time>2022-07-28T14:24:27Z</time>
      </trkpt>
      <trkpt lat="45.71575" lon="6.46082">
        <ele>563</ele>
        <time>2022-07-28T14:24:28Z</time>
      </trkpt>
      <trkpt lat="45.71576" lon="6.46081">
        <ele>563</ele>
        <time>2022-07-28T14:24:29Z</time>
      </trkpt>
      <trkpt lat="45.71577" lon="6.46079">
        <ele>563</ele>
        <time>2022-07-28T14:24:30Z</time>
      </trkpt>
      <trkpt lat="45.71577" lon="6.46078">
        <ele>563</ele>
        <time>2022-07-28T14:24:31Z</time>
      </trkpt>
      <trkpt lat="45.71578" lon="6.46076">
        <ele>563</ele>
        <time>2022-07-28T14:24:32Z</time>
      </trkpt>
      <trkpt lat="45.71578" lon="6.46074">
        <ele>563</ele>
        <time>2022-07-28T14:24:33Z</time>
      </trkpt>
      <trkpt lat="45.71578" lon="6.46072">
        <ele>563</ele>
        <time>2022-07-28T14:24:34Z</time>
      </trkpt>
      <trkpt lat="45.71579" lon="6.46071">
        <ele>563</ele>
        <time>2022-07-28T14:24:35Z</time>
      </trkpt>
      <trkpt lat="45.71579" lon="6.46069">
        <ele>563</ele>
        <time>2022-07-28T14:24:36Z</time>
      </trkpt>
      <trkpt lat="45.71579" lon="6.46068">
        <ele>563</ele>
        <time>2022-07-28T14:24:37Z</time>
      </trkpt>
      <trkpt lat="45.71579" lon="6.46066">
        <ele>563</ele>
        <time>2022-07-28T14:24:38Z</time>
      </trkpt>
      <trkpt lat="45.71579" lon="6.46064">
        <ele>563</ele>
        <time>2022-07-28T14:24:39Z</time>
      </trkpt>
      <trkpt lat="45.7158" lon="6.46063">
        <ele>563</ele>
        <time>2022-07-28T14:24:40Z</time>
      </trkpt>
      <trkpt lat="45.7158" lon="6.46061">
        <ele>563</ele>
        <time>2022-07-28T14:24:41Z</time>
      </trkpt>
      <trkpt lat="45.7158" lon="6.46059">
        <ele>563</ele>
        <time>2022-07-28T14:24:42Z</time>
      </trkpt>
      <trkpt lat="45.7158" lon="6.46058">
        <ele>563</ele>
        <time>2022-07-28T14:24:43Z</time>
      </trkpt>
      <trkpt lat="45.71581" lon="6.46056">
        <ele>563</ele>
        <time>2022-07-28T14:24:44Z</time>
      </trkpt>
      <trkpt lat="45.71581" lon="6.46055">
        <ele>563</ele>
        <time>2022-07-28T14:24:45Z</time>
      </trkpt>
      <trkpt lat="45.71582" lon="6.46053">
        <ele>563</ele>
        <time>2022-07-28T14:24:46Z</time>
      </trkpt>
      <trkpt lat="45.71582" lon="6.46051">
        <ele>562</ele>
        <time>2022-07-28T14:24:47Z</time>
      </trkpt>
      <trkpt lat="45.71582" lon="6.4605">
        <ele>562</ele>
        <time>2022-07-28T14:24:48Z</time>
      </trkpt>
      <trkpt lat="45.71583" lon="6.46048">
        <ele>562</ele>
        <time>2022-07-28T14:24:49Z</time>
      </trkpt>
      <trkpt lat="45.71583" lon="6.46046">
        <ele>562</ele>
        <time>2022-07-28T14:24:50Z</time>
      </trkpt>
      <trkpt lat="45.71583" lon="6.46045">
        <ele>562</ele>
        <time>2022-07-28T14:24:51Z</time>
      </trkpt>
      <trkpt lat="45.71584" lon="6.46043">
        <ele>562</ele>
        <time>2022-07-28T14:24:52Z</time>
      </trkpt>
      <trkpt lat="45.71584" lon="6.46041">
        <ele>562</ele>
        <time>2022-07-28T14:24:53Z</time>
      </trkpt>
      <trkpt lat="45.71585" lon="6.4604">
        <ele>562</ele>
        <time>2022-07-28T14:24:54Z</time>
      </trkpt>
      <trkpt lat="45.71585" lon="6.46038">
        <ele>562</ele>
        <time>2022-07-28T14:24:55Z</time>
      </trkpt>
      <trkpt lat="45.71586" lon="6.46036">
        <ele>562</ele>
        <time>2022-07-28T14:24:56Z</time>
      </trkpt>
      <trkpt lat="45.71586" lon="6.46035">
        <ele>562</ele>
        <time>2022-07-28T14:24:57Z</time>
      </trkpt>
      <trkpt lat="45.71586" lon="6.46033">
        <ele>562</ele>
        <time>2022-07-28T14:24:58Z</time>
      </trkpt>
      <trkpt lat="45.71587" lon="6.46032">
        <ele>562</ele>
        <time>2022-07-28T14:24:59Z</time>
      </trkpt>
      <trkpt lat="45.71587" lon="6.4603">
        <ele>562</ele>
        <time>2022-07-28T14:25:00Z</time>
      </trkpt>
      <trkpt lat="45.71588" lon="6.46029">
        <ele>563</ele>
        <time>2022-07-28T14:25:01Z</time>
      </trkpt>
      <trkpt lat="45.71589" lon="6.46027">
        <ele>563</ele>
        <time>2022-07-28T14:25:02Z</time>
      </trkpt>
      <trkpt lat="45.71589" lon="6.46026">
        <ele>563</ele>
        <time>2022-07-28T14:25:03Z</time>
      </trkpt>
      <trkpt lat="45.7159" lon="6.46025">
        <ele>563</ele>
        <time>2022-07-28T14:25:04Z</time>
      </trkpt>
      <trkpt lat="45.71591" lon="6.46023">
        <ele>563</ele>
        <time>2022-07-28T14:25:05Z</time>
      </trkpt>
      <trkpt lat="45.71592" lon="6.46022">
        <ele>563</ele>
        <time>2022-07-28T14:25:06Z</time>
      </trkpt>
      <trkpt lat="45.71593" lon="6.46021">
        <ele>563</ele>
        <time>2022-07-28T14:25:07Z</time>
      </trkpt>
      <trkpt lat="45.71594" lon="6.4602">
        <ele>563</ele>
        <time>2022-07-28T14:25:08Z</time>
      </trkpt>
      <trkpt lat="45.71594" lon="6.46019">
        <ele>563</ele>
        <time>2022-07-28T14:25:09Z</time>
      </trkpt>
      <trkpt lat="45.71595" lon="6.46018">
        <ele>563</ele>
        <time>2022-07-28T14:25:10Z</time>
      </trkpt>
      <trkpt lat="45.71595" lon="6.46017">
        <ele>563</ele>
        <time>2022-07-28T14:25:11Z</time>
      </trkpt>
      <trkpt lat="45.71596" lon="6.46016">
        <ele>563</ele>
        <time>2022-07-28T14:25:12Z</time>
      </trkpt>
      <trkpt lat="45.71596" lon="6.46015">
        <ele>563</ele>
        <time>2022-07-28T14:25:13Z</time>
      </trkpt>
      <trkpt lat="45.71597" lon="6.46014">
        <ele>563</ele>
        <time>2022-07-28T14:25:14Z</time>
      </trkpt>
      <trkpt lat="45.71597" lon="6.46013">
        <ele>563</ele>
        <time>2022-07-28T14:25:15Z</time>
      </trkpt>
      <trkpt lat="45.71597" lon="6.46012">
        <ele>563</ele>
        <time>2022-07-28T14:25:16Z</time>
      </trkpt>
      <trkpt lat="45.71597" lon="6.46012">
        <ele>563</ele>
        <time>2022-07-28T14:25:17Z</time>
      </trkpt>
      <trkpt lat="45.71598" lon="6.46011">
        <ele>563</ele>
        <time>2022-07-28T14:25:18Z</time>
      </trkpt>
      <trkpt lat="45.71598" lon="6.4601">
        <ele>563</ele>
        <time>2022-07-28T14:25:19Z</time>
      </trkpt>
      <trkpt lat="45.71598" lon="6.46009">
        <ele>563</ele>
        <time>2022-07-28T14:25:20Z</time>
      </trkpt>
      <trkpt lat="45.71598" lon="6.46008">
        <ele>563</ele>
        <time>2022-07-28T14:25:21Z</time>
      </trkpt>
      <trkpt lat="45.71598" lon="6.46008">
        <ele>563</ele>
        <time>2022-07-28T14:25:22Z</time>
      </trkpt>
      <trkpt lat="45.71599" lon="6.46007">
        <ele>563</ele>
        <time>2022-07-28T14:25:23Z</time>
      </trkpt>
      <trkpt lat="45.71599" lon="6.46007">
        <ele>563</ele>
        <time>2022-07-28T14:25:24Z</time>
      </trkpt>
      <trkpt lat="45.71599" lon="6.46007">
        <ele>563</ele>
        <time>2022-07-28T14:25:25Z</time>
      </trkpt>
      <trkpt lat="45.716" lon="6.46007">
        <ele>563</ele>
        <time>2022-07-28T14:25:26Z</time>
      </trkpt>
      <trkpt lat="45.71601" lon="6.46007">
        <ele>563</ele>
        <time>2022-07-28T14:25:27Z</time>
      </trkpt>
      <trkpt lat="45.71601" lon="6.46007">
        <ele>563</ele>
        <time>2022-07-28T14:25:28Z</time>
      </trkpt>
      <trkpt lat="45.71601" lon="6.46007">
        <ele>563</ele>
        <time>2022-07-28T14:25:29Z</time>
      </trkpt>
      <trkpt lat="45.71601" lon="6.46007">
        <ele>563</ele>
        <time>2022-07-28T14:25:30Z</time>
      </trkpt>
      <trkpt lat="45.71602" lon="6.46008">
        <ele>564</ele>
        <time>2022-07-28T14:25:31Z</time>
      </trkpt>
      <trkpt lat="45.71602" lon="6.46008">
        <ele>564</ele>
        <time>2022-07-28T14:25:32Z</time>
      </trkpt>
      <trkpt lat="45.71603" lon="6.46009">
        <ele>564</ele>
        <time>2022-07-28T14:25:33Z</time>
      </trkpt>
      <trkpt lat="45.71603" lon="6.4601">
        <ele>564</ele>
        <time>2022-07-28T14:25:34Z</time>
      </trkpt>
      <trkpt lat="45.71604" lon="6.46011">
        <ele>564</ele>
        <time>2022-07-28T14:25:35Z</time>
      </trkpt>
      <trkpt lat="45.71604" lon="6.46012">
        <ele>564</ele>
        <time>2022-07-28T14:25:36Z</time>
      </trkpt>
      <trkpt lat="45.71605" lon="6.46013">
        <ele>564</ele>
        <time>2022-07-28T14:25:37Z</time>
      </trkpt>
      <trkpt lat="45.71606" lon="6.46014">
        <ele>564</ele>
        <time>2022-07-28T14:25:38Z</time>
      </trkpt>
      <trkpt lat="45.71607" lon="6.46015">
        <ele>564</ele>
        <time>2022-07-28T14:25:39Z</time>
      </trkpt>
      <trkpt lat="45.71608" lon="6.46017">
        <ele>564</ele>
        <time>2022-07-28T14:25:47Z</time>
      </trkpt>
      <trkpt lat="45.71609" lon="6.46018">
        <ele>564</ele>
        <time>2022-07-28T14:25:48Z</time>
      </trkpt>
      <trkpt lat="45.71609" lon="6.46018">
        <ele>564</ele>
        <time>2022-07-28T14:25:49Z</time>
      </trkpt>
      <trkpt lat="45.71608" lon="6.46018">
        <ele>564</ele>
        <time>2022-07-28T14:25:50Z</time>
      </trkpt>
      <trkpt lat="45.71608" lon="6.46018">
        <ele>564</ele>
        <time>2022-07-28T14:25:51Z</time>
      </trkpt>
      <trkpt lat="45.71607" lon="6.46018">
        <ele>564</ele>
        <time>2022-07-28T14:25:52Z</time>
      </trkpt>
      <trkpt lat="45.71607" lon="6.46017">
        <ele>564</ele>
        <time>2022-07-28T14:25:53Z</time>
      </trkpt>
      <trkpt lat="45.71606" lon="6.46017">
        <ele>564</ele>
        <time>2022-07-28T14:25:54Z</time>
      </trkpt>
      <trkpt lat="45.71605" lon="6.46016">
        <ele>564</ele>
        <time>2022-07-28T14:25:55Z</time>
      </trkpt>
      <trkpt lat="45.71604" lon="6.46015">
        <ele>564</ele>
        <time>2022-07-28T14:25:56Z</time>
      </trkpt>
      <trkpt lat="45.71604" lon="6.46014">
        <ele>564</ele>
        <time>2022-07-28T14:25:57Z</time>
      </trkpt>
      <trkpt lat="45.71603" lon="6.46013">
        <ele>564</ele>
        <time>2022-07-28T14:25:58Z</time>
      </trkpt>
      <trkpt lat="45.71603" lon="6.46012">
        <ele>564</ele>
        <time>2022-07-28T14:25:59Z</time>
      </trkpt>
      <trkpt lat="45.71602" lon="6.46011">
        <ele>564</ele>
        <time>2022-07-28T14:26:00Z</time>
      </trkpt>
      <trkpt lat="45.71602" lon="6.46009">
        <ele>564</ele>
        <time>2022-07-28T14:26:01Z</time>
      </trkpt>
      <trkpt lat="45.71602" lon="6.46008">
        <ele>564</ele>
        <time>2022-07-28T14:26:02Z</time>
      </trkpt>
      <trkpt lat="45.71603" lon="6.46006">
        <ele>564</ele>
        <time>2022-07-28T14:26:03Z</time>
      </trkpt>
      <trkpt lat="45.71603" lon="6.46005">
        <ele>564</ele>
        <time>2022-07-28T14:26:04Z</time>
      </trkpt>
      <trkpt lat="45.71604" lon="6.46003">
        <ele>564</ele>
        <time>2022-07-28T14:26:05Z</time>
      </trkpt>
      <trkpt lat="45.71605" lon="6.46002">
        <ele>564</ele>
        <time>2022-07-28T14:26:06Z</time>
      </trkpt>
      <trkpt lat="45.71605" lon="6.46001">
        <ele>564</ele>
        <time>2022-07-28T14:26:07Z</time>
      </trkpt>
      <trkpt lat="45.71606" lon="6.46">
        <ele>564</ele>
        <time>2022-07-28T14:26:08Z</time>
      </trkpt>
      <trkpt lat="45.71606" lon="6.45999">
        <ele>564</ele>
        <time>2022-07-28T14:26:09Z</time>
      </trkpt>
      <trkpt lat="45.71607" lon="6.45998">
        <ele>564</ele>
        <time>2022-07-28T14:26:10Z</time>
      </trkpt>
      <trkpt lat="45.71607" lon="6.45997">
        <ele>564</ele>
        <time>2022-07-28T14:26:11Z</time>
      </trkpt>
      <trkpt lat="45.71608" lon="6.45996">
        <ele>563</ele>
        <time>2022-07-28T14:26:12Z</time>
      </trkpt>
      <trkpt lat="45.71609" lon="6.45995">
        <ele>563</ele>
        <time>2022-07-28T14:26:13Z</time>
      </trkpt>
      <trkpt lat="45.7161" lon="6.45994">
        <ele>563</ele>
        <time>2022-07-28T14:26:14Z</time>
      </trkpt>
      <trkpt lat="45.71611" lon="6.45994">
        <ele>563</ele>
        <time>2022-07-28T14:26:15Z</time>
      </trkpt>
      <trkpt lat="45.71612" lon="6.45992">
        <ele>563</ele>
        <time>2022-07-28T14:26:16Z</time>
      </trkpt>
      <trkpt lat="45.71614" lon="6.45991">
        <ele>563</ele>
        <time>2022-07-28T14:26:17Z</time>
      </trkpt>
      <trkpt lat="45.71615" lon="6.4599">
        <ele>563</ele>
        <time>2022-07-28T14:26:18Z</time>
      </trkpt>
      <trkpt lat="45.71616" lon="6.45989">
        <ele>563</ele>
        <time>2022-07-28T14:26:19Z</time>
      </trkpt>
      <trkpt lat="45.71617" lon="6.45988">
        <ele>563</ele>
        <time>2022-07-28T14:26:20Z</time>
      </trkpt>
      <trkpt lat="45.71618" lon="6.45987">
        <ele>563</ele>
        <time>2022-07-28T14:26:21Z</time>
      </trkpt>
      <trkpt lat="45.71619" lon="6.45985">
        <ele>562</ele>
        <time>2022-07-28T14:26:22Z</time>
      </trkpt>
      <trkpt lat="45.7162" lon="6.45984">
        <ele>562</ele>
        <time>2022-07-28T14:26:23Z</time>
      </trkpt>
      <trkpt lat="45.7162" lon="6.45983">
        <ele>562</ele>
        <time>2022-07-28T14:26:24Z</time>
      </trkpt>
      <trkpt lat="45.71621" lon="6.45981">
        <ele>562</ele>
        <time>2022-07-28T14:26:25Z</time>
      </trkpt>
      <trkpt lat="45.71622" lon="6.4598">
        <ele>562</ele>
        <time>2022-07-28T14:26:26Z</time>
      </trkpt>
      <trkpt lat="45.71622" lon="6.45979">
        <ele>562</ele>
        <time>2022-07-28T14:26:27Z</time>
      </trkpt>
      <trkpt lat="45.71623" lon="6.45978">
        <ele>562</ele>
        <time>2022-07-28T14:26:28Z</time>
      </trkpt>
      <trkpt lat="45.71624" lon="6.45977">
        <ele>562</ele>
        <time>2022-07-28T14:26:29Z</time>
      </trkpt>
      <trkpt lat="45.71624" lon="6.45975">
        <ele>562</ele>
        <time>2022-07-28T14:26:30Z</time>
      </trkpt>
      <trkpt lat="45.71625" lon="6.45974">
        <ele>562</ele>
        <time>2022-07-28T14:26:31Z</time>
      </trkpt>
      <trkpt lat="45.71625" lon="6.45972">
        <ele>561</ele>
        <time>2022-07-28T14:26:32Z</time>
      </trkpt>
      <trkpt lat="45.71625" lon="6.4597">
        <ele>561</ele>
        <time>2022-07-28T14:26:33Z</time>
      </trkpt>
      <trkpt lat="45.71626" lon="6.45969">
        <ele>561</ele>
        <time>2022-07-28T14:26:34Z</time>
      </trkpt>
      <trkpt lat="45.71626" lon="6.45967">
        <ele>561</ele>
        <time>2022-07-28T14:26:35Z</time>
      </trkpt>
      <trkpt lat="45.71626" lon="6.45966">
        <ele>561</ele>
        <time>2022-07-28T14:26:36Z</time>
      </trkpt>
      <trkpt lat="45.71626" lon="6.45964">
        <ele>561</ele>
        <time>2022-07-28T14:26:37Z</time>
      </trkpt>
      <trkpt lat="45.71627" lon="6.45962">
        <ele>561</ele>
        <time>2022-07-28T14:26:38Z</time>
      </trkpt>
      <trkpt lat="45.71627" lon="6.4596">
        <ele>561</ele>
        <time>2022-07-28T14:26:39Z</time>
      </trkpt>
      <trkpt lat="45.71628" lon="6.45959">
        <ele>561</ele>
        <time>2022-07-28T14:26:40Z</time>
      </trkpt>
      <trkpt lat="45.71628" lon="6.45957">
        <ele>561</ele>
        <time>2022-07-28T14:26:41Z</time>
      </trkpt>
      <trkpt lat="45.71629" lon="6.45956">
        <ele>560</ele>
        <time>2022-07-28T14:26:42Z</time>
      </trkpt>
      <trkpt lat="45.7163" lon="6.45955">
        <ele>560</ele>
        <time>2022-07-28T14:26:43Z</time>
      </trkpt>
      <trkpt lat="45.71631" lon="6.45954">
        <ele>560</ele>
        <time>2022-07-28T14:26:44Z</time>
      </trkpt>
      <trkpt lat="45.71632" lon="6.45953">
        <ele>560</ele>
        <time>2022-07-28T14:26:45Z</time>
      </trkpt>
      <trkpt lat="45.71633" lon="6.45952">
        <ele>560</ele>
        <time>2022-07-28T14:26:46Z</time>
      </trkpt>
      <trkpt lat="45.71634" lon="6.45951">
        <ele>560</ele>
        <time>2022-07-28T14:26:47Z</time>
      </trkpt>
      <trkpt lat="45.71635" lon="6.4595">
        <ele>560</ele>
        <time>2022-07-28T14:26:48Z</time>
      </trkpt>
      <trkpt lat="45.71635" lon="6.4595">
        <ele>560</ele>
        <time>2022-07-28T14:26:49Z</time>
      </trkpt>
      <trkpt lat="45.71636" lon="6.45949">
        <ele>560</ele>
        <time>2022-07-28T14:26:50Z</time>
      </trkpt>
      <trkpt lat="45.71637" lon="6.45948">
        <ele>560</ele>
        <time>2022-07-28T14:26:51Z</time>
      </trkpt>
      <trkpt lat="45.71637" lon="6.45947">
        <ele>560</ele>
        <time>2022-07-28T14:26:52Z</time>
      </trkpt>
      <trkpt lat="45.71638" lon="6.45946">
        <ele>560</ele>
        <time>2022-07-28T14:26:53Z</time>
      </trkpt>
      <trkpt lat="45.71638" lon="6.45944">
        <ele>560</ele>
        <time>2022-07-28T14:26:54Z</time>
      </trkpt>
      <trkpt lat="45.71639" lon="6.45943">
        <ele>560</ele>
        <time>2022-07-28T14:26:55Z</time>
      </trkpt>
      <trkpt lat="45.71639" lon="6.45942">
        <ele>560</ele>
        <time>2022-07-28T14:26:56Z</time>
      </trkpt>
      <trkpt lat="45.7164" lon="6.45941">
        <ele>560</ele>
        <time>2022-07-28T14:26:57Z</time>
      </trkpt>
      <trkpt lat="45.7164" lon="6.45939">
        <ele>560</ele>
        <time>2022-07-28T14:26:58Z</time>
      </trkpt>
      <trkpt lat="45.71641" lon="6.45938">
        <ele>560</ele>
        <time>2022-07-28T14:26:59Z</time>
      </trkpt>
      <trkpt lat="45.71642" lon="6.45937">
        <ele>560</ele>
        <time>2022-07-28T14:27:00Z</time>
      </trkpt>
      <trkpt lat="45.71642" lon="6.45936">
        <ele>560</ele>
        <time>2022-07-28T14:27:01Z</time>
      </trkpt>
      <trkpt lat="45.71643" lon="6.45935">
        <ele>559</ele>
        <time>2022-07-28T14:27:02Z</time>
      </trkpt>
      <trkpt lat="45.71644" lon="6.45934">
        <ele>559</ele>
        <time>2022-07-28T14:27:03Z</time>
      </trkpt>
      <trkpt lat="45.71644" lon="6.45933">
        <ele>559</ele>
        <time>2022-07-28T14:27:04Z</time>
      </trkpt>
      <trkpt lat="45.71645" lon="6.45932">
        <ele>559</ele>
        <time>2022-07-28T14:27:05Z</time>
      </trkpt>
      <trkpt lat="45.71645" lon="6.45931">
        <ele>559</ele>
        <time>2022-07-28T14:27:06Z</time>
      </trkpt>
      <trkpt lat="45.71646" lon="6.4593">
        <ele>559</ele>
        <time>2022-07-28T14:27:07Z</time>
      </trkpt>
      <trkpt lat="45.71646" lon="6.45929">
        <ele>559</ele>
        <time>2022-07-28T14:27:08Z</time>
      </trkpt>
      <trkpt lat="45.71646" lon="6.45928">
        <ele>559</ele>
        <time>2022-07-28T14:27:09Z</time>
      </trkpt>
      <trkpt lat="45.71647" lon="6.45927">
        <ele>559</ele>
        <time>2022-07-28T14:27:10Z</time>
      </trkpt>
      <trkpt lat="45.71647" lon="6.45926">
        <ele>559</ele>
        <time>2022-07-28T14:27:11Z</time>
      </trkpt>
      <trkpt lat="45.71648" lon="6.45925">
        <ele>559</ele>
        <time>2022-07-28T14:27:12Z</time>
      </trkpt>
      <trkpt lat="45.71648" lon="6.45924">
        <ele>559</ele>
        <time>2022-07-28T14:27:13Z</time>
      </trkpt>
      <trkpt lat="45.71649" lon="6.45924">
        <ele>559</ele>
        <time>2022-07-28T14:27:14Z</time>
      </trkpt>
      <trkpt lat="45.7165" lon="6.45923">
        <ele>559</ele>
        <time>2022-07-28T14:27:15Z</time>
      </trkpt>
      <trkpt lat="45.71651" lon="6.45922">
        <ele>559</ele>
        <time>2022-07-28T14:27:16Z</time>
      </trkpt>
      <trkpt lat="45.71651" lon="6.45921">
        <ele>559</ele>
        <time>2022-07-28T14:27:17Z</time>
      </trkpt>
      <trkpt lat="45.71652" lon="6.45921">
        <ele>559</ele>
        <time>2022-07-28T14:27:18Z</time>
      </trkpt>
      <trkpt lat="45.71653" lon="6.4592">
        <ele>559</ele>
        <time>2022-07-28T14:27:19Z</time>
      </trkpt>
      <trkpt lat="45.71652" lon="6.4592">
        <ele>559</ele>
        <time>2022-07-28T14:27:20Z</time>
      </trkpt>
      <trkpt lat="45.71652" lon="6.4592">
        <ele>559</ele>
        <time>2022-07-28T14:27:21Z</time>
      </trkpt>
      <trkpt lat="45.71652" lon="6.4592">
        <ele>560</ele>
        <time>2022-07-28T14:27:32Z</time>
      </trkpt>
      <trkpt lat="45.71652" lon="6.4592">
        <ele>560</ele>
        <time>2022-07-28T14:27:33Z</time>
      </trkpt>
      <trkpt lat="45.71651" lon="6.4592">
        <ele>560</ele>
        <time>2022-07-28T14:27:34Z</time>
      </trkpt>
      <trkpt lat="45.71652" lon="6.45921">
        <ele>560</ele>
        <time>2022-07-28T14:27:35Z</time>
      </trkpt>
      <trkpt lat="45.71652" lon="6.45921">
        <ele>560</ele>
        <time>2022-07-28T14:27:36Z</time>
      </trkpt>
      <trkpt lat="45.71653" lon="6.45921">
        <ele>559</ele>
        <time>2022-07-28T14:27:37Z</time>
      </trkpt>
      <trkpt lat="45.71654" lon="6.45921">
        <ele>559</ele>
        <time>2022-07-28T14:27:38Z</time>
      </trkpt>
      <trkpt lat="45.71654" lon="6.45922">
        <ele>559</ele>
        <time>2022-07-28T14:27:39Z</time>
      </trkpt>
      <trkpt lat="45.71655" lon="6.45922">
        <ele>559</ele>
        <time>2022-07-28T14:27:40Z</time>
      </trkpt>
      <trkpt lat="45.71656" lon="6.45922">
        <ele>559</ele>
        <time>2022-07-28T14:27:41Z</time>
      </trkpt>
      <trkpt lat="45.71656" lon="6.45922">
        <ele>559</ele>
        <time>2022-07-28T14:27:42Z</time>
      </trkpt>
      <trkpt lat="45.71656" lon="6.45922">
        <ele>559</ele>
        <time>2022-07-28T14:27:43Z</time>
      </trkpt>
      <trkpt lat="45.71657" lon="6.45922">
        <ele>559</ele>
        <time>2022-07-28T14:27:44Z</time>
      </trkpt>
      <trkpt lat="45.71658" lon="6.45922">
        <ele>559</ele>
        <time>2022-07-28T14:27:45Z</time>
      </trkpt>
      <trkpt lat="45.71659" lon="6.45922">
        <ele>559</ele>
        <time>2022-07-28T14:27:46Z</time>
      </trkpt>
      <trkpt lat="45.71659" lon="6.45922">
        <ele>559</ele>
        <time>2022-07-28T14:27:47Z</time>
      </trkpt>
      <trkpt lat="45.7166" lon="6.45922">
        <ele>559</ele>
        <time>2022-07-28T14:27:48Z</time>
      </trkpt>
      <trkpt lat="45.71662" lon="6.45922">
        <ele>559</ele>
        <time>2022-07-28T14:27:49Z</time>
      </trkpt>
      <trkpt lat="45.71663" lon="6.45922">
        <ele>559</ele>
        <time>2022-07-28T14:27:50Z</time>
      </trkpt>
      <trkpt lat="45.71664" lon="6.45922">
        <ele>559</ele>
        <time>2022-07-28T14:27:51Z</time>
      </trkpt>
      <trkpt lat="45.71665" lon="6.45922">
        <ele>559</ele>
        <time>2022-07-28T14:27:52Z</time>
      </trkpt>
      <trkpt lat="45.71666" lon="6.45922">
        <ele>559</ele>
        <time>2022-07-28T14:27:53Z</time>
      </trkpt>
      <trkpt lat="45.71667" lon="6.45922">
        <ele>559</ele>
        <time>2022-07-28T14:27:54Z</time>
      </trkpt>
      <trkpt lat="45.71668" lon="6.45922">
        <ele>559</ele>
        <time>2022-07-28T14:27:55Z</time>
      </trkpt>
      <trkpt lat="45.71669" lon="6.45921">
        <ele>559</ele>
        <time>2022-07-28T14:27:56Z</time>
      </trkpt>
      <trkpt lat="45.71671" lon="6.45921">
        <ele>559</ele>
        <time>2022-07-28T14:27:57Z</time>
      </trkpt>
      <trkpt lat="45.71672" lon="6.45921">
        <ele>559</ele>
        <time>2022-07-28T14:27:58Z</time>
      </trkpt>
      <trkpt lat="45.71673" lon="6.4592">
        <ele>559</ele>
        <time>2022-07-28T14:27:59Z</time>
      </trkpt>
      <trkpt lat="45.71673" lon="6.4592">
        <ele>559</ele>
        <time>2022-07-28T14:28:00Z</time>
      </trkpt>
      <trkpt lat="45.71674" lon="6.45919">
        <ele>559</ele>
        <time>2022-07-28T14:28:01Z</time>
      </trkpt>
      <trkpt lat="45.71675" lon="6.45919">
        <ele>559</ele>
        <time>2022-07-28T14:28:02Z</time>
      </trkpt>
      <trkpt lat="45.71676" lon="6.45918">
        <ele>559</ele>
        <time>2022-07-28T14:28:03Z</time>
      </trkpt>
      <trkpt lat="45.71677" lon="6.45917">
        <ele>559</ele>
        <time>2022-07-28T14:28:04Z</time>
      </trkpt>
      <trkpt lat="45.71678" lon="6.45916">
        <ele>559</ele>
        <time>2022-07-28T14:28:05Z</time>
      </trkpt>
      <trkpt lat="45.71679" lon="6.45916">
        <ele>559</ele>
        <time>2022-07-28T14:28:06Z</time>
      </trkpt>
      <trkpt lat="45.7168" lon="6.45915">
        <ele>559</ele>
        <time>2022-07-28T14:28:07Z</time>
      </trkpt>
      <trkpt lat="45.71681" lon="6.45914">
        <ele>559</ele>
        <time>2022-07-28T14:28:08Z</time>
      </trkpt>
      <trkpt lat="45.71682" lon="6.45913">
        <ele>559</ele>
        <time>2022-07-28T14:28:09Z</time>
      </trkpt>
      <trkpt lat="45.71683" lon="6.45912">
        <ele>559</ele>
        <time>2022-07-28T14:28:10Z</time>
      </trkpt>
      <trkpt lat="45.71684" lon="6.45912">
        <ele>559</ele>
        <time>2022-07-28T14:28:11Z</time>
      </trkpt>
      <trkpt lat="45.71685" lon="6.45911">
        <ele>558</ele>
        <time>2022-07-28T14:28:12Z</time>
      </trkpt>
      <trkpt lat="45.71686" lon="6.4591">
        <ele>558</ele>
        <time>2022-07-28T14:28:13Z</time>
      </trkpt>
      <trkpt lat="45.71687" lon="6.45909">
        <ele>558</ele>
        <time>2022-07-28T14:28:14Z</time>
      </trkpt>
      <trkpt lat="45.71688" lon="6.45908">
        <ele>558</ele>
        <time>2022-07-28T14:28:15Z</time>
      </trkpt>
      <trkpt lat="45.71689" lon="6.45906">
        <ele>558</ele>
        <time>2022-07-28T14:28:16Z</time>
      </trkpt>
      <trkpt lat="45.71689" lon="6.45905">
        <ele>558</ele>
        <time>2022-07-28T14:28:17Z</time>
      </trkpt>
      <trkpt lat="45.7169" lon="6.45904">
        <ele>558</ele>
        <time>2022-07-28T14:28:18Z</time>
      </trkpt>
      <trkpt lat="45.71691" lon="6.45903">
        <ele>558</ele>
        <time>2022-07-28T14:28:19Z</time>
      </trkpt>
      <trkpt lat="45.71692" lon="6.45901">
        <ele>558</ele>
        <time>2022-07-28T14:28:20Z</time>
      </trkpt>
      <trkpt lat="45.71692" lon="6.459">
        <ele>558</ele>
        <time>2022-07-28T14:28:21Z</time>
      </trkpt>
      <trkpt lat="45.71693" lon="6.45899">
        <ele>558</ele>
        <time>2022-07-28T14:28:22Z</time>
      </trkpt>
      <trkpt lat="45.71694" lon="6.45898">
        <ele>558</ele>
        <time>2022-07-28T14:28:23Z</time>
      </trkpt>
      <trkpt lat="45.71695" lon="6.45897">
        <ele>558</ele>
        <time>2022-07-28T14:28:24Z</time>
      </trkpt>
      <trkpt lat="45.71695" lon="6.45895">
        <ele>558</ele>
        <time>2022-07-28T14:28:25Z</time>
      </trkpt>
      <trkpt lat="45.71696" lon="6.45894">
        <ele>558</ele>
        <time>2022-07-28T14:28:26Z</time>
      </trkpt>
      <trkpt lat="45.71697" lon="6.45893">
        <ele>558</ele>
        <time>2022-07-28T14:28:27Z</time>
      </trkpt>
      <trkpt lat="45.71698" lon="6.45892">
        <ele>558</ele>
        <time>2022-07-28T14:28:28Z</time>
      </trkpt>
      <trkpt lat="45.71699" lon="6.45891">
        <ele>558</ele>
        <time>2022-07-28T14:28:29Z</time>
      </trkpt>
      <trkpt lat="45.71699" lon="6.45889">
        <ele>558</ele>
        <time>2022-07-28T14:28:30Z</time>
      </trkpt>
      <trkpt lat="45.717" lon="6.45888">
        <ele>558</ele>
        <time>2022-07-28T14:28:31Z</time>
      </trkpt>
      <trkpt lat="45.71701" lon="6.45886">
        <ele>558</ele>
        <time>2022-07-28T14:28:32Z</time>
      </trkpt>
      <trkpt lat="45.71701" lon="6.45885">
        <ele>558</ele>
        <time>2022-07-28T14:28:33Z</time>
      </trkpt>
      <trkpt lat="45.71702" lon="6.45883">
        <ele>558</ele>
        <time>2022-07-28T14:28:34Z</time>
      </trkpt>
      <trkpt lat="45.71703" lon="6.45882">
        <ele>558</ele>
        <time>2022-07-28T14:28:35Z</time>
      </trkpt>
      <trkpt lat="45.71703" lon="6.4588">
        <ele>558</ele>
        <time>2022-07-28T14:28:36Z</time>
      </trkpt>
      <trkpt lat="45.71704" lon="6.45879">
        <ele>557</ele>
        <time>2022-07-28T14:28:37Z</time>
      </trkpt>
      <trkpt lat="45.71704" lon="6.45878">
        <ele>557</ele>
        <time>2022-07-28T14:28:38Z</time>
      </trkpt>
      <trkpt lat="45.71705" lon="6.45876">
        <ele>557</ele>
        <time>2022-07-28T14:28:39Z</time>
      </trkpt>
      <trkpt lat="45.71705" lon="6.45875">
        <ele>557</ele>
        <time>2022-07-28T14:28:40Z</time>
      </trkpt>
      <trkpt lat="45.71706" lon="6.45873">
        <ele>557</ele>
        <time>2022-07-28T14:28:41Z</time>
      </trkpt>
      <trkpt lat="45.71706" lon="6.45872">
        <ele>557</ele>
        <time>2022-07-28T14:28:42Z</time>
      </trkpt>
      <trkpt lat="45.71707" lon="6.4587">
        <ele>557</ele>
        <time>2022-07-28T14:28:43Z</time>
      </trkpt>
      <trkpt lat="45.71707" lon="6.45869">
        <ele>557</ele>
        <time>2022-07-28T14:28:44Z</time>
      </trkpt>
      <trkpt lat="45.71708" lon="6.45867">
        <ele>557</ele>
        <time>2022-07-28T14:28:45Z</time>
      </trkpt>
      <trkpt lat="45.71708" lon="6.45865">
        <ele>557</ele>
        <time>2022-07-28T14:28:46Z</time>
      </trkpt>
      <trkpt lat="45.71709" lon="6.45864">
        <ele>557</ele>
        <time>2022-07-28T14:28:47Z</time>
      </trkpt>
      <trkpt lat="45.71709" lon="6.45863">
        <ele>557</ele>
        <time>2022-07-28T14:28:48Z</time>
      </trkpt>
      <trkpt lat="45.7171" lon="6.45861">
        <ele>557</ele>
        <time>2022-07-28T14:28:49Z</time>
      </trkpt>
      <trkpt lat="45.7171" lon="6.4586">
        <ele>557</ele>
        <time>2022-07-28T14:28:50Z</time>
      </trkpt>
      <trkpt lat="45.71711" lon="6.45858">
        <ele>557</ele>
        <time>2022-07-28T14:28:51Z</time>
      </trkpt>
      <trkpt lat="45.71712" lon="6.45857">
        <ele>557</ele>
        <time>2022-07-28T14:28:52Z</time>
      </trkpt>
      <trkpt lat="45.71712" lon="6.45856">
        <ele>557</ele>
        <time>2022-07-28T14:28:53Z</time>
      </trkpt>
      <trkpt lat="45.71712" lon="6.45854">
        <ele>557</ele>
        <time>2022-07-28T14:28:54Z</time>
      </trkpt>
      <trkpt lat="45.71713" lon="6.45853">
        <ele>557</ele>
        <time>2022-07-28T14:28:55Z</time>
      </trkpt>
      <trkpt lat="45.71713" lon="6.45851">
        <ele>557</ele>
        <time>2022-07-28T14:28:56Z</time>
      </trkpt>
      <trkpt lat="45.71714" lon="6.4585">
        <ele>557</ele>
        <time>2022-07-28T14:28:57Z</time>
      </trkpt>
      <trkpt lat="45.71714" lon="6.45848">
        <ele>557</ele>
        <time>2022-07-28T14:28:58Z</time>
      </trkpt>
      <trkpt lat="45.71714" lon="6.45847">
        <ele>557</ele>
        <time>2022-07-28T14:28:59Z</time>
      </trkpt>
      <trkpt lat="45.71714" lon="6.45845">
        <ele>557</ele>
        <time>2022-07-28T14:29:00Z</time>
      </trkpt>
      <trkpt lat="45.71714" lon="6.45843">
        <ele>557</ele>
        <time>2022-07-28T14:29:01Z</time>
      </trkpt>
      <trkpt lat="45.71714" lon="6.45842">
        <ele>557</ele>
        <time>2022-07-28T14:29:02Z</time>
      </trkpt>
      <trkpt lat="45.71715" lon="6.45841">
        <ele>557</ele>
        <time>2022-07-28T14:29:03Z</time>
      </trkpt>
      <trkpt lat="45.71715" lon="6.45839">
        <ele>557</ele>
        <time>2022-07-28T14:29:04Z</time>
      </trkpt>
      <trkpt lat="45.71715" lon="6.45838">
        <ele>557</ele>
        <time>2022-07-28T14:29:05Z</time>
      </trkpt>
      <trkpt lat="45.71715" lon="6.45836">
        <ele>557</ele>
        <time>2022-07-28T14:29:06Z</time>
      </trkpt>
      <trkpt lat="45.71715" lon="6.45835">
        <ele>557</ele>
        <time>2022-07-28T14:29:07Z</time>
      </trkpt>
      <trkpt lat="45.71715" lon="6.45833">
        <ele>557</ele>
        <time>2022-07-28T14:29:08Z</time>
      </trkpt>
      <trkpt lat="45.71715" lon="6.45832">
        <ele>557</ele>
        <time>2022-07-28T14:29:09Z</time>
      </trkpt>
      <trkpt lat="45.71716" lon="6.4583">
        <ele>557</ele>
        <time>2022-07-28T14:29:10Z</time>
      </trkpt>
      <trkpt lat="45.71716" lon="6.45829">
        <ele>557</ele>
        <time>2022-07-28T14:29:11Z</time>
      </trkpt>
      <trkpt lat="45.71716" lon="6.45827">
        <ele>557</ele>
        <time>2022-07-28T14:29:12Z</time>
      </trkpt>
      <trkpt lat="45.71716" lon="6.45826">
        <ele>557</ele>
        <time>2022-07-28T14:29:13Z</time>
      </trkpt>
      <trkpt lat="45.71716" lon="6.45825">
        <ele>557</ele>
        <time>2022-07-28T14:29:14Z</time>
      </trkpt>
      <trkpt lat="45.71716" lon="6.45823">
        <ele>557</ele>
        <time>2022-07-28T14:29:15Z</time>
      </trkpt>
      <trkpt lat="45.71717" lon="6.45821">
        <ele>557</ele>
        <time>2022-07-28T14:29:16Z</time>
      </trkpt>
      <trkpt lat="45.71717" lon="6.4582">
        <ele>557</ele>
        <time>2022-07-28T14:29:17Z</time>
      </trkpt>
      <trkpt lat="45.71717" lon="6.45818">
        <ele>557</ele>
        <time>2022-07-28T14:29:18Z</time>
      </trkpt>
      <trkpt lat="45.71718" lon="6.45816">
        <ele>557</ele>
        <time>2022-07-28T14:29:19Z</time>
      </trkpt>
      <trkpt lat="45.71718" lon="6.45815">
        <ele>557</ele>
        <time>2022-07-28T14:29:20Z</time>
      </trkpt>
      <trkpt lat="45.71719" lon="6.45814">
        <ele>557</ele>
        <time>2022-07-28T14:29:21Z</time>
      </trkpt>
      <trkpt lat="45.7172" lon="6.45813">
        <ele>557</ele>
        <time>2022-07-28T14:29:45Z</time>
      </trkpt>
      <trkpt lat="45.71721" lon="6.45812">
        <ele>557</ele>
        <time>2022-07-28T14:29:46Z</time>
      </trkpt>
      <trkpt lat="45.71722" lon="6.45812">
        <ele>557</ele>
        <time>2022-07-28T14:29:47Z</time>
      </trkpt>
      <trkpt lat="45.71722" lon="6.45811">
        <ele>557</ele>
        <time>2022-07-28T14:29:48Z</time>
      </trkpt>
      <trkpt lat="45.71722" lon="6.4581">
        <ele>557</ele>
        <time>2022-07-28T14:29:49Z</time>
      </trkpt>
      <trkpt lat="45.71723" lon="6.45809">
        <ele>557</ele>
        <time>2022-07-28T14:29:50Z</time>
      </trkpt>
      <trkpt lat="45.71723" lon="6.45808">
        <ele>557</ele>
        <time>2022-07-28T14:29:51Z</time>
      </trkpt>
      <trkpt lat="45.71724" lon="6.45807">
        <ele>557</ele>
        <time>2022-07-28T14:29:52Z</time>
      </trkpt>
      <trkpt lat="45.71725" lon="6.45806">
        <ele>557</ele>
        <time>2022-07-28T14:29:53Z</time>
      </trkpt>
      <trkpt lat="45.71725" lon="6.45805">
        <ele>557</ele>
        <time>2022-07-28T14:29:54Z</time>
      </trkpt>
      <trkpt lat="45.71725" lon="6.45805">
        <ele>557</ele>
        <time>2022-07-28T14:29:55Z</time>
      </trkpt>
      <trkpt lat="45.71726" lon="6.45804">
        <ele>558</ele>
        <time>2022-07-28T14:29:56Z</time>
      </trkpt>
      <trkpt lat="45.71726" lon="6.45804">
        <ele>558</ele>
        <time>2022-07-28T14:30:21Z</time>
      </trkpt>
      <trkpt lat="45.71727" lon="6.45804">
        <ele>558</ele>
        <time>2022-07-28T14:30:22Z</time>
      </trkpt>
      <trkpt lat="45.71727" lon="6.45804">
        <ele>558</ele>
        <time>2022-07-28T14:30:23Z</time>
      </trkpt>
      <trkpt lat="45.71728" lon="6.45804">
        <ele>558</ele>
        <time>2022-07-28T14:30:24Z</time>
      </trkpt>
      <trkpt lat="45.71728" lon="6.45804">
        <ele>558</ele>
        <time>2022-07-28T14:30:25Z</time>
      </trkpt>
      <trkpt lat="45.71729" lon="6.45804">
        <ele>558</ele>
        <time>2022-07-28T14:30:26Z</time>
      </trkpt>
      <trkpt lat="45.71729" lon="6.45804">
        <ele>558</ele>
        <time>2022-07-28T14:30:27Z</time>
      </trkpt>
      <trkpt lat="45.7173" lon="6.45803">
        <ele>558</ele>
        <time>2022-07-28T14:30:28Z</time>
      </trkpt>
      <trkpt lat="45.71731" lon="6.45803">
        <ele>558</ele>
        <time>2022-07-28T14:30:29Z</time>
      </trkpt>
      <trkpt lat="45.71733" lon="6.45803">
        <ele>558</ele>
        <time>2022-07-28T14:30:43Z</time>
      </trkpt>
      <trkpt lat="45.71734" lon="6.45802">
        <ele>558</ele>
        <time>2022-07-28T14:30:44Z</time>
      </trkpt>
      <trkpt lat="45.71735" lon="6.45802">
        <ele>558</ele>
        <time>2022-07-28T14:30:45Z</time>
      </trkpt>
      <trkpt lat="45.71736" lon="6.45802">
        <ele>558</ele>
        <time>2022-07-28T14:30:46Z</time>
      </trkpt>
      <trkpt lat="45.71736" lon="6.45802">
        <ele>558</ele>
        <time>2022-07-28T14:30:47Z</time>
      </trkpt>
      <trkpt lat="45.71737" lon="6.45802">
        <ele>558</ele>
        <time>2022-07-28T14:30:48Z</time>
      </trkpt>
      <trkpt lat="45.71738" lon="6.45801">
        <ele>558</ele>
        <time>2022-07-28T14:30:49Z</time>
      </trkpt>
      <trkpt lat="45.71738" lon="6.45801">
        <ele>558</ele>
        <time>2022-07-28T14:30:50Z</time>
      </trkpt>
      <trkpt lat="45.71739" lon="6.45801">
        <ele>558</ele>
        <time>2022-07-28T14:30:51Z</time>
      </trkpt>
      <trkpt lat="45.7174" lon="6.458">
        <ele>557</ele>
        <time>2022-07-28T14:30:52Z</time>
      </trkpt>
      <trkpt lat="45.7174" lon="6.458">
        <ele>557</ele>
        <time>2022-07-28T14:30:53Z</time>
      </trkpt>
      <trkpt lat="45.71741" lon="6.45799">
        <ele>557</ele>
        <time>2022-07-28T14:30:54Z</time>
      </trkpt>
      <trkpt lat="45.71742" lon="6.45799">
        <ele>557</ele>
        <time>2022-07-28T14:30:55Z</time>
      </trkpt>
      <trkpt lat="45.71742" lon="6.45799">
        <ele>557</ele>
        <time>2022-07-28T14:30:56Z</time>
      </trkpt>
      <trkpt lat="45.71743" lon="6.45799">
        <ele>557</ele>
        <time>2022-07-28T14:30:57Z</time>
      </trkpt>
      <trkpt lat="45.71743" lon="6.45799">
        <ele>557</ele>
        <time>2022-07-28T14:30:58Z</time>
      </trkpt>
      <trkpt lat="45.71744" lon="6.45798">
        <ele>557</ele>
        <time>2022-07-28T14:30:59Z</time>
      </trkpt>
      <trkpt lat="45.71744" lon="6.45798">
        <ele>557</ele>
        <time>2022-07-28T14:31:00Z</time>
      </trkpt>
      <trkpt lat="45.71745" lon="6.45797">
        <ele>557</ele>
        <time>2022-07-28T14:31:01Z</time>
      </trkpt>
      <trkpt lat="45.71746" lon="6.45797">
        <ele>557</ele>
        <time>2022-07-28T14:31:02Z</time>
      </trkpt>
      <trkpt lat="45.71747" lon="6.45796">
        <ele>557</ele>
        <time>2022-07-28T14:31:03Z</time>
      </trkpt>
      <trkpt lat="45.71749" lon="6.45794">
        <ele>557</ele>
        <time>2022-07-28T14:31:10Z</time>
      </trkpt>
      <trkpt lat="45.7175" lon="6.45794">
        <ele>558</ele>
        <time>2022-07-28T14:31:11Z</time>
      </trkpt>
      <trkpt lat="45.71751" lon="6.45793">
        <ele>558</ele>
        <time>2022-07-28T14:31:12Z</time>
      </trkpt>
      <trkpt lat="45.71752" lon="6.45793">
        <ele>558</ele>
        <time>2022-07-28T14:31:13Z</time>
      </trkpt>
      <trkpt lat="45.71753" lon="6.45793">
        <ele>558</ele>
        <time>2022-07-28T14:31:14Z</time>
      </trkpt>
      <trkpt lat="45.71753" lon="6.45793">
        <ele>558</ele>
        <time>2022-07-28T14:31:15Z</time>
      </trkpt>
      <trkpt lat="45.71754" lon="6.45793">
        <ele>558</ele>
        <time>2022-07-28T14:31:16Z</time>
      </trkpt>
      <trkpt lat="45.71755" lon="6.45794">
        <ele>558</ele>
        <time>2022-07-28T14:31:17Z</time>
      </trkpt>
      <trkpt lat="45.71756" lon="6.45794">
        <ele>558</ele>
        <time>2022-07-28T14:31:18Z</time>
      </trkpt>
      <trkpt lat="45.71757" lon="6.45795">
        <ele>558</ele>
        <time>2022-07-28T14:31:19Z</time>
      </trkpt>
      <trkpt lat="45.71758" lon="6.45795">
        <ele>558</ele>
        <time>2022-07-28T14:31:20Z</time>
      </trkpt>
      <trkpt lat="45.7176" lon="6.45796">
        <ele>558</ele>
        <time>2022-07-28T14:31:21Z</time>
      </trkpt>
      <trkpt lat="45.71761" lon="6.45796">
        <ele>558</ele>
        <time>2022-07-28T14:31:22Z</time>
      </trkpt>
      <trkpt lat="45.71762" lon="6.45796">
        <ele>558</ele>
        <time>2022-07-28T14:31:23Z</time>
      </trkpt>
      <trkpt lat="45.71763" lon="6.45797">
        <ele>558</ele>
        <time>2022-07-28T14:31:24Z</time>
      </trkpt>
      <trkpt lat="45.71764" lon="6.45797">
        <ele>558</ele>
        <time>2022-07-28T14:31:25Z</time>
      </trkpt>
      <trkpt lat="45.71765" lon="6.45797">
        <ele>558</ele>
        <time>2022-07-28T14:31:26Z</time>
      </trkpt>
      <trkpt lat="45.71766" lon="6.45796">
        <ele>558</ele>
        <time>2022-07-28T14:31:27Z</time>
      </trkpt>
      <trkpt lat="45.71767" lon="6.45796">
        <ele>558</ele>
        <time>2022-07-28T14:31:28Z</time>
      </trkpt>
      <trkpt lat="45.71768" lon="6.45795">
        <ele>558</ele>
        <time>2022-07-28T14:31:29Z</time>
      </trkpt>
      <trkpt lat="45.71769" lon="6.45795">
        <ele>558</ele>
        <time>2022-07-28T14:31:30Z</time>
      </trkpt>
      <trkpt lat="45.7177" lon="6.45794">
        <ele>559</ele>
        <time>2022-07-28T14:31:31Z</time>
      </trkpt>
      <trkpt lat="45.7177" lon="6.45794">
        <ele>559</ele>
        <time>2022-07-28T14:31:32Z</time>
      </trkpt>
      <trkpt lat="45.71771" lon="6.45793">
        <ele>559</ele>
        <time>2022-07-28T14:31:33Z</time>
      </trkpt>
      <trkpt lat="45.71772" lon="6.45792">
        <ele>559</ele>
        <time>2022-07-28T14:31:34Z</time>
      </trkpt>
      <trkpt lat="45.71772" lon="6.45791">
        <ele>559</ele>
        <time>2022-07-28T14:31:35Z</time>
      </trkpt>
      <trkpt lat="45.71772" lon="6.4579">
        <ele>559</ele>
        <time>2022-07-28T14:31:36Z</time>
      </trkpt>
      <trkpt lat="45.71772" lon="6.45788">
        <ele>559</ele>
        <time>2022-07-28T14:31:37Z</time>
      </trkpt>
      <trkpt lat="45.71772" lon="6.45787">
        <ele>559</ele>
        <time>2022-07-28T14:31:38Z</time>
        <extensions>
          <visugpx:TrkExtension xmlns:visugpx="https://www.visugpx.com/editgpx/">
            <visugpx:node>1</visugpx:node>
            </visugpx:TrkExtension>
        </extensions>
      </trkpt>
    </trkseg>
  </trk>
</gpx>